<?xml version='1.0' encoding='UTF-8'?><gpx version="1.1" creator="JPX - https://github.com/jenetics/jpx" xmlns="http://www.topografix.com/GPX/1/1"><trk><trkseg><trkpt lat="40.84348330691021" lon="8.39211594113032"><ele>0.0</ele><time>2026-04-30T07:07:41.998Z</time></trkpt><trkpt lat="40.84340636556259" lon="8.392033433239572"><ele>0.0</ele><time>2026-04-30T07:07:44.998Z</time></trkpt><trkpt lat="40.843316772560854" lon="8.391939757110741"><ele>0.0</ele><time>2026-04-30T07:07:46.998Z</time></trkpt><trkpt lat="40.84321686120598" lon="8.39186301829443"><ele>0.0</ele><time>2026-04-30T07:07:48.998Z</time></trkpt><trkpt lat="40.84315829827666" lon="8.391830158059433"><ele>0.0</ele><time>2026-04-30T07:07:49.998Z</time></trkpt><trkpt lat="40.843092806489416" lon="8.391809004749495"><ele>0.0</ele><time>2026-04-30T07:07:50.998Z</time></trkpt><trkpt lat="40.84302456652098" lon="8.391791363692935"><ele>0.0</ele><time>2026-04-30T07:07:51.998Z</time></trkpt><trkpt lat="40.84289991824113" lon="8.391768650300886"><ele>0.0</ele><time>2026-04-30T07:07:53.998Z</time></trkpt><trkpt lat="40.842832506932034" lon="8.391752994998695"><ele>0.0</ele><time>2026-04-30T07:07:54.998Z</time></trkpt><trkpt lat="40.84276089479674" lon="8.391737148997716"><ele>0.0</ele><time>2026-04-30T07:07:55.998Z</time></trkpt><trkpt lat="40.84269026555198" lon="8.391737710011864"><ele>0.0</ele><time>2026-04-30T07:07:56.998Z</time></trkpt><trkpt lat="40.842616899875466" lon="8.3917330294743"><ele>0.0</ele><time>2026-04-30T07:07:57.998Z</time></trkpt><trkpt lat="40.842541318299084" lon="8.391723889404194"><ele>0.0</ele><time>2026-04-30T07:07:58.998Z</time></trkpt><trkpt lat="40.84246341150795" lon="8.39171906811883"><ele>0.0</ele><time>2026-04-30T07:07:59.998Z</time></trkpt><trkpt lat="40.84238487179966" lon="8.391715426319836"><ele>0.0</ele><time>2026-04-30T07:08:00.998Z</time></trkpt><trkpt lat="40.84231019561933" lon="8.391716188020082"><ele>0.0</ele><time>2026-04-30T07:08:01.998Z</time></trkpt><trkpt lat="40.84223594155909" lon="8.391715089780533"><ele>0.0</ele><time>2026-04-30T07:08:02.998Z</time></trkpt><trkpt lat="40.84216485070123" lon="8.391714637997518"><ele>0.0</ele><time>2026-04-30T07:08:03.998Z</time></trkpt><trkpt lat="40.842086960614864" lon="8.391722436759517"><ele>0.0</ele><time>2026-04-30T07:08:04.998Z</time></trkpt><trkpt lat="40.84200550243934" lon="8.39174152844908"><ele>0.0</ele><time>2026-04-30T07:08:05.998Z</time></trkpt><trkpt lat="40.841919444950726" lon="8.391756926597928"><ele>0.0</ele><time>2026-04-30T07:08:06.998Z</time></trkpt><trkpt lat="40.8418341095816" lon="8.391771553733122"><ele>0.0</ele><time>2026-04-30T07:08:07.998Z</time></trkpt><trkpt lat="40.84175593012261" lon="8.391798833909872"><ele>0.0</ele><time>2026-04-30T07:08:08.998Z</time></trkpt><trkpt lat="40.84167818236185" lon="8.391814143923511"><ele>0.0</ele><time>2026-04-30T07:08:09.998Z</time></trkpt><trkpt lat="40.841601291090996" lon="8.39183398751813"><ele>0.0</ele><time>2026-04-30T07:08:10.998Z</time></trkpt><trkpt lat="40.84153523981239" lon="8.39185298864079"><ele>0.0</ele><time>2026-04-30T07:08:11.998Z</time></trkpt><trkpt lat="40.841469083558074" lon="8.391884248078492"><ele>0.0</ele><time>2026-04-30T07:08:12.998Z</time></trkpt><trkpt lat="40.841399344572466" lon="8.391908402491921"><ele>0.0</ele><time>2026-04-30T07:08:13.998Z</time></trkpt><trkpt lat="40.841324587982974" lon="8.391938061477875"><ele>0.0</ele><time>2026-04-30T07:08:14.998Z</time></trkpt><trkpt lat="40.841250516304385" lon="8.391969988875335"><ele>0.0</ele><time>2026-04-30T07:08:15.998Z</time></trkpt><trkpt lat="40.841177369220134" lon="8.39200309062291"><ele>0.0</ele><time>2026-04-30T07:08:16.998Z</time></trkpt><trkpt lat="40.8411062951997" lon="8.392036664720894"><ele>0.0</ele><time>2026-04-30T07:08:17.998Z</time></trkpt><trkpt lat="40.84103990302444" lon="8.39207150988371"><ele>0.0</ele><time>2026-04-30T07:08:18.998Z</time></trkpt><trkpt lat="40.8409766614544" lon="8.39210027962528"><ele>0.0</ele><time>2026-04-30T07:08:19.998Z</time></trkpt><trkpt lat="40.84090687290931" lon="8.39213618685098"><ele>0.0</ele><time>2026-04-30T07:08:20.998Z</time></trkpt><trkpt lat="40.84085055523681" lon="8.392186145472673"><ele>0.0</ele><time>2026-04-30T07:08:21.998Z</time></trkpt><trkpt lat="40.840780417446155" lon="8.39222483337559"><ele>0.0</ele><time>2026-04-30T07:08:22.997Z</time></trkpt><trkpt lat="40.8407135171178" lon="8.3922656976293"><ele>0.0</ele><time>2026-04-30T07:08:23.997Z</time></trkpt><trkpt lat="40.84064583069216" lon="8.392310251154326"><ele>0.0</ele><time>2026-04-30T07:08:24.997Z</time></trkpt><trkpt lat="40.84058106675933" lon="8.392358270701273"><ele>0.0</ele><time>2026-04-30T07:08:25.997Z</time></trkpt><trkpt lat="40.8405236035152" lon="8.392407487796817"><ele>0.0</ele><time>2026-04-30T07:08:26.997Z</time></trkpt><trkpt lat="40.84046710155793" lon="8.392461890030877"><ele>0.0</ele><time>2026-04-30T07:08:27.997Z</time></trkpt><trkpt lat="40.84041107385075" lon="8.392515849467387"><ele>0.0</ele><time>2026-04-30T07:08:28.997Z</time></trkpt><trkpt lat="40.84030676094231" lon="8.392623712042537"><ele>0.0</ele><time>2026-04-30T07:08:30.997Z</time></trkpt><trkpt lat="40.84021188942639" lon="8.39272770714879"><ele>0.0</ele><time>2026-04-30T07:08:32.996Z</time></trkpt><trkpt lat="40.84016092765443" lon="8.39278698675333"><ele>0.0</ele><time>2026-04-30T07:08:33.996Z</time></trkpt><trkpt lat="40.84006594839431" lon="8.392894565880797"><ele>0.0</ele><time>2026-04-30T07:08:35.996Z</time></trkpt><trkpt lat="40.84001912570497" lon="8.392952453390167"><ele>0.0</ele><time>2026-04-30T07:08:36.996Z</time></trkpt><trkpt lat="40.83993196743513" lon="8.39305260663755"><ele>0.16666666666666666</ele><time>2026-04-30T07:08:38.997Z</time></trkpt><trkpt lat="40.83986286740987" lon="8.393082882894996"><ele>0.3333333333333333</ele><time>2026-04-30T07:08:39.997Z</time></trkpt><trkpt lat="40.83981288524931" lon="8.393138550612145"><ele>0.5</ele><time>2026-04-30T07:08:40.997Z</time></trkpt><trkpt lat="40.839764845125586" lon="8.393192575926081"><ele>0.6666666666666666</ele><time>2026-04-30T07:08:41.997Z</time></trkpt><trkpt lat="40.83967499374252" lon="8.39328946356982"><ele>0.8333333333333333</ele><time>2026-04-30T07:08:43.997Z</time></trkpt><trkpt lat="40.8396368027048" lon="8.393366966551023"><ele>1.0</ele><time>2026-04-30T07:08:44.997Z</time></trkpt><trkpt lat="40.83957793158405" lon="8.39340064742971"><ele>1.0</ele><time>2026-04-30T07:08:45.997Z</time></trkpt><trkpt lat="40.839526854549" lon="8.39345929433061"><ele>0.9999999999999999</ele><time>2026-04-30T07:08:46.998Z</time></trkpt><trkpt lat="40.83948912305911" lon="8.393543082123292"><ele>1.0</ele><time>2026-04-30T07:08:47.998Z</time></trkpt><trkpt lat="40.8394739138335" lon="8.393636275212177"><ele>1.0</ele><time>2026-04-30T07:08:48.998Z</time></trkpt><trkpt lat="40.83950467881016" lon="8.393739823307603"><ele>0.9999999999999999</ele><time>2026-04-30T07:08:49.998Z</time></trkpt><trkpt lat="40.83949432762919" lon="8.393831242727483"><ele>1.0</ele><time>2026-04-30T07:08:50.998Z</time></trkpt><trkpt lat="40.83947429079058" lon="8.393920721858878"><ele>1.0</ele><time>2026-04-30T07:08:51.998Z</time></trkpt><trkpt lat="40.839445640708696" lon="8.394010936078415"><ele>0.9999999999999999</ele><time>2026-04-30T07:08:52.998Z</time></trkpt><trkpt lat="40.83940866100339" lon="8.39409007997195"><ele>1.0</ele><time>2026-04-30T07:08:53.998Z</time></trkpt><trkpt lat="40.83936946939463" lon="8.394161919298876"><ele>1.0</ele><time>2026-04-30T07:08:54.998Z</time></trkpt><trkpt lat="40.83932759909072" lon="8.394231339379777"><ele>1.0</ele><time>2026-04-30T07:08:55.998Z</time></trkpt><trkpt lat="40.83928313481817" lon="8.394293228575838"><ele>0.9999999999999999</ele><time>2026-04-30T07:08:56.998Z</time></trkpt><trkpt lat="40.83918768871618" lon="8.39436866158532"><ele>1.0</ele><time>2026-04-30T07:08:58.999Z</time></trkpt><trkpt lat="40.83907434335194" lon="8.39436704467978"><ele>0.9999999999999999</ele><time>2026-04-30T07:09:00.999Z</time></trkpt><trkpt lat="40.83894665642779" lon="8.394345011659384"><ele>1.0</ele><time>2026-04-30T07:09:02.999Z</time></trkpt><trkpt lat="40.838881866509595" lon="8.394337574246954"><ele>1.0</ele><time>2026-04-30T07:09:03.999Z</time></trkpt><trkpt lat="40.83881221374978" lon="8.394344752851044"><ele>1.0</ele><time>2026-04-30T07:09:04.999Z</time></trkpt><trkpt lat="40.83873754776411" lon="8.394354985140769"><ele>0.9999999999999999</ele><time>2026-04-30T07:09:05.999Z</time></trkpt><trkpt lat="40.8386679680595" lon="8.394365544777363"><ele>1.0</ele><time>2026-04-30T07:09:06.999Z</time></trkpt><trkpt lat="40.838597057558616" lon="8.394380509507409"><ele>0.9999999999999999</ele><time>2026-04-30T07:09:07.999Z</time></trkpt><trkpt lat="40.8385246059887" lon="8.394394070813888"><ele>1.0</ele><time>2026-04-30T07:09:08.999Z</time></trkpt><trkpt lat="40.838455836449135" lon="8.394409696949651"><ele>1.0</ele><time>2026-04-30T07:09:09.999Z</time></trkpt><trkpt lat="40.838391821809346" lon="8.394425652048952"><ele>1.0</ele><time>2026-04-30T07:09:10.999Z</time></trkpt><trkpt lat="40.83828175623833" lon="8.394457562383767"><ele>0.9999999999999999</ele><time>2026-04-30T07:09:12.999Z</time></trkpt><trkpt lat="40.83820453679586" lon="8.394490104518718"><ele>1.0</ele><time>2026-04-30T07:09:14.999Z</time></trkpt><trkpt lat="40.838139642398126" lon="8.394497769543978"><ele>1.6</ele><time>2026-04-30T07:09:18.999Z</time></trkpt><trkpt lat="40.83815802912475" lon="8.394701234644874"><ele>2.2</ele><time>2026-04-30T07:09:20.999Z</time></trkpt><trkpt lat="40.83822021394204" lon="8.39483347048334"><ele>2.8000000000000003</ele><time>2026-04-30T07:09:22.999Z</time></trkpt><trkpt lat="40.83826040349811" lon="8.394908795871677"><ele>3.4000000000000004</ele><time>2026-04-30T07:09:23.999Z</time></trkpt><trkpt lat="40.838302812739244" lon="8.394990598573553"><ele>4.0</ele><time>2026-04-30T07:09:24.999Z</time></trkpt><trkpt lat="40.83834702269765" lon="8.395082629409078"><ele>3.9999999999999996</ele><time>2026-04-30T07:09:25.999Z</time></trkpt><trkpt lat="40.83839169419323" lon="8.395181672420977"><ele>4.0</ele><time>2026-04-30T07:09:26.999Z</time></trkpt><trkpt lat="40.8384341614874" lon="8.39527555317952"><ele>4.0</ele><time>2026-04-30T07:09:27.999Z</time></trkpt><trkpt lat="40.83847518129644" lon="8.395371066355786"><ele>4.0</ele><time>2026-04-30T07:09:28.999Z</time></trkpt><trkpt lat="40.83851808909711" lon="8.395474755158189"><ele>3.9999999999999996</ele><time>2026-04-30T07:09:29.999Z</time></trkpt><trkpt lat="40.838561291115255" lon="8.395583037426624"><ele>4.0</ele><time>2026-04-30T07:09:30.999Z</time></trkpt><trkpt lat="40.8386033419707" lon="8.395694236286912"><ele>3.9999999999999996</ele><time>2026-04-30T07:09:31.999Z</time></trkpt><trkpt lat="40.838639303930044" lon="8.395801425505951"><ele>4.0</ele><time>2026-04-30T07:09:32.999Z</time></trkpt><trkpt lat="40.8386685771874" lon="8.395906273501758"><ele>4.0</ele><time>2026-04-30T07:09:33.999Z</time></trkpt><trkpt lat="40.83868568521833" lon="8.395994800868788"><ele>4.0</ele><time>2026-04-30T07:09:34.999Z</time></trkpt><trkpt lat="40.83869606944798" lon="8.396109408955898"><ele>3.9999999999999996</ele><time>2026-04-30T07:09:36.999Z</time></trkpt><trkpt lat="40.838683416043246" lon="8.396232156614452"><ele>4.0</ele><time>2026-04-30T07:09:38.999Z</time></trkpt><trkpt lat="40.838655398819334" lon="8.396368350989402"><ele>4.0</ele><time>2026-04-30T07:09:40.999Z</time></trkpt><trkpt lat="40.83866436964808" lon="8.396524687002053"><ele>4.0</ele><time>2026-04-30T07:09:42.999Z</time></trkpt><trkpt lat="40.83864198504011" lon="8.396690272424058"><ele>4.0</ele><time>2026-04-30T07:09:44.999Z</time></trkpt><trkpt lat="40.838628713492554" lon="8.396783323407409"><ele>4.0</ele><time>2026-04-30T07:09:45.999Z</time></trkpt><trkpt lat="40.83861228408381" lon="8.396878159743077"><ele>4.0</ele><time>2026-04-30T07:09:46.999Z</time></trkpt><trkpt lat="40.83860874110224" lon="8.39697618296286"><ele>4.0</ele><time>2026-04-30T07:09:47.999Z</time></trkpt><trkpt lat="40.83858405934433" lon="8.397059845296019"><ele>3.9999999999999996</ele><time>2026-04-30T07:09:48.999Z</time></trkpt><trkpt lat="40.83855947417955" lon="8.397141744490725"><ele>4.0</ele><time>2026-04-30T07:09:49.999Z</time></trkpt><trkpt lat="40.838533320219135" lon="8.397238922297175"><ele>4.0</ele><time>2026-04-30T07:09:50.999Z</time></trkpt><trkpt lat="40.83850350462244" lon="8.397333330805639"><ele>3.9999999999999996</ele><time>2026-04-30T07:09:51.999Z</time></trkpt><trkpt lat="40.838499736166945" lon="8.39742062291358"><ele>4.0</ele><time>2026-04-30T07:09:52.999Z</time></trkpt><trkpt lat="40.83843636800137" lon="8.397492574306597"><ele>4.0</ele><time>2026-04-30T07:09:53.999Z</time></trkpt><trkpt lat="40.83838477829524" lon="8.397562822670032"><ele>4.166666666666666</ele><time>2026-04-30T07:09:54.999Z</time></trkpt><trkpt lat="40.838316570410136" lon="8.397608533971695"><ele>4.333333333333333</ele><time>2026-04-30T07:09:55.999Z</time></trkpt><trkpt lat="40.838270254636875" lon="8.39766868903325"><ele>4.5</ele><time>2026-04-30T07:09:56.999Z</time></trkpt><trkpt lat="40.83815885671703" lon="8.397704063845737"><ele>4.666666666666667</ele><time>2026-04-30T07:09:58.999Z</time></trkpt><trkpt lat="40.838038063105465" lon="8.397676939361752"><ele>4.833333333333334</ele><time>2026-04-30T07:10:00.999Z</time></trkpt><trkpt lat="40.837969856190476" lon="8.397663430316895"><ele>5.0</ele><time>2026-04-30T07:10:01.999Z</time></trkpt><trkpt lat="40.83790525636037" lon="8.397652244209546"><ele>5.0</ele><time>2026-04-30T07:10:02.999Z</time></trkpt><trkpt lat="40.837797387572856" lon="8.397643428931865"><ele>5.0</ele><time>2026-04-30T07:10:04.999Z</time></trkpt><trkpt lat="40.83769043830478" lon="8.397665550182298"><ele>5.0</ele><time>2026-04-30T07:10:06.999Z</time></trkpt><trkpt lat="40.83759277033139" lon="8.397723362537043"><ele>5.0</ele><time>2026-04-30T07:10:08.999Z</time></trkpt><trkpt lat="40.83750650153192" lon="8.39778152069151"><ele>5.0</ele><time>2026-04-30T07:10:10.999Z</time></trkpt><trkpt lat="40.837427754472" lon="8.397855746824302"><ele>5.25</ele><time>2026-04-30T07:10:12.999Z</time></trkpt><trkpt lat="40.83734945491184" lon="8.397962443104452"><ele>5.5</ele><time>2026-04-30T07:10:14.999Z</time></trkpt><trkpt lat="40.837303376991635" lon="8.39810571461257"><ele>5.75</ele><time>2026-04-30T07:10:16.999Z</time></trkpt><trkpt lat="40.83729382740617" lon="8.398251283097471"><ele>6.0</ele><time>2026-04-30T07:10:18.999Z</time></trkpt><trkpt lat="40.837279556270914" lon="8.398398177557333"><ele>6.166666666666667</ele><time>2026-04-30T07:10:20.999Z</time></trkpt><trkpt lat="40.837276624853054" lon="8.398564621358306"><ele>6.333333333333334</ele><time>2026-04-30T07:10:22.999Z</time></trkpt><trkpt lat="40.83727427261448" lon="8.398660411124292"><ele>6.5</ele><time>2026-04-30T07:10:23.999Z</time></trkpt><trkpt lat="40.8372717136747" lon="8.39876094265464"><ele>6.666666666666667</ele><time>2026-04-30T07:10:24.999Z</time></trkpt><trkpt lat="40.837268796052484" lon="8.398874064651048"><ele>6.833333333333334</ele><time>2026-04-30T07:10:25.999Z</time></trkpt><trkpt lat="40.83726620865902" lon="8.398974382969405"><ele>7.0</ele><time>2026-04-30T07:10:26.999Z</time></trkpt><trkpt lat="40.8372637797103" lon="8.399069356670893"><ele>6.6</ele><time>2026-04-30T07:10:27.999Z</time></trkpt><trkpt lat="40.83726161082061" lon="8.39915822685956"><ele>6.199999999999999</ele><time>2026-04-30T07:10:28.999Z</time></trkpt><trkpt lat="40.83725763142706" lon="8.399321282431634"><ele>5.8</ele><time>2026-04-30T07:10:30.999Z</time></trkpt><trkpt lat="40.8372555998924" lon="8.399404524478854"><ele>5.4</ele><time>2026-04-30T07:10:31.999Z</time></trkpt><trkpt lat="40.83725225972567" lon="8.399545019607766"><ele>5.0</ele><time>2026-04-30T07:10:33.999Z</time></trkpt><trkpt lat="40.83724944356487" lon="8.399664132374049"><ele>5.166666666666667</ele><time>2026-04-30T07:10:35.999Z</time></trkpt><trkpt lat="40.837246835897155" lon="8.399774426642077"><ele>5.333333333333334</ele><time>2026-04-30T07:10:37.999Z</time></trkpt><trkpt lat="40.83724350453605" lon="8.399915330368778"><ele>5.5</ele><time>2026-04-30T07:10:39.998Z</time></trkpt><trkpt lat="40.83724039819807" lon="8.400046716517426"><ele>5.666666666666667</ele><time>2026-04-30T07:10:41.998Z</time></trkpt><trkpt lat="40.83725357763683" lon="8.400159919982139"><ele>5.833333333333333</ele><time>2026-04-30T07:10:43.998Z</time></trkpt><trkpt lat="40.837233204721585" lon="8.400247833022874"><ele>6.0</ele><time>2026-04-30T07:10:45.998Z</time></trkpt><trkpt lat="40.837351401585074" lon="8.400306239138947"><ele>6.0</ele><time>2026-04-30T07:10:48.998Z</time></trkpt><trkpt lat="40.837452097533124" lon="8.40032071695665"><ele>6.0</ele><time>2026-04-30T07:10:50.998Z</time></trkpt><trkpt lat="40.83756160276037" lon="8.400306756186772"><ele>6.0</ele><time>2026-04-30T07:10:52.998Z</time></trkpt><trkpt lat="40.83767659260448" lon="8.400316516838892"><ele>6.0</ele><time>2026-04-30T07:10:54.999Z</time></trkpt><trkpt lat="40.83779096285658" lon="8.40031645031302"><ele>6.0</ele><time>2026-04-30T07:10:56.999Z</time></trkpt><trkpt lat="40.83789045967288" lon="8.40032609747843"><ele>5.333333333333333</ele><time>2026-04-30T07:10:58.999Z</time></trkpt><trkpt lat="40.837986973648874" lon="8.400333120107078"><ele>4.666666666666667</ele><time>2026-04-30T07:11:00.999Z</time></trkpt><trkpt lat="40.83807844038097" lon="8.40033959926342"><ele>4.0</ele><time>2026-04-30T07:11:02.999Z</time></trkpt><trkpt lat="40.838170848650684" lon="8.400349294463503"><ele>3.333333333333333</ele><time>2026-04-30T07:11:04.999Z</time></trkpt><trkpt lat="40.83825849372705" lon="8.400351991235793"><ele>2.6666666666666665</ele><time>2026-04-30T07:11:06.999Z</time></trkpt><trkpt lat="40.83832485149283" lon="8.400313976775985"><ele>2.0</ele><time>2026-04-30T07:11:08.999Z</time></trkpt><trkpt lat="40.8383747385139" lon="8.400401231224501"><ele>2.0</ele><time>2026-04-30T07:11:09.999Z</time></trkpt><trkpt lat="40.838459733287166" lon="8.400478201044185"><ele>2.0</ele><time>2026-04-30T07:11:11.999Z</time></trkpt><trkpt lat="40.83853267314414" lon="8.400553274625137"><ele>2.0</ele><time>2026-04-30T07:11:13.999Z</time></trkpt><trkpt lat="40.83860799228392" lon="8.400636126280974"><ele>2.0</ele><time>2026-04-30T07:11:15.999Z</time></trkpt><trkpt lat="40.83869012809679" lon="8.40071517549524"><ele>2.0</ele><time>2026-04-30T07:11:17.999Z</time></trkpt><trkpt lat="40.838769608628546" lon="8.400786924082094"><ele>1.8</ele><time>2026-04-30T07:11:19.999Z</time></trkpt><trkpt lat="40.83884941408927" lon="8.400862647883036"><ele>1.6</ele><time>2026-04-30T07:11:21.999Z</time></trkpt><trkpt lat="40.83891953585565" lon="8.400936426950015"><ele>1.4000000000000001</ele><time>2026-04-30T07:11:24Z</time></trkpt><trkpt lat="40.83897581166552" lon="8.40098678002017"><ele>1.2000000000000002</ele><time>2026-04-30T07:11:26Z</time></trkpt><trkpt lat="40.838924329552064" lon="8.401107017983591"><ele>1.0</ele><time>2026-04-30T07:11:27Z</time></trkpt><trkpt lat="40.83889060611139" lon="8.401246352871713"><ele>0.9999999999999999</ele><time>2026-04-30T07:11:29Z</time></trkpt><trkpt lat="40.838856949840356" lon="8.401326697832133"><ele>1.0</ele><time>2026-04-30T07:11:32Z</time></trkpt><trkpt lat="40.83871595053143" lon="8.401272207937552"><ele>1.0</ele><time>2026-04-30T07:11:33Z</time></trkpt><trkpt lat="40.83865088528664" lon="8.401250578539699"><ele>1.0</ele><time>2026-04-30T07:11:35Z</time></trkpt><trkpt lat="40.838568896359874" lon="8.401238404812915"><ele>0.9999999999999999</ele><time>2026-04-30T07:11:38Z</time></trkpt><trkpt lat="40.83850790917145" lon="8.40119984720596"><ele>1.0</ele><time>2026-04-30T07:13:11Z</time></trkpt><trkpt lat="40.83856404038688" lon="8.401091212879063"><ele>1.0</ele><time>2026-04-30T07:15:19.001Z</time></trkpt><trkpt lat="40.83862248989792" lon="8.401168565774311"><ele>0.9999999999999999</ele><time>2026-04-30T07:16:11.001Z</time></trkpt><trkpt lat="40.838598007647995" lon="8.401084015687665"><ele>1.0</ele><time>2026-04-30T07:21:23.001Z</time></trkpt><trkpt lat="40.83860305610407" lon="8.401167209952344"><ele>1.0</ele><time>2026-04-30T07:23:50.001Z</time></trkpt><trkpt lat="40.8385431719204" lon="8.401212229624322"><ele>0.9999999999999999</ele><time>2026-04-30T07:23:55.002Z</time></trkpt><trkpt lat="40.83849313345944" lon="8.401160785519062"><ele>1.0</ele><time>2026-04-30T07:25:41Z</time></trkpt><trkpt lat="40.83842654763635" lon="8.40112084842867"><ele>1.0</ele><time>2026-04-30T07:25:46Z</time></trkpt><trkpt lat="40.83848708677205" lon="8.401168850169757"><ele>0.9999999999999999</ele><time>2026-04-30T07:26:01.001Z</time></trkpt><trkpt lat="40.83853733605619" lon="8.40122131069354"><ele>1.0</ele><time>2026-04-30T07:26:06.001Z</time></trkpt><trkpt lat="40.838448135180776" lon="8.401252107626116"><ele>1.0</ele><time>2026-04-30T07:28:45Z</time></trkpt><trkpt lat="40.83836084172852" lon="8.401234991968828"><ele>1.0</ele><time>2026-04-30T07:28:47Z</time></trkpt><trkpt lat="40.83827394093836" lon="8.40122599022586"><ele>0.9999999999999999</ele><time>2026-04-30T07:28:49Z</time></trkpt><trkpt lat="40.838201337592814" lon="8.401233644172333"><ele>1.0</ele><time>2026-04-30T07:28:51Z</time></trkpt><trkpt lat="40.83811895830782" lon="8.401224036608022"><ele>1.6666666666666665</ele><time>2026-04-30T07:28:53Z</time></trkpt><trkpt lat="40.8380282551357" lon="8.401224855323443"><ele>2.3333333333333335</ele><time>2026-04-30T07:28:55Z</time></trkpt><trkpt lat="40.83792802094014" lon="8.401225972402923"><ele>3.0</ele><time>2026-04-30T07:28:57Z</time></trkpt><trkpt lat="40.83784626234763" lon="8.40122232372644"><ele>3.666666666666667</ele><time>2026-04-30T07:28:59Z</time></trkpt><trkpt lat="40.83777735220754" lon="8.401215971053917"><ele>4.333333333333334</ele><time>2026-04-30T07:29:01Z</time></trkpt><trkpt lat="40.83770464791599" lon="8.401225512493292"><ele>5.0</ele><time>2026-04-30T07:29:03Z</time></trkpt><trkpt lat="40.837603649502796" lon="8.401206106404537"><ele>5.2</ele><time>2026-04-30T07:29:05Z</time></trkpt><trkpt lat="40.83750301550981" lon="8.401196120064819"><ele>5.4</ele><time>2026-04-30T07:29:07Z</time></trkpt><trkpt lat="40.8374034083301" lon="8.401197335917175"><ele>5.6</ele><time>2026-04-30T07:29:09Z</time></trkpt><trkpt lat="40.837297837329615" lon="8.401192146476406"><ele>5.8</ele><time>2026-04-30T07:29:11Z</time></trkpt><trkpt lat="40.837191483920385" lon="8.401194420143163"><ele>6.0</ele><time>2026-04-30T07:29:13Z</time></trkpt><trkpt lat="40.8370929528624" lon="8.401197193126889"><ele>6.0</ele><time>2026-04-30T07:29:15Z</time></trkpt><trkpt lat="40.836974124530876" lon="8.401181869559574"><ele>6.0</ele><time>2026-04-30T07:29:17Z</time></trkpt><trkpt lat="40.8368511602281" lon="8.401178495137696"><ele>6.0</ele><time>2026-04-30T07:29:19Z</time></trkpt><trkpt lat="40.83678058757332" lon="8.401197715698235"><ele>6.0</ele><time>2026-04-30T07:29:20Z</time></trkpt><trkpt lat="40.83670578389563" lon="8.401197988626885"><ele>6.0</ele><time>2026-04-30T07:29:21Z</time></trkpt><trkpt lat="40.83661751843928" lon="8.4011959693525"><ele>6.6</ele><time>2026-04-30T07:29:22Z</time></trkpt><trkpt lat="40.83652508964008" lon="8.401192948595929"><ele>7.199999999999999</ele><time>2026-04-30T07:29:23Z</time></trkpt><trkpt lat="40.8364303934726" lon="8.401195147142618"><ele>7.800000000000001</ele><time>2026-04-30T07:29:24Z</time></trkpt><trkpt lat="40.836337401009985" lon="8.401189987463129"><ele>8.4</ele><time>2026-04-30T07:29:25Z</time></trkpt><trkpt lat="40.83624545824297" lon="8.401191710004253"><ele>9.0</ele><time>2026-04-30T07:29:26Z</time></trkpt><trkpt lat="40.83615870018359" lon="8.401196983357154"><ele>9.0</ele><time>2026-04-30T07:29:27Z</time></trkpt><trkpt lat="40.8360743605381" lon="8.401193615328122"><ele>9.0</ele><time>2026-04-30T07:29:28Z</time></trkpt><trkpt lat="40.835995252942915" lon="8.401170059513703"><ele>9.0</ele><time>2026-04-30T07:29:29Z</time></trkpt><trkpt lat="40.835915609351176" lon="8.401186925984401"><ele>9.0</ele><time>2026-04-30T07:29:30Z</time></trkpt><trkpt lat="40.835838521890004" lon="8.401163377064284"><ele>9.0</ele><time>2026-04-30T07:29:31Z</time></trkpt><trkpt lat="40.83575156868151" lon="8.401169165501864"><ele>9.0</ele><time>2026-04-30T07:29:32Z</time></trkpt><trkpt lat="40.8356856523941" lon="8.401208209349363"><ele>9.4</ele><time>2026-04-30T07:29:33Z</time></trkpt><trkpt lat="40.83560313630399" lon="8.401234704790756"><ele>9.8</ele><time>2026-04-30T07:29:34Z</time></trkpt><trkpt lat="40.83549669271834" lon="8.401285596529945"><ele>10.200000000000001</ele><time>2026-04-30T07:29:36Z</time></trkpt><trkpt lat="40.835376379952685" lon="8.401346778858313"><ele>10.600000000000001</ele><time>2026-04-30T07:29:38Z</time></trkpt><trkpt lat="40.83531274643017" lon="8.401378567279027"><ele>11.0</ele><time>2026-04-30T07:29:39Z</time></trkpt><trkpt lat="40.83524761605975" lon="8.401385881333287"><ele>11.0</ele><time>2026-04-30T07:29:40Z</time></trkpt><trkpt lat="40.83519130189912" lon="8.401427856661382"><ele>11.0</ele><time>2026-04-30T07:29:41Z</time></trkpt><trkpt lat="40.83507072622451" lon="8.401472300263956"><ele>11.0</ele><time>2026-04-30T07:29:43Z</time></trkpt><trkpt lat="40.83500543592467" lon="8.401493975663376"><ele>11.0</ele><time>2026-04-30T07:29:44Z</time></trkpt><trkpt lat="40.83494183031513" lon="8.40151778211539"><ele>11.0</ele><time>2026-04-30T07:29:45Z</time></trkpt><trkpt lat="40.83487952165915" lon="8.401543305506136"><ele>11.0</ele><time>2026-04-30T07:29:46Z</time></trkpt><trkpt lat="40.83481846060547" lon="8.401563937297924"><ele>11.0</ele><time>2026-04-30T07:29:47Z</time></trkpt><trkpt lat="40.83475837469222" lon="8.401593208204392"><ele>11.0</ele><time>2026-04-30T07:29:48Z</time></trkpt><trkpt lat="40.834646312030074" lon="8.401638041563343"><ele>11.0</ele><time>2026-04-30T07:29:50Z</time></trkpt><trkpt lat="40.83451947349717" lon="8.401666953819127"><ele>11.0</ele><time>2026-04-30T07:29:52Z</time></trkpt><trkpt lat="40.83445579148517" lon="8.401713697890688"><ele>11.0</ele><time>2026-04-30T07:29:53Z</time></trkpt><trkpt lat="40.83437535109598" lon="8.401740013532335"><ele>11.142857142857142</ele><time>2026-04-30T07:29:54Z</time></trkpt><trkpt lat="40.83430384156184" lon="8.40176550553146"><ele>11.285714285714285</ele><time>2026-04-30T07:29:55Z</time></trkpt><trkpt lat="40.83424276025082" lon="8.401791246521215"><ele>11.428571428571427</ele><time>2026-04-30T07:29:56Z</time></trkpt><trkpt lat="40.83417914714472" lon="8.401814570164607"><ele>11.571428571428571</ele><time>2026-04-30T07:29:57Z</time></trkpt><trkpt lat="40.83411270901016" lon="8.401839199885178"><ele>11.714285714285714</ele><time>2026-04-30T07:29:58Z</time></trkpt><trkpt lat="40.83404474533228" lon="8.401862852837992"><ele>11.857142857142856</ele><time>2026-04-30T07:29:59Z</time></trkpt><trkpt lat="40.833977376293056" lon="8.40189037327442"><ele>12.0</ele><time>2026-04-30T07:30:00Z</time></trkpt><trkpt lat="40.83390559596466" lon="8.401917515495876"><ele>12.0</ele><time>2026-04-30T07:30:01Z</time></trkpt><trkpt lat="40.833832863889675" lon="8.401942340007789"><ele>12.0</ele><time>2026-04-30T07:30:02Z</time></trkpt><trkpt lat="40.83375969286647" lon="8.401974292737352"><ele>12.0</ele><time>2026-04-30T07:30:03Z</time></trkpt><trkpt lat="40.83368579980427" lon="8.402006088747818"><ele>12.0</ele><time>2026-04-30T07:30:04Z</time></trkpt><trkpt lat="40.83360865052647" lon="8.402043762105714"><ele>12.0</ele><time>2026-04-30T07:30:05Z</time></trkpt><trkpt lat="40.83353788520726" lon="8.402088400730573"><ele>12.0</ele><time>2026-04-30T07:30:06Z</time></trkpt><trkpt lat="40.833477276042984" lon="8.40213293613646"><ele>12.5</ele><time>2026-04-30T07:30:07Z</time></trkpt><trkpt lat="40.833422714703865" lon="8.402181466388095"><ele>13.0</ele><time>2026-04-30T07:30:08Z</time></trkpt><trkpt lat="40.83335426997279" lon="8.402229475717773"><ele>13.5</ele><time>2026-04-30T07:30:09Z</time></trkpt><trkpt lat="40.83328319881423" lon="8.402281567278964"><ele>14.0</ele><time>2026-04-30T07:30:10Z</time></trkpt><trkpt lat="40.833170748402274" lon="8.402343703451825"><ele>14.5</ele><time>2026-04-30T07:30:11.999Z</time></trkpt><trkpt lat="40.83310081855429" lon="8.40238991588506"><ele>15.0</ele><time>2026-04-30T07:30:12.999Z</time></trkpt><trkpt lat="40.83303561899067" lon="8.402454932153795"><ele>15.0</ele><time>2026-04-30T07:30:13.999Z</time></trkpt><trkpt lat="40.832957764335696" lon="8.402492447238231"><ele>15.0</ele><time>2026-04-30T07:30:14.999Z</time></trkpt><trkpt lat="40.83288432522344" lon="8.402544580208703"><ele>15.0</ele><time>2026-04-30T07:30:15.999Z</time></trkpt><trkpt lat="40.83280937274592" lon="8.402598246933133"><ele>15.0</ele><time>2026-04-30T07:30:16.999Z</time></trkpt><trkpt lat="40.83274639402124" lon="8.402649187631102"><ele>15.0</ele><time>2026-04-30T07:30:17.999Z</time></trkpt><trkpt lat="40.83268075207238" lon="8.402698439558428"><ele>15.0</ele><time>2026-04-30T07:30:18.999Z</time></trkpt><trkpt lat="40.83261758322145" lon="8.402749428461025"><ele>15.0</ele><time>2026-04-30T07:30:19.999Z</time></trkpt><trkpt lat="40.832554212736234" lon="8.402790540062762"><ele>15.0</ele><time>2026-04-30T07:30:20.999Z</time></trkpt><trkpt lat="40.832496249884386" lon="8.402835105900547"><ele>15.0</ele><time>2026-04-30T07:30:21.999Z</time></trkpt><trkpt lat="40.83243664846527" lon="8.402877331770659"><ele>15.0</ele><time>2026-04-30T07:30:22.999Z</time></trkpt><trkpt lat="40.8323788459963" lon="8.402915704364666"><ele>15.0</ele><time>2026-04-30T07:30:23.999Z</time></trkpt><trkpt lat="40.83228718662375" lon="8.402983912977183"><ele>15.0</ele><time>2026-04-30T07:30:25.999Z</time></trkpt><trkpt lat="40.83221695937053" lon="8.403038659289514"><ele>15.0</ele><time>2026-04-30T07:30:27.999Z</time></trkpt><trkpt lat="40.83215411374501" lon="8.403089634884246"><ele>15.0</ele><time>2026-04-30T07:30:30.999Z</time></trkpt><trkpt lat="40.83212294173976" lon="8.403219981567085"><ele>15.0</ele><time>2026-04-30T07:30:33.999Z</time></trkpt><trkpt lat="40.832112333983765" lon="8.403348446098445"><ele>15.0</ele><time>2026-04-30T07:30:35.999Z</time></trkpt><trkpt lat="40.83208564522637" lon="8.403462653061636"><ele>15.0</ele><time>2026-04-30T07:30:37.999Z</time></trkpt><trkpt lat="40.83205421658877" lon="8.4035569923521"><ele>15.0</ele><time>2026-04-30T07:30:39.999Z</time></trkpt><trkpt lat="40.83203202479202" lon="8.403642228716663"><ele>15.0</ele><time>2026-04-30T07:30:41.999Z</time></trkpt><trkpt lat="40.832015224546815" lon="8.403739453691266"><ele>15.0</ele><time>2026-04-30T07:30:45.999Z</time></trkpt><trkpt lat="40.831989996393865" lon="8.403839276368235"><ele>15.0</ele><time>2026-04-30T07:30:48.999Z</time></trkpt><trkpt lat="40.831990843820776" lon="8.403967490051238"><ele>15.0</ele><time>2026-04-30T07:30:51.999Z</time></trkpt><trkpt lat="40.83200739695728" lon="8.404082057345644"><ele>15.0</ele><time>2026-04-30T07:30:53.999Z</time></trkpt><trkpt lat="40.83202026469775" lon="8.40423681171543"><ele>15.0</ele><time>2026-04-30T07:30:55.999Z</time></trkpt><trkpt lat="40.832017713788325" lon="8.404390641614546"><ele>15.0</ele><time>2026-04-30T07:30:57.999Z</time></trkpt><trkpt lat="40.83201375992778" lon="8.404485328259762"><ele>15.0</ele><time>2026-04-30T07:30:58.999Z</time></trkpt><trkpt lat="40.8320067720972" lon="8.404577492345117"><ele>15.0</ele><time>2026-04-30T07:30:59.999Z</time></trkpt><trkpt lat="40.83199494739508" lon="8.404667204825836"><ele>15.0</ele><time>2026-04-30T07:31:00.999Z</time></trkpt><trkpt lat="40.83196811038877" lon="8.404801035544919"><ele>15.0</ele><time>2026-04-30T07:31:02.999Z</time></trkpt><trkpt lat="40.83194523707571" lon="8.404936775059587"><ele>14.833333333333334</ele><time>2026-04-30T07:31:04.999Z</time></trkpt><trkpt lat="40.83191527956345" lon="8.405066227750853"><ele>14.666666666666668</ele><time>2026-04-30T07:31:06.999Z</time></trkpt><trkpt lat="40.83188497031906" lon="8.405183001023698"><ele>14.5</ele><time>2026-04-30T07:31:08.999Z</time></trkpt><trkpt lat="40.83185633061418" lon="8.405293337268938"><ele>14.333333333333334</ele><time>2026-04-30T07:31:10.999Z</time></trkpt><trkpt lat="40.83184544572882" lon="8.405379025571172"><ele>14.166666666666668</ele><time>2026-04-30T07:31:11.999Z</time></trkpt><trkpt lat="40.831839814837515" lon="8.405472652984608"><ele>14.0</ele><time>2026-04-30T07:31:12.999Z</time></trkpt><trkpt lat="40.831823973385276" lon="8.405579725220674"><ele>14.166666666666668</ele><time>2026-04-30T07:31:13.999Z</time></trkpt><trkpt lat="40.83180391870227" lon="8.40569322995928"><ele>14.333333333333334</ele><time>2026-04-30T07:31:14.999Z</time></trkpt><trkpt lat="40.83178574769797" lon="8.405813583766825"><ele>14.5</ele><time>2026-04-30T07:31:15.999Z</time></trkpt><trkpt lat="40.83175917358514" lon="8.40592246159371"><ele>14.666666666666668</ele><time>2026-04-30T07:31:16.999Z</time></trkpt><trkpt lat="40.831736615229154" lon="8.40601884432956"><ele>14.833333333333334</ele><time>2026-04-30T07:31:17.999Z</time></trkpt><trkpt lat="40.831715985860626" lon="8.406111451627948"><ele>15.0</ele><time>2026-04-30T07:31:18.999Z</time></trkpt><trkpt lat="40.83169473135083" lon="8.406199373098152"><ele>15.0</ele><time>2026-04-30T07:31:19.999Z</time></trkpt><trkpt lat="40.83167343139361" lon="8.406289183677895"><ele>15.0</ele><time>2026-04-30T07:31:20.999Z</time></trkpt><trkpt lat="40.83166016476342" lon="8.406373928161273"><ele>15.0</ele><time>2026-04-30T07:31:21.999Z</time></trkpt><trkpt lat="40.831640289049396" lon="8.406457316197509"><ele>15.0</ele><time>2026-04-30T07:31:22.999Z</time></trkpt><trkpt lat="40.831624224238716" lon="8.40653901003076"><ele>15.0</ele><time>2026-04-30T07:31:23.999Z</time></trkpt><trkpt lat="40.83159986182625" lon="8.40663171357534"><ele>15.0</ele><time>2026-04-30T07:31:24.999Z</time></trkpt><trkpt lat="40.83157903073435" lon="8.406734327655037"><ele>15.0</ele><time>2026-04-30T07:31:25.999Z</time></trkpt><trkpt lat="40.83155863355308" lon="8.40684522216432"><ele>15.0</ele><time>2026-04-30T07:31:26.999Z</time></trkpt><trkpt lat="40.83153704648798" lon="8.406972401721124"><ele>15.0</ele><time>2026-04-30T07:31:27.999Z</time></trkpt><trkpt lat="40.83149277203731" lon="8.407090501700853"><ele>15.0</ele><time>2026-04-30T07:31:28.999Z</time></trkpt><trkpt lat="40.83146748688211" lon="8.407224918585987"><ele>15.0</ele><time>2026-04-30T07:31:29.999Z</time></trkpt><trkpt lat="40.83143254092168" lon="8.407349076333503"><ele>15.0</ele><time>2026-04-30T07:31:30.999Z</time></trkpt><trkpt lat="40.8313942601739" lon="8.407460849688691"><ele>15.0</ele><time>2026-04-30T07:31:31.999Z</time></trkpt><trkpt lat="40.831361057194606" lon="8.407569548057552"><ele>15.0</ele><time>2026-04-30T07:31:32.999Z</time></trkpt><trkpt lat="40.83132760893193" lon="8.407679102570631"><ele>15.0</ele><time>2026-04-30T07:31:33.999Z</time></trkpt><trkpt lat="40.831295056878446" lon="8.407783915954264"><ele>15.0</ele><time>2026-04-30T07:31:34.999Z</time></trkpt><trkpt lat="40.83126314253239" lon="8.40789235043326"><ele>15.0</ele><time>2026-04-30T07:31:35.999Z</time></trkpt><trkpt lat="40.831229493393096" lon="8.40799554999219"><ele>15.0</ele><time>2026-04-30T07:31:36.999Z</time></trkpt><trkpt lat="40.8312032560216" lon="8.408095112563414"><ele>14.857142857142858</ele><time>2026-04-30T07:31:37.999Z</time></trkpt><trkpt lat="40.83117769325444" lon="8.408186069697564"><ele>14.714285714285714</ele><time>2026-04-30T07:31:38.999Z</time></trkpt><trkpt lat="40.831153812930154" lon="8.408266693552868"><ele>14.571428571428571</ele><time>2026-04-30T07:31:39.999Z</time></trkpt><trkpt lat="40.831129488204645" lon="8.408349632749863"><ele>14.428571428571429</ele><time>2026-04-30T07:31:40.999Z</time></trkpt><trkpt lat="40.83110786206974" lon="8.408438215768292"><ele>14.285714285714285</ele><time>2026-04-30T07:31:41.999Z</time></trkpt><trkpt lat="40.831068460238505" lon="8.40853243023653"><ele>14.142857142857142</ele><time>2026-04-30T07:31:42.999Z</time></trkpt><trkpt lat="40.83103682676551" lon="8.40864186822058"><ele>14.0</ele><time>2026-04-30T07:31:43.999Z</time></trkpt><trkpt lat="40.831004603468315" lon="8.408755785915847"><ele>14.166666666666668</ele><time>2026-04-30T07:31:44.999Z</time></trkpt><trkpt lat="40.8309747096431" lon="8.408862582572173"><ele>14.333333333333334</ele><time>2026-04-30T07:31:45.999Z</time></trkpt><trkpt lat="40.83095754227572" lon="8.408971475882096"><ele>14.5</ele><time>2026-04-30T07:31:46.999Z</time></trkpt><trkpt lat="40.83092987166973" lon="8.409070762357743"><ele>14.666666666666668</ele><time>2026-04-30T07:31:47.999Z</time></trkpt><trkpt lat="40.83089853687099" lon="8.409175619725305"><ele>14.833333333333334</ele><time>2026-04-30T07:31:48.999Z</time></trkpt><trkpt lat="40.830867314733354" lon="8.409292456430865"><ele>15.0</ele><time>2026-04-30T07:31:49.999Z</time></trkpt><trkpt lat="40.830840521749614" lon="8.409420593275424"><ele>15.0</ele><time>2026-04-30T07:31:50.999Z</time></trkpt><trkpt lat="40.830815550291106" lon="8.409550719694634"><ele>15.0</ele><time>2026-04-30T07:31:51.999Z</time></trkpt><trkpt lat="40.83079404851509" lon="8.409677893398852"><ele>15.0</ele><time>2026-04-30T07:31:52.999Z</time></trkpt><trkpt lat="40.83077903240184" lon="8.409806567126779"><ele>15.0</ele><time>2026-04-30T07:31:53.999Z</time></trkpt><trkpt lat="40.830765032535126" lon="8.409923036841876"><ele>15.0</ele><time>2026-04-30T07:31:54.999Z</time></trkpt><trkpt lat="40.83075429330332" lon="8.410029756207313"><ele>15.0</ele><time>2026-04-30T07:31:55.999Z</time></trkpt><trkpt lat="40.83074282218587" lon="8.410140811656166"><ele>15.0</ele><time>2026-04-30T07:31:56.999Z</time></trkpt><trkpt lat="40.83073230149711" lon="8.410256144860558"><ele>15.0</ele><time>2026-04-30T07:31:57.999Z</time></trkpt><trkpt lat="40.830723267372115" lon="8.410371731666315"><ele>15.0</ele><time>2026-04-30T07:31:58.999Z</time></trkpt><trkpt lat="40.83069212530104" lon="8.410498825248862"><ele>15.0</ele><time>2026-04-30T07:31:59.999Z</time></trkpt><trkpt lat="40.830670146576075" lon="8.410634726482755"><ele>15.4</ele><time>2026-04-30T07:32:00.999Z</time></trkpt><trkpt lat="40.83064503969774" lon="8.410766352592958"><ele>15.8</ele><time>2026-04-30T07:32:01.999Z</time></trkpt><trkpt lat="40.83061639709013" lon="8.410891318871748"><ele>16.2</ele><time>2026-04-30T07:32:02.999Z</time></trkpt><trkpt lat="40.83058251602344" lon="8.411016927724651"><ele>16.6</ele><time>2026-04-30T07:32:03.999Z</time></trkpt><trkpt lat="40.83054182668937" lon="8.411153075873703"><ele>17.0</ele><time>2026-04-30T07:32:04.999Z</time></trkpt><trkpt lat="40.830494222342246" lon="8.411309811595407"><ele>17.0</ele><time>2026-04-30T07:32:05.999Z</time></trkpt><trkpt lat="40.83044747312643" lon="8.41146225913268"><ele>17.0</ele><time>2026-04-30T07:32:06.999Z</time></trkpt><trkpt lat="40.83042207764201" lon="8.411594666581484"><ele>17.0</ele><time>2026-04-30T07:32:07.999Z</time></trkpt><trkpt lat="40.830387799997276" lon="8.41171584352049"><ele>17.0</ele><time>2026-04-30T07:32:08.999Z</time></trkpt><trkpt lat="40.830337442939694" lon="8.411835548239107"><ele>17.0</ele><time>2026-04-30T07:32:09.999Z</time></trkpt><trkpt lat="40.8303087725967" lon="8.41197401908342"><ele>17.0</ele><time>2026-04-30T07:32:10.999Z</time></trkpt><trkpt lat="40.83026293164447" lon="8.412105874321309"><ele>17.0</ele><time>2026-04-30T07:32:11.999Z</time></trkpt><trkpt lat="40.830214220628264" lon="8.41223830650243"><ele>17.0</ele><time>2026-04-30T07:32:12.999Z</time></trkpt><trkpt lat="40.83016805222722" lon="8.412372528364656"><ele>17.0</ele><time>2026-04-30T07:32:13.999Z</time></trkpt><trkpt lat="40.83012687854066" lon="8.412502725891057"><ele>17.0</ele><time>2026-04-30T07:32:14.999Z</time></trkpt><trkpt lat="40.8300853104296" lon="8.412631842505611"><ele>16.75</ele><time>2026-04-30T07:32:15.999Z</time></trkpt><trkpt lat="40.83004319978664" lon="8.412765901798933"><ele>16.5</ele><time>2026-04-30T07:32:16.999Z</time></trkpt><trkpt lat="40.829987089812434" lon="8.412894851557958"><ele>16.25</ele><time>2026-04-30T07:32:17.998Z</time></trkpt><trkpt lat="40.82993914073505" lon="8.413033740842888"><ele>16.0</ele><time>2026-04-30T07:32:18.998Z</time></trkpt><trkpt lat="40.82989163794409" lon="8.413172380421205"><ele>16.400000000000002</ele><time>2026-04-30T07:32:19.998Z</time></trkpt><trkpt lat="40.82984936600165" lon="8.41329575409968"><ele>16.8</ele><time>2026-04-30T07:32:20.998Z</time></trkpt><trkpt lat="40.82980874346859" lon="8.41340898612877"><ele>17.200000000000003</ele><time>2026-04-30T07:32:21.998Z</time></trkpt><trkpt lat="40.82977183352711" lon="8.413513701500577"><ele>17.6</ele><time>2026-04-30T07:32:22.998Z</time></trkpt><trkpt lat="40.82973495463163" lon="8.413618328756248"><ele>18.0</ele><time>2026-04-30T07:32:23.998Z</time></trkpt><trkpt lat="40.82969737561385" lon="8.41371801525561"><ele>18.0</ele><time>2026-04-30T07:32:24.998Z</time></trkpt><trkpt lat="40.82965931468486" lon="8.41381177860697"><ele>18.0</ele><time>2026-04-30T07:32:25.998Z</time></trkpt><trkpt lat="40.82961923652174" lon="8.413906363354673"><ele>18.0</ele><time>2026-04-30T07:32:26.998Z</time></trkpt><trkpt lat="40.82957833312313" lon="8.41399880756102"><ele>18.0</ele><time>2026-04-30T07:32:27.998Z</time></trkpt><trkpt lat="40.82953455015398" lon="8.414091960872176"><ele>18.0</ele><time>2026-04-30T07:32:28.998Z</time></trkpt><trkpt lat="40.82949892317762" lon="8.414189824789188"><ele>18.0</ele><time>2026-04-30T07:32:29.998Z</time></trkpt><trkpt lat="40.82944812279947" lon="8.414274133453274"><ele>18.166666666666668</ele><time>2026-04-30T07:32:30.998Z</time></trkpt><trkpt lat="40.82939191754495" lon="8.41435467144306"><ele>18.333333333333332</ele><time>2026-04-30T07:32:31.998Z</time></trkpt><trkpt lat="40.829332303985474" lon="8.414438742950422"><ele>18.5</ele><time>2026-04-30T07:32:32.998Z</time></trkpt><trkpt lat="40.829272029958524" lon="8.414516663122976"><ele>18.666666666666664</ele><time>2026-04-30T07:32:33.998Z</time></trkpt><trkpt lat="40.8291980127254" lon="8.414580795320184"><ele>18.833333333333332</ele><time>2026-04-30T07:32:34.998Z</time></trkpt><trkpt lat="40.829131722382" lon="8.41466231314079"><ele>19.0</ele><time>2026-04-30T07:32:35.999Z</time></trkpt><trkpt lat="40.82906297084676" lon="8.414744521808874"><ele>19.6</ele><time>2026-04-30T07:32:36.999Z</time></trkpt><trkpt lat="40.828994964165666" lon="8.41483802306876"><ele>20.2</ele><time>2026-04-30T07:32:37.999Z</time></trkpt><trkpt lat="40.82892053987987" lon="8.414931830170804"><ele>20.8</ele><time>2026-04-30T07:32:38.999Z</time></trkpt><trkpt lat="40.828845324982474" lon="8.415026634232477"><ele>21.400000000000002</ele><time>2026-04-30T07:32:39.999Z</time></trkpt><trkpt lat="40.82877934434497" lon="8.415137865723572"><ele>22.0</ele><time>2026-04-30T07:32:40.999Z</time></trkpt><trkpt lat="40.828702069352" lon="8.415237239695907"><ele>22.0</ele><time>2026-04-30T07:32:41.999Z</time></trkpt><trkpt lat="40.828608647982826" lon="8.415324952189435"><ele>22.0</ele><time>2026-04-30T07:32:42.999Z</time></trkpt><trkpt lat="40.82852927571243" lon="8.41542499659258"><ele>22.0</ele><time>2026-04-30T07:32:43.999Z</time></trkpt><trkpt lat="40.82846328135961" lon="8.415537338064562"><ele>22.0</ele><time>2026-04-30T07:32:44.999Z</time></trkpt><trkpt lat="40.82838812195704" lon="8.41563302134878"><ele>22.0</ele><time>2026-04-30T07:32:45.999Z</time></trkpt><trkpt lat="40.82831672221041" lon="8.415723881226892"><ele>22.0</ele><time>2026-04-30T07:32:46.999Z</time></trkpt><trkpt lat="40.82824500724723" lon="8.41581377060297"><ele>22.0</ele><time>2026-04-30T07:32:47.999Z</time></trkpt><trkpt lat="40.828173027673145" lon="8.415901627187498"><ele>22.0</ele><time>2026-04-30T07:32:48.999Z</time></trkpt><trkpt lat="40.82810089529157" lon="8.41598523327009"><ele>22.0</ele><time>2026-04-30T07:32:49.999Z</time></trkpt><trkpt lat="40.82802275437206" lon="8.416063928874632"><ele>22.0</ele><time>2026-04-30T07:32:50.999Z</time></trkpt><trkpt lat="40.82794543768057" lon="8.416139309469905"><ele>22.0</ele><time>2026-04-30T07:32:51.999Z</time></trkpt><trkpt lat="40.827871211029624" lon="8.41622158055081"><ele>22.0</ele><time>2026-04-30T07:32:52.999Z</time></trkpt><trkpt lat="40.827797959970894" lon="8.416321380540404"><ele>22.0</ele><time>2026-04-30T07:32:53.999Z</time></trkpt><trkpt lat="40.827724651941686" lon="8.416427295154522"><ele>22.0</ele><time>2026-04-30T07:32:54.999Z</time></trkpt><trkpt lat="40.827642302082936" lon="8.416536766235392"><ele>22.0</ele><time>2026-04-30T07:32:55.999Z</time></trkpt><trkpt lat="40.82755879033775" lon="8.416649453452271"><ele>22.0</ele><time>2026-04-30T07:32:56.999Z</time></trkpt><trkpt lat="40.82747109479228" lon="8.416762928801273"><ele>22.0</ele><time>2026-04-30T07:32:57.999Z</time></trkpt><trkpt lat="40.82738297142695" lon="8.416879434769683"><ele>22.0</ele><time>2026-04-30T07:32:58.999Z</time></trkpt><trkpt lat="40.8272960005273" lon="8.41699859712048"><ele>22.0</ele><time>2026-04-30T07:32:59.999Z</time></trkpt><trkpt lat="40.8272067412407" lon="8.417116507215242"><ele>22.400000000000002</ele><time>2026-04-30T07:33:00.999Z</time></trkpt><trkpt lat="40.82712052394768" lon="8.417227710119583"><ele>22.8</ele><time>2026-04-30T07:33:01.999Z</time></trkpt><trkpt lat="40.827038930460866" lon="8.417329177652968"><ele>23.2</ele><time>2026-04-30T07:33:02.999Z</time></trkpt><trkpt lat="40.826964726732015" lon="8.417430163169195"><ele>23.6</ele><time>2026-04-30T07:33:03.999Z</time></trkpt><trkpt lat="40.82689509325164" lon="8.417537645367148"><ele>24.0</ele><time>2026-04-30T07:33:04.999Z</time></trkpt><trkpt lat="40.82682854114608" lon="8.417653542695358"><ele>24.25</ele><time>2026-04-30T07:33:05.999Z</time></trkpt><trkpt lat="40.826758307617645" lon="8.417790824809536"><ele>24.5</ele><time>2026-04-30T07:33:06.999Z</time></trkpt><trkpt lat="40.826696448044004" lon="8.417939268721245"><ele>24.75</ele><time>2026-04-30T07:33:07.999Z</time></trkpt><trkpt lat="40.82663802554686" lon="8.41809486444387"><ele>25.0</ele><time>2026-04-30T07:33:08.999Z</time></trkpt><trkpt lat="40.82658649186769" lon="8.418246328836242"><ele>25.25</ele><time>2026-04-30T07:33:09.999Z</time></trkpt><trkpt lat="40.826542687471544" lon="8.418404654640813"><ele>25.5</ele><time>2026-04-30T07:33:10.999Z</time></trkpt><trkpt lat="40.82650459743464" lon="8.418570292006388"><ele>25.75</ele><time>2026-04-30T07:33:11.999Z</time></trkpt><trkpt lat="40.82648017724612" lon="8.418728477149259"><ele>26.0</ele><time>2026-04-30T07:33:12.999Z</time></trkpt><trkpt lat="40.8264563983622" lon="8.418872052174436"><ele>25.999999999999996</ele><time>2026-04-30T07:33:13.999Z</time></trkpt><trkpt lat="40.82642993499383" lon="8.41899619412125"><ele>26.0</ele><time>2026-04-30T07:33:14.999Z</time></trkpt><trkpt lat="40.82640363425799" lon="8.419101401140868"><ele>26.0</ele><time>2026-04-30T07:33:15.999Z</time></trkpt><trkpt lat="40.82637348506011" lon="8.419195590705439"><ele>26.0</ele><time>2026-04-30T07:33:16.999Z</time></trkpt><trkpt lat="40.82632487434771" lon="8.41928123037978"><ele>25.999999999999996</ele><time>2026-04-30T07:33:17.999Z</time></trkpt><trkpt lat="40.82626382632676" lon="8.419336779272049"><ele>26.0</ele><time>2026-04-30T07:33:18.999Z</time></trkpt><trkpt lat="40.82618871868538" lon="8.419361692417533"><ele>25.999999999999996</ele><time>2026-04-30T07:33:19.999Z</time></trkpt><trkpt lat="40.826096016884264" lon="8.419368252503526"><ele>26.0</ele><time>2026-04-30T07:33:20.999Z</time></trkpt><trkpt lat="40.82600838144162" lon="8.419365121598945"><ele>26.0</ele><time>2026-04-30T07:33:21.999Z</time></trkpt><trkpt lat="40.82595282790946" lon="8.419437166235577"><ele>26.0</ele><time>2026-04-30T07:33:22.999Z</time></trkpt><trkpt lat="40.82593453759384" lon="8.419533663751578"><ele>25.999999999999996</ele><time>2026-04-30T07:33:23.999Z</time></trkpt><trkpt lat="40.8259767648022" lon="8.419643939751658"><ele>26.0</ele><time>2026-04-30T07:33:24.999Z</time></trkpt><trkpt lat="40.8260163325727" lon="8.419755658362925"><ele>26.0</ele><time>2026-04-30T07:33:25.999Z</time></trkpt><trkpt lat="40.82606220722574" lon="8.41990398164515"><ele>26.0</ele><time>2026-04-30T07:33:26.999Z</time></trkpt><trkpt lat="40.82610061037125" lon="8.4200664723392"><ele>26.0</ele><time>2026-04-30T07:33:27.999Z</time></trkpt><trkpt lat="40.82615273577085" lon="8.420239678987622"><ele>26.0</ele><time>2026-04-30T07:33:28.999Z</time></trkpt><trkpt lat="40.82621818191012" lon="8.420409752669078"><ele>26.0</ele><time>2026-04-30T07:33:29.999Z</time></trkpt><trkpt lat="40.82629944110663" lon="8.420579122693868"><ele>26.0</ele><time>2026-04-30T07:33:30.999Z</time></trkpt><trkpt lat="40.8263911955478" lon="8.420756440264512"><ele>26.0</ele><time>2026-04-30T07:33:31.999Z</time></trkpt><trkpt lat="40.826492503162434" lon="8.42093239751851"><ele>26.0</ele><time>2026-04-30T07:33:33Z</time></trkpt><trkpt lat="40.82659706154514" lon="8.421100305111755"><ele>26.0</ele><time>2026-04-30T07:33:34Z</time></trkpt><trkpt lat="40.82670504773815" lon="8.42126422583259"><ele>26.0</ele><time>2026-04-30T07:33:35Z</time></trkpt><trkpt lat="40.82681524898451" lon="8.421427130305355"><ele>25.666666666666664</ele><time>2026-04-30T07:33:36Z</time></trkpt><trkpt lat="40.8269251563691" lon="8.421591929954417"><ele>25.333333333333336</ele><time>2026-04-30T07:33:37Z</time></trkpt><trkpt lat="40.827035302224026" lon="8.421756485850132"><ele>25.0</ele><time>2026-04-30T07:33:38Z</time></trkpt><trkpt lat="40.8271454448298" lon="8.4219205674656"><ele>25.0</ele><time>2026-04-30T07:33:39Z</time></trkpt><trkpt lat="40.8272552947943" lon="8.422084562842077"><ele>25.0</ele><time>2026-04-30T07:33:40Z</time></trkpt><trkpt lat="40.82735862940846" lon="8.422236560532765"><ele>25.0</ele><time>2026-04-30T07:33:41Z</time></trkpt><trkpt lat="40.82745327524721" lon="8.422379597287115"><ele>24.8</ele><time>2026-04-30T07:33:42Z</time></trkpt><trkpt lat="40.827539562054724" lon="8.42250818187064"><ele>24.6</ele><time>2026-04-30T07:33:43Z</time></trkpt><trkpt lat="40.82761823519707" lon="8.422621895588401"><ele>24.4</ele><time>2026-04-30T07:33:44Z</time></trkpt><trkpt lat="40.82769439007138" lon="8.422688114002414"><ele>24.2</ele><time>2026-04-30T07:33:45Z</time></trkpt><trkpt lat="40.827744205798865" lon="8.422749517273676"><ele>24.0</ele><time>2026-04-30T07:33:46Z</time></trkpt><trkpt lat="40.827814000866944" lon="8.422833109405621"><ele>24.0</ele><time>2026-04-30T07:33:48Z</time></trkpt><trkpt lat="40.82790741781808" lon="8.4229353495298"><ele>24.0</ele><time>2026-04-30T07:33:50Z</time></trkpt><trkpt lat="40.82797912157971" lon="8.423010038948753"><ele>24.0</ele><time>2026-04-30T07:33:51Z</time></trkpt><trkpt lat="40.82805871131182" lon="8.423109544541848"><ele>24.0</ele><time>2026-04-30T07:33:52Z</time></trkpt><trkpt lat="40.82816110747747" lon="8.423199113554395"><ele>24.0</ele><time>2026-04-30T07:33:53Z</time></trkpt><trkpt lat="40.82827496304213" lon="8.423295485114412"><ele>23.5</ele><time>2026-04-30T07:33:54Z</time></trkpt><trkpt lat="40.828400019540396" lon="8.423395528432229"><ele>23.0</ele><time>2026-04-30T07:33:55Z</time></trkpt><trkpt lat="40.828524752899895" lon="8.423495154422579"><ele>22.5</ele><time>2026-04-30T07:33:56Z</time></trkpt><trkpt lat="40.828645195899234" lon="8.423590898508715"><ele>22.0</ele><time>2026-04-30T07:33:57Z</time></trkpt><trkpt lat="40.82876701581771" lon="8.423684439436814"><ele>22.0</ele><time>2026-04-30T07:33:58Z</time></trkpt><trkpt lat="40.8288858300535" lon="8.423775536081529"><ele>22.0</ele><time>2026-04-30T07:33:59Z</time></trkpt><trkpt lat="40.82900577438831" lon="8.423868966219915"><ele>22.0</ele><time>2026-04-30T07:34:00Z</time></trkpt><trkpt lat="40.829132452458445" lon="8.423971075922774"><ele>22.0</ele><time>2026-04-30T07:34:01Z</time></trkpt><trkpt lat="40.829262947094456" lon="8.424078868466099"><ele>22.0</ele><time>2026-04-30T07:34:02Z</time></trkpt><trkpt lat="40.829394327008956" lon="8.424175247000713"><ele>22.0</ele><time>2026-04-30T07:34:03Z</time></trkpt><trkpt lat="40.829520543556235" lon="8.424275563276709"><ele>22.0</ele><time>2026-04-30T07:34:04Z</time></trkpt><trkpt lat="40.8296495633397" lon="8.424374889644787"><ele>22.0</ele><time>2026-04-30T07:34:05Z</time></trkpt><trkpt lat="40.82977730039178" lon="8.424475125444673"><ele>22.0</ele><time>2026-04-30T07:34:06Z</time></trkpt><trkpt lat="40.829904819725755" lon="8.424575228056234"><ele>22.0</ele><time>2026-04-30T07:34:07Z</time></trkpt><trkpt lat="40.830029493758666" lon="8.424676265068372"><ele>22.0</ele><time>2026-04-30T07:34:08Z</time></trkpt><trkpt lat="40.8301538203795" lon="8.424778266317835"><ele>22.0</ele><time>2026-04-30T07:34:09Z</time></trkpt><trkpt lat="40.83027767237564" lon="8.42488075848299"><ele>23.0</ele><time>2026-04-30T07:34:10Z</time></trkpt><trkpt lat="40.83040648451645" lon="8.424982486129018"><ele>24.0</ele><time>2026-04-30T07:34:11Z</time></trkpt><trkpt lat="40.83053747084661" lon="8.42508184400679"><ele>25.0</ele><time>2026-04-30T07:34:12Z</time></trkpt><trkpt lat="40.8306693390152" lon="8.425185153698088"><ele>25.0</ele><time>2026-04-30T07:34:13Z</time></trkpt><trkpt lat="40.8307983601048" lon="8.425287779028292"><ele>25.0</ele><time>2026-04-30T07:34:14Z</time></trkpt><trkpt lat="40.83092170226375" lon="8.425386089984785"><ele>25.0</ele><time>2026-04-30T07:34:15Z</time></trkpt><trkpt lat="40.83104291863461" lon="8.425481483036458"><ele>25.0</ele><time>2026-04-30T07:34:16Z</time></trkpt><trkpt lat="40.83116506044097" lon="8.425576378491568"><ele>25.25</ele><time>2026-04-30T07:34:17Z</time></trkpt><trkpt lat="40.83128401868386" lon="8.425670324968227"><ele>25.5</ele><time>2026-04-30T07:34:18Z</time></trkpt><trkpt lat="40.83140280876659" lon="8.42576384742987"><ele>25.75</ele><time>2026-04-30T07:34:19Z</time></trkpt><trkpt lat="40.83151909908152" lon="8.425856095281285"><ele>26.0</ele><time>2026-04-30T07:34:20Z</time></trkpt><trkpt lat="40.831622146533256" lon="8.425937321580749"><ele>26.0</ele><time>2026-04-30T07:34:21Z</time></trkpt><trkpt lat="40.83171291134129" lon="8.426011145048024"><ele>26.0</ele><time>2026-04-30T07:34:22Z</time></trkpt><trkpt lat="40.83179750643944" lon="8.426080857246903"><ele>26.0</ele><time>2026-04-30T07:34:23Z</time></trkpt><trkpt lat="40.831879201484234" lon="8.426121784168744"><ele>26.0</ele><time>2026-04-30T07:34:23.998Z</time></trkpt><trkpt lat="40.83190095094704" lon="8.426261153534291"><ele>26.0</ele><time>2026-04-30T07:34:24.998Z</time></trkpt><trkpt lat="40.83192284448568" lon="8.426355182330479"><ele>26.200000000000003</ele><time>2026-04-30T07:34:25.998Z</time></trkpt><trkpt lat="40.831931845108755" lon="8.42645852124472"><ele>26.400000000000002</ele><time>2026-04-30T07:34:26.998Z</time></trkpt><trkpt lat="40.83191867937334" lon="8.42657227936452"><ele>26.6</ele><time>2026-04-30T07:34:27.998Z</time></trkpt><trkpt lat="40.83193101473457" lon="8.426697308802835"><ele>26.8</ele><time>2026-04-30T07:34:28.998Z</time></trkpt><trkpt lat="40.8318265325858" lon="8.426822889376819"><ele>27.0</ele><time>2026-04-30T07:34:29.998Z</time></trkpt><trkpt lat="40.831758659951696" lon="8.426955080171055"><ele>27.0</ele><time>2026-04-30T07:34:30.998Z</time></trkpt><trkpt lat="40.831686551055455" lon="8.427094221979967"><ele>27.0</ele><time>2026-04-30T07:34:31.998Z</time></trkpt><trkpt lat="40.83161016622069" lon="8.427237405084025"><ele>27.0</ele><time>2026-04-30T07:34:32.998Z</time></trkpt><trkpt lat="40.83153756296947" lon="8.427386577054335"><ele>27.0</ele><time>2026-04-30T07:34:33.998Z</time></trkpt><trkpt lat="40.83145862448679" lon="8.427535120647809"><ele>27.25</ele><time>2026-04-30T07:34:34.998Z</time></trkpt><trkpt lat="40.831374102684286" lon="8.427687067819193"><ele>27.5</ele><time>2026-04-30T07:34:35.998Z</time></trkpt><trkpt lat="40.83128865642826" lon="8.427835898123934"><ele>27.75</ele><time>2026-04-30T07:34:36.998Z</time></trkpt><trkpt lat="40.8312039821775" lon="8.427981263369118"><ele>28.0</ele><time>2026-04-30T07:34:37.998Z</time></trkpt><trkpt lat="40.8311225144073" lon="8.428122397312254"><ele>28.0</ele><time>2026-04-30T07:34:38.998Z</time></trkpt><trkpt lat="40.8310412145448" lon="8.428262881923322"><ele>28.0</ele><time>2026-04-30T07:34:39.998Z</time></trkpt><trkpt lat="40.83096012009993" lon="8.428403785807557"><ele>28.0</ele><time>2026-04-30T07:34:40.998Z</time></trkpt><trkpt lat="40.83087635985815" lon="8.428546033456364"><ele>28.0</ele><time>2026-04-30T07:34:41.998Z</time></trkpt><trkpt lat="40.830791454649095" lon="8.428691596234321"><ele>28.25</ele><time>2026-04-30T07:34:42.998Z</time></trkpt><trkpt lat="40.83070602896693" lon="8.428839284269163"><ele>28.5</ele><time>2026-04-30T07:34:43.999Z</time></trkpt><trkpt lat="40.83062075748683" lon="8.428988505093912"><ele>28.75</ele><time>2026-04-30T07:34:44.999Z</time></trkpt><trkpt lat="40.830531876690024" lon="8.42913603115012"><ele>29.0</ele><time>2026-04-30T07:34:45.999Z</time></trkpt><trkpt lat="40.830445011031664" lon="8.429285856116152"><ele>29.0</ele><time>2026-04-30T07:34:46.999Z</time></trkpt><trkpt lat="40.83035928005597" lon="8.429436910229338"><ele>29.0</ele><time>2026-04-30T07:34:47.999Z</time></trkpt><trkpt lat="40.830271858503714" lon="8.429584950815343"><ele>29.0</ele><time>2026-04-30T07:34:48.999Z</time></trkpt><trkpt lat="40.830182483383965" lon="8.429732107771011"><ele>29.0</ele><time>2026-04-30T07:34:49.999Z</time></trkpt><trkpt lat="40.83009392085611" lon="8.429879006848052"><ele>29.5</ele><time>2026-04-30T07:34:50.999Z</time></trkpt><trkpt lat="40.83000957821597" lon="8.430024616935821"><ele>30.0</ele><time>2026-04-30T07:34:51.999Z</time></trkpt><trkpt lat="40.82992896069343" lon="8.430163677212928"><ele>30.5</ele><time>2026-04-30T07:34:52.999Z</time></trkpt><trkpt lat="40.8298520440351" lon="8.430297492287295"><ele>31.0</ele><time>2026-04-30T07:34:53.999Z</time></trkpt><trkpt lat="40.82977737476659" lon="8.430425503181267"><ele>29.4</ele><time>2026-04-30T07:34:54.999Z</time></trkpt><trkpt lat="40.82970516720965" lon="8.430545970864149"><ele>27.8</ele><time>2026-04-30T07:34:55.999Z</time></trkpt><trkpt lat="40.82963511786393" lon="8.430660682297924"><ele>26.2</ele><time>2026-04-30T07:34:56.999Z</time></trkpt><trkpt lat="40.829568371901374" lon="8.430770624522307"><ele>24.599999999999998</ele><time>2026-04-30T07:34:57.999Z</time></trkpt><trkpt lat="40.82950593900185" lon="8.430875078280827"><ele>23.0</ele><time>2026-04-30T07:34:58.999Z</time></trkpt><trkpt lat="40.82945068067966" lon="8.430969906621135"><ele>23.0</ele><time>2026-04-30T07:34:59.999Z</time></trkpt><trkpt lat="40.829393155711635" lon="8.431066207803527"><ele>23.0</ele><time>2026-04-30T07:35:00.999Z</time></trkpt><trkpt lat="40.82933574158405" lon="8.431166852241939"><ele>23.0</ele><time>2026-04-30T07:35:01.999Z</time></trkpt><trkpt lat="40.82927870955723" lon="8.43126968408723"><ele>23.0</ele><time>2026-04-30T07:35:02.999Z</time></trkpt><trkpt lat="40.82922193909298" lon="8.431370135229816"><ele>23.0</ele><time>2026-04-30T07:35:03.999Z</time></trkpt><trkpt lat="40.82916294445702" lon="8.431474979732137"><ele>25.599999999999998</ele><time>2026-04-30T07:35:04.999Z</time></trkpt><trkpt lat="40.82910101360064" lon="8.431585628596652"><ele>28.2</ele><time>2026-04-30T07:35:05.999Z</time></trkpt><trkpt lat="40.82903505110898" lon="8.43169975558618"><ele>30.8</ele><time>2026-04-30T07:35:06.999Z</time></trkpt><trkpt lat="40.82897197594874" lon="8.431819315124937"><ele>33.4</ele><time>2026-04-30T07:35:07.999Z</time></trkpt><trkpt lat="40.828907781909095" lon="8.43194174952979"><ele>36.0</ele><time>2026-04-30T07:35:08.999Z</time></trkpt><trkpt lat="40.8288441008004" lon="8.43206578566403"><ele>32.2</ele><time>2026-04-30T07:35:09.999Z</time></trkpt><trkpt lat="40.82878269270277" lon="8.432189580190494"><ele>28.400000000000002</ele><time>2026-04-30T07:35:10.999Z</time></trkpt><trkpt lat="40.82872641941144" lon="8.432313496940028"><ele>24.6</ele><time>2026-04-30T07:35:11.999Z</time></trkpt><trkpt lat="40.82866516856322" lon="8.432438428314272"><ele>20.8</ele><time>2026-04-30T07:35:12.999Z</time></trkpt><trkpt lat="40.82860436211928" lon="8.432564937383033"><ele>17.0</ele><time>2026-04-30T07:35:13.999Z</time></trkpt><trkpt lat="40.828542858376046" lon="8.432708308570986"><ele>17.0</ele><time>2026-04-30T07:35:14.999Z</time></trkpt><trkpt lat="40.82847851514016" lon="8.432863790288216"><ele>17.0</ele><time>2026-04-30T07:35:15.999Z</time></trkpt><trkpt lat="40.828407740247" lon="8.433038923320371"><ele>17.0</ele><time>2026-04-30T07:35:16.999Z</time></trkpt><trkpt lat="40.82833239201825" lon="8.433239448421608"><ele>19.333333333333336</ele><time>2026-04-30T07:35:18Z</time></trkpt><trkpt lat="40.82825392828264" lon="8.433452685002855"><ele>21.666666666666668</ele><time>2026-04-30T07:35:19Z</time></trkpt><trkpt lat="40.828172843257015" lon="8.433687908059332"><ele>24.0</ele><time>2026-04-30T07:35:20Z</time></trkpt><trkpt lat="40.828095200660165" lon="8.433926657049525"><ele>24.0</ele><time>2026-04-30T07:35:21Z</time></trkpt><trkpt lat="40.828018848653066" lon="8.434166553120997"><ele>24.0</ele><time>2026-04-30T07:35:22Z</time></trkpt><trkpt lat="40.82794384888734" lon="8.434400118749103"><ele>24.0</ele><time>2026-04-30T07:35:23Z</time></trkpt><trkpt lat="40.827871437857354" lon="8.434625516097762"><ele>20.0</ele><time>2026-04-30T07:35:24Z</time></trkpt><trkpt lat="40.82780135553283" lon="8.434849101368972"><ele>16.0</ele><time>2026-04-30T07:35:25Z</time></trkpt><trkpt lat="40.827733636290425" lon="8.435061785660597"><ele>12.0</ele><time>2026-04-30T07:35:26Z</time></trkpt><trkpt lat="40.82766976072457" lon="8.435265390104318"><ele>16.0</ele><time>2026-04-30T07:35:27Z</time></trkpt><trkpt lat="40.82761172031427" lon="8.43546966043716"><ele>20.0</ele><time>2026-04-30T07:35:28Z</time></trkpt><trkpt lat="40.82755137420955" lon="8.435683669596303"><ele>24.0</ele><time>2026-04-30T07:35:29Z</time></trkpt><trkpt lat="40.827488222831185" lon="8.435903590058508"><ele>24.0</ele><time>2026-04-30T07:35:30Z</time></trkpt><trkpt lat="40.827422382068924" lon="8.436126044879705"><ele>24.0</ele><time>2026-04-30T07:35:31Z</time></trkpt><trkpt lat="40.827344724410935" lon="8.436345713942162"><ele>24.0</ele><time>2026-04-30T07:35:32Z</time></trkpt><trkpt lat="40.82725502478141" lon="8.436562636288501"><ele>19.333333333333332</ele><time>2026-04-30T07:35:33Z</time></trkpt><trkpt lat="40.82715403309046" lon="8.436778582883614"><ele>14.666666666666668</ele><time>2026-04-30T07:35:34Z</time></trkpt><trkpt lat="40.827047507933976" lon="8.436994753729964"><ele>10.0</ele><time>2026-04-30T07:35:35Z</time></trkpt><trkpt lat="40.82693172569037" lon="8.43720486925414"><ele>12.0</ele><time>2026-04-30T07:35:36Z</time></trkpt><trkpt lat="40.826815400117475" lon="8.43741137005558"><ele>14.0</ele><time>2026-04-30T07:35:37Z</time></trkpt><trkpt lat="40.82669339677278" lon="8.437625808369727"><ele>16.0</ele><time>2026-04-30T07:35:38Z</time></trkpt><trkpt lat="40.826568079961014" lon="8.43785476715384"><ele>10.5</ele><time>2026-04-30T07:35:39Z</time></trkpt><trkpt lat="40.826443845144865" lon="8.438096689331731"><ele>5.0</ele><time>2026-04-30T07:35:40Z</time></trkpt><trkpt lat="40.82630899201377" lon="8.438348643619758"><ele>5.0</ele><time>2026-04-30T07:35:41Z</time></trkpt><trkpt lat="40.8261656959417" lon="8.438600617960484"><ele>5.0</ele><time>2026-04-30T07:35:42Z</time></trkpt><trkpt lat="40.8260194860953" lon="8.438858326807415"><ele>9.0</ele><time>2026-04-30T07:35:43Z</time></trkpt><trkpt lat="40.82587555865827" lon="8.43911778113401"><ele>13.0</ele><time>2026-04-30T07:35:44Z</time></trkpt><trkpt lat="40.82573495191389" lon="8.439375510797685"><ele>13.0</ele><time>2026-04-30T07:35:45Z</time></trkpt><trkpt lat="40.82559857170336" lon="8.439619343202567"><ele>13.0</ele><time>2026-04-30T07:35:46Z</time></trkpt><trkpt lat="40.82546611604937" lon="8.439860217176317"><ele>13.0</ele><time>2026-04-30T07:35:47Z</time></trkpt><trkpt lat="40.82533793481671" lon="8.440102948305606"><ele>13.0</ele><time>2026-04-30T07:35:48Z</time></trkpt><trkpt lat="40.82521040011997" lon="8.44034609171076"><ele>13.0</ele><time>2026-04-30T07:35:49Z</time></trkpt><trkpt lat="40.825084848141856" lon="8.44059134166079"><ele>13.0</ele><time>2026-04-30T07:35:50Z</time></trkpt><trkpt lat="40.824962176244014" lon="8.440845094365876"><ele>13.0</ele><time>2026-04-30T07:35:51Z</time></trkpt><trkpt lat="40.82484421420554" lon="8.441117621355177"><ele>11.0</ele><time>2026-04-30T07:35:52Z</time></trkpt><trkpt lat="40.82472982073624" lon="8.44139561405302"><ele>9.0</ele><time>2026-04-30T07:35:53Z</time></trkpt><trkpt lat="40.82462101383155" lon="8.441679250175417"><ele>9.0</ele><time>2026-04-30T07:35:54Z</time></trkpt><trkpt lat="40.8245096911118" lon="8.441966259276194"><ele>9.0</ele><time>2026-04-30T07:35:55Z</time></trkpt><trkpt lat="40.82439973903787" lon="8.442254033216546"><ele>11.5</ele><time>2026-04-30T07:35:56Z</time></trkpt><trkpt lat="40.82429134762605" lon="8.442538513853458"><ele>14.0</ele><time>2026-04-30T07:35:57Z</time></trkpt><trkpt lat="40.824183712000234" lon="8.442819421344527"><ele>12.5</ele><time>2026-04-30T07:35:58Z</time></trkpt><trkpt lat="40.82407939040384" lon="8.443098207828696"><ele>11.0</ele><time>2026-04-30T07:35:59Z</time></trkpt><trkpt lat="40.823973910886004" lon="8.443371226797597"><ele>11.0</ele><time>2026-04-30T07:36:00Z</time></trkpt><trkpt lat="40.82387126741086" lon="8.443630674897019"><ele>11.0</ele><time>2026-04-30T07:36:01Z</time></trkpt><trkpt lat="40.82375830504537" lon="8.443882308739292"><ele>11.0</ele><time>2026-04-30T07:36:02Z</time></trkpt><trkpt lat="40.823638049405645" lon="8.444132931173737"><ele>13.5</ele><time>2026-04-30T07:36:03Z</time></trkpt><trkpt lat="40.82350257510694" lon="8.444380156452038"><ele>16.0</ele><time>2026-04-30T07:36:04Z</time></trkpt><trkpt lat="40.82335286125072" lon="8.44462508397307"><ele>13.5</ele><time>2026-04-30T07:36:05Z</time></trkpt><trkpt lat="40.82319275071069" lon="8.44487339168304"><ele>11.0</ele><time>2026-04-30T07:36:06Z</time></trkpt><trkpt lat="40.82303084225606" lon="8.445125376570383"><ele>11.0</ele><time>2026-04-30T07:36:07Z</time></trkpt><trkpt lat="40.82287188997019" lon="8.445374720978963"><ele>11.0</ele><time>2026-04-30T07:36:08Z</time></trkpt><trkpt lat="40.822723941143316" lon="8.445614660346642"><ele>10.333333333333332</ele><time>2026-04-30T07:36:09Z</time></trkpt><trkpt lat="40.82257893558961" lon="8.445853482433362"><ele>9.666666666666666</ele><time>2026-04-30T07:36:10Z</time></trkpt><trkpt lat="40.82244587740008" lon="8.446080873999785"><ele>9.0</ele><time>2026-04-30T07:36:11Z</time></trkpt><trkpt lat="40.82231481935075" lon="8.446317070307654"><ele>9.0</ele><time>2026-04-30T07:36:12Z</time></trkpt><trkpt lat="40.82218943998095" lon="8.446569697834953"><ele>9.0</ele><time>2026-04-30T07:36:13Z</time></trkpt><trkpt lat="40.822069024544284" lon="8.44682904757538"><ele>9.0</ele><time>2026-04-30T07:36:14Z</time></trkpt><trkpt lat="40.82193797265312" lon="8.447073636730844"><ele>9.0</ele><time>2026-04-30T07:36:15Z</time></trkpt><trkpt lat="40.82181651191833" lon="8.447324255110605"><ele>10.0</ele><time>2026-04-30T07:36:16Z</time></trkpt><trkpt lat="40.82171499323015" lon="8.44757432797413"><ele>11.0</ele><time>2026-04-30T07:36:17Z</time></trkpt><trkpt lat="40.821602134603154" lon="8.447798355924029"><ele>12.0</ele><time>2026-04-30T07:36:18Z</time></trkpt><trkpt lat="40.82149077686718" lon="8.448023904331315"><ele>12.0</ele><time>2026-04-30T07:36:19Z</time></trkpt><trkpt lat="40.82138541553872" lon="8.44824449965147"><ele>12.0</ele><time>2026-04-30T07:36:20Z</time></trkpt><trkpt lat="40.82128884876527" lon="8.44846387479241"><ele>12.0</ele><time>2026-04-30T07:36:21Z</time></trkpt><trkpt lat="40.82120020482006" lon="8.448684850906888"><ele>10.0</ele><time>2026-04-30T07:36:22Z</time></trkpt><trkpt lat="40.82112018208338" lon="8.448907368223537"><ele>8.0</ele><time>2026-04-30T07:36:23Z</time></trkpt><trkpt lat="40.82105344217728" lon="8.449133523580578"><ele>6.0</ele><time>2026-04-30T07:36:24Z</time></trkpt><trkpt lat="40.82099517648517" lon="8.44935693803974"><ele>12.0</ele><time>2026-04-30T07:36:25Z</time></trkpt><trkpt lat="40.82094636424986" lon="8.449588403781735"><ele>18.0</ele><time>2026-04-30T07:36:26Z</time></trkpt><trkpt lat="40.82090360815154" lon="8.449823534610095"><ele>24.0</ele><time>2026-04-30T07:36:27Z</time></trkpt><trkpt lat="40.82086489986075" lon="8.450060457999845"><ele>24.0</ele><time>2026-04-30T07:36:28Z</time></trkpt><trkpt lat="40.820829054639454" lon="8.45029780608655"><ele>24.0</ele><time>2026-04-30T07:36:29Z</time></trkpt><trkpt lat="40.82079066767403" lon="8.450534256444572"><ele>24.0</ele><time>2026-04-30T07:36:29.998Z</time></trkpt><trkpt lat="40.82074615247276" lon="8.450769945373322"><ele>20.666666666666668</ele><time>2026-04-30T07:36:30.998Z</time></trkpt><trkpt lat="40.820693363316714" lon="8.451004295128776"><ele>17.333333333333336</ele><time>2026-04-30T07:36:31.998Z</time></trkpt><trkpt lat="40.820636391852126" lon="8.45124048608722"><ele>14.0</ele><time>2026-04-30T07:36:32.999Z</time></trkpt><trkpt lat="40.82057453290186" lon="8.451475268825858"><ele>12.333333333333334</ele><time>2026-04-30T07:36:33.999Z</time></trkpt><trkpt lat="40.82050767425188" lon="8.45171076231222"><ele>10.666666666666668</ele><time>2026-04-30T07:36:34.999Z</time></trkpt><trkpt lat="40.82043860119953" lon="8.45194612452544"><ele>9.0</ele><time>2026-04-30T07:36:35.999Z</time></trkpt><trkpt lat="40.82037345991376" lon="8.452179745618556"><ele>8.666666666666666</ele><time>2026-04-30T07:36:36.999Z</time></trkpt><trkpt lat="40.82030874492032" lon="8.452411267967758"><ele>8.333333333333332</ele><time>2026-04-30T07:36:37.999Z</time></trkpt><trkpt lat="40.820245118507685" lon="8.452639695306901"><ele>8.0</ele><time>2026-04-30T07:36:38.999Z</time></trkpt><trkpt lat="40.820181280559055" lon="8.452866179963994"><ele>11.666666666666666</ele><time>2026-04-30T07:36:39.999Z</time></trkpt><trkpt lat="40.8201178207407" lon="8.453087059199856"><ele>15.333333333333332</ele><time>2026-04-30T07:36:40.999Z</time></trkpt><trkpt lat="40.82005285848004" lon="8.453309020816521"><ele>19.0</ele><time>2026-04-30T07:36:41.999Z</time></trkpt><trkpt lat="40.819988388052195" lon="8.453528194157117"><ele>19.0</ele><time>2026-04-30T07:36:42.999Z</time></trkpt><trkpt lat="40.819930839541186" lon="8.453746033570576"><ele>19.0</ele><time>2026-04-30T07:36:43.999Z</time></trkpt><trkpt lat="40.81986842941576" lon="8.453972171618606"><ele>19.0</ele><time>2026-04-30T07:36:44.999Z</time></trkpt><trkpt lat="40.81979962555429" lon="8.454204244502245"><ele>17.333333333333332</ele><time>2026-04-30T07:36:45.999Z</time></trkpt><trkpt lat="40.81972967158944" lon="8.454434335842587"><ele>15.666666666666668</ele><time>2026-04-30T07:36:46.999Z</time></trkpt><trkpt lat="40.819662118622254" lon="8.454665196191728"><ele>14.0</ele><time>2026-04-30T07:36:47.999Z</time></trkpt><trkpt lat="40.81959768366605" lon="8.454894655344741"><ele>13.0</ele><time>2026-04-30T07:36:48.999Z</time></trkpt><trkpt lat="40.81953621355179" lon="8.455120982961223"><ele>12.0</ele><time>2026-04-30T07:36:49.999Z</time></trkpt><trkpt lat="40.819473647536206" lon="8.455345252670563"><ele>11.0</ele><time>2026-04-30T07:36:50.999Z</time></trkpt><trkpt lat="40.8194099920809" lon="8.455565207118457"><ele>9.666666666666666</ele><time>2026-04-30T07:36:51.999Z</time></trkpt><trkpt lat="40.81934213029094" lon="8.455782566080574"><ele>8.333333333333334</ele><time>2026-04-30T07:36:52.999Z</time></trkpt><trkpt lat="40.81926894859705" lon="8.455996798739013"><ele>7.0</ele><time>2026-04-30T07:36:53.999Z</time></trkpt><trkpt lat="40.81919262597838" lon="8.456207917367237"><ele>10.0</ele><time>2026-04-30T07:36:54.999Z</time></trkpt><trkpt lat="40.81911787529627" lon="8.45640327663391"><ele>13.0</ele><time>2026-04-30T07:36:55.999Z</time></trkpt><trkpt lat="40.81904514961599" lon="8.456587028944789"><ele>16.0</ele><time>2026-04-30T07:36:56.999Z</time></trkpt><trkpt lat="40.81897578587295" lon="8.456764741327556"><ele>16.0</ele><time>2026-04-30T07:36:57.999Z</time></trkpt><trkpt lat="40.81890299045828" lon="8.456937559028477"><ele>16.0</ele><time>2026-04-30T07:36:58.999Z</time></trkpt><trkpt lat="40.818822186761174" lon="8.45709559687274"><ele>16.0</ele><time>2026-04-30T07:37:00Z</time></trkpt><trkpt lat="40.818734279036356" lon="8.457242922522912"><ele>16.0</ele><time>2026-04-30T07:37:01Z</time></trkpt><trkpt lat="40.818646137799774" lon="8.457390162502733"><ele>16.5</ele><time>2026-04-30T07:37:02Z</time></trkpt><trkpt lat="40.81856433901728" lon="8.457546848244872"><ele>17.0</ele><time>2026-04-30T07:37:03Z</time></trkpt><trkpt lat="40.818496683140516" lon="8.4577194473226"><ele>17.5</ele><time>2026-04-30T07:37:04Z</time></trkpt><trkpt lat="40.81844418871902" lon="8.457907531382428"><ele>18.0</ele><time>2026-04-30T07:37:05Z</time></trkpt><trkpt lat="40.818415170639305" lon="8.45811492607374"><ele>16.333333333333332</ele><time>2026-04-30T07:37:06Z</time></trkpt><trkpt lat="40.81841243984431" lon="8.458333433286477"><ele>14.666666666666666</ele><time>2026-04-30T07:37:07Z</time></trkpt><trkpt lat="40.818433270626954" lon="8.458553958354841"><ele>13.0</ele><time>2026-04-30T07:37:08Z</time></trkpt><trkpt lat="40.81847032427861" lon="8.458766839006334"><ele>10.333333333333332</ele><time>2026-04-30T07:37:09Z</time></trkpt><trkpt lat="40.818508034328346" lon="8.458978224254846"><ele>7.666666666666666</ele><time>2026-04-30T07:37:10Z</time></trkpt><trkpt lat="40.818533973982866" lon="8.45918654697229"><ele>5.0</ele><time>2026-04-30T07:37:11Z</time></trkpt><trkpt lat="40.8185369346811" lon="8.459384698492345"><ele>5.0</ele><time>2026-04-30T07:37:12Z</time></trkpt><trkpt lat="40.8185178448489" lon="8.459578478021411"><ele>5.0</ele><time>2026-04-30T07:37:13Z</time></trkpt><trkpt lat="40.818489998361436" lon="8.459761724204911"><ele>5.0</ele><time>2026-04-30T07:37:14Z</time></trkpt><trkpt lat="40.81845128543064" lon="8.459936474270801"><ele>5.0</ele><time>2026-04-30T07:37:15Z</time></trkpt><trkpt lat="40.81839377371404" lon="8.460100332995461"><ele>5.25</ele><time>2026-04-30T07:37:16Z</time></trkpt><trkpt lat="40.81833491113375" lon="8.460259945530874"><ele>5.5</ele><time>2026-04-30T07:37:17Z</time></trkpt><trkpt lat="40.818277194255636" lon="8.46041658917146"><ele>5.75</ele><time>2026-04-30T07:37:18Z</time></trkpt><trkpt lat="40.818214112537504" lon="8.460572077886166"><ele>6.0</ele><time>2026-04-30T07:37:19Z</time></trkpt><trkpt lat="40.81814802529159" lon="8.460749147865618"><ele>6.0</ele><time>2026-04-30T07:37:20Z</time></trkpt><trkpt lat="40.81808061703238" lon="8.460938496357587"><ele>6.0</ele><time>2026-04-30T07:37:21Z</time></trkpt><trkpt lat="40.818011359480735" lon="8.46114162487482"><ele>6.0</ele><time>2026-04-30T07:37:22Z</time></trkpt><trkpt lat="40.817933636505636" lon="8.46134399532196"><ele>6.333333333333334</ele><time>2026-04-30T07:37:23Z</time></trkpt><trkpt lat="40.81785040856895" lon="8.46154919365372"><ele>6.666666666666667</ele><time>2026-04-30T07:37:24Z</time></trkpt><trkpt lat="40.8177638500572" lon="8.46175686782807"><ele>7.0</ele><time>2026-04-30T07:37:25Z</time></trkpt><trkpt lat="40.817682321549256" lon="8.461952486744158"><ele>7.333333333333334</ele><time>2026-04-30T07:37:26Z</time></trkpt><trkpt lat="40.81759861708481" lon="8.46213715280971"><ele>7.666666666666666</ele><time>2026-04-30T07:37:27Z</time></trkpt><trkpt lat="40.81751817694655" lon="8.462310487396458"><ele>8.0</ele><time>2026-04-30T07:37:28Z</time></trkpt><trkpt lat="40.81743704691953" lon="8.462479398196628"><ele>8.0</ele><time>2026-04-30T07:37:29Z</time></trkpt><trkpt lat="40.81735919537702" lon="8.462641758414106"><ele>8.0</ele><time>2026-04-30T07:37:30Z</time></trkpt><trkpt lat="40.8172817060248" lon="8.46279489422163"><ele>8.0</ele><time>2026-04-30T07:37:31Z</time></trkpt><trkpt lat="40.81720905474572" lon="8.462946337584192"><ele>8.0</ele><time>2026-04-30T07:37:32Z</time></trkpt><trkpt lat="40.81713845003265" lon="8.463104188513999"><ele>8.0</ele><time>2026-04-30T07:37:33Z</time></trkpt><trkpt lat="40.81707088446121" lon="8.463266084385925"><ele>8.0</ele><time>2026-04-30T07:37:34Z</time></trkpt><trkpt lat="40.81700402093874" lon="8.46342833312174"><ele>8.0</ele><time>2026-04-30T07:37:35Z</time></trkpt><trkpt lat="40.81693810618371" lon="8.463591561247057"><ele>8.0</ele><time>2026-04-30T07:37:36Z</time></trkpt><trkpt lat="40.816873788348154" lon="8.463757575930304"><ele>7.5</ele><time>2026-04-30T07:37:37Z</time></trkpt><trkpt lat="40.81681115928579" lon="8.463922356733876"><ele>7.0</ele><time>2026-04-30T07:37:38Z</time></trkpt><trkpt lat="40.81674761287006" lon="8.464090397575093"><ele>6.5</ele><time>2026-04-30T07:37:39Z</time></trkpt><trkpt lat="40.8166796853278" lon="8.464258951114907"><ele>6.0</ele><time>2026-04-30T07:37:40Z</time></trkpt><trkpt lat="40.81661314199194" lon="8.464431432427672"><ele>6.0</ele><time>2026-04-30T07:37:41Z</time></trkpt><trkpt lat="40.8165487380097" lon="8.464600863115725"><ele>6.0</ele><time>2026-04-30T07:37:42Z</time></trkpt><trkpt lat="40.81648324677525" lon="8.46477334965044"><ele>6.0</ele><time>2026-04-30T07:37:43Z</time></trkpt><trkpt lat="40.81641653767637" lon="8.464945574643508"><ele>6.0</ele><time>2026-04-30T07:37:44Z</time></trkpt><trkpt lat="40.816348512043014" lon="8.465109487317113"><ele>6.25</ele><time>2026-04-30T07:37:45Z</time></trkpt><trkpt lat="40.81628747885674" lon="8.465262606914788"><ele>6.5</ele><time>2026-04-30T07:37:46Z</time></trkpt><trkpt lat="40.81622786231965" lon="8.465405153723326"><ele>6.75</ele><time>2026-04-30T07:37:47Z</time></trkpt><trkpt lat="40.816167669972074" lon="8.465539846564448"><ele>7.0</ele><time>2026-04-30T07:37:48Z</time></trkpt><trkpt lat="40.81610834157858" lon="8.465665046132251"><ele>7.0</ele><time>2026-04-30T07:37:49Z</time></trkpt><trkpt lat="40.816051640708146" lon="8.46577114946503"><ele>6.999999999999999</ele><time>2026-04-30T07:37:50.001Z</time></trkpt><trkpt lat="40.81598611665247" lon="8.465862047101218"><ele>6.999999999999999</ele><time>2026-04-30T07:37:51.001Z</time></trkpt><trkpt lat="40.8159080828382" lon="8.465931280014846"><ele>7.0</ele><time>2026-04-30T07:37:52.001Z</time></trkpt><trkpt lat="40.81580673377242" lon="8.465973332949401"><ele>7.0</ele><time>2026-04-30T07:37:53.001Z</time></trkpt><trkpt lat="40.81570080718779" lon="8.466013494324145"><ele>6.75</ele><time>2026-04-30T07:37:54.001Z</time></trkpt><trkpt lat="40.81560555880971" lon="8.466088222214747"><ele>6.5</ele><time>2026-04-30T07:37:55.001Z</time></trkpt><trkpt lat="40.81551454167754" lon="8.46620074406125"><ele>6.25</ele><time>2026-04-30T07:37:56.001Z</time></trkpt><trkpt lat="40.81543246827273" lon="8.466345049319125"><ele>6.0</ele><time>2026-04-30T07:37:57.001Z</time></trkpt><trkpt lat="40.81536161808911" lon="8.466522515159722"><ele>6.0</ele><time>2026-04-30T07:37:58.001Z</time></trkpt><trkpt lat="40.81529199069056" lon="8.466718336245753"><ele>6.0</ele><time>2026-04-30T07:37:59.001Z</time></trkpt><trkpt lat="40.81520195444293" lon="8.466915627532412"><ele>6.0</ele><time>2026-04-30T07:38:00.001Z</time></trkpt><trkpt lat="40.8151252269207" lon="8.467137322770602"><ele>5.0</ele><time>2026-04-30T07:38:01.001Z</time></trkpt><trkpt lat="40.815057021605774" lon="8.467376688788756"><ele>4.0</ele><time>2026-04-30T07:38:02.001Z</time></trkpt><trkpt lat="40.81495913582108" lon="8.467611011169232"><ele>3.0</ele><time>2026-04-30T07:38:03.001Z</time></trkpt><trkpt lat="40.81485294645637" lon="8.467847050159149"><ele>3.0</ele><time>2026-04-30T07:38:04.001Z</time></trkpt><trkpt lat="40.814739856201776" lon="8.468083785101614"><ele>3.0</ele><time>2026-04-30T07:38:05.001Z</time></trkpt><trkpt lat="40.814630215785186" lon="8.46831421523733"><ele>3.0</ele><time>2026-04-30T07:38:06.001Z</time></trkpt><trkpt lat="40.814529468124306" lon="8.468533481088075"><ele>3.0</ele><time>2026-04-30T07:38:07.001Z</time></trkpt><trkpt lat="40.81441695198005" lon="8.468744761014227"><ele>3.0</ele><time>2026-04-30T07:38:08.001Z</time></trkpt><trkpt lat="40.814320719225506" lon="8.468973403049702"><ele>3.0</ele><time>2026-04-30T07:38:09.001Z</time></trkpt><trkpt lat="40.814243833009435" lon="8.469219595447157"><ele>3.0</ele><time>2026-04-30T07:38:10.001Z</time></trkpt><trkpt lat="40.814179760192594" lon="8.469478051970512"><ele>3.0</ele><time>2026-04-30T07:38:11.001Z</time></trkpt><trkpt lat="40.81412614803929" lon="8.469752547957816"><ele>3.0</ele><time>2026-04-30T07:38:12.001Z</time></trkpt><trkpt lat="40.81408954946951" lon="8.470049932025729"><ele>3.0</ele><time>2026-04-30T07:38:13.001Z</time></trkpt><trkpt lat="40.81403306225558" lon="8.470354038418334"><ele>3.0</ele><time>2026-04-30T07:38:14.001Z</time></trkpt><trkpt lat="40.81397603658324" lon="8.470659382222543"><ele>3.0</ele><time>2026-04-30T07:38:15.001Z</time></trkpt><trkpt lat="40.81392295750904" lon="8.470965135293925"><ele>3.0</ele><time>2026-04-30T07:38:16.001Z</time></trkpt><trkpt lat="40.81386773688564" lon="8.471262773129617"><ele>2.3333333333333335</ele><time>2026-04-30T07:38:17.001Z</time></trkpt><trkpt lat="40.81381284994875" lon="8.471549518631733"><ele>1.6666666666666665</ele><time>2026-04-30T07:38:18.001Z</time></trkpt><trkpt lat="40.813761190489835" lon="8.471831053604902"><ele>1.0</ele><time>2026-04-30T07:38:19.001Z</time></trkpt><trkpt lat="40.813713234184256" lon="8.472105408302252"><ele>0.3333333333333333</ele><time>2026-04-30T07:38:20.001Z</time></trkpt><trkpt lat="40.81366557862601" lon="8.472369342048133"><ele>-0.3333333333333333</ele><time>2026-04-30T07:38:21.001Z</time></trkpt><trkpt lat="40.81362195125744" lon="8.472625584701168"><ele>-1.0</ele><time>2026-04-30T07:38:22.001Z</time></trkpt><trkpt lat="40.81358146789906" lon="8.472878540139801"><ele>-1.0</ele><time>2026-04-30T07:38:23.001Z</time></trkpt><trkpt lat="40.8135416551636" lon="8.47312804206733"><ele>-1.0</ele><time>2026-04-30T07:38:24.001Z</time></trkpt><trkpt lat="40.81350190779405" lon="8.473370827084624"><ele>-1.0</ele><time>2026-04-30T07:38:25.001Z</time></trkpt><trkpt lat="40.81345607956687" lon="8.473605092650851"><ele>-0.3333333333333333</ele><time>2026-04-30T07:38:26.001Z</time></trkpt><trkpt lat="40.81339963368439" lon="8.473829181531576"><ele>0.3333333333333333</ele><time>2026-04-30T07:38:27.001Z</time></trkpt><trkpt lat="40.813331217665116" lon="8.474045593999264"><ele>1.0</ele><time>2026-04-30T07:38:28.001Z</time></trkpt><trkpt lat="40.81324826467187" lon="8.474249592139564"><ele>1.0</ele><time>2026-04-30T07:38:29.001Z</time></trkpt><trkpt lat="40.813155152222386" lon="8.474435890002415"><ele>1.0</ele><time>2026-04-30T07:38:30.001Z</time></trkpt><trkpt lat="40.813050492899656" lon="8.474611506064672"><ele>1.0</ele><time>2026-04-30T07:38:31.001Z</time></trkpt><trkpt lat="40.8129245799217" lon="8.474777835573716"><ele>1.3333333333333333</ele><time>2026-04-30T07:38:32.001Z</time></trkpt><trkpt lat="40.812796061192174" lon="8.474917886166194"><ele>1.6666666666666665</ele><time>2026-04-30T07:38:33.001Z</time></trkpt><trkpt lat="40.812649263784564" lon="8.475039311038811"><ele>2.0</ele><time>2026-04-30T07:38:34.001Z</time></trkpt><trkpt lat="40.81248371038085" lon="8.475161932755437"><ele>2.6666666666666665</ele><time>2026-04-30T07:38:35.001Z</time></trkpt><trkpt lat="40.81230700153724" lon="8.475263480711492"><ele>3.333333333333333</ele><time>2026-04-30T07:38:36Z</time></trkpt><trkpt lat="40.81213049279178" lon="8.475340296317984"><ele>4.0</ele><time>2026-04-30T07:38:37Z</time></trkpt><trkpt lat="40.81194524809224" lon="8.475403144254743"><ele>4.0</ele><time>2026-04-30T07:38:38Z</time></trkpt><trkpt lat="40.81173680539823" lon="8.475461318784271"><ele>4.0</ele><time>2026-04-30T07:38:39Z</time></trkpt><trkpt lat="40.81152289649871" lon="8.475523141520043"><ele>4.0</ele><time>2026-04-30T07:38:40Z</time></trkpt><trkpt lat="40.81130149765462" lon="8.475559695146817"><ele>4.0</ele><time>2026-04-30T07:38:41Z</time></trkpt><trkpt lat="40.81107997045274" lon="8.475616467933524"><ele>4.0</ele><time>2026-04-30T07:38:42Z</time></trkpt><trkpt lat="40.8108562679051" lon="8.475673798209979"><ele>6.0</ele><time>2026-04-30T07:38:43Z</time></trkpt><trkpt lat="40.81065095048544" lon="8.475740713956728"><ele>8.0</ele><time>2026-04-30T07:38:45Z</time></trkpt><trkpt lat="40.81048207359094" lon="8.475786064501273"><ele>10.0</ele><time>2026-04-30T07:38:46Z</time></trkpt><trkpt lat="40.81031337843326" lon="8.475826991040861"><ele>11.0</ele><time>2026-04-30T07:38:47Z</time></trkpt><trkpt lat="40.810146850944115" lon="8.475865419160375"><ele>12.0</ele><time>2026-04-30T07:38:48Z</time></trkpt><trkpt lat="40.80998202958805" lon="8.475907239352603"><ele>13.0</ele><time>2026-04-30T07:38:49Z</time></trkpt><trkpt lat="40.80981579498667" lon="8.475954499874675"><ele>13.0</ele><time>2026-04-30T07:38:50Z</time></trkpt><trkpt lat="40.80965291700282" lon="8.47600296251305"><ele>13.0</ele><time>2026-04-30T07:38:51Z</time></trkpt><trkpt lat="40.809488456779604" lon="8.476044482750543"><ele>13.0</ele><time>2026-04-30T07:38:52Z</time></trkpt><trkpt lat="40.809325783172305" lon="8.476088451063868"><ele>14.333333333333332</ele><time>2026-04-30T07:38:53Z</time></trkpt><trkpt lat="40.809161897646845" lon="8.476131115940877"><ele>15.666666666666668</ele><time>2026-04-30T07:38:54Z</time></trkpt><trkpt lat="40.80899893248521" lon="8.476175581880163"><ele>17.0</ele><time>2026-04-30T07:38:55Z</time></trkpt><trkpt lat="40.80883481012218" lon="8.476217893023811"><ele>17.0</ele><time>2026-04-30T07:38:56Z</time></trkpt><trkpt lat="40.80867179632148" lon="8.4762608323677"><ele>17.0</ele><time>2026-04-30T07:38:57Z</time></trkpt><trkpt lat="40.80850832204479" lon="8.476303994364233"><ele>17.0</ele><time>2026-04-30T07:38:58Z</time></trkpt><trkpt lat="40.80834500761681" lon="8.476347482520818"><ele>17.666666666666668</ele><time>2026-04-30T07:38:59Z</time></trkpt><trkpt lat="40.80818989786766" lon="8.476385291043766"><ele>18.333333333333332</ele><time>2026-04-30T07:39:00Z</time></trkpt><trkpt lat="40.80804104844768" lon="8.476426022675206"><ele>19.0</ele><time>2026-04-30T07:39:01Z</time></trkpt><trkpt lat="40.80789524302235" lon="8.476461084784148"><ele>19.0</ele><time>2026-04-30T07:39:02Z</time></trkpt><trkpt lat="40.807759340431204" lon="8.476493084289563"><ele>19.0</ele><time>2026-04-30T07:39:03Z</time></trkpt><trkpt lat="40.80763381205979" lon="8.476526284586125"><ele>19.0</ele><time>2026-04-30T07:39:04Z</time></trkpt><trkpt lat="40.807514748394205" lon="8.476557280530502"><ele>19.0</ele><time>2026-04-30T07:39:05Z</time></trkpt><trkpt lat="40.80740315697571" lon="8.476590754707777"><ele>19.6</ele><time>2026-04-30T07:39:06Z</time></trkpt><trkpt lat="40.80729707312462" lon="8.476613108958645"><ele>20.2</ele><time>2026-04-30T07:39:07Z</time></trkpt><trkpt lat="40.80720151369789" lon="8.476626532746566"><ele>20.8</ele><time>2026-04-30T07:39:08Z</time></trkpt><trkpt lat="40.80711526623296" lon="8.476612258097866"><ele>21.400000000000002</ele><time>2026-04-30T07:39:09Z</time></trkpt><trkpt lat="40.80704384395474" lon="8.476596438582044"><ele>22.0</ele><time>2026-04-30T07:39:10Z</time></trkpt><trkpt lat="40.80694286539916" lon="8.47665328718293"><ele>22.0</ele><time>2026-04-30T07:39:12Z</time></trkpt><trkpt lat="40.806902098651584" lon="8.476722124954113"><ele>22.0</ele><time>2026-04-30T07:39:13Z</time></trkpt><trkpt lat="40.80691641082883" lon="8.476835132430539"><ele>22.0</ele><time>2026-04-30T07:39:14Z</time></trkpt><trkpt lat="40.80692874578564" lon="8.476957290418806"><ele>22.0</ele><time>2026-04-30T07:39:15Z</time></trkpt><trkpt lat="40.80693705399556" lon="8.477101643860975"><ele>22.0</ele><time>2026-04-30T07:39:16Z</time></trkpt><trkpt lat="40.80692984702155" lon="8.477267952389138"><ele>22.25</ele><time>2026-04-30T07:39:17Z</time></trkpt><trkpt lat="40.80690721051956" lon="8.47746518677347"><ele>22.5</ele><time>2026-04-30T07:39:18Z</time></trkpt><trkpt lat="40.80687532674873" lon="8.477637787365769"><ele>22.75</ele><time>2026-04-30T07:39:19Z</time></trkpt><trkpt lat="40.806844957165325" lon="8.477813082374004"><ele>23.0</ele><time>2026-04-30T07:39:20Z</time></trkpt><trkpt lat="40.80681744399358" lon="8.47799559946594"><ele>23.0</ele><time>2026-04-30T07:39:21Z</time></trkpt><trkpt lat="40.806791140221684" lon="8.478174927143352"><ele>23.0</ele><time>2026-04-30T07:39:22.001Z</time></trkpt><trkpt lat="40.80676692305131" lon="8.478346106047331"><ele>23.0</ele><time>2026-04-30T07:39:23.001Z</time></trkpt><trkpt lat="40.80674286248592" lon="8.478513606307308"><ele>23.0</ele><time>2026-04-30T07:39:24.001Z</time></trkpt><trkpt lat="40.80671762905221" lon="8.478683923047669"><ele>22.25</ele><time>2026-04-30T07:39:25.001Z</time></trkpt><trkpt lat="40.80669561180757" lon="8.478859762648455"><ele>21.5</ele><time>2026-04-30T07:39:26.001Z</time></trkpt><trkpt lat="40.80667151101363" lon="8.479036399609901"><ele>20.75</ele><time>2026-04-30T07:39:27.001Z</time></trkpt><trkpt lat="40.80664655418811" lon="8.479212353983668"><ele>20.0</ele><time>2026-04-30T07:39:28.001Z</time></trkpt><trkpt lat="40.80661694615628" lon="8.479388878305777"><ele>20.0</ele><time>2026-04-30T07:39:29.001Z</time></trkpt><trkpt lat="40.80658599864238" lon="8.479564677393855"><ele>20.0</ele><time>2026-04-30T07:39:30.001Z</time></trkpt><trkpt lat="40.80655757602901" lon="8.479738743521608"><ele>20.0</ele><time>2026-04-30T07:39:31.001Z</time></trkpt><trkpt lat="40.806536689132" lon="8.479902453933105"><ele>20.0</ele><time>2026-04-30T07:39:32.001Z</time></trkpt><trkpt lat="40.80651573666992" lon="8.480055060128066"><ele>19.8</ele><time>2026-04-30T07:39:33.001Z</time></trkpt><trkpt lat="40.806496875193275" lon="8.480186952250083"><ele>19.6</ele><time>2026-04-30T07:39:34.001Z</time></trkpt><trkpt lat="40.80647755788204" lon="8.48030847966915"><ele>19.4</ele><time>2026-04-30T07:39:35.001Z</time></trkpt><trkpt lat="40.80645809618992" lon="8.480421219483016"><ele>19.2</ele><time>2026-04-30T07:39:36.001Z</time></trkpt><trkpt lat="40.80644051909012" lon="8.480535340875035"><ele>19.0</ele><time>2026-04-30T07:39:37.001Z</time></trkpt><trkpt lat="40.8064223977716" lon="8.4806557270337"><ele>19.0</ele><time>2026-04-30T07:39:38.001Z</time></trkpt><trkpt lat="40.80640070966526" lon="8.480788265059566"><ele>19.0</ele><time>2026-04-30T07:39:39.001Z</time></trkpt><trkpt lat="40.80637642210793" lon="8.480937117763064"><ele>19.0</ele><time>2026-04-30T07:39:40.001Z</time></trkpt><trkpt lat="40.806352086556046" lon="8.481101009642128"><ele>19.0</ele><time>2026-04-30T07:39:41.001Z</time></trkpt><trkpt lat="40.806325981250986" lon="8.481279811215245"><ele>19.0</ele><time>2026-04-30T07:39:42.001Z</time></trkpt><trkpt lat="40.80629682534745" lon="8.481468437477103"><ele>19.0</ele><time>2026-04-30T07:39:43.001Z</time></trkpt><trkpt lat="40.80626570047631" lon="8.48166702056319"><ele>19.0</ele><time>2026-04-30T07:39:44.001Z</time></trkpt><trkpt lat="40.806232422471034" lon="8.481881343298367"><ele>18.666666666666664</ele><time>2026-04-30T07:39:45.001Z</time></trkpt><trkpt lat="40.806198649444575" lon="8.48210517249062"><ele>18.333333333333332</ele><time>2026-04-30T07:39:46.001Z</time></trkpt><trkpt lat="40.80616463154692" lon="8.48233784889184"><ele>18.0</ele><time>2026-04-30T07:39:47.001Z</time></trkpt><trkpt lat="40.80612897063429" lon="8.482577985698008"><ele>18.0</ele><time>2026-04-30T07:39:48.001Z</time></trkpt><trkpt lat="40.80609076178717" lon="8.482821461938485"><ele>18.0</ele><time>2026-04-30T07:39:49.001Z</time></trkpt><trkpt lat="40.806050707421385" lon="8.483069455019542"><ele>18.0</ele><time>2026-04-30T07:39:50.001Z</time></trkpt><trkpt lat="40.806012275559375" lon="8.483320028800577"><ele>18.333333333333332</ele><time>2026-04-30T07:39:51.001Z</time></trkpt><trkpt lat="40.80597501071199" lon="8.483571656086603"><ele>18.666666666666664</ele><time>2026-04-30T07:39:52.001Z</time></trkpt><trkpt lat="40.80593876205698" lon="8.483822063873756"><ele>19.0</ele><time>2026-04-30T07:39:53.001Z</time></trkpt><trkpt lat="40.80590099555211" lon="8.484067772375955"><ele>19.0</ele><time>2026-04-30T07:39:54.001Z</time></trkpt><trkpt lat="40.80586291126139" lon="8.4843126852963"><ele>19.0</ele><time>2026-04-30T07:39:55.001Z</time></trkpt><trkpt lat="40.80582376542096" lon="8.484554268517122"><ele>19.0</ele><time>2026-04-30T07:39:56.001Z</time></trkpt><trkpt lat="40.80578480343674" lon="8.484795104859534"><ele>18.333333333333332</ele><time>2026-04-30T07:39:57.001Z</time></trkpt><trkpt lat="40.8057464462654" lon="8.485037650790819"><ele>17.666666666666668</ele><time>2026-04-30T07:39:58.001Z</time></trkpt><trkpt lat="40.80570993156258" lon="8.485278834979777"><ele>17.0</ele><time>2026-04-30T07:39:59.001Z</time></trkpt><trkpt lat="40.80567585521969" lon="8.48551860862056"><ele>16.666666666666668</ele><time>2026-04-30T07:40:00.001Z</time></trkpt><trkpt lat="40.80564116204732" lon="8.485756315742226"><ele>16.333333333333332</ele><time>2026-04-30T07:40:01.001Z</time></trkpt><trkpt lat="40.80560538276916" lon="8.485991237814723"><ele>16.0</ele><time>2026-04-30T07:40:02.001Z</time></trkpt><trkpt lat="40.80556772155749" lon="8.486227224507154"><ele>15.666666666666666</ele><time>2026-04-30T07:40:03.001Z</time></trkpt><trkpt lat="40.80553011487405" lon="8.48646254277939"><ele>15.333333333333332</ele><time>2026-04-30T07:40:04.001Z</time></trkpt><trkpt lat="40.80549271413446" lon="8.48669761093813"><ele>15.0</ele><time>2026-04-30T07:40:05.001Z</time></trkpt><trkpt lat="40.805456404320964" lon="8.486935187511447"><ele>14.333333333333332</ele><time>2026-04-30T07:40:06.001Z</time></trkpt><trkpt lat="40.80542111802786" lon="8.487173780407211"><ele>13.666666666666666</ele><time>2026-04-30T07:40:07.001Z</time></trkpt><trkpt lat="40.80538451030788" lon="8.487412899899661"><ele>13.0</ele><time>2026-04-30T07:40:08.001Z</time></trkpt><trkpt lat="40.80534751629711" lon="8.487657390735546"><ele>13.0</ele><time>2026-04-30T07:40:09.001Z</time></trkpt><trkpt lat="40.80530831072547" lon="8.487904320977647"><ele>13.0</ele><time>2026-04-30T07:40:10.001Z</time></trkpt><trkpt lat="40.80526857003336" lon="8.488155654564501"><ele>13.0</ele><time>2026-04-30T07:40:11.001Z</time></trkpt><trkpt lat="40.80522828351011" lon="8.488420229961363"><ele>13.0</ele><time>2026-04-30T07:40:12.001Z</time></trkpt><trkpt lat="40.80518758781567" lon="8.488693718964377"><ele>13.0</ele><time>2026-04-30T07:40:13.001Z</time></trkpt><trkpt lat="40.80514700836181" lon="8.488972197957844"><ele>13.0</ele><time>2026-04-30T07:40:14.001Z</time></trkpt><trkpt lat="40.80510685851156" lon="8.489254249541437"><ele>13.333333333333332</ele><time>2026-04-30T07:40:15.001Z</time></trkpt><trkpt lat="40.80506592235423" lon="8.489532673705359"><ele>13.666666666666668</ele><time>2026-04-30T07:40:16.001Z</time></trkpt><trkpt lat="40.80502346707625" lon="8.489808576150589"><ele>14.0</ele><time>2026-04-30T07:40:17.001Z</time></trkpt><trkpt lat="40.80498041233777" lon="8.490083977453487"><ele>14.0</ele><time>2026-04-30T07:40:18.001Z</time></trkpt><trkpt lat="40.80493767180014" lon="8.490357795175889"><ele>14.0</ele><time>2026-04-30T07:40:19.001Z</time></trkpt><trkpt lat="40.80489747040774" lon="8.490627685836518"><ele>14.0</ele><time>2026-04-30T07:40:20.002Z</time></trkpt><trkpt lat="40.804856829167505" lon="8.490895560704498"><ele>14.0</ele><time>2026-04-30T07:40:21.002Z</time></trkpt><trkpt lat="40.80481673149478" lon="8.491158275755762"><ele>14.0</ele><time>2026-04-30T07:40:22.002Z</time></trkpt><trkpt lat="40.8047757799891" lon="8.491417190204457"><ele>14.0</ele><time>2026-04-30T07:40:23.002Z</time></trkpt><trkpt lat="40.8047365084057" lon="8.491671562213442"><ele>14.0</ele><time>2026-04-30T07:40:24.002Z</time></trkpt><trkpt lat="40.804698984751575" lon="8.491919883684242"><ele>14.0</ele><time>2026-04-30T07:40:25.002Z</time></trkpt><trkpt lat="40.80466359576688" lon="8.492164226463174"><ele>14.0</ele><time>2026-04-30T07:40:26.002Z</time></trkpt><trkpt lat="40.80463034669205" lon="8.492408044429652"><ele>14.333333333333334</ele><time>2026-04-30T07:40:27.002Z</time></trkpt><trkpt lat="40.80459576605415" lon="8.492647372286266"><ele>14.666666666666668</ele><time>2026-04-30T07:40:28.002Z</time></trkpt><trkpt lat="40.804560875585864" lon="8.492886038172347"><ele>15.0</ele><time>2026-04-30T07:40:29.002Z</time></trkpt><trkpt lat="40.80452519902415" lon="8.493124234598467"><ele>15.333333333333332</ele><time>2026-04-30T07:40:30.002Z</time></trkpt><trkpt lat="40.804490618432034" lon="8.49335855010042"><ele>15.666666666666666</ele><time>2026-04-30T07:40:31.002Z</time></trkpt><trkpt lat="40.80445631512629" lon="8.493587176300377"><ele>16.0</ele><time>2026-04-30T07:40:32.002Z</time></trkpt><trkpt lat="40.80441909590667" lon="8.493811717279192"><ele>16.333333333333332</ele><time>2026-04-30T07:40:33.002Z</time></trkpt><trkpt lat="40.804383302456806" lon="8.494031171956008"><ele>16.666666666666668</ele><time>2026-04-30T07:40:34.002Z</time></trkpt><trkpt lat="40.804346414667584" lon="8.494248492583685"><ele>17.0</ele><time>2026-04-30T07:40:35.002Z</time></trkpt><trkpt lat="40.80430848584557" lon="8.494462487942167"><ele>17.666666666666668</ele><time>2026-04-30T07:40:36.002Z</time></trkpt><trkpt lat="40.8042707385348" lon="8.494674858278307"><ele>18.333333333333332</ele><time>2026-04-30T07:40:37.002Z</time></trkpt><trkpt lat="40.804236808939834" lon="8.494887122107116"><ele>19.0</ele><time>2026-04-30T07:40:38.002Z</time></trkpt><trkpt lat="40.80420114850616" lon="8.495098676181716"><ele>19.0</ele><time>2026-04-30T07:40:39.002Z</time></trkpt><trkpt lat="40.804166817823095" lon="8.49531007906111"><ele>19.0</ele><time>2026-04-30T07:40:40.002Z</time></trkpt><trkpt lat="40.80413159368292" lon="8.495518311727203"><ele>19.0</ele><time>2026-04-30T07:40:41.002Z</time></trkpt><trkpt lat="40.804094996584396" lon="8.495726382792318"><ele>19.0</ele><time>2026-04-30T07:40:42Z</time></trkpt><trkpt lat="40.804057763988176" lon="8.495934840243498"><ele>19.0</ele><time>2026-04-30T07:40:43Z</time></trkpt><trkpt lat="40.80401920980434" lon="8.496149756043751"><ele>19.0</ele><time>2026-04-30T07:40:44Z</time></trkpt><trkpt lat="40.80398068748024" lon="8.496367045149857"><ele>19.0</ele><time>2026-04-30T07:40:45Z</time></trkpt><trkpt lat="40.80394183223141" lon="8.496590000078527"><ele>19.0</ele><time>2026-04-30T07:40:46Z</time></trkpt><trkpt lat="40.80390403983901" lon="8.496815850057189"><ele>19.0</ele><time>2026-04-30T07:40:47Z</time></trkpt><trkpt lat="40.80386396668515" lon="8.49704114899422"><ele>18.666666666666664</ele><time>2026-04-30T07:40:48Z</time></trkpt><trkpt lat="40.80382115605563" lon="8.497262449362978"><ele>18.333333333333332</ele><time>2026-04-30T07:40:49Z</time></trkpt><trkpt lat="40.803777757503845" lon="8.497490380013037"><ele>18.0</ele><time>2026-04-30T07:40:50Z</time></trkpt><trkpt lat="40.80373687778134" lon="8.497720118135284"><ele>18.0</ele><time>2026-04-30T07:40:51Z</time></trkpt><trkpt lat="40.80369948185043" lon="8.49795198556102"><ele>18.0</ele><time>2026-04-30T07:40:52Z</time></trkpt><trkpt lat="40.80366035713467" lon="8.498179005150478"><ele>18.0</ele><time>2026-04-30T07:40:53Z</time></trkpt><trkpt lat="40.80361823545717" lon="8.498414125409559"><ele>18.0</ele><time>2026-04-30T07:40:54Z</time></trkpt><trkpt lat="40.80357197538425" lon="8.498642415795524"><ele>18.0</ele><time>2026-04-30T07:40:55Z</time></trkpt><trkpt lat="40.80352411966421" lon="8.498885326135692"><ele>18.0</ele><time>2026-04-30T07:40:56Z</time></trkpt><trkpt lat="40.80347240713227" lon="8.499136491753811"><ele>19.333333333333332</ele><time>2026-04-30T07:40:57Z</time></trkpt><trkpt lat="40.80342588940733" lon="8.499397919453735"><ele>20.666666666666664</ele><time>2026-04-30T07:40:58Z</time></trkpt><trkpt lat="40.803373740227414" lon="8.499661097992654"><ele>22.0</ele><time>2026-04-30T07:40:59Z</time></trkpt><trkpt lat="40.80331828479452" lon="8.499921542500882"><ele>22.0</ele><time>2026-04-30T07:41:00Z</time></trkpt><trkpt lat="40.803259213310476" lon="8.500181145710068"><ele>22.0</ele><time>2026-04-30T07:41:01Z</time></trkpt><trkpt lat="40.8032030861645" lon="8.500436223740868"><ele>22.0</ele><time>2026-04-30T07:41:02Z</time></trkpt><trkpt lat="40.8031466252012" lon="8.500690106344425"><ele>21.666666666666664</ele><time>2026-04-30T07:41:03Z</time></trkpt><trkpt lat="40.80309779321399" lon="8.500941153918301"><ele>21.333333333333332</ele><time>2026-04-30T07:41:04Z</time></trkpt><trkpt lat="40.80304588287805" lon="8.501188475714615"><ele>21.0</ele><time>2026-04-30T07:41:05Z</time></trkpt><trkpt lat="40.80297815227487" lon="8.50142908094526"><ele>21.0</ele><time>2026-04-30T07:41:06Z</time></trkpt><trkpt lat="40.80292434101563" lon="8.501675359617888"><ele>21.0</ele><time>2026-04-30T07:41:07Z</time></trkpt><trkpt lat="40.80287079059145" lon="8.50192044444808"><ele>21.0</ele><time>2026-04-30T07:41:08.001Z</time></trkpt><trkpt lat="40.80283128416923" lon="8.502165762941944"><ele>21.0</ele><time>2026-04-30T07:41:09.001Z</time></trkpt><trkpt lat="40.8027771933583" lon="8.50240012863205"><ele>21.0</ele><time>2026-04-30T07:41:10.001Z</time></trkpt><trkpt lat="40.80272649712957" lon="8.502629808788525"><ele>21.0</ele><time>2026-04-30T07:41:11.001Z</time></trkpt><trkpt lat="40.80267636422492" lon="8.50285602069078"><ele>21.666666666666668</ele><time>2026-04-30T07:41:12.001Z</time></trkpt><trkpt lat="40.80262713508353" lon="8.50308029661013"><ele>22.333333333333336</ele><time>2026-04-30T07:41:13.001Z</time></trkpt><trkpt lat="40.802582390060564" lon="8.503306193136133"><ele>23.0</ele><time>2026-04-30T07:41:14.001Z</time></trkpt><trkpt lat="40.802538468112466" lon="8.503531969214137"><ele>22.666666666666668</ele><time>2026-04-30T07:41:15.001Z</time></trkpt><trkpt lat="40.80248830383784" lon="8.503754506126338"><ele>22.333333333333332</ele><time>2026-04-30T07:41:16.001Z</time></trkpt><trkpt lat="40.8024351746042" lon="8.503961946521196"><ele>22.0</ele><time>2026-04-30T07:41:17.001Z</time></trkpt><trkpt lat="40.802392053713675" lon="8.504160902746095"><ele>22.0</ele><time>2026-04-30T07:41:18.001Z</time></trkpt><trkpt lat="40.80235010447069" lon="8.504359665947204"><ele>22.0</ele><time>2026-04-30T07:41:19.001Z</time></trkpt><trkpt lat="40.80230943612138" lon="8.504560856689977"><ele>22.0</ele><time>2026-04-30T07:41:20.001Z</time></trkpt><trkpt lat="40.80225212672556" lon="8.504759988001323"><ele>21.666666666666664</ele><time>2026-04-30T07:41:21.001Z</time></trkpt><trkpt lat="40.80222656739619" lon="8.504978277155152"><ele>21.333333333333332</ele><time>2026-04-30T07:41:22.001Z</time></trkpt><trkpt lat="40.802179924144745" lon="8.505189517456843"><ele>21.0</ele><time>2026-04-30T07:41:23.001Z</time></trkpt><trkpt lat="40.80212212975649" lon="8.505400929933366"><ele>20.666666666666668</ele><time>2026-04-30T07:41:24.001Z</time></trkpt><trkpt lat="40.80205060022232" lon="8.505617688119727"><ele>20.333333333333336</ele><time>2026-04-30T07:41:25.001Z</time></trkpt><trkpt lat="40.80195068246135" lon="8.505827771927084"><ele>20.0</ele><time>2026-04-30T07:41:26.001Z</time></trkpt><trkpt lat="40.801849965699695" lon="8.506045233877417"><ele>20.0</ele><time>2026-04-30T07:41:27.001Z</time></trkpt><trkpt lat="40.80174814852012" lon="8.506257753574488"><ele>20.0</ele><time>2026-04-30T07:41:28.001Z</time></trkpt><trkpt lat="40.80164281745124" lon="8.506476114004121"><ele>20.0</ele><time>2026-04-30T07:41:29.001Z</time></trkpt><trkpt lat="40.80154670145892" lon="8.506704627690224"><ele>20.0</ele><time>2026-04-30T07:41:30.001Z</time></trkpt><trkpt lat="40.80143446134166" lon="8.506921366327187"><ele>20.0</ele><time>2026-04-30T07:41:31.001Z</time></trkpt><trkpt lat="40.80133270412097" lon="8.50712959028716"><ele>20.0</ele><time>2026-04-30T07:41:32.001Z</time></trkpt><trkpt lat="40.801236790032675" lon="8.507326073270644"><ele>19.333333333333336</ele><time>2026-04-30T07:41:33.001Z</time></trkpt><trkpt lat="40.80114893962921" lon="8.50751012046459"><ele>18.666666666666668</ele><time>2026-04-30T07:41:34.001Z</time></trkpt><trkpt lat="40.80107239188979" lon="8.507685960513594"><ele>18.0</ele><time>2026-04-30T07:41:35.001Z</time></trkpt><trkpt lat="40.80101236049093" lon="8.50784590350917"><ele>18.2</ele><time>2026-04-30T07:41:36.001Z</time></trkpt><trkpt lat="40.800968523108104" lon="8.507986017793868"><ele>18.4</ele><time>2026-04-30T07:41:37.001Z</time></trkpt><trkpt lat="40.80093428567059" lon="8.508097562633782"><ele>18.599999999999998</ele><time>2026-04-30T07:41:38.001Z</time></trkpt><trkpt lat="40.8009062385721" lon="8.508194916626753"><ele>18.8</ele><time>2026-04-30T07:41:39.001Z</time></trkpt><trkpt lat="40.80086843358447" lon="8.508291917033938"><ele>19.0</ele><time>2026-04-30T07:41:40.001Z</time></trkpt><trkpt lat="40.80082121805189" lon="8.508392021228948"><ele>19.0</ele><time>2026-04-30T07:41:41.001Z</time></trkpt><trkpt lat="40.80078795643457" lon="8.508490471289704"><ele>19.0</ele><time>2026-04-30T07:41:42.001Z</time></trkpt><trkpt lat="40.800784253961076" lon="8.50859460299036"><ele>19.0</ele><time>2026-04-30T07:41:43.001Z</time></trkpt><trkpt lat="40.80080954861471" lon="8.508714399352051"><ele>19.0</ele><time>2026-04-30T07:41:44.001Z</time></trkpt><trkpt lat="40.80085562601339" lon="8.508847695506475"><ele>19.0</ele><time>2026-04-30T07:41:45.001Z</time></trkpt><trkpt lat="40.80090116452427" lon="8.508998772780098"><ele>18.75</ele><time>2026-04-30T07:41:46.001Z</time></trkpt><trkpt lat="40.80092549623244" lon="8.509175858863637"><ele>18.5</ele><time>2026-04-30T07:41:47.001Z</time></trkpt><trkpt lat="40.80094870849411" lon="8.509365537212533"><ele>18.25</ele><time>2026-04-30T07:41:48.001Z</time></trkpt><trkpt lat="40.80098984632307" lon="8.50956517754169"><ele>18.0</ele><time>2026-04-30T07:41:49.001Z</time></trkpt><trkpt lat="40.80104475393081" lon="8.509775160199188"><ele>18.0</ele><time>2026-04-30T07:41:50.001Z</time></trkpt><trkpt lat="40.80110654111401" lon="8.509989041677398"><ele>18.0</ele><time>2026-04-30T07:41:51.001Z</time></trkpt><trkpt lat="40.80116926830542" lon="8.5102134134477"><ele>18.0</ele><time>2026-04-30T07:41:52.001Z</time></trkpt><trkpt lat="40.80122958064366" lon="8.510443742399426"><ele>18.0</ele><time>2026-04-30T07:41:53.001Z</time></trkpt><trkpt lat="40.801293038926794" lon="8.510678082068747"><ele>18.0</ele><time>2026-04-30T07:41:54.001Z</time></trkpt><trkpt lat="40.801356022659654" lon="8.51091496262354"><ele>18.0</ele><time>2026-04-30T07:41:55.001Z</time></trkpt><trkpt lat="40.80141931558859" lon="8.511152441179107"><ele>18.333333333333332</ele><time>2026-04-30T07:41:56.001Z</time></trkpt><trkpt lat="40.801481315552124" lon="8.511389579274503"><ele>18.666666666666664</ele><time>2026-04-30T07:41:57.001Z</time></trkpt><trkpt lat="40.801544622866054" lon="8.511626169536688"><ele>19.0</ele><time>2026-04-30T07:41:58.001Z</time></trkpt><trkpt lat="40.801604520900824" lon="8.511858356464478"><ele>19.666666666666664</ele><time>2026-04-30T07:41:59.001Z</time></trkpt><trkpt lat="40.80166523944504" lon="8.51208270587171"><ele>20.333333333333332</ele><time>2026-04-30T07:42:00.001Z</time></trkpt><trkpt lat="40.801719488796714" lon="8.51230272670873"><ele>21.0</ele><time>2026-04-30T07:42:01.001Z</time></trkpt><trkpt lat="40.80177328500399" lon="8.512518854339728"><ele>19.666666666666668</ele><time>2026-04-30T07:42:02.001Z</time></trkpt><trkpt lat="40.80183224400299" lon="8.512732690406875"><ele>18.333333333333336</ele><time>2026-04-30T07:42:03.001Z</time></trkpt><trkpt lat="40.8018946977731" lon="8.512944175476346"><ele>17.0</ele><time>2026-04-30T07:42:04.001Z</time></trkpt><trkpt lat="40.80195074483069" lon="8.513160678282189"><ele>17.0</ele><time>2026-04-30T07:42:05.001Z</time></trkpt><trkpt lat="40.80200746852263" lon="8.513375689192815"><ele>17.0</ele><time>2026-04-30T07:42:06.001Z</time></trkpt><trkpt lat="40.80206330522362" lon="8.513588122436115"><ele>17.0</ele><time>2026-04-30T07:42:07.001Z</time></trkpt><trkpt lat="40.80211762589602" lon="8.513797497015773"><ele>16.666666666666668</ele><time>2026-04-30T07:42:08.001Z</time></trkpt><trkpt lat="40.80217168788029" lon="8.514005157453534"><ele>16.333333333333332</ele><time>2026-04-30T07:42:09.001Z</time></trkpt><trkpt lat="40.802225883475685" lon="8.514213508087108"><ele>16.0</ele><time>2026-04-30T07:42:10.001Z</time></trkpt><trkpt lat="40.802281122579004" lon="8.514422752869788"><ele>16.333333333333332</ele><time>2026-04-30T07:42:11.001Z</time></trkpt><trkpt lat="40.80233564376195" lon="8.514634129451823"><ele>16.666666666666668</ele><time>2026-04-30T07:42:12.001Z</time></trkpt><trkpt lat="40.80239029197994" lon="8.514849345501204"><ele>17.0</ele><time>2026-04-30T07:42:13.001Z</time></trkpt><trkpt lat="40.80244612059846" lon="8.515060794663443"><ele>17.0</ele><time>2026-04-30T07:42:14.002Z</time></trkpt><trkpt lat="40.802502962604734" lon="8.51527205380025"><ele>17.0</ele><time>2026-04-30T07:42:15.002Z</time></trkpt><trkpt lat="40.80255691839421" lon="8.51547610332997"><ele>17.0</ele><time>2026-04-30T07:42:16.002Z</time></trkpt><trkpt lat="40.802610613459905" lon="8.515677632202015"><ele>16.333333333333336</ele><time>2026-04-30T07:42:17.002Z</time></trkpt><trkpt lat="40.80266528314755" lon="8.51587577263698"><ele>15.666666666666668</ele><time>2026-04-30T07:42:18.002Z</time></trkpt><trkpt lat="40.8027200683774" lon="8.516073576825526"><ele>15.0</ele><time>2026-04-30T07:42:19.002Z</time></trkpt><trkpt lat="40.80277114879346" lon="8.516274929162252"><ele>15.0</ele><time>2026-04-30T07:42:20.002Z</time></trkpt><trkpt lat="40.80281582893271" lon="8.5164827814042"><ele>15.0</ele><time>2026-04-30T07:42:21.002Z</time></trkpt><trkpt lat="40.80284904863938" lon="8.51669598982243"><ele>15.0</ele><time>2026-04-30T07:42:22.002Z</time></trkpt><trkpt lat="40.802870945595146" lon="8.51691376843824"><ele>14.666666666666668</ele><time>2026-04-30T07:42:23.002Z</time></trkpt><trkpt lat="40.80288341039716" lon="8.51713110388799"><ele>14.333333333333334</ele><time>2026-04-30T07:42:24.002Z</time></trkpt><trkpt lat="40.80288842830932" lon="8.517344743645834"><ele>14.0</ele><time>2026-04-30T07:42:25.002Z</time></trkpt><trkpt lat="40.80289279624585" lon="8.517557377596251"><ele>14.0</ele><time>2026-04-30T07:42:26.002Z</time></trkpt><trkpt lat="40.80289613111683" lon="8.517764365002645"><ele>14.0</ele><time>2026-04-30T07:42:27.002Z</time></trkpt><trkpt lat="40.80290010053126" lon="8.517969962389298"><ele>14.0</ele><time>2026-04-30T07:42:28.002Z</time></trkpt><trkpt lat="40.8029050601936" lon="8.518170466692863"><ele>14.25</ele><time>2026-04-30T07:42:29.002Z</time></trkpt><trkpt lat="40.802911258926784" lon="8.518369712084912"><ele>14.5</ele><time>2026-04-30T07:42:30.002Z</time></trkpt><trkpt lat="40.80291545101389" lon="8.518564952776282"><ele>14.75</ele><time>2026-04-30T07:42:31.002Z</time></trkpt><trkpt lat="40.802919281618976" lon="8.518756258792736"><ele>15.0</ele><time>2026-04-30T07:42:32.002Z</time></trkpt><trkpt lat="40.80292244960031" lon="8.518948110387399"><ele>15.0</ele><time>2026-04-30T07:42:33.002Z</time></trkpt><trkpt lat="40.80292573954433" lon="8.519136413829406"><ele>15.0</ele><time>2026-04-30T07:42:34.002Z</time></trkpt><trkpt lat="40.8029299175484" lon="8.519319581948306"><ele>15.0</ele><time>2026-04-30T07:42:35.002Z</time></trkpt><trkpt lat="40.80293510111008" lon="8.519499934976173"><ele>15.0</ele><time>2026-04-30T07:42:36.002Z</time></trkpt><trkpt lat="40.80293481443621" lon="8.519674759645646"><ele>15.25</ele><time>2026-04-30T07:42:37.002Z</time></trkpt><trkpt lat="40.80294025287926" lon="8.519838926926726"><ele>15.5</ele><time>2026-04-30T07:42:38.002Z</time></trkpt><trkpt lat="40.802944461856114" lon="8.519993397078338"><ele>15.75</ele><time>2026-04-30T07:42:39.002Z</time></trkpt><trkpt lat="40.802948532511195" lon="8.520140808749161"><ele>16.0</ele><time>2026-04-30T07:42:40.002Z</time></trkpt><trkpt lat="40.80294971693061" lon="8.520279578999897"><ele>16.400000000000002</ele><time>2026-04-30T07:42:41.002Z</time></trkpt><trkpt lat="40.80295159446158" lon="8.520409963060564"><ele>16.8</ele><time>2026-04-30T07:42:42.002Z</time></trkpt><trkpt lat="40.80294847165099" lon="8.520542320198661"><ele>17.200000000000003</ele><time>2026-04-30T07:42:43.002Z</time></trkpt><trkpt lat="40.80294082896798" lon="8.520664707705466"><ele>17.6</ele><time>2026-04-30T07:42:44.002Z</time></trkpt><trkpt lat="40.802932994201555" lon="8.520779527836991"><ele>18.0</ele><time>2026-04-30T07:42:45.002Z</time></trkpt><trkpt lat="40.802910837134554" lon="8.520875467671226"><ele>18.0</ele><time>2026-04-30T07:42:46.002Z</time></trkpt><trkpt lat="40.80289944391577" lon="8.520960131032163"><ele>18.0</ele><time>2026-04-30T07:42:47.002Z</time></trkpt><trkpt lat="40.80300034367209" lon="8.52110687338438"><ele>18.0</ele><time>2026-04-30T07:42:49.001Z</time></trkpt><trkpt lat="40.80305042143239" lon="8.521158897942124"><ele>18.0</ele><time>2026-04-30T07:42:50.001Z</time></trkpt><trkpt lat="40.80311210574622" lon="8.521212878692806"><ele>18.0</ele><time>2026-04-30T07:42:51.001Z</time></trkpt><trkpt lat="40.80319208163777" lon="8.52127149613879"><ele>18.0</ele><time>2026-04-30T07:42:52.001Z</time></trkpt><trkpt lat="40.803281161729295" lon="8.521335417839078"><ele>17.75</ele><time>2026-04-30T07:42:53.001Z</time></trkpt><trkpt lat="40.80338090444191" lon="8.521420103375982"><ele>17.5</ele><time>2026-04-30T07:42:54.001Z</time></trkpt><trkpt lat="40.80348849183488" lon="8.521522131491126"><ele>17.25</ele><time>2026-04-30T07:42:55.001Z</time></trkpt><trkpt lat="40.80359331396684" lon="8.52163201946173"><ele>17.0</ele><time>2026-04-30T07:42:56.001Z</time></trkpt><trkpt lat="40.80370765078857" lon="8.521757225077229"><ele>17.0</ele><time>2026-04-30T07:42:57.001Z</time></trkpt><trkpt lat="40.80382648298356" lon="8.521887573817903"><ele>17.0</ele><time>2026-04-30T07:42:58.001Z</time></trkpt><trkpt lat="40.80394993604057" lon="8.522023018566156"><ele>17.0</ele><time>2026-04-30T07:42:59.001Z</time></trkpt><trkpt lat="40.804079476738785" lon="8.522158852901924"><ele>16.666666666666668</ele><time>2026-04-30T07:43:00.001Z</time></trkpt><trkpt lat="40.80421339795233" lon="8.522295270936283"><ele>16.333333333333332</ele><time>2026-04-30T07:43:01.001Z</time></trkpt><trkpt lat="40.80434698409832" lon="8.522433264801522"><ele>16.0</ele><time>2026-04-30T07:43:02.001Z</time></trkpt><trkpt lat="40.80447553592331" lon="8.522576227810786"><ele>16.0</ele><time>2026-04-30T07:43:03.001Z</time></trkpt><trkpt lat="40.804604291846694" lon="8.522734031043608"><ele>16.0</ele><time>2026-04-30T07:43:04.001Z</time></trkpt><trkpt lat="40.8047304385812" lon="8.52289904392045"><ele>16.0</ele><time>2026-04-30T07:43:05.001Z</time></trkpt><trkpt lat="40.804848321219076" lon="8.523080641756293"><ele>16.0</ele><time>2026-04-30T07:43:06.001Z</time></trkpt><trkpt lat="40.804964625703725" lon="8.523275479233158"><ele>16.0</ele><time>2026-04-30T07:43:07.001Z</time></trkpt><trkpt lat="40.80507898673334" lon="8.523478426637805"><ele>16.0</ele><time>2026-04-30T07:43:08.001Z</time></trkpt><trkpt lat="40.805194370654526" lon="8.523685604832757"><ele>16.0</ele><time>2026-04-30T07:43:09.001Z</time></trkpt><trkpt lat="40.80531301135425" lon="8.523896776551638"><ele>16.0</ele><time>2026-04-30T07:43:10.001Z</time></trkpt><trkpt lat="40.805432079584" lon="8.524111225472534"><ele>16.0</ele><time>2026-04-30T07:43:11.001Z</time></trkpt><trkpt lat="40.805549782036465" lon="8.524318071485775"><ele>16.0</ele><time>2026-04-30T07:43:12.001Z</time></trkpt><trkpt lat="40.805663560998845" lon="8.524519217190218"><ele>16.0</ele><time>2026-04-30T07:43:13.001Z</time></trkpt><trkpt lat="40.80577386428996" lon="8.524713942548457"><ele>16.0</ele><time>2026-04-30T07:43:14.001Z</time></trkpt><trkpt lat="40.80588074786735" lon="8.52490561583333"><ele>16.0</ele><time>2026-04-30T07:43:15.001Z</time></trkpt><trkpt lat="40.805986124637975" lon="8.525092524127952"><ele>16.0</ele><time>2026-04-30T07:43:16.001Z</time></trkpt><trkpt lat="40.80608844225138" lon="8.525281304278677"><ele>16.0</ele><time>2026-04-30T07:43:17.001Z</time></trkpt><trkpt lat="40.80619284307477" lon="8.525470567894205"><ele>16.0</ele><time>2026-04-30T07:43:18.001Z</time></trkpt><trkpt lat="40.8062966877591" lon="8.525655267248037"><ele>16.0</ele><time>2026-04-30T07:43:19.001Z</time></trkpt><trkpt lat="40.80639863107398" lon="8.525835428205458"><ele>16.0</ele><time>2026-04-30T07:43:20.001Z</time></trkpt><trkpt lat="40.806497426712646" lon="8.526012311670883"><ele>16.0</ele><time>2026-04-30T07:43:21.001Z</time></trkpt><trkpt lat="40.806593382883456" lon="8.526185654421903"><ele>16.0</ele><time>2026-04-30T07:43:22.001Z</time></trkpt><trkpt lat="40.8066908484047" lon="8.526354394792623"><ele>16.0</ele><time>2026-04-30T07:43:23.001Z</time></trkpt><trkpt lat="40.806785816532546" lon="8.526524567697589"><ele>15.333333333333332</ele><time>2026-04-30T07:43:24.001Z</time></trkpt><trkpt lat="40.80688239362417" lon="8.526694563594056"><ele>14.666666666666668</ele><time>2026-04-30T07:43:25.001Z</time></trkpt><trkpt lat="40.80697594565623" lon="8.526862967612335"><ele>14.0</ele><time>2026-04-30T07:43:26.001Z</time></trkpt><trkpt lat="40.80707013676529" lon="8.52703412501837"><ele>15.0</ele><time>2026-04-30T07:43:27.001Z</time></trkpt><trkpt lat="40.80716277089848" lon="8.527211957161276"><ele>16.0</ele><time>2026-04-30T07:43:28.001Z</time></trkpt><trkpt lat="40.807250780093135" lon="8.527395558473954"><ele>17.0</ele><time>2026-04-30T07:43:29.001Z</time></trkpt><trkpt lat="40.80732895680999" lon="8.527596594786683"><ele>17.0</ele><time>2026-04-30T07:43:30.001Z</time></trkpt><trkpt lat="40.80739201013212" lon="8.527812456683765"><ele>17.0</ele><time>2026-04-30T07:43:31.001Z</time></trkpt><trkpt lat="40.80744659538993" lon="8.52805448352061"><ele>17.0</ele><time>2026-04-30T07:43:32.001Z</time></trkpt><trkpt lat="40.80748963230867" lon="8.528308719183503"><ele>17.333333333333336</ele><time>2026-04-30T07:43:33.001Z</time></trkpt><trkpt lat="40.80753150394815" lon="8.528573289327117"><ele>17.666666666666668</ele><time>2026-04-30T07:43:34.001Z</time></trkpt><trkpt lat="40.80757550744482" lon="8.528841273539037"><ele>18.0</ele><time>2026-04-30T07:43:35.001Z</time></trkpt><trkpt lat="40.80762225940609" lon="8.529113728967785"><ele>17.666666666666668</ele><time>2026-04-30T07:43:36.001Z</time></trkpt><trkpt lat="40.807669779851" lon="8.52939041584931"><ele>17.333333333333336</ele><time>2026-04-30T07:43:37.001Z</time></trkpt><trkpt lat="40.807717821741164" lon="8.529668551911286"><ele>17.0</ele><time>2026-04-30T07:43:38.001Z</time></trkpt><trkpt lat="40.80776578662568" lon="8.529947170958728"><ele>17.0</ele><time>2026-04-30T07:43:39.001Z</time></trkpt><trkpt lat="40.807812238524555" lon="8.530227168379417"><ele>17.0</ele><time>2026-04-30T07:43:40.001Z</time></trkpt><trkpt lat="40.80785855996463" lon="8.530509123499751"><ele>17.0</ele><time>2026-04-30T07:43:41.001Z</time></trkpt><trkpt lat="40.807905652939446" lon="8.53078927506721"><ele>16.666666666666668</ele><time>2026-04-30T07:43:42.001Z</time></trkpt><trkpt lat="40.80795306845159" lon="8.531069045071485"><ele>16.333333333333332</ele><time>2026-04-30T07:43:43.001Z</time></trkpt><trkpt lat="40.807999560759036" lon="8.531346666183975"><ele>16.0</ele><time>2026-04-30T07:43:44.001Z</time></trkpt><trkpt lat="40.808046601822355" lon="8.531623874289084"><ele>16.0</ele><time>2026-04-30T07:43:45.001Z</time></trkpt><trkpt lat="40.80809302645773" lon="8.531899207048303"><ele>16.0</ele><time>2026-04-30T07:43:46.001Z</time></trkpt><trkpt lat="40.808140774315625" lon="8.532172695812863"><ele>16.0</ele><time>2026-04-30T07:43:47.001Z</time></trkpt><trkpt lat="40.80818866293028" lon="8.532446008812176"><ele>16.333333333333332</ele><time>2026-04-30T07:43:48.001Z</time></trkpt><trkpt lat="40.808233635069904" lon="8.532718459377689"><ele>16.666666666666668</ele><time>2026-04-30T07:43:49.001Z</time></trkpt><trkpt lat="40.808277221984774" lon="8.532990590358594"><ele>17.0</ele><time>2026-04-30T07:43:50.001Z</time></trkpt><trkpt lat="40.80832287481231" lon="8.533258321435694"><ele>17.333333333333336</ele><time>2026-04-30T07:43:51.001Z</time></trkpt><trkpt lat="40.80836761694099" lon="8.533525172777995"><ele>17.666666666666668</ele><time>2026-04-30T07:43:52.001Z</time></trkpt><trkpt lat="40.80841180571861" lon="8.533791413903066"><ele>18.0</ele><time>2026-04-30T07:43:53.001Z</time></trkpt><trkpt lat="40.80845427017453" lon="8.534056227311394"><ele>17.666666666666668</ele><time>2026-04-30T07:43:54.001Z</time></trkpt><trkpt lat="40.80849810545325" lon="8.53432608561619"><ele>17.333333333333336</ele><time>2026-04-30T07:43:55.001Z</time></trkpt><trkpt lat="40.80854279150647" lon="8.534597548925628"><ele>17.0</ele><time>2026-04-30T07:43:56.001Z</time></trkpt><trkpt lat="40.80858940876612" lon="8.53487133750385"><ele>17.666666666666668</ele><time>2026-04-30T07:43:57.001Z</time></trkpt><trkpt lat="40.80863535050248" lon="8.535149253512362"><ele>18.333333333333332</ele><time>2026-04-30T07:43:58.001Z</time></trkpt><trkpt lat="40.80867871095806" lon="8.53542362380716"><ele>19.0</ele><time>2026-04-30T07:43:59.001Z</time></trkpt><trkpt lat="40.808722349657295" lon="8.535694705634413"><ele>19.0</ele><time>2026-04-30T07:44:00.001Z</time></trkpt><trkpt lat="40.80876634064296" lon="8.53596132847876"><ele>19.0</ele><time>2026-04-30T07:44:01.001Z</time></trkpt><trkpt lat="40.80881116695849" lon="8.536227398516782"><ele>19.0</ele><time>2026-04-30T07:44:02.001Z</time></trkpt><trkpt lat="40.80885667892544" lon="8.536486180019994"><ele>19.0</ele><time>2026-04-30T07:44:03.001Z</time></trkpt><trkpt lat="40.808904818044155" lon="8.536738147182175"><ele>19.0</ele><time>2026-04-30T07:44:04.001Z</time></trkpt><trkpt lat="40.808967795073805" lon="8.536980824600844"><ele>19.0</ele><time>2026-04-30T07:44:05.001Z</time></trkpt><trkpt lat="40.80905467212915" lon="8.537209305266233"><ele>19.0</ele><time>2026-04-30T07:44:06.001Z</time></trkpt><trkpt lat="40.809165912374716" lon="8.53742728864665"><ele>19.0</ele><time>2026-04-30T07:44:07.001Z</time></trkpt><trkpt lat="40.809300723502346" lon="8.537632069358077"><ele>19.0</ele><time>2026-04-30T07:44:08.001Z</time></trkpt><trkpt lat="40.80945554097606" lon="8.53782870463165"><ele>19.666666666666664</ele><time>2026-04-30T07:44:09.001Z</time></trkpt><trkpt lat="40.80961793681515" lon="8.53802862198729"><ele>20.333333333333332</ele><time>2026-04-30T07:44:10.001Z</time></trkpt><trkpt lat="40.80977819407055" lon="8.538236181281372"><ele>21.0</ele><time>2026-04-30T07:44:11.001Z</time></trkpt><trkpt lat="40.80994065493155" lon="8.538448129614812"><ele>21.0</ele><time>2026-04-30T07:44:12.001Z</time></trkpt><trkpt lat="40.81009970049871" lon="8.538651322021021"><ele>21.0</ele><time>2026-04-30T07:44:13.001Z</time></trkpt><trkpt lat="40.81025109922221" lon="8.538844696032113"><ele>21.0</ele><time>2026-04-30T07:44:14.001Z</time></trkpt><trkpt lat="40.81039691877693" lon="8.539033704648842"><ele>20.666666666666668</ele><time>2026-04-30T07:44:15.001Z</time></trkpt><trkpt lat="40.81053944444005" lon="8.539214901744002"><ele>20.333333333333336</ele><time>2026-04-30T07:44:16.001Z</time></trkpt><trkpt lat="40.810676488795224" lon="8.539385188048708"><ele>20.0</ele><time>2026-04-30T07:44:17.001Z</time></trkpt><trkpt lat="40.81080962835349" lon="8.539557131338938"><ele>20.333333333333336</ele><time>2026-04-30T07:44:18.001Z</time></trkpt><trkpt lat="40.81094195110123" lon="8.539722131510265"><ele>20.666666666666668</ele><time>2026-04-30T07:44:19.001Z</time></trkpt><trkpt lat="40.81106918808517" lon="8.53988300300113"><ele>21.0</ele><time>2026-04-30T07:44:20.001Z</time></trkpt><trkpt lat="40.811190639444575" lon="8.54003458690026"><ele>21.0</ele><time>2026-04-30T07:44:21.001Z</time></trkpt><trkpt lat="40.811306130574664" lon="8.540178797147576"><ele>21.0</ele><time>2026-04-30T07:44:22.002Z</time></trkpt><trkpt lat="40.81141754498463" lon="8.540320327813216"><ele>21.0</ele><time>2026-04-30T07:44:23.002Z</time></trkpt><trkpt lat="40.811507103035474" lon="8.540447884570282"><ele>21.0</ele><time>2026-04-30T07:44:24.002Z</time></trkpt><trkpt lat="40.81158481954037" lon="8.540571000418877"><ele>21.166666666666668</ele><time>2026-04-30T07:44:25.002Z</time></trkpt><trkpt lat="40.81164086968179" lon="8.540685495241526"><ele>21.333333333333332</ele><time>2026-04-30T07:44:26.002Z</time></trkpt><trkpt lat="40.81168309189811" lon="8.540784434257993"><ele>21.5</ele><time>2026-04-30T07:44:27.002Z</time></trkpt><trkpt lat="40.81171878392815" lon="8.540877884765013"><ele>21.666666666666664</ele><time>2026-04-30T07:44:28.002Z</time></trkpt><trkpt lat="40.81174668662807" lon="8.540968852663726"><ele>21.833333333333332</ele><time>2026-04-30T07:44:29.002Z</time></trkpt><trkpt lat="40.811770490371366" lon="8.541061059318718"><ele>22.0</ele><time>2026-04-30T07:44:30.002Z</time></trkpt><trkpt lat="40.81179504415271" lon="8.541160391987358"><ele>22.0</ele><time>2026-04-30T07:44:31.002Z</time></trkpt><trkpt lat="40.81182170691961" lon="8.541268051796095"><ele>22.0</ele><time>2026-04-30T07:44:32.002Z</time></trkpt><trkpt lat="40.81185165044157" lon="8.541376064198197"><ele>22.0</ele><time>2026-04-30T07:44:33.002Z</time></trkpt><trkpt lat="40.81188187275773" lon="8.541483951382009"><ele>22.0</ele><time>2026-04-30T07:44:34.002Z</time></trkpt><trkpt lat="40.81191303100305" lon="8.541592910253469"><ele>22.0</ele><time>2026-04-30T07:44:35.002Z</time></trkpt><trkpt lat="40.8119436882597" lon="8.54170776123551"><ele>22.0</ele><time>2026-04-30T07:44:36.002Z</time></trkpt><trkpt lat="40.81197128132447" lon="8.541827607383313"><ele>21.400000000000002</ele><time>2026-04-30T07:44:37.002Z</time></trkpt><trkpt lat="40.81199984144058" lon="8.54195515109027"><ele>20.8</ele><time>2026-04-30T07:44:38.002Z</time></trkpt><trkpt lat="40.81203203626759" lon="8.542087469293527"><ele>20.2</ele><time>2026-04-30T07:44:39.002Z</time></trkpt><trkpt lat="40.81206761433122" lon="8.542220978491923"><ele>19.6</ele><time>2026-04-30T07:44:40.002Z</time></trkpt><trkpt lat="40.81210218320681" lon="8.542363213051791"><ele>19.0</ele><time>2026-04-30T07:44:41.002Z</time></trkpt><trkpt lat="40.812144172700464" lon="8.542525925474278"><ele>19.0</ele><time>2026-04-30T07:44:42.002Z</time></trkpt><trkpt lat="40.812189600238256" lon="8.54270570772961"><ele>19.0</ele><time>2026-04-30T07:44:43.002Z</time></trkpt><trkpt lat="40.812237447644286" lon="8.542896510550447"><ele>19.0</ele><time>2026-04-30T07:44:44.002Z</time></trkpt><trkpt lat="40.812287614394236" lon="8.543104811388517"><ele>19.333333333333332</ele><time>2026-04-30T07:44:45.002Z</time></trkpt><trkpt lat="40.81234104604731" lon="8.543324675417846"><ele>19.666666666666668</ele><time>2026-04-30T07:44:46.002Z</time></trkpt><trkpt lat="40.81239809682865" lon="8.543550734832714"><ele>20.0</ele><time>2026-04-30T07:44:47.002Z</time></trkpt><trkpt lat="40.81245244972006" lon="8.543757924056703"><ele>20.333333333333336</ele><time>2026-04-30T07:44:48.002Z</time></trkpt><trkpt lat="40.812505844903754" lon="8.543962121523649"><ele>20.666666666666668</ele><time>2026-04-30T07:44:49.002Z</time></trkpt><trkpt lat="40.8125572772188" lon="8.544157535306049"><ele>21.0</ele><time>2026-04-30T07:44:50.002Z</time></trkpt><trkpt lat="40.8126060979524" lon="8.544345710379906"><ele>21.0</ele><time>2026-04-30T07:44:51.002Z</time></trkpt><trkpt lat="40.81265143858129" lon="8.544531493287584"><ele>21.0</ele><time>2026-04-30T07:44:52.002Z</time></trkpt><trkpt lat="40.81269582574391" lon="8.544713663969691"><ele>21.0</ele><time>2026-04-30T07:44:53.002Z</time></trkpt><trkpt lat="40.81274084934832" lon="8.544902156114174"><ele>21.0</ele><time>2026-04-30T07:44:54.001Z</time></trkpt><trkpt lat="40.81278603528551" lon="8.54509756724159"><ele>20.666666666666668</ele><time>2026-04-30T07:44:55.001Z</time></trkpt><trkpt lat="40.81283111185134" lon="8.545290942547808"><ele>20.333333333333336</ele><time>2026-04-30T07:44:56.001Z</time></trkpt><trkpt lat="40.812876940009886" lon="8.545480486461388"><ele>20.0</ele><time>2026-04-30T07:44:57.001Z</time></trkpt><trkpt lat="40.812924547077806" lon="8.545669348930414"><ele>20.666666666666668</ele><time>2026-04-30T07:44:58.001Z</time></trkpt><trkpt lat="40.81297356615827" lon="8.545855924381131"><ele>21.333333333333332</ele><time>2026-04-30T07:44:59.001Z</time></trkpt><trkpt lat="40.81302170913327" lon="8.546046219276981"><ele>22.0</ele><time>2026-04-30T07:45:00.001Z</time></trkpt><trkpt lat="40.81306845112417" lon="8.546240633493273"><ele>22.333333333333332</ele><time>2026-04-30T07:45:01.001Z</time></trkpt><trkpt lat="40.81311792173423" lon="8.546440797542564"><ele>22.666666666666668</ele><time>2026-04-30T07:45:02.001Z</time></trkpt><trkpt lat="40.81316503494289" lon="8.5466462850196"><ele>23.0</ele><time>2026-04-30T07:45:03.001Z</time></trkpt><trkpt lat="40.81321934456699" lon="8.546868040356879"><ele>23.0</ele><time>2026-04-30T07:45:04.001Z</time></trkpt><trkpt lat="40.813253593593444" lon="8.547024606369131"><ele>23.0</ele><time>2026-04-30T07:45:05.001Z</time></trkpt><trkpt lat="40.81330777155826" lon="8.547214469898178"><ele>23.0</ele><time>2026-04-30T07:45:06.001Z</time></trkpt><trkpt lat="40.813346545718574" lon="8.547370636714609"><ele>23.0</ele><time>2026-04-30T07:45:07.001Z</time></trkpt><trkpt lat="40.81337460202799" lon="8.547486066800527"><ele>23.833333333333336</ele><time>2026-04-30T07:45:08.001Z</time></trkpt><trkpt lat="40.81339800267979" lon="8.547582942748122"><ele>24.666666666666668</ele><time>2026-04-30T07:45:10.001Z</time></trkpt><trkpt lat="40.81342975713203" lon="8.547659989750667"><ele>25.5</ele><time>2026-04-30T07:45:13.001Z</time></trkpt><trkpt lat="40.81345706754603" lon="8.547750966076446"><ele>26.333333333333336</ele><time>2026-04-30T07:45:17.001Z</time></trkpt><trkpt lat="40.813486092815936" lon="8.547909770812188"><ele>27.166666666666668</ele><time>2026-04-30T07:45:19.001Z</time></trkpt><trkpt lat="40.81351191755257" lon="8.54802733515815"><ele>28.0</ele><time>2026-04-30T07:45:20.001Z</time></trkpt><trkpt lat="40.813544248391345" lon="8.548159864254956"><ele>28.25</ele><time>2026-04-30T07:45:21.001Z</time></trkpt><trkpt lat="40.81357733267172" lon="8.54829227126685"><ele>28.5</ele><time>2026-04-30T07:45:22.001Z</time></trkpt><trkpt lat="40.813612194837056" lon="8.548438832831353"><ele>28.75</ele><time>2026-04-30T07:45:23.001Z</time></trkpt><trkpt lat="40.81365222467554" lon="8.548590596691357"><ele>29.0</ele><time>2026-04-30T07:45:24.001Z</time></trkpt><trkpt lat="40.81369021085294" lon="8.548743599647377"><ele>29.4</ele><time>2026-04-30T07:45:25.001Z</time></trkpt><trkpt lat="40.81372512817691" lon="8.548888620926604"><ele>29.799999999999997</ele><time>2026-04-30T07:45:26.001Z</time></trkpt><trkpt lat="40.81375926349358" lon="8.549018886226701"><ele>30.200000000000003</ele><time>2026-04-30T07:45:27.001Z</time></trkpt><trkpt lat="40.8137858234458" lon="8.54912654944055"><ele>30.6</ele><time>2026-04-30T07:45:28.001Z</time></trkpt><trkpt lat="40.81381293462404" lon="8.549236363611874"><ele>31.0</ele><time>2026-04-30T07:45:29.001Z</time></trkpt><trkpt lat="40.813838821607746" lon="8.549342930489399"><ele>31.000000000000004</ele><time>2026-04-30T07:45:30.001Z</time></trkpt><trkpt lat="40.81386318407468" lon="8.549441666207288"><ele>31.0</ele><time>2026-04-30T07:45:31.001Z</time></trkpt><trkpt lat="40.813888889414756" lon="8.549541706445012"><ele>31.0</ele><time>2026-04-30T07:45:32.001Z</time></trkpt><trkpt lat="40.81391583344302" lon="8.54964831800074"><ele>31.0</ele><time>2026-04-30T07:45:33.001Z</time></trkpt><trkpt lat="40.813947136154766" lon="8.549765598013822"><ele>31.000000000000004</ele><time>2026-04-30T07:45:34.001Z</time></trkpt><trkpt lat="40.813976464929596" lon="8.549893147480738"><ele>31.0</ele><time>2026-04-30T07:45:35.001Z</time></trkpt><trkpt lat="40.814006868626194" lon="8.550029094296752"><ele>31.75</ele><time>2026-04-30T07:45:36.001Z</time></trkpt><trkpt lat="40.81404583436588" lon="8.550159019451684"><ele>32.5</ele><time>2026-04-30T07:45:37.001Z</time></trkpt><trkpt lat="40.81407869355413" lon="8.550312809325563"><ele>33.25</ele><time>2026-04-30T07:45:38.001Z</time></trkpt><trkpt lat="40.81411990947097" lon="8.550473010442914"><ele>34.0</ele><time>2026-04-30T07:45:39.001Z</time></trkpt><trkpt lat="40.81416778827425" lon="8.55064534860746"><ele>34.66666666666667</ele><time>2026-04-30T07:45:40.001Z</time></trkpt><trkpt lat="40.8142168609587" lon="8.550829283218947"><ele>35.333333333333336</ele><time>2026-04-30T07:45:41.001Z</time></trkpt><trkpt lat="40.81426640100084" lon="8.551025122814625"><ele>36.0</ele><time>2026-04-30T07:45:42.001Z</time></trkpt><trkpt lat="40.81431659269952" lon="8.551231033294151"><ele>36.0</ele><time>2026-04-30T07:45:43.001Z</time></trkpt><trkpt lat="40.814366249179294" lon="8.551432438227362"><ele>36.0</ele><time>2026-04-30T07:45:44.001Z</time></trkpt><trkpt lat="40.814421376219855" lon="8.551650786538028"><ele>36.0</ele><time>2026-04-30T07:45:45.001Z</time></trkpt><trkpt lat="40.81447633844639" lon="8.551869652417391"><ele>37.0</ele><time>2026-04-30T07:45:46.001Z</time></trkpt><trkpt lat="40.81453165355186" lon="8.55208897998148"><ele>38.0</ele><time>2026-04-30T07:45:47.001Z</time></trkpt><trkpt lat="40.81458670448721" lon="8.552310139333603"><ele>39.0</ele><time>2026-04-30T07:45:48.001Z</time></trkpt><trkpt lat="40.81464237040709" lon="8.552530776753633"><ele>39.0</ele><time>2026-04-30T07:45:49.001Z</time></trkpt><trkpt lat="40.81469650316846" lon="8.552750438886472"><ele>39.0</ele><time>2026-04-30T07:45:50.001Z</time></trkpt><trkpt lat="40.814751705364976" lon="8.552969523806562"><ele>39.0</ele><time>2026-04-30T07:45:51.001Z</time></trkpt><trkpt lat="40.814805225603216" lon="8.55318431735421"><ele>39.666666666666664</ele><time>2026-04-30T07:45:52.001Z</time></trkpt><trkpt lat="40.814855120279454" lon="8.55339741892089"><ele>40.33333333333333</ele><time>2026-04-30T07:45:53.001Z</time></trkpt><trkpt lat="40.814906928819205" lon="8.553609547857137"><ele>41.0</ele><time>2026-04-30T07:45:54.001Z</time></trkpt><trkpt lat="40.81495826336426" lon="8.55381297620654"><ele>41.666666666666664</ele><time>2026-04-30T07:45:55.001Z</time></trkpt><trkpt lat="40.8150068980676" lon="8.554013235178743"><ele>42.333333333333336</ele><time>2026-04-30T07:45:56.001Z</time></trkpt><trkpt lat="40.81505778559003" lon="8.554215936974172"><ele>43.0</ele><time>2026-04-30T07:45:57.001Z</time></trkpt><trkpt lat="40.81510863764094" lon="8.554418087574193"><ele>42.66666666666667</ele><time>2026-04-30T07:45:58.001Z</time></trkpt><trkpt lat="40.815159593301416" lon="8.554618032089806"><ele>42.333333333333336</ele><time>2026-04-30T07:45:59.001Z</time></trkpt><trkpt lat="40.81521272458599" lon="8.554823953696118"><ele>42.0</ele><time>2026-04-30T07:46:00.001Z</time></trkpt><trkpt lat="40.81526620207003" lon="8.555029183543674"><ele>42.0</ele><time>2026-04-30T07:46:01.001Z</time></trkpt><trkpt lat="40.81532048621727" lon="8.555238923939003"><ele>42.0</ele><time>2026-04-30T07:46:02.001Z</time></trkpt><trkpt lat="40.81536880932796" lon="8.555439059555505"><ele>42.0</ele><time>2026-04-30T07:46:03.001Z</time></trkpt><trkpt lat="40.81541428398881" lon="8.55561850734451"><ele>42.25</ele><time>2026-04-30T07:46:04.001Z</time></trkpt><trkpt lat="40.81545412726526" lon="8.555791135744707"><ele>42.5</ele><time>2026-04-30T07:46:05.001Z</time></trkpt><trkpt lat="40.815495455893114" lon="8.555951955658786"><ele>42.75</ele><time>2026-04-30T07:46:06.001Z</time></trkpt><trkpt lat="40.815534184021104" lon="8.556105264848815"><ele>43.0</ele><time>2026-04-30T07:46:07.001Z</time></trkpt><trkpt lat="40.81557103884021" lon="8.556253973064063"><ele>43.25</ele><time>2026-04-30T07:46:08.001Z</time></trkpt><trkpt lat="40.815608387725284" lon="8.556401935781084"><ele>43.5</ele><time>2026-04-30T07:46:09.001Z</time></trkpt><trkpt lat="40.81564603790522" lon="8.556551765889191"><ele>43.75</ele><time>2026-04-30T07:46:10.001Z</time></trkpt><trkpt lat="40.81568474093936" lon="8.556699180904214"><ele>44.0</ele><time>2026-04-30T07:46:11.001Z</time></trkpt><trkpt lat="40.81572406962851" lon="8.556852084193427"><ele>44.0</ele><time>2026-04-30T07:46:12.001Z</time></trkpt><trkpt lat="40.81576058335513" lon="8.557006280931157"><ele>44.0</ele><time>2026-04-30T07:46:13.001Z</time></trkpt><trkpt lat="40.815803750455615" lon="8.55717307161139"><ele>44.0</ele><time>2026-04-30T07:46:14.001Z</time></trkpt><trkpt lat="40.81585406280465" lon="8.557362396562452"><ele>44.0</ele><time>2026-04-30T07:46:15.001Z</time></trkpt><trkpt lat="40.81590566482314" lon="8.557565591226707"><ele>44.0</ele><time>2026-04-30T07:46:16.001Z</time></trkpt><trkpt lat="40.815956176558174" lon="8.557777997843452"><ele>44.0</ele><time>2026-04-30T07:46:17.001Z</time></trkpt><trkpt lat="40.81601234809639" lon="8.557995619562435"><ele>44.0</ele><time>2026-04-30T07:46:18.001Z</time></trkpt><trkpt lat="40.816070019620696" lon="8.558223536749036"><ele>42.666666666666664</ele><time>2026-04-30T07:46:19.001Z</time></trkpt><trkpt lat="40.81613032201555" lon="8.55845510110976"><ele>41.333333333333336</ele><time>2026-04-30T07:46:20.001Z</time></trkpt><trkpt lat="40.816190617370886" lon="8.558695567697486"><ele>40.0</ele><time>2026-04-30T07:46:21.001Z</time></trkpt><trkpt lat="40.816252493229854" lon="8.558935949509234"><ele>40.0</ele><time>2026-04-30T07:46:22.001Z</time></trkpt><trkpt lat="40.81631420350042" lon="8.559180655643226"><ele>40.0</ele><time>2026-04-30T07:46:23.001Z</time></trkpt><trkpt lat="40.816374305355964" lon="8.559379325990486"><ele>40.0</ele><time>2026-04-30T07:46:24.001Z</time></trkpt><trkpt lat="40.81642870037142" lon="8.559640124200971"><ele>40.66666666666667</ele><time>2026-04-30T07:46:25.001Z</time></trkpt><trkpt lat="40.81648114213992" lon="8.559857587776893"><ele>41.333333333333336</ele><time>2026-04-30T07:46:26.001Z</time></trkpt><trkpt lat="40.8165338926134" lon="8.560065769323227"><ele>42.0</ele><time>2026-04-30T07:46:27.001Z</time></trkpt><trkpt lat="40.81658168591064" lon="8.560266229486176"><ele>42.0</ele><time>2026-04-30T07:46:28.001Z</time></trkpt><trkpt lat="40.81662836393611" lon="8.560455366767297"><ele>42.0</ele><time>2026-04-30T07:46:29.001Z</time></trkpt><trkpt lat="40.816673462740404" lon="8.560630268532211"><ele>42.0</ele><time>2026-04-30T07:46:30.001Z</time></trkpt><trkpt lat="40.81671329203439" lon="8.560794597103094"><ele>42.0</ele><time>2026-04-30T07:46:31.001Z</time></trkpt><trkpt lat="40.81675279641698" lon="8.56094548911013"><ele>42.0</ele><time>2026-04-30T07:46:32.001Z</time></trkpt><trkpt lat="40.81679155436954" lon="8.561087739606661"><ele>42.0</ele><time>2026-04-30T07:46:33.001Z</time></trkpt><trkpt lat="40.816822423457964" lon="8.561218534929052"><ele>42.0</ele><time>2026-04-30T07:46:34.001Z</time></trkpt><trkpt lat="40.816835987564296" lon="8.561336853686848"><ele>42.0</ele><time>2026-04-30T07:46:35.001Z</time></trkpt><trkpt lat="40.816818010857965" lon="8.561453822972402"><ele>42.0</ele><time>2026-04-30T07:46:36.001Z</time></trkpt><trkpt lat="40.81680474468379" lon="8.561578023844785"><ele>41.8</ele><time>2026-04-30T07:46:37.001Z</time></trkpt><trkpt lat="40.81682150239815" lon="8.561680526748075"><ele>41.6</ele><time>2026-04-30T07:46:38.001Z</time></trkpt><trkpt lat="40.816872211162504" lon="8.56178056337177"><ele>41.4</ele><time>2026-04-30T07:46:39.001Z</time></trkpt><trkpt lat="40.816949371509445" lon="8.561888966370846"><ele>41.199999999999996</ele><time>2026-04-30T07:46:40.001Z</time></trkpt><trkpt lat="40.817021615344196" lon="8.56201479838924"><ele>41.0</ele><time>2026-04-30T07:46:41.001Z</time></trkpt><trkpt lat="40.81709143816999" lon="8.562162643920049"><ele>40.666666666666664</ele><time>2026-04-30T07:46:42.001Z</time></trkpt><trkpt lat="40.817117832791844" lon="8.562361055479542"><ele>40.333333333333336</ele><time>2026-04-30T07:46:43.001Z</time></trkpt><trkpt lat="40.81717110442742" lon="8.562562521731452"><ele>40.0</ele><time>2026-04-30T07:46:44.001Z</time></trkpt><trkpt lat="40.81722803612624" lon="8.562777299921665"><ele>40.0</ele><time>2026-04-30T07:46:45.001Z</time></trkpt><trkpt lat="40.81728430807182" lon="8.563000046112942"><ele>40.0</ele><time>2026-04-30T07:46:46.001Z</time></trkpt><trkpt lat="40.81734598594327" lon="8.563237861649867"><ele>40.0</ele><time>2026-04-30T07:46:47.001Z</time></trkpt><trkpt lat="40.817411112303795" lon="8.56347709973176"><ele>40.0</ele><time>2026-04-30T07:46:48.001Z</time></trkpt><trkpt lat="40.817473667419755" lon="8.563725153156403"><ele>40.0</ele><time>2026-04-30T07:46:49.002Z</time></trkpt><trkpt lat="40.81753970023009" lon="8.563974579114564"><ele>40.0</ele><time>2026-04-30T07:46:50.002Z</time></trkpt><trkpt lat="40.817605546329446" lon="8.564234037877377"><ele>39.333333333333336</ele><time>2026-04-30T07:46:51.002Z</time></trkpt><trkpt lat="40.81767592184101" lon="8.564513734589973"><ele>38.666666666666664</ele><time>2026-04-30T07:46:52.002Z</time></trkpt><trkpt lat="40.8177468235444" lon="8.564796410439799"><ele>38.0</ele><time>2026-04-30T07:46:53.002Z</time></trkpt><trkpt lat="40.817821311224044" lon="8.56509368577358"><ele>37.5</ele><time>2026-04-30T07:46:54.002Z</time></trkpt><trkpt lat="40.81789995262647" lon="8.565403150358117"><ele>37.0</ele><time>2026-04-30T07:46:55.002Z</time></trkpt><trkpt lat="40.81797681416297" lon="8.565705645820252"><ele>37.0</ele><time>2026-04-30T07:46:56.002Z</time></trkpt><trkpt lat="40.818051494965125" lon="8.566005565538752"><ele>37.0</ele><time>2026-04-30T07:46:57.002Z</time></trkpt><trkpt lat="40.8181234414728" lon="8.566302729612673"><ele>37.5</ele><time>2026-04-30T07:46:58.002Z</time></trkpt><trkpt lat="40.81819352558384" lon="8.566597974522187"><ele>38.0</ele><time>2026-04-30T07:46:59.002Z</time></trkpt><trkpt lat="40.818261632285456" lon="8.56688925102109"><ele>38.5</ele><time>2026-04-30T07:47:00Z</time></trkpt><trkpt lat="40.81832796604615" lon="8.567181425956377"><ele>39.0</ele><time>2026-04-30T07:47:01Z</time></trkpt><trkpt lat="40.81839525948077" lon="8.56747343319202"><ele>39.0</ele><time>2026-04-30T07:47:02Z</time></trkpt><trkpt lat="40.8184656061848" lon="8.567771131001123"><ele>39.0</ele><time>2026-04-30T07:47:03Z</time></trkpt><trkpt lat="40.818537071709116" lon="8.568063020836016"><ele>38.5</ele><time>2026-04-30T07:47:04Z</time></trkpt><trkpt lat="40.81860911308763" lon="8.568366387596075"><ele>38.0</ele><time>2026-04-30T07:47:05Z</time></trkpt><trkpt lat="40.81867832348742" lon="8.568663520194127"><ele>38.0</ele><time>2026-04-30T07:47:06Z</time></trkpt><trkpt lat="40.81874448803296" lon="8.568951803673006"><ele>38.0</ele><time>2026-04-30T07:47:07Z</time></trkpt><trkpt lat="40.81880850211717" lon="8.569225652565201"><ele>38.0</ele><time>2026-04-30T07:47:08Z</time></trkpt><trkpt lat="40.81886764182566" lon="8.56948359848999"><ele>38.0</ele><time>2026-04-30T07:47:09Z</time></trkpt><trkpt lat="40.81893072337019" lon="8.569745403461846"><ele>38.0</ele><time>2026-04-30T07:47:10Z</time></trkpt><trkpt lat="40.818991454048174" lon="8.570008219720627"><ele>38.0</ele><time>2026-04-30T07:47:11Z</time></trkpt><trkpt lat="40.81904999602473" lon="8.57026386069207"><ele>38.666666666666664</ele><time>2026-04-30T07:47:12Z</time></trkpt><trkpt lat="40.8191108057352" lon="8.570519289649926"><ele>39.333333333333336</ele><time>2026-04-30T07:47:13Z</time></trkpt><trkpt lat="40.81917225931608" lon="8.570774409014593"><ele>40.0</ele><time>2026-04-30T07:47:14Z</time></trkpt><trkpt lat="40.819237096906086" lon="8.571032115657232"><ele>40.66666666666667</ele><time>2026-04-30T07:47:15Z</time></trkpt><trkpt lat="40.81929801579173" lon="8.57129417687812"><ele>41.333333333333336</ele><time>2026-04-30T07:47:16Z</time></trkpt><trkpt lat="40.81936065760688" lon="8.571560390842727"><ele>42.0</ele><time>2026-04-30T07:47:17Z</time></trkpt><trkpt lat="40.81942467632612" lon="8.57182932495254"><ele>41.0</ele><time>2026-04-30T07:47:18Z</time></trkpt><trkpt lat="40.81948942877559" lon="8.572098361311287"><ele>40.0</ele><time>2026-04-30T07:47:19Z</time></trkpt><trkpt lat="40.81955256154842" lon="8.572371417557259"><ele>39.0</ele><time>2026-04-30T07:47:20Z</time></trkpt><trkpt lat="40.819617515776905" lon="8.572647103155825"><ele>39.666666666666664</ele><time>2026-04-30T07:47:21Z</time></trkpt><trkpt lat="40.81968232162823" lon="8.5729227378265"><ele>40.33333333333333</ele><time>2026-04-30T07:47:22Z</time></trkpt><trkpt lat="40.819746064673836" lon="8.573200064593038"><ele>41.0</ele><time>2026-04-30T07:47:23Z</time></trkpt><trkpt lat="40.819812178433395" lon="8.573481490312007"><ele>40.33333333333333</ele><time>2026-04-30T07:47:24Z</time></trkpt><trkpt lat="40.81987565808181" lon="8.573758831004637"><ele>39.666666666666664</ele><time>2026-04-30T07:47:25Z</time></trkpt><trkpt lat="40.81994037005602" lon="8.574035374015782"><ele>39.0</ele><time>2026-04-30T07:47:26Z</time></trkpt><trkpt lat="40.820005461209476" lon="8.574308999860694"><ele>39.0</ele><time>2026-04-30T07:47:27Z</time></trkpt><trkpt lat="40.820070524335996" lon="8.57458447961471"><ele>39.0</ele><time>2026-04-30T07:47:28Z</time></trkpt><trkpt lat="40.82013551918192" lon="8.574860098856327"><ele>39.0</ele><time>2026-04-30T07:47:29Z</time></trkpt><trkpt lat="40.82020044240519" lon="8.575134879089616"><ele>38.0</ele><time>2026-04-30T07:47:30Z</time></trkpt><trkpt lat="40.82026218778824" lon="8.575399092512049"><ele>37.0</ele><time>2026-04-30T07:47:31Z</time></trkpt><trkpt lat="40.820324569402956" lon="8.575665089684078"><ele>36.0</ele><time>2026-04-30T07:47:32Z</time></trkpt><trkpt lat="40.8203874997228" lon="8.57593153074718"><ele>35.666666666666664</ele><time>2026-04-30T07:47:33Z</time></trkpt><trkpt lat="40.820449517828344" lon="8.576192893638796"><ele>35.33333333333333</ele><time>2026-04-30T07:47:34Z</time></trkpt><trkpt lat="40.82051015275515" lon="8.576456471293186"><ele>35.0</ele><time>2026-04-30T07:47:35Z</time></trkpt><trkpt lat="40.82057087083062" lon="8.57671843506674"><ele>35.0</ele><time>2026-04-30T07:47:36.001Z</time></trkpt><trkpt lat="40.8206352486312" lon="8.576977292369683"><ele>35.0</ele><time>2026-04-30T07:47:37.001Z</time></trkpt><trkpt lat="40.82069706765342" lon="8.577243321786185"><ele>35.0</ele><time>2026-04-30T07:47:38.001Z</time></trkpt><trkpt lat="40.82075795041413" lon="8.577506495011791"><ele>35.666666666666664</ele><time>2026-04-30T07:47:39.001Z</time></trkpt><trkpt lat="40.820819525418315" lon="8.577767451226675"><ele>36.333333333333336</ele><time>2026-04-30T07:47:40.001Z</time></trkpt><trkpt lat="40.82088379051654" lon="8.578033590818178"><ele>37.0</ele><time>2026-04-30T07:47:41.001Z</time></trkpt><trkpt lat="40.82094526535076" lon="8.578296449652916"><ele>36.66666666666667</ele><time>2026-04-30T07:47:42.001Z</time></trkpt><trkpt lat="40.82100841825158" lon="8.578559410014257"><ele>36.333333333333336</ele><time>2026-04-30T07:47:43.001Z</time></trkpt><trkpt lat="40.82106915907916" lon="8.578822800532972"><ele>36.0</ele><time>2026-04-30T07:47:44.001Z</time></trkpt><trkpt lat="40.82113090510657" lon="8.579084634197153"><ele>36.0</ele><time>2026-04-30T07:47:45.001Z</time></trkpt><trkpt lat="40.82119395197899" lon="8.579346212584195"><ele>36.0</ele><time>2026-04-30T07:47:46.001Z</time></trkpt><trkpt lat="40.821256459955926" lon="8.57960521591212"><ele>36.0</ele><time>2026-04-30T07:47:47.001Z</time></trkpt><trkpt lat="40.82131809524231" lon="8.579863803485706"><ele>36.333333333333336</ele><time>2026-04-30T07:47:48.001Z</time></trkpt><trkpt lat="40.82137865519415" lon="8.580117374945996"><ele>36.66666666666667</ele><time>2026-04-30T07:47:49.001Z</time></trkpt><trkpt lat="40.82143840263939" lon="8.580372068372142"><ele>37.0</ele><time>2026-04-30T07:47:50.001Z</time></trkpt><trkpt lat="40.821494983088414" lon="8.580624558273074"><ele>37.66666666666667</ele><time>2026-04-30T07:47:51.001Z</time></trkpt><trkpt lat="40.82154503743575" lon="8.580873666649484"><ele>38.333333333333336</ele><time>2026-04-30T07:47:52.001Z</time></trkpt><trkpt lat="40.821608164022486" lon="8.5811184186702"><ele>39.0</ele><time>2026-04-30T07:47:53.001Z</time></trkpt><trkpt lat="40.821666737593176" lon="8.58136207046963"><ele>39.0</ele><time>2026-04-30T07:47:54.001Z</time></trkpt><trkpt lat="40.82172465253766" lon="8.581607614061927"><ele>39.0</ele><time>2026-04-30T07:47:55.001Z</time></trkpt><trkpt lat="40.82178318177751" lon="8.581851107495583"><ele>39.0</ele><time>2026-04-30T07:47:56.001Z</time></trkpt><trkpt lat="40.821842202802856" lon="8.58209646926322"><ele>39.0</ele><time>2026-04-30T07:47:57.001Z</time></trkpt><trkpt lat="40.82189959687887" lon="8.582341022458259"><ele>39.0</ele><time>2026-04-30T07:47:58.001Z</time></trkpt><trkpt lat="40.82195697643389" lon="8.582585085953973"><ele>39.0</ele><time>2026-04-30T07:47:59.001Z</time></trkpt><trkpt lat="40.82201401155471" lon="8.582831432508643"><ele>39.0</ele><time>2026-04-30T07:48:00.001Z</time></trkpt><trkpt lat="40.82207251666711" lon="8.583077658674695"><ele>39.0</ele><time>2026-04-30T07:48:01.001Z</time></trkpt><trkpt lat="40.82213280603251" lon="8.58332260801633"><ele>39.0</ele><time>2026-04-30T07:48:02.001Z</time></trkpt><trkpt lat="40.82219326319259" lon="8.5835679667032"><ele>39.333333333333336</ele><time>2026-04-30T07:48:03.001Z</time></trkpt><trkpt lat="40.822250349041994" lon="8.583812190019286"><ele>39.66666666666667</ele><time>2026-04-30T07:48:04.001Z</time></trkpt><trkpt lat="40.82230518878496" lon="8.584057225358725"><ele>40.0</ele><time>2026-04-30T07:48:05.001Z</time></trkpt><trkpt lat="40.82235952323967" lon="8.584299622661481"><ele>40.0</ele><time>2026-04-30T07:48:06.001Z</time></trkpt><trkpt lat="40.82241498747049" lon="8.584544234162552"><ele>40.0</ele><time>2026-04-30T07:48:07.001Z</time></trkpt><trkpt lat="40.82247258702744" lon="8.584789912571411"><ele>40.0</ele><time>2026-04-30T07:48:08.001Z</time></trkpt><trkpt lat="40.82253288823362" lon="8.585032615062241"><ele>40.0</ele><time>2026-04-30T07:48:09.001Z</time></trkpt><trkpt lat="40.82259175479474" lon="8.585274480679242"><ele>40.0</ele><time>2026-04-30T07:48:10.001Z</time></trkpt><trkpt lat="40.82264997799457" lon="8.585518335269516"><ele>40.0</ele><time>2026-04-30T07:48:11.001Z</time></trkpt><trkpt lat="40.82270510152634" lon="8.585760926237178"><ele>39.0</ele><time>2026-04-30T07:48:12.001Z</time></trkpt><trkpt lat="40.82276243009584" lon="8.586004087863708"><ele>38.0</ele><time>2026-04-30T07:48:13.001Z</time></trkpt><trkpt lat="40.82282090014313" lon="8.586249261235215"><ele>37.0</ele><time>2026-04-30T07:48:14.001Z</time></trkpt><trkpt lat="40.82287817122897" lon="8.586490128995438"><ele>37.0</ele><time>2026-04-30T07:48:15.001Z</time></trkpt><trkpt lat="40.82293559002862" lon="8.586730465656334"><ele>37.0</ele><time>2026-04-30T07:48:16.001Z</time></trkpt><trkpt lat="40.822992330429926" lon="8.586971187688302"><ele>37.0</ele><time>2026-04-30T07:48:17.001Z</time></trkpt><trkpt lat="40.82304707512175" lon="8.58721121735379"><ele>37.333333333333336</ele><time>2026-04-30T07:48:18.001Z</time></trkpt><trkpt lat="40.82310320000406" lon="8.587449713759307"><ele>37.666666666666664</ele><time>2026-04-30T07:48:19.001Z</time></trkpt><trkpt lat="40.823160683378546" lon="8.587686517957893"><ele>38.0</ele><time>2026-04-30T07:48:20.001Z</time></trkpt><trkpt lat="40.823218495766284" lon="8.587922100966423"><ele>38.0</ele><time>2026-04-30T07:48:21.001Z</time></trkpt><trkpt lat="40.82327399530175" lon="8.588155123993175"><ele>38.0</ele><time>2026-04-30T07:48:22.001Z</time></trkpt><trkpt lat="40.82333048187474" lon="8.58838946914968"><ele>38.0</ele><time>2026-04-30T07:48:23.001Z</time></trkpt><trkpt lat="40.82338646149459" lon="8.588623578597076"><ele>38.0</ele><time>2026-04-30T07:48:24.001Z</time></trkpt><trkpt lat="40.82343871430564" lon="8.588853661048711"><ele>38.0</ele><time>2026-04-30T07:48:25.001Z</time></trkpt><trkpt lat="40.8234913056517" lon="8.589081366398341"><ele>38.0</ele><time>2026-04-30T07:48:26.001Z</time></trkpt><trkpt lat="40.823543067487876" lon="8.589304694198844"><ele>37.33333333333333</ele><time>2026-04-30T07:48:27.001Z</time></trkpt><trkpt lat="40.8235973591569" lon="8.589522093454013"><ele>36.666666666666664</ele><time>2026-04-30T07:48:28.001Z</time></trkpt><trkpt lat="40.823652747143335" lon="8.589739536340135"><ele>36.0</ele><time>2026-04-30T07:48:29.001Z</time></trkpt><trkpt lat="40.82370655764113" lon="8.589960443105605"><ele>36.0</ele><time>2026-04-30T07:48:30.001Z</time></trkpt><trkpt lat="40.82375767192615" lon="8.590178225558219"><ele>36.0</ele><time>2026-04-30T07:48:31.001Z</time></trkpt><trkpt lat="40.823805305926996" lon="8.590381371252619"><ele>36.0</ele><time>2026-04-30T07:48:32.001Z</time></trkpt><trkpt lat="40.82385251146646" lon="8.590592599776357"><ele>36.0</ele><time>2026-04-30T07:48:33.001Z</time></trkpt><trkpt lat="40.82390070547855" lon="8.590803359016006"><ele>36.0</ele><time>2026-04-30T07:48:34.001Z</time></trkpt><trkpt lat="40.823946624438676" lon="8.591009994162087"><ele>36.0</ele><time>2026-04-30T07:48:35.001Z</time></trkpt><trkpt lat="40.82399306045285" lon="8.591211162364829"><ele>36.25</ele><time>2026-04-30T07:48:36.001Z</time></trkpt><trkpt lat="40.82403706771971" lon="8.59140446953941"><ele>36.5</ele><time>2026-04-30T07:48:37.001Z</time></trkpt><trkpt lat="40.8240800683483" lon="8.591589694177223"><ele>36.75</ele><time>2026-04-30T07:48:38.001Z</time></trkpt><trkpt lat="40.82412146449593" lon="8.591772080878343"><ele>37.0</ele><time>2026-04-30T07:48:39.001Z</time></trkpt><trkpt lat="40.82416533088457" lon="8.591936601440644"><ele>37.0</ele><time>2026-04-30T07:48:40.001Z</time></trkpt><trkpt lat="40.82420572150548" lon="8.592090130224657"><ele>37.0</ele><time>2026-04-30T07:48:41.001Z</time></trkpt><trkpt lat="40.82423172765204" lon="8.592230174323584"><ele>37.0</ele><time>2026-04-30T07:48:42.001Z</time></trkpt><trkpt lat="40.82423123569782" lon="8.592361586477539"><ele>37.0</ele><time>2026-04-30T07:48:43.001Z</time></trkpt><trkpt lat="40.8242184271212" lon="8.592477027623625"><ele>37.0</ele><time>2026-04-30T07:48:44.001Z</time></trkpt><trkpt lat="40.82420595759113" lon="8.59256530118302"><ele>37.0</ele><time>2026-04-30T07:48:45.001Z</time></trkpt><trkpt lat="40.824212888708416" lon="8.592658418151082"><ele>37.0</ele><time>2026-04-30T07:48:53.001Z</time></trkpt><trkpt lat="40.82427124657769" lon="8.592800691266081"><ele>37.0</ele><time>2026-04-30T07:48:57.001Z</time></trkpt><trkpt lat="40.82432607525569" lon="8.592865157106123"><ele>37.0</ele><time>2026-04-30T07:48:58.001Z</time></trkpt><trkpt lat="40.8243786188761" lon="8.592927934868506"><ele>37.0</ele><time>2026-04-30T07:48:59.001Z</time></trkpt><trkpt lat="40.82442534811404" lon="8.59298636411208"><ele>37.0</ele><time>2026-04-30T07:49:00.001Z</time></trkpt><trkpt lat="40.82447760553575" lon="8.593053195748897"><ele>36.66666666666667</ele><time>2026-04-30T07:49:01.001Z</time></trkpt><trkpt lat="40.82453573566715" lon="8.593126976804195"><ele>36.333333333333336</ele><time>2026-04-30T07:49:02.001Z</time></trkpt><trkpt lat="40.824599898875064" lon="8.593210629499547"><ele>36.0</ele><time>2026-04-30T07:49:03.001Z</time></trkpt><trkpt lat="40.82465515282804" lon="8.59329091340511"><ele>35.666666666666664</ele><time>2026-04-30T07:49:04.001Z</time></trkpt><trkpt lat="40.824715082513094" lon="8.593366917158026"><ele>35.33333333333333</ele><time>2026-04-30T07:49:05.001Z</time></trkpt><trkpt lat="40.82477505338354" lon="8.593442420676126"><ele>35.0</ele><time>2026-04-30T07:49:06.001Z</time></trkpt><trkpt lat="40.82483953762208" lon="8.593520229189329"><ele>35.0</ele><time>2026-04-30T07:49:07.001Z</time></trkpt><trkpt lat="40.82490333377953" lon="8.593611020010291"><ele>35.0</ele><time>2026-04-30T07:49:08.001Z</time></trkpt><trkpt lat="40.82495974364989" lon="8.593690533983333"><ele>35.0</ele><time>2026-04-30T07:49:09.001Z</time></trkpt><trkpt lat="40.82501051354839" lon="8.593759484659305"><ele>35.0</ele><time>2026-04-30T07:49:10.001Z</time></trkpt><trkpt lat="40.825064155996806" lon="8.593820936537231"><ele>35.0</ele><time>2026-04-30T07:49:11.001Z</time></trkpt><trkpt lat="40.825117507736124" lon="8.593874400567342"><ele>35.0</ele><time>2026-04-30T07:49:12.001Z</time></trkpt><trkpt lat="40.825176887226604" lon="8.593931453904158"><ele>34.666666666666664</ele><time>2026-04-30T07:49:13.001Z</time></trkpt><trkpt lat="40.82524438108656" lon="8.5939765495667"><ele>34.33333333333333</ele><time>2026-04-30T07:49:14.001Z</time></trkpt><trkpt lat="40.82532458032911" lon="8.594018963336532"><ele>34.0</ele><time>2026-04-30T07:49:15.001Z</time></trkpt><trkpt lat="40.82539433310816" lon="8.594053893518671"><ele>33.666666666666664</ele><time>2026-04-30T07:49:16.001Z</time></trkpt><trkpt lat="40.825469855283686" lon="8.594093081843688"><ele>33.333333333333336</ele><time>2026-04-30T07:49:17.001Z</time></trkpt><trkpt lat="40.825546588657396" lon="8.594133899710702"><ele>33.0</ele><time>2026-04-30T07:49:18.001Z</time></trkpt><trkpt lat="40.82561820437146" lon="8.594179105051264"><ele>33.0</ele><time>2026-04-30T07:49:19.001Z</time></trkpt><trkpt lat="40.82568477807934" lon="8.594220692868747"><ele>33.0</ele><time>2026-04-30T07:49:20.001Z</time></trkpt><trkpt lat="40.82575996557293" lon="8.59427140748351"><ele>33.0</ele><time>2026-04-30T07:49:21.001Z</time></trkpt><trkpt lat="40.82582442571592" lon="8.594318978702727"><ele>33.0</ele><time>2026-04-30T07:49:22.001Z</time></trkpt><trkpt lat="40.82588743658008" lon="8.594359411364152"><ele>33.0</ele><time>2026-04-30T07:49:23.001Z</time></trkpt><trkpt lat="40.82594950492718" lon="8.594397490179745"><ele>33.0</ele><time>2026-04-30T07:49:24.001Z</time></trkpt><trkpt lat="40.826009439411365" lon="8.594436014184355"><ele>33.0</ele><time>2026-04-30T07:49:25.001Z</time></trkpt><trkpt lat="40.82611475339568" lon="8.594504350770585"><ele>32.4</ele><time>2026-04-30T07:49:27.001Z</time></trkpt><trkpt lat="40.82624400868785" lon="8.59456962847942"><ele>31.799999999999997</ele><time>2026-04-30T07:49:29.001Z</time></trkpt><trkpt lat="40.826321497947006" lon="8.59460359178394"><ele>31.2</ele><time>2026-04-30T07:49:30.001Z</time></trkpt><trkpt lat="40.826399212307514" lon="8.594639596811128"><ele>30.6</ele><time>2026-04-30T07:49:31.001Z</time></trkpt><trkpt lat="40.82647705825897" lon="8.594677058033625"><ele>30.0</ele><time>2026-04-30T07:49:32.001Z</time></trkpt><trkpt lat="40.82655000701794" lon="8.594708724977817"><ele>30.0</ele><time>2026-04-30T07:49:33.001Z</time></trkpt><trkpt lat="40.826615983363205" lon="8.594745707940982"><ele>30.0</ele><time>2026-04-30T07:49:34.001Z</time></trkpt><trkpt lat="40.826687028042514" lon="8.5947854788511"><ele>30.0</ele><time>2026-04-30T07:49:35.001Z</time></trkpt><trkpt lat="40.82676150841769" lon="8.594822595336145"><ele>30.0</ele><time>2026-04-30T07:49:36.001Z</time></trkpt><trkpt lat="40.82682761509077" lon="8.594858306076063"><ele>30.0</ele><time>2026-04-30T07:49:37.001Z</time></trkpt><trkpt lat="40.826893802985296" lon="8.594891381536483"><ele>30.0</ele><time>2026-04-30T07:49:38.001Z</time></trkpt><trkpt lat="40.82695538941519" lon="8.594926061984388"><ele>30.0</ele><time>2026-04-30T07:49:39.001Z</time></trkpt><trkpt lat="40.827054269270526" lon="8.595009758655287"><ele>28.2</ele><time>2026-04-30T07:49:41.001Z</time></trkpt><trkpt lat="40.82710671421797" lon="8.595130540735688"><ele>26.4</ele><time>2026-04-30T07:49:43.001Z</time></trkpt><trkpt lat="40.82711385783596" lon="8.595217543928587"><ele>24.6</ele><time>2026-04-30T07:49:44.001Z</time></trkpt><trkpt lat="40.82707193452201" lon="8.595330248563007"><ele>22.8</ele><time>2026-04-30T07:49:45.001Z</time></trkpt><trkpt lat="40.8270527152681" lon="8.59546595345094"><ele>21.0</ele><time>2026-04-30T07:49:46.001Z</time></trkpt><trkpt lat="40.82702797927615" lon="8.59562219289878"><ele>19.8</ele><time>2026-04-30T07:49:47.001Z</time></trkpt><trkpt lat="40.82699973405761" lon="8.595760245058178"><ele>18.6</ele><time>2026-04-30T07:49:48.001Z</time></trkpt><trkpt lat="40.8269716618175" lon="8.595877953380798"><ele>17.4</ele><time>2026-04-30T07:49:49.001Z</time></trkpt><trkpt lat="40.82694255347065" lon="8.595988000208513"><ele>16.2</ele><time>2026-04-30T07:49:50.001Z</time></trkpt><trkpt lat="40.82690780285625" lon="8.596100218933701"><ele>15.0</ele><time>2026-04-30T07:49:51.001Z</time></trkpt><trkpt lat="40.8268639796054" lon="8.596208903516807"><ele>14.333333333333334</ele><time>2026-04-30T07:49:52.001Z</time></trkpt><trkpt lat="40.82684014732244" lon="8.596329825064117"><ele>13.666666666666666</ele><time>2026-04-30T07:49:53.001Z</time></trkpt><trkpt lat="40.826801737199844" lon="8.596430967650285"><ele>13.0</ele><time>2026-04-30T07:49:54.001Z</time></trkpt><trkpt lat="40.82677183798222" lon="8.59654578211849"><ele>12.333333333333332</ele><time>2026-04-30T07:49:55.001Z</time></trkpt><trkpt lat="40.82673294125456" lon="8.596649196883178"><ele>11.666666666666666</ele><time>2026-04-30T07:49:56.001Z</time></trkpt><trkpt lat="40.82671463096443" lon="8.59676024373604"><ele>11.0</ele><time>2026-04-30T07:49:57.001Z</time></trkpt><trkpt lat="40.82670259987486" lon="8.596889669805243"><ele>12.5</ele><time>2026-04-30T07:49:58.001Z</time></trkpt><trkpt lat="40.82669316510465" lon="8.596999210510848"><ele>14.0</ele><time>2026-04-30T07:49:59.001Z</time></trkpt><trkpt lat="40.82667819216663" lon="8.597107302211683"><ele>15.5</ele><time>2026-04-30T07:50:00.001Z</time></trkpt><trkpt lat="40.8266598498982" lon="8.597215189215722"><ele>17.0</ele><time>2026-04-30T07:50:01.001Z</time></trkpt><trkpt lat="40.82665014759002" lon="8.59731444821931"><ele>18.5</ele><time>2026-04-30T07:50:02.001Z</time></trkpt><trkpt lat="40.826621242766024" lon="8.597397482821938"><ele>20.0</ele><time>2026-04-30T07:50:03.001Z</time></trkpt><trkpt lat="40.82653268750516" lon="8.597496200857941"><ele>20.0</ele><time>2026-04-30T07:50:05.001Z</time></trkpt><trkpt lat="40.82644275874731" lon="8.597567597305604"><ele>20.0</ele><time>2026-04-30T07:50:07.001Z</time></trkpt><trkpt lat="40.826382035378714" lon="8.597609012993964"><ele>20.0</ele><time>2026-04-30T07:50:08.001Z</time></trkpt><trkpt lat="40.826312784616036" lon="8.597628349281221"><ele>20.0</ele><time>2026-04-30T07:50:09.001Z</time></trkpt><trkpt lat="40.82624428234691" lon="8.597651925087373"><ele>20.0</ele><time>2026-04-30T07:50:10.001Z</time></trkpt><trkpt lat="40.82616645586761" lon="8.597676762724252"><ele>20.0</ele><time>2026-04-30T07:50:11.001Z</time></trkpt><trkpt lat="40.82609342343797" lon="8.597704992281846"><ele>20.0</ele><time>2026-04-30T07:50:12.001Z</time></trkpt><trkpt lat="40.82598806438413" lon="8.597773201843598"><ele>20.0</ele><time>2026-04-30T07:50:14.001Z</time></trkpt><trkpt lat="40.825920027264075" lon="8.597854464220065"><ele>20.0</ele><time>2026-04-30T07:50:16.001Z</time></trkpt><trkpt lat="40.825886541897404" lon="8.597942993144411"><ele>20.0</ele><time>2026-04-30T07:50:18.001Z</time></trkpt><trkpt lat="40.82590686846887" lon="8.598049838047336"><ele>20.0</ele><time>2026-04-30T07:50:20.001Z</time></trkpt><trkpt lat="40.825943081316055" lon="8.598172934195931"><ele>19.0</ele><time>2026-04-30T07:50:22.001Z</time></trkpt><trkpt lat="40.82598520147954" lon="8.59830178916867"><ele>18.0</ele><time>2026-04-30T07:50:24.001Z</time></trkpt><trkpt lat="40.8260468650127" lon="8.598435948448074"><ele>17.0</ele><time>2026-04-30T07:50:26.001Z</time></trkpt><trkpt lat="40.826074416306014" lon="8.598511430637963"><ele>16.0</ele><time>2026-04-30T07:50:27.001Z</time></trkpt><trkpt lat="40.82612028240859" lon="8.598647415752545"><ele>15.0</ele><time>2026-04-30T07:50:29.001Z</time></trkpt><trkpt lat="40.82616818828966" lon="8.598788694236045"><ele>15.0</ele><time>2026-04-30T07:50:31.001Z</time></trkpt><trkpt lat="40.826219527618534" lon="8.598927250634468"><ele>15.0</ele><time>2026-04-30T07:50:33.001Z</time></trkpt><trkpt lat="40.82628405017555" lon="8.599067571498294"><ele>15.0</ele><time>2026-04-30T07:50:35.001Z</time></trkpt><trkpt lat="40.82632171815458" lon="8.599150804007955"><ele>15.0</ele><time>2026-04-30T07:50:36.001Z</time></trkpt><trkpt lat="40.82637292830483" lon="8.599239211053641"><ele>15.0</ele><time>2026-04-30T07:50:37.001Z</time></trkpt><trkpt lat="40.82641493641641" lon="8.599313728583212"><ele>15.0</ele><time>2026-04-30T07:50:38.001Z</time></trkpt><trkpt lat="40.82646434592042" lon="8.599401502603996"><ele>15.0</ele><time>2026-04-30T07:50:39.001Z</time></trkpt><trkpt lat="40.8265131788916" lon="8.599490794048345"><ele>15.0</ele><time>2026-04-30T07:50:40.001Z</time></trkpt><trkpt lat="40.82656433408564" lon="8.599584118208332"><ele>15.0</ele><time>2026-04-30T07:50:41.001Z</time></trkpt><trkpt lat="40.826616448077466" lon="8.599672350103555"><ele>15.0</ele><time>2026-04-30T07:50:42.001Z</time></trkpt><trkpt lat="40.82666405713629" lon="8.59975326774195"><ele>15.0</ele><time>2026-04-30T07:50:43.001Z</time></trkpt><trkpt lat="40.82670493327975" lon="8.599831424836664"><ele>15.0</ele><time>2026-04-30T07:50:44.001Z</time></trkpt><trkpt lat="40.82674320610757" lon="8.599900868396306"><ele>15.0</ele><time>2026-04-30T07:50:45.001Z</time></trkpt><trkpt lat="40.82681891950293" lon="8.600028223581207"><ele>15.0</ele><time>2026-04-30T07:50:47.001Z</time></trkpt><trkpt lat="40.826860968613325" lon="8.600148427296498"><ele>15.0</ele><time>2026-04-30T07:50:49.001Z</time></trkpt><trkpt lat="40.826877032240496" lon="8.600237398008803"><ele>15.0</ele><time>2026-04-30T07:50:51.001Z</time></trkpt><trkpt lat="40.8269025995006" lon="8.60037818117322"><ele>14.4</ele><time>2026-04-30T07:50:56.001Z</time></trkpt><trkpt lat="40.82706482038167" lon="8.600462438656772"><ele>13.8</ele><time>2026-04-30T07:50:58.001Z</time></trkpt><trkpt lat="40.82713417268458" lon="8.600551187004593"><ele>13.2</ele><time>2026-04-30T07:51:00.001Z</time></trkpt><trkpt lat="40.82719843989225" lon="8.600623308560854"><ele>12.6</ele><time>2026-04-30T07:51:02.001Z</time></trkpt><trkpt lat="40.82725010330649" lon="8.600695889733007"><ele>12.0</ele><time>2026-04-30T07:51:04.001Z</time></trkpt><trkpt lat="40.82731604107922" lon="8.600780613850707"><ele>11.999999999999998</ele><time>2026-04-30T07:51:07.001Z</time></trkpt><trkpt lat="40.82736576610172" lon="8.600832962975769"><ele>12.0</ele><time>2026-04-30T07:51:09.001Z</time></trkpt><trkpt lat="40.827421478603384" lon="8.600886136629422"><ele>12.0</ele><time>2026-04-30T07:51:11.001Z</time></trkpt><trkpt lat="40.82747656546645" lon="8.60094130164771"><ele>12.0</ele><time>2026-04-30T07:51:13.001Z</time></trkpt><trkpt lat="40.82752615911927" lon="8.600996325948978"><ele>12.0</ele><time>2026-04-30T07:51:15.001Z</time></trkpt><trkpt lat="40.827610946534776" lon="8.601037862310026"><ele>11.999999999999998</ele><time>2026-04-30T07:51:18.001Z</time></trkpt><trkpt lat="40.82769368027393" lon="8.601041057031631"><ele>12.0</ele><time>2026-04-30T07:51:21.001Z</time></trkpt><trkpt lat="40.82775946288558" lon="8.601049419739129"><ele>11.833333333333334</ele><time>2026-04-30T07:51:23.001Z</time></trkpt><trkpt lat="40.82783423608513" lon="8.601080603836694"><ele>11.666666666666666</ele><time>2026-04-30T07:51:25.001Z</time></trkpt><trkpt lat="40.82788476474788" lon="8.601134402199767"><ele>11.5</ele><time>2026-04-30T07:51:27.001Z</time></trkpt><trkpt lat="40.827939463384205" lon="8.601211495661135"><ele>11.333333333333332</ele><time>2026-04-30T07:51:37.001Z</time></trkpt><trkpt lat="40.82798582345373" lon="8.60128876400321"><ele>11.166666666666666</ele><time>2026-04-30T07:51:40.001Z</time></trkpt><trkpt lat="40.82800884137418" lon="8.601399717963723"><ele>11.0</ele><time>2026-04-30T07:51:43.001Z</time></trkpt><trkpt lat="40.82803819882276" lon="8.601488413950882"><ele>11.0</ele><time>2026-04-30T07:52:07.001Z</time></trkpt><trkpt lat="40.82808949462977" lon="8.60158464535868"><ele>11.0</ele><time>2026-04-30T07:52:11.001Z</time></trkpt><trkpt lat="40.82815862291193" lon="8.601621283977671"><ele>11.0</ele><time>2026-04-30T07:52:27.001Z</time></trkpt><trkpt lat="40.82822217677532" lon="8.601654429359158"><ele>11.0</ele><time>2026-04-30T07:52:29.001Z</time></trkpt><trkpt lat="40.82828165565797" lon="8.601624141275302"><ele>11.0</ele><time>2026-04-30T07:52:30.001Z</time></trkpt><trkpt lat="40.82833442318925" lon="8.6016997385985"><ele>11.0</ele><time>2026-04-30T07:52:32.001Z</time></trkpt><trkpt lat="40.82841203139298" lon="8.601725469029116"><ele>11.0</ele><time>2026-04-30T07:52:34.001Z</time></trkpt><trkpt lat="40.828507740692544" lon="8.601776616308943"><ele>11.0</ele><time>2026-04-30T07:52:36.001Z</time></trkpt><trkpt lat="40.8286278183729" lon="8.60184566047541"><ele>11.0</ele><time>2026-04-30T07:52:38.001Z</time></trkpt><trkpt lat="40.82869756584782" lon="8.6018868897423"><ele>11.0</ele><time>2026-04-30T07:52:39.001Z</time></trkpt><trkpt lat="40.82876575676869" lon="8.601926728695437"><ele>11.0</ele><time>2026-04-30T07:52:40.001Z</time></trkpt><trkpt lat="40.828833405144636" lon="8.601969441494877"><ele>11.666666666666666</ele><time>2026-04-30T07:52:41.001Z</time></trkpt><trkpt lat="40.828902350310884" lon="8.602020708135095"><ele>12.333333333333332</ele><time>2026-04-30T07:52:42.001Z</time></trkpt><trkpt lat="40.82897100671136" lon="8.602065844116465"><ele>13.0</ele><time>2026-04-30T07:52:43.001Z</time></trkpt><trkpt lat="40.82904148446398" lon="8.60210611197307"><ele>13.666666666666666</ele><time>2026-04-30T07:52:44.001Z</time></trkpt><trkpt lat="40.82911887697986" lon="8.602145054675292"><ele>14.333333333333334</ele><time>2026-04-30T07:52:45.001Z</time></trkpt><trkpt lat="40.82918330549216" lon="8.60220855920526"><ele>15.0</ele><time>2026-04-30T07:52:46.001Z</time></trkpt><trkpt lat="40.8292607680581" lon="8.602250575462827"><ele>16.666666666666668</ele><time>2026-04-30T07:52:47.001Z</time></trkpt><trkpt lat="40.82934259505386" lon="8.602270106800534"><ele>18.333333333333336</ele><time>2026-04-30T07:52:48.001Z</time></trkpt><trkpt lat="40.82941310240708" lon="8.602310444607577"><ele>20.0</ele><time>2026-04-30T07:52:49.001Z</time></trkpt><trkpt lat="40.829480137297196" lon="8.602349246104474"><ele>21.666666666666668</ele><time>2026-04-30T07:52:50.001Z</time></trkpt><trkpt lat="40.829542157655915" lon="8.602386330334435"><ele>23.333333333333336</ele><time>2026-04-30T07:52:51.001Z</time></trkpt><trkpt lat="40.82964653068755" lon="8.602453549177739"><ele>25.0</ele><time>2026-04-30T07:52:53.001Z</time></trkpt><trkpt lat="40.829729712693805" lon="8.602497398719981"><ele>25.0</ele><time>2026-04-30T07:52:55.001Z</time></trkpt><trkpt lat="40.829780055579384" lon="8.602554153046297"><ele>25.0</ele><time>2026-04-30T07:52:58.001Z</time></trkpt><trkpt lat="40.82982171698755" lon="8.60262074393236"><ele>25.0</ele><time>2026-04-30T07:53:12.001Z</time></trkpt><trkpt lat="40.82968806909201" lon="8.602719322542434"><ele>25.0</ele><time>2026-04-30T07:53:13.001Z</time></trkpt><trkpt lat="40.82965226873734" lon="8.60284267562189"><ele>25.0</ele><time>2026-04-30T07:53:14.001Z</time></trkpt><trkpt lat="40.82957368239274" lon="8.602945094915064"><ele>23.75</ele><time>2026-04-30T07:53:15.001Z</time></trkpt><trkpt lat="40.82948329860542" lon="8.60306651556347"><ele>22.5</ele><time>2026-04-30T07:53:16.001Z</time></trkpt><trkpt lat="40.829383927358904" lon="8.603192594243556"><ele>21.25</ele><time>2026-04-30T07:53:17.001Z</time></trkpt><trkpt lat="40.82926240475866" lon="8.603305251998492"><ele>20.0</ele><time>2026-04-30T07:53:18.001Z</time></trkpt><trkpt lat="40.82914813110988" lon="8.603446885252595"><ele>20.0</ele><time>2026-04-30T07:53:19.001Z</time></trkpt><trkpt lat="40.82902443789427" lon="8.60360019331422"><ele>20.0</ele><time>2026-04-30T07:53:20.001Z</time></trkpt><trkpt lat="40.828892588230794" lon="8.603764721588712"><ele>20.0</ele><time>2026-04-30T07:53:21.001Z</time></trkpt><trkpt lat="40.82875684754951" lon="8.603934385161446"><ele>19.0</ele><time>2026-04-30T07:53:22.001Z</time></trkpt><trkpt lat="40.82861703091507" lon="8.60411085271408"><ele>18.0</ele><time>2026-04-30T07:53:23.001Z</time></trkpt><trkpt lat="40.82847408397631" lon="8.604292502776461"><ele>17.0</ele><time>2026-04-30T07:53:24.001Z</time></trkpt><trkpt lat="40.82832950401212" lon="8.604478422767531"><ele>20.666666666666668</ele><time>2026-04-30T07:53:25.001Z</time></trkpt><trkpt lat="40.828182723002676" lon="8.604668865960896"><ele>24.333333333333336</ele><time>2026-04-30T07:53:26.001Z</time></trkpt><trkpt lat="40.82803322701515" lon="8.604867357379232"><ele>28.0</ele><time>2026-04-30T07:53:27.001Z</time></trkpt><trkpt lat="40.82788336395123" lon="8.605072282154463"><ele>28.0</ele><time>2026-04-30T07:53:28.001Z</time></trkpt><trkpt lat="40.82773565272847" lon="8.605284179337525"><ele>28.0</ele><time>2026-04-30T07:53:29.001Z</time></trkpt><trkpt lat="40.82759020445416" lon="8.605496648095887"><ele>28.0</ele><time>2026-04-30T07:53:30.001Z</time></trkpt><trkpt lat="40.82744596215631" lon="8.605704369837685"><ele>27.333333333333336</ele><time>2026-04-30T07:53:31.001Z</time></trkpt><trkpt lat="40.827301266035604" lon="8.605916101926983"><ele>26.666666666666664</ele><time>2026-04-30T07:53:32.001Z</time></trkpt><trkpt lat="40.82716049329312" lon="8.606131271074332"><ele>26.0</ele><time>2026-04-30T07:53:33.001Z</time></trkpt><trkpt lat="40.827023545876685" lon="8.606348854501626"><ele>24.333333333333332</ele><time>2026-04-30T07:53:34.001Z</time></trkpt><trkpt lat="40.82688699509672" lon="8.606567171379833"><ele>22.666666666666664</ele><time>2026-04-30T07:53:35.001Z</time></trkpt><trkpt lat="40.826752281245724" lon="8.606783851826247"><ele>21.0</ele><time>2026-04-30T07:53:36.001Z</time></trkpt><trkpt lat="40.826621466401825" lon="8.6069972104094"><ele>25.666666666666664</ele><time>2026-04-30T07:53:37.001Z</time></trkpt><trkpt lat="40.82649080411738" lon="8.607210320086478"><ele>30.333333333333332</ele><time>2026-04-30T07:53:38.001Z</time></trkpt><trkpt lat="40.82637251394523" lon="8.607435850400359"><ele>35.0</ele><time>2026-04-30T07:53:39.001Z</time></trkpt><trkpt lat="40.82624290118674" lon="8.607644844986025"><ele>32.33333333333333</ele><time>2026-04-30T07:53:40.001Z</time></trkpt><trkpt lat="40.82611533137359" lon="8.60785014195957"><ele>29.666666666666664</ele><time>2026-04-30T07:53:41.001Z</time></trkpt><trkpt lat="40.82597724200013" lon="8.608040233891135"><ele>27.0</ele><time>2026-04-30T07:53:42.001Z</time></trkpt><trkpt lat="40.82586469316206" lon="8.608255010984621"><ele>27.0</ele><time>2026-04-30T07:53:43.001Z</time></trkpt><trkpt lat="40.82572863521068" lon="8.608442812654966"><ele>27.0</ele><time>2026-04-30T07:53:44Z</time></trkpt><trkpt lat="40.82560659216742" lon="8.60864171226097"><ele>27.0</ele><time>2026-04-30T07:53:45Z</time></trkpt><trkpt lat="40.82548415460173" lon="8.608840161487578"><ele>24.333333333333332</ele><time>2026-04-30T07:53:46Z</time></trkpt><trkpt lat="40.825374188746785" lon="8.609052242509447"><ele>21.666666666666664</ele><time>2026-04-30T07:53:47Z</time></trkpt><trkpt lat="40.82524823763564" lon="8.609252836373349"><ele>19.0</ele><time>2026-04-30T07:53:48Z</time></trkpt><trkpt lat="40.82510884368863" lon="8.609440147149309"><ele>23.0</ele><time>2026-04-30T07:53:49Z</time></trkpt><trkpt lat="40.82498053467627" lon="8.609643469385615"><ele>27.0</ele><time>2026-04-30T07:53:50Z</time></trkpt><trkpt lat="40.82484963938536" lon="8.609848911833378"><ele>31.0</ele><time>2026-04-30T07:53:51Z</time></trkpt><trkpt lat="40.824716798443696" lon="8.61005295072671"><ele>31.0</ele><time>2026-04-30T07:53:52Z</time></trkpt><trkpt lat="40.824582902930416" lon="8.610250467903281"><ele>31.0</ele><time>2026-04-30T07:53:53Z</time></trkpt><trkpt lat="40.824438670615876" lon="8.610450674034741"><ele>31.0</ele><time>2026-04-30T07:53:54Z</time></trkpt><trkpt lat="40.8242924299208" lon="8.61063920109766"><ele>30.0</ele><time>2026-04-30T07:53:55Z</time></trkpt><trkpt lat="40.82414323130231" lon="8.610819796046695"><ele>29.0</ele><time>2026-04-30T07:53:56Z</time></trkpt><trkpt lat="40.82399317310089" lon="8.610994981952485"><ele>28.0</ele><time>2026-04-30T07:53:57Z</time></trkpt><trkpt lat="40.82384483270498" lon="8.611163021780285"><ele>26.666666666666668</ele><time>2026-04-30T07:53:58Z</time></trkpt><trkpt lat="40.82369248352513" lon="8.61133324492888"><ele>25.333333333333336</ele><time>2026-04-30T07:53:59Z</time></trkpt><trkpt lat="40.823539257713975" lon="8.611504447590713"><ele>24.0</ele><time>2026-04-30T07:54:00.001Z</time></trkpt><trkpt lat="40.823383610386855" lon="8.611673097302512"><ele>24.0</ele><time>2026-04-30T07:54:01.001Z</time></trkpt><trkpt lat="40.82322401045721" lon="8.611843517671229"><ele>24.0</ele><time>2026-04-30T07:54:02.001Z</time></trkpt><trkpt lat="40.823062968051545" lon="8.612013768378684"><ele>24.0</ele><time>2026-04-30T07:54:03.001Z</time></trkpt><trkpt lat="40.82290480490628" lon="8.612179714832223"><ele>25.333333333333336</ele><time>2026-04-30T07:54:04.001Z</time></trkpt><trkpt lat="40.82274568449071" lon="8.612345721817828"><ele>26.666666666666668</ele><time>2026-04-30T07:54:05.001Z</time></trkpt><trkpt lat="40.82258518672982" lon="8.61250414159639"><ele>28.0</ele><time>2026-04-30T07:54:06.001Z</time></trkpt><trkpt lat="40.82242613954176" lon="8.612667490222124"><ele>28.0</ele><time>2026-04-30T07:54:07.001Z</time></trkpt><trkpt lat="40.82224406686523" lon="8.612772037592089"><ele>28.0</ele><time>2026-04-30T07:54:08.001Z</time></trkpt><trkpt lat="40.82206057491045" lon="8.612878813200837"><ele>28.0</ele><time>2026-04-30T07:54:09.001Z</time></trkpt><trkpt lat="40.821874426020884" lon="8.61298433454806"><ele>29.666666666666668</ele><time>2026-04-30T07:54:10.001Z</time></trkpt><trkpt lat="40.821687055833046" lon="8.613085694559834"><ele>31.333333333333336</ele><time>2026-04-30T07:54:11.001Z</time></trkpt><trkpt lat="40.82150585813747" lon="8.613181919026976"><ele>33.0</ele><time>2026-04-30T07:54:12.001Z</time></trkpt><trkpt lat="40.8213307589348" lon="8.613275166415058"><ele>33.0</ele><time>2026-04-30T07:54:13.001Z</time></trkpt><trkpt lat="40.8211612636739" lon="8.613369499428053"><ele>33.0</ele><time>2026-04-30T07:54:14.001Z</time></trkpt><trkpt lat="40.82099969202875" lon="8.61347708528059"><ele>33.0</ele><time>2026-04-30T07:54:15.001Z</time></trkpt><trkpt lat="40.82084380747281" lon="8.613596066029874"><ele>35.666666666666664</ele><time>2026-04-30T07:54:16.001Z</time></trkpt><trkpt lat="40.820689767070235" lon="8.613726660290073"><ele>38.33333333333333</ele><time>2026-04-30T07:54:17.001Z</time></trkpt><trkpt lat="40.82054199754212" lon="8.613872990827625"><ele>41.0</ele><time>2026-04-30T07:54:18.001Z</time></trkpt><trkpt lat="40.820390205254284" lon="8.614024134587945"><ele>41.0</ele><time>2026-04-30T07:54:19.001Z</time></trkpt><trkpt lat="40.82024175189486" lon="8.614177502867816"><ele>41.0</ele><time>2026-04-30T07:54:20.001Z</time></trkpt><trkpt lat="40.82010503263678" lon="8.614326113681164"><ele>41.0</ele><time>2026-04-30T07:54:21.001Z</time></trkpt><trkpt lat="40.819981406607994" lon="8.614481963621975"><ele>39.666666666666664</ele><time>2026-04-30T07:54:22.001Z</time></trkpt><trkpt lat="40.81987039748986" lon="8.614662437305615"><ele>38.333333333333336</ele><time>2026-04-30T07:54:23.001Z</time></trkpt><trkpt lat="40.81979710469447" lon="8.61487282028935"><ele>37.0</ele><time>2026-04-30T07:54:24.001Z</time></trkpt><trkpt lat="40.8196967103979" lon="8.615075638303102"><ele>37.0</ele><time>2026-04-30T07:54:25.001Z</time></trkpt><trkpt lat="40.819620372860655" lon="8.61527349188845"><ele>37.0</ele><time>2026-04-30T07:54:26.001Z</time></trkpt><trkpt lat="40.8195872712681" lon="8.61548730543554"><ele>37.0</ele><time>2026-04-30T07:54:27.001Z</time></trkpt><trkpt lat="40.81953388098547" lon="8.615647930504062"><ele>37.5</ele><time>2026-04-30T07:54:28.001Z</time></trkpt><trkpt lat="40.819491347579934" lon="8.615775020448027"><ele>38.0</ele><time>2026-04-30T07:54:29.001Z</time></trkpt><trkpt lat="40.81945742683393" lon="8.615872987485007"><ele>38.5</ele><time>2026-04-30T07:54:30.001Z</time></trkpt><trkpt lat="40.819424118300674" lon="8.615970482280503"><ele>39.0</ele><time>2026-04-30T07:54:31.001Z</time></trkpt><trkpt lat="40.81925469586205" lon="8.616291972850586"><ele>39.0</ele><time>2026-04-30T07:54:32.001Z</time></trkpt><trkpt lat="40.81921560559292" lon="8.61640636213728"><ele>39.0</ele><time>2026-04-30T07:54:33.001Z</time></trkpt><trkpt lat="40.81917445073951" lon="8.616526854673673"><ele>39.0</ele><time>2026-04-30T07:54:34.001Z</time></trkpt><trkpt lat="40.81912826474264" lon="8.616649365916334"><ele>39.0</ele><time>2026-04-30T07:54:35.001Z</time></trkpt><trkpt lat="40.819070330210415" lon="8.61677869095507"><ele>39.0</ele><time>2026-04-30T07:54:36.001Z</time></trkpt><trkpt lat="40.819021143480605" lon="8.616916052737038"><ele>39.5</ele><time>2026-04-30T07:54:37.001Z</time></trkpt><trkpt lat="40.81897068587572" lon="8.617056286476767"><ele>40.0</ele><time>2026-04-30T07:54:38.001Z</time></trkpt><trkpt lat="40.818913875385526" lon="8.617223642687613"><ele>40.5</ele><time>2026-04-30T07:54:39.001Z</time></trkpt><trkpt lat="40.81884819129499" lon="8.617407924796556"><ele>41.0</ele><time>2026-04-30T07:54:40.001Z</time></trkpt><trkpt lat="40.818784341879855" lon="8.617608614341876"><ele>41.0</ele><time>2026-04-30T07:54:41.001Z</time></trkpt><trkpt lat="40.81869727690112" lon="8.61780430726781"><ele>41.0</ele><time>2026-04-30T07:54:42.001Z</time></trkpt><trkpt lat="40.81862074271262" lon="8.618014934045855"><ele>41.0</ele><time>2026-04-30T07:54:43.001Z</time></trkpt><trkpt lat="40.81854084552578" lon="8.618232621234098"><ele>41.0</ele><time>2026-04-30T07:54:44.001Z</time></trkpt><trkpt lat="40.81846254868581" lon="8.618445531202223"><ele>41.0</ele><time>2026-04-30T07:54:45.001Z</time></trkpt><trkpt lat="40.81838750433934" lon="8.618648887703097"><ele>41.0</ele><time>2026-04-30T07:54:46.001Z</time></trkpt><trkpt lat="40.81831585354255" lon="8.61884187297663"><ele>41.0</ele><time>2026-04-30T07:54:47.001Z</time></trkpt><trkpt lat="40.81824441723746" lon="8.619034280510766"><ele>41.0</ele><time>2026-04-30T07:54:48.001Z</time></trkpt><trkpt lat="40.818173739441136" lon="8.619224645029524"><ele>41.0</ele><time>2026-04-30T07:54:49.001Z</time></trkpt><trkpt lat="40.818100531576285" lon="8.61942182395158"><ele>42.0</ele><time>2026-04-30T07:54:50.001Z</time></trkpt><trkpt lat="40.81802729320203" lon="8.619622787561884"><ele>43.0</ele><time>2026-04-30T07:54:51.001Z</time></trkpt><trkpt lat="40.817949620609305" lon="8.61983268869039"><ele>44.0</ele><time>2026-04-30T07:54:52.001Z</time></trkpt><trkpt lat="40.81786614711006" lon="8.620055464389601"><ele>44.0</ele><time>2026-04-30T07:54:53.001Z</time></trkpt><trkpt lat="40.817783726805466" lon="8.620283720207208"><ele>44.0</ele><time>2026-04-30T07:54:54.001Z</time></trkpt><trkpt lat="40.8177075389486" lon="8.620547224694336"><ele>44.0</ele><time>2026-04-30T07:54:55.001Z</time></trkpt><trkpt lat="40.81764082609935" lon="8.620784583009055"><ele>42.666666666666664</ele><time>2026-04-30T07:54:56.001Z</time></trkpt><trkpt lat="40.817581131774695" lon="8.621024658058142"><ele>41.333333333333336</ele><time>2026-04-30T07:54:57.001Z</time></trkpt><trkpt lat="40.81753297398268" lon="8.621284321312833"><ele>40.0</ele><time>2026-04-30T07:54:58.001Z</time></trkpt><trkpt lat="40.81746631940343" lon="8.621550942735524"><ele>40.0</ele><time>2026-04-30T07:54:59.001Z</time></trkpt><trkpt lat="40.81740837230296" lon="8.621834693156577"><ele>40.0</ele><time>2026-04-30T07:55:00.001Z</time></trkpt><trkpt lat="40.81735214247264" lon="8.622110994887333"><ele>40.0</ele><time>2026-04-30T07:55:01.001Z</time></trkpt><trkpt lat="40.817301175568815" lon="8.622370692427955"><ele>41.333333333333336</ele><time>2026-04-30T07:55:02.001Z</time></trkpt><trkpt lat="40.817256256219636" lon="8.62262495687351"><ele>42.666666666666664</ele><time>2026-04-30T07:55:03.001Z</time></trkpt><trkpt lat="40.81721751120508" lon="8.622875188869527"><ele>44.0</ele><time>2026-04-30T07:55:04.001Z</time></trkpt><trkpt lat="40.817180149269255" lon="8.623125716629557"><ele>45.0</ele><time>2026-04-30T07:55:05.001Z</time></trkpt><trkpt lat="40.817143564847186" lon="8.623375217612589"><ele>46.0</ele><time>2026-04-30T07:55:06.001Z</time></trkpt><trkpt lat="40.817105125810265" lon="8.623625253142626"><ele>47.0</ele><time>2026-04-30T07:55:07.001Z</time></trkpt><trkpt lat="40.81706663355742" lon="8.62387011743791"><ele>47.0</ele><time>2026-04-30T07:55:08.001Z</time></trkpt><trkpt lat="40.81703109344039" lon="8.624110269992784"><ele>47.0</ele><time>2026-04-30T07:55:09.001Z</time></trkpt><trkpt lat="40.81699567473809" lon="8.624349778837825"><ele>47.0</ele><time>2026-04-30T07:55:10.001Z</time></trkpt><trkpt lat="40.81697593661878" lon="8.624586500884039"><ele>48.33333333333333</ele><time>2026-04-30T07:55:11.001Z</time></trkpt><trkpt lat="40.81694270074626" lon="8.624813672342999"><ele>49.666666666666664</ele><time>2026-04-30T07:55:12.001Z</time></trkpt><trkpt lat="40.816911122216666" lon="8.625029396306527"><ele>51.0</ele><time>2026-04-30T07:55:13.001Z</time></trkpt><trkpt lat="40.816886748127615" lon="8.625239493659858"><ele>52.25</ele><time>2026-04-30T07:55:14.001Z</time></trkpt><trkpt lat="40.816869093396164" lon="8.62543141831787"><ele>53.5</ele><time>2026-04-30T07:55:15.001Z</time></trkpt><trkpt lat="40.81686230068386" lon="8.62562105381254"><ele>54.75</ele><time>2026-04-30T07:55:16.001Z</time></trkpt><trkpt lat="40.81686167236487" lon="8.62579416681378"><ele>56.0</ele><time>2026-04-30T07:55:17.001Z</time></trkpt><trkpt lat="40.81686263327174" lon="8.625953270464608"><ele>56.00000000000001</ele><time>2026-04-30T07:55:18.001Z</time></trkpt><trkpt lat="40.816863659654054" lon="8.626104396618674"><ele>56.0</ele><time>2026-04-30T07:55:19.001Z</time></trkpt><trkpt lat="40.816858901428596" lon="8.626242773326938"><ele>56.0</ele><time>2026-04-30T07:55:20.001Z</time></trkpt><trkpt lat="40.81685607255202" lon="8.626355410700516"><ele>56.0</ele><time>2026-04-30T07:55:21.001Z</time></trkpt><trkpt lat="40.81685734563083" lon="8.626450771045672"><ele>56.00000000000001</ele><time>2026-04-30T07:55:22.001Z</time></trkpt><trkpt lat="40.81684707921208" lon="8.626541258724044"><ele>56.0</ele><time>2026-04-30T07:55:23.001Z</time></trkpt><trkpt lat="40.8168162117239" lon="8.62664943124551"><ele>54.599999999999994</ele><time>2026-04-30T07:55:25Z</time></trkpt><trkpt lat="40.8167785971291" lon="8.626739960488315"><ele>53.199999999999996</ele><time>2026-04-30T07:56:09Z</time></trkpt><trkpt lat="40.81680253422238" lon="8.626819710397376"><ele>51.8</ele><time>2026-04-30T07:56:12Z</time></trkpt><trkpt lat="40.8169177297985" lon="8.626901246327938"><ele>50.400000000000006</ele><time>2026-04-30T07:56:14Z</time></trkpt><trkpt lat="40.81700357391744" lon="8.626927368802761"><ele>49.0</ele><time>2026-04-30T07:56:15Z</time></trkpt><trkpt lat="40.817106511555615" lon="8.62696392890634"><ele>50.75</ele><time>2026-04-30T07:56:16Z</time></trkpt><trkpt lat="40.81721798415335" lon="8.627000233103068"><ele>52.5</ele><time>2026-04-30T07:56:17Z</time></trkpt><trkpt lat="40.817338975737314" lon="8.627045507557725"><ele>54.25</ele><time>2026-04-30T07:56:18Z</time></trkpt><trkpt lat="40.81746373025158" lon="8.627097860914036"><ele>56.0</ele><time>2026-04-30T07:56:19Z</time></trkpt><trkpt lat="40.81759933914169" lon="8.627154886474543"><ele>55.5</ele><time>2026-04-30T07:56:20Z</time></trkpt><trkpt lat="40.817743335514024" lon="8.627206234901966"><ele>55.0</ele><time>2026-04-30T07:56:21Z</time></trkpt><trkpt lat="40.81788864980178" lon="8.627252754325655"><ele>54.5</ele><time>2026-04-30T07:56:22Z</time></trkpt><trkpt lat="40.81802621641593" lon="8.627296768269686"><ele>54.0</ele><time>2026-04-30T07:56:23Z</time></trkpt><trkpt lat="40.818147266364775" lon="8.627351397923519"><ele>54.0</ele><time>2026-04-30T07:56:24Z</time></trkpt><trkpt lat="40.818256893277514" lon="8.627414269213398"><ele>54.0</ele><time>2026-04-30T07:56:25Z</time></trkpt><trkpt lat="40.81835185146136" lon="8.627503127265339"><ele>54.0</ele><time>2026-04-30T07:56:26Z</time></trkpt><trkpt lat="40.81843282736871" lon="8.627643434527666"><ele>54.0</ele><time>2026-04-30T07:56:27Z</time></trkpt><trkpt lat="40.81851291421312" lon="8.627791288005511"><ele>55.66666666666667</ele><time>2026-04-30T07:56:28Z</time></trkpt><trkpt lat="40.818600622271255" lon="8.62796788785071"><ele>57.333333333333336</ele><time>2026-04-30T07:56:29Z</time></trkpt><trkpt lat="40.81870529997392" lon="8.62814943261425"><ele>59.0</ele><time>2026-04-30T07:56:30Z</time></trkpt><trkpt lat="40.81883410931309" lon="8.628322842850904"><ele>59.0</ele><time>2026-04-30T07:56:31Z</time></trkpt><trkpt lat="40.81898379585292" lon="8.628483019805573"><ele>59.0</ele><time>2026-04-30T07:56:32Z</time></trkpt><trkpt lat="40.81914489711671" lon="8.628632575211874"><ele>59.0</ele><time>2026-04-30T07:56:33Z</time></trkpt><trkpt lat="40.81930865273057" lon="8.628795514074746"><ele>62.66666666666667</ele><time>2026-04-30T07:56:34Z</time></trkpt><trkpt lat="40.819473088549074" lon="8.628959503113403"><ele>66.33333333333333</ele><time>2026-04-30T07:56:35Z</time></trkpt><trkpt lat="40.81963600768473" lon="8.629134282835567"><ele>70.0</ele><time>2026-04-30T07:56:36Z</time></trkpt><trkpt lat="40.81980122504873" lon="8.629299928431882"><ele>70.0</ele><time>2026-04-30T07:56:37Z</time></trkpt><trkpt lat="40.819966533250906" lon="8.629464675686636"><ele>70.0</ele><time>2026-04-30T07:56:38Z</time></trkpt><trkpt lat="40.82012860256997" lon="8.62961955710235"><ele>70.0</ele><time>2026-04-30T07:56:39Z</time></trkpt><trkpt lat="40.82030073187965" lon="8.629777829963777"><ele>72.66666666666666</ele><time>2026-04-30T07:56:40Z</time></trkpt><trkpt lat="40.820486338172834" lon="8.629935847605163"><ele>75.33333333333333</ele><time>2026-04-30T07:56:41Z</time></trkpt><trkpt lat="40.82067946808638" lon="8.630088665426447"><ele>78.0</ele><time>2026-04-30T07:56:42Z</time></trkpt><trkpt lat="40.82088023129648" lon="8.630244001766918"><ele>81.5</ele><time>2026-04-30T07:56:43Z</time></trkpt><trkpt lat="40.82108742687305" lon="8.630400447786474"><ele>85.0</ele><time>2026-04-30T07:56:44Z</time></trkpt><trkpt lat="40.821292794162815" lon="8.630568703732038"><ele>85.0</ele><time>2026-04-30T07:56:45Z</time></trkpt><trkpt lat="40.82149022321006" lon="8.630740978493481"><ele>85.0</ele><time>2026-04-30T07:56:46Z</time></trkpt><trkpt lat="40.8216804606712" lon="8.630922016887267"><ele>87.0</ele><time>2026-04-30T07:56:47Z</time></trkpt><trkpt lat="40.821856546584506" lon="8.631097011988102"><ele>89.0</ele><time>2026-04-30T07:56:48Z</time></trkpt><trkpt lat="40.82202856816778" lon="8.631259494425988"><ele>91.0</ele><time>2026-04-30T07:56:49Z</time></trkpt><trkpt lat="40.822197121492984" lon="8.631419741059032"><ele>91.0</ele><time>2026-04-30T07:56:50Z</time></trkpt><trkpt lat="40.82236517740384" lon="8.631571614120116"><ele>91.0</ele><time>2026-04-30T07:56:51Z</time></trkpt><trkpt lat="40.82253542278275" lon="8.631711380239345"><ele>91.0</ele><time>2026-04-30T07:56:52Z</time></trkpt><trkpt lat="40.82271901847914" lon="8.631840069176937"><ele>93.0</ele><time>2026-04-30T07:56:53.001Z</time></trkpt><trkpt lat="40.822908577437126" lon="8.6319637938043"><ele>95.0</ele><time>2026-04-30T07:56:54.001Z</time></trkpt><trkpt lat="40.8230868190886" lon="8.632069571160832"><ele>97.0</ele><time>2026-04-30T07:56:55.001Z</time></trkpt><trkpt lat="40.82325527848161" lon="8.632172223276044"><ele>97.0</ele><time>2026-04-30T07:56:56.001Z</time></trkpt><trkpt lat="40.82341891615537" lon="8.632277295071152"><ele>97.0</ele><time>2026-04-30T07:56:57.001Z</time></trkpt><trkpt lat="40.82357470816394" lon="8.632391590722417"><ele>97.0</ele><time>2026-04-30T07:56:58.001Z</time></trkpt><trkpt lat="40.8237138156229" lon="8.632529490924467"><ele>99.33333333333334</ele><time>2026-04-30T07:56:59.001Z</time></trkpt><trkpt lat="40.82383422525067" lon="8.632690571067219"><ele>101.66666666666666</ele><time>2026-04-30T07:57:00.001Z</time></trkpt><trkpt lat="40.82395872205257" lon="8.63287851853903"><ele>104.0</ele><time>2026-04-30T07:57:01.001Z</time></trkpt><trkpt lat="40.824080020047525" lon="8.63309877088166"><ele>104.0</ele><time>2026-04-30T07:57:02.001Z</time></trkpt><trkpt lat="40.82420388260636" lon="8.633319784818465"><ele>104.0</ele><time>2026-04-30T07:57:03.001Z</time></trkpt><trkpt lat="40.82433318928463" lon="8.633536953017588"><ele>104.0</ele><time>2026-04-30T07:57:04.001Z</time></trkpt><trkpt lat="40.824461734356035" lon="8.633762631147558"><ele>106.0</ele><time>2026-04-30T07:57:05.001Z</time></trkpt><trkpt lat="40.82459144674004" lon="8.633988697985735"><ele>108.0</ele><time>2026-04-30T07:57:06.001Z</time></trkpt><trkpt lat="40.82471771258758" lon="8.634224300531166"><ele>110.0</ele><time>2026-04-30T07:57:07.001Z</time></trkpt><trkpt lat="40.82485457720242" lon="8.634442569863317"><ele>111.0</ele><time>2026-04-30T07:57:08.001Z</time></trkpt><trkpt lat="40.82498760572596" lon="8.634667934320507"><ele>112.0</ele><time>2026-04-30T07:57:09.001Z</time></trkpt><trkpt lat="40.82511865949764" lon="8.634890979840998"><ele>113.0</ele><time>2026-04-30T07:57:10.001Z</time></trkpt><trkpt lat="40.82525164445312" lon="8.635106044004237"><ele>116.33333333333333</ele><time>2026-04-30T07:57:11.001Z</time></trkpt><trkpt lat="40.82538387987697" lon="8.635321545312378"><ele>119.66666666666666</ele><time>2026-04-30T07:57:12.001Z</time></trkpt><trkpt lat="40.82551155104756" lon="8.635533321896453"><ele>123.0</ele><time>2026-04-30T07:57:13.001Z</time></trkpt><trkpt lat="40.825638448369965" lon="8.635741689380094"><ele>123.0</ele><time>2026-04-30T07:57:14.001Z</time></trkpt><trkpt lat="40.82575815417908" lon="8.635941173668154"><ele>123.0</ele><time>2026-04-30T07:57:15.001Z</time></trkpt><trkpt lat="40.825873662530256" lon="8.636137079539337"><ele>123.0</ele><time>2026-04-30T07:57:16.001Z</time></trkpt><trkpt lat="40.82598539945573" lon="8.636325444418192"><ele>125.0</ele><time>2026-04-30T07:57:17.001Z</time></trkpt><trkpt lat="40.826094364438845" lon="8.636503935591719"><ele>127.0</ele><time>2026-04-30T07:57:18.001Z</time></trkpt><trkpt lat="40.82620332557443" lon="8.636669631895282"><ele>129.0</ele><time>2026-04-30T07:57:19.001Z</time></trkpt><trkpt lat="40.82632177267705" lon="8.636825050352677"><ele>129.0</ele><time>2026-04-30T07:57:20.001Z</time></trkpt><trkpt lat="40.8264494079946" lon="8.636959434073054"><ele>129.0</ele><time>2026-04-30T07:57:21.001Z</time></trkpt><trkpt lat="40.826579842077656" lon="8.63707753436165"><ele>129.0</ele><time>2026-04-30T07:57:22.001Z</time></trkpt><trkpt lat="40.82671078856618" lon="8.637185282891789"><ele>131.33333333333334</ele><time>2026-04-30T07:57:23.001Z</time></trkpt><trkpt lat="40.8268410275535" lon="8.637290304559876"><ele>133.66666666666669</ele><time>2026-04-30T07:57:24.001Z</time></trkpt><trkpt lat="40.82696842947938" lon="8.637393026616673"><ele>136.0</ele><time>2026-04-30T07:57:25.001Z</time></trkpt><trkpt lat="40.82709291222402" lon="8.637498372561899"><ele>136.0</ele><time>2026-04-30T07:57:26.001Z</time></trkpt><trkpt lat="40.8272159284189" lon="8.63760210876215"><ele>136.0</ele><time>2026-04-30T07:57:27.001Z</time></trkpt><trkpt lat="40.82734100960475" lon="8.63769919783404"><ele>136.0</ele><time>2026-04-30T07:57:28.001Z</time></trkpt><trkpt lat="40.8274595530452" lon="8.63778395904053"><ele>136.0</ele><time>2026-04-30T07:57:29.001Z</time></trkpt><trkpt lat="40.827569884753096" lon="8.637851917947893"><ele>137.2</ele><time>2026-04-30T07:57:30.001Z</time></trkpt><trkpt lat="40.82767953116864" lon="8.637895750635272"><ele>138.39999999999998</ele><time>2026-04-30T07:57:31.001Z</time></trkpt><trkpt lat="40.82778483745795" lon="8.637914810916898"><ele>139.6</ele><time>2026-04-30T07:57:32.001Z</time></trkpt><trkpt lat="40.827894429058425" lon="8.63791874436499"><ele>140.79999999999998</ele><time>2026-04-30T07:57:33.001Z</time></trkpt><trkpt lat="40.828004096653224" lon="8.637922398440033"><ele>142.0</ele><time>2026-04-30T07:57:34.001Z</time></trkpt><trkpt lat="40.828102216296855" lon="8.63793097686666"><ele>142.0</ele><time>2026-04-30T07:57:35.001Z</time></trkpt><trkpt lat="40.82819226293625" lon="8.637939040026419"><ele>142.0</ele><time>2026-04-30T07:57:36.001Z</time></trkpt><trkpt lat="40.82828373856412" lon="8.637945737617198"><ele>142.0</ele><time>2026-04-30T07:57:37.001Z</time></trkpt><trkpt lat="40.82837481040985" lon="8.637952192490985"><ele>142.0</ele><time>2026-04-30T07:57:38.001Z</time></trkpt><trkpt lat="40.82846557156191" lon="8.637957415787765"><ele>142.0</ele><time>2026-04-30T07:57:39.001Z</time></trkpt><trkpt lat="40.82856330470122" lon="8.637964689099823"><ele>142.75</ele><time>2026-04-30T07:57:40Z</time></trkpt><trkpt lat="40.82867175390179" lon="8.637972088220227"><ele>143.5</ele><time>2026-04-30T07:57:41Z</time></trkpt><trkpt lat="40.82878217699816" lon="8.637980230542466"><ele>144.25</ele><time>2026-04-30T07:57:42Z</time></trkpt><trkpt lat="40.828901592802524" lon="8.637989247121135"><ele>145.0</ele><time>2026-04-30T07:57:43Z</time></trkpt><trkpt lat="40.829027982667576" lon="8.637997488913964"><ele>145.0</ele><time>2026-04-30T07:57:44Z</time></trkpt><trkpt lat="40.82916356781906" lon="8.638006166520139"><ele>145.0</ele><time>2026-04-30T07:57:45Z</time></trkpt><trkpt lat="40.829308035016254" lon="8.638019963610592"><ele>145.0</ele><time>2026-04-30T07:57:46Z</time></trkpt><trkpt lat="40.8294582511879" lon="8.6380496595107"><ele>145.0</ele><time>2026-04-30T07:57:47Z</time></trkpt><trkpt lat="40.82960948305047" lon="8.638104963882597"><ele>147.66666666666669</ele><time>2026-04-30T07:57:48Z</time></trkpt><trkpt lat="40.829761539782744" lon="8.63819238017289"><ele>150.33333333333334</ele><time>2026-04-30T07:57:49Z</time></trkpt><trkpt lat="40.82992365787258" lon="8.638313803436777"><ele>153.0</ele><time>2026-04-30T07:57:50Z</time></trkpt><trkpt lat="40.83009387097224" lon="8.638458221114588"><ele>154.66666666666666</ele><time>2026-04-30T07:57:51Z</time></trkpt><trkpt lat="40.83027505718099" lon="8.638611008822075"><ele>156.33333333333331</ele><time>2026-04-30T07:57:52Z</time></trkpt><trkpt lat="40.830457651491116" lon="8.638762548435476"><ele>158.0</ele><time>2026-04-30T07:57:53Z</time></trkpt><trkpt lat="40.83064621527149" lon="8.638926737295243"><ele>158.0</ele><time>2026-04-30T07:57:54Z</time></trkpt><trkpt lat="40.830752438058056" lon="8.639055027752057"><ele>158.0</ele><time>2026-04-30T07:57:55Z</time></trkpt><trkpt lat="40.83087485168279" lon="8.639251377092302"><ele>158.0</ele><time>2026-04-30T07:57:56Z</time></trkpt><trkpt lat="40.83099096721025" lon="8.639443472863803"><ele>160.0</ele><time>2026-04-30T07:57:57Z</time></trkpt><trkpt lat="40.83109276411783" lon="8.639639895100855"><ele>162.0</ele><time>2026-04-30T07:57:58Z</time></trkpt><trkpt lat="40.83117975166775" lon="8.639835538819602"><ele>164.0</ele><time>2026-04-30T07:57:59Z</time></trkpt><trkpt lat="40.83126256868703" lon="8.640043608190034"><ele>164.0</ele><time>2026-04-30T07:58:00Z</time></trkpt><trkpt lat="40.83133062254033" lon="8.640256916927353"><ele>164.0</ele><time>2026-04-30T07:58:01Z</time></trkpt><trkpt lat="40.83139055378777" lon="8.640484092574386"><ele>164.0</ele><time>2026-04-30T07:58:02Z</time></trkpt><trkpt lat="40.83143289841356" lon="8.640717285245717"><ele>164.66666666666666</ele><time>2026-04-30T07:58:03Z</time></trkpt><trkpt lat="40.83145992193342" lon="8.64095268071525"><ele>165.33333333333334</ele><time>2026-04-30T07:58:04Z</time></trkpt><trkpt lat="40.83147417980291" lon="8.641199308845056"><ele>166.0</ele><time>2026-04-30T07:58:05Z</time></trkpt><trkpt lat="40.83151901780455" lon="8.641461365600856"><ele>167.33333333333334</ele><time>2026-04-30T07:58:06Z</time></trkpt><trkpt lat="40.83150135996265" lon="8.641721274357627"><ele>168.66666666666666</ele><time>2026-04-30T07:58:07Z</time></trkpt><trkpt lat="40.831472863709074" lon="8.641981887455202"><ele>170.0</ele><time>2026-04-30T07:58:08Z</time></trkpt><trkpt lat="40.83144219622477" lon="8.642235727616324"><ele>172.0</ele><time>2026-04-30T07:58:09Z</time></trkpt><trkpt lat="40.83139652212974" lon="8.64248088699396"><ele>174.0</ele><time>2026-04-30T07:58:10Z</time></trkpt><trkpt lat="40.83137766060525" lon="8.642728610159786"><ele>176.0</ele><time>2026-04-30T07:58:11Z</time></trkpt><trkpt lat="40.83137733430441" lon="8.642969993335308"><ele>177.33333333333331</ele><time>2026-04-30T07:58:12Z</time></trkpt><trkpt lat="40.83136316679653" lon="8.643204269255332"><ele>178.66666666666666</ele><time>2026-04-30T07:58:13Z</time></trkpt><trkpt lat="40.83136497107046" lon="8.643450187269089"><ele>180.0</ele><time>2026-04-30T07:58:14Z</time></trkpt><trkpt lat="40.831391410335236" lon="8.64370914941906"><ele>182.5</ele><time>2026-04-30T07:58:15Z</time></trkpt><trkpt lat="40.831420917023664" lon="8.643982625220794"><ele>185.0</ele><time>2026-04-30T07:58:16Z</time></trkpt><trkpt lat="40.83146241683392" lon="8.64437361821068"><ele>185.33333333333331</ele><time>2026-04-30T07:58:17Z</time></trkpt><trkpt lat="40.831470450034196" lon="8.644463988070454"><ele>185.66666666666666</ele><time>2026-04-30T07:58:18Z</time></trkpt><trkpt lat="40.83149712122984" lon="8.644722924553612"><ele>186.0</ele><time>2026-04-30T07:58:19Z</time></trkpt><trkpt lat="40.83152342021489" lon="8.644981495168155"><ele>186.0</ele><time>2026-04-30T07:58:20Z</time></trkpt><trkpt lat="40.831553141660486" lon="8.645244562098721"><ele>186.0</ele><time>2026-04-30T07:58:21Z</time></trkpt><trkpt lat="40.83157677899136" lon="8.645511141127052"><ele>186.0</ele><time>2026-04-30T07:58:22Z</time></trkpt><trkpt lat="40.831598736059696" lon="8.645781821948434"><ele>187.0</ele><time>2026-04-30T07:58:23Z</time></trkpt><trkpt lat="40.83162384570656" lon="8.646048368619011"><ele>188.0</ele><time>2026-04-30T07:58:24Z</time></trkpt><trkpt lat="40.83164543257595" lon="8.646301448545092"><ele>189.0</ele><time>2026-04-30T07:58:25Z</time></trkpt><trkpt lat="40.831667625059325" lon="8.646536554878045"><ele>190.0</ele><time>2026-04-30T07:58:26Z</time></trkpt><trkpt lat="40.83168712539913" lon="8.646745227418606"><ele>191.0</ele><time>2026-04-30T07:58:27Z</time></trkpt><trkpt lat="40.83171138581918" lon="8.646943879326887"><ele>192.0</ele><time>2026-04-30T07:58:28Z</time></trkpt><trkpt lat="40.831750677658135" lon="8.647140995832771"><ele>191.33333333333334</ele><time>2026-04-30T07:58:29Z</time></trkpt><trkpt lat="40.831847168465785" lon="8.647313747928678"><ele>190.66666666666669</ele><time>2026-04-30T07:58:30Z</time></trkpt><trkpt lat="40.83194247906695" lon="8.647508070543058"><ele>190.0</ele><time>2026-04-30T07:58:31Z</time></trkpt><trkpt lat="40.8320600479055" lon="8.647694953847676"><ele>192.33333333333334</ele><time>2026-04-30T07:58:32Z</time></trkpt><trkpt lat="40.832180406440244" lon="8.6478844950907"><ele>194.66666666666669</ele><time>2026-04-30T07:58:33Z</time></trkpt><trkpt lat="40.83228684355525" lon="8.648061137385307"><ele>197.0</ele><time>2026-04-30T07:58:34Z</time></trkpt><trkpt lat="40.83238296528909" lon="8.648236003329298"><ele>197.0</ele><time>2026-04-30T07:58:35Z</time></trkpt><trkpt lat="40.83247813742021" lon="8.648398745483842"><ele>197.0</ele><time>2026-04-30T07:58:36Z</time></trkpt><trkpt lat="40.83256851895886" lon="8.648551972293054"><ele>197.0</ele><time>2026-04-30T07:58:37Z</time></trkpt><trkpt lat="40.83266072265065" lon="8.648708387563058"><ele>195.25</ele><time>2026-04-30T07:58:38Z</time></trkpt><trkpt lat="40.83275559948992" lon="8.648869672576518"><ele>193.5</ele><time>2026-04-30T07:58:39Z</time></trkpt><trkpt lat="40.83284821031754" lon="8.649028430981367"><ele>191.75</ele><time>2026-04-30T07:58:40Z</time></trkpt><trkpt lat="40.83292743667087" lon="8.649173400540292"><ele>190.0</ele><time>2026-04-30T07:58:41Z</time></trkpt><trkpt lat="40.832994121562905" lon="8.649325537545144"><ele>189.0</ele><time>2026-04-30T07:58:42Z</time></trkpt><trkpt lat="40.833045087216306" lon="8.649497098601493"><ele>188.0</ele><time>2026-04-30T07:58:43Z</time></trkpt><trkpt lat="40.833067093637716" lon="8.649695904801483"><ele>187.0</ele><time>2026-04-30T07:58:44Z</time></trkpt><trkpt lat="40.83306360349093" lon="8.649897556158514"><ele>186.0</ele><time>2026-04-30T07:58:45Z</time></trkpt><trkpt lat="40.83301312333016" lon="8.650086845527252"><ele>186.0</ele><time>2026-04-30T07:58:46Z</time></trkpt><trkpt lat="40.83296332977184" lon="8.650272440877059"><ele>186.0</ele><time>2026-04-30T07:58:47Z</time></trkpt><trkpt lat="40.8328584011213" lon="8.650418075920628"><ele>186.0</ele><time>2026-04-30T07:58:48Z</time></trkpt><trkpt lat="40.83274649450553" lon="8.65054952309144"><ele>190.33333333333331</ele><time>2026-04-30T07:58:49Z</time></trkpt><trkpt lat="40.83261501853565" lon="8.650644353028055"><ele>194.66666666666666</ele><time>2026-04-30T07:58:50Z</time></trkpt><trkpt lat="40.83246252604595" lon="8.650715405687658"><ele>199.0</ele><time>2026-04-30T07:58:51Z</time></trkpt><trkpt lat="40.83230876977121" lon="8.650763165700893"><ele>199.0</ele><time>2026-04-30T07:58:52Z</time></trkpt><trkpt lat="40.83214696373965" lon="8.65081345590219"><ele>199.0</ele><time>2026-04-30T07:58:53Z</time></trkpt><trkpt lat="40.83198938905246" lon="8.65086363138376"><ele>199.0</ele><time>2026-04-30T07:58:54Z</time></trkpt><trkpt lat="40.83183509763174" lon="8.650932791772728"><ele>201.0</ele><time>2026-04-30T07:58:55Z</time></trkpt><trkpt lat="40.83166785599002" lon="8.650955945885979"><ele>203.0</ele><time>2026-04-30T07:58:56Z</time></trkpt><trkpt lat="40.83151122991221" lon="8.650936350957124"><ele>205.0</ele><time>2026-04-30T07:58:57Z</time></trkpt><trkpt lat="40.83134315629867" lon="8.650884421105246"><ele>205.0</ele><time>2026-04-30T07:58:58Z</time></trkpt><trkpt lat="40.83117089807867" lon="8.650799355344162"><ele>205.0</ele><time>2026-04-30T07:58:59Z</time></trkpt><trkpt lat="40.83101713224878" lon="8.65070845018095"><ele>205.0</ele><time>2026-04-30T07:59:00Z</time></trkpt><trkpt lat="40.83086480510043" lon="8.65063502375024"><ele>205.66666666666666</ele><time>2026-04-30T07:59:01Z</time></trkpt><trkpt lat="40.83070731853838" lon="8.650578620014102"><ele>206.33333333333331</ele><time>2026-04-30T07:59:02Z</time></trkpt><trkpt lat="40.830542010670804" lon="8.65056993966743"><ele>207.0</ele><time>2026-04-30T07:59:03Z</time></trkpt><trkpt lat="40.83037944521183" lon="8.65063197109512"><ele>207.0</ele><time>2026-04-30T07:59:04Z</time></trkpt><trkpt lat="40.83021873418031" lon="8.650686016285167"><ele>207.0</ele><time>2026-04-30T07:59:05Z</time></trkpt><trkpt lat="40.83006615002473" lon="8.65080839951181"><ele>207.0</ele><time>2026-04-30T07:59:06Z</time></trkpt><trkpt lat="40.82991672745543" lon="8.650944947465339"><ele>207.33333333333331</ele><time>2026-04-30T07:59:07Z</time></trkpt><trkpt lat="40.82975166978395" lon="8.651070867499028"><ele>207.66666666666666</ele><time>2026-04-30T07:59:08.001Z</time></trkpt><trkpt lat="40.82957766360785" lon="8.651183771906139"><ele>208.0</ele><time>2026-04-30T07:59:09.001Z</time></trkpt><trkpt lat="40.829408867808034" lon="8.651289822587716"><ele>212.33333333333331</ele><time>2026-04-30T07:59:10.001Z</time></trkpt><trkpt lat="40.829261656277694" lon="8.651383894411994"><ele>216.66666666666669</ele><time>2026-04-30T07:59:11.001Z</time></trkpt><trkpt lat="40.829128518011984" lon="8.651467230983815"><ele>221.0</ele><time>2026-04-30T07:59:12.001Z</time></trkpt><trkpt lat="40.828996066498625" lon="8.651535839145387"><ele>221.0</ele><time>2026-04-30T07:59:13.001Z</time></trkpt><trkpt lat="40.82885718416099" lon="8.651578884585724"><ele>221.0</ele><time>2026-04-30T07:59:14.001Z</time></trkpt><trkpt lat="40.82871185250718" lon="8.651609220437772"><ele>221.0</ele><time>2026-04-30T07:59:15.001Z</time></trkpt><trkpt lat="40.8285685590098" lon="8.651657333920445"><ele>221.0</ele><time>2026-04-30T07:59:16.001Z</time></trkpt><trkpt lat="40.82842119611739" lon="8.65168635390224"><ele>222.0</ele><time>2026-04-30T07:59:17.001Z</time></trkpt><trkpt lat="40.82828183623356" lon="8.651714584717887"><ele>223.0</ele><time>2026-04-30T07:59:18.001Z</time></trkpt><trkpt lat="40.828155915691006" lon="8.651741324253573"><ele>224.0</ele><time>2026-04-30T07:59:19.001Z</time></trkpt><trkpt lat="40.828029827096245" lon="8.651737989195073"><ele>225.0</ele><time>2026-04-30T07:59:20.001Z</time></trkpt><trkpt lat="40.82790717701816" lon="8.651768863657404"><ele>225.0</ele><time>2026-04-30T07:59:21.001Z</time></trkpt><trkpt lat="40.82778699116878" lon="8.651819176206994"><ele>225.0</ele><time>2026-04-30T07:59:22.001Z</time></trkpt><trkpt lat="40.827678783094875" lon="8.651898114850948"><ele>225.0</ele><time>2026-04-30T07:59:23.001Z</time></trkpt><trkpt lat="40.82757968458639" lon="8.652005158758982"><ele>225.0</ele><time>2026-04-30T07:59:24.001Z</time></trkpt><trkpt lat="40.82750128570501" lon="8.652124626982326"><ele>225.5</ele><time>2026-04-30T07:59:25.001Z</time></trkpt><trkpt lat="40.827427173616485" lon="8.65226404217988"><ele>226.0</ele><time>2026-04-30T07:59:26.001Z</time></trkpt><trkpt lat="40.82734837053702" lon="8.652412724168203"><ele>226.5</ele><time>2026-04-30T07:59:27.001Z</time></trkpt><trkpt lat="40.82726744628925" lon="8.65256696251083"><ele>227.0</ele><time>2026-04-30T07:59:28.001Z</time></trkpt><trkpt lat="40.82718281514433" lon="8.65272019862413"><ele>227.25</ele><time>2026-04-30T07:59:29.001Z</time></trkpt><trkpt lat="40.82712051493755" lon="8.652868211843495"><ele>227.5</ele><time>2026-04-30T07:59:30.001Z</time></trkpt><trkpt lat="40.82702466171933" lon="8.653050824566439"><ele>227.75</ele><time>2026-04-30T07:59:31.001Z</time></trkpt><trkpt lat="40.82693835255967" lon="8.653214123729436"><ele>228.0</ele><time>2026-04-30T07:59:32.001Z</time></trkpt><trkpt lat="40.82686881585874" lon="8.65338619871272"><ele>228.0</ele><time>2026-04-30T07:59:33.001Z</time></trkpt><trkpt lat="40.82681567387545" lon="8.653553486877628"><ele>228.0</ele><time>2026-04-30T07:59:34.001Z</time></trkpt><trkpt lat="40.8267744819675" lon="8.653730644158644"><ele>228.0</ele><time>2026-04-30T07:59:35.001Z</time></trkpt><trkpt lat="40.82674508127663" lon="8.653924963654022"><ele>228.0</ele><time>2026-04-30T07:59:36Z</time></trkpt><trkpt lat="40.82673520986747" lon="8.654136192092258"><ele>229.0</ele><time>2026-04-30T07:59:37Z</time></trkpt><trkpt lat="40.82674019068826" lon="8.654362349425178"><ele>230.0</ele><time>2026-04-30T07:59:38Z</time></trkpt><trkpt lat="40.8267563940073" lon="8.654600136701017"><ele>231.0</ele><time>2026-04-30T07:59:39Z</time></trkpt><trkpt lat="40.82678059877606" lon="8.65484459887165"><ele>231.0</ele><time>2026-04-30T07:59:40Z</time></trkpt><trkpt lat="40.82680245068975" lon="8.655093598610941"><ele>231.0</ele><time>2026-04-30T07:59:41Z</time></trkpt><trkpt lat="40.82681842939327" lon="8.655351411955833"><ele>231.0</ele><time>2026-04-30T07:59:42Z</time></trkpt><trkpt lat="40.82683919478409" lon="8.655627713209777"><ele>229.66666666666669</ele><time>2026-04-30T07:59:43Z</time></trkpt><trkpt lat="40.826860493917245" lon="8.655906176827283"><ele>228.33333333333334</ele><time>2026-04-30T07:59:44Z</time></trkpt><trkpt lat="40.82688362248495" lon="8.656209742158644"><ele>227.0</ele><time>2026-04-30T07:59:45Z</time></trkpt><trkpt lat="40.82690632890687" lon="8.656514401763094"><ele>227.0</ele><time>2026-04-30T07:59:46Z</time></trkpt><trkpt lat="40.82692842801893" lon="8.656814648486257"><ele>227.0</ele><time>2026-04-30T07:59:47Z</time></trkpt><trkpt lat="40.82695293771789" lon="8.65710607014851"><ele>228.66666666666669</ele><time>2026-04-30T07:59:48Z</time></trkpt><trkpt lat="40.826986984085664" lon="8.657383579223133"><ele>230.33333333333331</ele><time>2026-04-30T07:59:49Z</time></trkpt><trkpt lat="40.82703853932868" lon="8.657654365721296"><ele>232.0</ele><time>2026-04-30T07:59:50Z</time></trkpt><trkpt lat="40.82710325615375" lon="8.657922594911067"><ele>233.66666666666666</ele><time>2026-04-30T07:59:51Z</time></trkpt><trkpt lat="40.82717234483501" lon="8.658182728701219"><ele>235.33333333333331</ele><time>2026-04-30T07:59:52Z</time></trkpt><trkpt lat="40.827244487874296" lon="8.658435057093982"><ele>237.0</ele><time>2026-04-30T07:59:53Z</time></trkpt><trkpt lat="40.82730776426037" lon="8.658671926885972"><ele>238.0</ele><time>2026-04-30T07:59:54Z</time></trkpt><trkpt lat="40.8273647011595" lon="8.658898661345802"><ele>239.0</ele><time>2026-04-30T07:59:55Z</time></trkpt><trkpt lat="40.82741135036405" lon="8.659114050362014"><ele>240.0</ele><time>2026-04-30T07:59:56Z</time></trkpt><trkpt lat="40.827440670339264" lon="8.659332612704654"><ele>238.66666666666669</ele><time>2026-04-30T07:59:57Z</time></trkpt><trkpt lat="40.8274433023015" lon="8.659545586984526"><ele>237.33333333333334</ele><time>2026-04-30T07:59:58Z</time></trkpt><trkpt lat="40.82743276543027" lon="8.659760942326532"><ele>236.0</ele><time>2026-04-30T07:59:59Z</time></trkpt><trkpt lat="40.827420690807905" lon="8.65997627231242"><ele>236.0</ele><time>2026-04-30T08:00:00Z</time></trkpt><trkpt lat="40.827408495010054" lon="8.660183834542206"><ele>236.0</ele><time>2026-04-30T08:00:01Z</time></trkpt><trkpt lat="40.827397484652735" lon="8.66039487753569"><ele>236.0</ele><time>2026-04-30T08:00:02Z</time></trkpt><trkpt lat="40.82738944387393" lon="8.660605071786478"><ele>234.66666666666669</ele><time>2026-04-30T08:00:03Z</time></trkpt><trkpt lat="40.82738919199962" lon="8.660817550705913"><ele>233.33333333333331</ele><time>2026-04-30T08:00:04Z</time></trkpt><trkpt lat="40.827402465101635" lon="8.661030337037229"><ele>232.0</ele><time>2026-04-30T08:00:05Z</time></trkpt><trkpt lat="40.827428224337915" lon="8.661246994076935"><ele>231.66666666666666</ele><time>2026-04-30T08:00:06Z</time></trkpt><trkpt lat="40.82747046875261" lon="8.661466643791979"><ele>231.33333333333331</ele><time>2026-04-30T08:00:07Z</time></trkpt><trkpt lat="40.82751297659534" lon="8.66169142738374"><ele>231.0</ele><time>2026-04-30T08:00:08Z</time></trkpt><trkpt lat="40.827543099357534" lon="8.661936417147743"><ele>231.66666666666669</ele><time>2026-04-30T08:00:09Z</time></trkpt><trkpt lat="40.82756002209712" lon="8.662172809305211"><ele>232.33333333333334</ele><time>2026-04-30T08:00:10Z</time></trkpt><trkpt lat="40.827573960428694" lon="8.66241319407534"><ele>233.0</ele><time>2026-04-30T08:00:11Z</time></trkpt><trkpt lat="40.827586550094374" lon="8.662659386419238"><ele>233.66666666666669</ele><time>2026-04-30T08:00:12Z</time></trkpt><trkpt lat="40.82760026316954" lon="8.662902773805147"><ele>234.33333333333331</ele><time>2026-04-30T08:00:13Z</time></trkpt><trkpt lat="40.82761444105985" lon="8.663147570997982"><ele>235.0</ele><time>2026-04-30T08:00:14Z</time></trkpt><trkpt lat="40.827627645716774" lon="8.663387618511772"><ele>235.33333333333331</ele><time>2026-04-30T08:00:15Z</time></trkpt><trkpt lat="40.827639614167396" lon="8.663625380950897"><ele>235.66666666666669</ele><time>2026-04-30T08:00:16Z</time></trkpt><trkpt lat="40.827651056976784" lon="8.663862373356144"><ele>236.0</ele><time>2026-04-30T08:00:17Z</time></trkpt><trkpt lat="40.82766083675176" lon="8.664089781937612"><ele>234.33333333333334</ele><time>2026-04-30T08:00:18Z</time></trkpt><trkpt lat="40.82767467083118" lon="8.664313437841635"><ele>232.66666666666669</ele><time>2026-04-30T08:00:19Z</time></trkpt><trkpt lat="40.82769186603068" lon="8.664548171215886"><ele>231.0</ele><time>2026-04-30T08:00:20Z</time></trkpt><trkpt lat="40.82770888232315" lon="8.664771153474366"><ele>230.33333333333331</ele><time>2026-04-30T08:00:21Z</time></trkpt><trkpt lat="40.82770363491758" lon="8.664980923569543"><ele>229.66666666666666</ele><time>2026-04-30T08:00:22Z</time></trkpt><trkpt lat="40.82772387678654" lon="8.665187634545862"><ele>229.0</ele><time>2026-04-30T08:00:23Z</time></trkpt><trkpt lat="40.827690661260036" lon="8.665387535024465"><ele>229.0</ele><time>2026-04-30T08:00:24Z</time></trkpt><trkpt lat="40.8276530638585" lon="8.66558562247071"><ele>229.0</ele><time>2026-04-30T08:00:25Z</time></trkpt><trkpt lat="40.82759061301533" lon="8.66577879324321"><ele>229.0</ele><time>2026-04-30T08:00:26Z</time></trkpt><trkpt lat="40.827513433660826" lon="8.66596429331064"><ele>232.0</ele><time>2026-04-30T08:00:27Z</time></trkpt><trkpt lat="40.82744370231901" lon="8.666166846165419"><ele>235.0</ele><time>2026-04-30T08:00:28Z</time></trkpt><trkpt lat="40.827360854711856" lon="8.66636135733765"><ele>238.0</ele><time>2026-04-30T08:00:29Z</time></trkpt><trkpt lat="40.82725887574685" lon="8.666554137707424"><ele>238.0</ele><time>2026-04-30T08:00:30Z</time></trkpt><trkpt lat="40.82718246821058" lon="8.666772289497889"><ele>238.0</ele><time>2026-04-30T08:00:31Z</time></trkpt><trkpt lat="40.82709388714858" lon="8.66697623869223"><ele>238.0</ele><time>2026-04-30T08:00:32Z</time></trkpt><trkpt lat="40.82698823127936" lon="8.667177251201498"><ele>238.66666666666666</ele><time>2026-04-30T08:00:33Z</time></trkpt><trkpt lat="40.826902634179696" lon="8.667394157805417"><ele>239.33333333333331</ele><time>2026-04-30T08:00:34Z</time></trkpt><trkpt lat="40.82683462995285" lon="8.667620388096712"><ele>240.0</ele><time>2026-04-30T08:00:35Z</time></trkpt><trkpt lat="40.82678182070834" lon="8.667861054971384"><ele>243.33333333333331</ele><time>2026-04-30T08:00:36Z</time></trkpt><trkpt lat="40.82673630833761" lon="8.668102955835808"><ele>246.66666666666666</ele><time>2026-04-30T08:00:37Z</time></trkpt><trkpt lat="40.826694502751074" lon="8.668332453687496"><ele>250.0</ele><time>2026-04-30T08:00:38Z</time></trkpt><trkpt lat="40.82665574065444" lon="8.668544228032726"><ele>250.33333333333331</ele><time>2026-04-30T08:00:39Z</time></trkpt><trkpt lat="40.82661724085276" lon="8.668749902368017"><ele>250.66666666666669</ele><time>2026-04-30T08:00:40Z</time></trkpt><trkpt lat="40.826578216707304" lon="8.668945716525167"><ele>251.0</ele><time>2026-04-30T08:00:41Z</time></trkpt><trkpt lat="40.82653127192191" lon="8.669120456058629"><ele>251.0</ele><time>2026-04-30T08:00:42Z</time></trkpt><trkpt lat="40.82646651610773" lon="8.66927461599747"><ele>251.0</ele><time>2026-04-30T08:00:43Z</time></trkpt><trkpt lat="40.82638328818863" lon="8.669399651250991"><ele>251.0</ele><time>2026-04-30T08:00:44Z</time></trkpt><trkpt lat="40.826284024914884" lon="8.669510885921836"><ele>251.0</ele><time>2026-04-30T08:00:45Z</time></trkpt><trkpt lat="40.82617116444401" lon="8.669604263465446"><ele>249.0</ele><time>2026-04-30T08:00:46Z</time></trkpt><trkpt lat="40.82605543736475" lon="8.669695189402814"><ele>247.0</ele><time>2026-04-30T08:00:47Z</time></trkpt><trkpt lat="40.825943385084614" lon="8.669782191001968"><ele>245.0</ele><time>2026-04-30T08:00:48Z</time></trkpt><trkpt lat="40.82583081703107" lon="8.669869593020227"><ele>243.0</ele><time>2026-04-30T08:00:49Z</time></trkpt><trkpt lat="40.82571644962838" lon="8.669958392117293"><ele>243.0</ele><time>2026-04-30T08:00:50Z</time></trkpt><trkpt lat="40.82560512909374" lon="8.670044913912685"><ele>243.0</ele><time>2026-04-30T08:00:51Z</time></trkpt><trkpt lat="40.82549707748359" lon="8.670131930918508"><ele>243.0</ele><time>2026-04-30T08:00:52Z</time></trkpt><trkpt lat="40.82539341444784" lon="8.670216336013425"><ele>243.0</ele><time>2026-04-30T08:00:53Z</time></trkpt><trkpt lat="40.82529371064652" lon="8.67029751739069"><ele>241.25</ele><time>2026-04-30T08:00:54Z</time></trkpt><trkpt lat="40.825194404135665" lon="8.670377283562066"><ele>239.5</ele><time>2026-04-30T08:00:55Z</time></trkpt><trkpt lat="40.825102704001054" lon="8.670468867635966"><ele>237.75</ele><time>2026-04-30T08:00:56Z</time></trkpt><trkpt lat="40.82500479020767" lon="8.670542445645735"><ele>236.0</ele><time>2026-04-30T08:00:57Z</time></trkpt><trkpt lat="40.824905741654" lon="8.670612716743694"><ele>236.0</ele><time>2026-04-30T08:00:58Z</time></trkpt><trkpt lat="40.824804949214915" lon="8.670680516226717"><ele>236.00000000000003</ele><time>2026-04-30T08:00:59Z</time></trkpt><trkpt lat="40.82470935624031" lon="8.670742724248825"><ele>236.00000000000003</ele><time>2026-04-30T08:01:00Z</time></trkpt><trkpt lat="40.82460987004295" lon="8.670804626549442"><ele>236.0</ele><time>2026-04-30T08:01:01Z</time></trkpt><trkpt lat="40.82450707090654" lon="8.670866876933712"><ele>236.0</ele><time>2026-04-30T08:01:02Z</time></trkpt><trkpt lat="40.82440129978694" lon="8.670931245941755"><ele>235.4</ele><time>2026-04-30T08:01:03Z</time></trkpt><trkpt lat="40.82429442309115" lon="8.670997514830148"><ele>234.8</ele><time>2026-04-30T08:01:04Z</time></trkpt><trkpt lat="40.82418674062419" lon="8.671063344976243"><ele>234.20000000000002</ele><time>2026-04-30T08:01:05Z</time></trkpt><trkpt lat="40.82408717035809" lon="8.671128106572942"><ele>233.60000000000002</ele><time>2026-04-30T08:01:06Z</time></trkpt><trkpt lat="40.82400094615226" lon="8.671198177418347"><ele>233.0</ele><time>2026-04-30T08:01:07Z</time></trkpt><trkpt lat="40.82390832576381" lon="8.671276302468405"><ele>233.0</ele><time>2026-04-30T08:01:08Z</time></trkpt><trkpt lat="40.82384431312477" lon="8.671386355948455"><ele>233.0</ele><time>2026-04-30T08:01:09Z</time></trkpt><trkpt lat="40.82379729668868" lon="8.671504353292425"><ele>233.0</ele><time>2026-04-30T08:01:10Z</time></trkpt><trkpt lat="40.8237679844591" lon="8.671636030031205"><ele>233.0</ele><time>2026-04-30T08:01:11Z</time></trkpt><trkpt lat="40.82376935141787" lon="8.671779358027873"><ele>233.0</ele><time>2026-04-30T08:01:12Z</time></trkpt><trkpt lat="40.82377199631127" lon="8.671920781760543"><ele>234.25</ele><time>2026-04-30T08:01:13Z</time></trkpt><trkpt lat="40.82379611846988" lon="8.672072828710265"><ele>235.5</ele><time>2026-04-30T08:01:14Z</time></trkpt><trkpt lat="40.82384450714138" lon="8.672221534838837"><ele>236.75</ele><time>2026-04-30T08:01:15Z</time></trkpt><trkpt lat="40.82391576404778" lon="8.672349098815836"><ele>238.0</ele><time>2026-04-30T08:01:16Z</time></trkpt><trkpt lat="40.824008218582186" lon="8.672452233085638"><ele>238.0</ele><time>2026-04-30T08:01:17Z</time></trkpt><trkpt lat="40.82411659596662" lon="8.672539573052047"><ele>238.0</ele><time>2026-04-30T08:01:18Z</time></trkpt><trkpt lat="40.82423401678528" lon="8.672630223945577"><ele>238.0</ele><time>2026-04-30T08:01:19Z</time></trkpt><trkpt lat="40.82434824814536" lon="8.672729159757067"><ele>238.0</ele><time>2026-04-30T08:01:20Z</time></trkpt><trkpt lat="40.8244586468599" lon="8.672844246315783"><ele>238.0</ele><time>2026-04-30T08:01:21Z</time></trkpt><trkpt lat="40.82455676642174" lon="8.672983351974406"><ele>238.0</ele><time>2026-04-30T08:01:22Z</time></trkpt><trkpt lat="40.82464125837324" lon="8.67315794852367"><ele>238.0</ele><time>2026-04-30T08:01:23Z</time></trkpt><trkpt lat="40.824722766900805" lon="8.673348031547068"><ele>238.0</ele><time>2026-04-30T08:01:24Z</time></trkpt><trkpt lat="40.82481366190333" lon="8.67352850332319"><ele>238.0</ele><time>2026-04-30T08:01:25Z</time></trkpt><trkpt lat="40.82490548715647" lon="8.673726726863672"><ele>238.0</ele><time>2026-04-30T08:01:26Z</time></trkpt><trkpt lat="40.82499939460547" lon="8.673933835769462"><ele>237.66666666666666</ele><time>2026-04-30T08:01:27Z</time></trkpt><trkpt lat="40.82509755850471" lon="8.674145412040808"><ele>237.33333333333331</ele><time>2026-04-30T08:01:28Z</time></trkpt><trkpt lat="40.82519878101246" lon="8.674363412799927"><ele>237.0</ele><time>2026-04-30T08:01:29Z</time></trkpt><trkpt lat="40.825296113146806" lon="8.67458628684995"><ele>237.0</ele><time>2026-04-30T08:01:30Z</time></trkpt><trkpt lat="40.8253933390027" lon="8.674809145911878"><ele>237.0</ele><time>2026-04-30T08:01:31Z</time></trkpt><trkpt lat="40.82549261492866" lon="8.675030858618573"><ele>237.0</ele><time>2026-04-30T08:01:32Z</time></trkpt><trkpt lat="40.825589315302445" lon="8.675232303121946"><ele>241.33333333333331</ele><time>2026-04-30T08:01:33Z</time></trkpt><trkpt lat="40.82568425434532" lon="8.675442337298364"><ele>245.66666666666666</ele><time>2026-04-30T08:01:34Z</time></trkpt><trkpt lat="40.82577236697824" lon="8.675643303596408"><ele>250.0</ele><time>2026-04-30T08:01:35Z</time></trkpt><trkpt lat="40.82585912541275" lon="8.675839876736859"><ele>250.0</ele><time>2026-04-30T08:01:36Z</time></trkpt><trkpt lat="40.825936002655425" lon="8.676032031112893"><ele>250.0</ele><time>2026-04-30T08:01:37Z</time></trkpt><trkpt lat="40.82600077596536" lon="8.676224661691533"><ele>250.0</ele><time>2026-04-30T08:01:38Z</time></trkpt><trkpt lat="40.82604786021067" lon="8.676420343534133"><ele>247.0</ele><time>2026-04-30T08:01:39Z</time></trkpt><trkpt lat="40.82607457907583" lon="8.676626572427905"><ele>244.0</ele><time>2026-04-30T08:01:40Z</time></trkpt><trkpt lat="40.82608698677118" lon="8.676842091270393"><ele>241.0</ele><time>2026-04-30T08:01:41Z</time></trkpt><trkpt lat="40.82608686025036" lon="8.677054014300847"><ele>237.0</ele><time>2026-04-30T08:01:42Z</time></trkpt><trkpt lat="40.82608071565579" lon="8.67726689778549"><ele>233.0</ele><time>2026-04-30T08:01:43Z</time></trkpt><trkpt lat="40.82607728156286" lon="8.67747992335738"><ele>229.0</ele><time>2026-04-30T08:01:44Z</time></trkpt><trkpt lat="40.826071705870895" lon="8.677692933652535"><ele>229.66666666666666</ele><time>2026-04-30T08:01:45Z</time></trkpt><trkpt lat="40.82605235607812" lon="8.677901825797763"><ele>230.33333333333331</ele><time>2026-04-30T08:01:46Z</time></trkpt><trkpt lat="40.82604722136763" lon="8.678105898775344"><ele>231.0</ele><time>2026-04-30T08:01:47Z</time></trkpt><trkpt lat="40.826058447755976" lon="8.678307780147493"><ele>231.0</ele><time>2026-04-30T08:01:48Z</time></trkpt><trkpt lat="40.826050008675196" lon="8.678505233362742"><ele>231.0</ele><time>2026-04-30T08:01:49Z</time></trkpt><trkpt lat="40.826043135861404" lon="8.678689590859266"><ele>231.0</ele><time>2026-04-30T08:01:50Z</time></trkpt><trkpt lat="40.82603539266787" lon="8.67888135370207"><ele>231.0</ele><time>2026-04-30T08:01:51Z</time></trkpt><trkpt lat="40.826017646093796" lon="8.679084494238088"><ele>231.0</ele><time>2026-04-30T08:01:52Z</time></trkpt><trkpt lat="40.825979985670465" lon="8.67928564814037"><ele>231.0</ele><time>2026-04-30T08:01:53Z</time></trkpt><trkpt lat="40.8259144235495" lon="8.67948887686352"><ele>231.0</ele><time>2026-04-30T08:01:54Z</time></trkpt><trkpt lat="40.82582632299416" lon="8.679690327269254"><ele>234.33333333333331</ele><time>2026-04-30T08:01:55Z</time></trkpt><trkpt lat="40.82572089721771" lon="8.679874718812979"><ele>237.66666666666666</ele><time>2026-04-30T08:01:56Z</time></trkpt><trkpt lat="40.82560616209021" lon="8.680081299559507"><ele>241.0</ele><time>2026-04-30T08:01:57Z</time></trkpt><trkpt lat="40.825493888464884" lon="8.680289507668041"><ele>241.0</ele><time>2026-04-30T08:01:58Z</time></trkpt><trkpt lat="40.825393858193756" lon="8.680499437887683"><ele>241.0</ele><time>2026-04-30T08:01:59Z</time></trkpt><trkpt lat="40.82531991196801" lon="8.680719336983119"><ele>241.0</ele><time>2026-04-30T08:02:00Z</time></trkpt><trkpt lat="40.82527191585591" lon="8.680927297298167"><ele>238.75</ele><time>2026-04-30T08:02:01Z</time></trkpt><trkpt lat="40.82522826975572" lon="8.681115825509227"><ele>236.5</ele><time>2026-04-30T08:02:02Z</time></trkpt><trkpt lat="40.82517434356688" lon="8.68128174262105"><ele>234.25</ele><time>2026-04-30T08:02:03Z</time></trkpt><trkpt lat="40.82510354637219" lon="8.681433079866686"><ele>232.0</ele><time>2026-04-30T08:02:04Z</time></trkpt><trkpt lat="40.82500370379263" lon="8.68156206500767"><ele>238.0</ele><time>2026-04-30T08:02:05Z</time></trkpt><trkpt lat="40.824888616768334" lon="8.681671167705328"><ele>244.0</ele><time>2026-04-30T08:02:06Z</time></trkpt><trkpt lat="40.824777663867" lon="8.681790610411682"><ele>250.0</ele><time>2026-04-30T08:02:07Z</time></trkpt><trkpt lat="40.82468400685381" lon="8.681927531978756"><ele>256.0</ele><time>2026-04-30T08:02:08Z</time></trkpt><trkpt lat="40.824613647368196" lon="8.682079799414607"><ele>256.0</ele><time>2026-04-30T08:02:09Z</time></trkpt><trkpt lat="40.824571912877346" lon="8.682246716574452"><ele>256.0</ele><time>2026-04-30T08:02:10Z</time></trkpt><trkpt lat="40.824551070978" lon="8.682422304889545"><ele>256.0</ele><time>2026-04-30T08:02:11Z</time></trkpt><trkpt lat="40.824556148293105" lon="8.68259989577649"><ele>256.0</ele><time>2026-04-30T08:02:12Z</time></trkpt><trkpt lat="40.82458775076138" lon="8.682771896689411"><ele>258.5</ele><time>2026-04-30T08:02:13Z</time></trkpt><trkpt lat="40.82464246496444" lon="8.682934510954254"><ele>261.0</ele><time>2026-04-30T08:02:14Z</time></trkpt><trkpt lat="40.82470454643443" lon="8.683096335175323"><ele>263.5</ele><time>2026-04-30T08:02:15Z</time></trkpt><trkpt lat="40.824758093475054" lon="8.683258890755344"><ele>266.0</ele><time>2026-04-30T08:02:16Z</time></trkpt><trkpt lat="40.82479866048935" lon="8.683416731305815"><ele>266.0</ele><time>2026-04-30T08:02:17Z</time></trkpt><trkpt lat="40.82482628971464" lon="8.683561194809018"><ele>266.0</ele><time>2026-04-30T08:02:18Z</time></trkpt><trkpt lat="40.82484237683668" lon="8.683711200484135"><ele>266.0</ele><time>2026-04-30T08:02:19Z</time></trkpt><trkpt lat="40.82484464958866" lon="8.683862204061118"><ele>266.0</ele><time>2026-04-30T08:02:20Z</time></trkpt><trkpt lat="40.824833704503106" lon="8.684017111574214"><ele>268.0</ele><time>2026-04-30T08:02:21Z</time></trkpt><trkpt lat="40.824808675253394" lon="8.684185825151202"><ele>270.0</ele><time>2026-04-30T08:02:22Z</time></trkpt><trkpt lat="40.82478264116282" lon="8.684354533887221"><ele>272.0</ele><time>2026-04-30T08:02:23Z</time></trkpt><trkpt lat="40.8247639204128" lon="8.684526520996307"><ele>274.0</ele><time>2026-04-30T08:02:24Z</time></trkpt><trkpt lat="40.82475552593842" lon="8.684709773321202"><ele>275.25</ele><time>2026-04-30T08:02:25Z</time></trkpt><trkpt lat="40.824756388371284" lon="8.684893435450741"><ele>276.5</ele><time>2026-04-30T08:02:26Z</time></trkpt><trkpt lat="40.82476514926528" lon="8.685079343938401"><ele>277.75</ele><time>2026-04-30T08:02:27Z</time></trkpt><trkpt lat="40.82476994934023" lon="8.685271934668203"><ele>279.0</ele><time>2026-04-30T08:02:28Z</time></trkpt><trkpt lat="40.824773040409426" lon="8.685460622568655"><ele>277.75</ele><time>2026-04-30T08:02:29Z</time></trkpt><trkpt lat="40.8247753301943" lon="8.685640830012218"><ele>276.5</ele><time>2026-04-30T08:02:30Z</time></trkpt><trkpt lat="40.82477108156707" lon="8.685814844181333"><ele>275.25</ele><time>2026-04-30T08:02:31Z</time></trkpt><trkpt lat="40.82474963807182" lon="8.685984847600695"><ele>274.0</ele><time>2026-04-30T08:02:32Z</time></trkpt><trkpt lat="40.824706556337" lon="8.686142479781076"><ele>274.0</ele><time>2026-04-30T08:02:33Z</time></trkpt><trkpt lat="40.82464120463437" lon="8.686280187595713"><ele>274.0</ele><time>2026-04-30T08:02:34Z</time></trkpt><trkpt lat="40.82456186376961" lon="8.686410091093759"><ele>274.0</ele><time>2026-04-30T08:02:35Z</time></trkpt><trkpt lat="40.82446798074231" lon="8.686536886018462"><ele>274.0</ele><time>2026-04-30T08:02:36Z</time></trkpt><trkpt lat="40.82436682849935" lon="8.68665634473128"><ele>275.5</ele><time>2026-04-30T08:02:37Z</time></trkpt><trkpt lat="40.82426233135949" lon="8.686766261025927"><ele>277.0</ele><time>2026-04-30T08:02:38Z</time></trkpt><trkpt lat="40.824163512569164" lon="8.686870182117095"><ele>278.5</ele><time>2026-04-30T08:02:39Z</time></trkpt><trkpt lat="40.82407327734642" lon="8.686987310258415"><ele>280.0</ele><time>2026-04-30T08:02:40Z</time></trkpt><trkpt lat="40.82398611923395" lon="8.687098923073625"><ele>280.0</ele><time>2026-04-30T08:02:41Z</time></trkpt><trkpt lat="40.82389476709125" lon="8.687203913691182"><ele>280.0</ele><time>2026-04-30T08:02:42Z</time></trkpt><trkpt lat="40.82380308003536" lon="8.687303499259189"><ele>280.0</ele><time>2026-04-30T08:02:43Z</time></trkpt><trkpt lat="40.82371642026847" lon="8.687408094296831"><ele>280.0</ele><time>2026-04-30T08:02:44Z</time></trkpt><trkpt lat="40.823625440288325" lon="8.687513470747833"><ele>280.0</ele><time>2026-04-30T08:02:45Z</time></trkpt><trkpt lat="40.82353754126912" lon="8.687606725169966"><ele>280.0</ele><time>2026-04-30T08:02:46Z</time></trkpt><trkpt lat="40.82344802104465" lon="8.68768875586679"><ele>280.0</ele><time>2026-04-30T08:02:47Z</time></trkpt><trkpt lat="40.8233519041165" lon="8.687766747563591"><ele>280.0</ele><time>2026-04-30T08:02:48Z</time></trkpt><trkpt lat="40.82325007977858" lon="8.687841482666295"><ele>283.25</ele><time>2026-04-30T08:02:49Z</time></trkpt><trkpt lat="40.82313914996881" lon="8.687911124489569"><ele>286.5</ele><time>2026-04-30T08:02:50Z</time></trkpt><trkpt lat="40.823019234664585" lon="8.687978692071809"><ele>289.75</ele><time>2026-04-30T08:02:51Z</time></trkpt><trkpt lat="40.8228919240502" lon="8.688060590795464"><ele>293.0</ele><time>2026-04-30T08:02:52Z</time></trkpt><trkpt lat="40.822759256218035" lon="8.688138740624536"><ele>297.75</ele><time>2026-04-30T08:02:53Z</time></trkpt><trkpt lat="40.82262276979524" lon="8.688220448684504"><ele>302.5</ele><time>2026-04-30T08:02:54Z</time></trkpt><trkpt lat="40.82250045698985" lon="8.688285785536678"><ele>307.25</ele><time>2026-04-30T08:02:55Z</time></trkpt><trkpt lat="40.822385024391565" lon="8.688357241643617"><ele>312.0</ele><time>2026-04-30T08:02:56Z</time></trkpt><trkpt lat="40.822281504184204" lon="8.688423464700326"><ele>312.0</ele><time>2026-04-30T08:02:57Z</time></trkpt><trkpt lat="40.82217411919954" lon="8.68849232186059"><ele>312.0</ele><time>2026-04-30T08:02:58Z</time></trkpt><trkpt lat="40.82206873058571" lon="8.688564692611797"><ele>312.0</ele><time>2026-04-30T08:02:59Z</time></trkpt><trkpt lat="40.821970621291634" lon="8.688636544867586"><ele>312.0</ele><time>2026-04-30T08:03:00Z</time></trkpt><trkpt lat="40.821880474703704" lon="8.688716238968702"><ele>312.6</ele><time>2026-04-30T08:03:01Z</time></trkpt><trkpt lat="40.82179412141494" lon="8.6888083586897"><ele>313.2</ele><time>2026-04-30T08:03:02Z</time></trkpt><trkpt lat="40.821711877985635" lon="8.688905652457084"><ele>313.8</ele><time>2026-04-30T08:03:03Z</time></trkpt><trkpt lat="40.8216315765161" lon="8.688998334709137"><ele>314.4</ele><time>2026-04-30T08:03:04Z</time></trkpt><trkpt lat="40.821555537183116" lon="8.689088672987701"><ele>315.0</ele><time>2026-04-30T08:03:05Z</time></trkpt><trkpt lat="40.82148641436959" lon="8.689173201491347"><ele>315.0</ele><time>2026-04-30T08:03:06Z</time></trkpt><trkpt lat="40.82142019580922" lon="8.689258799091474"><ele>315.0</ele><time>2026-04-30T08:03:07Z</time></trkpt><trkpt lat="40.821349576831416" lon="8.68935981137721"><ele>315.0</ele><time>2026-04-30T08:03:08Z</time></trkpt><trkpt lat="40.82129035806199" lon="8.689476173498095"><ele>315.0</ele><time>2026-04-30T08:03:09Z</time></trkpt><trkpt lat="40.82123832781369" lon="8.689610140405826"><ele>315.0</ele><time>2026-04-30T08:03:10Z</time></trkpt><trkpt lat="40.82119869926129" lon="8.689768440753326"><ele>316.0</ele><time>2026-04-30T08:03:11Z</time></trkpt><trkpt lat="40.8211621383751" lon="8.689949072581788"><ele>317.0</ele><time>2026-04-30T08:03:12Z</time></trkpt><trkpt lat="40.82113017355379" lon="8.690131956570317"><ele>318.0</ele><time>2026-04-30T08:03:13Z</time></trkpt><trkpt lat="40.82110573417117" lon="8.690300832924597"><ele>319.0</ele><time>2026-04-30T08:03:14Z</time></trkpt><trkpt lat="40.82110876642846" lon="8.690475602608796"><ele>319.0</ele><time>2026-04-30T08:03:15Z</time></trkpt><trkpt lat="40.82113838231683" lon="8.690659605951996"><ele>319.0</ele><time>2026-04-30T08:03:16Z</time></trkpt><trkpt lat="40.82119488528036" lon="8.690837389884877"><ele>319.0</ele><time>2026-04-30T08:03:17Z</time></trkpt><trkpt lat="40.82127673868606" lon="8.69099615085712"><ele>319.0</ele><time>2026-04-30T08:03:18Z</time></trkpt><trkpt lat="40.82137985697487" lon="8.69113458530586"><ele>321.25</ele><time>2026-04-30T08:03:19Z</time></trkpt><trkpt lat="40.82149732764767" lon="8.691241013394842"><ele>323.5</ele><time>2026-04-30T08:03:20Z</time></trkpt><trkpt lat="40.82162414938022" lon="8.691319891617715"><ele>325.75</ele><time>2026-04-30T08:03:21Z</time></trkpt><trkpt lat="40.821742494780885" lon="8.691380893307025"><ele>328.0</ele><time>2026-04-30T08:03:22Z</time></trkpt><trkpt lat="40.82184832182447" lon="8.691449007241834"><ele>328.0</ele><time>2026-04-30T08:03:23Z</time></trkpt><trkpt lat="40.82193768024363" lon="8.691540312758674"><ele>328.0</ele><time>2026-04-30T08:03:24Z</time></trkpt><trkpt lat="40.82200641743522" lon="8.691655483198375"><ele>328.0</ele><time>2026-04-30T08:03:25Z</time></trkpt><trkpt lat="40.82205840210557" lon="8.69178823421296"><ele>328.0</ele><time>2026-04-30T08:03:26Z</time></trkpt><trkpt lat="40.82209211404899" lon="8.691939858787512"><ele>326.75</ele><time>2026-04-30T08:03:27Z</time></trkpt><trkpt lat="40.82210366287972" lon="8.692100028709394"><ele>325.5</ele><time>2026-04-30T08:03:28Z</time></trkpt><trkpt lat="40.822084487775385" lon="8.692264129947539"><ele>324.25</ele><time>2026-04-30T08:03:29Z</time></trkpt><trkpt lat="40.822032665882865" lon="8.692418352406944"><ele>323.0</ele><time>2026-04-30T08:03:30Z</time></trkpt><trkpt lat="40.82194996885631" lon="8.692551196540524"><ele>323.0</ele><time>2026-04-30T08:03:31Z</time></trkpt><trkpt lat="40.821853416364334" lon="8.692643452077643"><ele>323.0</ele><time>2026-04-30T08:03:32Z</time></trkpt><trkpt lat="40.82176976132797" lon="8.692767174707383"><ele>323.0</ele><time>2026-04-30T08:03:33Z</time></trkpt><trkpt lat="40.82163184926728" lon="8.692796606047379"><ele>323.0</ele><time>2026-04-30T08:03:34Z</time></trkpt><trkpt lat="40.82149329390909" lon="8.692790378378941"><ele>327.75</ele><time>2026-04-30T08:03:35Z</time></trkpt><trkpt lat="40.821353984795856" lon="8.692748272977921"><ele>332.5</ele><time>2026-04-30T08:03:36Z</time></trkpt><trkpt lat="40.821216053689184" lon="8.692677981412315"><ele>337.25</ele><time>2026-04-30T08:03:37Z</time></trkpt><trkpt lat="40.82108112345929" lon="8.692595729233531"><ele>342.0</ele><time>2026-04-30T08:03:38Z</time></trkpt><trkpt lat="40.82095867191225" lon="8.692512461762428"><ele>342.25</ele><time>2026-04-30T08:03:39Z</time></trkpt><trkpt lat="40.820844085901534" lon="8.692434700816426"><ele>342.5</ele><time>2026-04-30T08:03:40Z</time></trkpt><trkpt lat="40.8207299515887" lon="8.69236545044667"><ele>342.75</ele><time>2026-04-30T08:03:41Z</time></trkpt><trkpt lat="40.820621620166996" lon="8.692296519283724"><ele>343.0</ele><time>2026-04-30T08:03:42Z</time></trkpt><trkpt lat="40.820518049057284" lon="8.692236396321729"><ele>343.0</ele><time>2026-04-30T08:03:43Z</time></trkpt><trkpt lat="40.8204161316905" lon="8.692187176710972"><ele>343.0</ele><time>2026-04-30T08:03:44Z</time></trkpt><trkpt lat="40.820317537146636" lon="8.69215192727451"><ele>343.0</ele><time>2026-04-30T08:03:45Z</time></trkpt><trkpt lat="40.820207874657044" lon="8.692146661421681"><ele>343.0</ele><time>2026-04-30T08:03:46Z</time></trkpt><trkpt lat="40.82010155352509" lon="8.692165153907064"><ele>343.0</ele><time>2026-04-30T08:03:47Z</time></trkpt><trkpt lat="40.82000821381801" lon="8.69220611067143"><ele>343.8333333333333</ele><time>2026-04-30T08:03:48Z</time></trkpt><trkpt lat="40.81992736060614" lon="8.692260194346929"><ele>344.66666666666663</ele><time>2026-04-30T08:03:49Z</time></trkpt><trkpt lat="40.8198581919249" lon="8.692308898520961"><ele>345.5</ele><time>2026-04-30T08:03:50Z</time></trkpt><trkpt lat="40.819799082659245" lon="8.692347067922215"><ele>346.3333333333333</ele><time>2026-04-30T08:03:51Z</time></trkpt><trkpt lat="40.819732629433226" lon="8.692382732522384"><ele>347.1666666666667</ele><time>2026-04-30T08:03:52Z</time></trkpt><trkpt lat="40.81964156122907" lon="8.69245305099956"><ele>348.0</ele><time>2026-04-30T08:03:54Z</time></trkpt><trkpt lat="40.819581356519265" lon="8.692497263603853"><ele>348.0</ele><time>2026-04-30T08:03:59Z</time></trkpt><trkpt lat="40.819509474303395" lon="8.692465929451592"><ele>348.0</ele><time>2026-04-30T08:04:17Z</time></trkpt><trkpt lat="40.81940260210173" lon="8.692414673383473"><ele>348.0</ele><time>2026-04-30T08:04:19Z</time></trkpt><trkpt lat="40.81932910834037" lon="8.692384491295863"><ele>348.0</ele><time>2026-04-30T08:04:20Z</time></trkpt><trkpt lat="40.81924404269367" lon="8.692351577886265"><ele>348.0</ele><time>2026-04-30T08:04:21Z</time></trkpt><trkpt lat="40.81914842798587" lon="8.692309324770575"><ele>349.4</ele><time>2026-04-30T08:04:22Z</time></trkpt><trkpt lat="40.81904950120898" lon="8.692252875308872"><ele>350.79999999999995</ele><time>2026-04-30T08:04:23Z</time></trkpt><trkpt lat="40.81895616386665" lon="8.692195995530152"><ele>352.2</ele><time>2026-04-30T08:04:24Z</time></trkpt><trkpt lat="40.81887384232963" lon="8.692150309865134"><ele>353.6</ele><time>2026-04-30T08:04:25Z</time></trkpt><trkpt lat="40.81879610982358" lon="8.692124104191223"><ele>355.0</ele><time>2026-04-30T08:04:26Z</time></trkpt><trkpt lat="40.81872250145147" lon="8.692113129584982"><ele>355.0</ele><time>2026-04-30T08:04:27Z</time></trkpt><trkpt lat="40.81864950037742" lon="8.692111856660235"><ele>355.0</ele><time>2026-04-30T08:04:28Z</time></trkpt><trkpt lat="40.81857799019761" lon="8.69212392925201"><ele>355.0</ele><time>2026-04-30T08:04:29Z</time></trkpt><trkpt lat="40.81850842777435" lon="8.692142170982189"><ele>355.0</ele><time>2026-04-30T08:04:30Z</time></trkpt><trkpt lat="40.81844410246297" lon="8.692164461727838"><ele>355.0</ele><time>2026-04-30T08:04:31Z</time></trkpt><trkpt lat="40.818375179656506" lon="8.692183074126325"><ele>355.0</ele><time>2026-04-30T08:04:32Z</time></trkpt><trkpt lat="40.81830447683681" lon="8.692203441028042"><ele>355.0</ele><time>2026-04-30T08:04:33Z</time></trkpt><trkpt lat="40.81823569882631" lon="8.69222906398637"><ele>355.5</ele><time>2026-04-30T08:04:34Z</time></trkpt><trkpt lat="40.81816459399046" lon="8.692253109075484"><ele>356.0</ele><time>2026-04-30T08:04:35Z</time></trkpt><trkpt lat="40.81809301706996" lon="8.692282533907392"><ele>356.5</ele><time>2026-04-30T08:04:36Z</time></trkpt><trkpt lat="40.818017422040356" lon="8.692314296709062"><ele>357.0</ele><time>2026-04-30T08:04:37Z</time></trkpt><trkpt lat="40.81794055312762" lon="8.69234114805177"><ele>357.5</ele><time>2026-04-30T08:04:38Z</time></trkpt><trkpt lat="40.81786098847274" lon="8.692371630417643"><ele>358.0</ele><time>2026-04-30T08:04:39Z</time></trkpt><trkpt lat="40.81778198312844" lon="8.692402692118705"><ele>358.0</ele><time>2026-04-30T08:04:40Z</time></trkpt><trkpt lat="40.817706240520835" lon="8.692435238608905"><ele>358.0</ele><time>2026-04-30T08:04:41Z</time></trkpt><trkpt lat="40.81763411291294" lon="8.692472434844733"><ele>358.0</ele><time>2026-04-30T08:04:42Z</time></trkpt><trkpt lat="40.81756587853158" lon="8.692517901092268"><ele>358.0</ele><time>2026-04-30T08:04:43Z</time></trkpt><trkpt lat="40.81750116847877" lon="8.692568990685174"><ele>358.0</ele><time>2026-04-30T08:04:44Z</time></trkpt><trkpt lat="40.817441529712" lon="8.69262642470967"><ele>358.0</ele><time>2026-04-30T08:04:45Z</time></trkpt><trkpt lat="40.81738256199762" lon="8.692697177511635"><ele>358.0</ele><time>2026-04-30T08:04:46Z</time></trkpt><trkpt lat="40.817326147642156" lon="8.692780525252575"><ele>358.0</ele><time>2026-04-30T08:04:47Z</time></trkpt><trkpt lat="40.817274261255356" lon="8.692870434403254"><ele>358.0</ele><time>2026-04-30T08:04:48Z</time></trkpt><trkpt lat="40.817232346758566" lon="8.6929599030795"><ele>358.0</ele><time>2026-04-30T08:04:49Z</time></trkpt><trkpt lat="40.8172064517676" lon="8.693036775902982"><ele>358.0</ele><time>2026-04-30T08:04:51Z</time></trkpt><trkpt lat="40.81717112087998" lon="8.693135799798037"><ele>358.0</ele><time>2026-04-30T08:04:54Z</time></trkpt><trkpt lat="40.81714541832446" lon="8.693212836892897"><ele>358.00000000000006</ele><time>2026-04-30T08:04:57Z</time></trkpt><trkpt lat="40.8171295034781" lon="8.693306479572291"><ele>358.0</ele><time>2026-04-30T08:05:00Z</time></trkpt><trkpt lat="40.817112529521864" lon="8.693397543018246"><ele>358.0</ele><time>2026-04-30T08:05:03Z</time></trkpt><trkpt lat="40.81710172509885" lon="8.693495302643388"><ele>358.0</ele><time>2026-04-30T08:05:06Z</time></trkpt><trkpt lat="40.817086054471595" lon="8.693589474580312"><ele>358.0</ele><time>2026-04-30T08:05:09Z</time></trkpt><trkpt lat="40.81706538080411" lon="8.693690119721358"><ele>358.00000000000006</ele><time>2026-04-30T08:05:12Z</time></trkpt><trkpt lat="40.81704481481947" lon="8.693788490315342"><ele>358.0</ele><time>2026-04-30T08:05:15Z</time></trkpt><trkpt lat="40.817024686265164" lon="8.693891465116408"><ele>357.00000000000006</ele><time>2026-04-30T08:05:18Z</time></trkpt><trkpt lat="40.816981325828124" lon="8.694001325517668"><ele>356.0</ele><time>2026-04-30T08:05:21Z</time></trkpt><trkpt lat="40.81694621733054" lon="8.694072865932787"><ele>355.0</ele><time>2026-04-30T08:05:23Z</time></trkpt><trkpt lat="40.81690612032106" lon="8.694142939169351"><ele>354.0</ele><time>2026-04-30T08:05:25Z</time></trkpt><trkpt lat="40.81685921100302" lon="8.694207699811123"><ele>353.0</ele><time>2026-04-30T08:05:27Z</time></trkpt><trkpt lat="40.81680961866578" lon="8.69426467631941"><ele>352.00000000000006</ele><time>2026-04-30T08:05:29Z</time></trkpt><trkpt lat="40.81674119090242" lon="8.694305681919305"><ele>351.0</ele><time>2026-04-30T08:05:31Z</time></trkpt><trkpt lat="40.816661165189764" lon="8.694353088600078"><ele>352.0</ele><time>2026-04-30T08:05:34Z</time></trkpt><trkpt lat="40.81660027278294" lon="8.694386608694781"><ele>353.0</ele><time>2026-04-30T08:05:36Z</time></trkpt><trkpt lat="40.81654203123042" lon="8.694438429709528"><ele>354.0</ele><time>2026-04-30T08:05:38Z</time></trkpt><trkpt lat="40.81647710695895" lon="8.694463273293282"><ele>355.0</ele><time>2026-04-30T08:05:40Z</time></trkpt><trkpt lat="40.81640594441948" lon="8.694494880538699"><ele>356.0</ele><time>2026-04-30T08:05:42Z</time></trkpt><trkpt lat="40.81632511380923" lon="8.694525984984029"><ele>357.0</ele><time>2026-04-30T08:05:44Z</time></trkpt><trkpt lat="40.81624033504906" lon="8.694563302329524"><ele>357.0</ele><time>2026-04-30T08:05:46Z</time></trkpt><trkpt lat="40.81614919027983" lon="8.694600495683668"><ele>357.0</ele><time>2026-04-30T08:05:48.001Z</time></trkpt><trkpt lat="40.816047946340376" lon="8.694642527119472"><ele>357.0</ele><time>2026-04-30T08:05:50.001Z</time></trkpt><trkpt lat="40.81592574462395" lon="8.694696275198558"><ele>357.0</ele><time>2026-04-30T08:05:52.001Z</time></trkpt><trkpt lat="40.81586478358141" lon="8.694722479903547"><ele>357.0</ele><time>2026-04-30T08:05:53.001Z</time></trkpt><trkpt lat="40.81580302390596" lon="8.694748604616365"><ele>359.1666666666667</ele><time>2026-04-30T08:05:54Z</time></trkpt><trkpt lat="40.81574094593245" lon="8.694776646693075"><ele>361.3333333333333</ele><time>2026-04-30T08:05:55Z</time></trkpt><trkpt lat="40.81567686288435" lon="8.694805424000275"><ele>363.5</ele><time>2026-04-30T08:05:56Z</time></trkpt><trkpt lat="40.81560590366908" lon="8.694834364918432"><ele>365.66666666666663</ele><time>2026-04-30T08:05:57Z</time></trkpt><trkpt lat="40.81553359301842" lon="8.694865628743957"><ele>367.8333333333333</ele><time>2026-04-30T08:05:58Z</time></trkpt><trkpt lat="40.81545720356527" lon="8.694900167486797"><ele>370.0</ele><time>2026-04-30T08:05:59Z</time></trkpt><trkpt lat="40.81537396989892" lon="8.694938310842927"><ele>370.0</ele><time>2026-04-30T08:06:00Z</time></trkpt><trkpt lat="40.81528442126181" lon="8.694979839881464"><ele>370.0</ele><time>2026-04-30T08:06:01Z</time></trkpt><trkpt lat="40.81518287303611" lon="8.69501861242713"><ele>370.0</ele><time>2026-04-30T08:06:02Z</time></trkpt><trkpt lat="40.81507276241855" lon="8.695067187321186"><ele>370.0</ele><time>2026-04-30T08:06:03Z</time></trkpt><trkpt lat="40.81495898880446" lon="8.695115430627494"><ele>370.0</ele><time>2026-04-30T08:06:04Z</time></trkpt><trkpt lat="40.81483809734038" lon="8.695169315426483"><ele>371.0</ele><time>2026-04-30T08:06:05Z</time></trkpt><trkpt lat="40.81471529663939" lon="8.695225539003902"><ele>372.0</ele><time>2026-04-30T08:06:06Z</time></trkpt><trkpt lat="40.81458822002498" lon="8.695271091600203"><ele>373.0</ele><time>2026-04-30T08:06:07Z</time></trkpt><trkpt lat="40.81447959621753" lon="8.695349546275754"><ele>374.0</ele><time>2026-04-30T08:06:08Z</time></trkpt><trkpt lat="40.8143830948392" lon="8.695455268222195"><ele>374.0</ele><time>2026-04-30T08:06:09Z</time></trkpt><trkpt lat="40.81430558702834" lon="8.695587371370369"><ele>374.0</ele><time>2026-04-30T08:06:10Z</time></trkpt><trkpt lat="40.81426380787067" lon="8.695740563522563"><ele>374.0</ele><time>2026-04-30T08:06:11Z</time></trkpt><trkpt lat="40.81422069547254" lon="8.695890009529297"><ele>374.0</ele><time>2026-04-30T08:06:12Z</time></trkpt><trkpt lat="40.81419035089839" lon="8.696040769057882"><ele>372.6</ele><time>2026-04-30T08:06:13Z</time></trkpt><trkpt lat="40.81416664989268" lon="8.696189332114969"><ele>371.2</ele><time>2026-04-30T08:06:14Z</time></trkpt><trkpt lat="40.81414542380477" lon="8.69633276876676"><ele>369.8</ele><time>2026-04-30T08:06:15Z</time></trkpt><trkpt lat="40.814119842480814" lon="8.696472723219369"><ele>368.40000000000003</ele><time>2026-04-30T08:06:16Z</time></trkpt><trkpt lat="40.81409297013246" lon="8.696608672551044"><ele>367.0</ele><time>2026-04-30T08:06:17Z</time></trkpt><trkpt lat="40.81407388583065" lon="8.696746933481338"><ele>367.0</ele><time>2026-04-30T08:06:18Z</time></trkpt><trkpt lat="40.81406330992064" lon="8.696893840890608"><ele>367.0</ele><time>2026-04-30T08:06:19Z</time></trkpt><trkpt lat="40.81405912938457" lon="8.69704823119749"><ele>367.0</ele><time>2026-04-30T08:06:20Z</time></trkpt><trkpt lat="40.814065658958334" lon="8.697208051752517"><ele>367.0</ele><time>2026-04-30T08:06:21Z</time></trkpt><trkpt lat="40.814084026045954" lon="8.697372477449582"><ele>367.20000000000005</ele><time>2026-04-30T08:06:22Z</time></trkpt><trkpt lat="40.814109915814555" lon="8.697536145820237"><ele>367.4</ele><time>2026-04-30T08:06:23Z</time></trkpt><trkpt lat="40.81413704911799" lon="8.697669417533723"><ele>367.6</ele><time>2026-04-30T08:06:24Z</time></trkpt><trkpt lat="40.814153039956125" lon="8.697768286924106"><ele>367.79999999999995</ele><time>2026-04-30T08:06:25Z</time></trkpt><trkpt lat="40.814163599059235" lon="8.697884135769769"><ele>368.0</ele><time>2026-04-30T08:06:27Z</time></trkpt><trkpt lat="40.8141795982447" lon="8.69798353505894"><ele>368.2</ele><time>2026-04-30T08:06:30Z</time></trkpt><trkpt lat="40.81421893026516" lon="8.698051641226566"><ele>368.4</ele><time>2026-04-30T08:08:16.999Z</time></trkpt><trkpt lat="40.81422570714681" lon="8.698211589660778"><ele>368.59999999999997</ele><time>2026-04-30T08:08:18.999Z</time></trkpt><trkpt lat="40.814232658202585" lon="8.698311974399052"><ele>368.79999999999995</ele><time>2026-04-30T08:08:19.999Z</time></trkpt><trkpt lat="40.81424853929917" lon="8.69842722077015"><ele>369.0</ele><time>2026-04-30T08:08:20.999Z</time></trkpt><trkpt lat="40.81427108368627" lon="8.698555917132659"><ele>368.0</ele><time>2026-04-30T08:08:21.999Z</time></trkpt><trkpt lat="40.81429690495305" lon="8.698695001931636"><ele>367.0</ele><time>2026-04-30T08:08:23Z</time></trkpt><trkpt lat="40.81432440765624" lon="8.698843035790347"><ele>366.0</ele><time>2026-04-30T08:08:24Z</time></trkpt><trkpt lat="40.81434880506107" lon="8.698995390654174"><ele>365.0</ele><time>2026-04-30T08:08:25Z</time></trkpt><trkpt lat="40.814372465476154" lon="8.699150361347865"><ele>365.75</ele><time>2026-04-30T08:08:26Z</time></trkpt><trkpt lat="40.814399685078314" lon="8.699309785435593"><ele>366.5</ele><time>2026-04-30T08:08:27Z</time></trkpt><trkpt lat="40.8144251913863" lon="8.699472118284119"><ele>367.25</ele><time>2026-04-30T08:08:28Z</time></trkpt><trkpt lat="40.8144529714806" lon="8.699621701365666"><ele>368.0</ele><time>2026-04-30T08:08:29Z</time></trkpt><trkpt lat="40.814479030988785" lon="8.69976767816256"><ele>368.0</ele><time>2026-04-30T08:08:30Z</time></trkpt><trkpt lat="40.81450165006209" lon="8.699902041245744"><ele>368.0</ele><time>2026-04-30T08:08:31Z</time></trkpt><trkpt lat="40.814521670458404" lon="8.7000329618769"><ele>368.0</ele><time>2026-04-30T08:08:32Z</time></trkpt><trkpt lat="40.81454504895806" lon="8.70013554154537"><ele>368.0</ele><time>2026-04-30T08:08:33Z</time></trkpt><trkpt lat="40.8145611397368" lon="8.700274992407225"><ele>368.0</ele><time>2026-04-30T08:08:34Z</time></trkpt><trkpt lat="40.81457832833697" lon="8.700386425983137"><ele>368.5</ele><time>2026-04-30T08:08:35Z</time></trkpt><trkpt lat="40.81459497333892" lon="8.700499380870209"><ele>369.0</ele><time>2026-04-30T08:08:36Z</time></trkpt><trkpt lat="40.81461139755076" lon="8.700615726945742"><ele>369.5</ele><time>2026-04-30T08:08:37Z</time></trkpt><trkpt lat="40.81462878740678" lon="8.700730373428556"><ele>370.0</ele><time>2026-04-30T08:08:38Z</time></trkpt><trkpt lat="40.81464904274717" lon="8.700846384133444"><ele>370.5</ele><time>2026-04-30T08:08:39Z</time></trkpt><trkpt lat="40.81467013292735" lon="8.700959771618555"><ele>371.0</ele><time>2026-04-30T08:08:40Z</time></trkpt><trkpt lat="40.81468792965716" lon="8.701072160100047"><ele>369.20000000000005</ele><time>2026-04-30T08:08:41Z</time></trkpt><trkpt lat="40.81470726184547" lon="8.70118674614342"><ele>367.40000000000003</ele><time>2026-04-30T08:08:42Z</time></trkpt><trkpt lat="40.81473914513593" lon="8.70129918914619"><ele>365.6</ele><time>2026-04-30T08:08:43Z</time></trkpt><trkpt lat="40.814790268412835" lon="8.70140776049121"><ele>363.8</ele><time>2026-04-30T08:08:44Z</time></trkpt><trkpt lat="40.81485970423779" lon="8.701507393325567"><ele>362.0</ele><time>2026-04-30T08:08:45Z</time></trkpt><trkpt lat="40.814947736878736" lon="8.701592064158136"><ele>362.0</ele><time>2026-04-30T08:08:46Z</time></trkpt><trkpt lat="40.81505414690579" lon="8.701659468025138"><ele>362.0</ele><time>2026-04-30T08:08:47Z</time></trkpt><trkpt lat="40.81517212540758" lon="8.701703784088185"><ele>362.0</ele><time>2026-04-30T08:08:48Z</time></trkpt><trkpt lat="40.815296461495564" lon="8.701710924171767"><ele>362.0</ele><time>2026-04-30T08:08:49Z</time></trkpt><trkpt lat="40.81542366992499" lon="8.701684205938268"><ele>362.75</ele><time>2026-04-30T08:08:50Z</time></trkpt><trkpt lat="40.8155499352189" lon="8.701641164254285"><ele>363.5</ele><time>2026-04-30T08:08:51Z</time></trkpt><trkpt lat="40.81567437657101" lon="8.701593943350598"><ele>364.25</ele><time>2026-04-30T08:08:52Z</time></trkpt><trkpt lat="40.81579140342647" lon="8.701553922138086"><ele>365.0</ele><time>2026-04-30T08:08:53Z</time></trkpt><trkpt lat="40.8159067218522" lon="8.70152604539784"><ele>364.25</ele><time>2026-04-30T08:08:54Z</time></trkpt><trkpt lat="40.816020959029906" lon="8.701524235146495"><ele>363.5</ele><time>2026-04-30T08:08:55Z</time></trkpt><trkpt lat="40.816137234867284" lon="8.701552323844766"><ele>362.75</ele><time>2026-04-30T08:08:56Z</time></trkpt><trkpt lat="40.8162491001227" lon="8.701608246234365"><ele>362.0</ele><time>2026-04-30T08:08:57Z</time></trkpt><trkpt lat="40.81635021349463" lon="8.701688917348402"><ele>362.0</ele><time>2026-04-30T08:08:58Z</time></trkpt><trkpt lat="40.81644102218029" lon="8.70179444460872"><ele>362.0</ele><time>2026-04-30T08:08:59Z</time></trkpt><trkpt lat="40.81651497012271" lon="8.701918039949245"><ele>362.0</ele><time>2026-04-30T08:09:00Z</time></trkpt><trkpt lat="40.81657016995199" lon="8.702058701544948"><ele>362.0</ele><time>2026-04-30T08:09:01Z</time></trkpt><trkpt lat="40.81661166164636" lon="8.702213043147099"><ele>361.0</ele><time>2026-04-30T08:09:02Z</time></trkpt><trkpt lat="40.81663497349043" lon="8.702382375841676"><ele>360.0</ele><time>2026-04-30T08:09:03Z</time></trkpt><trkpt lat="40.81664574056857" lon="8.702565833607167"><ele>359.0</ele><time>2026-04-30T08:09:04Z</time></trkpt><trkpt lat="40.81665119493161" lon="8.702754447520626"><ele>358.0</ele><time>2026-04-30T08:09:05Z</time></trkpt><trkpt lat="40.81665453546232" lon="8.702948200940995"><ele>357.5</ele><time>2026-04-30T08:09:06Z</time></trkpt><trkpt lat="40.816654573718736" lon="8.703144182314762"><ele>357.0</ele><time>2026-04-30T08:09:07Z</time></trkpt><trkpt lat="40.816655086921244" lon="8.703326741184721"><ele>356.5</ele><time>2026-04-30T08:09:08Z</time></trkpt><trkpt lat="40.816660017371746" lon="8.70349689154819"><ele>356.0</ele><time>2026-04-30T08:09:09Z</time></trkpt><trkpt lat="40.8166629164862" lon="8.703664952318812"><ele>357.75</ele><time>2026-04-30T08:09:10Z</time></trkpt><trkpt lat="40.816660375979545" lon="8.703824782981343"><ele>359.5</ele><time>2026-04-30T08:09:11Z</time></trkpt><trkpt lat="40.81664752330027" lon="8.703979208775388"><ele>361.25</ele><time>2026-04-30T08:09:12Z</time></trkpt><trkpt lat="40.816615967210716" lon="8.704135942072545"><ele>363.0</ele><time>2026-04-30T08:09:13Z</time></trkpt><trkpt lat="40.81656412138053" lon="8.704293885704276"><ele>366.0</ele><time>2026-04-30T08:09:14Z</time></trkpt><trkpt lat="40.81650358058659" lon="8.704448634274772"><ele>369.0</ele><time>2026-04-30T08:09:15Z</time></trkpt><trkpt lat="40.81644555432855" lon="8.704607790026344"><ele>372.0</ele><time>2026-04-30T08:09:16Z</time></trkpt><trkpt lat="40.816385015610635" lon="8.704773689166714"><ele>375.0</ele><time>2026-04-30T08:09:17Z</time></trkpt><trkpt lat="40.81632629408449" lon="8.704942879742534"><ele>375.0</ele><time>2026-04-30T08:09:18Z</time></trkpt><trkpt lat="40.81627263463352" lon="8.705111358513323"><ele>375.0</ele><time>2026-04-30T08:09:19Z</time></trkpt><trkpt lat="40.816216185341766" lon="8.705269723010225"><ele>375.0</ele><time>2026-04-30T08:09:20Z</time></trkpt><trkpt lat="40.816147683695675" lon="8.70540940198809"><ele>375.0</ele><time>2026-04-30T08:09:21Z</time></trkpt><trkpt lat="40.81606141004268" lon="8.705534528393702"><ele>374.25</ele><time>2026-04-30T08:09:22Z</time></trkpt><trkpt lat="40.815954701741866" lon="8.70562901289775"><ele>373.5</ele><time>2026-04-30T08:09:23Z</time></trkpt><trkpt lat="40.81583408879552" lon="8.70569182650543"><ele>372.75</ele><time>2026-04-30T08:09:24Z</time></trkpt><trkpt lat="40.81570841768016" lon="8.705731682948416"><ele>372.0</ele><time>2026-04-30T08:09:25Z</time></trkpt><trkpt lat="40.815583527879625" lon="8.7057684023859"><ele>372.0</ele><time>2026-04-30T08:09:26Z</time></trkpt><trkpt lat="40.81545666786503" lon="8.705808319312567"><ele>372.0</ele><time>2026-04-30T08:09:27Z</time></trkpt><trkpt lat="40.81533048130511" lon="8.705854258367992"><ele>372.0</ele><time>2026-04-30T08:09:28Z</time></trkpt><trkpt lat="40.81521832324576" lon="8.705905922990928"><ele>372.0</ele><time>2026-04-30T08:09:29Z</time></trkpt><trkpt lat="40.81512540159616" lon="8.705995049729959"><ele>371.75</ele><time>2026-04-30T08:09:30Z</time></trkpt><trkpt lat="40.81505601108376" lon="8.706114909608495"><ele>371.5</ele><time>2026-04-30T08:09:31Z</time></trkpt><trkpt lat="40.81501910444516" lon="8.70625356331798"><ele>371.25</ele><time>2026-04-30T08:09:32Z</time></trkpt><trkpt lat="40.8150182295725" lon="8.706404496998498"><ele>371.0</ele><time>2026-04-30T08:09:33Z</time></trkpt><trkpt lat="40.81504985491276" lon="8.706549539597255"><ele>371.0</ele><time>2026-04-30T08:09:34Z</time></trkpt><trkpt lat="40.81511260133971" lon="8.70668076569446"><ele>371.0</ele><time>2026-04-30T08:09:35Z</time></trkpt><trkpt lat="40.81519839393058" lon="8.706798562746297"><ele>371.0</ele><time>2026-04-30T08:09:36Z</time></trkpt><trkpt lat="40.81529964674122" lon="8.706910115753688"><ele>371.0</ele><time>2026-04-30T08:09:37Z</time></trkpt><trkpt lat="40.815403510738555" lon="8.707025763698331"><ele>373.25</ele><time>2026-04-30T08:09:38Z</time></trkpt><trkpt lat="40.81550520100493" lon="8.707154586463332"><ele>375.5</ele><time>2026-04-30T08:09:39Z</time></trkpt><trkpt lat="40.815609892888084" lon="8.70727985059028"><ele>377.75</ele><time>2026-04-30T08:09:40Z</time></trkpt><trkpt lat="40.815716833505356" lon="8.707407289682452"><ele>380.0</ele><time>2026-04-30T08:09:41Z</time></trkpt><trkpt lat="40.8158234922653" lon="8.707541946530508"><ele>380.0</ele><time>2026-04-30T08:09:42Z</time></trkpt><trkpt lat="40.815935121531375" lon="8.707677675164817"><ele>380.0</ele><time>2026-04-30T08:09:43Z</time></trkpt><trkpt lat="40.816049168847265" lon="8.70781015278737"><ele>380.0</ele><time>2026-04-30T08:09:44Z</time></trkpt><trkpt lat="40.81616493015188" lon="8.70794458631801"><ele>386.0</ele><time>2026-04-30T08:09:45Z</time></trkpt><trkpt lat="40.81627030615704" lon="8.708100416042498"><ele>392.0</ele><time>2026-04-30T08:09:46Z</time></trkpt><trkpt lat="40.81635128335071" lon="8.708281845130289"><ele>398.0</ele><time>2026-04-30T08:09:47Z</time></trkpt><trkpt lat="40.816416458006195" lon="8.708486529778655"><ele>397.0</ele><time>2026-04-30T08:09:48.001Z</time></trkpt><trkpt lat="40.816472903941154" lon="8.708707392481823"><ele>396.0</ele><time>2026-04-30T08:09:49.001Z</time></trkpt><trkpt lat="40.816519956849376" lon="8.70893087947937"><ele>395.0</ele><time>2026-04-30T08:09:50.001Z</time></trkpt><trkpt lat="40.81656296907081" lon="8.709146998322572"><ele>395.0</ele><time>2026-04-30T08:09:51.001Z</time></trkpt><trkpt lat="40.81661048106071" lon="8.709348994003808"><ele>395.0</ele><time>2026-04-30T08:09:52.001Z</time></trkpt><trkpt lat="40.81666149544901" lon="8.709542400641148"><ele>395.0</ele><time>2026-04-30T08:09:53.001Z</time></trkpt><trkpt lat="40.81670424103934" lon="8.709734810880871"><ele>395.25</ele><time>2026-04-30T08:09:54.001Z</time></trkpt><trkpt lat="40.81674474199802" lon="8.709922826348704"><ele>395.5</ele><time>2026-04-30T08:09:55.001Z</time></trkpt><trkpt lat="40.81678285941036" lon="8.71010619173149"><ele>395.75</ele><time>2026-04-30T08:09:56.001Z</time></trkpt><trkpt lat="40.816814240057475" lon="8.71029222701349"><ele>396.0</ele><time>2026-04-30T08:09:57.001Z</time></trkpt><trkpt lat="40.816834771288114" lon="8.710483760836743"><ele>403.0</ele><time>2026-04-30T08:09:58.001Z</time></trkpt><trkpt lat="40.8168483113658" lon="8.710674496349665"><ele>410.0</ele><time>2026-04-30T08:09:59.001Z</time></trkpt><trkpt lat="40.81686038190655" lon="8.710863287768806"><ele>417.0</ele><time>2026-04-30T08:10:00.001Z</time></trkpt><trkpt lat="40.816875206464864" lon="8.711049591634042"><ele>424.0</ele><time>2026-04-30T08:10:01.001Z</time></trkpt><trkpt lat="40.81689080768706" lon="8.711235223970295"><ele>425.0</ele><time>2026-04-30T08:10:02.001Z</time></trkpt><trkpt lat="40.81690482768632" lon="8.711417918968634"><ele>426.0</ele><time>2026-04-30T08:10:03.001Z</time></trkpt><trkpt lat="40.8169175092738" lon="8.711598742743494"><ele>427.0</ele><time>2026-04-30T08:10:04.001Z</time></trkpt><trkpt lat="40.81692756132429" lon="8.71177531851227"><ele>428.0</ele><time>2026-04-30T08:10:05.001Z</time></trkpt><trkpt lat="40.816933694687535" lon="8.71194035748163"><ele>429.5</ele><time>2026-04-30T08:10:05.999Z</time></trkpt><trkpt lat="40.816932892531504" lon="8.712101807853537"><ele>431.0</ele><time>2026-04-30T08:10:06.999Z</time></trkpt><trkpt lat="40.81691776534112" lon="8.712265427298084"><ele>432.5</ele><time>2026-04-30T08:10:07.999Z</time></trkpt><trkpt lat="40.81688881354893" lon="8.712427357869075"><ele>434.0</ele><time>2026-04-30T08:10:08.999Z</time></trkpt><trkpt lat="40.81685292596698" lon="8.712590569120641"><ele>429.5</ele><time>2026-04-30T08:10:09.999Z</time></trkpt><trkpt lat="40.8168147243747" lon="8.712756063739997"><ele>425.0</ele><time>2026-04-30T08:10:10.999Z</time></trkpt><trkpt lat="40.81677670262484" lon="8.712920360479384"><ele>420.5</ele><time>2026-04-30T08:10:11.999Z</time></trkpt><trkpt lat="40.81674039880557" lon="8.713084440350631"><ele>416.0</ele><time>2026-04-30T08:10:12.999Z</time></trkpt><trkpt lat="40.81670373466594" lon="8.713247652455989"><ele>416.0</ele><time>2026-04-30T08:10:13.999Z</time></trkpt><trkpt lat="40.816663994152144" lon="8.713409345837743"><ele>416.0</ele><time>2026-04-30T08:10:14.999Z</time></trkpt><trkpt lat="40.81662821656201" lon="8.71356775444504"><ele>416.0</ele><time>2026-04-30T08:10:15.999Z</time></trkpt><trkpt lat="40.8165964337774" lon="8.713719333779501"><ele>416.0</ele><time>2026-04-30T08:10:16.999Z</time></trkpt><trkpt lat="40.816563394913295" lon="8.713867277909968"><ele>418.0</ele><time>2026-04-30T08:10:17.999Z</time></trkpt><trkpt lat="40.81653699522852" lon="8.714014082250818"><ele>420.0</ele><time>2026-04-30T08:10:18.999Z</time></trkpt><trkpt lat="40.81651692599717" lon="8.714163743734701"><ele>422.0</ele><time>2026-04-30T08:10:19.999Z</time></trkpt><trkpt lat="40.81651634138977" lon="8.714318310529125"><ele>424.0</ele><time>2026-04-30T08:10:21Z</time></trkpt><trkpt lat="40.81653121376416" lon="8.714473184106037"><ele>424.0</ele><time>2026-04-30T08:10:22Z</time></trkpt><trkpt lat="40.81656385913618" lon="8.714634970917789"><ele>424.0</ele><time>2026-04-30T08:10:23Z</time></trkpt><trkpt lat="40.81660703914252" lon="8.714801804183246"><ele>424.0</ele><time>2026-04-30T08:10:24Z</time></trkpt><trkpt lat="40.81665422182955" lon="8.714963003707785"><ele>424.0</ele><time>2026-04-30T08:10:25Z</time></trkpt><trkpt lat="40.81669918879505" lon="8.715129494379484"><ele>423.75</ele><time>2026-04-30T08:10:26Z</time></trkpt><trkpt lat="40.81673956461727" lon="8.715297838742838"><ele>423.5</ele><time>2026-04-30T08:10:27Z</time></trkpt><trkpt lat="40.816786925809716" lon="8.715456574736507"><ele>423.25</ele><time>2026-04-30T08:10:28Z</time></trkpt><trkpt lat="40.816832941099726" lon="8.715612763089636"><ele>423.0</ele><time>2026-04-30T08:10:29Z</time></trkpt><trkpt lat="40.81688223029427" lon="8.715754389486378"><ele>429.0</ele><time>2026-04-30T08:10:30Z</time></trkpt><trkpt lat="40.81691011968213" lon="8.715908143645066"><ele>435.0</ele><time>2026-04-30T08:10:31Z</time></trkpt><trkpt lat="40.81695224886257" lon="8.716064767448572"><ele>441.0</ele><time>2026-04-30T08:10:32Z</time></trkpt><trkpt lat="40.816997463043315" lon="8.716229215651003"><ele>447.0</ele><time>2026-04-30T08:10:33Z</time></trkpt><trkpt lat="40.817063662777585" lon="8.71646339303286"><ele>447.0</ele><time>2026-04-30T08:10:34Z</time></trkpt><trkpt lat="40.81712126561803" lon="8.716644579496494"><ele>447.0</ele><time>2026-04-30T08:10:35Z</time></trkpt><trkpt lat="40.81724867833734" lon="8.716801655016274"><ele>447.0</ele><time>2026-04-30T08:10:36Z</time></trkpt><trkpt lat="40.8173738696515" lon="8.716984522751376"><ele>448.0</ele><time>2026-04-30T08:10:37Z</time></trkpt><trkpt lat="40.817505283721765" lon="8.717168518088762"><ele>449.0</ele><time>2026-04-30T08:10:38Z</time></trkpt><trkpt lat="40.81764007310191" lon="8.717348850461606"><ele>450.0</ele><time>2026-04-30T08:10:39Z</time></trkpt><trkpt lat="40.817772149579824" lon="8.717525556635673"><ele>450.0</ele><time>2026-04-30T08:10:40Z</time></trkpt><trkpt lat="40.818048892533135" lon="8.717509939987881"><ele>450.0</ele><time>2026-04-30T08:10:41Z</time></trkpt><trkpt lat="40.817905146474075" lon="8.717725608311046"><ele>450.0</ele><time>2026-04-30T08:10:42Z</time></trkpt><trkpt lat="40.81796807950341" lon="8.717888434887042"><ele>450.0</ele><time>2026-04-30T08:10:43Z</time></trkpt><trkpt lat="40.8180028422126" lon="8.718058930753115"><ele>450.0</ele><time>2026-04-30T08:10:44Z</time></trkpt><trkpt lat="40.8179645937228" lon="8.71825574290857"><ele>450.0</ele><time>2026-04-30T08:10:45Z</time></trkpt><trkpt lat="40.8179320978407" lon="8.718492275001413"><ele>453.0</ele><time>2026-04-30T08:10:46Z</time></trkpt><trkpt lat="40.81789641999946" lon="8.71873454342051"><ele>456.0</ele><time>2026-04-30T08:10:47Z</time></trkpt><trkpt lat="40.81787364520218" lon="8.718991837824264"><ele>459.0</ele><time>2026-04-30T08:10:48Z</time></trkpt><trkpt lat="40.81783115266762" lon="8.719256992274792"><ele>460.66666666666663</ele><time>2026-04-30T08:10:49Z</time></trkpt><trkpt lat="40.817778158987664" lon="8.719530169138862"><ele>462.3333333333333</ele><time>2026-04-30T08:10:50Z</time></trkpt><trkpt lat="40.81774209907154" lon="8.719813533346022"><ele>464.0</ele><time>2026-04-30T08:10:51Z</time></trkpt><trkpt lat="40.81773734782334" lon="8.720092593669385"><ele>464.0</ele><time>2026-04-30T08:10:52Z</time></trkpt><trkpt lat="40.81771992722559" lon="8.720362466196818"><ele>464.0</ele><time>2026-04-30T08:10:53Z</time></trkpt><trkpt lat="40.81770467677923" lon="8.720628802707738"><ele>464.0</ele><time>2026-04-30T08:10:54Z</time></trkpt><trkpt lat="40.81768875751318" lon="8.72088350365902"><ele>463.0</ele><time>2026-04-30T08:10:55Z</time></trkpt><trkpt lat="40.81767119349112" lon="8.721124785250076"><ele>462.0</ele><time>2026-04-30T08:10:56Z</time></trkpt><trkpt lat="40.81765602967334" lon="8.721362360395847"><ele>461.0</ele><time>2026-04-30T08:10:57Z</time></trkpt><trkpt lat="40.81764082687834" lon="8.721590844684155"><ele>459.3333333333333</ele><time>2026-04-30T08:10:58Z</time></trkpt><trkpt lat="40.81762830725146" lon="8.721809858975904"><ele>457.66666666666663</ele><time>2026-04-30T08:10:59Z</time></trkpt><trkpt lat="40.81761741400457" lon="8.722018706210886"><ele>456.0</ele><time>2026-04-30T08:11:00Z</time></trkpt><trkpt lat="40.81760488509678" lon="8.722223895222472"><ele>458.5</ele><time>2026-04-30T08:11:01Z</time></trkpt><trkpt lat="40.81759185711817" lon="8.722411439050804"><ele>461.0</ele><time>2026-04-30T08:11:02Z</time></trkpt><trkpt lat="40.81758019054697" lon="8.72258068531295"><ele>463.5</ele><time>2026-04-30T08:11:03Z</time></trkpt><trkpt lat="40.81756265967207" lon="8.722743500825183"><ele>466.0</ele><time>2026-04-30T08:11:04Z</time></trkpt><trkpt lat="40.81752910829297" lon="8.722892400961141"><ele>466.0</ele><time>2026-04-30T08:11:05Z</time></trkpt><trkpt lat="40.817480234872235" lon="8.723038956704427"><ele>466.0</ele><time>2026-04-30T08:11:06Z</time></trkpt><trkpt lat="40.817415052299" lon="8.723171576085116"><ele>466.0</ele><time>2026-04-30T08:11:07Z</time></trkpt><trkpt lat="40.81733527021304" lon="8.723289423289495"><ele>466.0</ele><time>2026-04-30T08:11:08Z</time></trkpt><trkpt lat="40.81725441104111" lon="8.723395271014159"><ele>466.0</ele><time>2026-04-30T08:11:09Z</time></trkpt><trkpt lat="40.81716954347092" lon="8.72349653568709"><ele>466.0</ele><time>2026-04-30T08:11:10Z</time></trkpt><trkpt lat="40.817084080045476" lon="8.72358877562316"><ele>466.0</ele><time>2026-04-30T08:11:11Z</time></trkpt><trkpt lat="40.81699937209199" lon="8.723672384182176"><ele>466.0</ele><time>2026-04-30T08:11:12Z</time></trkpt><trkpt lat="40.81691541300929" lon="8.723755809290822"><ele>466.0</ele><time>2026-04-30T08:11:13Z</time></trkpt><trkpt lat="40.81682320627189" lon="8.723825602515822"><ele>467.4</ele><time>2026-04-30T08:11:14Z</time></trkpt><trkpt lat="40.81672378625996" lon="8.723872585060684"><ele>468.8</ele><time>2026-04-30T08:11:15Z</time></trkpt><trkpt lat="40.816620826417505" lon="8.723898343310811"><ele>470.19999999999993</ele><time>2026-04-30T08:11:16Z</time></trkpt><trkpt lat="40.81651680381968" lon="8.72390954642712"><ele>471.59999999999997</ele><time>2026-04-30T08:11:17Z</time></trkpt><trkpt lat="40.816411604491506" lon="8.723919091424982"><ele>473.0</ele><time>2026-04-30T08:11:18Z</time></trkpt><trkpt lat="40.81630446560141" lon="8.723926472838151"><ele>473.0</ele><time>2026-04-30T08:11:19Z</time></trkpt><trkpt lat="40.81618975307838" lon="8.723935276090277"><ele>473.0</ele><time>2026-04-30T08:11:20Z</time></trkpt><trkpt lat="40.81606437494842" lon="8.7239488311247"><ele>473.0</ele><time>2026-04-30T08:11:21Z</time></trkpt><trkpt lat="40.8159357872813" lon="8.723963536248311"><ele>473.0</ele><time>2026-04-30T08:11:22Z</time></trkpt><trkpt lat="40.815812813725245" lon="8.723997793619917"><ele>475.75</ele><time>2026-04-30T08:11:23Z</time></trkpt><trkpt lat="40.81570500540418" lon="8.724068997884872"><ele>478.5</ele><time>2026-04-30T08:11:24Z</time></trkpt><trkpt lat="40.81561646628121" lon="8.724175409517422"><ele>481.25</ele><time>2026-04-30T08:11:25Z</time></trkpt><trkpt lat="40.81555925875898" lon="8.724307385076138"><ele>484.0</ele><time>2026-04-30T08:11:26Z</time></trkpt><trkpt lat="40.815535978107825" lon="8.724454990902434"><ele>485.0</ele><time>2026-04-30T08:11:27Z</time></trkpt><trkpt lat="40.815549099162986" lon="8.724606046947436"><ele>486.0</ele><time>2026-04-30T08:11:28.001Z</time></trkpt><trkpt lat="40.81559141732147" lon="8.724759299332872"><ele>487.0</ele><time>2026-04-30T08:11:29.001Z</time></trkpt><trkpt lat="40.81565696162581" lon="8.724911355098754"><ele>488.0</ele><time>2026-04-30T08:11:30.001Z</time></trkpt><trkpt lat="40.81573379144995" lon="8.725064572587467"><ele>488.0</ele><time>2026-04-30T08:11:31.001Z</time></trkpt><trkpt lat="40.81581865479513" lon="8.72522895893651"><ele>488.0</ele><time>2026-04-30T08:11:32.001Z</time></trkpt><trkpt lat="40.81590690975229" lon="8.725395063652236"><ele>488.0</ele><time>2026-04-30T08:11:33.001Z</time></trkpt><trkpt lat="40.81599555869707" lon="8.725560760933226"><ele>486.5</ele><time>2026-04-30T08:11:34.001Z</time></trkpt><trkpt lat="40.816081230204105" lon="8.725724648788464"><ele>485.0</ele><time>2026-04-30T08:11:35.001Z</time></trkpt><trkpt lat="40.81616464713156" lon="8.725884117464263"><ele>483.5</ele><time>2026-04-30T08:11:36.001Z</time></trkpt><trkpt lat="40.81624601162465" lon="8.726044175537194"><ele>482.0</ele><time>2026-04-30T08:11:37.001Z</time></trkpt><trkpt lat="40.81632679330126" lon="8.726204168299338"><ele>487.0</ele><time>2026-04-30T08:11:38.001Z</time></trkpt><trkpt lat="40.816405333699144" lon="8.726356298505026"><ele>492.0</ele><time>2026-04-30T08:11:39.001Z</time></trkpt><trkpt lat="40.81648344955307" lon="8.726506909497328"><ele>497.0</ele><time>2026-04-30T08:11:40.001Z</time></trkpt><trkpt lat="40.81655885709834" lon="8.726652649534001"><ele>502.0</ele><time>2026-04-30T08:11:41.001Z</time></trkpt><trkpt lat="40.81663492171192" lon="8.726793576428728"><ele>501.5</ele><time>2026-04-30T08:11:42.001Z</time></trkpt><trkpt lat="40.81671618771811" lon="8.726926647028796"><ele>501.0</ele><time>2026-04-30T08:11:43.001Z</time></trkpt><trkpt lat="40.81680694309011" lon="8.727048580922652"><ele>500.5</ele><time>2026-04-30T08:11:44.001Z</time></trkpt><trkpt lat="40.81690597432742" lon="8.727162122421877"><ele>500.0</ele><time>2026-04-30T08:11:45.001Z</time></trkpt><trkpt lat="40.81700873682794" lon="8.727269267189023"><ele>500.0</ele><time>2026-04-30T08:11:46.001Z</time></trkpt><trkpt lat="40.81711377982281" lon="8.727375175754112"><ele>500.0</ele><time>2026-04-30T08:11:47.001Z</time></trkpt><trkpt lat="40.81721851979769" lon="8.727481161485638"><ele>500.0</ele><time>2026-04-30T08:11:48.001Z</time></trkpt><trkpt lat="40.81732191096065" lon="8.727589381317221"><ele>500.0</ele><time>2026-04-30T08:11:49.001Z</time></trkpt><trkpt lat="40.817423666658115" lon="8.72769337794897"><ele>502.0</ele><time>2026-04-30T08:11:50.001Z</time></trkpt><trkpt lat="40.81752479717705" lon="8.727799008327743"><ele>504.0</ele><time>2026-04-30T08:11:51.001Z</time></trkpt><trkpt lat="40.81762526924212" lon="8.727901368124323"><ele>506.0</ele><time>2026-04-30T08:11:52.001Z</time></trkpt><trkpt lat="40.8177258401628" lon="8.728001781825967"><ele>508.0</ele><time>2026-04-30T08:11:53.001Z</time></trkpt><trkpt lat="40.8178225551507" lon="8.728099969332078"><ele>508.0</ele><time>2026-04-30T08:11:54.001Z</time></trkpt><trkpt lat="40.81791266721788" lon="8.728193896314487"><ele>508.0</ele><time>2026-04-30T08:11:55.001Z</time></trkpt><trkpt lat="40.81800466261879" lon="8.72829182731251"><ele>508.0</ele><time>2026-04-30T08:11:56.001Z</time></trkpt><trkpt lat="40.818099758684845" lon="8.728389782545467"><ele>508.0</ele><time>2026-04-30T08:11:57.001Z</time></trkpt><trkpt lat="40.81819766423531" lon="8.728484136274341"><ele>507.5</ele><time>2026-04-30T08:11:58.001Z</time></trkpt><trkpt lat="40.81829046434334" lon="8.728582632677552"><ele>507.0</ele><time>2026-04-30T08:11:59.001Z</time></trkpt><trkpt lat="40.81838331874199" lon="8.728681308821583"><ele>506.5</ele><time>2026-04-30T08:12:00.001Z</time></trkpt><trkpt lat="40.818476185923195" lon="8.728780764368175"><ele>506.0</ele><time>2026-04-30T08:12:01.001Z</time></trkpt><trkpt lat="40.81856565306088" lon="8.728884769611119"><ele>506.0</ele><time>2026-04-30T08:12:02.001Z</time></trkpt><trkpt lat="40.81864858396077" lon="8.728997143441049"><ele>506.0</ele><time>2026-04-30T08:12:03.001Z</time></trkpt><trkpt lat="40.818725235010525" lon="8.729122446517415"><ele>506.0</ele><time>2026-04-30T08:12:04.001Z</time></trkpt><trkpt lat="40.818795145851674" lon="8.729256487871266"><ele>506.0</ele><time>2026-04-30T08:12:05.001Z</time></trkpt><trkpt lat="40.81885945954021" lon="8.72939125209392"><ele>510.0</ele><time>2026-04-30T08:12:06.001Z</time></trkpt><trkpt lat="40.81892302935406" lon="8.729531060293276"><ele>514.0</ele><time>2026-04-30T08:12:07.001Z</time></trkpt><trkpt lat="40.81898603833414" lon="8.729669418370325"><ele>518.0</ele><time>2026-04-30T08:12:08.001Z</time></trkpt><trkpt lat="40.81905130017299" lon="8.729803145300522"><ele>522.0</ele><time>2026-04-30T08:12:09.001Z</time></trkpt><trkpt lat="40.81911306629862" lon="8.729930248691016"><ele>522.0</ele><time>2026-04-30T08:12:10.001Z</time></trkpt><trkpt lat="40.81916788659985" lon="8.730045549515898"><ele>522.0</ele><time>2026-04-30T08:12:11.001Z</time></trkpt><trkpt lat="40.8192187708822" lon="8.730153733270937"><ele>522.0</ele><time>2026-04-30T08:12:12Z</time></trkpt><trkpt lat="40.81926841548557" lon="8.730256584286089"><ele>522.0</ele><time>2026-04-30T08:12:13Z</time></trkpt><trkpt lat="40.81930592987041" lon="8.730344007381191"><ele>522.0</ele><time>2026-04-30T08:12:14Z</time></trkpt><trkpt lat="40.819340778516825" lon="8.730421380178369"><ele>522.0</ele><time>2026-04-30T08:12:15Z</time></trkpt><trkpt lat="40.81937449671512" lon="8.73054959895437"><ele>523.6</ele><time>2026-04-30T08:12:17Z</time></trkpt><trkpt lat="40.81937493872815" lon="8.730677557590946"><ele>525.2</ele><time>2026-04-30T08:12:19Z</time></trkpt><trkpt lat="40.81935143111539" lon="8.730768198312067"><ele>526.8</ele><time>2026-04-30T08:12:20Z</time></trkpt><trkpt lat="40.81929963113087" lon="8.730860873557363"><ele>528.4</ele><time>2026-04-30T08:12:21Z</time></trkpt><trkpt lat="40.81922076874278" lon="8.730938356298207"><ele>530.0</ele><time>2026-04-30T08:12:22Z</time></trkpt><trkpt lat="40.81912729290964" lon="8.730973715035184"><ele>531.5</ele><time>2026-04-30T08:12:23Z</time></trkpt><trkpt lat="40.81902215212442" lon="8.73097271513927"><ele>533.0</ele><time>2026-04-30T08:12:24Z</time></trkpt><trkpt lat="40.8189204256019" lon="8.730906248504601"><ele>534.5</ele><time>2026-04-30T08:12:25Z</time></trkpt><trkpt lat="40.81881173706156" lon="8.730849110208128"><ele>536.0</ele><time>2026-04-30T08:12:26Z</time></trkpt><trkpt lat="40.818692716531665" lon="8.730783316403599"><ele>536.0</ele><time>2026-04-30T08:12:27Z</time></trkpt><trkpt lat="40.81855847411887" lon="8.730732546169133"><ele>536.0</ele><time>2026-04-30T08:12:28Z</time></trkpt><trkpt lat="40.81842874786737" lon="8.730653860358952"><ele>536.0</ele><time>2026-04-30T08:12:29Z</time></trkpt><trkpt lat="40.818294258496984" lon="8.73058004894715"><ele>536.0</ele><time>2026-04-30T08:12:30Z</time></trkpt><trkpt lat="40.81815382641792" lon="8.730512556878168"><ele>537.0</ele><time>2026-04-30T08:12:31Z</time></trkpt><trkpt lat="40.81800202590425" lon="8.730468917682005"><ele>538.0</ele><time>2026-04-30T08:12:32Z</time></trkpt><trkpt lat="40.81784562314918" lon="8.730443575914197"><ele>539.0</ele><time>2026-04-30T08:12:33Z</time></trkpt><trkpt lat="40.81769956137233" lon="8.730438630311449"><ele>539.0</ele><time>2026-04-30T08:12:34Z</time></trkpt><trkpt lat="40.81756610141777" lon="8.73044742936117"><ele>539.0</ele><time>2026-04-30T08:12:35Z</time></trkpt><trkpt lat="40.817445899201715" lon="8.73046033114469"><ele>539.0</ele><time>2026-04-30T08:12:36Z</time></trkpt><trkpt lat="40.81733596765759" lon="8.73046540888598"><ele>539.0</ele><time>2026-04-30T08:12:37Z</time></trkpt><trkpt lat="40.81722683884928" lon="8.730477775989375"><ele>539.0</ele><time>2026-04-30T08:12:38Z</time></trkpt><trkpt lat="40.81712057809353" lon="8.73048240240837"><ele>539.0</ele><time>2026-04-30T08:12:39Z</time></trkpt><trkpt lat="40.81700487825362" lon="8.730489461704865"><ele>539.0</ele><time>2026-04-30T08:12:40Z</time></trkpt><trkpt lat="40.81688457037206" lon="8.730496675615063"><ele>539.0</ele><time>2026-04-30T08:12:41Z</time></trkpt><trkpt lat="40.816759695130855" lon="8.73052275996552"><ele>539.0</ele><time>2026-04-30T08:12:42Z</time></trkpt><trkpt lat="40.816635704280934" lon="8.73057782349097"><ele>539.0</ele><time>2026-04-30T08:12:43Z</time></trkpt><trkpt lat="40.81651960920499" lon="8.730664179629144"><ele>539.0</ele><time>2026-04-30T08:12:44Z</time></trkpt><trkpt lat="40.81640662604206" lon="8.730782594998754"><ele>539.0</ele><time>2026-04-30T08:12:45Z</time></trkpt><trkpt lat="40.816292063616785" lon="8.73092001779057"><ele>540.3333333333333</ele><time>2026-04-30T08:12:46Z</time></trkpt><trkpt lat="40.816171671998816" lon="8.731065242010533"><ele>541.6666666666666</ele><time>2026-04-30T08:12:47Z</time></trkpt><trkpt lat="40.81604365764652" lon="8.731219319962445"><ele>543.0</ele><time>2026-04-30T08:12:48Z</time></trkpt><trkpt lat="40.8159045595363" lon="8.731381215186394"><ele>543.0</ele><time>2026-04-30T08:12:49Z</time></trkpt><trkpt lat="40.815770042662706" lon="8.731542080379537"><ele>543.0</ele><time>2026-04-30T08:12:50Z</time></trkpt><trkpt lat="40.81564733270665" lon="8.731693969474597"><ele>543.0</ele><time>2026-04-30T08:12:51Z</time></trkpt><trkpt lat="40.81553262255899" lon="8.731833408906988"><ele>542.0</ele><time>2026-04-30T08:12:52Z</time></trkpt><trkpt lat="40.8154130526485" lon="8.73195476093651"><ele>541.0</ele><time>2026-04-30T08:12:53.001Z</time></trkpt><trkpt lat="40.81528608870549" lon="8.732046779613906"><ele>540.0</ele><time>2026-04-30T08:12:54.001Z</time></trkpt><trkpt lat="40.8151546635371" lon="8.732108097608979"><ele>539.0</ele><time>2026-04-30T08:12:55.001Z</time></trkpt><trkpt lat="40.81502220958286" lon="8.732123563574543"><ele>539.0</ele><time>2026-04-30T08:12:56.001Z</time></trkpt><trkpt lat="40.814879120050875" lon="8.732105406210575"><ele>539.0</ele><time>2026-04-30T08:12:57.001Z</time></trkpt><trkpt lat="40.81472197678956" lon="8.732077212976655"><ele>539.0</ele><time>2026-04-30T08:12:58.001Z</time></trkpt><trkpt lat="40.81456952557832" lon="8.732074042811833"><ele>539.0</ele><time>2026-04-30T08:12:59.001Z</time></trkpt><trkpt lat="40.814408482611675" lon="8.732081584861628"><ele>539.0</ele><time>2026-04-30T08:13:00.001Z</time></trkpt><trkpt lat="40.81424551968993" lon="8.732140781279869"><ele>539.0</ele><time>2026-04-30T08:13:01.001Z</time></trkpt><trkpt lat="40.814085176111554" lon="8.732211156824008"><ele>540.3333333333333</ele><time>2026-04-30T08:13:02.001Z</time></trkpt><trkpt lat="40.813922297085355" lon="8.73228554180298"><ele>541.6666666666666</ele><time>2026-04-30T08:13:03.001Z</time></trkpt><trkpt lat="40.81376075915728" lon="8.732358537879595"><ele>543.0</ele><time>2026-04-30T08:13:04.001Z</time></trkpt><trkpt lat="40.8136073499563" lon="8.732446581802733"><ele>545.3333333333334</ele><time>2026-04-30T08:13:05.001Z</time></trkpt><trkpt lat="40.813452436138" lon="8.732508735685144"><ele>547.6666666666667</ele><time>2026-04-30T08:13:06.001Z</time></trkpt><trkpt lat="40.813301212534995" lon="8.732573934406721"><ele>550.0</ele><time>2026-04-30T08:13:07.001Z</time></trkpt><trkpt lat="40.813160029679075" lon="8.732635055410237"><ele>550.0</ele><time>2026-04-30T08:13:08.001Z</time></trkpt><trkpt lat="40.81302945637622" lon="8.732695314049579"><ele>550.0</ele><time>2026-04-30T08:13:09.001Z</time></trkpt><trkpt lat="40.8129113304815" lon="8.73277885756706"><ele>550.0</ele><time>2026-04-30T08:13:10.001Z</time></trkpt><trkpt lat="40.812795863563856" lon="8.732882543593874"><ele>550.0</ele><time>2026-04-30T08:13:11.001Z</time></trkpt><trkpt lat="40.812733553814766" lon="8.733044177640378"><ele>547.75</ele><time>2026-04-30T08:13:12.001Z</time></trkpt><trkpt lat="40.81268328514062" lon="8.733203768095393"><ele>545.5</ele><time>2026-04-30T08:13:13.001Z</time></trkpt><trkpt lat="40.812666464364845" lon="8.733370555175615"><ele>543.25</ele><time>2026-04-30T08:13:14.001Z</time></trkpt><trkpt lat="40.81267892181674" lon="8.733536639156053"><ele>541.0</ele><time>2026-04-30T08:13:15.001Z</time></trkpt><trkpt lat="40.81272382978842" lon="8.733700866987343"><ele>541.0</ele><time>2026-04-30T08:13:16.001Z</time></trkpt><trkpt lat="40.812798512506546" lon="8.733850976273759"><ele>541.0</ele><time>2026-04-30T08:13:17.001Z</time></trkpt><trkpt lat="40.812897136595865" lon="8.733992639477886"><ele>541.0</ele><time>2026-04-30T08:13:18.001Z</time></trkpt><trkpt lat="40.81300237610721" lon="8.734136313418388"><ele>541.0</ele><time>2026-04-30T08:13:19.001Z</time></trkpt><trkpt lat="40.81310597922135" lon="8.734290573150249"><ele>542.75</ele><time>2026-04-30T08:13:20.001Z</time></trkpt><trkpt lat="40.81320640232169" lon="8.734437171561662"><ele>544.5</ele><time>2026-04-30T08:13:21.001Z</time></trkpt><trkpt lat="40.8133113896829" lon="8.73456787906825"><ele>546.25</ele><time>2026-04-30T08:13:22.001Z</time></trkpt><trkpt lat="40.81343118261358" lon="8.734677674791854"><ele>548.0</ele><time>2026-04-30T08:13:23.001Z</time></trkpt><trkpt lat="40.813571711327306" lon="8.734762585534089"><ele>548.0</ele><time>2026-04-30T08:13:24.001Z</time></trkpt><trkpt lat="40.8137261637673" lon="8.734843654742365"><ele>548.0</ele><time>2026-04-30T08:13:25.001Z</time></trkpt><trkpt lat="40.81387516288048" lon="8.734900554993104"><ele>548.0</ele><time>2026-04-30T08:13:26.001Z</time></trkpt><trkpt lat="40.81402260374132" lon="8.734952340917026"><ele>548.0</ele><time>2026-04-30T08:13:27.001Z</time></trkpt><trkpt lat="40.814168536397524" lon="8.735010320880976"><ele>548.0</ele><time>2026-04-30T08:13:28.001Z</time></trkpt><trkpt lat="40.8143098383537" lon="8.735067027935521"><ele>548.0</ele><time>2026-04-30T08:13:29.001Z</time></trkpt><trkpt lat="40.81444528648688" lon="8.735127309036267"><ele>548.0</ele><time>2026-04-30T08:13:30.001Z</time></trkpt><trkpt lat="40.81458485349801" lon="8.73517611680817"><ele>549.5</ele><time>2026-04-30T08:13:31.001Z</time></trkpt><trkpt lat="40.81472939063462" lon="8.735221809994723"><ele>551.0</ele><time>2026-04-30T08:13:32.001Z</time></trkpt><trkpt lat="40.81487238674739" lon="8.73528600730791"><ele>552.5</ele><time>2026-04-30T08:13:33.001Z</time></trkpt><trkpt lat="40.81500481538341" lon="8.735377928472511"><ele>554.0</ele><time>2026-04-30T08:13:34.001Z</time></trkpt><trkpt lat="40.81512548545979" lon="8.735486734559275"><ele>551.75</ele><time>2026-04-30T08:13:35.001Z</time></trkpt><trkpt lat="40.81522900399418" lon="8.735611295131584"><ele>549.5</ele><time>2026-04-30T08:13:36.001Z</time></trkpt><trkpt lat="40.81531433522134" lon="8.735751185741618"><ele>547.25</ele><time>2026-04-30T08:13:37.001Z</time></trkpt><trkpt lat="40.815386622639615" lon="8.73590310147953"><ele>545.0</ele><time>2026-04-30T08:13:38.001Z</time></trkpt><trkpt lat="40.81544403744715" lon="8.736062173571993"><ele>545.0</ele><time>2026-04-30T08:13:39.001Z</time></trkpt><trkpt lat="40.815478899934305" lon="8.736233636577186"><ele>545.0</ele><time>2026-04-30T08:13:40.001Z</time></trkpt><trkpt lat="40.81549306031505" lon="8.736413987859477"><ele>545.0</ele><time>2026-04-30T08:13:41.001Z</time></trkpt><trkpt lat="40.81549887378071" lon="8.73660935712085"><ele>545.0</ele><time>2026-04-30T08:13:42.001Z</time></trkpt><trkpt lat="40.815502985589575" lon="8.73680943293031"><ele>545.3333333333333</ele><time>2026-04-30T08:13:43.001Z</time></trkpt><trkpt lat="40.81550836799825" lon="8.73701669170265"><ele>545.6666666666666</ele><time>2026-04-30T08:13:44.001Z</time></trkpt><trkpt lat="40.815514610007874" lon="8.73722822322776"><ele>546.0</ele><time>2026-04-30T08:13:45.001Z</time></trkpt><trkpt lat="40.815520244802826" lon="8.737450006835694"><ele>546.0</ele><time>2026-04-30T08:13:46.001Z</time></trkpt><trkpt lat="40.815523215206234" lon="8.737673865355166"><ele>546.0</ele><time>2026-04-30T08:13:47.001Z</time></trkpt><trkpt lat="40.815521680032376" lon="8.737897890541461"><ele>546.0</ele><time>2026-04-30T08:13:48.001Z</time></trkpt><trkpt lat="40.81552259736227" lon="8.738123359174296"><ele>545.3333333333334</ele><time>2026-04-30T08:13:49.001Z</time></trkpt><trkpt lat="40.815524500058466" lon="8.738348047119487"><ele>544.6666666666667</ele><time>2026-04-30T08:13:50.001Z</time></trkpt><trkpt lat="40.81552667776402" lon="8.738564705472172"><ele>544.0</ele><time>2026-04-30T08:13:51.001Z</time></trkpt><trkpt lat="40.81552996229777" lon="8.738780136954022"><ele>543.3333333333334</ele><time>2026-04-30T08:13:52.001Z</time></trkpt><trkpt lat="40.815533851817214" lon="8.738992906116371"><ele>542.6666666666666</ele><time>2026-04-30T08:13:53.001Z</time></trkpt><trkpt lat="40.815537250783315" lon="8.739201895597274"><ele>542.0</ele><time>2026-04-30T08:13:54.001Z</time></trkpt><trkpt lat="40.81554140648188" lon="8.73940696627023"><ele>541.6666666666666</ele><time>2026-04-30T08:13:55.001Z</time></trkpt><trkpt lat="40.8155454455679" lon="8.739608680369821"><ele>541.3333333333334</ele><time>2026-04-30T08:13:56.001Z</time></trkpt><trkpt lat="40.81554879746937" lon="8.73980889921"><ele>541.0</ele><time>2026-04-30T08:13:57.001Z</time></trkpt><trkpt lat="40.81555135151738" lon="8.740005594114647"><ele>541.0</ele><time>2026-04-30T08:13:58.001Z</time></trkpt><trkpt lat="40.81555249655159" lon="8.740198126122177"><ele>541.0</ele><time>2026-04-30T08:13:59.001Z</time></trkpt><trkpt lat="40.8155541928582" lon="8.7403903111626"><ele>541.0</ele><time>2026-04-30T08:14:00.001Z</time></trkpt><trkpt lat="40.81555558522619" lon="8.740576031276028"><ele>541.0</ele><time>2026-04-30T08:14:01.001Z</time></trkpt><trkpt lat="40.81555760677012" lon="8.740760670750134"><ele>542.0</ele><time>2026-04-30T08:14:02.001Z</time></trkpt><trkpt lat="40.81555920048146" lon="8.740936456953616"><ele>543.0</ele><time>2026-04-30T08:14:03.001Z</time></trkpt><trkpt lat="40.81556170668643" lon="8.741102767276848"><ele>544.0</ele><time>2026-04-30T08:14:04.001Z</time></trkpt><trkpt lat="40.81556381670661" lon="8.741260345661612"><ele>545.0</ele><time>2026-04-30T08:14:05.001Z</time></trkpt><trkpt lat="40.8155649178368" lon="8.741407065778796"><ele>545.5</ele><time>2026-04-30T08:14:06.001Z</time></trkpt><trkpt lat="40.8155673704333" lon="8.741540402573635"><ele>546.0</ele><time>2026-04-30T08:14:07.001Z</time></trkpt><trkpt lat="40.81557233484994" lon="8.741668852501343"><ele>546.5</ele><time>2026-04-30T08:14:08.001Z</time></trkpt><trkpt lat="40.81557666694495" lon="8.741789693672706"><ele>547.0</ele><time>2026-04-30T08:14:09.001Z</time></trkpt><trkpt lat="40.81557816334884" lon="8.741890653458348"><ele>547.5</ele><time>2026-04-30T08:14:10.001Z</time></trkpt><trkpt lat="40.815576829721" lon="8.741990734603876"><ele>548.0</ele><time>2026-04-30T08:14:11.001Z</time></trkpt><trkpt lat="40.81557229999809" lon="8.742084733148276"><ele>548.6</ele><time>2026-04-30T08:14:12.001Z</time></trkpt><trkpt lat="40.81556426260765" lon="8.742211098717263"><ele>549.1999999999999</ele><time>2026-04-30T08:14:14.001Z</time></trkpt><trkpt lat="40.815585003353085" lon="8.742306047279591"><ele>549.8</ele><time>2026-04-30T08:14:23Z</time></trkpt><trkpt lat="40.81566600565827" lon="8.742367563381546"><ele>550.4</ele><time>2026-04-30T08:14:25Z</time></trkpt><trkpt lat="40.81575537169374" lon="8.742358005804919"><ele>551.0</ele><time>2026-04-30T08:14:26Z</time></trkpt><trkpt lat="40.815852073228065" lon="8.742349065838159"><ele>551.0</ele><time>2026-04-30T08:14:27Z</time></trkpt><trkpt lat="40.8159587644604" lon="8.742352634041195"><ele>551.0</ele><time>2026-04-30T08:14:28Z</time></trkpt><trkpt lat="40.81607472932842" lon="8.742357767991393"><ele>551.0</ele><time>2026-04-30T08:14:29Z</time></trkpt><trkpt lat="40.816202179979975" lon="8.742361884322667"><ele>551.0</ele><time>2026-04-30T08:14:30Z</time></trkpt><trkpt lat="40.81633693599521" lon="8.74235964170456"><ele>552.0</ele><time>2026-04-30T08:14:31Z</time></trkpt><trkpt lat="40.8164803980243" lon="8.742353532457802"><ele>553.0</ele><time>2026-04-30T08:14:32Z</time></trkpt><trkpt lat="40.816627997006144" lon="8.742352928507152"><ele>554.0</ele><time>2026-04-30T08:14:33Z</time></trkpt><trkpt lat="40.81677694239057" lon="8.742355989128303"><ele>555.0</ele><time>2026-04-30T08:14:34Z</time></trkpt><trkpt lat="40.81692904834304" lon="8.742358666288204"><ele>555.3333333333334</ele><time>2026-04-30T08:14:35Z</time></trkpt><trkpt lat="40.817084570200734" lon="8.742364340286654"><ele>555.6666666666667</ele><time>2026-04-30T08:14:36Z</time></trkpt><trkpt lat="40.81724413632099" lon="8.742382122329515"><ele>556.0</ele><time>2026-04-30T08:14:37Z</time></trkpt><trkpt lat="40.81739765969702" lon="8.742407496152223"><ele>556.0</ele><time>2026-04-30T08:14:38Z</time></trkpt><trkpt lat="40.81754455227618" lon="8.742432692904233"><ele>556.0</ele><time>2026-04-30T08:14:39Z</time></trkpt><trkpt lat="40.81769152408172" lon="8.742460510274046"><ele>556.0</ele><time>2026-04-30T08:14:40Z</time></trkpt><trkpt lat="40.81783908951205" lon="8.742496103068119"><ele>556.0</ele><time>2026-04-30T08:14:41Z</time></trkpt><trkpt lat="40.81798071567725" lon="8.7425334788444"><ele>554.0</ele><time>2026-04-30T08:14:42Z</time></trkpt><trkpt lat="40.818120266501424" lon="8.742567499182194"><ele>552.0</ele><time>2026-04-30T08:14:43Z</time></trkpt><trkpt lat="40.81826060991627" lon="8.74260097193362"><ele>550.0</ele><time>2026-04-30T08:14:44Z</time></trkpt><trkpt lat="40.81840348711805" lon="8.742633762157213"><ele>548.0</ele><time>2026-04-30T08:14:45Z</time></trkpt><trkpt lat="40.81854599672645" lon="8.742675468257401"><ele>549.5</ele><time>2026-04-30T08:14:46Z</time></trkpt><trkpt lat="40.818680124561" lon="8.742733140337194"><ele>551.0</ele><time>2026-04-30T08:14:47Z</time></trkpt><trkpt lat="40.81881035319998" lon="8.742809069102735"><ele>552.5</ele><time>2026-04-30T08:14:48Z</time></trkpt><trkpt lat="40.81893480769194" lon="8.742899124266293"><ele>554.0</ele><time>2026-04-30T08:14:49Z</time></trkpt><trkpt lat="40.81905638425371" lon="8.74299673188371"><ele>554.0</ele><time>2026-04-30T08:14:50Z</time></trkpt><trkpt lat="40.819176203098735" lon="8.743098759435435"><ele>554.0</ele><time>2026-04-30T08:14:51Z</time></trkpt><trkpt lat="40.81929693380849" lon="8.74320016991823"><ele>554.0</ele><time>2026-04-30T08:14:52Z</time></trkpt><trkpt lat="40.81941923622014" lon="8.743299654117497"><ele>554.0</ele><time>2026-04-30T08:14:53Z</time></trkpt><trkpt lat="40.81954674127869" lon="8.743405021533851"><ele>552.3333333333333</ele><time>2026-04-30T08:14:54Z</time></trkpt><trkpt lat="40.81967643327888" lon="8.743515794245207"><ele>550.6666666666666</ele><time>2026-04-30T08:14:55Z</time></trkpt><trkpt lat="40.81980991192987" lon="8.743630929799123"><ele>549.0</ele><time>2026-04-30T08:14:56Z</time></trkpt><trkpt lat="40.81994740958204" lon="8.743745599721796"><ele>549.0</ele><time>2026-04-30T08:14:57Z</time></trkpt><trkpt lat="40.82009054800112" lon="8.743864744130699"><ele>549.0</ele><time>2026-04-30T08:14:58Z</time></trkpt><trkpt lat="40.82023935371298" lon="8.74398522244301"><ele>549.0</ele><time>2026-04-30T08:14:59Z</time></trkpt><trkpt lat="40.82038716131438" lon="8.744105453806613"><ele>546.0</ele><time>2026-04-30T08:15:00Z</time></trkpt><trkpt lat="40.82053333020893" lon="8.744226394422181"><ele>543.0</ele><time>2026-04-30T08:15:01Z</time></trkpt><trkpt lat="40.82067891029703" lon="8.744347318378624"><ele>540.0</ele><time>2026-04-30T08:15:02Z</time></trkpt><trkpt lat="40.82082512265519" lon="8.744470524950195"><ele>540.0</ele><time>2026-04-30T08:15:03Z</time></trkpt><trkpt lat="40.82096754434419" lon="8.744591346595234"><ele>540.0</ele><time>2026-04-30T08:15:04Z</time></trkpt><trkpt lat="40.82111130067906" lon="8.744706856513025"><ele>540.0</ele><time>2026-04-30T08:15:05Z</time></trkpt><trkpt lat="40.821246483299866" lon="8.74481523773687"><ele>538.75</ele><time>2026-04-30T08:15:06Z</time></trkpt><trkpt lat="40.82137603230332" lon="8.744914198250473"><ele>537.5</ele><time>2026-04-30T08:15:07.001Z</time></trkpt><trkpt lat="40.82150367585423" lon="8.744998721618257"><ele>536.25</ele><time>2026-04-30T08:15:08.001Z</time></trkpt><trkpt lat="40.82163299433255" lon="8.745069462552495"><ele>535.0</ele><time>2026-04-30T08:15:09.001Z</time></trkpt><trkpt lat="40.821762478847475" lon="8.745123805155059"><ele>534.5</ele><time>2026-04-30T08:15:10.001Z</time></trkpt><trkpt lat="40.821894085871676" lon="8.745166760672284"><ele>534.0</ele><time>2026-04-30T08:15:11.001Z</time></trkpt><trkpt lat="40.82202865800119" lon="8.745201906407129"><ele>533.5</ele><time>2026-04-30T08:15:12.001Z</time></trkpt><trkpt lat="40.822163143831595" lon="8.745234297069452"><ele>533.0</ele><time>2026-04-30T08:15:13.001Z</time></trkpt><trkpt lat="40.82230355285368" lon="8.745263660605682"><ele>532.25</ele><time>2026-04-30T08:15:14.001Z</time></trkpt><trkpt lat="40.82244772382991" lon="8.745294467885635"><ele>531.5</ele><time>2026-04-30T08:15:15.001Z</time></trkpt><trkpt lat="40.82259497089282" lon="8.745328511616629"><ele>530.75</ele><time>2026-04-30T08:15:16.001Z</time></trkpt><trkpt lat="40.82274113314643" lon="8.74535981029843"><ele>530.0</ele><time>2026-04-30T08:15:17.001Z</time></trkpt><trkpt lat="40.822892442291014" lon="8.745391797805686"><ele>528.6666666666666</ele><time>2026-04-30T08:15:18.001Z</time></trkpt><trkpt lat="40.823047356343636" lon="8.745423382106052"><ele>527.3333333333334</ele><time>2026-04-30T08:15:19.001Z</time></trkpt><trkpt lat="40.823202526747004" lon="8.745455324910377"><ele>526.0</ele><time>2026-04-30T08:15:20.001Z</time></trkpt><trkpt lat="40.823356645949" lon="8.745489342708339"><ele>525.0</ele><time>2026-04-30T08:15:21.001Z</time></trkpt><trkpt lat="40.823511011076704" lon="8.745523800774494"><ele>524.0</ele><time>2026-04-30T08:15:22.001Z</time></trkpt><trkpt lat="40.823668810464035" lon="8.745555647595365"><ele>523.0</ele><time>2026-04-30T08:15:23.001Z</time></trkpt><trkpt lat="40.82382573130965" lon="8.745587310713406"><ele>523.0</ele><time>2026-04-30T08:15:24.001Z</time></trkpt><trkpt lat="40.823979188689755" lon="8.745618313933273"><ele>523.0</ele><time>2026-04-30T08:15:25.001Z</time></trkpt><trkpt lat="40.824127360558876" lon="8.745649951673728"><ele>523.0</ele><time>2026-04-30T08:15:26.001Z</time></trkpt><trkpt lat="40.82427661368917" lon="8.745683464832666"><ele>523.0</ele><time>2026-04-30T08:15:27.001Z</time></trkpt><trkpt lat="40.82442504959085" lon="8.745717401093357"><ele>523.0</ele><time>2026-04-30T08:15:28.001Z</time></trkpt><trkpt lat="40.824573291829935" lon="8.745751660823348"><ele>523.0</ele><time>2026-04-30T08:15:29.001Z</time></trkpt><trkpt lat="40.8247221025669" lon="8.745785952643065"><ele>523.0</ele><time>2026-04-30T08:15:30.001Z</time></trkpt><trkpt lat="40.8248671404536" lon="8.74582040747916"><ele>523.0</ele><time>2026-04-30T08:15:31.001Z</time></trkpt><trkpt lat="40.82500873683026" lon="8.74585646823425"><ele>523.0</ele><time>2026-04-30T08:15:32.001Z</time></trkpt><trkpt lat="40.82514482769791" lon="8.74589545283277"><ele>523.0</ele><time>2026-04-30T08:15:33.001Z</time></trkpt><trkpt lat="40.825269887036534" lon="8.745934928874252"><ele>522.0</ele><time>2026-04-30T08:15:34.001Z</time></trkpt><trkpt lat="40.82538297461424" lon="8.745970800817975"><ele>521.0</ele><time>2026-04-30T08:15:35.001Z</time></trkpt><trkpt lat="40.82548319622388" lon="8.746004856418482"><ele>520.0</ele><time>2026-04-30T08:15:36.001Z</time></trkpt><trkpt lat="40.825561202631526" lon="8.746033754061072"><ele>519.0</ele><time>2026-04-30T08:15:37.001Z</time></trkpt><trkpt lat="40.82565095192282" lon="8.746099044271057"><ele>518.0</ele><time>2026-04-30T08:15:39.001Z</time></trkpt><trkpt lat="40.825636570687905" lon="8.746226586788254"><ele>517.5</ele><time>2026-04-30T08:15:43.001Z</time></trkpt><trkpt lat="40.82560299721048" lon="8.746322887295825"><ele>517.0</ele><time>2026-04-30T08:15:45.001Z</time></trkpt><trkpt lat="40.825587251002666" lon="8.746409345218025"><ele>516.5</ele><time>2026-04-30T08:15:46.001Z</time></trkpt><trkpt lat="40.82555178614893" lon="8.74649921050474"><ele>516.0</ele><time>2026-04-30T08:15:47.001Z</time></trkpt><trkpt lat="40.82551493419674" lon="8.74660344069274"><ele>515.5</ele><time>2026-04-30T08:15:48.001Z</time></trkpt><trkpt lat="40.82547286981566" lon="8.746724611690096"><ele>515.0</ele><time>2026-04-30T08:15:49.001Z</time></trkpt><trkpt lat="40.8254221556622" lon="8.746856932373909"><ele>515.0</ele><time>2026-04-30T08:15:50.001Z</time></trkpt><trkpt lat="40.82536788828267" lon="8.747003455513338"><ele>515.0</ele><time>2026-04-30T08:15:51.001Z</time></trkpt><trkpt lat="40.82530702108338" lon="8.747157370629752"><ele>515.0</ele><time>2026-04-30T08:15:52.001Z</time></trkpt><trkpt lat="40.82525482662077" lon="8.747321447745518"><ele>515.0</ele><time>2026-04-30T08:15:53.001Z</time></trkpt><trkpt lat="40.82521174924273" lon="8.747470136775334"><ele>515.0</ele><time>2026-04-30T08:15:54.001Z</time></trkpt><trkpt lat="40.825164686887206" lon="8.747598344361109"><ele>515.0</ele><time>2026-04-30T08:15:55.001Z</time></trkpt><trkpt lat="40.82511293738413" lon="8.747710071085287"><ele>515.0</ele><time>2026-04-30T08:15:56.001Z</time></trkpt><trkpt lat="40.825046015282126" lon="8.747796768247557"><ele>515.0</ele><time>2026-04-30T08:15:57.001Z</time></trkpt><trkpt lat="40.82495772527994" lon="8.747848015940276"><ele>515.0</ele><time>2026-04-30T08:15:58.001Z</time></trkpt><trkpt lat="40.82486303430959" lon="8.747915259303827"><ele>515.0</ele><time>2026-04-30T08:15:59.001Z</time></trkpt><trkpt lat="40.82476238767297" lon="8.747993181410365"><ele>515.0</ele><time>2026-04-30T08:16:00.001Z</time></trkpt><trkpt lat="40.82467782726293" lon="8.748097472532487"><ele>515.0</ele><time>2026-04-30T08:16:01.001Z</time></trkpt><trkpt lat="40.824594236814725" lon="8.748191068531733"><ele>515.0</ele><time>2026-04-30T08:16:02.001Z</time></trkpt><trkpt lat="40.82452422716397" lon="8.74829429400889"><ele>515.0</ele><time>2026-04-30T08:16:03.001Z</time></trkpt><trkpt lat="40.82448136058512" lon="8.74840698834985"><ele>515.0</ele><time>2026-04-30T08:16:04.001Z</time></trkpt><trkpt lat="40.82446298121095" lon="8.748528449043175"><ele>515.0</ele><time>2026-04-30T08:16:05.001Z</time></trkpt><trkpt lat="40.824469612381804" lon="8.74866386638947"><ele>515.0</ele><time>2026-04-30T08:16:06.001Z</time></trkpt><trkpt lat="40.82446797944016" lon="8.748809765891554"><ele>515.0</ele><time>2026-04-30T08:16:07.001Z</time></trkpt><trkpt lat="40.82448164998715" lon="8.748958542761674"><ele>515.0</ele><time>2026-04-30T08:16:08.001Z</time></trkpt><trkpt lat="40.82450700911763" lon="8.749101531122552"><ele>514.8</ele><time>2026-04-30T08:16:09.001Z</time></trkpt><trkpt lat="40.82449662264869" lon="8.749239725746357"><ele>514.6</ele><time>2026-04-30T08:16:10.001Z</time></trkpt><trkpt lat="40.8244695214054" lon="8.749378985990878"><ele>514.4</ele><time>2026-04-30T08:16:11.001Z</time></trkpt><trkpt lat="40.82442584291143" lon="8.74951459632336"><ele>514.2</ele><time>2026-04-30T08:16:12.001Z</time></trkpt><trkpt lat="40.8243549141067" lon="8.7496315133443"><ele>514.0</ele><time>2026-04-30T08:16:13.001Z</time></trkpt><trkpt lat="40.82430775461167" lon="8.749767564866458"><ele>514.4</ele><time>2026-04-30T08:16:14.001Z</time></trkpt><trkpt lat="40.824253151832906" lon="8.749894656184303"><ele>514.8</ele><time>2026-04-30T08:16:15.001Z</time></trkpt><trkpt lat="40.82420337468666" lon="8.750020522549054"><ele>515.2</ele><time>2026-04-30T08:16:16.001Z</time></trkpt><trkpt lat="40.824157125702165" lon="8.750144448607438"><ele>515.6</ele><time>2026-04-30T08:16:17.001Z</time></trkpt><trkpt lat="40.824116839199014" lon="8.75026900644425"><ele>516.0</ele><time>2026-04-30T08:16:18.001Z</time></trkpt><trkpt lat="40.82407501762969" lon="8.75039123724687"><ele>517.4</ele><time>2026-04-30T08:16:19.001Z</time></trkpt><trkpt lat="40.82404134254027" lon="8.750512049806872"><ele>518.8</ele><time>2026-04-30T08:16:20.001Z</time></trkpt><trkpt lat="40.82400814989142" lon="8.750629707243727"><ele>520.1999999999999</ele><time>2026-04-30T08:16:21.001Z</time></trkpt><trkpt lat="40.82397246704945" lon="8.750742967295766"><ele>521.6</ele><time>2026-04-30T08:16:22.001Z</time></trkpt><trkpt lat="40.8239405936004" lon="8.750842204294123"><ele>523.0</ele><time>2026-04-30T08:16:23.001Z</time></trkpt><trkpt lat="40.82390900625185" lon="8.750946903516985"><ele>523.4</ele><time>2026-04-30T08:16:24.001Z</time></trkpt><trkpt lat="40.82387107019185" lon="8.751053386341503"><ele>523.8</ele><time>2026-04-30T08:16:25.001Z</time></trkpt><trkpt lat="40.82386163025786" lon="8.7511818944805"><ele>524.2</ele><time>2026-04-30T08:16:26.001Z</time></trkpt><trkpt lat="40.82385813420803" lon="8.751323979187356"><ele>524.6</ele><time>2026-04-30T08:16:27.001Z</time></trkpt><trkpt lat="40.823859367796864" lon="8.751472057753404"><ele>525.0</ele><time>2026-04-30T08:16:28.001Z</time></trkpt><trkpt lat="40.82386285696308" lon="8.751609992268037"><ele>525.0</ele><time>2026-04-30T08:16:29.001Z</time></trkpt><trkpt lat="40.82386487396949" lon="8.751739923621416"><ele>525.0</ele><time>2026-04-30T08:16:30.001Z</time></trkpt><trkpt lat="40.823864342849554" lon="8.751867421135293"><ele>525.0</ele><time>2026-04-30T08:16:31.001Z</time></trkpt><trkpt lat="40.823862297380394" lon="8.751982813075832"><ele>525.0</ele><time>2026-04-30T08:16:32.001Z</time></trkpt><trkpt lat="40.82385889328842" lon="8.752094169989778"><ele>525.0</ele><time>2026-04-30T08:16:33.001Z</time></trkpt><trkpt lat="40.82385778452099" lon="8.752203204611948"><ele>525.0</ele><time>2026-04-30T08:16:34.001Z</time></trkpt><trkpt lat="40.823856528823185" lon="8.752304729029577"><ele>525.2857142857143</ele><time>2026-04-30T08:16:35.001Z</time></trkpt><trkpt lat="40.823847727580876" lon="8.752397461474148"><ele>525.5714285714286</ele><time>2026-04-30T08:16:36.001Z</time></trkpt><trkpt lat="40.82382901130535" lon="8.752483694622262"><ele>525.8571428571429</ele><time>2026-04-30T08:16:37.001Z</time></trkpt><trkpt lat="40.8238043009737" lon="8.752567744008166"><ele>526.1428571428571</ele><time>2026-04-30T08:16:38.001Z</time></trkpt><trkpt lat="40.8237708583286" lon="8.752647803822992"><ele>526.4285714285714</ele><time>2026-04-30T08:16:39.001Z</time></trkpt><trkpt lat="40.82373971076164" lon="8.752736006176525"><ele>526.7142857142858</ele><time>2026-04-30T08:16:40.001Z</time></trkpt><trkpt lat="40.82370988455053" lon="8.752832127856387"><ele>527.0</ele><time>2026-04-30T08:16:41.001Z</time></trkpt><trkpt lat="40.8236960733757" lon="8.75295119468075"><ele>527.0</ele><time>2026-04-30T08:16:42.001Z</time></trkpt><trkpt lat="40.82369241297948" lon="8.753087552291104"><ele>527.0</ele><time>2026-04-30T08:16:43.001Z</time></trkpt><trkpt lat="40.823705454281026" lon="8.753225591151482"><ele>527.0</ele><time>2026-04-30T08:16:44.001Z</time></trkpt><trkpt lat="40.823723709243225" lon="8.753359372546402"><ele>527.0</ele><time>2026-04-30T08:16:45.001Z</time></trkpt><trkpt lat="40.82374130622558" lon="8.753494669527955"><ele>527.0</ele><time>2026-04-30T08:16:46.001Z</time></trkpt><trkpt lat="40.823759161787265" lon="8.7536325402003"><ele>526.4</ele><time>2026-04-30T08:16:47.001Z</time></trkpt><trkpt lat="40.82377395270828" lon="8.753766843248739"><ele>525.8000000000001</ele><time>2026-04-30T08:16:48.001Z</time></trkpt><trkpt lat="40.823779754038064" lon="8.753901330705778"><ele>525.2</ele><time>2026-04-30T08:16:49.001Z</time></trkpt><trkpt lat="40.82377896904091" lon="8.754039498063419"><ele>524.6</ele><time>2026-04-30T08:16:50.001Z</time></trkpt><trkpt lat="40.82377010542294" lon="8.754185937760635"><ele>524.0</ele><time>2026-04-30T08:16:51.001Z</time></trkpt><trkpt lat="40.82375706580572" lon="8.7543305699224"><ele>523.8</ele><time>2026-04-30T08:16:52.001Z</time></trkpt><trkpt lat="40.823744352963296" lon="8.754473144705452"><ele>523.5999999999999</ele><time>2026-04-30T08:16:53.001Z</time></trkpt><trkpt lat="40.823725287256224" lon="8.754609918945523"><ele>523.4</ele><time>2026-04-30T08:16:54.001Z</time></trkpt><trkpt lat="40.82369847626145" lon="8.754733802244763"><ele>523.1999999999999</ele><time>2026-04-30T08:16:55.001Z</time></trkpt><trkpt lat="40.82366907928452" lon="8.754844742880158"><ele>523.0</ele><time>2026-04-30T08:16:56.001Z</time></trkpt><trkpt lat="40.823639780803326" lon="8.75494110031239"><ele>522.9999999999999</ele><time>2026-04-30T08:16:57.001Z</time></trkpt><trkpt lat="40.823603700149" lon="8.755054808050753"><ele>523.0</ele><time>2026-04-30T08:16:59.001Z</time></trkpt><trkpt lat="40.823590300049176" lon="8.755137570674037"><ele>523.0</ele><time>2026-04-30T08:17:02.001Z</time></trkpt><trkpt lat="40.82353900088061" lon="8.755193957632443"><ele>523.0</ele><time>2026-04-30T08:19:15.001Z</time></trkpt><trkpt lat="40.823495248316505" lon="8.755261535569314"><ele>523.0</ele><time>2026-04-30T08:19:23.001Z</time></trkpt><trkpt lat="40.82345858594675" lon="8.755330335662894"><ele>522.9999999999999</ele><time>2026-04-30T08:19:32.001Z</time></trkpt><trkpt lat="40.82349857821765" lon="8.755265739470795"><ele>523.0</ele><time>2026-04-30T08:19:59.001Z</time></trkpt><trkpt lat="40.823536349127295" lon="8.755194571277237"><ele>523.0</ele><time>2026-04-30T08:20:08.001Z</time></trkpt><trkpt lat="40.82359546303973" lon="8.755160742035503"><ele>523.0</ele><time>2026-04-30T08:27:06Z</time></trkpt><trkpt lat="40.823615223730926" lon="8.755045702875835"><ele>523.0</ele><time>2026-04-30T08:29:31.999Z</time></trkpt><trkpt lat="40.82366820800667" lon="8.754898622359581"><ele>523.0</ele><time>2026-04-30T08:29:33.999Z</time></trkpt><trkpt lat="40.82369079077705" lon="8.754812945213057"><ele>523.0</ele><time>2026-04-30T08:29:34.999Z</time></trkpt><trkpt lat="40.823713960407126" lon="8.754711676944941"><ele>523.0</ele><time>2026-04-30T08:29:35.999Z</time></trkpt><trkpt lat="40.82373761218177" lon="8.754591093914037"><ele>523.0</ele><time>2026-04-30T08:29:36.999Z</time></trkpt><trkpt lat="40.82377587179678" lon="8.754460389869509"><ele>523.0</ele><time>2026-04-30T08:29:37.999Z</time></trkpt><trkpt lat="40.82377568254537" lon="8.754309998448948"><ele>523.0</ele><time>2026-04-30T08:29:38.999Z</time></trkpt><trkpt lat="40.82378787896567" lon="8.754168574537715"><ele>523.0</ele><time>2026-04-30T08:29:39.999Z</time></trkpt><trkpt lat="40.823797609670194" lon="8.754046196390115"><ele>523.0</ele><time>2026-04-30T08:29:40.999Z</time></trkpt><trkpt lat="40.82380326438323" lon="8.75393339752144"><ele>523.1666666666667</ele><time>2026-04-30T08:29:41.999Z</time></trkpt><trkpt lat="40.82381456024429" lon="8.753825828256737"><ele>523.3333333333334</ele><time>2026-04-30T08:29:42.999Z</time></trkpt><trkpt lat="40.82377598224713" lon="8.753722968859863"><ele>523.5</ele><time>2026-04-30T08:29:43.999Z</time></trkpt><trkpt lat="40.82377553898982" lon="8.753607973096937"><ele>523.6666666666666</ele><time>2026-04-30T08:29:44.999Z</time></trkpt><trkpt lat="40.82376566511198" lon="8.753499238916639"><ele>523.8333333333333</ele><time>2026-04-30T08:29:45.999Z</time></trkpt><trkpt lat="40.823754923738306" lon="8.753390678387243"><ele>524.0</ele><time>2026-04-30T08:29:46.999Z</time></trkpt><trkpt lat="40.823743568532336" lon="8.753279208994794"><ele>524.5</ele><time>2026-04-30T08:29:47.999Z</time></trkpt><trkpt lat="40.8237295515146" lon="8.753167148280877"><ele>525.0</ele><time>2026-04-30T08:29:48.999Z</time></trkpt><trkpt lat="40.82371525701511" lon="8.75305853685175"><ele>525.5</ele><time>2026-04-30T08:29:49.999Z</time></trkpt><trkpt lat="40.82369763197995" lon="8.75294815667656"><ele>526.0</ele><time>2026-04-30T08:29:50.999Z</time></trkpt><trkpt lat="40.82373406720165" lon="8.752847514434759"><ele>526.5</ele><time>2026-04-30T08:29:51.999Z</time></trkpt><trkpt lat="40.82376258511955" lon="8.752749845324868"><ele>527.0</ele><time>2026-04-30T08:29:52.999Z</time></trkpt><trkpt lat="40.82378261146714" lon="8.752654065534678"><ele>527.1666666666666</ele><time>2026-04-30T08:29:54Z</time></trkpt><trkpt lat="40.82381583895965" lon="8.752567065136597"><ele>527.3333333333333</ele><time>2026-04-30T08:29:55Z</time></trkpt><trkpt lat="40.823847401851815" lon="8.752473500639775"><ele>527.5</ele><time>2026-04-30T08:29:56Z</time></trkpt><trkpt lat="40.823883223378786" lon="8.75237411574237"><ele>527.6666666666666</ele><time>2026-04-30T08:29:57Z</time></trkpt><trkpt lat="40.82389385098136" lon="8.7522582114229"><ele>527.8333333333334</ele><time>2026-04-30T08:29:58Z</time></trkpt><trkpt lat="40.82387980376171" lon="8.752129304527903"><ele>528.0</ele><time>2026-04-30T08:29:59Z</time></trkpt><trkpt lat="40.8238749003263" lon="8.751986571572035"><ele>527.4</ele><time>2026-04-30T08:30:00Z</time></trkpt><trkpt lat="40.82387791086766" lon="8.751852491629299"><ele>526.8</ele><time>2026-04-30T08:30:01Z</time></trkpt><trkpt lat="40.8238750877634" lon="8.751713390834349"><ele>526.2</ele><time>2026-04-30T08:30:02Z</time></trkpt><trkpt lat="40.82387518292656" lon="8.751570313666384"><ele>525.6</ele><time>2026-04-30T08:30:03Z</time></trkpt><trkpt lat="40.823873481504165" lon="8.751436372323997"><ele>525.0</ele><time>2026-04-30T08:30:04Z</time></trkpt><trkpt lat="40.82387551193706" lon="8.751304083703287"><ele>525.0</ele><time>2026-04-30T08:30:05Z</time></trkpt><trkpt lat="40.82388503303696" lon="8.751176056235694"><ele>525.0</ele><time>2026-04-30T08:30:06Z</time></trkpt><trkpt lat="40.8239059339629" lon="8.751049758697036"><ele>525.0</ele><time>2026-04-30T08:30:07Z</time></trkpt><trkpt lat="40.82393811458859" lon="8.75092116407341"><ele>525.0</ele><time>2026-04-30T08:30:08Z</time></trkpt><trkpt lat="40.82397367314078" lon="8.750797061037568"><ele>525.0</ele><time>2026-04-30T08:30:09Z</time></trkpt><trkpt lat="40.824011563069114" lon="8.750673570528"><ele>524.6</ele><time>2026-04-30T08:30:10Z</time></trkpt><trkpt lat="40.824049704392664" lon="8.750540595444107"><ele>524.2</ele><time>2026-04-30T08:30:11Z</time></trkpt><trkpt lat="40.82408869551886" lon="8.750404172860087"><ele>523.8</ele><time>2026-04-30T08:30:12Z</time></trkpt><trkpt lat="40.82412991451182" lon="8.750267377066441"><ele>523.4</ele><time>2026-04-30T08:30:13Z</time></trkpt><trkpt lat="40.82417787055446" lon="8.750123379845007"><ele>523.0</ele><time>2026-04-30T08:30:14Z</time></trkpt><trkpt lat="40.824234551863746" lon="8.749978127747076"><ele>521.25</ele><time>2026-04-30T08:30:15Z</time></trkpt><trkpt lat="40.8242995377439" lon="8.749835946951782"><ele>519.5</ele><time>2026-04-30T08:30:16Z</time></trkpt><trkpt lat="40.824360309062556" lon="8.749701234818334"><ele>517.75</ele><time>2026-04-30T08:30:17Z</time></trkpt><trkpt lat="40.82441910523337" lon="8.749562068188832"><ele>516.0</ele><time>2026-04-30T08:30:18Z</time></trkpt><trkpt lat="40.82446916674298" lon="8.749432978407883"><ele>515.6</ele><time>2026-04-30T08:30:19Z</time></trkpt><trkpt lat="40.82450466228922" lon="8.749307366934115"><ele>515.2</ele><time>2026-04-30T08:30:20Z</time></trkpt><trkpt lat="40.824517761145216" lon="8.749180939701287"><ele>514.8</ele><time>2026-04-30T08:30:21Z</time></trkpt><trkpt lat="40.824514102519096" lon="8.74904101215107"><ele>514.4</ele><time>2026-04-30T08:30:22Z</time></trkpt><trkpt lat="40.824500119659675" lon="8.748898325784713"><ele>514.0</ele><time>2026-04-30T08:30:23Z</time></trkpt><trkpt lat="40.82448322441342" lon="8.748770743640158"><ele>514.0</ele><time>2026-04-30T08:30:24Z</time></trkpt><trkpt lat="40.82447654644887" lon="8.748651044608259"><ele>514.0</ele><time>2026-04-30T08:30:25Z</time></trkpt><trkpt lat="40.82448666065683" lon="8.748540971273929"><ele>514.0</ele><time>2026-04-30T08:30:26Z</time></trkpt><trkpt lat="40.8244857526612" lon="8.748441360745113"><ele>514.0</ele><time>2026-04-30T08:30:27Z</time></trkpt><trkpt lat="40.82452184355454" lon="8.748342781047107"><ele>514.0</ele><time>2026-04-30T08:30:28Z</time></trkpt><trkpt lat="40.82457173511947" lon="8.748249228133227"><ele>514.0</ele><time>2026-04-30T08:30:29Z</time></trkpt><trkpt lat="40.8246338338226" lon="8.748161388927688"><ele>514.2</ele><time>2026-04-30T08:30:30Z</time></trkpt><trkpt lat="40.82471125724334" lon="8.748085421827476"><ele>514.4</ele><time>2026-04-30T08:30:31Z</time></trkpt><trkpt lat="40.824795474820924" lon="8.748018069363624"><ele>514.6</ele><time>2026-04-30T08:30:32Z</time></trkpt><trkpt lat="40.824875355854076" lon="8.747960458942746"><ele>514.8</ele><time>2026-04-30T08:30:33Z</time></trkpt><trkpt lat="40.82495082987722" lon="8.747904077996258"><ele>515.0</ele><time>2026-04-30T08:30:34Z</time></trkpt><trkpt lat="40.825021118220285" lon="8.747849943855453"><ele>515.0</ele><time>2026-04-30T08:30:35Z</time></trkpt><trkpt lat="40.825085211139445" lon="8.747784966356674"><ele>515.0</ele><time>2026-04-30T08:30:36Z</time></trkpt><trkpt lat="40.82514169117265" lon="8.747702890951757"><ele>515.0</ele><time>2026-04-30T08:30:37Z</time></trkpt><trkpt lat="40.82518159361202" lon="8.747592184405974"><ele>515.0</ele><time>2026-04-30T08:30:38Z</time></trkpt><trkpt lat="40.825225346304016" lon="8.74744560177571"><ele>515.0</ele><time>2026-04-30T08:30:39Z</time></trkpt><trkpt lat="40.82527652738871" lon="8.747297160650087"><ele>515.0</ele><time>2026-04-30T08:30:40Z</time></trkpt><trkpt lat="40.825331282630955" lon="8.747144529886066"><ele>515.0</ele><time>2026-04-30T08:30:41Z</time></trkpt><trkpt lat="40.82539227791371" lon="8.746978916638302"><ele>515.0</ele><time>2026-04-30T08:30:42Z</time></trkpt><trkpt lat="40.82545326507819" lon="8.746830291723276"><ele>515.0</ele><time>2026-04-30T08:30:43Z</time></trkpt><trkpt lat="40.825508140518544" lon="8.746692284461838"><ele>515.0</ele><time>2026-04-30T08:30:44Z</time></trkpt><trkpt lat="40.825551813098365" lon="8.746567570023462"><ele>515.0</ele><time>2026-04-30T08:30:45Z</time></trkpt><trkpt lat="40.825589219092905" lon="8.746457394798263"><ele>515.0</ele><time>2026-04-30T08:30:46Z</time></trkpt><trkpt lat="40.82562011537355" lon="8.746360528145233"><ele>515.0</ele><time>2026-04-30T08:30:47Z</time></trkpt><trkpt lat="40.82565040382384" lon="8.746274003975644"><ele>515.0</ele><time>2026-04-30T08:30:48Z</time></trkpt><trkpt lat="40.82568887832558" lon="8.746205803702175"><ele>515.0</ele><time>2026-04-30T08:30:49Z</time></trkpt><trkpt lat="40.825729918019945" lon="8.74614126488406"><ele>515.0</ele><time>2026-04-30T08:30:51Z</time></trkpt><trkpt lat="40.82583767595305" lon="8.746099567560734"><ele>515.0</ele><time>2026-04-30T08:30:54Z</time></trkpt><trkpt lat="40.82592091617977" lon="8.746142758398996"><ele>515.0</ele><time>2026-04-30T08:30:55Z</time></trkpt><trkpt lat="40.82602788906948" lon="8.746186861125487"><ele>515.0</ele><time>2026-04-30T08:30:56Z</time></trkpt><trkpt lat="40.826158603028894" lon="8.746232628992574"><ele>515.0</ele><time>2026-04-30T08:30:57Z</time></trkpt><trkpt lat="40.826307881557646" lon="8.746281339457955"><ele>513.3333333333333</ele><time>2026-04-30T08:30:58Z</time></trkpt><trkpt lat="40.82647206954834" lon="8.746336059669297"><ele>511.66666666666663</ele><time>2026-04-30T08:30:59Z</time></trkpt><trkpt lat="40.82664793030603" lon="8.746397002501029"><ele>510.0</ele><time>2026-04-30T08:31:00Z</time></trkpt><trkpt lat="40.826832133309445" lon="8.74646495689045"><ele>508.66666666666663</ele><time>2026-04-30T08:31:01Z</time></trkpt><trkpt lat="40.8270295755711" lon="8.746531199780467"><ele>507.3333333333333</ele><time>2026-04-30T08:31:02Z</time></trkpt><trkpt lat="40.82723755098604" lon="8.746588476878872"><ele>506.0</ele><time>2026-04-30T08:31:03Z</time></trkpt><trkpt lat="40.82744299353101" lon="8.746629459815033"><ele>504.3333333333333</ele><time>2026-04-30T08:31:04Z</time></trkpt><trkpt lat="40.82765889809984" lon="8.746659525243233"><ele>502.66666666666663</ele><time>2026-04-30T08:31:05Z</time></trkpt><trkpt lat="40.8278837415057" lon="8.7466776622701"><ele>501.0</ele><time>2026-04-30T08:31:05.998Z</time></trkpt><trkpt lat="40.82812636130696" lon="8.74669480201447"><ele>501.0</ele><time>2026-04-30T08:31:06.998Z</time></trkpt><trkpt lat="40.828371080939945" lon="8.746705774269412"><ele>501.0</ele><time>2026-04-30T08:31:07.998Z</time></trkpt><trkpt lat="40.82860213542072" lon="8.746712794411703"><ele>499.33333333333337</ele><time>2026-04-30T08:31:08.998Z</time></trkpt><trkpt lat="40.82881844781638" lon="8.74671398722416"><ele>497.6666666666667</ele><time>2026-04-30T08:31:09.998Z</time></trkpt><trkpt lat="40.829026596842944" lon="8.746700072181422"><ele>496.0</ele><time>2026-04-30T08:31:10.998Z</time></trkpt><trkpt lat="40.8292185024243" lon="8.746676942005674"><ele>497.0</ele><time>2026-04-30T08:31:11.998Z</time></trkpt><trkpt lat="40.829403085308186" lon="8.74663441929499"><ele>498.0</ele><time>2026-04-30T08:31:12.998Z</time></trkpt><trkpt lat="40.82958648484974" lon="8.746568644607155"><ele>499.0</ele><time>2026-04-30T08:31:13.998Z</time></trkpt><trkpt lat="40.829766348657174" lon="8.746483719797281"><ele>499.0</ele><time>2026-04-30T08:31:14.998Z</time></trkpt><trkpt lat="40.829934581954355" lon="8.746392376976338"><ele>499.0</ele><time>2026-04-30T08:31:15.998Z</time></trkpt><trkpt lat="40.83010167715976" lon="8.746298681332213"><ele>499.0</ele><time>2026-04-30T08:31:16.998Z</time></trkpt><trkpt lat="40.83026846460726" lon="8.746202521794983"><ele>497.6666666666667</ele><time>2026-04-30T08:31:17.998Z</time></trkpt><trkpt lat="40.83043493146339" lon="8.746104779098703"><ele>496.33333333333337</ele><time>2026-04-30T08:31:18.999Z</time></trkpt><trkpt lat="40.83060087553094" lon="8.746006527393906"><ele>495.0</ele><time>2026-04-30T08:31:19.999Z</time></trkpt><trkpt lat="40.830763861585034" lon="8.74591338338391"><ele>495.0</ele><time>2026-04-30T08:31:20.999Z</time></trkpt><trkpt lat="40.83092632542509" lon="8.745825024546667"><ele>495.0</ele><time>2026-04-30T08:31:21.999Z</time></trkpt><trkpt lat="40.83108344974277" lon="8.74573635311572"><ele>495.0</ele><time>2026-04-30T08:31:22.999Z</time></trkpt><trkpt lat="40.83123193790241" lon="8.7456517274406"><ele>494.25</ele><time>2026-04-30T08:31:23.999Z</time></trkpt><trkpt lat="40.83137127115475" lon="8.745568507636207"><ele>493.5</ele><time>2026-04-30T08:31:24.999Z</time></trkpt><trkpt lat="40.831504649528675" lon="8.745487593613548"><ele>492.75</ele><time>2026-04-30T08:31:25.999Z</time></trkpt><trkpt lat="40.83164018532547" lon="8.745406072577286"><ele>492.0</ele><time>2026-04-30T08:31:26.999Z</time></trkpt><trkpt lat="40.831775952345886" lon="8.745322794066396"><ele>492.33333333333337</ele><time>2026-04-30T08:31:27.999Z</time></trkpt><trkpt lat="40.83191290153404" lon="8.74524007474197"><ele>492.6666666666667</ele><time>2026-04-30T08:31:28.999Z</time></trkpt><trkpt lat="40.83205116727712" lon="8.745158161391187"><ele>493.0</ele><time>2026-04-30T08:31:29.999Z</time></trkpt><trkpt lat="40.83218945645677" lon="8.745080187108739"><ele>493.0</ele><time>2026-04-30T08:31:30.999Z</time></trkpt><trkpt lat="40.832326956522614" lon="8.745001452096805"><ele>493.0</ele><time>2026-04-30T08:31:31.999Z</time></trkpt><trkpt lat="40.83246631285045" lon="8.74492062950192"><ele>493.0</ele><time>2026-04-30T08:31:32.999Z</time></trkpt><trkpt lat="40.83261133807738" lon="8.74483536516853"><ele>492.0</ele><time>2026-04-30T08:31:33.999Z</time></trkpt><trkpt lat="40.83276081016945" lon="8.744744346790078"><ele>491.0</ele><time>2026-04-30T08:31:34.999Z</time></trkpt><trkpt lat="40.83291820916943" lon="8.744651693083117"><ele>490.0</ele><time>2026-04-30T08:31:35.999Z</time></trkpt><trkpt lat="40.833090281106" lon="8.74455284092853"><ele>490.0</ele><time>2026-04-30T08:31:36.999Z</time></trkpt><trkpt lat="40.83326729257019" lon="8.744447211887383"><ele>490.0</ele><time>2026-04-30T08:31:37.999Z</time></trkpt><trkpt lat="40.83344616514647" lon="8.744335829195103"><ele>490.0</ele><time>2026-04-30T08:31:38.999Z</time></trkpt><trkpt lat="40.83362906468549" lon="8.744214992078817"><ele>490.6666666666667</ele><time>2026-04-30T08:31:39.999Z</time></trkpt><trkpt lat="40.833813666810876" lon="8.744084612843906"><ele>491.33333333333337</ele><time>2026-04-30T08:31:40.999Z</time></trkpt><trkpt lat="40.83400293167778" lon="8.743953459144281"><ele>492.0</ele><time>2026-04-30T08:31:41.999Z</time></trkpt><trkpt lat="40.8342012580217" lon="8.743814259488"><ele>490.5</ele><time>2026-04-30T08:31:42.999Z</time></trkpt><trkpt lat="40.83440150467071" lon="8.74367649932409"><ele>489.0</ele><time>2026-04-30T08:31:44Z</time></trkpt><trkpt lat="40.834604897606035" lon="8.743536650489567"><ele>492.0</ele><time>2026-04-30T08:31:45Z</time></trkpt><trkpt lat="40.834808733474176" lon="8.74339621492305"><ele>495.0</ele><time>2026-04-30T08:31:46Z</time></trkpt><trkpt lat="40.83501401405735" lon="8.743251864554022"><ele>494.33333333333337</ele><time>2026-04-30T08:31:47Z</time></trkpt><trkpt lat="40.83520779012694" lon="8.743119317395436"><ele>493.6666666666667</ele><time>2026-04-30T08:31:48Z</time></trkpt><trkpt lat="40.83540421265906" lon="8.74298584464154"><ele>493.0</ele><time>2026-04-30T08:31:49Z</time></trkpt><trkpt lat="40.83559944929738" lon="8.74285631159713"><ele>493.0</ele><time>2026-04-30T08:31:50Z</time></trkpt><trkpt lat="40.835791785257214" lon="8.74272973354572"><ele>493.0</ele><time>2026-04-30T08:31:51Z</time></trkpt><trkpt lat="40.835973246866466" lon="8.74260741587558"><ele>493.0</ele><time>2026-04-30T08:31:52Z</time></trkpt><trkpt lat="40.836145961850484" lon="8.742489944695508"><ele>494.33333333333337</ele><time>2026-04-30T08:31:53Z</time></trkpt><trkpt lat="40.83631048024593" lon="8.742377901473834"><ele>495.66666666666663</ele><time>2026-04-30T08:31:54Z</time></trkpt><trkpt lat="40.836460667678665" lon="8.74226560017188"><ele>497.0</ele><time>2026-04-30T08:31:55Z</time></trkpt><trkpt lat="40.83659908244155" lon="8.74214413280686"><ele>497.0</ele><time>2026-04-30T08:31:56Z</time></trkpt><trkpt lat="40.8367327892443" lon="8.7419968545865"><ele>497.0</ele><time>2026-04-30T08:31:57Z</time></trkpt><trkpt lat="40.836853443357775" lon="8.741816785708082"><ele>497.0</ele><time>2026-04-30T08:31:58Z</time></trkpt><trkpt lat="40.83696628639946" lon="8.741626486541723"><ele>496.3333333333333</ele><time>2026-04-30T08:31:59Z</time></trkpt><trkpt lat="40.8370696386718" lon="8.741430464675835"><ele>495.66666666666663</ele><time>2026-04-30T08:32:00Z</time></trkpt><trkpt lat="40.83716944742876" lon="8.741231835677821"><ele>495.0</ele><time>2026-04-30T08:32:01Z</time></trkpt><trkpt lat="40.83727170399207" lon="8.741035707057026"><ele>495.0</ele><time>2026-04-30T08:32:02Z</time></trkpt><trkpt lat="40.837373524978034" lon="8.740843567640924"><ele>495.0</ele><time>2026-04-30T08:32:03Z</time></trkpt><trkpt lat="40.83747211768831" lon="8.740649721914444"><ele>495.0</ele><time>2026-04-30T08:32:04Z</time></trkpt><trkpt lat="40.8375690071162" lon="8.740457061706136"><ele>494.33333333333337</ele><time>2026-04-30T08:32:05Z</time></trkpt><trkpt lat="40.83765864758234" lon="8.740273210431006"><ele>493.6666666666667</ele><time>2026-04-30T08:32:06Z</time></trkpt><trkpt lat="40.83775121359942" lon="8.740093321247349"><ele>493.0</ele><time>2026-04-30T08:32:07Z</time></trkpt><trkpt lat="40.83784030854567" lon="8.739918428358903"><ele>493.0</ele><time>2026-04-30T08:32:08Z</time></trkpt><trkpt lat="40.83793233758674" lon="8.739745996062569"><ele>493.0</ele><time>2026-04-30T08:32:09Z</time></trkpt><trkpt lat="40.838020374209485" lon="8.739579070798287"><ele>493.0</ele><time>2026-04-30T08:32:10Z</time></trkpt><trkpt lat="40.83810779606865" lon="8.73941696489615"><ele>490.75</ele><time>2026-04-30T08:32:11Z</time></trkpt><trkpt lat="40.83819395910307" lon="8.739257076350887"><ele>488.5</ele><time>2026-04-30T08:32:12Z</time></trkpt><trkpt lat="40.83828167604467" lon="8.739103899741293"><ele>486.25</ele><time>2026-04-30T08:32:13Z</time></trkpt><trkpt lat="40.83837166739166" lon="8.738972807469182"><ele>484.0</ele><time>2026-04-30T08:32:14Z</time></trkpt><trkpt lat="40.83846361300237" lon="8.73886037899867"><ele>484.75</ele><time>2026-04-30T08:32:15Z</time></trkpt><trkpt lat="40.83855847214147" lon="8.738758614908837"><ele>485.5</ele><time>2026-04-30T08:32:16Z</time></trkpt><trkpt lat="40.83865482213551" lon="8.738663554473675"><ele>486.25</ele><time>2026-04-30T08:32:17Z</time></trkpt><trkpt lat="40.838750846730306" lon="8.738574242661722"><ele>487.0</ele><time>2026-04-30T08:32:18Z</time></trkpt><trkpt lat="40.838844575649404" lon="8.738489302184217"><ele>485.20000000000005</ele><time>2026-04-30T08:32:19Z</time></trkpt><trkpt lat="40.83893549720573" lon="8.738405201568833"><ele>483.40000000000003</ele><time>2026-04-30T08:32:20Z</time></trkpt><trkpt lat="40.83902472326426" lon="8.738323269140087"><ele>481.59999999999997</ele><time>2026-04-30T08:32:21Z</time></trkpt><trkpt lat="40.83911359657824" lon="8.738242513281147"><ele>479.79999999999995</ele><time>2026-04-30T08:32:22Z</time></trkpt><trkpt lat="40.839203101165836" lon="8.738162519954882"><ele>478.0</ele><time>2026-04-30T08:32:23Z</time></trkpt><trkpt lat="40.83929750356131" lon="8.738076725540822"><ele>479.25</ele><time>2026-04-30T08:32:24Z</time></trkpt><trkpt lat="40.83939621411845" lon="8.737984874629413"><ele>480.5</ele><time>2026-04-30T08:32:25Z</time></trkpt><trkpt lat="40.83950101275442" lon="8.737886217049006"><ele>481.75</ele><time>2026-04-30T08:32:26Z</time></trkpt><trkpt lat="40.83960955262611" lon="8.737786868766626"><ele>483.0</ele><time>2026-04-30T08:32:27Z</time></trkpt><trkpt lat="40.83971895846815" lon="8.737698116633606"><ele>479.75</ele><time>2026-04-30T08:32:28Z</time></trkpt><trkpt lat="40.839834513016555" lon="8.737615684137415"><ele>476.5</ele><time>2026-04-30T08:32:29Z</time></trkpt><trkpt lat="40.839961817396194" lon="8.737533963149737"><ele>473.25</ele><time>2026-04-30T08:32:30Z</time></trkpt><trkpt lat="40.840097531693054" lon="8.73746037010711"><ele>470.0</ele><time>2026-04-30T08:32:31Z</time></trkpt><trkpt lat="40.84023955634204" lon="8.737396014638946"><ele>470.0</ele><time>2026-04-30T08:32:32Z</time></trkpt><trkpt lat="40.84038305404778" lon="8.737332053130578"><ele>470.0</ele><time>2026-04-30T08:32:33Z</time></trkpt><trkpt lat="40.84052173779005" lon="8.737267258357551"><ele>470.0</ele><time>2026-04-30T08:32:34Z</time></trkpt><trkpt lat="40.84065380106941" lon="8.737205512082024"><ele>470.0</ele><time>2026-04-30T08:32:35Z</time></trkpt><trkpt lat="40.8407804122205" lon="8.737146334096531"><ele>470.0</ele><time>2026-04-30T08:32:36Z</time></trkpt><trkpt lat="40.840906069911675" lon="8.737088712894824"><ele>470.0</ele><time>2026-04-30T08:32:37Z</time></trkpt><trkpt lat="40.841028988906714" lon="8.737033437241337"><ele>470.0</ele><time>2026-04-30T08:32:38.001Z</time></trkpt><trkpt lat="40.841148832975186" lon="8.736978661304367"><ele>470.0</ele><time>2026-04-30T08:32:39.001Z</time></trkpt><trkpt lat="40.84127148713127" lon="8.736921500851523"><ele>463.66666666666663</ele><time>2026-04-30T08:32:40.001Z</time></trkpt><trkpt lat="40.841406871248836" lon="8.736858869107452"><ele>457.33333333333337</ele><time>2026-04-30T08:32:41.001Z</time></trkpt><trkpt lat="40.8415535837907" lon="8.736789489881364"><ele>451.0</ele><time>2026-04-30T08:32:42.001Z</time></trkpt><trkpt lat="40.84170582377995" lon="8.736719076651225"><ele>452.6666666666667</ele><time>2026-04-30T08:32:43.001Z</time></trkpt><trkpt lat="40.84186515216015" lon="8.736646443417154"><ele>454.33333333333337</ele><time>2026-04-30T08:32:44.001Z</time></trkpt><trkpt lat="40.84202450013172" lon="8.73657610050283"><ele>456.0</ele><time>2026-04-30T08:32:45.001Z</time></trkpt><trkpt lat="40.8421808573779" lon="8.736506673954878"><ele>456.0</ele><time>2026-04-30T08:32:46.001Z</time></trkpt><trkpt lat="40.84233601638492" lon="8.736438135076533"><ele>456.0</ele><time>2026-04-30T08:32:47.001Z</time></trkpt><trkpt lat="40.84248879393306" lon="8.736367186345074"><ele>456.0</ele><time>2026-04-30T08:32:48.001Z</time></trkpt><trkpt lat="40.842637302297774" lon="8.736293396582063"><ele>457.33333333333337</ele><time>2026-04-30T08:32:49.001Z</time></trkpt><trkpt lat="40.84278245799076" lon="8.73622131061111"><ele>458.6666666666667</ele><time>2026-04-30T08:32:50.001Z</time></trkpt><trkpt lat="40.842925663818434" lon="8.736149258522575"><ele>460.0</ele><time>2026-04-30T08:32:51.001Z</time></trkpt><trkpt lat="40.84306597370619" lon="8.736080726583706"><ele>453.6666666666667</ele><time>2026-04-30T08:32:52.001Z</time></trkpt><trkpt lat="40.84320911861443" lon="8.736016179009773"><ele>447.33333333333337</ele><time>2026-04-30T08:32:53.001Z</time></trkpt><trkpt lat="40.84335983148465" lon="8.735960615745956"><ele>441.0</ele><time>2026-04-30T08:32:54.001Z</time></trkpt><trkpt lat="40.843516863818955" lon="8.735922565378003"><ele>441.0</ele><time>2026-04-30T08:32:55.001Z</time></trkpt><trkpt lat="40.84367259322482" lon="8.735896769380682"><ele>441.0</ele><time>2026-04-30T08:32:56.001Z</time></trkpt><trkpt lat="40.84382754438747" lon="8.735871768024927"><ele>441.0</ele><time>2026-04-30T08:32:57.001Z</time></trkpt><trkpt lat="40.8439799926165" lon="8.735852126777042"><ele>441.0</ele><time>2026-04-30T08:32:58.001Z</time></trkpt><trkpt lat="40.84412782949518" lon="8.735833924912908"><ele>441.0</ele><time>2026-04-30T08:32:59.001Z</time></trkpt><trkpt lat="40.84427018199964" lon="8.73581512257857"><ele>441.0</ele><time>2026-04-30T08:33:00.001Z</time></trkpt><trkpt lat="40.84440696001058" lon="8.735799119825318"><ele>441.0</ele><time>2026-04-30T08:33:01.001Z</time></trkpt><trkpt lat="40.84453533958132" lon="8.735798747586454"><ele>439.20000000000005</ele><time>2026-04-30T08:33:02.001Z</time></trkpt><trkpt lat="40.84465707905007" lon="8.735815748891458"><ele>437.40000000000003</ele><time>2026-04-30T08:33:03.001Z</time></trkpt><trkpt lat="40.84476765332457" lon="8.735800637857896"><ele>435.6</ele><time>2026-04-30T08:33:04.001Z</time></trkpt><trkpt lat="40.844866601233996" lon="8.735875091003711"><ele>433.8</ele><time>2026-04-30T08:33:05.001Z</time></trkpt><trkpt lat="40.844948521236745" lon="8.735932947673458"><ele>432.0</ele><time>2026-04-30T08:33:06.001Z</time></trkpt><trkpt lat="40.84501393138911" lon="8.736011098783045"><ele>432.6</ele><time>2026-04-30T08:33:07.001Z</time></trkpt><trkpt lat="40.84506708186529" lon="8.73611431634792"><ele>433.20000000000005</ele><time>2026-04-30T08:33:08.001Z</time></trkpt><trkpt lat="40.84512567294744" lon="8.736219399595482"><ele>433.8</ele><time>2026-04-30T08:33:09.001Z</time></trkpt><trkpt lat="40.84515007748487" lon="8.736369541335135"><ele>434.4</ele><time>2026-04-30T08:33:10.001Z</time></trkpt><trkpt lat="40.84517998270741" lon="8.73652342797807"><ele>435.0</ele><time>2026-04-30T08:33:11.001Z</time></trkpt><trkpt lat="40.84520540081735" lon="8.736685316842843"><ele>432.0</ele><time>2026-04-30T08:33:11.999Z</time></trkpt><trkpt lat="40.845237687069066" lon="8.736858804724108"><ele>429.0</ele><time>2026-04-30T08:33:12.999Z</time></trkpt><trkpt lat="40.84527268988825" lon="8.737042384240993"><ele>426.0</ele><time>2026-04-30T08:33:13.999Z</time></trkpt><trkpt lat="40.84530590001338" lon="8.737215990579935"><ele>423.0</ele><time>2026-04-30T08:33:14.999Z</time></trkpt><trkpt lat="40.84533814232908" lon="8.73737843277636"><ele>423.0</ele><time>2026-04-30T08:33:15.999Z</time></trkpt><trkpt lat="40.845366489527905" lon="8.73752896908924"><ele>423.0</ele><time>2026-04-30T08:33:16.999Z</time></trkpt><trkpt lat="40.84539376113448" lon="8.737664082897258"><ele>423.0</ele><time>2026-04-30T08:33:17.999Z</time></trkpt><trkpt lat="40.84541695693453" lon="8.737790244932992"><ele>423.0</ele><time>2026-04-30T08:33:18.999Z</time></trkpt><trkpt lat="40.845437790782604" lon="8.737904997048206"><ele>423.0</ele><time>2026-04-30T08:33:19.999Z</time></trkpt><trkpt lat="40.8454606966291" lon="8.738023394414036"><ele>423.8333333333333</ele><time>2026-04-30T08:33:20.999Z</time></trkpt><trkpt lat="40.845484456280836" lon="8.738143919150826"><ele>424.66666666666663</ele><time>2026-04-30T08:33:21.999Z</time></trkpt><trkpt lat="40.84550617088147" lon="8.73825754142577"><ele>425.5</ele><time>2026-04-30T08:33:22.999Z</time></trkpt><trkpt lat="40.845523310904156" lon="8.738361206909532"><ele>426.3333333333333</ele><time>2026-04-30T08:33:23.999Z</time></trkpt><trkpt lat="40.84553986560344" lon="8.738457152490726"><ele>427.16666666666663</ele><time>2026-04-30T08:33:24.999Z</time></trkpt><trkpt lat="40.84556086791285" lon="8.738550452983093"><ele>428.0</ele><time>2026-04-30T08:33:25.999Z</time></trkpt><trkpt lat="40.8455807928614" lon="8.738637166661336"><ele>428.8333333333333</ele><time>2026-04-30T08:33:26.999Z</time></trkpt><trkpt lat="40.845600899304515" lon="8.738731684633748"><ele>429.66666666666663</ele><time>2026-04-30T08:33:27.999Z</time></trkpt><trkpt lat="40.84561717199325" lon="8.738817029052601"><ele>430.5</ele><time>2026-04-30T08:33:28.999Z</time></trkpt><trkpt lat="40.84563273878859" lon="8.73890386222496"><ele>431.33333333333337</ele><time>2026-04-30T08:33:29.999Z</time></trkpt><trkpt lat="40.84565596164392" lon="8.739056683202076"><ele>432.1666666666667</ele><time>2026-04-30T08:33:31.999Z</time></trkpt><trkpt lat="40.845690824891854" lon="8.73920215909784"><ele>433.0</ele><time>2026-04-30T08:33:33.999Z</time></trkpt><trkpt lat="40.84572510785214" lon="8.739348017097482"><ele>433.33333333333337</ele><time>2026-04-30T08:33:35.999Z</time></trkpt><trkpt lat="40.845739251449096" lon="8.739430545189476"><ele>433.6666666666667</ele><time>2026-04-30T08:33:36.999Z</time></trkpt><trkpt lat="40.845751750463535" lon="8.73951273102914"><ele>434.0</ele><time>2026-04-30T08:33:38Z</time></trkpt><trkpt lat="40.84577712497976" lon="8.739686481841593"><ele>434.33333333333337</ele><time>2026-04-30T08:33:40Z</time></trkpt><trkpt lat="40.84579750717776" lon="8.739775715310406"><ele>434.6666666666667</ele><time>2026-04-30T08:33:41Z</time></trkpt><trkpt lat="40.84582167412316" lon="8.739878527661485"><ele>435.0</ele><time>2026-04-30T08:33:42Z</time></trkpt><trkpt lat="40.84584831141564" lon="8.740003331817324"><ele>435.0</ele><time>2026-04-30T08:33:43Z</time></trkpt><trkpt lat="40.84587433376302" lon="8.740153444604301"><ele>435.0</ele><time>2026-04-30T08:33:44Z</time></trkpt><trkpt lat="40.84589924575047" lon="8.74032123158414"><ele>435.0</ele><time>2026-04-30T08:33:45Z</time></trkpt><trkpt lat="40.84592273986781" lon="8.74050638512302"><ele>435.0</ele><time>2026-04-30T08:33:46Z</time></trkpt><trkpt lat="40.84594282511388" lon="8.740703414610062"><ele>435.33333333333337</ele><time>2026-04-30T08:33:47Z</time></trkpt><trkpt lat="40.845961276278786" lon="8.740916193847317"><ele>435.6666666666667</ele><time>2026-04-30T08:33:48Z</time></trkpt><trkpt lat="40.84597968405412" lon="8.7411381411882"><ele>436.0</ele><time>2026-04-30T08:33:49Z</time></trkpt><trkpt lat="40.846001185033046" lon="8.741370389010138"><ele>433.0</ele><time>2026-04-30T08:33:50Z</time></trkpt><trkpt lat="40.84602446315432" lon="8.741602105805017"><ele>430.0</ele><time>2026-04-30T08:33:51Z</time></trkpt><trkpt lat="40.84604746969629" lon="8.741833050739256"><ele>427.0</ele><time>2026-04-30T08:33:52Z</time></trkpt><trkpt lat="40.84607081588699" lon="8.742068215046505"><ele>427.0</ele><time>2026-04-30T08:33:53Z</time></trkpt><trkpt lat="40.846094813138706" lon="8.742310425262978"><ele>427.0</ele><time>2026-04-30T08:33:54Z</time></trkpt><trkpt lat="40.846114568221076" lon="8.74254864058634"><ele>427.0</ele><time>2026-04-30T08:33:55Z</time></trkpt><trkpt lat="40.84613365251346" lon="8.742793129737745"><ele>426.33333333333337</ele><time>2026-04-30T08:33:56Z</time></trkpt><trkpt lat="40.84615330887947" lon="8.743035099400869"><ele>425.66666666666663</ele><time>2026-04-30T08:33:57Z</time></trkpt><trkpt lat="40.846173792215474" lon="8.74326933651976"><ele>425.0</ele><time>2026-04-30T08:33:58Z</time></trkpt><trkpt lat="40.846194082701125" lon="8.743501664982135"><ele>423.66666666666663</ele><time>2026-04-30T08:33:59Z</time></trkpt><trkpt lat="40.846215767554256" lon="8.743719904474261"><ele>422.33333333333337</ele><time>2026-04-30T08:34:00Z</time></trkpt><trkpt lat="40.84624659299748" lon="8.743926532611516"><ele>421.0</ele><time>2026-04-30T08:34:01Z</time></trkpt><trkpt lat="40.84629240786007" lon="8.744128486859125"><ele>421.0</ele><time>2026-04-30T08:34:02Z</time></trkpt><trkpt lat="40.846353355662146" lon="8.744327194673703"><ele>421.0</ele><time>2026-04-30T08:34:03Z</time></trkpt><trkpt lat="40.84643229072677" lon="8.744521660052385"><ele>421.0</ele><time>2026-04-30T08:34:04Z</time></trkpt><trkpt lat="40.846531476290416" lon="8.74471103797809"><ele>421.6666666666667</ele><time>2026-04-30T08:34:05Z</time></trkpt><trkpt lat="40.84664210676134" lon="8.744893181965908"><ele>422.33333333333337</ele><time>2026-04-30T08:34:06Z</time></trkpt><trkpt lat="40.84675533982802" lon="8.745078709028045"><ele>423.0</ele><time>2026-04-30T08:34:07Z</time></trkpt><trkpt lat="40.84686661717597" lon="8.745264313551335"><ele>427.0</ele><time>2026-04-30T08:34:08Z</time></trkpt><trkpt lat="40.84697372876525" lon="8.745449860545955"><ele>431.0</ele><time>2026-04-30T08:34:09Z</time></trkpt><trkpt lat="40.847082938392276" lon="8.745620269788565"><ele>435.0</ele><time>2026-04-30T08:34:10Z</time></trkpt><trkpt lat="40.84719206978722" lon="8.745806638089775"><ele>435.0</ele><time>2026-04-30T08:34:11Z</time></trkpt><trkpt lat="40.84729081074469" lon="8.745976635490996"><ele>435.0</ele><time>2026-04-30T08:34:12Z</time></trkpt><trkpt lat="40.847386453316666" lon="8.74615152042407"><ele>435.0</ele><time>2026-04-30T08:34:13Z</time></trkpt><trkpt lat="40.84746072769624" lon="8.746328447392418"><ele>434.0</ele><time>2026-04-30T08:34:14Z</time></trkpt><trkpt lat="40.847534974025486" lon="8.746526095436453"><ele>433.0</ele><time>2026-04-30T08:34:15Z</time></trkpt><trkpt lat="40.847603602336825" lon="8.746731427264178"><ele>432.0</ele><time>2026-04-30T08:34:16Z</time></trkpt><trkpt lat="40.84765924085003" lon="8.746925414534708"><ele>432.0</ele><time>2026-04-30T08:34:17Z</time></trkpt><trkpt lat="40.84764686327797" lon="8.747032304402483"><ele>432.00000000000006</ele><time>2026-04-30T08:34:18Z</time></trkpt><trkpt lat="40.847673923697435" lon="8.74718208166507"><ele>432.00000000000006</ele><time>2026-04-30T08:34:19.001Z</time></trkpt><trkpt lat="40.84770032251776" lon="8.747327834697888"><ele>432.0</ele><time>2026-04-30T08:34:20.001Z</time></trkpt><trkpt lat="40.84773073525774" lon="8.74746692806309"><ele>432.0</ele><time>2026-04-30T08:34:21.001Z</time></trkpt><trkpt lat="40.84776022422778" lon="8.747599206154527"><ele>431.40000000000003</ele><time>2026-04-30T08:34:22.001Z</time></trkpt><trkpt lat="40.847788951633476" lon="8.747731478672181"><ele>430.80000000000007</ele><time>2026-04-30T08:34:23.001Z</time></trkpt><trkpt lat="40.84781548077529" lon="8.747863328938418"><ele>430.2</ele><time>2026-04-30T08:34:24.001Z</time></trkpt><trkpt lat="40.84784097819941" lon="8.747994650167275"><ele>429.6</ele><time>2026-04-30T08:34:25.001Z</time></trkpt><trkpt lat="40.84786765170839" lon="8.748127052269018"><ele>429.0</ele><time>2026-04-30T08:34:26.001Z</time></trkpt><trkpt lat="40.84789397049551" lon="8.74825598400602"><ele>429.0</ele><time>2026-04-30T08:34:27.001Z</time></trkpt><trkpt lat="40.847919201679716" lon="8.748382004876712"><ele>429.0</ele><time>2026-04-30T08:34:28.001Z</time></trkpt><trkpt lat="40.84794444805658" lon="8.748507261630563"><ele>429.0</ele><time>2026-04-30T08:34:29.001Z</time></trkpt><trkpt lat="40.84796982971018" lon="8.748629679089138"><ele>429.0</ele><time>2026-04-30T08:34:30.001Z</time></trkpt><trkpt lat="40.84799567880648" lon="8.7487489465857"><ele>429.0</ele><time>2026-04-30T08:34:31.001Z</time></trkpt><trkpt lat="40.84802060489979" lon="8.74886533097913"><ele>428.79999999999995</ele><time>2026-04-30T08:34:32.001Z</time></trkpt><trkpt lat="40.8480445216771" lon="8.74898004856639"><ele>428.59999999999997</ele><time>2026-04-30T08:34:33.001Z</time></trkpt><trkpt lat="40.848065304525804" lon="8.74909169611588"><ele>428.4</ele><time>2026-04-30T08:34:34.001Z</time></trkpt><trkpt lat="40.84808604498539" lon="8.749212624037751"><ele>428.2</ele><time>2026-04-30T08:34:35.001Z</time></trkpt><trkpt lat="40.84810667602076" lon="8.749329275322003"><ele>428.0</ele><time>2026-04-30T08:34:36.001Z</time></trkpt><trkpt lat="40.84812767278213" lon="8.74944468416009"><ele>427.66666666666663</ele><time>2026-04-30T08:34:37.001Z</time></trkpt><trkpt lat="40.84814541650243" lon="8.74955635617422"><ele>427.3333333333333</ele><time>2026-04-30T08:34:38.001Z</time></trkpt><trkpt lat="40.848164667797604" lon="8.749669470852318"><ele>427.0</ele><time>2026-04-30T08:34:39.001Z</time></trkpt><trkpt lat="40.848184816624965" lon="8.749779499237382"><ele>426.66666666666663</ele><time>2026-04-30T08:34:40.001Z</time></trkpt><trkpt lat="40.84820730916113" lon="8.749892430086597"><ele>426.3333333333333</ele><time>2026-04-30T08:34:41.001Z</time></trkpt><trkpt lat="40.848228675166084" lon="8.750009595283482"><ele>426.0</ele><time>2026-04-30T08:34:42.001Z</time></trkpt><trkpt lat="40.84825356754194" lon="8.750135650168245"><ele>425.0</ele><time>2026-04-30T08:34:43.001Z</time></trkpt><trkpt lat="40.84827597520039" lon="8.75026269661878"><ele>424.0</ele><time>2026-04-30T08:34:44.001Z</time></trkpt><trkpt lat="40.84829760403871" lon="8.750386924146106"><ele>423.0</ele><time>2026-04-30T08:34:45.001Z</time></trkpt><trkpt lat="40.84831818819261" lon="8.750509483024361"><ele>422.0</ele><time>2026-04-30T08:34:46.001Z</time></trkpt><trkpt lat="40.84833863207198" lon="8.750629470264764"><ele>421.0</ele><time>2026-04-30T08:34:47.001Z</time></trkpt><trkpt lat="40.848359259568774" lon="8.750743962318635"><ele>421.0</ele><time>2026-04-30T08:34:48.001Z</time></trkpt><trkpt lat="40.84838209954682" lon="8.750853793171528"><ele>421.0</ele><time>2026-04-30T08:34:49.001Z</time></trkpt><trkpt lat="40.84840518599149" lon="8.750962965555624"><ele>421.0</ele><time>2026-04-30T08:34:50.001Z</time></trkpt><trkpt lat="40.84842912949593" lon="8.751087817233437"><ele>421.0</ele><time>2026-04-30T08:34:51.001Z</time></trkpt><trkpt lat="40.84845102525319" lon="8.7512328232219"><ele>421.0</ele><time>2026-04-30T08:34:52.001Z</time></trkpt><trkpt lat="40.84848514328669" lon="8.751390004087309"><ele>419.75</ele><time>2026-04-30T08:34:53.001Z</time></trkpt><trkpt lat="40.848533130760536" lon="8.751546573752094"><ele>418.5</ele><time>2026-04-30T08:34:54.001Z</time></trkpt><trkpt lat="40.84859464462984" lon="8.751706683697869"><ele>417.25</ele><time>2026-04-30T08:34:55.001Z</time></trkpt><trkpt lat="40.84866345842262" lon="8.751869013154394"><ele>416.0</ele><time>2026-04-30T08:34:56.001Z</time></trkpt><trkpt lat="40.84873780172376" lon="8.752035450055926"><ele>414.3333333333333</ele><time>2026-04-30T08:34:57.001Z</time></trkpt><trkpt lat="40.848819072172425" lon="8.752205480412673"><ele>412.66666666666663</ele><time>2026-04-30T08:34:58.001Z</time></trkpt><trkpt lat="40.848900348252506" lon="8.752381794826078"><ele>411.0</ele><time>2026-04-30T08:34:59.001Z</time></trkpt><trkpt lat="40.84897770900513" lon="8.752555836607925"><ele>411.25</ele><time>2026-04-30T08:35:00.001Z</time></trkpt><trkpt lat="40.849056417045205" lon="8.752731253662272"><ele>411.5</ele><time>2026-04-30T08:35:01.001Z</time></trkpt><trkpt lat="40.84912692916265" lon="8.752895221113302"><ele>411.75</ele><time>2026-04-30T08:35:02.001Z</time></trkpt><trkpt lat="40.849195234466755" lon="8.753046536171563"><ele>412.0</ele><time>2026-04-30T08:35:03.001Z</time></trkpt><trkpt lat="40.84926216340406" lon="8.753189703757334"><ele>410.0</ele><time>2026-04-30T08:35:04.001Z</time></trkpt><trkpt lat="40.84932683971505" lon="8.75332618068806"><ele>408.0</ele><time>2026-04-30T08:35:05.001Z</time></trkpt><trkpt lat="40.84938465789675" lon="8.753456295359"><ele>406.0</ele><time>2026-04-30T08:35:06.001Z</time></trkpt><trkpt lat="40.84944092814621" lon="8.75358078293905"><ele>404.0</ele><time>2026-04-30T08:35:07.001Z</time></trkpt><trkpt lat="40.84949507286292" lon="8.753700218143042"><ele>403.6</ele><time>2026-04-30T08:35:08.001Z</time></trkpt><trkpt lat="40.84954589771072" lon="8.753818963027424"><ele>403.2</ele><time>2026-04-30T08:35:09.001Z</time></trkpt><trkpt lat="40.849591346561795" lon="8.753935550864647"><ele>402.8</ele><time>2026-04-30T08:35:10.002Z</time></trkpt><trkpt lat="40.849634405540094" lon="8.754049244058756"><ele>402.40000000000003</ele><time>2026-04-30T08:35:11.002Z</time></trkpt><trkpt lat="40.84967304589044" lon="8.754162485630276"><ele>402.0</ele><time>2026-04-30T08:35:12.002Z</time></trkpt><trkpt lat="40.849703072688186" lon="8.754276946400019"><ele>402.3333333333333</ele><time>2026-04-30T08:35:13.002Z</time></trkpt><trkpt lat="40.84972641028953" lon="8.754388660661181"><ele>402.66666666666663</ele><time>2026-04-30T08:35:14.002Z</time></trkpt><trkpt lat="40.84974787130623" lon="8.754505781039466"><ele>403.0</ele><time>2026-04-30T08:35:15.002Z</time></trkpt><trkpt lat="40.84976647902249" lon="8.754620879201836"><ele>403.3333333333333</ele><time>2026-04-30T08:35:16.002Z</time></trkpt><trkpt lat="40.84977848303266" lon="8.7547364777759"><ele>403.66666666666663</ele><time>2026-04-30T08:35:17.002Z</time></trkpt><trkpt lat="40.84978494436748" lon="8.754852419870142"><ele>404.0</ele><time>2026-04-30T08:35:18Z</time></trkpt><trkpt lat="40.84979280333367" lon="8.754967810652227"><ele>403.99999999999994</ele><time>2026-04-30T08:35:19Z</time></trkpt><trkpt lat="40.849801769425184" lon="8.755082119355416"><ele>404.0</ele><time>2026-04-30T08:35:20Z</time></trkpt><trkpt lat="40.84981203639399" lon="8.75519629305253"><ele>404.0</ele><time>2026-04-30T08:35:21Z</time></trkpt><trkpt lat="40.84982404019778" lon="8.755311011466675"><ele>404.0</ele><time>2026-04-30T08:35:22Z</time></trkpt><trkpt lat="40.84983436785226" lon="8.755423033171052"><ele>403.99999999999994</ele><time>2026-04-30T08:35:23Z</time></trkpt><trkpt lat="40.849845523983916" lon="8.755542470745635"><ele>404.0</ele><time>2026-04-30T08:35:24Z</time></trkpt><trkpt lat="40.84985640721154" lon="8.755665695927314"><ele>402.75</ele><time>2026-04-30T08:35:25Z</time></trkpt><trkpt lat="40.84986867629995" lon="8.755804520608747"><ele>401.5</ele><time>2026-04-30T08:35:26Z</time></trkpt><trkpt lat="40.849883863673035" lon="8.755951095442644"><ele>400.25</ele><time>2026-04-30T08:35:27Z</time></trkpt><trkpt lat="40.84990549405469" lon="8.756109794552248"><ele>399.0</ele><time>2026-04-30T08:35:28Z</time></trkpt><trkpt lat="40.84993335533593" lon="8.756280246526648"><ele>396.66666666666663</ele><time>2026-04-30T08:35:29Z</time></trkpt><trkpt lat="40.84997489913735" lon="8.756463326877991"><ele>394.3333333333333</ele><time>2026-04-30T08:35:30Z</time></trkpt><trkpt lat="40.85003650080434" lon="8.756671810235897"><ele>392.0</ele><time>2026-04-30T08:35:31Z</time></trkpt><trkpt lat="40.85010220334996" lon="8.756889978147795"><ele>389.66666666666663</ele><time>2026-04-30T08:35:32Z</time></trkpt><trkpt lat="40.85017117448813" lon="8.757108122683087"><ele>387.33333333333337</ele><time>2026-04-30T08:35:33Z</time></trkpt><trkpt lat="40.85024666222246" lon="8.757331771541475"><ele>385.0</ele><time>2026-04-30T08:35:34Z</time></trkpt><trkpt lat="40.85032582886488" lon="8.757562627737562"><ele>385.33333333333337</ele><time>2026-04-30T08:35:35Z</time></trkpt><trkpt lat="40.85040362707146" lon="8.75779434731502"><ele>385.66666666666663</ele><time>2026-04-30T08:35:36Z</time></trkpt><trkpt lat="40.850478925071585" lon="8.758022170891604"><ele>386.0</ele><time>2026-04-30T08:35:37Z</time></trkpt><trkpt lat="40.850551591124216" lon="8.758244571645387"><ele>386.0</ele><time>2026-04-30T08:35:38Z</time></trkpt><trkpt lat="40.850623373557845" lon="8.758464991984996"><ele>386.0</ele><time>2026-04-30T08:35:39Z</time></trkpt><trkpt lat="40.8506960175531" lon="8.7586825506042"><ele>386.0</ele><time>2026-04-30T08:35:40Z</time></trkpt><trkpt lat="40.85076608325413" lon="8.758898310652365"><ele>385.66666666666663</ele><time>2026-04-30T08:35:41Z</time></trkpt><trkpt lat="40.85083560028966" lon="8.7591123962786"><ele>385.33333333333337</ele><time>2026-04-30T08:35:42Z</time></trkpt><trkpt lat="40.85090761317954" lon="8.759318197351341"><ele>385.0</ele><time>2026-04-30T08:35:43Z</time></trkpt><trkpt lat="40.85098156784192" lon="8.759522099958142"><ele>384.6666666666667</ele><time>2026-04-30T08:35:44Z</time></trkpt><trkpt lat="40.85105211792664" lon="8.759728248266798"><ele>384.33333333333337</ele><time>2026-04-30T08:35:45.001Z</time></trkpt><trkpt lat="40.851121723081796" lon="8.759941174047006"><ele>384.0</ele><time>2026-04-30T08:35:46.001Z</time></trkpt><trkpt lat="40.85118796418081" lon="8.760150293956578"><ele>385.33333333333337</ele><time>2026-04-30T08:35:47.001Z</time></trkpt><trkpt lat="40.85125172105434" lon="8.760350886023048"><ele>386.6666666666667</ele><time>2026-04-30T08:35:48.001Z</time></trkpt><trkpt lat="40.85131447163061" lon="8.760551693706681"><ele>388.0</ele><time>2026-04-30T08:35:49.001Z</time></trkpt><trkpt lat="40.85137789174551" lon="8.760747789737211"><ele>388.0</ele><time>2026-04-30T08:35:50.001Z</time></trkpt><trkpt lat="40.85143838079868" lon="8.760935367990792"><ele>388.0</ele><time>2026-04-30T08:35:51.001Z</time></trkpt><trkpt lat="40.85149580910896" lon="8.761120044375035"><ele>388.0</ele><time>2026-04-30T08:35:52.001Z</time></trkpt><trkpt lat="40.85155574576066" lon="8.761310895826217"><ele>388.0</ele><time>2026-04-30T08:35:53.001Z</time></trkpt><trkpt lat="40.85161943462816" lon="8.76151682317404"><ele>388.0</ele><time>2026-04-30T08:35:54.001Z</time></trkpt><trkpt lat="40.85169220456089" lon="8.761708230865368"><ele>388.0</ele><time>2026-04-30T08:35:55.001Z</time></trkpt><trkpt lat="40.851768861512895" lon="8.761901796529983"><ele>388.6666666666667</ele><time>2026-04-30T08:35:56.001Z</time></trkpt><trkpt lat="40.8518532308923" lon="8.762091624028555"><ele>389.33333333333337</ele><time>2026-04-30T08:35:57.001Z</time></trkpt><trkpt lat="40.85194512020488" lon="8.76227665616082"><ele>390.0</ele><time>2026-04-30T08:35:58.001Z</time></trkpt><trkpt lat="40.85204377643567" lon="8.76246045523379"><ele>390.0</ele><time>2026-04-30T08:35:59.001Z</time></trkpt><trkpt lat="40.85215568932338" lon="8.762641294039778"><ele>390.0</ele><time>2026-04-30T08:36:00.001Z</time></trkpt><trkpt lat="40.85228145670936" lon="8.762814072941456"><ele>390.0</ele><time>2026-04-30T08:36:01.001Z</time></trkpt><trkpt lat="40.85241885293852" lon="8.762983343906585"><ele>389.0</ele><time>2026-04-30T08:36:02.001Z</time></trkpt><trkpt lat="40.8525644297358" lon="8.763175091529753"><ele>388.0</ele><time>2026-04-30T08:36:03.001Z</time></trkpt><trkpt lat="40.85270967524169" lon="8.763353819070547"><ele>387.0</ele><time>2026-04-30T08:36:04.001Z</time></trkpt><trkpt lat="40.85284733009256" lon="8.763536572468231"><ele>386.66666666666663</ele><time>2026-04-30T08:36:05.001Z</time></trkpt><trkpt lat="40.85297921684268" lon="8.763703406823923"><ele>386.3333333333333</ele><time>2026-04-30T08:36:06.001Z</time></trkpt><trkpt lat="40.8531077969792" lon="8.763868817787827"><ele>386.0</ele><time>2026-04-30T08:36:07.001Z</time></trkpt><trkpt lat="40.85323866315839" lon="8.764027138536136"><ele>386.0</ele><time>2026-04-30T08:36:08.001Z</time></trkpt><trkpt lat="40.853365092412446" lon="8.764196290025396"><ele>386.0</ele><time>2026-04-30T08:36:09.001Z</time></trkpt><trkpt lat="40.8534759366913" lon="8.764360450484027"><ele>386.0</ele><time>2026-04-30T08:36:10.001Z</time></trkpt><trkpt lat="40.853574247137" lon="8.764519154707886"><ele>385.75</ele><time>2026-04-30T08:36:11.001Z</time></trkpt><trkpt lat="40.8536638551354" lon="8.764672776926412"><ele>385.5</ele><time>2026-04-30T08:36:12.001Z</time></trkpt><trkpt lat="40.85374621613807" lon="8.764826290826974"><ele>385.25</ele><time>2026-04-30T08:36:13.001Z</time></trkpt><trkpt lat="40.85382034592251" lon="8.764973387951764"><ele>385.0</ele><time>2026-04-30T08:36:14.001Z</time></trkpt><trkpt lat="40.853885054369826" lon="8.765111542802565"><ele>385.00000000000006</ele><time>2026-04-30T08:36:15.001Z</time></trkpt><trkpt lat="40.85393182110061" lon="8.765229976984928"><ele>385.0</ele><time>2026-04-30T08:36:16.001Z</time></trkpt><trkpt lat="40.85395894977381" lon="8.76532598986484"><ele>385.0</ele><time>2026-04-30T08:36:17.001Z</time></trkpt><trkpt lat="40.85396536818729" lon="8.765441668145144"><ele>385.0</ele><time>2026-04-30T08:36:19.001Z</time></trkpt><trkpt lat="40.85400830667365" lon="8.765542612818326"><ele>385.00000000000006</ele><time>2026-04-30T08:36:50.002Z</time></trkpt><trkpt lat="40.854078307381634" lon="8.765594350165133"><ele>385.0</ele><time>2026-04-30T08:36:56.002Z</time></trkpt><trkpt lat="40.85415463407415" lon="8.765729464913093"><ele>385.0</ele><time>2026-04-30T08:36:58.002Z</time></trkpt><trkpt lat="40.85419446605839" lon="8.765833253800052"><ele>385.0</ele><time>2026-04-30T08:36:59.002Z</time></trkpt><trkpt lat="40.85423860321154" lon="8.765959271515229"><ele>385.0</ele><time>2026-04-30T08:37:00.002Z</time></trkpt><trkpt lat="40.85429345243646" lon="8.766095364229011"><ele>385.0</ele><time>2026-04-30T08:37:01.002Z</time></trkpt><trkpt lat="40.85435470458507" lon="8.766238051633074"><ele>385.0</ele><time>2026-04-30T08:37:02.002Z</time></trkpt><trkpt lat="40.85441955461801" lon="8.7663883434235"><ele>384.5</ele><time>2026-04-30T08:37:03.002Z</time></trkpt><trkpt lat="40.85447903712033" lon="8.766529415521449"><ele>384.0</ele><time>2026-04-30T08:37:04.002Z</time></trkpt><trkpt lat="40.8545413280644" lon="8.766676370372462"><ele>383.5</ele><time>2026-04-30T08:37:05.002Z</time></trkpt><trkpt lat="40.854602083867" lon="8.766826774914469"><ele>383.0</ele><time>2026-04-30T08:37:06.002Z</time></trkpt><trkpt lat="40.8546644048893" lon="8.766986390632503"><ele>382.33333333333337</ele><time>2026-04-30T08:37:07.002Z</time></trkpt><trkpt lat="40.85473310987862" lon="8.767153555381661"><ele>381.6666666666667</ele><time>2026-04-30T08:37:08.002Z</time></trkpt><trkpt lat="40.85480836246504" lon="8.767332649953664"><ele>381.0</ele><time>2026-04-30T08:37:09.002Z</time></trkpt><trkpt lat="40.85489251034364" lon="8.76752865218827"><ele>380.6666666666667</ele><time>2026-04-30T08:37:10.002Z</time></trkpt><trkpt lat="40.85498429049007" lon="8.767745738867996"><ele>380.33333333333337</ele><time>2026-04-30T08:37:11.002Z</time></trkpt><trkpt lat="40.85508230770566" lon="8.767983632606347"><ele>380.0</ele><time>2026-04-30T08:37:12.002Z</time></trkpt><trkpt lat="40.855185218094306" lon="8.768233271366867"><ele>380.5</ele><time>2026-04-30T08:37:13.002Z</time></trkpt><trkpt lat="40.85529472462207" lon="8.7684943634355"><ele>381.0</ele><time>2026-04-30T08:37:14.002Z</time></trkpt><trkpt lat="40.85540578193738" lon="8.768761292298828"><ele>381.0</ele><time>2026-04-30T08:37:15.002Z</time></trkpt><trkpt lat="40.85551770374241" lon="8.769030492789433"><ele>381.0</ele><time>2026-04-30T08:37:16.002Z</time></trkpt><trkpt lat="40.85562622845909" lon="8.769302447853343"><ele>380.5</ele><time>2026-04-30T08:37:17.002Z</time></trkpt><trkpt lat="40.85573065295407" lon="8.769571490884848"><ele>380.0</ele><time>2026-04-30T08:37:18.002Z</time></trkpt><trkpt lat="40.85582747882426" lon="8.769838956066287"><ele>380.0</ele><time>2026-04-30T08:37:19.002Z</time></trkpt><trkpt lat="40.855909016286276" lon="8.770111784401326"><ele>380.0</ele><time>2026-04-30T08:37:20.002Z</time></trkpt><trkpt lat="40.85598240652013" lon="8.770393362483786"><ele>380.0</ele><time>2026-04-30T08:37:21.002Z</time></trkpt><trkpt lat="40.856047581374625" lon="8.77068596714131"><ele>380.0</ele><time>2026-04-30T08:37:22.002Z</time></trkpt><trkpt lat="40.85610197734663" lon="8.770988094136102"><ele>380.0</ele><time>2026-04-30T08:37:23.002Z</time></trkpt><trkpt lat="40.85614594785646" lon="8.77128895163928"><ele>380.0</ele><time>2026-04-30T08:37:24.001Z</time></trkpt><trkpt lat="40.856190478135865" lon="8.771591441990315"><ele>380.0</ele><time>2026-04-30T08:37:25.001Z</time></trkpt><trkpt lat="40.85624045709023" lon="8.771895418902234"><ele>380.0</ele><time>2026-04-30T08:37:26.001Z</time></trkpt><trkpt lat="40.856289267680616" lon="8.772187388088145"><ele>380.0</ele><time>2026-04-30T08:37:27.001Z</time></trkpt><trkpt lat="40.85634002700955" lon="8.772468416272648"><ele>380.0</ele><time>2026-04-30T08:37:28.001Z</time></trkpt><trkpt lat="40.856399171498516" lon="8.772736380150974"><ele>380.0</ele><time>2026-04-30T08:37:29.001Z</time></trkpt><trkpt lat="40.85647471036923" lon="8.773003206317115"><ele>380.0</ele><time>2026-04-30T08:37:30.001Z</time></trkpt><trkpt lat="40.85656499493076" lon="8.773267315545054"><ele>380.0</ele><time>2026-04-30T08:37:31.001Z</time></trkpt><trkpt lat="40.85665429029664" lon="8.773534221370975"><ele>379.6666666666667</ele><time>2026-04-30T08:37:32.001Z</time></trkpt><trkpt lat="40.85673356406464" lon="8.773805205716444"><ele>379.3333333333333</ele><time>2026-04-30T08:37:33.001Z</time></trkpt><trkpt lat="40.85680259072737" lon="8.774079691929648"><ele>379.0</ele><time>2026-04-30T08:37:34.001Z</time></trkpt><trkpt lat="40.856865487083375" lon="8.774357024644695"><ele>378.66666666666663</ele><time>2026-04-30T08:37:35.001Z</time></trkpt><trkpt lat="40.85692336334555" lon="8.7746347077223"><ele>378.3333333333333</ele><time>2026-04-30T08:37:36.001Z</time></trkpt><trkpt lat="40.856983107011764" lon="8.774917294894895"><ele>378.0</ele><time>2026-04-30T08:37:37.001Z</time></trkpt><trkpt lat="40.857043535321544" lon="8.775205256117708"><ele>378.0</ele><time>2026-04-30T08:37:38.001Z</time></trkpt><trkpt lat="40.85710421926552" lon="8.775493401158467"><ele>378.0</ele><time>2026-04-30T08:37:39.001Z</time></trkpt><trkpt lat="40.85716400063991" lon="8.775785861676392"><ele>378.0</ele><time>2026-04-30T08:37:40.001Z</time></trkpt><trkpt lat="40.8572237990332" lon="8.776078870880609"><ele>378.0</ele><time>2026-04-30T08:37:41.001Z</time></trkpt><trkpt lat="40.85728600837614" lon="8.776370925431282"><ele>378.0</ele><time>2026-04-30T08:37:42.001Z</time></trkpt><trkpt lat="40.85734880596371" lon="8.776660762551085"><ele>378.0</ele><time>2026-04-30T08:37:43.001Z</time></trkpt><trkpt lat="40.85741113270566" lon="8.776952648387319"><ele>378.0</ele><time>2026-04-30T08:37:44.001Z</time></trkpt><trkpt lat="40.85747203919344" lon="8.777242679866163"><ele>378.0</ele><time>2026-04-30T08:37:45.001Z</time></trkpt><trkpt lat="40.857532914141025" lon="8.777530683451365"><ele>378.0</ele><time>2026-04-30T08:37:46.001Z</time></trkpt><trkpt lat="40.85759499995762" lon="8.777818419879921"><ele>378.0</ele><time>2026-04-30T08:37:47.001Z</time></trkpt><trkpt lat="40.85765787574044" lon="8.778105666889985"><ele>377.6666666666667</ele><time>2026-04-30T08:37:48.001Z</time></trkpt><trkpt lat="40.85771701369666" lon="8.778390539373348"><ele>377.33333333333337</ele><time>2026-04-30T08:37:49.001Z</time></trkpt><trkpt lat="40.85777433370828" lon="8.778673568029932"><ele>377.0</ele><time>2026-04-30T08:37:50.001Z</time></trkpt><trkpt lat="40.85783139290366" lon="8.778955230554516"><ele>377.0</ele><time>2026-04-30T08:37:51.001Z</time></trkpt><trkpt lat="40.85788830671652" lon="8.77923547157767"><ele>377.0</ele><time>2026-04-30T08:37:52.001Z</time></trkpt><trkpt lat="40.85794515293998" lon="8.779514166879492"><ele>377.0</ele><time>2026-04-30T08:37:53.001Z</time></trkpt><trkpt lat="40.85800395705564" lon="8.779788699056262"><ele>377.33333333333337</ele><time>2026-04-30T08:37:54.001Z</time></trkpt><trkpt lat="40.858063144387344" lon="8.780065411357963"><ele>377.6666666666667</ele><time>2026-04-30T08:37:55.001Z</time></trkpt><trkpt lat="40.858121721754465" lon="8.780337833073913"><ele>378.0</ele><time>2026-04-30T08:37:56.001Z</time></trkpt><trkpt lat="40.858179097330385" lon="8.780608220728459"><ele>378.0</ele><time>2026-04-30T08:37:57.001Z</time></trkpt><trkpt lat="40.85823590161662" lon="8.780876925316532"><ele>378.0</ele><time>2026-04-30T08:37:58.001Z</time></trkpt><trkpt lat="40.85829268426332" lon="8.781144429641452"><ele>378.0</ele><time>2026-04-30T08:37:59.001Z</time></trkpt><trkpt lat="40.85835004838461" lon="8.781411345211275"><ele>378.0</ele><time>2026-04-30T08:38:00.001Z</time></trkpt><trkpt lat="40.858414658853576" lon="8.781675187379697"><ele>378.0</ele><time>2026-04-30T08:38:01.001Z</time></trkpt><trkpt lat="40.85849008168239" lon="8.781943682355287"><ele>378.0</ele><time>2026-04-30T08:38:02.001Z</time></trkpt><trkpt lat="40.858581147286145" lon="8.782216604106237"><ele>378.3333333333333</ele><time>2026-04-30T08:38:03.001Z</time></trkpt><trkpt lat="40.858680953906294" lon="8.782482320555612"><ele>378.66666666666663</ele><time>2026-04-30T08:38:04.001Z</time></trkpt><trkpt lat="40.85878879413879" lon="8.78273911158416"><ele>379.0</ele><time>2026-04-30T08:38:05.001Z</time></trkpt><trkpt lat="40.85890343683097" lon="8.782982940116502"><ele>380.3333333333333</ele><time>2026-04-30T08:38:06.001Z</time></trkpt><trkpt lat="40.8590252313065" lon="8.783208001628289"><ele>381.6666666666667</ele><time>2026-04-30T08:38:07.001Z</time></trkpt><trkpt lat="40.859155032049685" lon="8.78341350539402"><ele>383.0</ele><time>2026-04-30T08:38:08.001Z</time></trkpt><trkpt lat="40.85929114739001" lon="8.783610788273926"><ele>383.33333333333337</ele><time>2026-04-30T08:38:09.001Z</time></trkpt><trkpt lat="40.85940891893926" lon="8.783796441576609"><ele>383.6666666666667</ele><time>2026-04-30T08:38:10.001Z</time></trkpt><trkpt lat="40.85950242461736" lon="8.783982178858624"><ele>384.0</ele><time>2026-04-30T08:38:11.001Z</time></trkpt><trkpt lat="40.85957862769498" lon="8.784172033885989"><ele>384.66666666666663</ele><time>2026-04-30T08:38:12.001Z</time></trkpt><trkpt lat="40.85963862501536" lon="8.784372400838011"><ele>385.3333333333333</ele><time>2026-04-30T08:38:13.001Z</time></trkpt><trkpt lat="40.8596802599738" lon="8.784576800977193"><ele>386.0</ele><time>2026-04-30T08:38:14.001Z</time></trkpt><trkpt lat="40.859704854956625" lon="8.784785918192426"><ele>386.0</ele><time>2026-04-30T08:38:15.001Z</time></trkpt><trkpt lat="40.859717646838845" lon="8.784998763777153"><ele>386.0</ele><time>2026-04-30T08:38:16.001Z</time></trkpt><trkpt lat="40.859728208921645" lon="8.785191872421974"><ele>386.0</ele><time>2026-04-30T08:38:17.001Z</time></trkpt><trkpt lat="40.859741586510715" lon="8.785378383716258"><ele>386.0</ele><time>2026-04-30T08:38:18.001Z</time></trkpt><trkpt lat="40.85975301388126" lon="8.785569474399738"><ele>386.0</ele><time>2026-04-30T08:38:19.001Z</time></trkpt><trkpt lat="40.859764839790074" lon="8.785770842021392"><ele>386.0</ele><time>2026-04-30T08:38:20.001Z</time></trkpt><trkpt lat="40.859776249697006" lon="8.785956799196075"><ele>386.0</ele><time>2026-04-30T08:38:21.001Z</time></trkpt><trkpt lat="40.859788590913084" lon="8.786138893285417"><ele>385.5</ele><time>2026-04-30T08:38:22.001Z</time></trkpt><trkpt lat="40.85979815727917" lon="8.786323326695253"><ele>385.0</ele><time>2026-04-30T08:38:23.001Z</time></trkpt><trkpt lat="40.85979426792985" lon="8.786511656478359"><ele>384.5</ele><time>2026-04-30T08:38:24.001Z</time></trkpt><trkpt lat="40.85980378822872" lon="8.786690121919658"><ele>384.0</ele><time>2026-04-30T08:38:25.001Z</time></trkpt><trkpt lat="40.85982647595083" lon="8.786852045927187"><ele>382.5</ele><time>2026-04-30T08:38:26.001Z</time></trkpt><trkpt lat="40.859827761358005" lon="8.787007697019778"><ele>381.0</ele><time>2026-04-30T08:38:27.001Z</time></trkpt><trkpt lat="40.859835239522305" lon="8.78716008386082"><ele>379.5</ele><time>2026-04-30T08:38:28.001Z</time></trkpt><trkpt lat="40.85984500235575" lon="8.78731635056041"><ele>378.0</ele><time>2026-04-30T08:38:29.001Z</time></trkpt><trkpt lat="40.85985846578286" lon="8.787481201446228"><ele>378.0</ele><time>2026-04-30T08:38:30.001Z</time></trkpt><trkpt lat="40.85987000303426" lon="8.78764803559994"><ele>378.0</ele><time>2026-04-30T08:38:31.001Z</time></trkpt><trkpt lat="40.85988153069762" lon="8.78781047249848"><ele>378.0</ele><time>2026-04-30T08:38:32.001Z</time></trkpt><trkpt lat="40.85988650405598" lon="8.787965725382586"><ele>378.0</ele><time>2026-04-30T08:38:33.001Z</time></trkpt><trkpt lat="40.85989624247062" lon="8.788117603225706"><ele>377.5</ele><time>2026-04-30T08:38:34.001Z</time></trkpt><trkpt lat="40.85990845130802" lon="8.788272538144374"><ele>377.0</ele><time>2026-04-30T08:38:35.001Z</time></trkpt><trkpt lat="40.859919803768264" lon="8.78843449529011"><ele>376.5</ele><time>2026-04-30T08:38:36.001Z</time></trkpt><trkpt lat="40.85992321346913" lon="8.788591419028643"><ele>376.0</ele><time>2026-04-30T08:38:37.001Z</time></trkpt><trkpt lat="40.85989803511413" lon="8.78875076155679"><ele>374.75</ele><time>2026-04-30T08:38:38.001Z</time></trkpt><trkpt lat="40.859883218442945" lon="8.788916022597029"><ele>373.5</ele><time>2026-04-30T08:38:39.001Z</time></trkpt><trkpt lat="40.85988068172456" lon="8.789081773371347"><ele>372.25</ele><time>2026-04-30T08:38:40.001Z</time></trkpt><trkpt lat="40.85985671771952" lon="8.789234019529866"><ele>371.0</ele><time>2026-04-30T08:38:41.001Z</time></trkpt><trkpt lat="40.85983539503796" lon="8.789364989093379"><ele>370.0</ele><time>2026-04-30T08:38:42.001Z</time></trkpt><trkpt lat="40.85981870659776" lon="8.789491987135222"><ele>369.0</ele><time>2026-04-30T08:38:43.002Z</time></trkpt><trkpt lat="40.85980347909782" lon="8.789624577079168"><ele>368.0</ele><time>2026-04-30T08:38:44.002Z</time></trkpt><trkpt lat="40.85978827548383" lon="8.789766876294872"><ele>367.0</ele><time>2026-04-30T08:38:45.002Z</time></trkpt><trkpt lat="40.85977903730686" lon="8.789909865134272"><ele>366.0</ele><time>2026-04-30T08:38:46.002Z</time></trkpt><trkpt lat="40.85976599697421" lon="8.790068872096244"><ele>365.5</ele><time>2026-04-30T08:38:47.002Z</time></trkpt><trkpt lat="40.85978174655086" lon="8.790235816177754"><ele>365.0</ele><time>2026-04-30T08:38:48.002Z</time></trkpt><trkpt lat="40.85981418405507" lon="8.790387544298945"><ele>364.5</ele><time>2026-04-30T08:38:49.002Z</time></trkpt><trkpt lat="40.85984130006504" lon="8.790536334574833"><ele>364.0</ele><time>2026-04-30T08:38:50.002Z</time></trkpt><trkpt lat="40.85988250900369" lon="8.790693446074263"><ele>364.0</ele><time>2026-04-30T08:38:51.002Z</time></trkpt><trkpt lat="40.859927180170644" lon="8.790867568369888"><ele>364.0</ele><time>2026-04-30T08:38:52.002Z</time></trkpt><trkpt lat="40.8599830813731" lon="8.791048582023459"><ele>364.0</ele><time>2026-04-30T08:38:53.002Z</time></trkpt><trkpt lat="40.860021311521706" lon="8.791254748101744"><ele>364.0</ele><time>2026-04-30T08:38:54.002Z</time></trkpt><trkpt lat="40.86007783523679" lon="8.791466111691173"><ele>364.3333333333333</ele><time>2026-04-30T08:38:55.002Z</time></trkpt><trkpt lat="40.860136070122316" lon="8.79168387401763"><ele>364.6666666666667</ele><time>2026-04-30T08:38:56.002Z</time></trkpt><trkpt lat="40.860203312752255" lon="8.791935319686132"><ele>365.0</ele><time>2026-04-30T08:38:57.002Z</time></trkpt><trkpt lat="40.860265387941354" lon="8.792172105382383"><ele>365.0</ele><time>2026-04-30T08:38:58.002Z</time></trkpt><trkpt lat="40.86032289105643" lon="8.79238461678405"><ele>365.0</ele><time>2026-04-30T08:38:59.002Z</time></trkpt><trkpt lat="40.860378148158034" lon="8.79259219902265"><ele>365.0</ele><time>2026-04-30T08:39:00.002Z</time></trkpt><trkpt lat="40.86043041544577" lon="8.792809600590733"><ele>363.6666666666667</ele><time>2026-04-30T08:39:01.002Z</time></trkpt><trkpt lat="40.86047832797735" lon="8.793044295093194"><ele>362.3333333333333</ele><time>2026-04-30T08:39:02.002Z</time></trkpt><trkpt lat="40.86052459911434" lon="8.793301112821734"><ele>361.0</ele><time>2026-04-30T08:39:03.002Z</time></trkpt><trkpt lat="40.86055463021662" lon="8.793581418920386"><ele>359.66666666666663</ele><time>2026-04-30T08:39:04.002Z</time></trkpt><trkpt lat="40.860587731261866" lon="8.793847426540514"><ele>358.3333333333333</ele><time>2026-04-30T08:39:05.002Z</time></trkpt><trkpt lat="40.86062328857164" lon="8.794096177563564"><ele>357.0</ele><time>2026-04-30T08:39:06.002Z</time></trkpt><trkpt lat="40.86065585284776" lon="8.79432973298256"><ele>355.3333333333333</ele><time>2026-04-30T08:39:07.002Z</time></trkpt><trkpt lat="40.86068915358107" lon="8.794573785930146"><ele>353.66666666666663</ele><time>2026-04-30T08:39:08.002Z</time></trkpt><trkpt lat="40.86071894765059" lon="8.794812454547415"><ele>352.0</ele><time>2026-04-30T08:39:09.002Z</time></trkpt><trkpt lat="40.8607376328568" lon="8.795046116161634"><ele>351.3333333333333</ele><time>2026-04-30T08:39:10.002Z</time></trkpt><trkpt lat="40.8607372962122" lon="8.795279781147626"><ele>350.6666666666667</ele><time>2026-04-30T08:39:11.002Z</time></trkpt><trkpt lat="40.86070999852481" lon="8.795518890454426"><ele>350.0</ele><time>2026-04-30T08:39:12.002Z</time></trkpt><trkpt lat="40.86065709952038" lon="8.795740603506648"><ele>350.0</ele><time>2026-04-30T08:39:13.002Z</time></trkpt><trkpt lat="40.860572279491336" lon="8.795958433817098"><ele>350.0</ele><time>2026-04-30T08:39:14.002Z</time></trkpt><trkpt lat="40.86046583568306" lon="8.796180541918229"><ele>350.0</ele><time>2026-04-30T08:39:15.002Z</time></trkpt><trkpt lat="40.860350450074215" lon="8.796409363421628"><ele>351.0</ele><time>2026-04-30T08:39:16.002Z</time></trkpt><trkpt lat="40.86023151508212" lon="8.796644110024141"><ele>352.0</ele><time>2026-04-30T08:39:17.002Z</time></trkpt><trkpt lat="40.86012063275854" lon="8.796864795528798"><ele>353.0</ele><time>2026-04-30T08:39:18.002Z</time></trkpt><trkpt lat="40.86002136172957" lon="8.797055941799272"><ele>349.0</ele><time>2026-04-30T08:39:19.002Z</time></trkpt><trkpt lat="40.859929807512756" lon="8.797237626817388"><ele>345.0</ele><time>2026-04-30T08:39:20.002Z</time></trkpt><trkpt lat="40.85983695987996" lon="8.797420670336153"><ele>341.0</ele><time>2026-04-30T08:39:21.002Z</time></trkpt><trkpt lat="40.85979032847894" lon="8.797643213938066"><ele>339.0</ele><time>2026-04-30T08:39:22.002Z</time></trkpt><trkpt lat="40.859794566599746" lon="8.797874344350495"><ele>337.0</ele><time>2026-04-30T08:39:23.002Z</time></trkpt><trkpt lat="40.85980535662088" lon="8.798118940938073"><ele>335.0</ele><time>2026-04-30T08:39:24.002Z</time></trkpt><trkpt lat="40.85983605829897" lon="8.798368983439214"><ele>333.33333333333337</ele><time>2026-04-30T08:39:25.002Z</time></trkpt><trkpt lat="40.8598696223374" lon="8.7986070008036"><ele>331.6666666666667</ele><time>2026-04-30T08:39:26.002Z</time></trkpt><trkpt lat="40.85989877611477" lon="8.798832926280056"><ele>330.0</ele><time>2026-04-30T08:39:27.002Z</time></trkpt><trkpt lat="40.85992811518849" lon="8.79904693040485"><ele>330.0</ele><time>2026-04-30T08:39:28.002Z</time></trkpt><trkpt lat="40.85995494088025" lon="8.799260586435373"><ele>330.0</ele><time>2026-04-30T08:39:29.002Z</time></trkpt><trkpt lat="40.859974118641986" lon="8.799479886892469"><ele>330.0</ele><time>2026-04-30T08:39:30.001Z</time></trkpt><trkpt lat="40.859973609746824" lon="8.799695306504578"><ele>329.75</ele><time>2026-04-30T08:39:31.001Z</time></trkpt><trkpt lat="40.859950155357275" lon="8.799887768498282"><ele>329.5</ele><time>2026-04-30T08:39:32.001Z</time></trkpt><trkpt lat="40.85991360412213" lon="8.800076320965152"><ele>329.25</ele><time>2026-04-30T08:39:33.001Z</time></trkpt><trkpt lat="40.85986411353063" lon="8.800239778196277"><ele>329.0</ele><time>2026-04-30T08:39:34.001Z</time></trkpt><trkpt lat="40.859810969497445" lon="8.800400279059717"><ele>327.33333333333337</ele><time>2026-04-30T08:39:35.001Z</time></trkpt><trkpt lat="40.85974867540248" lon="8.800575668128852"><ele>325.6666666666667</ele><time>2026-04-30T08:39:36.001Z</time></trkpt><trkpt lat="40.8596818510637" lon="8.80075771972229"><ele>324.0</ele><time>2026-04-30T08:39:37.001Z</time></trkpt><trkpt lat="40.859608102741866" lon="8.800952789758313"><ele>323.3333333333333</ele><time>2026-04-30T08:39:38.001Z</time></trkpt><trkpt lat="40.85953556440092" lon="8.801149385319622"><ele>322.66666666666663</ele><time>2026-04-30T08:39:39.001Z</time></trkpt><trkpt lat="40.85945116211891" lon="8.801339057850965"><ele>322.0</ele><time>2026-04-30T08:39:40.001Z</time></trkpt><trkpt lat="40.859380287723255" lon="8.80153789409524"><ele>322.0</ele><time>2026-04-30T08:39:41.001Z</time></trkpt><trkpt lat="40.859308885808915" lon="8.801738210210234"><ele>322.0</ele><time>2026-04-30T08:39:42.001Z</time></trkpt><trkpt lat="40.85925079322275" lon="8.801947025589161"><ele>322.0</ele><time>2026-04-30T08:39:43.001Z</time></trkpt><trkpt lat="40.859181698956476" lon="8.802144484237873"><ele>322.0</ele><time>2026-04-30T08:39:44.001Z</time></trkpt><trkpt lat="40.85911283728396" lon="8.802337801835254"><ele>322.0</ele><time>2026-04-30T08:39:45.001Z</time></trkpt><trkpt lat="40.8590460240241" lon="8.802523948975793"><ele>322.0</ele><time>2026-04-30T08:39:46.001Z</time></trkpt><trkpt lat="40.85897199347307" lon="8.802725298807749"><ele>321.66666666666663</ele><time>2026-04-30T08:39:47.001Z</time></trkpt><trkpt lat="40.858898556157" lon="8.802937330054759"><ele>321.3333333333333</ele><time>2026-04-30T08:39:48.001Z</time></trkpt><trkpt lat="40.858823631979945" lon="8.803151214966542"><ele>321.0</ele><time>2026-04-30T08:39:49.001Z</time></trkpt><trkpt lat="40.85875123036613" lon="8.803362413859952"><ele>321.3333333333333</ele><time>2026-04-30T08:39:50.001Z</time></trkpt><trkpt lat="40.8586624974818" lon="8.803562274872696"><ele>321.66666666666663</ele><time>2026-04-30T08:39:51.001Z</time></trkpt><trkpt lat="40.8586006815476" lon="8.803776527539338"><ele>322.0</ele><time>2026-04-30T08:39:52.001Z</time></trkpt><trkpt lat="40.858522651357866" lon="8.803970109333653"><ele>322.0</ele><time>2026-04-30T08:39:53.001Z</time></trkpt><trkpt lat="40.85843494725561" lon="8.8041480922881"><ele>322.0</ele><time>2026-04-30T08:39:54.001Z</time></trkpt><trkpt lat="40.85833636933768" lon="8.804314725187783"><ele>322.0</ele><time>2026-04-30T08:39:55.001Z</time></trkpt><trkpt lat="40.85821975201881" lon="8.804479838048488"><ele>321.3333333333333</ele><time>2026-04-30T08:39:56.001Z</time></trkpt><trkpt lat="40.858089157124105" lon="8.804634025803367"><ele>320.6666666666667</ele><time>2026-04-30T08:39:57.001Z</time></trkpt><trkpt lat="40.85795267135698" lon="8.804768008363514"><ele>320.0</ele><time>2026-04-30T08:39:58.001Z</time></trkpt><trkpt lat="40.857811493284395" lon="8.80487980344558"><ele>320.0</ele><time>2026-04-30T08:39:59.001Z</time></trkpt><trkpt lat="40.85769140050091" lon="8.805015194406161"><ele>320.0</ele><time>2026-04-30T08:40:00.001Z</time></trkpt><trkpt lat="40.85758768082896" lon="8.805161607130668"><ele>320.0</ele><time>2026-04-30T08:40:01.001Z</time></trkpt><trkpt lat="40.8575012722413" lon="8.805310947727456"><ele>320.0</ele><time>2026-04-30T08:40:02.001Z</time></trkpt><trkpt lat="40.857425901930185" lon="8.805466252946685"><ele>320.0</ele><time>2026-04-30T08:40:03.001Z</time></trkpt><trkpt lat="40.85736107956019" lon="8.80563865636081"><ele>320.0</ele><time>2026-04-30T08:40:04.001Z</time></trkpt><trkpt lat="40.85730741375317" lon="8.805832428641246"><ele>320.0</ele><time>2026-04-30T08:40:05.001Z</time></trkpt><trkpt lat="40.857264387308994" lon="8.806041498674762"><ele>320.6666666666667</ele><time>2026-04-30T08:40:06.001Z</time></trkpt><trkpt lat="40.85722242497165" lon="8.806250266925082"><ele>321.3333333333333</ele><time>2026-04-30T08:40:07.001Z</time></trkpt><trkpt lat="40.85717970773497" lon="8.806452997788044"><ele>322.0</ele><time>2026-04-30T08:40:08.001Z</time></trkpt><trkpt lat="40.857089330822554" lon="8.806640526032353"><ele>322.0</ele><time>2026-04-30T08:40:09.001Z</time></trkpt><trkpt lat="40.85696639498441" lon="8.806808112892265"><ele>322.0</ele><time>2026-04-30T08:40:10.001Z</time></trkpt><trkpt lat="40.85685124280123" lon="8.806983235666758"><ele>322.0</ele><time>2026-04-30T08:40:11.001Z</time></trkpt><trkpt lat="40.856732266332976" lon="8.807164174365054"><ele>320.3333333333333</ele><time>2026-04-30T08:40:12.001Z</time></trkpt><trkpt lat="40.85660745630361" lon="8.807354872249546"><ele>318.6666666666667</ele><time>2026-04-30T08:40:13.001Z</time></trkpt><trkpt lat="40.85649106879035" lon="8.807555061281263"><ele>317.0</ele><time>2026-04-30T08:40:14.001Z</time></trkpt><trkpt lat="40.85638608982461" lon="8.807748838727635"><ele>317.0</ele><time>2026-04-30T08:40:15.001Z</time></trkpt><trkpt lat="40.85629174684498" lon="8.80792667956933"><ele>317.0</ele><time>2026-04-30T08:40:16.001Z</time></trkpt><trkpt lat="40.85620222473246" lon="8.80809543312876"><ele>317.0</ele><time>2026-04-30T08:40:17.001Z</time></trkpt><trkpt lat="40.85611691768114" lon="8.808256240986239"><ele>317.0</ele><time>2026-04-30T08:40:18.001Z</time></trkpt><trkpt lat="40.85603329007621" lon="8.808413882940902"><ele>317.0</ele><time>2026-04-30T08:40:19.001Z</time></trkpt><trkpt lat="40.855952092348204" lon="8.808566945491725"><ele>317.0</ele><time>2026-04-30T08:40:20.001Z</time></trkpt><trkpt lat="40.85587570712124" lon="8.808721853434916"><ele>317.0</ele><time>2026-04-30T08:40:21.001Z</time></trkpt><trkpt lat="40.855806134082336" lon="8.808873186969743"><ele>317.0</ele><time>2026-04-30T08:40:22.001Z</time></trkpt><trkpt lat="40.85574190434706" lon="8.809021681561005"><ele>317.0</ele><time>2026-04-30T08:40:23.001Z</time></trkpt><trkpt lat="40.85568276756521" lon="8.809167471833717"><ele>317.0</ele><time>2026-04-30T08:40:24.001Z</time></trkpt><trkpt lat="40.85562586724201" lon="8.809308150295097"><ele>317.0</ele><time>2026-04-30T08:40:25.001Z</time></trkpt><trkpt lat="40.85557069176175" lon="8.809444564227894"><ele>317.0</ele><time>2026-04-30T08:40:26.001Z</time></trkpt><trkpt lat="40.85551868441009" lon="8.809573295479662"><ele>317.0</ele><time>2026-04-30T08:40:27.001Z</time></trkpt><trkpt lat="40.85548764491666" lon="8.809696445558602"><ele>317.0</ele><time>2026-04-30T08:40:28.001Z</time></trkpt><trkpt lat="40.85544703059281" lon="8.80978851728928"><ele>317.0</ele><time>2026-04-30T08:40:29.001Z</time></trkpt><trkpt lat="40.855409924261934" lon="8.809864217037335"><ele>317.0</ele><time>2026-04-30T08:40:30.001Z</time></trkpt><trkpt lat="40.8553473238286" lon="8.809986712076286"><ele>317.0</ele><time>2026-04-30T08:40:32.001Z</time></trkpt><trkpt lat="40.855305601358616" lon="8.810056585378048"><ele>317.0</ele><time>2026-04-30T08:40:34.001Z</time></trkpt><trkpt lat="40.8552660429579" lon="8.810177243787827"><ele>317.0</ele><time>2026-04-30T08:41:17.002Z</time></trkpt><trkpt lat="40.855245704772386" lon="8.810261174836118"><ele>317.0</ele><time>2026-04-30T08:41:18.002Z</time></trkpt><trkpt lat="40.85519906445564" lon="8.810425109787536"><ele>317.0</ele><time>2026-04-30T08:41:20.002Z</time></trkpt><trkpt lat="40.855162299757275" lon="8.81052493605871"><ele>316.6</ele><time>2026-04-30T08:41:21.002Z</time></trkpt><trkpt lat="40.855116739040554" lon="8.810641182944783"><ele>316.2</ele><time>2026-04-30T08:41:22.002Z</time></trkpt><trkpt lat="40.855068366848805" lon="8.810757864538159"><ele>315.8</ele><time>2026-04-30T08:41:23.002Z</time></trkpt><trkpt lat="40.85501909959387" lon="8.81086551472856"><ele>315.4</ele><time>2026-04-30T08:41:24.002Z</time></trkpt><trkpt lat="40.85496078557302" lon="8.810971760253615"><ele>315.0</ele><time>2026-04-30T08:41:25.002Z</time></trkpt><trkpt lat="40.854893733392814" lon="8.811074768091482"><ele>314.5</ele><time>2026-04-30T08:41:26.002Z</time></trkpt><trkpt lat="40.85481624349951" lon="8.811170583408446"><ele>314.0</ele><time>2026-04-30T08:41:27.002Z</time></trkpt><trkpt lat="40.854724307240765" lon="8.811256777417311"><ele>313.5</ele><time>2026-04-30T08:41:28.002Z</time></trkpt><trkpt lat="40.85461850886925" lon="8.811334182766217"><ele>313.0</ele><time>2026-04-30T08:41:29.002Z</time></trkpt><trkpt lat="40.85449611251388" lon="8.811399609542704"><ele>313.0</ele><time>2026-04-30T08:41:30.002Z</time></trkpt><trkpt lat="40.85436374976508" lon="8.811461991874348"><ele>313.0</ele><time>2026-04-30T08:41:31.002Z</time></trkpt><trkpt lat="40.85423986437237" lon="8.811524945866308"><ele>313.0</ele><time>2026-04-30T08:41:32.002Z</time></trkpt><trkpt lat="40.85411929863417" lon="8.81158270974051"><ele>313.0</ele><time>2026-04-30T08:41:33.002Z</time></trkpt><trkpt lat="40.854013255748136" lon="8.811662742901504"><ele>313.25</ele><time>2026-04-30T08:41:34.002Z</time></trkpt><trkpt lat="40.853920398424826" lon="8.811766820871476"><ele>313.5</ele><time>2026-04-30T08:41:35.002Z</time></trkpt><trkpt lat="40.85385091667148" lon="8.811893588574508"><ele>313.75</ele><time>2026-04-30T08:41:36.001Z</time></trkpt><trkpt lat="40.853797286361576" lon="8.812029158667542"><ele>314.0</ele><time>2026-04-30T08:41:37.001Z</time></trkpt><trkpt lat="40.853739592308926" lon="8.812159543661396"><ele>314.0</ele><time>2026-04-30T08:41:38.001Z</time></trkpt><trkpt lat="40.853667703428584" lon="8.81227642918562"><ele>314.0</ele><time>2026-04-30T08:41:39.001Z</time></trkpt><trkpt lat="40.85360687817977" lon="8.812402536208449"><ele>314.0</ele><time>2026-04-30T08:41:40.001Z</time></trkpt><trkpt lat="40.853558988392344" lon="8.812538076603163"><ele>314.0</ele><time>2026-04-30T08:41:41.001Z</time></trkpt><trkpt lat="40.85348920376585" lon="8.812656406930943"><ele>313.0</ele><time>2026-04-30T08:41:42.001Z</time></trkpt><trkpt lat="40.85341100166373" lon="8.812766644777293"><ele>312.0</ele><time>2026-04-30T08:41:43.001Z</time></trkpt><trkpt lat="40.853325753450605" lon="8.812864841592729"><ele>311.0</ele><time>2026-04-30T08:41:44.001Z</time></trkpt><trkpt lat="40.853237932011076" lon="8.812957020347694"><ele>310.0</ele><time>2026-04-30T08:41:45.001Z</time></trkpt><trkpt lat="40.853147919110555" lon="8.813045919605651"><ele>310.0</ele><time>2026-04-30T08:41:46.001Z</time></trkpt><trkpt lat="40.85305475711701" lon="8.813126667405253"><ele>310.0</ele><time>2026-04-30T08:41:47.001Z</time></trkpt><trkpt lat="40.85295803113789" lon="8.813198626467173"><ele>310.0</ele><time>2026-04-30T08:41:48.001Z</time></trkpt><trkpt lat="40.8528621068198" lon="8.813271303201752"><ele>310.0</ele><time>2026-04-30T08:41:49.001Z</time></trkpt><trkpt lat="40.85276915124011" lon="8.813335729213978"><ele>310.0</ele><time>2026-04-30T08:41:50.001Z</time></trkpt><trkpt lat="40.85267718531947" lon="8.813403937921327"><ele>309.8</ele><time>2026-04-30T08:41:51.001Z</time></trkpt><trkpt lat="40.85258620829019" lon="8.813475453398265"><ele>309.6</ele><time>2026-04-30T08:41:52.001Z</time></trkpt><trkpt lat="40.8524958962343" lon="8.813547658010407"><ele>309.4</ele><time>2026-04-30T08:41:53.001Z</time></trkpt><trkpt lat="40.85240655291141" lon="8.813616915237336"><ele>309.2</ele><time>2026-04-30T08:41:54.001Z</time></trkpt><trkpt lat="40.85231628953664" lon="8.813684004426557"><ele>309.0</ele><time>2026-04-30T08:41:55.001Z</time></trkpt><trkpt lat="40.85222843713864" lon="8.81375169535307"><ele>309.0</ele><time>2026-04-30T08:41:56.001Z</time></trkpt><trkpt lat="40.85214032143993" lon="8.813822560839835"><ele>309.0</ele><time>2026-04-30T08:41:57.001Z</time></trkpt><trkpt lat="40.852054679390505" lon="8.813898957214889"><ele>309.0</ele><time>2026-04-30T08:41:58.001Z</time></trkpt><trkpt lat="40.85197428872414" lon="8.813983461653983"><ele>309.0</ele><time>2026-04-30T08:41:59.001Z</time></trkpt><trkpt lat="40.85189805141308" lon="8.814073450466966"><ele>309.0</ele><time>2026-04-30T08:42:00.001Z</time></trkpt><trkpt lat="40.85182915812136" lon="8.814167144927481"><ele>309.59999999999997</ele><time>2026-04-30T08:42:01.001Z</time></trkpt><trkpt lat="40.851764503062704" lon="8.814268674729558"><ele>310.2</ele><time>2026-04-30T08:42:02.001Z</time></trkpt><trkpt lat="40.851704491761055" lon="8.814375919492907"><ele>310.79999999999995</ele><time>2026-04-30T08:42:03.001Z</time></trkpt><trkpt lat="40.85164701344427" lon="8.814480065577218"><ele>311.4</ele><time>2026-04-30T08:42:04.001Z</time></trkpt><trkpt lat="40.85159021356894" lon="8.814588137486155"><ele>312.0</ele><time>2026-04-30T08:42:05.001Z</time></trkpt><trkpt lat="40.85152174724191" lon="8.814684635991085"><ele>312.0</ele><time>2026-04-30T08:42:06.001Z</time></trkpt><trkpt lat="40.85148462494189" lon="8.814804203874921"><ele>312.0</ele><time>2026-04-30T08:42:07.001Z</time></trkpt><trkpt lat="40.851433615278836" lon="8.814908834714698"><ele>312.0</ele><time>2026-04-30T08:42:08.001Z</time></trkpt><trkpt lat="40.85137774176203" lon="8.815006934383138"><ele>312.0</ele><time>2026-04-30T08:42:09.001Z</time></trkpt><trkpt lat="40.851327938350444" lon="8.815099762079726"><ele>312.0</ele><time>2026-04-30T08:42:10.001Z</time></trkpt><trkpt lat="40.85128488290207" lon="8.815191861029795"><ele>312.0</ele><time>2026-04-30T08:42:11.001Z</time></trkpt><trkpt lat="40.85124541547244" lon="8.815286700741956"><ele>312.0</ele><time>2026-04-30T08:42:12.001Z</time></trkpt><trkpt lat="40.851201534993336" lon="8.815391102411551"><ele>312.0</ele><time>2026-04-30T08:42:13.001Z</time></trkpt><trkpt lat="40.851156394512714" lon="8.815500949905974"><ele>312.0</ele><time>2026-04-30T08:42:14.001Z</time></trkpt><trkpt lat="40.851109202010825" lon="8.81559871718039"><ele>312.0</ele><time>2026-04-30T08:42:15.001Z</time></trkpt><trkpt lat="40.851056386397474" lon="8.815695390400878"><ele>312.0</ele><time>2026-04-30T08:42:16.001Z</time></trkpt><trkpt lat="40.850985757885745" lon="8.815773400206593"><ele>311.6666666666667</ele><time>2026-04-30T08:42:17.001Z</time></trkpt><trkpt lat="40.850925134164875" lon="8.815864970961485"><ele>311.3333333333333</ele><time>2026-04-30T08:42:18.001Z</time></trkpt><trkpt lat="40.850866190526965" lon="8.815951419063824"><ele>311.0</ele><time>2026-04-30T08:42:19.001Z</time></trkpt><trkpt lat="40.85080553619295" lon="8.81603723203159"><ele>310.66666666666663</ele><time>2026-04-30T08:42:20.001Z</time></trkpt><trkpt lat="40.85073894763304" lon="8.816107095736252"><ele>310.3333333333333</ele><time>2026-04-30T08:42:21.001Z</time></trkpt><trkpt lat="40.85067033475096" lon="8.816180781609393"><ele>310.0</ele><time>2026-04-30T08:42:22.001Z</time></trkpt><trkpt lat="40.850602861693844" lon="8.81625144708098"><ele>310.0</ele><time>2026-04-30T08:42:23.001Z</time></trkpt><trkpt lat="40.850535570130475" lon="8.816321922472095"><ele>310.0</ele><time>2026-04-30T08:42:24.001Z</time></trkpt><trkpt lat="40.850468707286666" lon="8.816389243763734"><ele>310.0</ele><time>2026-04-30T08:42:25.001Z</time></trkpt><trkpt lat="40.850405201669005" lon="8.816453209915446"><ele>310.0</ele><time>2026-04-30T08:42:26.001Z</time></trkpt><trkpt lat="40.85034141825943" lon="8.81651887196738"><ele>310.0</ele><time>2026-04-30T08:42:27.001Z</time></trkpt><trkpt lat="40.85027889646056" lon="8.816585489116727"><ele>310.0</ele><time>2026-04-30T08:42:28.001Z</time></trkpt><trkpt lat="40.85021760873583" lon="8.81664800665401"><ele>310.0</ele><time>2026-04-30T08:42:29.001Z</time></trkpt><trkpt lat="40.85015654192089" lon="8.816710522851004"><ele>310.0</ele><time>2026-04-30T08:42:30.001Z</time></trkpt><trkpt lat="40.85009570713498" lon="8.816772023796219"><ele>310.0</ele><time>2026-04-30T08:42:31.001Z</time></trkpt><trkpt lat="40.850034311938934" lon="8.816834091242912"><ele>310.0</ele><time>2026-04-30T08:42:32.001Z</time></trkpt><trkpt lat="40.84996969111133" lon="8.816900427590868"><ele>310.0</ele><time>2026-04-30T08:42:33.001Z</time></trkpt><trkpt lat="40.84990935501895" lon="8.816962117534583"><ele>310.0</ele><time>2026-04-30T08:42:34.001Z</time></trkpt><trkpt lat="40.849849283585144" lon="8.81702342986956"><ele>309.66666666666663</ele><time>2026-04-30T08:42:35.001Z</time></trkpt><trkpt lat="40.84978816143631" lon="8.817083070791165"><ele>309.3333333333333</ele><time>2026-04-30T08:42:36.001Z</time></trkpt><trkpt lat="40.84972855151808" lon="8.817141236129261"><ele>309.0</ele><time>2026-04-30T08:42:37.001Z</time></trkpt><trkpt lat="40.84967410908649" lon="8.817188943092674"><ele>308.6666666666667</ele><time>2026-04-30T08:42:38.001Z</time></trkpt><trkpt lat="40.849579039321874" lon="8.817262177653848"><ele>308.33333333333337</ele><time>2026-04-30T08:42:40.001Z</time></trkpt><trkpt lat="40.849501530503225" lon="8.817317213448199"><ele>308.0</ele><time>2026-04-30T08:42:42.001Z</time></trkpt><trkpt lat="40.84942516652053" lon="8.817365853823663"><ele>308.0</ele><time>2026-04-30T08:42:44.001Z</time></trkpt><trkpt lat="40.849336743565566" lon="8.817443444183994"><ele>308.0</ele><time>2026-04-30T08:42:46.001Z</time></trkpt><trkpt lat="40.8492740872621" lon="8.817474835638626"><ele>308.0</ele><time>2026-04-30T08:42:47.001Z</time></trkpt><trkpt lat="40.84920237233102" lon="8.817516222492891"><ele>308.0</ele><time>2026-04-30T08:42:48.001Z</time></trkpt><trkpt lat="40.84912821243401" lon="8.817551538399158"><ele>308.0</ele><time>2026-04-30T08:42:49.001Z</time></trkpt><trkpt lat="40.849054191970794" lon="8.817572917379126"><ele>308.0</ele><time>2026-04-30T08:42:50.001Z</time></trkpt><trkpt lat="40.84898034653837" lon="8.817588802508459"><ele>308.14285714285717</ele><time>2026-04-30T08:42:51.001Z</time></trkpt><trkpt lat="40.84890782822946" lon="8.817596100095066"><ele>308.2857142857143</ele><time>2026-04-30T08:42:52.001Z</time></trkpt><trkpt lat="40.84883409984986" lon="8.81759261782022"><ele>308.42857142857144</ele><time>2026-04-30T08:42:53.001Z</time></trkpt><trkpt lat="40.84875996715193" lon="8.81759333641002"><ele>308.57142857142856</ele><time>2026-04-30T08:42:54.001Z</time></trkpt><trkpt lat="40.84869349426608" lon="8.817618824804079"><ele>308.7142857142857</ele><time>2026-04-30T08:42:55.001Z</time></trkpt><trkpt lat="40.84863844298634" lon="8.817659351810024"><ele>308.8571428571429</ele><time>2026-04-30T08:42:56.001Z</time></trkpt><trkpt lat="40.84858158206261" lon="8.817712142976346"><ele>309.0</ele><time>2026-04-30T08:42:57.001Z</time></trkpt><trkpt lat="40.848567942569304" lon="8.817821796656027"><ele>309.8333333333333</ele><time>2026-04-30T08:42:58.001Z</time></trkpt><trkpt lat="40.84857179957928" lon="8.81792408015159"><ele>310.6666666666667</ele><time>2026-04-30T08:42:59.001Z</time></trkpt><trkpt lat="40.84861748009891" lon="8.818021458293254"><ele>311.5</ele><time>2026-04-30T08:43:00.001Z</time></trkpt><trkpt lat="40.84865615132312" lon="8.818113521935022"><ele>312.33333333333337</ele><time>2026-04-30T08:43:01.001Z</time></trkpt><trkpt lat="40.848698668024966" lon="8.81820261380548"><ele>313.1666666666667</ele><time>2026-04-30T08:43:02.001Z</time></trkpt><trkpt lat="40.84874221429195" lon="8.818286118713385"><ele>314.0</ele><time>2026-04-30T08:43:03.001Z</time></trkpt><trkpt lat="40.848792180627086" lon="8.818365175630785"><ele>314.0</ele><time>2026-04-30T08:43:04.001Z</time></trkpt><trkpt lat="40.84881871567425" lon="8.818454291160734"><ele>314.0</ele><time>2026-04-30T08:43:05.001Z</time></trkpt><trkpt lat="40.848847367480516" lon="8.818538653936631"><ele>314.0</ele><time>2026-04-30T08:43:06.001Z</time></trkpt><trkpt lat="40.848851222439556" lon="8.818629120672753"><ele>314.0</ele><time>2026-04-30T08:43:07.001Z</time></trkpt><trkpt lat="40.84881438102787" lon="8.818736447084076"><ele>314.0</ele><time>2026-04-30T08:43:08.001Z</time></trkpt><trkpt lat="40.84878355585958" lon="8.818841032810239"><ele>314.0</ele><time>2026-04-30T08:43:09.001Z</time></trkpt><trkpt lat="40.8487629928592" lon="8.818953853777911"><ele>314.59999999999997</ele><time>2026-04-30T08:43:10.001Z</time></trkpt><trkpt lat="40.84874154345055" lon="8.819074172970643"><ele>315.2</ele><time>2026-04-30T08:43:11.001Z</time></trkpt><trkpt lat="40.84871573284688" lon="8.819194282257044"><ele>315.79999999999995</ele><time>2026-04-30T08:43:12.001Z</time></trkpt><trkpt lat="40.84867893283014" lon="8.819303769927865"><ele>316.4</ele><time>2026-04-30T08:43:13.001Z</time></trkpt><trkpt lat="40.848640370836456" lon="8.81942674302715"><ele>317.0</ele><time>2026-04-30T08:43:14.001Z</time></trkpt><trkpt lat="40.84860282311762" lon="8.819547935842687"><ele>318.2</ele><time>2026-04-30T08:43:15.001Z</time></trkpt><trkpt lat="40.84856363689879" lon="8.819672824207826"><ele>319.4</ele><time>2026-04-30T08:43:16.001Z</time></trkpt><trkpt lat="40.84852442834573" lon="8.81979711198415"><ele>320.59999999999997</ele><time>2026-04-30T08:43:17.001Z</time></trkpt><trkpt lat="40.84848404971733" lon="8.81992230262744"><ele>321.79999999999995</ele><time>2026-04-30T08:43:18.001Z</time></trkpt><trkpt lat="40.848439131600784" lon="8.820049640351703"><ele>323.0</ele><time>2026-04-30T08:43:19.001Z</time></trkpt><trkpt lat="40.848387965849746" lon="8.820176497298785"><ele>318.0</ele><time>2026-04-30T08:43:20.001Z</time></trkpt><trkpt lat="40.84834736602737" lon="8.820312884328757"><ele>313.0</ele><time>2026-04-30T08:43:21.001Z</time></trkpt><trkpt lat="40.84828776162883" lon="8.820442161387945"><ele>308.0</ele><time>2026-04-30T08:43:22.001Z</time></trkpt><trkpt lat="40.84821621999379" lon="8.820562660881256"><ele>303.0</ele><time>2026-04-30T08:43:23.001Z</time></trkpt><trkpt lat="40.84815186545723" lon="8.820687396259308"><ele>303.0</ele><time>2026-04-30T08:43:24.001Z</time></trkpt><trkpt lat="40.84808562958168" lon="8.820828067092597"><ele>303.0</ele><time>2026-04-30T08:43:25.001Z</time></trkpt><trkpt lat="40.847986497863154" lon="8.820940271901017"><ele>303.0</ele><time>2026-04-30T08:43:26.001Z</time></trkpt><trkpt lat="40.84786442715645" lon="8.821042076773605"><ele>303.0</ele><time>2026-04-30T08:43:27.001Z</time></trkpt><trkpt lat="40.84776220695158" lon="8.821169395003736"><ele>306.0</ele><time>2026-04-30T08:43:28.001Z</time></trkpt><trkpt lat="40.84768649040973" lon="8.821314979626338"><ele>309.0</ele><time>2026-04-30T08:43:29.001Z</time></trkpt><trkpt lat="40.8475988349394" lon="8.821443834347123"><ele>312.0</ele><time>2026-04-30T08:43:30.001Z</time></trkpt><trkpt lat="40.84749923485556" lon="8.821570473336118"><ele>315.0</ele><time>2026-04-30T08:43:31.001Z</time></trkpt><trkpt lat="40.84739199797749" lon="8.821671218128259"><ele>312.75</ele><time>2026-04-30T08:43:32.001Z</time></trkpt><trkpt lat="40.84728182659367" lon="8.821744625108623"><ele>310.5</ele><time>2026-04-30T08:43:33.001Z</time></trkpt><trkpt lat="40.847177502676836" lon="8.82182263935849"><ele>308.25</ele><time>2026-04-30T08:43:34.001Z</time></trkpt><trkpt lat="40.8470967607504" lon="8.821930498503072"><ele>306.0</ele><time>2026-04-30T08:43:35.001Z</time></trkpt><trkpt lat="40.84703743569187" lon="8.82207580853593"><ele>306.0</ele><time>2026-04-30T08:43:36.001Z</time></trkpt><trkpt lat="40.84696066264578" lon="8.822223221816694"><ele>306.0</ele><time>2026-04-30T08:43:37.001Z</time></trkpt><trkpt lat="40.84689769293599" lon="8.8223917756581"><ele>306.0</ele><time>2026-04-30T08:43:38.001Z</time></trkpt><trkpt lat="40.8467953489339" lon="8.822528977092361"><ele>306.0</ele><time>2026-04-30T08:43:39.001Z</time></trkpt><trkpt lat="40.84667084273709" lon="8.822624475525965"><ele>305.0</ele><time>2026-04-30T08:43:40.001Z</time></trkpt><trkpt lat="40.846560601070905" lon="8.822743333496355"><ele>304.0</ele><time>2026-04-30T08:43:41.001Z</time></trkpt><trkpt lat="40.84643697080387" lon="8.822833967289284"><ele>303.0</ele><time>2026-04-30T08:43:42.001Z</time></trkpt><trkpt lat="40.84630759668471" lon="8.822885240867214"><ele>302.0</ele><time>2026-04-30T08:43:43.001Z</time></trkpt><trkpt lat="40.84619333731461" lon="8.822946092909373"><ele>302.0</ele><time>2026-04-30T08:43:44.001Z</time></trkpt><trkpt lat="40.846088595760875" lon="8.823014799537184"><ele>302.0</ele><time>2026-04-30T08:43:45.001Z</time></trkpt><trkpt lat="40.84599634121663" lon="8.823106577638121"><ele>302.0</ele><time>2026-04-30T08:43:46.001Z</time></trkpt><trkpt lat="40.845916021981786" lon="8.823202421656424"><ele>302.0</ele><time>2026-04-30T08:43:47.001Z</time></trkpt><trkpt lat="40.845842128590384" lon="8.823291963201568"><ele>302.0</ele><time>2026-04-30T08:43:48.001Z</time></trkpt><trkpt lat="40.84578146361882" lon="8.823401179935477"><ele>299.6</ele><time>2026-04-30T08:43:49.001Z</time></trkpt><trkpt lat="40.8457048003029" lon="8.823497448329377"><ele>297.2</ele><time>2026-04-30T08:43:50.001Z</time></trkpt><trkpt lat="40.84566393199646" lon="8.823631176219802"><ele>294.8</ele><time>2026-04-30T08:43:51.001Z</time></trkpt><trkpt lat="40.845646977325835" lon="8.823783042569424"><ele>292.4</ele><time>2026-04-30T08:43:52.001Z</time></trkpt><trkpt lat="40.84563979562332" lon="8.823928606122305"><ele>290.0</ele><time>2026-04-30T08:43:53.001Z</time></trkpt><trkpt lat="40.845634001421345" lon="8.824062102313635"><ele>290.0</ele><time>2026-04-30T08:43:54.001Z</time></trkpt><trkpt lat="40.845627820375235" lon="8.824193557433457"><ele>290.0</ele><time>2026-04-30T08:43:55.001Z</time></trkpt><trkpt lat="40.84562587165857" lon="8.824324569496282"><ele>290.0</ele><time>2026-04-30T08:43:56.001Z</time></trkpt><trkpt lat="40.84558747946179" lon="8.8244349841422"><ele>290.0</ele><time>2026-04-30T08:43:57.001Z</time></trkpt><trkpt lat="40.845530704291896" lon="8.824530786673666"><ele>290.0</ele><time>2026-04-30T08:43:58.001Z</time></trkpt><trkpt lat="40.84545116611957" lon="8.824610084955237"><ele>289.0</ele><time>2026-04-30T08:43:59.001Z</time></trkpt><trkpt lat="40.84535184858018" lon="8.824655590951773"><ele>288.0</ele><time>2026-04-30T08:44:00.001Z</time></trkpt><trkpt lat="40.84524741698637" lon="8.824661062488815"><ele>287.0</ele><time>2026-04-30T08:44:01.001Z</time></trkpt><trkpt lat="40.84514530553078" lon="8.824633213437039"><ele>286.0</ele><time>2026-04-30T08:44:02.001Z</time></trkpt><trkpt lat="40.84504655597147" lon="8.824602530220767"><ele>285.0</ele><time>2026-04-30T08:44:03.001Z</time></trkpt><trkpt lat="40.84494662366809" lon="8.824587796150494"><ele>285.0</ele><time>2026-04-30T08:44:04.001Z</time></trkpt><trkpt lat="40.844835109202705" lon="8.82456913658961"><ele>285.0</ele><time>2026-04-30T08:44:05.001Z</time></trkpt><trkpt lat="40.844726347602695" lon="8.824593043215907"><ele>285.0</ele><time>2026-04-30T08:44:06.001Z</time></trkpt><trkpt lat="40.844618301252325" lon="8.824633453962203"><ele>285.0</ele><time>2026-04-30T08:44:07.001Z</time></trkpt><trkpt lat="40.84451910091582" lon="8.824721350518496"><ele>285.0</ele><time>2026-04-30T08:44:08.001Z</time></trkpt><trkpt lat="40.84441655044774" lon="8.824814428176401"><ele>285.0</ele><time>2026-04-30T08:44:09.001Z</time></trkpt><trkpt lat="40.844313212025874" lon="8.82490092519995"><ele>285.0</ele><time>2026-04-30T08:44:10.001Z</time></trkpt><trkpt lat="40.84423085373364" lon="8.825030997033021"><ele>285.0</ele><time>2026-04-30T08:44:11.001Z</time></trkpt><trkpt lat="40.844195472883875" lon="8.82520103912467"><ele>284.3333333333333</ele><time>2026-04-30T08:44:12.001Z</time></trkpt><trkpt lat="40.84416082568232" lon="8.82537710163676"><ele>283.66666666666663</ele><time>2026-04-30T08:44:13.001Z</time></trkpt><trkpt lat="40.84412803499334" lon="8.825575794993643"><ele>283.0</ele><time>2026-04-30T08:44:14.001Z</time></trkpt><trkpt lat="40.844076949507745" lon="8.825775083720172"><ele>283.0</ele><time>2026-04-30T08:44:15.001Z</time></trkpt><trkpt lat="40.84404461021684" lon="8.825969453995315"><ele>283.0</ele><time>2026-04-30T08:44:16.001Z</time></trkpt><trkpt lat="40.844014537973905" lon="8.826150844370467"><ele>283.0</ele><time>2026-04-30T08:44:17.001Z</time></trkpt><trkpt lat="40.84393886649308" lon="8.826319192662544"><ele>283.0</ele><time>2026-04-30T08:44:18.001Z</time></trkpt><trkpt lat="40.84383849647318" lon="8.826482840403969"><ele>284.0</ele><time>2026-04-30T08:44:19.001Z</time></trkpt><trkpt lat="40.84371637323232" lon="8.826639161826334"><ele>285.0</ele><time>2026-04-30T08:44:20.001Z</time></trkpt><trkpt lat="40.84362720694892" lon="8.826811630751013"><ele>286.0</ele><time>2026-04-30T08:44:21.001Z</time></trkpt><trkpt lat="40.84355275392175" lon="8.8269774637288"><ele>281.0</ele><time>2026-04-30T08:44:22.001Z</time></trkpt><trkpt lat="40.843451269454654" lon="8.82710261913199"><ele>276.0</ele><time>2026-04-30T08:44:23.001Z</time></trkpt><trkpt lat="40.84333814148915" lon="8.827192209587517"><ele>271.0</ele><time>2026-04-30T08:44:24.001Z</time></trkpt><trkpt lat="40.84324801792051" lon="8.827322742093264"><ele>266.0</ele><time>2026-04-30T08:44:25.001Z</time></trkpt><trkpt lat="40.84317952180072" lon="8.827493265910887"><ele>266.33333333333337</ele><time>2026-04-30T08:44:26.001Z</time></trkpt><trkpt lat="40.84313434803989" lon="8.827687274451199"><ele>266.6666666666667</ele><time>2026-04-30T08:44:27.001Z</time></trkpt><trkpt lat="40.8431158034386" lon="8.82790325922489"><ele>267.0</ele><time>2026-04-30T08:44:28.001Z</time></trkpt><trkpt lat="40.843108526556996" lon="8.828080522630646"><ele>267.0</ele><time>2026-04-30T08:44:29.001Z</time></trkpt><trkpt lat="40.84309937056183" lon="8.828240349441844"><ele>267.0</ele><time>2026-04-30T08:44:30.001Z</time></trkpt><trkpt lat="40.8430892840295" lon="8.828391541442306"><ele>267.0</ele><time>2026-04-30T08:44:31.001Z</time></trkpt><trkpt lat="40.84301238533258" lon="8.828492446579563"><ele>267.0</ele><time>2026-04-30T08:44:32.001Z</time></trkpt><trkpt lat="40.84293318041457" lon="8.828572432374122"><ele>267.0</ele><time>2026-04-30T08:44:33.001Z</time></trkpt><trkpt lat="40.84283344129477" lon="8.828554067165996"><ele>268.0</ele><time>2026-04-30T08:44:34.001Z</time></trkpt><trkpt lat="40.842731638044846" lon="8.82853483034544"><ele>269.0</ele><time>2026-04-30T08:44:35.001Z</time></trkpt><trkpt lat="40.84261736965735" lon="8.828505099452187"><ele>270.0</ele><time>2026-04-30T08:44:36.001Z</time></trkpt><trkpt lat="40.84248875427833" lon="8.828470099202814"><ele>271.0</ele><time>2026-04-30T08:44:37.001Z</time></trkpt><trkpt lat="40.84236214741089" lon="8.828427886783649"><ele>268.75</ele><time>2026-04-30T08:44:38.001Z</time></trkpt><trkpt lat="40.84225881201409" lon="8.828339308610419"><ele>266.5</ele><time>2026-04-30T08:44:39.001Z</time></trkpt><trkpt lat="40.8421571192638" lon="8.828272076459628"><ele>264.25</ele><time>2026-04-30T08:44:40.001Z</time></trkpt><trkpt lat="40.84203523058606" lon="8.82820178864974"><ele>262.0</ele><time>2026-04-30T08:44:41.001Z</time></trkpt><trkpt lat="40.841889688213314" lon="8.82820601684787"><ele>262.0</ele><time>2026-04-30T08:44:42.001Z</time></trkpt><trkpt lat="40.841731782676405" lon="8.828218909868225"><ele>262.0</ele><time>2026-04-30T08:44:43.001Z</time></trkpt><trkpt lat="40.84158281891384" lon="8.82823212986264"><ele>262.0</ele><time>2026-04-30T08:44:44.001Z</time></trkpt><trkpt lat="40.84144171617306" lon="8.828246844406232"><ele>262.0</ele><time>2026-04-30T08:44:45.001Z</time></trkpt><trkpt lat="40.84130649587878" lon="8.828262266717495"><ele>262.0</ele><time>2026-04-30T08:44:46.001Z</time></trkpt><trkpt lat="40.84117412780439" lon="8.828303281064949"><ele>262.0</ele><time>2026-04-30T08:44:47.001Z</time></trkpt><trkpt lat="40.841053411176844" lon="8.828359482720387"><ele>262.0</ele><time>2026-04-30T08:44:48.001Z</time></trkpt><trkpt lat="40.84094503161306" lon="8.828448547403095"><ele>262.0</ele><time>2026-04-30T08:44:49.001Z</time></trkpt><trkpt lat="40.840862032854254" lon="8.82857265135706"><ele>262.75</ele><time>2026-04-30T08:44:50.001Z</time></trkpt><trkpt lat="40.84077875472695" lon="8.828687646897539"><ele>263.5</ele><time>2026-04-30T08:44:51.001Z</time></trkpt><trkpt lat="40.840691178790685" lon="8.828788802754083"><ele>264.25</ele><time>2026-04-30T08:44:52.001Z</time></trkpt><trkpt lat="40.84063120218465" lon="8.828919079776895"><ele>265.0</ele><time>2026-04-30T08:44:53.001Z</time></trkpt><trkpt lat="40.8406013839497" lon="8.82908488238824"><ele>265.0</ele><time>2026-04-30T08:44:54.001Z</time></trkpt><trkpt lat="40.840590866050924" lon="8.829266184211757"><ele>265.0</ele><time>2026-04-30T08:44:55.001Z</time></trkpt><trkpt lat="40.840584437598444" lon="8.829459049578755"><ele>265.0</ele><time>2026-04-30T08:44:56.001Z</time></trkpt><trkpt lat="40.840578269871045" lon="8.829658784175157"><ele>265.0</ele><time>2026-04-30T08:44:57.001Z</time></trkpt><trkpt lat="40.8405840819524" lon="8.82986241869629"><ele>265.75</ele><time>2026-04-30T08:44:58.001Z</time></trkpt><trkpt lat="40.84056878559451" lon="8.830055030896867"><ele>266.5</ele><time>2026-04-30T08:44:59.001Z</time></trkpt><trkpt lat="40.840543076404714" lon="8.83023328289814"><ele>267.25</ele><time>2026-04-30T08:45:00.001Z</time></trkpt><trkpt lat="40.84051171471744" lon="8.830396119946228"><ele>268.0</ele><time>2026-04-30T08:45:01.001Z</time></trkpt><trkpt lat="40.840487498771424" lon="8.830550612523968"><ele>266.25</ele><time>2026-04-30T08:45:02.001Z</time></trkpt><trkpt lat="40.84045896956756" lon="8.830701679688623"><ele>264.5</ele><time>2026-04-30T08:45:03.001Z</time></trkpt><trkpt lat="40.84049064566946" lon="8.830850340535775"><ele>262.75</ele><time>2026-04-30T08:45:04.001Z</time></trkpt><trkpt lat="40.84053238479834" lon="8.830985037262828"><ele>261.0</ele><time>2026-04-30T08:45:05.001Z</time></trkpt><trkpt lat="40.84060048825552" lon="8.831096944883035"><ele>256.75</ele><time>2026-04-30T08:45:06.001Z</time></trkpt><trkpt lat="40.84068976518044" lon="8.831176342585096"><ele>252.5</ele><time>2026-04-30T08:45:07.001Z</time></trkpt><trkpt lat="40.840794579817405" lon="8.831212882932858"><ele>248.25</ele><time>2026-04-30T08:45:08.001Z</time></trkpt><trkpt lat="40.84090964703863" lon="8.831205809882782"><ele>244.0</ele><time>2026-04-30T08:45:09.001Z</time></trkpt><trkpt lat="40.84104131630815" lon="8.831206073487932"><ele>244.0</ele><time>2026-04-30T08:45:10.001Z</time></trkpt><trkpt lat="40.84117334267942" lon="8.831252334428934"><ele>244.0</ele><time>2026-04-30T08:45:11.001Z</time></trkpt><trkpt lat="40.8412896222236" lon="8.83133628734612"><ele>244.0</ele><time>2026-04-30T08:45:12.001Z</time></trkpt><trkpt lat="40.84138933466556" lon="8.831452612791685"><ele>244.0</ele><time>2026-04-30T08:45:13.001Z</time></trkpt><trkpt lat="40.841477958698405" lon="8.831556631224599"><ele>244.0</ele><time>2026-04-30T08:45:14.001Z</time></trkpt><trkpt lat="40.841575035367114" lon="8.831616112135869"><ele>244.0</ele><time>2026-04-30T08:45:15.001Z</time></trkpt><trkpt lat="40.84168554554517" lon="8.831631475216415"><ele>244.0</ele><time>2026-04-30T08:45:16.001Z</time></trkpt><trkpt lat="40.84179976951846" lon="8.831545860889696"><ele>244.0</ele><time>2026-04-30T08:45:17.001Z</time></trkpt><trkpt lat="40.841935408738536" lon="8.831453538418698"><ele>241.66666666666666</ele><time>2026-04-30T08:45:18.001Z</time></trkpt><trkpt lat="40.84207904672205" lon="8.831353043267924"><ele>239.33333333333331</ele><time>2026-04-30T08:45:19.001Z</time></trkpt><trkpt lat="40.84221753746798" lon="8.831244622625821"><ele>237.0</ele><time>2026-04-30T08:45:20.001Z</time></trkpt><trkpt lat="40.842326845407534" lon="8.83111077535992"><ele>241.33333333333331</ele><time>2026-04-30T08:45:21.001Z</time></trkpt><trkpt lat="40.84242886797957" lon="8.830937265486106"><ele>245.66666666666666</ele><time>2026-04-30T08:45:22.001Z</time></trkpt><trkpt lat="40.842530172913534" lon="8.830732796330086"><ele>250.0</ele><time>2026-04-30T08:45:23.001Z</time></trkpt><trkpt lat="40.84261780681788" lon="8.830549281431955"><ele>248.25</ele><time>2026-04-30T08:45:24.001Z</time></trkpt><trkpt lat="40.842698913578154" lon="8.830391535934515"><ele>246.5</ele><time>2026-04-30T08:45:25.001Z</time></trkpt><trkpt lat="40.84277747901644" lon="8.830248984424802"><ele>244.75</ele><time>2026-04-30T08:45:26.001Z</time></trkpt><trkpt lat="40.84287285292208" lon="8.830149001199525"><ele>243.0</ele><time>2026-04-30T08:45:27.001Z</time></trkpt><trkpt lat="40.84298476168885" lon="8.830088428111294"><ele>243.0</ele><time>2026-04-30T08:45:28.001Z</time></trkpt><trkpt lat="40.84311061626744" lon="8.830073277560547"><ele>243.0</ele><time>2026-04-30T08:45:29.001Z</time></trkpt><trkpt lat="40.84324581870153" lon="8.830112155200373"><ele>243.0</ele><time>2026-04-30T08:45:30.001Z</time></trkpt><trkpt lat="40.84338779874544" lon="8.830167568591142"><ele>243.0</ele><time>2026-04-30T08:45:31.001Z</time></trkpt><trkpt lat="40.84350902410259" lon="8.83020349047063"><ele>240.8</ele><time>2026-04-30T08:45:32.001Z</time></trkpt><trkpt lat="40.843615692368786" lon="8.830204180064529"><ele>238.60000000000002</ele><time>2026-04-30T08:45:33.001Z</time></trkpt><trkpt lat="40.84370600718792" lon="8.83016441512669"><ele>236.39999999999998</ele><time>2026-04-30T08:45:34.001Z</time></trkpt><trkpt lat="40.843779988490425" lon="8.83008213922616"><ele>234.2</ele><time>2026-04-30T08:45:35.001Z</time></trkpt><trkpt lat="40.84381835580966" lon="8.829955410120842"><ele>232.0</ele><time>2026-04-30T08:45:36.001Z</time></trkpt><trkpt lat="40.84382025871377" lon="8.829795311710946"><ele>232.0</ele><time>2026-04-30T08:45:37.001Z</time></trkpt><trkpt lat="40.84381921356567" lon="8.829633759267649"><ele>232.0</ele><time>2026-04-30T08:45:38.001Z</time></trkpt><trkpt lat="40.843846963044165" lon="8.829490619404158"><ele>232.0</ele><time>2026-04-30T08:45:39.001Z</time></trkpt><trkpt lat="40.84390951745993" lon="8.829370397818707"><ele>232.0</ele><time>2026-04-30T08:45:40.001Z</time></trkpt><trkpt lat="40.844002312226145" lon="8.82928749078782"><ele>230.75</ele><time>2026-04-30T08:45:41.001Z</time></trkpt><trkpt lat="40.84412338939641" lon="8.82923383326391"><ele>229.5</ele><time>2026-04-30T08:45:42.001Z</time></trkpt><trkpt lat="40.844262405723015" lon="8.829185204431207"><ele>228.25</ele><time>2026-04-30T08:45:43.001Z</time></trkpt><trkpt lat="40.84441000829269" lon="8.82913665605916"><ele>227.0</ele><time>2026-04-30T08:45:44.001Z</time></trkpt><trkpt lat="40.84457385162475" lon="8.829101949199607"><ele>227.0</ele><time>2026-04-30T08:45:45.001Z</time></trkpt><trkpt lat="40.84472221775055" lon="8.829083126704482"><ele>227.0</ele><time>2026-04-30T08:45:46.001Z</time></trkpt><trkpt lat="40.84486524013724" lon="8.82905819401332"><ele>227.0</ele><time>2026-04-30T08:45:47.001Z</time></trkpt><trkpt lat="40.844999201655064" lon="8.829008577385142"><ele>227.0</ele><time>2026-04-30T08:45:48Z</time></trkpt><trkpt lat="40.84512381064183" lon="8.828922592443366"><ele>223.66666666666669</ele><time>2026-04-30T08:45:49Z</time></trkpt><trkpt lat="40.84524073770768" lon="8.82878773140056"><ele>220.33333333333331</ele><time>2026-04-30T08:45:50Z</time></trkpt><trkpt lat="40.84535289433118" lon="8.828620315778386"><ele>217.0</ele><time>2026-04-30T08:45:51Z</time></trkpt><trkpt lat="40.845453740787335" lon="8.82845739242932"><ele>217.0</ele><time>2026-04-30T08:45:52Z</time></trkpt><trkpt lat="40.84555472597404" lon="8.828305011150904"><ele>217.0</ele><time>2026-04-30T08:45:53Z</time></trkpt><trkpt lat="40.84565606331965" lon="8.828169758783208"><ele>217.0</ele><time>2026-04-30T08:45:54Z</time></trkpt><trkpt lat="40.845769296061846" lon="8.828058331381147"><ele>217.0</ele><time>2026-04-30T08:45:55Z</time></trkpt><trkpt lat="40.84590484307889" lon="8.827972187734318"><ele>214.66666666666666</ele><time>2026-04-30T08:45:56Z</time></trkpt><trkpt lat="40.84605894528154" lon="8.827895304231886"><ele>212.33333333333331</ele><time>2026-04-30T08:45:57Z</time></trkpt><trkpt lat="40.84621073192919" lon="8.827822964445874"><ele>210.0</ele><time>2026-04-30T08:45:58Z</time></trkpt><trkpt lat="40.84635533336928" lon="8.827757055941861"><ele>210.0</ele><time>2026-04-30T08:45:59Z</time></trkpt><trkpt lat="40.84649263411303" lon="8.827694230685008"><ele>210.0</ele><time>2026-04-30T08:46:00Z</time></trkpt><trkpt lat="40.8466214076072" lon="8.827636193104778"><ele>210.0</ele><time>2026-04-30T08:46:01Z</time></trkpt><trkpt lat="40.84674491521748" lon="8.827591424413214"><ele>210.0</ele><time>2026-04-30T08:46:02Z</time></trkpt><trkpt lat="40.84686593157887" lon="8.827581157702651"><ele>209.8</ele><time>2026-04-30T08:46:03Z</time></trkpt><trkpt lat="40.84698338982712" lon="8.827611107913977"><ele>209.6</ele><time>2026-04-30T08:46:04Z</time></trkpt><trkpt lat="40.84709093608896" lon="8.827674559671136"><ele>209.39999999999998</ele><time>2026-04-30T08:46:05Z</time></trkpt><trkpt lat="40.8471905685543" lon="8.82774260785692"><ele>209.2</ele><time>2026-04-30T08:46:06Z</time></trkpt><trkpt lat="40.847273487238915" lon="8.827810928716874"><ele>209.0</ele><time>2026-04-30T08:46:07Z</time></trkpt><trkpt lat="40.84733247551516" lon="8.827900184314004"><ele>209.0</ele><time>2026-04-30T08:46:08Z</time></trkpt><trkpt lat="40.84736042991104" lon="8.828014273376462"><ele>209.0</ele><time>2026-04-30T08:46:09Z</time></trkpt><trkpt lat="40.84734597166597" lon="8.82813055631352"><ele>209.0</ele><time>2026-04-30T08:46:10Z</time></trkpt><trkpt lat="40.847297368775756" lon="8.828243049449414"><ele>209.0</ele><time>2026-04-30T08:46:11Z</time></trkpt><trkpt lat="40.847245985664244" lon="8.828348313413745"><ele>209.0</ele><time>2026-04-30T08:46:12Z</time></trkpt><trkpt lat="40.84719832447401" lon="8.828444644494489"><ele>208.28571428571428</ele><time>2026-04-30T08:46:13Z</time></trkpt><trkpt lat="40.8471567684026" lon="8.828527499232395"><ele>207.57142857142856</ele><time>2026-04-30T08:46:14Z</time></trkpt><trkpt lat="40.84712248715412" lon="8.828609376633137"><ele>206.85714285714286</ele><time>2026-04-30T08:46:15Z</time></trkpt><trkpt lat="40.84708899844609" lon="8.828687571813111"><ele>206.14285714285714</ele><time>2026-04-30T08:46:16Z</time></trkpt><trkpt lat="40.84705777828974" lon="8.828761131555934"><ele>205.42857142857144</ele><time>2026-04-30T08:46:17Z</time></trkpt><trkpt lat="40.846998277434615" lon="8.828879634063346"><ele>204.71428571428572</ele><time>2026-04-30T08:46:19Z</time></trkpt><trkpt lat="40.84695159930199" lon="8.828937503776679"><ele>204.0</ele><time>2026-04-30T08:46:21Z</time></trkpt><trkpt lat="40.84691869142268" lon="8.82902504740849"><ele>204.0</ele><time>2026-04-30T08:46:46Z</time></trkpt><trkpt lat="40.84689397149103" lon="8.829109771873451"><ele>204.0</ele><time>2026-04-30T08:46:47Z</time></trkpt><trkpt lat="40.846851075779476" lon="8.829172524303322"><ele>204.0</ele><time>2026-04-30T08:46:48Z</time></trkpt><trkpt lat="40.84681602681048" lon="8.829250054757429"><ele>204.0</ele><time>2026-04-30T08:46:49Z</time></trkpt><trkpt lat="40.84677781389219" lon="8.829334583984487"><ele>204.0</ele><time>2026-04-30T08:46:50Z</time></trkpt><trkpt lat="40.84673863460201" lon="8.82942125087843"><ele>204.0</ele><time>2026-04-30T08:46:51Z</time></trkpt><trkpt lat="40.84669733045232" lon="8.829512607175976"><ele>204.0</ele><time>2026-04-30T08:46:52Z</time></trkpt><trkpt lat="40.846649472881204" lon="8.829619990917"><ele>203.5</ele><time>2026-04-30T08:46:53Z</time></trkpt><trkpt lat="40.846594915633595" lon="8.829742407472244"><ele>203.0</ele><time>2026-04-30T08:46:54Z</time></trkpt><trkpt lat="40.84653127379717" lon="8.829885208222601"><ele>202.5</ele><time>2026-04-30T08:46:55Z</time></trkpt><trkpt lat="40.846476729357825" lon="8.830041657790574"><ele>202.0</ele><time>2026-04-30T08:46:56Z</time></trkpt><trkpt lat="40.84640825839888" lon="8.830190591682847"><ele>200.75</ele><time>2026-04-30T08:46:57Z</time></trkpt><trkpt lat="40.84633484041753" lon="8.830323992070667"><ele>199.5</ele><time>2026-04-30T08:46:58Z</time></trkpt><trkpt lat="40.846275499809096" lon="8.830456194119208"><ele>198.25</ele><time>2026-04-30T08:46:59Z</time></trkpt><trkpt lat="40.84621810870024" lon="8.830586318885812"><ele>197.0</ele><time>2026-04-30T08:47:00Z</time></trkpt><trkpt lat="40.84616794172766" lon="8.830703491307386"><ele>197.00000000000003</ele><time>2026-04-30T08:47:01Z</time></trkpt><trkpt lat="40.84611360051417" lon="8.830807315081687"><ele>197.0</ele><time>2026-04-30T08:47:02Z</time></trkpt><trkpt lat="40.846053468850855" lon="8.830892038908123"><ele>197.0</ele><time>2026-04-30T08:47:03Z</time></trkpt><trkpt lat="40.84598827179977" lon="8.83096858802246"><ele>197.0</ele><time>2026-04-30T08:47:04Z</time></trkpt><trkpt lat="40.8459309200634" lon="8.831047450463661"><ele>197.00000000000003</ele><time>2026-04-30T08:47:05Z</time></trkpt><trkpt lat="40.845866279200024" lon="8.831131514759171"><ele>197.0</ele><time>2026-04-30T08:47:06Z</time></trkpt><trkpt lat="40.84580564888691" lon="8.831219164773751"><ele>197.0</ele><time>2026-04-30T08:47:07Z</time></trkpt><trkpt lat="40.845746643418714" lon="8.831308245070225"><ele>197.0</ele><time>2026-04-30T08:47:08Z</time></trkpt><trkpt lat="40.84568777519854" lon="8.831411492380717"><ele>197.0</ele><time>2026-04-30T08:47:09Z</time></trkpt><trkpt lat="40.84562905120511" lon="8.831521184835573"><ele>197.0</ele><time>2026-04-30T08:47:10Z</time></trkpt><trkpt lat="40.84557810827472" lon="8.831637854936487"><ele>197.0</ele><time>2026-04-30T08:47:11Z</time></trkpt><trkpt lat="40.845528768980934" lon="8.831761835621503"><ele>197.0</ele><time>2026-04-30T08:47:12Z</time></trkpt><trkpt lat="40.84546267152682" lon="8.831875466155816"><ele>197.0</ele><time>2026-04-30T08:47:13Z</time></trkpt><trkpt lat="40.845418124205146" lon="8.83199462773283"><ele>197.0</ele><time>2026-04-30T08:47:14Z</time></trkpt><trkpt lat="40.845373585194984" lon="8.832111384910998"><ele>197.0</ele><time>2026-04-30T08:47:15Z</time></trkpt><trkpt lat="40.845337922317256" lon="8.832238188424745"><ele>197.0</ele><time>2026-04-30T08:47:16Z</time></trkpt><trkpt lat="40.84527997772005" lon="8.832350682011997"><ele>197.0</ele><time>2026-04-30T08:47:17Z</time></trkpt><trkpt lat="40.84521505511839" lon="8.832458237308012"><ele>197.0</ele><time>2026-04-30T08:47:18.001Z</time></trkpt><trkpt lat="40.84513208256947" lon="8.832545416410255"><ele>197.0</ele><time>2026-04-30T08:47:19.001Z</time></trkpt><trkpt lat="40.845054560273404" lon="8.832644553837067"><ele>197.0</ele><time>2026-04-30T08:47:20.001Z</time></trkpt><trkpt lat="40.84497270943687" lon="8.83274701663046"><ele>197.0</ele><time>2026-04-30T08:47:21.001Z</time></trkpt><trkpt lat="40.84489149008292" lon="8.832846923812108"><ele>196.2</ele><time>2026-04-30T08:47:22.001Z</time></trkpt><trkpt lat="40.844823650162034" lon="8.832958485358798"><ele>195.39999999999998</ele><time>2026-04-30T08:47:23.001Z</time></trkpt><trkpt lat="40.84474125462465" lon="8.833041507301756"><ele>194.60000000000002</ele><time>2026-04-30T08:47:24.001Z</time></trkpt><trkpt lat="40.84465932040383" lon="8.833119290841337"><ele>193.8</ele><time>2026-04-30T08:47:25.001Z</time></trkpt><trkpt lat="40.844574479431" lon="8.833184119281302"><ele>193.0</ele><time>2026-04-30T08:47:26.001Z</time></trkpt><trkpt lat="40.84447641958804" lon="8.83324184873855"><ele>193.0</ele><time>2026-04-30T08:47:27.001Z</time></trkpt><trkpt lat="40.84437858492326" lon="8.83329832404154"><ele>193.0</ele><time>2026-04-30T08:47:28.001Z</time></trkpt><trkpt lat="40.84429260517915" lon="8.833351133609117"><ele>193.0</ele><time>2026-04-30T08:47:29.001Z</time></trkpt><trkpt lat="40.844210769293056" lon="8.833406934000195"><ele>193.0</ele><time>2026-04-30T08:47:30.001Z</time></trkpt><trkpt lat="40.84413363093906" lon="8.833465283485028"><ele>193.0</ele><time>2026-04-30T08:47:31.001Z</time></trkpt><trkpt lat="40.84408238203992" lon="8.833550552480174"><ele>193.5</ele><time>2026-04-30T08:47:32.001Z</time></trkpt><trkpt lat="40.84401622339554" lon="8.83366658766192"><ele>194.0</ele><time>2026-04-30T08:47:33.001Z</time></trkpt><trkpt lat="40.84399735949049" lon="8.83382938311127"><ele>194.5</ele><time>2026-04-30T08:47:34.001Z</time></trkpt><trkpt lat="40.844149277748414" lon="8.83394109705892"><ele>195.0</ele><time>2026-04-30T08:47:35.001Z</time></trkpt><trkpt lat="40.84421236642547" lon="8.834065340480207"><ele>195.0</ele><time>2026-04-30T08:47:36.001Z</time></trkpt><trkpt lat="40.84427328792125" lon="8.834202160489497"><ele>195.0</ele><time>2026-04-30T08:47:37.001Z</time></trkpt><trkpt lat="40.84432631443477" lon="8.834346415504596"><ele>195.0</ele><time>2026-04-30T08:47:38.001Z</time></trkpt><trkpt lat="40.84436149715801" lon="8.834502516139"><ele>195.0</ele><time>2026-04-30T08:47:39.001Z</time></trkpt><trkpt lat="40.84437767231694" lon="8.834669564589698"><ele>192.75</ele><time>2026-04-30T08:47:40.001Z</time></trkpt><trkpt lat="40.844375351957666" lon="8.83484583127288"><ele>190.5</ele><time>2026-04-30T08:47:41.001Z</time></trkpt><trkpt lat="40.84436690551614" lon="8.83503865764142"><ele>188.25</ele><time>2026-04-30T08:47:42.001Z</time></trkpt><trkpt lat="40.84434805620861" lon="8.835235326157495"><ele>186.0</ele><time>2026-04-30T08:47:43.001Z</time></trkpt><trkpt lat="40.844371712976056" lon="8.835445205025534"><ele>186.0</ele><time>2026-04-30T08:47:44.001Z</time></trkpt><trkpt lat="40.84440951288677" lon="8.835626556777086"><ele>186.0</ele><time>2026-04-30T08:47:45.001Z</time></trkpt><trkpt lat="40.84446433256047" lon="8.835783849546573"><ele>186.0</ele><time>2026-04-30T08:47:46.001Z</time></trkpt><trkpt lat="40.8444802466895" lon="8.83594638640209"><ele>186.0</ele><time>2026-04-30T08:47:47.001Z</time></trkpt><trkpt lat="40.84446594683757" lon="8.836098928871396"><ele>185.0</ele><time>2026-04-30T08:47:48.001Z</time></trkpt><trkpt lat="40.84442235135734" lon="8.836255360068305"><ele>184.0</ele><time>2026-04-30T08:47:49.001Z</time></trkpt><trkpt lat="40.84435281410456" lon="8.83641758020545"><ele>183.0</ele><time>2026-04-30T08:47:50.001Z</time></trkpt><trkpt lat="40.844273705770384" lon="8.83658999076374"><ele>182.0</ele><time>2026-04-30T08:47:51.001Z</time></trkpt><trkpt lat="40.84417458682522" lon="8.836763615280418"><ele>184.33333333333331</ele><time>2026-04-30T08:47:52.001Z</time></trkpt><trkpt lat="40.84410006901296" lon="8.836969013523495"><ele>186.66666666666666</ele><time>2026-04-30T08:47:53.001Z</time></trkpt><trkpt lat="40.844006964938224" lon="8.83713427338517"><ele>189.0</ele><time>2026-04-30T08:47:54Z</time></trkpt><trkpt lat="40.84394700926029" lon="8.83728946176156"><ele>189.0</ele><time>2026-04-30T08:47:55Z</time></trkpt><trkpt lat="40.84387107862153" lon="8.837398617998348"><ele>189.0</ele><time>2026-04-30T08:47:56Z</time></trkpt><trkpt lat="40.84378750530608" lon="8.837490717475461"><ele>189.0</ele><time>2026-04-30T08:47:57Z</time></trkpt><trkpt lat="40.843702525607355" lon="8.837557867750586"><ele>189.0</ele><time>2026-04-30T08:47:58Z</time></trkpt><trkpt lat="40.84360709465202" lon="8.837614211019734"><ele>189.0</ele><time>2026-04-30T08:47:59Z</time></trkpt><trkpt lat="40.84349855171713" lon="8.837670977398862"><ele>189.5</ele><time>2026-04-30T08:48:00Z</time></trkpt><trkpt lat="40.843379800850634" lon="8.837723219786575"><ele>190.0</ele><time>2026-04-30T08:48:01Z</time></trkpt><trkpt lat="40.84325520645786" lon="8.83778403669633"><ele>190.5</ele><time>2026-04-30T08:48:02Z</time></trkpt><trkpt lat="40.84312387249328" lon="8.837845165923317"><ele>191.0</ele><time>2026-04-30T08:48:03Z</time></trkpt><trkpt lat="40.842986372792765" lon="8.837906258217696"><ele>191.0</ele><time>2026-04-30T08:48:04Z</time></trkpt><trkpt lat="40.842841351427865" lon="8.837974122664882"><ele>191.0</ele><time>2026-04-30T08:48:05Z</time></trkpt><trkpt lat="40.84269369341902" lon="8.838041943542663"><ele>191.0</ele><time>2026-04-30T08:48:06Z</time></trkpt><trkpt lat="40.84255420277755" lon="8.83810162560822"><ele>189.25</ele><time>2026-04-30T08:48:07Z</time></trkpt><trkpt lat="40.84243007890221" lon="8.838176706660079"><ele>187.5</ele><time>2026-04-30T08:48:08Z</time></trkpt><trkpt lat="40.84230681288816" lon="8.838250379771514"><ele>185.75</ele><time>2026-04-30T08:48:09Z</time></trkpt><trkpt lat="40.84220747913394" lon="8.83837311147716"><ele>184.0</ele><time>2026-04-30T08:48:10Z</time></trkpt><trkpt lat="40.84211673831771" lon="8.838510321364566"><ele>183.25</ele><time>2026-04-30T08:48:11Z</time></trkpt><trkpt lat="40.84202235607668" lon="8.838649782956972"><ele>182.5</ele><time>2026-04-30T08:48:12Z</time></trkpt><trkpt lat="40.841925934029696" lon="8.83879225858137"><ele>181.75</ele><time>2026-04-30T08:48:13Z</time></trkpt><trkpt lat="40.8418396933068" lon="8.838946868291544"><ele>181.0</ele><time>2026-04-30T08:48:14Z</time></trkpt><trkpt lat="40.84174331529538" lon="8.83908529286894"><ele>180.5</ele><time>2026-04-30T08:48:15Z</time></trkpt><trkpt lat="40.841651553075195" lon="8.839227054306548"><ele>180.0</ele><time>2026-04-30T08:48:16Z</time></trkpt><trkpt lat="40.841550627878874" lon="8.83937091322716"><ele>179.5</ele><time>2026-04-30T08:48:17Z</time></trkpt><trkpt lat="40.84148574145499" lon="8.839559419760583"><ele>179.0</ele><time>2026-04-30T08:48:18Z</time></trkpt><trkpt lat="40.84146637390667" lon="8.839776317248145"><ele>177.0</ele><time>2026-04-30T08:48:19Z</time></trkpt><trkpt lat="40.841455769716596" lon="8.839997853104105"><ele>175.0</ele><time>2026-04-30T08:48:20Z</time></trkpt><trkpt lat="40.84146048271088" lon="8.84024344355652"><ele>173.0</ele><time>2026-04-30T08:48:21Z</time></trkpt><trkpt lat="40.841473496875835" lon="8.84049883585835"><ele>172.33333333333331</ele><time>2026-04-30T08:48:22Z</time></trkpt><trkpt lat="40.84147988612606" lon="8.840756800391288"><ele>171.66666666666666</ele><time>2026-04-30T08:48:23Z</time></trkpt><trkpt lat="40.841485422360336" lon="8.84100217265381"><ele>171.0</ele><time>2026-04-30T08:48:24Z</time></trkpt><trkpt lat="40.8414948287363" lon="8.841240665264285"><ele>170.0</ele><time>2026-04-30T08:48:25Z</time></trkpt><trkpt lat="40.84150623625934" lon="8.84147217653705"><ele>169.0</ele><time>2026-04-30T08:48:26Z</time></trkpt><trkpt lat="40.841501236820505" lon="8.841696374300666"><ele>168.0</ele><time>2026-04-30T08:48:27Z</time></trkpt><trkpt lat="40.841505080861076" lon="8.84191586641799"><ele>167.0</ele><time>2026-04-30T08:48:28Z</time></trkpt><trkpt lat="40.84150331223946" lon="8.84212263460747"><ele>166.0</ele><time>2026-04-30T08:48:29Z</time></trkpt><trkpt lat="40.84149854600681" lon="8.842319059700525"><ele>165.0</ele><time>2026-04-30T08:48:30Z</time></trkpt><trkpt lat="40.84151146694312" lon="8.842513242454858"><ele>162.75</ele><time>2026-04-30T08:48:31Z</time></trkpt><trkpt lat="40.841505625578776" lon="8.842701962422948"><ele>160.5</ele><time>2026-04-30T08:48:32Z</time></trkpt><trkpt lat="40.841499123813485" lon="8.842883222403257"><ele>158.25</ele><time>2026-04-30T08:48:33Z</time></trkpt><trkpt lat="40.841493113354296" lon="8.843049162057516"><ele>156.0</ele><time>2026-04-30T08:48:34Z</time></trkpt><trkpt lat="40.841488088031625" lon="8.843205568915387"><ele>156.0</ele><time>2026-04-30T08:48:35Z</time></trkpt><trkpt lat="40.841483418958184" lon="8.843354439364106"><ele>156.0</ele><time>2026-04-30T08:48:36Z</time></trkpt><trkpt lat="40.84147832010607" lon="8.84349635499076"><ele>156.0</ele><time>2026-04-30T08:48:37Z</time></trkpt><trkpt lat="40.841473453279825" lon="8.843636492090654"><ele>156.0</ele><time>2026-04-30T08:48:38Z</time></trkpt><trkpt lat="40.84146962785785" lon="8.843771648724276"><ele>156.0</ele><time>2026-04-30T08:48:39Z</time></trkpt><trkpt lat="40.841467145529705" lon="8.843902031269323"><ele>155.2</ele><time>2026-04-30T08:48:40Z</time></trkpt><trkpt lat="40.841464570849595" lon="8.844028361495306"><ele>154.39999999999998</ele><time>2026-04-30T08:48:41Z</time></trkpt><trkpt lat="40.84146342905502" lon="8.844151473490305"><ele>153.6</ele><time>2026-04-30T08:48:42Z</time></trkpt><trkpt lat="40.84146229939373" lon="8.84427600328432"><ele>152.79999999999998</ele><time>2026-04-30T08:48:43Z</time></trkpt><trkpt lat="40.84146136315859" lon="8.84442586650913"><ele>152.0</ele><time>2026-04-30T08:48:44Z</time></trkpt><trkpt lat="40.84144569036729" lon="8.844562824567005"><ele>150.2</ele><time>2026-04-30T08:48:45Z</time></trkpt><trkpt lat="40.84140896851686" lon="8.844677354414436"><ele>148.39999999999998</ele><time>2026-04-30T08:48:46Z</time></trkpt><trkpt lat="40.84135346205152" lon="8.844773482885032"><ele>146.60000000000002</ele><time>2026-04-30T08:48:47Z</time></trkpt><trkpt lat="40.841273470874825" lon="8.844856253841126"><ele>144.8</ele><time>2026-04-30T08:48:48Z</time></trkpt><trkpt lat="40.841167685049264" lon="8.844904817656458"><ele>143.0</ele><time>2026-04-30T08:48:49Z</time></trkpt><trkpt lat="40.84107024591399" lon="8.844988419149187"><ele>143.0</ele><time>2026-04-30T08:48:50Z</time></trkpt><trkpt lat="40.84098038373153" lon="8.845098307906898"><ele>143.0</ele><time>2026-04-30T08:48:51Z</time></trkpt><trkpt lat="40.84091594775975" lon="8.845264000028049"><ele>143.0</ele><time>2026-04-30T08:48:52Z</time></trkpt><trkpt lat="40.84085930189347" lon="8.8454693679012"><ele>143.0</ele><time>2026-04-30T08:48:53Z</time></trkpt><trkpt lat="40.840810784774554" lon="8.845664676505383"><ele>141.75</ele><time>2026-04-30T08:48:54Z</time></trkpt><trkpt lat="40.84077624006529" lon="8.84585217814608"><ele>140.5</ele><time>2026-04-30T08:48:55Z</time></trkpt><trkpt lat="40.84070895936871" lon="8.846009272700952"><ele>139.25</ele><time>2026-04-30T08:48:56Z</time></trkpt><trkpt lat="40.8406153562274" lon="8.84615535404322"><ele>138.0</ele><time>2026-04-30T08:48:57Z</time></trkpt><trkpt lat="40.8404912975256" lon="8.846274319313522"><ele>138.0</ele><time>2026-04-30T08:48:58Z</time></trkpt><trkpt lat="40.840357023216946" lon="8.846387924023361"><ele>138.0</ele><time>2026-04-30T08:48:59Z</time></trkpt><trkpt lat="40.840232641525404" lon="8.846521161982368"><ele>138.0</ele><time>2026-04-30T08:49:00Z</time></trkpt><trkpt lat="40.84011030065392" lon="8.846673772493036"><ele>138.66666666666666</ele><time>2026-04-30T08:49:01Z</time></trkpt><trkpt lat="40.84003894495562" lon="8.846880948686646"><ele>139.33333333333331</ele><time>2026-04-30T08:49:02Z</time></trkpt><trkpt lat="40.83997427667075" lon="8.847068267116274"><ele>140.0</ele><time>2026-04-30T08:49:03Z</time></trkpt><trkpt lat="40.83992059800456" lon="8.847241199132238"><ele>140.0</ele><time>2026-04-30T08:49:04Z</time></trkpt><trkpt lat="40.839871686905376" lon="8.847391791611916"><ele>140.0</ele><time>2026-04-30T08:49:05Z</time></trkpt><trkpt lat="40.83981917163038" lon="8.847509024620958"><ele>140.0</ele><time>2026-04-30T08:49:06Z</time></trkpt><trkpt lat="40.83974355454185" lon="8.847598825711586"><ele>140.0</ele><time>2026-04-30T08:49:07Z</time></trkpt><trkpt lat="40.83964670766428" lon="8.847637933956216"><ele>140.0</ele><time>2026-04-30T08:49:08Z</time></trkpt><trkpt lat="40.83953605864287" lon="8.847630376013509"><ele>140.0</ele><time>2026-04-30T08:49:09Z</time></trkpt><trkpt lat="40.83943269395342" lon="8.847558937628778"><ele>140.0</ele><time>2026-04-30T08:49:10Z</time></trkpt><trkpt lat="40.83932925817398" lon="8.84745205371208"><ele>140.0</ele><time>2026-04-30T08:49:11Z</time></trkpt><trkpt lat="40.83921779682955" lon="8.847341458868042"><ele>140.0</ele><time>2026-04-30T08:49:12Z</time></trkpt><trkpt lat="40.839089827710474" lon="8.847241784443705"><ele>140.75</ele><time>2026-04-30T08:49:13Z</time></trkpt><trkpt lat="40.83897326559637" lon="8.847170465944146"><ele>141.5</ele><time>2026-04-30T08:49:14Z</time></trkpt><trkpt lat="40.838870394719265" lon="8.847117860372919"><ele>142.25</ele><time>2026-04-30T08:49:15Z</time></trkpt><trkpt lat="40.83874850720027" lon="8.847072755686392"><ele>143.0</ele><time>2026-04-30T08:49:16Z</time></trkpt><trkpt lat="40.83855929546979" lon="8.84696265413091"><ele>143.0</ele><time>2026-04-30T08:49:17Z</time></trkpt><trkpt lat="40.83846933555927" lon="8.846874473180419"><ele>143.0</ele><time>2026-04-30T08:49:18Z</time></trkpt><trkpt lat="40.83842597579446" lon="8.846736359646584"><ele>143.0</ele><time>2026-04-30T08:49:19Z</time></trkpt><trkpt lat="40.83838444684212" lon="8.84657278147105"><ele>143.0</ele><time>2026-04-30T08:49:20Z</time></trkpt><trkpt lat="40.83836516688479" lon="8.846396369048861"><ele>142.25</ele><time>2026-04-30T08:49:21Z</time></trkpt><trkpt lat="40.83837573696038" lon="8.846231093270948"><ele>141.5</ele><time>2026-04-30T08:49:22Z</time></trkpt><trkpt lat="40.83840168692871" lon="8.846056054185174"><ele>140.75</ele><time>2026-04-30T08:49:23Z</time></trkpt><trkpt lat="40.838417097877354" lon="8.845878476906641"><ele>140.0</ele><time>2026-04-30T08:49:24Z</time></trkpt><trkpt lat="40.83843591241006" lon="8.845717809306644"><ele>140.0</ele><time>2026-04-30T08:49:25Z</time></trkpt><trkpt lat="40.83843526983889" lon="8.845545145955363"><ele>140.0</ele><time>2026-04-30T08:49:26Z</time></trkpt><trkpt lat="40.83841215429915" lon="8.845364117255507"><ele>140.0</ele><time>2026-04-30T08:49:27Z</time></trkpt><trkpt lat="40.83838014609137" lon="8.845178452244316"><ele>140.0</ele><time>2026-04-30T08:49:28Z</time></trkpt><trkpt lat="40.83834460379649" lon="8.844982190458309"><ele>139.66666666666666</ele><time>2026-04-30T08:49:29.001Z</time></trkpt><trkpt lat="40.83829980490572" lon="8.844778484778482"><ele>139.33333333333334</ele><time>2026-04-30T08:49:30.001Z</time></trkpt><trkpt lat="40.83823433932176" lon="8.84459439875078"><ele>139.0</ele><time>2026-04-30T08:49:31.001Z</time></trkpt><trkpt lat="40.838157190089184" lon="8.844412909194057"><ele>140.0</ele><time>2026-04-30T08:49:32.001Z</time></trkpt><trkpt lat="40.83807422347603" lon="8.844240322107872"><ele>141.0</ele><time>2026-04-30T08:49:33.001Z</time></trkpt><trkpt lat="40.83799793732207" lon="8.844074842319037"><ele>142.0</ele><time>2026-04-30T08:49:34.001Z</time></trkpt><trkpt lat="40.83792954389345" lon="8.84391502886873"><ele>143.0</ele><time>2026-04-30T08:49:35.001Z</time></trkpt><trkpt lat="40.83786236625592" lon="8.843766581169952"><ele>143.0</ele><time>2026-04-30T08:49:36.001Z</time></trkpt><trkpt lat="40.83780139759488" lon="8.843616715261257"><ele>143.0</ele><time>2026-04-30T08:49:37.001Z</time></trkpt><trkpt lat="40.837738122758026" lon="8.843471959436469"><ele>143.0</ele><time>2026-04-30T08:49:38.001Z</time></trkpt><trkpt lat="40.83767715410674" lon="8.843335599521643"><ele>143.0</ele><time>2026-04-30T08:49:39.001Z</time></trkpt><trkpt lat="40.837623104558006" lon="8.843201315566203"><ele>138.25</ele><time>2026-04-30T08:49:40.001Z</time></trkpt><trkpt lat="40.83758697341" lon="8.843056760177264"><ele>133.5</ele><time>2026-04-30T08:49:41.001Z</time></trkpt><trkpt lat="40.83757001813625" lon="8.84290991050417"><ele>128.75</ele><time>2026-04-30T08:49:42.001Z</time></trkpt><trkpt lat="40.83757501036108" lon="8.84276133144104"><ele>124.0</ele><time>2026-04-30T08:49:43.001Z</time></trkpt><trkpt lat="40.83758810584092" lon="8.842614419180578"><ele>123.80000000000001</ele><time>2026-04-30T08:49:44.001Z</time></trkpt><trkpt lat="40.83759811753443" lon="8.842469563099828"><ele>123.60000000000001</ele><time>2026-04-30T08:49:45.001Z</time></trkpt><trkpt lat="40.83760700454447" lon="8.842335631739122"><ele>123.4</ele><time>2026-04-30T08:49:46.001Z</time></trkpt><trkpt lat="40.83761157644253" lon="8.842200745392546"><ele>123.2</ele><time>2026-04-30T08:49:47.001Z</time></trkpt><trkpt lat="40.837615664484616" lon="8.842077581136587"><ele>123.0</ele><time>2026-04-30T08:49:48.001Z</time></trkpt><trkpt lat="40.837607446713825" lon="8.841956192749198"><ele>123.0</ele><time>2026-04-30T08:49:49.001Z</time></trkpt><trkpt lat="40.837582684349286" lon="8.841844873878827"><ele>123.00000000000001</ele><time>2026-04-30T08:49:50.001Z</time></trkpt><trkpt lat="40.83753280395346" lon="8.841747771228844"><ele>123.00000000000001</ele><time>2026-04-30T08:49:51.001Z</time></trkpt><trkpt lat="40.837456793087526" lon="8.841656311098006"><ele>123.0</ele><time>2026-04-30T08:49:52.001Z</time></trkpt><trkpt lat="40.83735248568517" lon="8.841593369711362"><ele>123.0</ele><time>2026-04-30T08:49:53.001Z</time></trkpt><trkpt lat="40.83721900827177" lon="8.841554627843822"><ele>123.33333333333334</ele><time>2026-04-30T08:49:54.001Z</time></trkpt><trkpt lat="40.83706775781646" lon="8.84151148889776"><ele>123.66666666666667</ele><time>2026-04-30T08:49:55.001Z</time></trkpt><trkpt lat="40.83690738824972" lon="8.841443175146043"><ele>124.0</ele><time>2026-04-30T08:49:56.001Z</time></trkpt><trkpt lat="40.83674621463154" lon="8.841395573137438"><ele>122.0</ele><time>2026-04-30T08:49:57.001Z</time></trkpt><trkpt lat="40.83660128429473" lon="8.84136707576537"><ele>120.0</ele><time>2026-04-30T08:49:58.001Z</time></trkpt><trkpt lat="40.836473570888344" lon="8.841332852074956"><ele>118.0</ele><time>2026-04-30T08:49:59.001Z</time></trkpt><trkpt lat="40.83635909363583" lon="8.841325238254742"><ele>116.0</ele><time>2026-04-30T08:50:00Z</time></trkpt><trkpt lat="40.83624541105051" lon="8.841339546873325"><ele>116.0</ele><time>2026-04-30T08:50:01Z</time></trkpt><trkpt lat="40.83613271931439" lon="8.841428751588516"><ele>116.0</ele><time>2026-04-30T08:50:02Z</time></trkpt><trkpt lat="40.836032781187285" lon="8.841572280880124"><ele>116.0</ele><time>2026-04-30T08:50:03Z</time></trkpt><trkpt lat="40.83594714779411" lon="8.841749170386532"><ele>116.0</ele><time>2026-04-30T08:50:04Z</time></trkpt><trkpt lat="40.835859966443536" lon="8.841934954637132"><ele>114.66666666666666</ele><time>2026-04-30T08:50:05Z</time></trkpt><trkpt lat="40.83576657360193" lon="8.84213297258366"><ele>113.33333333333334</ele><time>2026-04-30T08:50:06Z</time></trkpt><trkpt lat="40.83566969942269" lon="8.842338399845307"><ele>112.0</ele><time>2026-04-30T08:50:07Z</time></trkpt><trkpt lat="40.835567557547016" lon="8.842555232302493"><ele>111.66666666666667</ele><time>2026-04-30T08:50:08Z</time></trkpt><trkpt lat="40.83546400229556" lon="8.842775065086478"><ele>111.33333333333334</ele><time>2026-04-30T08:50:09Z</time></trkpt><trkpt lat="40.835358216608356" lon="8.84299963266615"><ele>111.0</ele><time>2026-04-30T08:50:10Z</time></trkpt><trkpt lat="40.83526471225026" lon="8.843234452164616"><ele>111.0</ele><time>2026-04-30T08:50:11Z</time></trkpt><trkpt lat="40.835166749877395" lon="8.84344062136596"><ele>111.0</ele><time>2026-04-30T08:50:12Z</time></trkpt><trkpt lat="40.83505695616114" lon="8.843634037531826"><ele>111.0</ele><time>2026-04-30T08:50:13Z</time></trkpt><trkpt lat="40.834969222968546" lon="8.843826527357225"><ele>113.66666666666666</ele><time>2026-04-30T08:50:14Z</time></trkpt><trkpt lat="40.83487419261799" lon="8.844018085357472"><ele>116.33333333333333</ele><time>2026-04-30T08:50:15Z</time></trkpt><trkpt lat="40.83476472010279" lon="8.844205214445898"><ele>119.0</ele><time>2026-04-30T08:50:16Z</time></trkpt><trkpt lat="40.83463665510735" lon="8.844382518152916"><ele>119.0</ele><time>2026-04-30T08:50:17Z</time></trkpt><trkpt lat="40.83450902188814" lon="8.84455520109493"><ele>119.0</ele><time>2026-04-30T08:50:18Z</time></trkpt><trkpt lat="40.834382900726666" lon="8.844749521122171"><ele>119.0</ele><time>2026-04-30T08:50:19Z</time></trkpt><trkpt lat="40.83428657250966" lon="8.844856561974643"><ele>119.5</ele><time>2026-04-30T08:50:20Z</time></trkpt><trkpt lat="40.8341895471661" lon="8.844982640342453"><ele>120.0</ele><time>2026-04-30T08:50:21Z</time></trkpt><trkpt lat="40.8340913358509" lon="8.845095852383453"><ele>120.5</ele><time>2026-04-30T08:50:22Z</time></trkpt><trkpt lat="40.83396505905204" lon="8.8451552976927"><ele>121.0</ele><time>2026-04-30T08:50:23Z</time></trkpt><trkpt lat="40.83383208332973" lon="8.845239239507809"><ele>121.0</ele><time>2026-04-30T08:50:24Z</time></trkpt><trkpt lat="40.83368462940358" lon="8.845330730145097"><ele>121.0</ele><time>2026-04-30T08:50:25Z</time></trkpt><trkpt lat="40.83353450999602" lon="8.845424402994173"><ele>121.0</ele><time>2026-04-30T08:50:26Z</time></trkpt><trkpt lat="40.83339036694571" lon="8.845515947108751"><ele>122.5</ele><time>2026-04-30T08:50:27Z</time></trkpt><trkpt lat="40.833259473944786" lon="8.845599076188623"><ele>124.0</ele><time>2026-04-30T08:50:28Z</time></trkpt><trkpt lat="40.833146690565535" lon="8.84569025587998"><ele>125.5</ele><time>2026-04-30T08:50:29Z</time></trkpt><trkpt lat="40.83303988448567" lon="8.845764494858368"><ele>127.0</ele><time>2026-04-30T08:50:30Z</time></trkpt><trkpt lat="40.83294464475381" lon="8.845834966196344"><ele>128.25</ele><time>2026-04-30T08:50:31Z</time></trkpt><trkpt lat="40.83291905472059" lon="8.845969436042331"><ele>129.5</ele><time>2026-04-30T08:50:32Z</time></trkpt><trkpt lat="40.83291332898487" lon="8.84611743490073"><ele>130.75</ele><time>2026-04-30T08:50:33Z</time></trkpt><trkpt lat="40.83294592026641" lon="8.846275321687722"><ele>132.0</ele><time>2026-04-30T08:50:34Z</time></trkpt><trkpt lat="40.83300377693486" lon="8.846434756599983"><ele>132.0</ele><time>2026-04-30T08:50:35Z</time></trkpt><trkpt lat="40.83308306693072" lon="8.846600040816321"><ele>132.0</ele><time>2026-04-30T08:50:36Z</time></trkpt><trkpt lat="40.83317099958339" lon="8.846776846065996"><ele>132.0</ele><time>2026-04-30T08:50:37Z</time></trkpt><trkpt lat="40.83326727366471" lon="8.846967839753422"><ele>134.33333333333334</ele><time>2026-04-30T08:50:38Z</time></trkpt><trkpt lat="40.83337759730386" lon="8.847166599541051"><ele>136.66666666666669</ele><time>2026-04-30T08:50:39Z</time></trkpt><trkpt lat="40.833493636873285" lon="8.847365858700368"><ele>139.0</ele><time>2026-04-30T08:50:40Z</time></trkpt><trkpt lat="40.833622617131994" lon="8.84757123342219"><ele>137.33333333333334</ele><time>2026-04-30T08:50:41Z</time></trkpt><trkpt lat="40.83373631820362" lon="8.847758693838346"><ele>135.66666666666666</ele><time>2026-04-30T08:50:42Z</time></trkpt><trkpt lat="40.833842225953674" lon="8.847939662010342"><ele>134.0</ele><time>2026-04-30T08:50:43Z</time></trkpt><trkpt lat="40.83394563213911" lon="8.848111344549583"><ele>134.0</ele><time>2026-04-30T08:50:44Z</time></trkpt><trkpt lat="40.83404150926094" lon="8.848273971285735"><ele>134.0</ele><time>2026-04-30T08:50:45Z</time></trkpt><trkpt lat="40.8341274081681" lon="8.848425411519772"><ele>134.0</ele><time>2026-04-30T08:50:46Z</time></trkpt><trkpt lat="40.83419420945371" lon="8.848590756249104"><ele>134.0</ele><time>2026-04-30T08:50:47Z</time></trkpt><trkpt lat="40.83423384033963" lon="8.848765956275296"><ele>133.5</ele><time>2026-04-30T08:50:48Z</time></trkpt><trkpt lat="40.83424754965698" lon="8.84894532057431"><ele>133.0</ele><time>2026-04-30T08:50:49Z</time></trkpt><trkpt lat="40.834228856466375" lon="8.849112335543484"><ele>132.5</ele><time>2026-04-30T08:50:50Z</time></trkpt><trkpt lat="40.834180846171705" lon="8.849262117498752"><ele>132.0</ele><time>2026-04-30T08:50:51Z</time></trkpt><trkpt lat="40.83409211538637" lon="8.84938614796721"><ele>132.0</ele><time>2026-04-30T08:50:52Z</time></trkpt><trkpt lat="40.833975847770674" lon="8.849476561785764"><ele>132.0</ele><time>2026-04-30T08:50:53Z</time></trkpt><trkpt lat="40.833851401574755" lon="8.849601977198855"><ele>132.0</ele><time>2026-04-30T08:50:54Z</time></trkpt><trkpt lat="40.833717797779215" lon="8.849734612371437"><ele>132.0</ele><time>2026-04-30T08:50:55Z</time></trkpt><trkpt lat="40.833576756712844" lon="8.849874070749475"><ele>132.0</ele><time>2026-04-30T08:50:56Z</time></trkpt><trkpt lat="40.833450762551564" lon="8.85000499380195"><ele>132.0</ele><time>2026-04-30T08:50:57Z</time></trkpt><trkpt lat="40.83334529267473" lon="8.85013281547403"><ele>133.5</ele><time>2026-04-30T08:50:58Z</time></trkpt><trkpt lat="40.8332062806263" lon="8.850207040773848"><ele>135.0</ele><time>2026-04-30T08:50:59Z</time></trkpt><trkpt lat="40.83306706598334" lon="8.850271392637856"><ele>136.5</ele><time>2026-04-30T08:51:00Z</time></trkpt><trkpt lat="40.8329378350381" lon="8.850323816361794"><ele>138.0</ele><time>2026-04-30T08:51:01Z</time></trkpt><trkpt lat="40.83282592927501" lon="8.850384391281771"><ele>138.0</ele><time>2026-04-30T08:51:02Z</time></trkpt><trkpt lat="40.83273946256329" lon="8.85047774399815"><ele>138.0</ele><time>2026-04-30T08:51:03Z</time></trkpt><trkpt lat="40.83270762548828" lon="8.850617806988517"><ele>138.0</ele><time>2026-04-30T08:51:04Z</time></trkpt><trkpt lat="40.832685924280824" lon="8.850739839169936"><ele>138.0</ele><time>2026-04-30T08:51:05Z</time></trkpt><trkpt lat="40.832740539024826" lon="8.850870777208776"><ele>138.0</ele><time>2026-04-30T08:51:06Z</time></trkpt><trkpt lat="40.83279605941931" lon="8.850999100083428"><ele>138.0</ele><time>2026-04-30T08:51:07Z</time></trkpt><trkpt lat="40.83285084098851" lon="8.851124592083451"><ele>138.0</ele><time>2026-04-30T08:51:08Z</time></trkpt><trkpt lat="40.832889140028236" lon="8.85122809058927"><ele>138.0</ele><time>2026-04-30T08:51:09Z</time></trkpt><trkpt lat="40.83291926514003" lon="8.851307540832675"><ele>138.0</ele><time>2026-04-30T08:51:10Z</time></trkpt><trkpt lat="40.8329782314527" lon="8.851434812714594"><ele>138.0</ele><time>2026-04-30T08:51:12Z</time></trkpt><trkpt lat="40.83302921954757" lon="8.85155196521162"><ele>138.0</ele><time>2026-04-30T08:51:14Z</time></trkpt><trkpt lat="40.833070910652346" lon="8.851658335153493"><ele>138.0</ele><time>2026-04-30T08:51:16Z</time></trkpt><trkpt lat="40.83311694616391" lon="8.851774682995503"><ele>138.0</ele><time>2026-04-30T08:51:18Z</time></trkpt><trkpt lat="40.83314126267355" lon="8.851853836049848"><ele>138.0</ele><time>2026-04-30T08:51:19Z</time></trkpt><trkpt lat="40.83316252605601" lon="8.851954464505559"><ele>138.0</ele><time>2026-04-30T08:51:20Z</time></trkpt><trkpt lat="40.833174963649775" lon="8.8520838799486"><ele>138.0</ele><time>2026-04-30T08:51:21Z</time></trkpt><trkpt lat="40.83316658114205" lon="8.852219971745846"><ele>138.75</ele><time>2026-04-30T08:51:22Z</time></trkpt><trkpt lat="40.83314061182666" lon="8.852367931334664"><ele>139.5</ele><time>2026-04-30T08:51:23Z</time></trkpt><trkpt lat="40.83309931493371" lon="8.852537252463753"><ele>140.25</ele><time>2026-04-30T08:51:24Z</time></trkpt><trkpt lat="40.833049778738015" lon="8.852709154842705"><ele>141.0</ele><time>2026-04-30T08:51:25Z</time></trkpt><trkpt lat="40.83298809908514" lon="8.852900129905654"><ele>139.66666666666666</ele><time>2026-04-30T08:51:26Z</time></trkpt><trkpt lat="40.832941109524306" lon="8.853097084988754"><ele>138.33333333333331</ele><time>2026-04-30T08:51:27Z</time></trkpt><trkpt lat="40.83290007096417" lon="8.853299538045892"><ele>137.0</ele><time>2026-04-30T08:51:28Z</time></trkpt><trkpt lat="40.83291908414921" lon="8.853508960178184"><ele>137.0</ele><time>2026-04-30T08:51:29Z</time></trkpt><trkpt lat="40.832937230425934" lon="8.853712227371636"><ele>137.0</ele><time>2026-04-30T08:51:30Z</time></trkpt><trkpt lat="40.83295836194104" lon="8.853906594669077"><ele>137.0</ele><time>2026-04-30T08:51:31.001Z</time></trkpt><trkpt lat="40.83294743200591" lon="8.854100561465314"><ele>137.5</ele><time>2026-04-30T08:51:32.001Z</time></trkpt><trkpt lat="40.83294046380201" lon="8.85429322490882"><ele>138.0</ele><time>2026-04-30T08:51:33.001Z</time></trkpt><trkpt lat="40.83293639791398" lon="8.854482878143813"><ele>138.5</ele><time>2026-04-30T08:51:34.001Z</time></trkpt><trkpt lat="40.83290789374679" lon="8.854652771498108"><ele>139.0</ele><time>2026-04-30T08:51:35.001Z</time></trkpt><trkpt lat="40.83285989291129" lon="8.854798195477228"><ele>139.0</ele><time>2026-04-30T08:51:36.001Z</time></trkpt><trkpt lat="40.83278222815675" lon="8.85491671195413"><ele>139.0</ele><time>2026-04-30T08:51:37.001Z</time></trkpt><trkpt lat="40.83266744133713" lon="8.854983703763983"><ele>139.0</ele><time>2026-04-30T08:51:38.001Z</time></trkpt><trkpt lat="40.832549694615025" lon="8.855065506062003"><ele>139.0</ele><time>2026-04-30T08:51:39.001Z</time></trkpt><trkpt lat="40.83241827662512" lon="8.855141184649241"><ele>141.25</ele><time>2026-04-30T08:51:40.001Z</time></trkpt><trkpt lat="40.83228528215326" lon="8.855202255008379"><ele>143.5</ele><time>2026-04-30T08:51:41.001Z</time></trkpt><trkpt lat="40.83215652426284" lon="8.855264799663546"><ele>145.75</ele><time>2026-04-30T08:51:42.001Z</time></trkpt><trkpt lat="40.832021118486544" lon="8.85528905972453"><ele>148.0</ele><time>2026-04-30T08:51:43.001Z</time></trkpt><trkpt lat="40.831880291704586" lon="8.855303440459908"><ele>147.66666666666669</ele><time>2026-04-30T08:51:44.001Z</time></trkpt><trkpt lat="40.83172948203141" lon="8.855323400968242"><ele>147.33333333333334</ele><time>2026-04-30T08:51:45.001Z</time></trkpt><trkpt lat="40.8315657706825" lon="8.855334921599459"><ele>147.0</ele><time>2026-04-30T08:51:46.001Z</time></trkpt><trkpt lat="40.83139873692092" lon="8.85534831124874"><ele>147.0</ele><time>2026-04-30T08:51:47.001Z</time></trkpt><trkpt lat="40.8312370262047" lon="8.855364749585407"><ele>147.0</ele><time>2026-04-30T08:51:48.001Z</time></trkpt><trkpt lat="40.83104981747706" lon="8.85538617654909"><ele>147.0</ele><time>2026-04-30T08:51:49.001Z</time></trkpt><trkpt lat="40.830866953085305" lon="8.855383906891106"><ele>146.33333333333334</ele><time>2026-04-30T08:51:50.001Z</time></trkpt><trkpt lat="40.83068993325054" lon="8.855418684129303"><ele>145.66666666666669</ele><time>2026-04-30T08:51:51.001Z</time></trkpt><trkpt lat="40.83051627610154" lon="8.855435825566445"><ele>145.0</ele><time>2026-04-30T08:51:52.001Z</time></trkpt><trkpt lat="40.8303448500129" lon="8.85545132821348"><ele>145.0</ele><time>2026-04-30T08:51:53.001Z</time></trkpt><trkpt lat="40.83017522414328" lon="8.85546463451174"><ele>145.0</ele><time>2026-04-30T08:51:54.001Z</time></trkpt><trkpt lat="40.830007255884425" lon="8.855481496864874"><ele>145.0</ele><time>2026-04-30T08:51:55.001Z</time></trkpt><trkpt lat="40.829846742919436" lon="8.855495498279238"><ele>144.66666666666669</ele><time>2026-04-30T08:51:56.001Z</time></trkpt><trkpt lat="40.82969269743772" lon="8.855508756615912"><ele>144.33333333333334</ele><time>2026-04-30T08:51:57.001Z</time></trkpt><trkpt lat="40.82954387710979" lon="8.8555259893026"><ele>144.0</ele><time>2026-04-30T08:51:58.001Z</time></trkpt><trkpt lat="40.82939838309313" lon="8.855541570518097"><ele>143.5</ele><time>2026-04-30T08:51:59.001Z</time></trkpt><trkpt lat="40.829257190366846" lon="8.855556182918821"><ele>143.0</ele><time>2026-04-30T08:52:00.001Z</time></trkpt><trkpt lat="40.829119040259606" lon="8.855547372357035"><ele>142.5</ele><time>2026-04-30T08:52:01.001Z</time></trkpt><trkpt lat="40.828986132768925" lon="8.85558070129735"><ele>142.0</ele><time>2026-04-30T08:52:02.001Z</time></trkpt><trkpt lat="40.82884857166262" lon="8.855592684650578"><ele>142.0</ele><time>2026-04-30T08:52:03.001Z</time></trkpt><trkpt lat="40.82871499711996" lon="8.855600536130243"><ele>142.0</ele><time>2026-04-30T08:52:04.001Z</time></trkpt><trkpt lat="40.82858222754094" lon="8.85561531629249"><ele>142.0</ele><time>2026-04-30T08:52:05.001Z</time></trkpt><trkpt lat="40.82845071117873" lon="8.85562715629315"><ele>142.0</ele><time>2026-04-30T08:52:06Z</time></trkpt><trkpt lat="40.828321184635364" lon="8.855640072308786"><ele>142.0</ele><time>2026-04-30T08:52:07Z</time></trkpt><trkpt lat="40.82819677311919" lon="8.855650919466"><ele>142.0</ele><time>2026-04-30T08:52:08Z</time></trkpt><trkpt lat="40.8280755252255" lon="8.855664298027898"><ele>142.0</ele><time>2026-04-30T08:52:09Z</time></trkpt><trkpt lat="40.82795732054106" lon="8.85567513473604"><ele>142.0</ele><time>2026-04-30T08:52:10Z</time></trkpt><trkpt lat="40.827842542116784" lon="8.855682224373872"><ele>142.0</ele><time>2026-04-30T08:52:11Z</time></trkpt><trkpt lat="40.82773902731079" lon="8.855690010806457"><ele>142.0</ele><time>2026-04-30T08:52:12Z</time></trkpt><trkpt lat="40.82763724796337" lon="8.855704349570479"><ele>142.0</ele><time>2026-04-30T08:52:13Z</time></trkpt><trkpt lat="40.82753263541239" lon="8.855719289643552"><ele>142.0</ele><time>2026-04-30T08:52:14Z</time></trkpt><trkpt lat="40.82742577741036" lon="8.855792945277"><ele>142.0</ele><time>2026-04-30T08:52:15Z</time></trkpt><trkpt lat="40.82734816816538" lon="8.855922443980475"><ele>141.5</ele><time>2026-04-30T08:52:16Z</time></trkpt><trkpt lat="40.82729688626582" lon="8.856088845078647"><ele>141.0</ele><time>2026-04-30T08:52:17Z</time></trkpt><trkpt lat="40.827250562117435" lon="8.856258854364864"><ele>140.5</ele><time>2026-04-30T08:52:18Z</time></trkpt><trkpt lat="40.827214670680746" lon="8.856414402479123"><ele>140.0</ele><time>2026-04-30T08:52:19Z</time></trkpt><trkpt lat="40.82714409355172" lon="8.856527616378365"><ele>140.0</ele><time>2026-04-30T08:52:20Z</time></trkpt><trkpt lat="40.827053744391925" lon="8.856599496519284"><ele>140.0</ele><time>2026-04-30T08:52:21Z</time></trkpt><trkpt lat="40.82694136584911" lon="8.856641833733168"><ele>140.0</ele><time>2026-04-30T08:52:22Z</time></trkpt><trkpt lat="40.82681211734227" lon="8.856669888825243"><ele>140.0</ele><time>2026-04-30T08:52:23Z</time></trkpt><trkpt lat="40.826690996851326" lon="8.856682584928292"><ele>141.0</ele><time>2026-04-30T08:52:24Z</time></trkpt><trkpt lat="40.826533740326546" lon="8.85670469361492"><ele>142.0</ele><time>2026-04-30T08:52:25Z</time></trkpt><trkpt lat="40.8263711269469" lon="8.856728303223708"><ele>143.0</ele><time>2026-04-30T08:52:26Z</time></trkpt><trkpt lat="40.82620264831821" lon="8.856753334894922"><ele>143.66666666666666</ele><time>2026-04-30T08:52:27Z</time></trkpt><trkpt lat="40.82602477227604" lon="8.856800983309855"><ele>144.33333333333334</ele><time>2026-04-30T08:52:28Z</time></trkpt><trkpt lat="40.82584340413816" lon="8.856805652475263"><ele>145.0</ele><time>2026-04-30T08:52:29Z</time></trkpt><trkpt lat="40.8256662317121" lon="8.856830222502625"><ele>145.0</ele><time>2026-04-30T08:52:30Z</time></trkpt><trkpt lat="40.825489347916886" lon="8.856874471792153"><ele>145.0</ele><time>2026-04-30T08:52:31Z</time></trkpt><trkpt lat="40.82531967574718" lon="8.856902711160084"><ele>145.0</ele><time>2026-04-30T08:52:32Z</time></trkpt><trkpt lat="40.82515644745211" lon="8.856924535522309"><ele>144.66666666666669</ele><time>2026-04-30T08:52:33Z</time></trkpt><trkpt lat="40.82500080532627" lon="8.85694482491328"><ele>144.33333333333334</ele><time>2026-04-30T08:52:34Z</time></trkpt><trkpt lat="40.82485145854108" lon="8.85696309311615"><ele>144.0</ele><time>2026-04-30T08:52:35Z</time></trkpt><trkpt lat="40.824702505108505" lon="8.856987029530114"><ele>144.0</ele><time>2026-04-30T08:52:36Z</time></trkpt><trkpt lat="40.824552243711985" lon="8.856975040918083"><ele>144.0</ele><time>2026-04-30T08:52:37Z</time></trkpt><trkpt lat="40.824405653518525" lon="8.8570048233219"><ele>144.0</ele><time>2026-04-30T08:52:38Z</time></trkpt><trkpt lat="40.824263010288234" lon="8.857014213323495"><ele>144.0</ele><time>2026-04-30T08:52:39Z</time></trkpt><trkpt lat="40.82412830390987" lon="8.856999827380903"><ele>143.25</ele><time>2026-04-30T08:52:40Z</time></trkpt><trkpt lat="40.82399000973384" lon="8.856996033901561"><ele>142.5</ele><time>2026-04-30T08:52:41Z</time></trkpt><trkpt lat="40.8238454104658" lon="8.85699334625494"><ele>141.75</ele><time>2026-04-30T08:52:42Z</time></trkpt><trkpt lat="40.8236992768823" lon="8.85699454571628"><ele>141.0</ele><time>2026-04-30T08:52:43Z</time></trkpt><trkpt lat="40.82355788012632" lon="8.857020366077906"><ele>139.5</ele><time>2026-04-30T08:52:44Z</time></trkpt><trkpt lat="40.82341795812492" lon="8.85702514457882"><ele>138.0</ele><time>2026-04-30T08:52:45Z</time></trkpt><trkpt lat="40.82326494922607" lon="8.857021628526057"><ele>136.5</ele><time>2026-04-30T08:52:46Z</time></trkpt><trkpt lat="40.82314545191386" lon="8.856986810278757"><ele>135.0</ele><time>2026-04-30T08:52:47Z</time></trkpt><trkpt lat="40.82303001222296" lon="8.856943473483714"><ele>135.0</ele><time>2026-04-30T08:52:48Z</time></trkpt><trkpt lat="40.82290731016059" lon="8.856885326382198"><ele>135.0</ele><time>2026-04-30T08:52:49Z</time></trkpt><trkpt lat="40.822786064249186" lon="8.856797313396989"><ele>135.0</ele><time>2026-04-30T08:52:50Z</time></trkpt><trkpt lat="40.822680439014476" lon="8.856685653807867"><ele>135.0</ele><time>2026-04-30T08:52:51Z</time></trkpt><trkpt lat="40.822583001162" lon="8.856550710505914"><ele>136.25</ele><time>2026-04-30T08:52:52Z</time></trkpt><trkpt lat="40.82249887090829" lon="8.856404736768116"><ele>137.5</ele><time>2026-04-30T08:52:53Z</time></trkpt><trkpt lat="40.82242316467524" lon="8.856243325130023"><ele>138.75</ele><time>2026-04-30T08:52:54Z</time></trkpt><trkpt lat="40.8223566667634" lon="8.856065415242048"><ele>140.0</ele><time>2026-04-30T08:52:55Z</time></trkpt><trkpt lat="40.82229862887998" lon="8.855888419611233"><ele>142.0</ele><time>2026-04-30T08:52:56Z</time></trkpt><trkpt lat="40.822218338208685" lon="8.855732122441246"><ele>144.0</ele><time>2026-04-30T08:52:57Z</time></trkpt><trkpt lat="40.82215796675241" lon="8.855583068441813"><ele>146.0</ele><time>2026-04-30T08:52:58Z</time></trkpt><trkpt lat="40.82213370788139" lon="8.855445971379844"><ele>148.0</ele><time>2026-04-30T08:52:59Z</time></trkpt><trkpt lat="40.822131701893284" lon="8.855294496781896"><ele>148.0</ele><time>2026-04-30T08:53:00Z</time></trkpt><trkpt lat="40.82215738057394" lon="8.855125225651536"><ele>148.0</ele><time>2026-04-30T08:53:01Z</time></trkpt><trkpt lat="40.82219312894741" lon="8.854936738357658"><ele>148.0</ele><time>2026-04-30T08:53:02Z</time></trkpt><trkpt lat="40.822221807323785" lon="8.85474250632651"><ele>148.0</ele><time>2026-04-30T08:53:03Z</time></trkpt><trkpt lat="40.82224975317874" lon="8.854572201592312"><ele>148.0</ele><time>2026-04-30T08:53:04Z</time></trkpt><trkpt lat="40.82226463495924" lon="8.854418385131527"><ele>148.0</ele><time>2026-04-30T08:53:05Z</time></trkpt><trkpt lat="40.82224858502221" lon="8.85428841483491"><ele>148.0</ele><time>2026-04-30T08:53:06Z</time></trkpt><trkpt lat="40.82220247643098" lon="8.854171669641385"><ele>148.0</ele><time>2026-04-30T08:53:07Z</time></trkpt><trkpt lat="40.82212724299126" lon="8.854087274985107"><ele>148.0</ele><time>2026-04-30T08:53:08Z</time></trkpt><trkpt lat="40.82203681645899" lon="8.854027874705713"><ele>148.0</ele><time>2026-04-30T08:53:09Z</time></trkpt><trkpt lat="40.82193176580712" lon="8.853986060487864"><ele>148.0</ele><time>2026-04-30T08:53:10Z</time></trkpt><trkpt lat="40.82182358328225" lon="8.853942811714138"><ele>148.0</ele><time>2026-04-30T08:53:11Z</time></trkpt><trkpt lat="40.82170984829061" lon="8.85389463145752"><ele>148.0</ele><time>2026-04-30T08:53:12Z</time></trkpt><trkpt lat="40.821586495020775" lon="8.853845356821322"><ele>145.5</ele><time>2026-04-30T08:53:13Z</time></trkpt><trkpt lat="40.82146310824611" lon="8.853794743488503"><ele>143.0</ele><time>2026-04-30T08:53:14Z</time></trkpt><trkpt lat="40.82134037296129" lon="8.853743290395265"><ele>140.5</ele><time>2026-04-30T08:53:15Z</time></trkpt><trkpt lat="40.82122540277933" lon="8.853696776720309"><ele>138.0</ele><time>2026-04-30T08:53:16Z</time></trkpt><trkpt lat="40.82111374256264" lon="8.853645276618861"><ele>138.0</ele><time>2026-04-30T08:53:17Z</time></trkpt><trkpt lat="40.821019682304374" lon="8.853608461651497"><ele>138.0</ele><time>2026-04-30T08:53:18Z</time></trkpt><trkpt lat="40.820930897794106" lon="8.853569311805275"><ele>138.0</ele><time>2026-04-30T08:53:19Z</time></trkpt><trkpt lat="40.820848794799545" lon="8.85353590138519"><ele>138.0</ele><time>2026-04-30T08:53:20.001Z</time></trkpt><trkpt lat="40.82077125738107" lon="8.85350588849178"><ele>138.0</ele><time>2026-04-30T08:53:21.001Z</time></trkpt><trkpt lat="40.82070013702066" lon="8.853481882503786"><ele>138.0</ele><time>2026-04-30T08:53:22.001Z</time></trkpt><trkpt lat="40.820630600103826" lon="8.853449992388732"><ele>137.28571428571428</ele><time>2026-04-30T08:53:23.001Z</time></trkpt><trkpt lat="40.82056404240782" lon="8.853415325008454"><ele>136.57142857142858</ele><time>2026-04-30T08:53:24.001Z</time></trkpt><trkpt lat="40.820501735033346" lon="8.85337245915067"><ele>135.85714285714286</ele><time>2026-04-30T08:53:25.001Z</time></trkpt><trkpt lat="40.820444817808244" lon="8.853317015844354"><ele>135.14285714285714</ele><time>2026-04-30T08:53:26.001Z</time></trkpt><trkpt lat="40.820396040499794" lon="8.853248901240876"><ele>134.42857142857144</ele><time>2026-04-30T08:53:27.001Z</time></trkpt><trkpt lat="40.820360385621086" lon="8.853170528705581"><ele>133.71428571428572</ele><time>2026-04-30T08:53:28.001Z</time></trkpt><trkpt lat="40.82034058620067" lon="8.853083377267714"><ele>133.0</ele><time>2026-04-30T08:53:29.001Z</time></trkpt><trkpt lat="40.82033994313994" lon="8.852913302677385"><ele>133.0</ele><time>2026-04-30T08:53:31.001Z</time></trkpt><trkpt lat="40.82037056473835" lon="8.852764974549123"><ele>133.0</ele><time>2026-04-30T08:53:33.001Z</time></trkpt><trkpt lat="40.82040122798441" lon="8.852638277434954"><ele>133.0</ele><time>2026-04-30T08:53:35.001Z</time></trkpt><trkpt lat="40.82039975545516" lon="8.852519493825387"><ele>133.0</ele><time>2026-04-30T08:53:37.001Z</time></trkpt><trkpt lat="40.820432336877744" lon="8.852442986863117"><ele>133.0</ele><time>2026-04-30T08:53:39.001Z</time></trkpt><trkpt lat="40.82045270575816" lon="8.85233430693415"><ele>132.33333333333334</ele><time>2026-04-30T08:53:42.001Z</time></trkpt><trkpt lat="40.82045315527666" lon="8.852242015200183"><ele>131.66666666666669</ele><time>2026-04-30T08:53:44.001Z</time></trkpt><trkpt lat="40.820451820581454" lon="8.852157221633997"><ele>131.0</ele><time>2026-04-30T08:53:45.001Z</time></trkpt><trkpt lat="40.82043085802937" lon="8.85204180645267"><ele>130.33333333333334</ele><time>2026-04-30T08:53:47.001Z</time></trkpt><trkpt lat="40.820413942854664" lon="8.851950221102458"><ele>129.66666666666666</ele><time>2026-04-30T08:54:48Z</time></trkpt><trkpt lat="40.82030456606948" lon="8.851956574242426"><ele>129.0</ele><time>2026-04-30T08:54:53Z</time></trkpt><trkpt lat="40.82026496667061" lon="8.852060858214875"><ele>129.0</ele><time>2026-04-30T08:54:54Z</time></trkpt><trkpt lat="40.8202453475241" lon="8.852154774513798"><ele>129.0</ele><time>2026-04-30T08:54:55Z</time></trkpt><trkpt lat="40.82019692273971" lon="8.852227200083467"><ele>129.0</ele><time>2026-04-30T08:54:56Z</time></trkpt><trkpt lat="40.820160171173775" lon="8.852318452036815"><ele>129.0</ele><time>2026-04-30T08:54:57Z</time></trkpt><trkpt lat="40.820120416257325" lon="8.85241856023174"><ele>129.0</ele><time>2026-04-30T08:54:58Z</time></trkpt><trkpt lat="40.820074817716396" lon="8.852532909484324"><ele>129.0</ele><time>2026-04-30T08:54:59Z</time></trkpt><trkpt lat="40.82003691609627" lon="8.852670979497415"><ele>128.4</ele><time>2026-04-30T08:55:00Z</time></trkpt><trkpt lat="40.819981444466684" lon="8.852801649901865"><ele>127.80000000000001</ele><time>2026-04-30T08:55:01Z</time></trkpt><trkpt lat="40.819933666185776" lon="8.852928748745526"><ele>127.19999999999999</ele><time>2026-04-30T08:55:02Z</time></trkpt><trkpt lat="40.81987745499253" lon="8.853059411485521"><ele>126.6</ele><time>2026-04-30T08:55:03Z</time></trkpt><trkpt lat="40.819859495575834" lon="8.85320179052943"><ele>126.0</ele><time>2026-04-30T08:55:04Z</time></trkpt><trkpt lat="40.81987749177232" lon="8.853359652792255"><ele>125.75</ele><time>2026-04-30T08:55:05Z</time></trkpt><trkpt lat="40.81992781732107" lon="8.853515636126483"><ele>125.5</ele><time>2026-04-30T08:55:06Z</time></trkpt><trkpt lat="40.820012481935635" lon="8.853666175167294"><ele>125.25</ele><time>2026-04-30T08:55:07Z</time></trkpt><trkpt lat="40.82009414059812" lon="8.853835350963942"><ele>125.0</ele><time>2026-04-30T08:55:08Z</time></trkpt><trkpt lat="40.820180477756416" lon="8.854009295718305"><ele>124.66666666666666</ele><time>2026-04-30T08:55:09Z</time></trkpt><trkpt lat="40.82027212622133" lon="8.85419329946903"><ele>124.33333333333334</ele><time>2026-04-30T08:55:10Z</time></trkpt><trkpt lat="40.82036604664027" lon="8.854386644267136"><ele>124.0</ele><time>2026-04-30T08:55:11Z</time></trkpt><trkpt lat="40.82046254368167" lon="8.854588789614528"><ele>124.0</ele><time>2026-04-30T08:55:12Z</time></trkpt><trkpt lat="40.82056285842196" lon="8.854797390965452"><ele>124.0</ele><time>2026-04-30T08:55:13Z</time></trkpt><trkpt lat="40.82066187446771" lon="8.855000565553134"><ele>124.0</ele><time>2026-04-30T08:55:14Z</time></trkpt><trkpt lat="40.82075930539322" lon="8.85519724285057"><ele>123.66666666666667</ele><time>2026-04-30T08:55:15Z</time></trkpt><trkpt lat="40.82085223730074" lon="8.85538741402225"><ele>123.33333333333334</ele><time>2026-04-30T08:55:16Z</time></trkpt><trkpt lat="40.82093470759433" lon="8.855575326433769"><ele>123.0</ele><time>2026-04-30T08:55:17Z</time></trkpt><trkpt lat="40.8210073538551" lon="8.855764960825264"><ele>124.0</ele><time>2026-04-30T08:55:18Z</time></trkpt><trkpt lat="40.82105695400088" lon="8.855970326962892"><ele>125.0</ele><time>2026-04-30T08:55:19Z</time></trkpt><trkpt lat="40.82107567887102" lon="8.856190368685773"><ele>126.0</ele><time>2026-04-30T08:55:20Z</time></trkpt><trkpt lat="40.82104630755596" lon="8.856421673592914"><ele>126.0</ele><time>2026-04-30T08:55:21.001Z</time></trkpt><trkpt lat="40.82102917561144" lon="8.856665854892587"><ele>126.0</ele><time>2026-04-30T08:55:22.001Z</time></trkpt><trkpt lat="40.8210079409843" lon="8.856920913138955"><ele>126.0</ele><time>2026-04-30T08:55:23.001Z</time></trkpt><trkpt lat="40.82098612347335" lon="8.857182972599402"><ele>124.33333333333334</ele><time>2026-04-30T08:55:24.001Z</time></trkpt><trkpt lat="40.820964302505615" lon="8.857445073699452"><ele>122.66666666666667</ele><time>2026-04-30T08:55:25.001Z</time></trkpt><trkpt lat="40.82094354363524" lon="8.857697629893265"><ele>121.0</ele><time>2026-04-30T08:55:26.001Z</time></trkpt><trkpt lat="40.82092328872385" lon="8.857948672635738"><ele>121.0</ele><time>2026-04-30T08:55:27.001Z</time></trkpt><trkpt lat="40.820890869891656" lon="8.858195952283214"><ele>121.0</ele><time>2026-04-30T08:55:28.001Z</time></trkpt><trkpt lat="40.82083874546589" lon="8.858438928398135"><ele>121.0</ele><time>2026-04-30T08:55:29.001Z</time></trkpt><trkpt lat="40.82076569712427" lon="8.858683154795612"><ele>121.0</ele><time>2026-04-30T08:55:30.001Z</time></trkpt><trkpt lat="40.82070651457468" lon="8.858928954421271"><ele>121.0</ele><time>2026-04-30T08:55:31.001Z</time></trkpt><trkpt lat="40.82063707579624" lon="8.859151510459007"><ele>121.0</ele><time>2026-04-30T08:55:32.001Z</time></trkpt><trkpt lat="40.82057282510409" lon="8.859366236924856"><ele>121.0</ele><time>2026-04-30T08:55:33.001Z</time></trkpt><trkpt lat="40.82050570856955" lon="8.859577902111367"><ele>121.0</ele><time>2026-04-30T08:55:34.001Z</time></trkpt><trkpt lat="40.82044190227498" lon="8.85978013814122"><ele>121.0</ele><time>2026-04-30T08:55:35.001Z</time></trkpt><trkpt lat="40.82038338133596" lon="8.85998111588589"><ele>122.33333333333334</ele><time>2026-04-30T08:55:36.001Z</time></trkpt><trkpt lat="40.82032686352171" lon="8.860176241254411"><ele>123.66666666666666</ele><time>2026-04-30T08:55:37.001Z</time></trkpt><trkpt lat="40.820296313915904" lon="8.860383518048858"><ele>125.0</ele><time>2026-04-30T08:55:38.001Z</time></trkpt><trkpt lat="40.820287809662425" lon="8.860596928675507"><ele>125.0</ele><time>2026-04-30T08:55:39.001Z</time></trkpt><trkpt lat="40.82029158621885" lon="8.860814288025608"><ele>125.0</ele><time>2026-04-30T08:55:40.001Z</time></trkpt><trkpt lat="40.82031752230731" lon="8.861032450190356"><ele>125.0</ele><time>2026-04-30T08:55:41.001Z</time></trkpt><trkpt lat="40.82035792569824" lon="8.861247190209138"><ele>122.66666666666666</ele><time>2026-04-30T08:55:42.001Z</time></trkpt><trkpt lat="40.82041443962599" lon="8.861454719649592"><ele>120.33333333333334</ele><time>2026-04-30T08:55:43.001Z</time></trkpt><trkpt lat="40.820438896586985" lon="8.861674284339479"><ele>118.0</ele><time>2026-04-30T08:55:44.001Z</time></trkpt><trkpt lat="40.82049264320667" lon="8.861883309122824"><ele>114.66666666666667</ele><time>2026-04-30T08:55:45.001Z</time></trkpt><trkpt lat="40.820526471129455" lon="8.862091255593644"><ele>111.33333333333334</ele><time>2026-04-30T08:55:46.001Z</time></trkpt><trkpt lat="40.82056413169904" lon="8.862287939687508"><ele>108.0</ele><time>2026-04-30T08:55:47.001Z</time></trkpt><trkpt lat="40.82060232979878" lon="8.862471287024498"><ele>106.75</ele><time>2026-04-30T08:55:48.001Z</time></trkpt><trkpt lat="40.82064924079837" lon="8.862639992762384"><ele>105.5</ele><time>2026-04-30T08:55:49.001Z</time></trkpt><trkpt lat="40.8206888300368" lon="8.862808920359463"><ele>104.25</ele><time>2026-04-30T08:55:50.001Z</time></trkpt><trkpt lat="40.820773932533584" lon="8.862955071308411"><ele>103.0</ele><time>2026-04-30T08:55:51.001Z</time></trkpt><trkpt lat="40.8208758870044" lon="8.863082741749631"><ele>103.33333333333334</ele><time>2026-04-30T08:55:52.001Z</time></trkpt><trkpt lat="40.821010956801004" lon="8.863166705418914"><ele>103.66666666666666</ele><time>2026-04-30T08:55:53.001Z</time></trkpt><trkpt lat="40.82115932813225" lon="8.86321299099766"><ele>104.0</ele><time>2026-04-30T08:55:54.001Z</time></trkpt><trkpt lat="40.82132402266892" lon="8.863252000022415"><ele>104.0</ele><time>2026-04-30T08:55:55.001Z</time></trkpt><trkpt lat="40.821492986280546" lon="8.863271961499553"><ele>104.0</ele><time>2026-04-30T08:55:56.001Z</time></trkpt><trkpt lat="40.82165691070572" lon="8.863318777826205"><ele>104.0</ele><time>2026-04-30T08:55:57.001Z</time></trkpt><trkpt lat="40.82180435087672" lon="8.863366395773497"><ele>104.25</ele><time>2026-04-30T08:55:58.001Z</time></trkpt><trkpt lat="40.821932936912994" lon="8.863438242085648"><ele>104.5</ele><time>2026-04-30T08:55:59.001Z</time></trkpt><trkpt lat="40.822045303242845" lon="8.863536431180156"><ele>104.75</ele><time>2026-04-30T08:56:00.001Z</time></trkpt><trkpt lat="40.82213726734242" lon="8.863678944325038"><ele>105.0</ele><time>2026-04-30T08:56:01.001Z</time></trkpt><trkpt lat="40.82220919042328" lon="8.863847774833582"><ele>104.0</ele><time>2026-04-30T08:56:02.001Z</time></trkpt><trkpt lat="40.82226495666261" lon="8.864015825878313"><ele>103.0</ele><time>2026-04-30T08:56:03.001Z</time></trkpt><trkpt lat="40.82232090616014" lon="8.86419825733426"><ele>102.0</ele><time>2026-04-30T08:56:04.001Z</time></trkpt><trkpt lat="40.8223664648294" lon="8.864393245183432"><ele>101.0</ele><time>2026-04-30T08:56:05.001Z</time></trkpt><trkpt lat="40.82242602654423" lon="8.864587254188496"><ele>100.33333333333333</ele><time>2026-04-30T08:56:06.001Z</time></trkpt><trkpt lat="40.82249497092711" lon="8.864780414335115"><ele>99.66666666666666</ele><time>2026-04-30T08:56:07.001Z</time></trkpt><trkpt lat="40.82253604477425" lon="8.864992699079506"><ele>99.0</ele><time>2026-04-30T08:56:08.001Z</time></trkpt><trkpt lat="40.82256393331328" lon="8.865215299385184"><ele>98.0</ele><time>2026-04-30T08:56:09.001Z</time></trkpt><trkpt lat="40.822586386529146" lon="8.865440341319193"><ele>97.0</ele><time>2026-04-30T08:56:10.001Z</time></trkpt><trkpt lat="40.82258723234922" lon="8.865671710101108"><ele>96.0</ele><time>2026-04-30T08:56:11.001Z</time></trkpt><trkpt lat="40.82260381069492" lon="8.865904479055931"><ele>96.0</ele><time>2026-04-30T08:56:12.001Z</time></trkpt><trkpt lat="40.822620696935324" lon="8.866138802219208"><ele>96.0</ele><time>2026-04-30T08:56:13.001Z</time></trkpt><trkpt lat="40.82263783069476" lon="8.86637541836753"><ele>96.0</ele><time>2026-04-30T08:56:14.001Z</time></trkpt><trkpt lat="40.82265492285091" lon="8.86660956210876"><ele>98.0</ele><time>2026-04-30T08:56:15.001Z</time></trkpt><trkpt lat="40.822671769215994" lon="8.866840103676177"><ele>100.0</ele><time>2026-04-30T08:56:16.001Z</time></trkpt><trkpt lat="40.82268812081162" lon="8.867063874595086"><ele>102.0</ele><time>2026-04-30T08:56:17.001Z</time></trkpt><trkpt lat="40.82271870479973" lon="8.867278216357438"><ele>102.0</ele><time>2026-04-30T08:56:18Z</time></trkpt><trkpt lat="40.82273248155487" lon="8.867488216779176"><ele>102.0</ele><time>2026-04-30T08:56:19Z</time></trkpt><trkpt lat="40.822747245108665" lon="8.867693188175949"><ele>102.0</ele><time>2026-04-30T08:56:20Z</time></trkpt><trkpt lat="40.82276096457813" lon="8.867896758769863"><ele>100.33333333333334</ele><time>2026-04-30T08:56:21Z</time></trkpt><trkpt lat="40.82277656877816" lon="8.868096976325562"><ele>98.66666666666667</ele><time>2026-04-30T08:56:22Z</time></trkpt><trkpt lat="40.82277563755347" lon="8.86829509326965"><ele>97.0</ele><time>2026-04-30T08:56:23Z</time></trkpt><trkpt lat="40.82278954303552" lon="8.868491539852705"><ele>96.75</ele><time>2026-04-30T08:56:24Z</time></trkpt><trkpt lat="40.82280361155969" lon="8.868682157447795"><ele>96.5</ele><time>2026-04-30T08:56:25Z</time></trkpt><trkpt lat="40.8228176437046" lon="8.868874262099922"><ele>96.25</ele><time>2026-04-30T08:56:26Z</time></trkpt><trkpt lat="40.822831534289364" lon="8.869064428845018"><ele>96.0</ele><time>2026-04-30T08:56:27Z</time></trkpt><trkpt lat="40.8228610878679" lon="8.869251325175092"><ele>96.25</ele><time>2026-04-30T08:56:28Z</time></trkpt><trkpt lat="40.822869441900544" lon="8.869440193444412"><ele>96.5</ele><time>2026-04-30T08:56:29Z</time></trkpt><trkpt lat="40.822879587302666" lon="8.869621008424886"><ele>96.75</ele><time>2026-04-30T08:56:30Z</time></trkpt><trkpt lat="40.82288084280931" lon="8.86979328158305"><ele>97.0</ele><time>2026-04-30T08:56:31Z</time></trkpt><trkpt lat="40.822871084477455" lon="8.869965213858057"><ele>97.75</ele><time>2026-04-30T08:56:32Z</time></trkpt><trkpt lat="40.82283038080935" lon="8.870128530008031"><ele>98.5</ele><time>2026-04-30T08:56:33Z</time></trkpt><trkpt lat="40.822797612120944" lon="8.870291311800953"><ele>99.25</ele><time>2026-04-30T08:56:34Z</time></trkpt><trkpt lat="40.82276307095271" lon="8.870453221979234"><ele>100.0</ele><time>2026-04-30T08:56:35Z</time></trkpt><trkpt lat="40.82272886316572" lon="8.870613569397012"><ele>100.0</ele><time>2026-04-30T08:56:36Z</time></trkpt><trkpt lat="40.82269390453994" lon="8.870778472283547"><ele>100.0</ele><time>2026-04-30T08:56:37Z</time></trkpt><trkpt lat="40.822659086184615" lon="8.870944831612622"><ele>100.0</ele><time>2026-04-30T08:56:38Z</time></trkpt><trkpt lat="40.8226238467939" lon="8.871113202650932"><ele>100.0</ele><time>2026-04-30T08:56:39Z</time></trkpt><trkpt lat="40.82258821967117" lon="8.87128342624204"><ele>99.5</ele><time>2026-04-30T08:56:40Z</time></trkpt><trkpt lat="40.822552137708094" lon="8.871455823043929"><ele>99.0</ele><time>2026-04-30T08:56:41Z</time></trkpt><trkpt lat="40.82251577399447" lon="8.871629566022355"><ele>98.5</ele><time>2026-04-30T08:56:42Z</time></trkpt><trkpt lat="40.822479434874445" lon="8.871803191431711"><ele>98.0</ele><time>2026-04-30T08:56:43Z</time></trkpt><trkpt lat="40.822442613904244" lon="8.871979119186973"><ele>98.0</ele><time>2026-04-30T08:56:44Z</time></trkpt><trkpt lat="40.82240468343927" lon="8.872160347976894"><ele>98.0</ele><time>2026-04-30T08:56:45Z</time></trkpt><trkpt lat="40.82236654112054" lon="8.872350054257081"><ele>98.0</ele><time>2026-04-30T08:56:46Z</time></trkpt><trkpt lat="40.82233232425754" lon="8.87254034805041"><ele>98.0</ele><time>2026-04-30T08:56:47Z</time></trkpt><trkpt lat="40.82231595934091" lon="8.872740110773183"><ele>97.5</ele><time>2026-04-30T08:56:48Z</time></trkpt><trkpt lat="40.82233026446484" lon="8.872944142869896"><ele>97.0</ele><time>2026-04-30T08:56:49Z</time></trkpt><trkpt lat="40.82235488270468" lon="8.873125924506864"><ele>96.5</ele><time>2026-04-30T08:56:50Z</time></trkpt><trkpt lat="40.822383400374775" lon="8.873292470105701"><ele>96.0</ele><time>2026-04-30T08:56:51Z</time></trkpt><trkpt lat="40.82242027860108" lon="8.873449469174043"><ele>95.5</ele><time>2026-04-30T08:56:52Z</time></trkpt><trkpt lat="40.82247346203052" lon="8.873589178562433"><ele>95.0</ele><time>2026-04-30T08:56:53Z</time></trkpt><trkpt lat="40.82256921939835" lon="8.873705109206336"><ele>94.5</ele><time>2026-04-30T08:56:54Z</time></trkpt><trkpt lat="40.82269140463856" lon="8.873784662367623"><ele>94.0</ele><time>2026-04-30T08:56:55Z</time></trkpt><trkpt lat="40.822834818289415" lon="8.873850088846247"><ele>94.0</ele><time>2026-04-30T08:56:56Z</time></trkpt><trkpt lat="40.82297719412797" lon="8.873914681107093"><ele>94.0</ele><time>2026-04-30T08:56:57Z</time></trkpt><trkpt lat="40.82312085179036" lon="8.873979854904992"><ele>94.0</ele><time>2026-04-30T08:56:58Z</time></trkpt><trkpt lat="40.82326059589627" lon="8.874043253190985"><ele>94.0</ele><time>2026-04-30T08:56:59Z</time></trkpt><trkpt lat="40.823397451018614" lon="8.874102910036864"><ele>94.0</ele><time>2026-04-30T08:57:00Z</time></trkpt><trkpt lat="40.82351779973546" lon="8.874169315485878"><ele>94.0</ele><time>2026-04-30T08:57:01Z</time></trkpt><trkpt lat="40.82362366804413" lon="8.874260847139965"><ele>94.0</ele><time>2026-04-30T08:57:02Z</time></trkpt><trkpt lat="40.8237068829795" lon="8.874401344305292"><ele>94.5</ele><time>2026-04-30T08:57:03Z</time></trkpt><trkpt lat="40.823756939724774" lon="8.874556281496858"><ele>95.0</ele><time>2026-04-30T08:57:04Z</time></trkpt><trkpt lat="40.82377473386211" lon="8.874710638253768"><ele>95.5</ele><time>2026-04-30T08:57:05Z</time></trkpt><trkpt lat="40.82375854907034" lon="8.874862272544448"><ele>96.0</ele><time>2026-04-30T08:57:06Z</time></trkpt><trkpt lat="40.82371314428462" lon="8.875019580108129"><ele>95.33333333333333</ele><time>2026-04-30T08:57:07Z</time></trkpt><trkpt lat="40.823627250245075" lon="8.875179071043558"><ele>94.66666666666666</ele><time>2026-04-30T08:57:08Z</time></trkpt><trkpt lat="40.82354500195762" lon="8.875356227943989"><ele>94.0</ele><time>2026-04-30T08:57:09Z</time></trkpt><trkpt lat="40.823460871454024" lon="8.875564241896587"><ele>94.0</ele><time>2026-04-30T08:57:10Z</time></trkpt><trkpt lat="40.82337385470406" lon="8.875747828333845"><ele>94.0</ele><time>2026-04-30T08:57:11Z</time></trkpt><trkpt lat="40.823296560704684" lon="8.875912491760536"><ele>94.0</ele><time>2026-04-30T08:57:12Z</time></trkpt><trkpt lat="40.82322340862383" lon="8.876078990808834"><ele>94.25</ele><time>2026-04-30T08:57:13Z</time></trkpt><trkpt lat="40.82314942399613" lon="8.876238332020355"><ele>94.5</ele><time>2026-04-30T08:57:14Z</time></trkpt><trkpt lat="40.82310715359234" lon="8.876418054186644"><ele>94.75</ele><time>2026-04-30T08:57:15Z</time></trkpt><trkpt lat="40.82309587739611" lon="8.876610611076245"><ele>95.0</ele><time>2026-04-30T08:57:16Z</time></trkpt><trkpt lat="40.82310967991933" lon="8.876808954752612"><ele>94.0</ele><time>2026-04-30T08:57:17Z</time></trkpt><trkpt lat="40.823146367247006" lon="8.877009674727256"><ele>93.0</ele><time>2026-04-30T08:57:18Z</time></trkpt><trkpt lat="40.823187968373944" lon="8.877207431411641"><ele>92.0</ele><time>2026-04-30T08:57:19Z</time></trkpt><trkpt lat="40.82323079880975" lon="8.877402052584463"><ele>92.0</ele><time>2026-04-30T08:57:20Z</time></trkpt><trkpt lat="40.82327388804274" lon="8.877589268560712"><ele>92.0</ele><time>2026-04-30T08:57:21Z</time></trkpt><trkpt lat="40.82331860907613" lon="8.877762844189933"><ele>92.0</ele><time>2026-04-30T08:57:22Z</time></trkpt><trkpt lat="40.82337341742834" lon="8.877934710466683"><ele>92.0</ele><time>2026-04-30T08:57:23Z</time></trkpt><trkpt lat="40.823459179525635" lon="8.878127176338843"><ele>92.66666666666667</ele><time>2026-04-30T08:57:24Z</time></trkpt><trkpt lat="40.8235405416785" lon="8.878294348881465"><ele>93.33333333333333</ele><time>2026-04-30T08:57:25Z</time></trkpt><trkpt lat="40.82365851054787" lon="8.878520026258787"><ele>94.0</ele><time>2026-04-30T08:57:26Z</time></trkpt><trkpt lat="40.82375227987167" lon="8.878693639663535"><ele>92.75</ele><time>2026-04-30T08:57:27Z</time></trkpt><trkpt lat="40.823852379267336" lon="8.878854414312709"><ele>91.5</ele><time>2026-04-30T08:57:28Z</time></trkpt><trkpt lat="40.82393330899825" lon="8.879015540627309"><ele>90.25</ele><time>2026-04-30T08:57:29Z</time></trkpt><trkpt lat="40.82401486804736" lon="8.879166178797663"><ele>89.0</ele><time>2026-04-30T08:57:30Z</time></trkpt><trkpt lat="40.82410111105334" lon="8.879303684818353"><ele>88.75</ele><time>2026-04-30T08:57:31Z</time></trkpt><trkpt lat="40.824200049888596" lon="8.879423679453776"><ele>88.5</ele><time>2026-04-30T08:57:32Z</time></trkpt><trkpt lat="40.82430216517118" lon="8.87954013023894"><ele>88.25</ele><time>2026-04-30T08:57:33Z</time></trkpt><trkpt lat="40.824428660588296" lon="8.879591711808134"><ele>88.0</ele><time>2026-04-30T08:57:34Z</time></trkpt><trkpt lat="40.824544887992865" lon="8.87964808338386"><ele>86.2</ele><time>2026-04-30T08:57:35Z</time></trkpt><trkpt lat="40.824649418096925" lon="8.879708282968632"><ele>84.4</ele><time>2026-04-30T08:57:36Z</time></trkpt><trkpt lat="40.82473672227879" lon="8.879790420686058"><ele>82.60000000000001</ele><time>2026-04-30T08:57:37Z</time></trkpt><trkpt lat="40.824798610507926" lon="8.879901160042298"><ele>80.80000000000001</ele><time>2026-04-30T08:57:38.001Z</time></trkpt><trkpt lat="40.824832148156375" lon="8.880031910902677"><ele>79.0</ele><time>2026-04-30T08:57:39.001Z</time></trkpt><trkpt lat="40.82485148244579" lon="8.880177788029771"><ele>77.0</ele><time>2026-04-30T08:57:40.001Z</time></trkpt><trkpt lat="40.82486916691627" lon="8.88033344503798"><ele>75.0</ele><time>2026-04-30T08:57:41.001Z</time></trkpt><trkpt lat="40.82488491652559" lon="8.880486788253494"><ele>73.0</ele><time>2026-04-30T08:57:42.001Z</time></trkpt><trkpt lat="40.824896719398666" lon="8.880633704330219"><ele>71.0</ele><time>2026-04-30T08:57:43.001Z</time></trkpt><trkpt lat="40.82489573109134" lon="8.880786972822545"><ele>69.25</ele><time>2026-04-30T08:57:44.001Z</time></trkpt><trkpt lat="40.82487591602884" lon="8.880946374617503"><ele>67.5</ele><time>2026-04-30T08:57:45.001Z</time></trkpt><trkpt lat="40.82482990992513" lon="8.881122569654531"><ele>65.75</ele><time>2026-04-30T08:57:46.001Z</time></trkpt><trkpt lat="40.82477963030956" lon="8.881294881116299"><ele>64.0</ele><time>2026-04-30T08:57:47.001Z</time></trkpt><trkpt lat="40.824725426833545" lon="8.881481959458231"><ele>64.0</ele><time>2026-04-30T08:57:48.001Z</time></trkpt><trkpt lat="40.8246907545029" lon="8.881677552353784"><ele>64.0</ele><time>2026-04-30T08:57:49.001Z</time></trkpt><trkpt lat="40.82467641421194" lon="8.881876792403691"><ele>64.0</ele><time>2026-04-30T08:57:50.001Z</time></trkpt><trkpt lat="40.824671505948565" lon="8.882067615340558"><ele>64.0</ele><time>2026-04-30T08:57:51.001Z</time></trkpt><trkpt lat="40.82467009863158" lon="8.882250334004961"><ele>63.25</ele><time>2026-04-30T08:57:52.001Z</time></trkpt><trkpt lat="40.824663844363116" lon="8.882430186828724"><ele>62.5</ele><time>2026-04-30T08:57:53.001Z</time></trkpt><trkpt lat="40.82464696425647" lon="8.88260276831685"><ele>61.75</ele><time>2026-04-30T08:57:54.001Z</time></trkpt><trkpt lat="40.824615954791675" lon="8.882765962183306"><ele>61.0</ele><time>2026-04-30T08:57:55.001Z</time></trkpt><trkpt lat="40.82458269763745" lon="8.882921403658724"><ele>60.4</ele><time>2026-04-30T08:57:56.001Z</time></trkpt><trkpt lat="40.824550991478716" lon="8.883067652634539"><ele>59.8</ele><time>2026-04-30T08:57:57.001Z</time></trkpt><trkpt lat="40.82450822701521" lon="8.883202306604156"><ele>59.199999999999996</ele><time>2026-04-30T08:57:58.001Z</time></trkpt><trkpt lat="40.824449354641374" lon="8.883322827189017"><ele>58.599999999999994</ele><time>2026-04-30T08:57:59.001Z</time></trkpt><trkpt lat="40.82437649465114" lon="8.88342402456642"><ele>58.0</ele><time>2026-04-30T08:58:00.001Z</time></trkpt><trkpt lat="40.824296593842654" lon="8.883505096159185"><ele>57.99999999999999</ele><time>2026-04-30T08:58:01.001Z</time></trkpt><trkpt lat="40.824221438931545" lon="8.8835633825846"><ele>58.0</ele><time>2026-04-30T08:58:02.001Z</time></trkpt><trkpt lat="40.82416367423755" lon="8.883614918066284"><ele>58.0</ele><time>2026-04-30T08:58:03.001Z</time></trkpt><trkpt lat="40.824098067031784" lon="8.88371906479325"><ele>58.0</ele><time>2026-04-30T08:58:05.001Z</time></trkpt><trkpt lat="40.82406135313111" lon="8.883792958363662"><ele>57.99999999999999</ele><time>2026-04-30T08:58:08.001Z</time></trkpt><trkpt lat="40.82405423053688" lon="8.883917848163506"><ele>58.0</ele><time>2026-04-30T08:58:35Z</time></trkpt><trkpt lat="40.824060272572495" lon="8.884027200639046"><ele>58.0</ele><time>2026-04-30T08:58:36Z</time></trkpt><trkpt lat="40.824056469629326" lon="8.884144920839896"><ele>58.0</ele><time>2026-04-30T08:58:37Z</time></trkpt><trkpt lat="40.82402251270143" lon="8.884278405074253"><ele>58.0</ele><time>2026-04-30T08:58:38Z</time></trkpt><trkpt lat="40.82395434489389" lon="8.884420379214683"><ele>58.0</ele><time>2026-04-30T08:58:39Z</time></trkpt><trkpt lat="40.823872083227904" lon="8.884533827123429"><ele>58.0</ele><time>2026-04-30T08:58:40Z</time></trkpt><trkpt lat="40.82380020647587" lon="8.88463582612531"><ele>57.49999999999999</ele><time>2026-04-30T08:58:41Z</time></trkpt><trkpt lat="40.82374682437886" lon="8.884728121617322"><ele>57.0</ele><time>2026-04-30T08:58:42Z</time></trkpt><trkpt lat="40.823736978309945" lon="8.884836937012702"><ele>56.5</ele><time>2026-04-30T08:58:43Z</time></trkpt><trkpt lat="40.82377233544652" lon="8.884934363024696"><ele>56.0</ele><time>2026-04-30T08:58:44Z</time></trkpt><trkpt lat="40.82382799800843" lon="8.884998628102286"><ele>55.49999999999999</ele><time>2026-04-30T08:58:45Z</time></trkpt><trkpt lat="40.82391801553472" lon="8.885000884600412"><ele>55.0</ele><time>2026-04-30T08:58:46Z</time></trkpt><trkpt lat="40.823999301149556" lon="8.884938970257297"><ele>55.0</ele><time>2026-04-30T08:58:47Z</time></trkpt><trkpt lat="40.824070468207466" lon="8.884856867272882"><ele>55.0</ele><time>2026-04-30T08:58:48Z</time></trkpt><trkpt lat="40.824141005856745" lon="8.884761044103453"><ele>55.0</ele><time>2026-04-30T08:58:49Z</time></trkpt><trkpt lat="40.82421631385625" lon="8.884662694541785"><ele>55.0</ele><time>2026-04-30T08:58:50Z</time></trkpt><trkpt lat="40.82429365058741" lon="8.884555549634522"><ele>55.0</ele><time>2026-04-30T08:58:51Z</time></trkpt><trkpt lat="40.82437662532376" lon="8.88445830185878"><ele>54.4</ele><time>2026-04-30T08:58:52Z</time></trkpt><trkpt lat="40.82446129622916" lon="8.884373403031196"><ele>53.8</ele><time>2026-04-30T08:58:53Z</time></trkpt><trkpt lat="40.82455434327847" lon="8.884300335108444"><ele>53.2</ele><time>2026-04-30T08:58:54Z</time></trkpt><trkpt lat="40.824651188728154" lon="8.884249116768244"><ele>52.6</ele><time>2026-04-30T08:58:55Z</time></trkpt><trkpt lat="40.8247366019158" lon="8.88422368852021"><ele>52.0</ele><time>2026-04-30T08:58:56Z</time></trkpt><trkpt lat="40.82483803283968" lon="8.884227293694252"><ele>52.0</ele><time>2026-04-30T08:58:57Z</time></trkpt><trkpt lat="40.8249250570296" lon="8.884255774176252"><ele>52.0</ele><time>2026-04-30T08:58:58Z</time></trkpt><trkpt lat="40.82498547408382" lon="8.88429846573337"><ele>52.0</ele><time>2026-04-30T08:58:59Z</time></trkpt><trkpt lat="40.824920080490365" lon="8.884305568202453"><ele>52.0</ele><time>2026-04-30T08:59:04Z</time></trkpt><trkpt lat="40.82477091354308" lon="8.88442705520408"><ele>52.0</ele><time>2026-04-30T08:59:33Z</time></trkpt><trkpt lat="40.82471516233149" lon="8.884478706500875"><ele>51.49999999999999</ele><time>2026-04-30T08:59:34Z</time></trkpt><trkpt lat="40.82465496979543" lon="8.884532178257887"><ele>51.0</ele><time>2026-04-30T08:59:35Z</time></trkpt><trkpt lat="40.824583047070895" lon="8.88459607056855"><ele>50.5</ele><time>2026-04-30T08:59:36Z</time></trkpt><trkpt lat="40.824511419148564" lon="8.884661865766418"><ele>50.0</ele><time>2026-04-30T08:59:37Z</time></trkpt><trkpt lat="40.82443367839081" lon="8.884742083741063"><ele>49.49999999999999</ele><time>2026-04-30T08:59:38Z</time></trkpt><trkpt lat="40.82436511801887" lon="8.88481787848189"><ele>49.0</ele><time>2026-04-30T08:59:39Z</time></trkpt><trkpt lat="40.824300094848304" lon="8.884890836002272"><ele>49.400000000000006</ele><time>2026-04-30T08:59:40.001Z</time></trkpt><trkpt lat="40.824227339119496" lon="8.884976749169377"><ele>49.8</ele><time>2026-04-30T08:59:41.001Z</time></trkpt><trkpt lat="40.8241452858694" lon="8.88507345973517"><ele>50.2</ele><time>2026-04-30T08:59:42.001Z</time></trkpt><trkpt lat="40.824056825149505" lon="8.885176352437174"><ele>50.599999999999994</ele><time>2026-04-30T08:59:43.001Z</time></trkpt><trkpt lat="40.82397456998972" lon="8.885264997043576"><ele>51.0</ele><time>2026-04-30T08:59:44.001Z</time></trkpt><trkpt lat="40.82388579538389" lon="8.885340332786733"><ele>51.0</ele><time>2026-04-30T08:59:45.001Z</time></trkpt><trkpt lat="40.823783690161385" lon="8.885406242500224"><ele>51.0</ele><time>2026-04-30T08:59:46.001Z</time></trkpt><trkpt lat="40.823676820487655" lon="8.88547041201479"><ele>51.0</ele><time>2026-04-30T08:59:47.001Z</time></trkpt><trkpt lat="40.823573478017295" lon="8.885536395319276"><ele>51.0</ele><time>2026-04-30T08:59:48.001Z</time></trkpt><trkpt lat="40.823468880623174" lon="8.885602427145368"><ele>51.5</ele><time>2026-04-30T08:59:49.001Z</time></trkpt><trkpt lat="40.82335430204733" lon="8.885656897142294"><ele>52.0</ele><time>2026-04-30T08:59:50.001Z</time></trkpt><trkpt lat="40.82323159955244" lon="8.88572727814585"><ele>52.5</ele><time>2026-04-30T08:59:51.001Z</time></trkpt><trkpt lat="40.823104365116386" lon="8.885764644899936"><ele>53.0</ele><time>2026-04-30T08:59:52.001Z</time></trkpt><trkpt lat="40.82297972219093" lon="8.885803741398444"><ele>53.0</ele><time>2026-04-30T08:59:53.001Z</time></trkpt><trkpt lat="40.8228609241841" lon="8.885836970652596"><ele>53.0</ele><time>2026-04-30T08:59:54.001Z</time></trkpt><trkpt lat="40.82274578874804" lon="8.885874137968525"><ele>53.0</ele><time>2026-04-30T08:59:55.001Z</time></trkpt><trkpt lat="40.82263717155706" lon="8.885906686179283"><ele>53.0</ele><time>2026-04-30T08:59:56.001Z</time></trkpt><trkpt lat="40.82253223225376" lon="8.885937022994403"><ele>52.4</ele><time>2026-04-30T08:59:57.001Z</time></trkpt><trkpt lat="40.82242618436066" lon="8.885967148643038"><ele>51.8</ele><time>2026-04-30T08:59:58.001Z</time></trkpt><trkpt lat="40.82231803336818" lon="8.885997512599834"><ele>51.2</ele><time>2026-04-30T08:59:59.001Z</time></trkpt><trkpt lat="40.82221626843327" lon="8.886001936249736"><ele>50.6</ele><time>2026-04-30T09:00:00.001Z</time></trkpt><trkpt lat="40.822121465672524" lon="8.886026461390689"><ele>50.0</ele><time>2026-04-30T09:00:01.001Z</time></trkpt><trkpt lat="40.822035833030576" lon="8.88607012724434"><ele>50.00000000000001</ele><time>2026-04-30T09:00:02.001Z</time></trkpt><trkpt lat="40.82195373203934" lon="8.886087639653123"><ele>50.0</ele><time>2026-04-30T09:00:03.001Z</time></trkpt><trkpt lat="40.82188129886823" lon="8.886092870001871"><ele>50.0</ele><time>2026-04-30T09:00:04.001Z</time></trkpt><trkpt lat="40.82184090934184" lon="8.886179752458256"><ele>50.0</ele><time>2026-04-30T09:00:05.001Z</time></trkpt><trkpt lat="40.82181148381611" lon="8.886253869591227"><ele>50.0</ele><time>2026-04-30T09:00:06.001Z</time></trkpt><trkpt lat="40.82177668032027" lon="8.88633240064279"><ele>50.00000000000001</ele><time>2026-04-30T09:00:07.001Z</time></trkpt><trkpt lat="40.821720513873075" lon="8.886381585722878"><ele>50.0</ele><time>2026-04-30T09:00:08.001Z</time></trkpt><trkpt lat="40.821640054587846" lon="8.88640765286485"><ele>50.0</ele><time>2026-04-30T09:00:09.001Z</time></trkpt><trkpt lat="40.82153343591634" lon="8.886419155638386"><ele>50.0</ele><time>2026-04-30T09:00:10.001Z</time></trkpt><trkpt lat="40.82142206506864" lon="8.88641379129971"><ele>50.0</ele><time>2026-04-30T09:00:11.001Z</time></trkpt><trkpt lat="40.82129932497792" lon="8.886392346107426"><ele>50.0</ele><time>2026-04-30T09:00:12.001Z</time></trkpt><trkpt lat="40.821180856378064" lon="8.886358732750235"><ele>50.0</ele><time>2026-04-30T09:00:13.001Z</time></trkpt><trkpt lat="40.82107138335871" lon="8.886314651647737"><ele>50.0</ele><time>2026-04-30T09:00:14.001Z</time></trkpt><trkpt lat="40.820975102813755" lon="8.886277686211498"><ele>50.0</ele><time>2026-04-30T09:00:15.001Z</time></trkpt><trkpt lat="40.82088315566578" lon="8.886238236956448"><ele>50.0</ele><time>2026-04-30T09:00:16.001Z</time></trkpt><trkpt lat="40.82079626921221" lon="8.886196071069975"><ele>50.0</ele><time>2026-04-30T09:00:17.001Z</time></trkpt><trkpt lat="40.82071472227586" lon="8.886162002033638"><ele>49.833333333333336</ele><time>2026-04-30T09:00:18.001Z</time></trkpt><trkpt lat="40.82063576309692" lon="8.886139127260101"><ele>49.66666666666667</ele><time>2026-04-30T09:00:19.001Z</time></trkpt><trkpt lat="40.820554496734765" lon="8.886134858466349"><ele>49.5</ele><time>2026-04-30T09:00:20.001Z</time></trkpt><trkpt lat="40.82046972315234" lon="8.886139339621188"><ele>49.33333333333333</ele><time>2026-04-30T09:00:21.001Z</time></trkpt><trkpt lat="40.82038123420717" lon="8.886133014232463"><ele>49.166666666666664</ele><time>2026-04-30T09:00:22.001Z</time></trkpt><trkpt lat="40.82028768211552" lon="8.886173266590959"><ele>49.0</ele><time>2026-04-30T09:00:23.001Z</time></trkpt><trkpt lat="40.82019839919538" lon="8.886229534286683"><ele>49.0</ele><time>2026-04-30T09:00:24.001Z</time></trkpt><trkpt lat="40.8201143939356" lon="8.88631574557201"><ele>49.0</ele><time>2026-04-30T09:00:25.001Z</time></trkpt><trkpt lat="40.82004751724672" lon="8.886438438129401"><ele>49.0</ele><time>2026-04-30T09:00:26.001Z</time></trkpt><trkpt lat="40.81996584275836" lon="8.88653948210124"><ele>49.0</ele><time>2026-04-30T09:00:27.001Z</time></trkpt><trkpt lat="40.81989366090295" lon="8.886638141278853"><ele>49.0</ele><time>2026-04-30T09:00:28.001Z</time></trkpt><trkpt lat="40.81983021819692" lon="8.886723126037394"><ele>48.800000000000004</ele><time>2026-04-30T09:00:29.001Z</time></trkpt><trkpt lat="40.81975441703106" lon="8.886793516396772"><ele>48.6</ele><time>2026-04-30T09:00:30Z</time></trkpt><trkpt lat="40.81970466416885" lon="8.886898138315773"><ele>48.4</ele><time>2026-04-30T09:00:31Z</time></trkpt><trkpt lat="40.81963576394543" lon="8.886985349827203"><ele>48.2</ele><time>2026-04-30T09:00:32Z</time></trkpt><trkpt lat="40.819550286596254" lon="8.887060502553886"><ele>48.0</ele><time>2026-04-30T09:00:33Z</time></trkpt><trkpt lat="40.81946409137422" lon="8.887117092770263"><ele>48.0</ele><time>2026-04-30T09:00:34Z</time></trkpt><trkpt lat="40.819375146726024" lon="8.887169368386825"><ele>48.0</ele><time>2026-04-30T09:00:35Z</time></trkpt><trkpt lat="40.819290607892036" lon="8.887217512271812"><ele>48.0</ele><time>2026-04-30T09:00:36Z</time></trkpt><trkpt lat="40.81920970368597" lon="8.88726182347501"><ele>48.0</ele><time>2026-04-30T09:00:37Z</time></trkpt><trkpt lat="40.8191365144925" lon="8.887308059294138"><ele>48.0</ele><time>2026-04-30T09:00:38Z</time></trkpt><trkpt lat="40.81905308665036" lon="8.88734037072421"><ele>48.0</ele><time>2026-04-30T09:00:39Z</time></trkpt><trkpt lat="40.818975912029956" lon="8.887399716615699"><ele>48.0</ele><time>2026-04-30T09:00:40Z</time></trkpt><trkpt lat="40.81890177993979" lon="8.887466245371625"><ele>48.0</ele><time>2026-04-30T09:00:41Z</time></trkpt><trkpt lat="40.81882975593037" lon="8.887550617399969"><ele>48.0</ele><time>2026-04-30T09:00:42Z</time></trkpt><trkpt lat="40.81876696318266" lon="8.887643703543278"><ele>48.0</ele><time>2026-04-30T09:00:43Z</time></trkpt><trkpt lat="40.81871969266922" lon="8.887745644122262"><ele>48.0</ele><time>2026-04-30T09:00:44Z</time></trkpt><trkpt lat="40.81868185052279" lon="8.887845711222171"><ele>48.0</ele><time>2026-04-30T09:00:45Z</time></trkpt><trkpt lat="40.81865090013927" lon="8.887953464688263"><ele>48.0</ele><time>2026-04-30T09:00:46Z</time></trkpt><trkpt lat="40.818629215658355" lon="8.888074819421043"><ele>48.0</ele><time>2026-04-30T09:00:47Z</time></trkpt><trkpt lat="40.8186076622824" lon="8.888190385128173"><ele>48.0</ele><time>2026-04-30T09:00:48Z</time></trkpt><trkpt lat="40.81857619644938" lon="8.888306709678309"><ele>48.0</ele><time>2026-04-30T09:00:49Z</time></trkpt><trkpt lat="40.81855021803375" lon="8.888417725995728"><ele>47.833333333333336</ele><time>2026-04-30T09:00:50Z</time></trkpt><trkpt lat="40.81852472309511" lon="8.88852776578849"><ele>47.666666666666664</ele><time>2026-04-30T09:00:51Z</time></trkpt><trkpt lat="40.818501990471944" lon="8.888631233288992"><ele>47.5</ele><time>2026-04-30T09:00:52Z</time></trkpt><trkpt lat="40.8184853036531" lon="8.888731207901923"><ele>47.33333333333333</ele><time>2026-04-30T09:00:53Z</time></trkpt><trkpt lat="40.81848982077054" lon="8.888833035221015"><ele>47.166666666666664</ele><time>2026-04-30T09:00:54Z</time></trkpt><trkpt lat="40.81845777467483" lon="8.888938757165974"><ele>47.0</ele><time>2026-04-30T09:00:55Z</time></trkpt><trkpt lat="40.8184349537506" lon="8.889050698754358"><ele>47.6</ele><time>2026-04-30T09:00:56Z</time></trkpt><trkpt lat="40.81840366118126" lon="8.889164338650678"><ele>48.2</ele><time>2026-04-30T09:00:57Z</time></trkpt><trkpt lat="40.81836102740413" lon="8.889279818530328"><ele>48.8</ele><time>2026-04-30T09:00:58Z</time></trkpt><trkpt lat="40.81831406724236" lon="8.889392758811798"><ele>49.4</ele><time>2026-04-30T09:00:59Z</time></trkpt><trkpt lat="40.818259143982004" lon="8.889514817571854"><ele>50.0</ele><time>2026-04-30T09:01:01Z</time></trkpt><trkpt lat="40.81841840867278" lon="8.889679450258338"><ele>49.833333333333336</ele><time>2026-04-30T09:01:04Z</time></trkpt><trkpt lat="40.81849055132975" lon="8.889729651103657"><ele>49.66666666666667</ele><time>2026-04-30T09:01:05Z</time></trkpt><trkpt lat="40.81855748918575" lon="8.889779378491157"><ele>49.5</ele><time>2026-04-30T09:01:06Z</time></trkpt><trkpt lat="40.81862603298418" lon="8.889838257908163"><ele>49.33333333333333</ele><time>2026-04-30T09:01:07Z</time></trkpt><trkpt lat="40.81869249815893" lon="8.889886144498597"><ele>49.166666666666664</ele><time>2026-04-30T09:01:08Z</time></trkpt><trkpt lat="40.81875626716895" lon="8.889935090116897"><ele>49.0</ele><time>2026-04-30T09:01:09Z</time></trkpt><trkpt lat="40.8188356482305" lon="8.889994128386846"><ele>49.0</ele><time>2026-04-30T09:01:10Z</time></trkpt><trkpt lat="40.818925509794504" lon="8.89006246488146"><ele>49.0</ele><time>2026-04-30T09:01:11Z</time></trkpt><trkpt lat="40.819021054404544" lon="8.890143020339632"><ele>49.0</ele><time>2026-04-30T09:01:12Z</time></trkpt><trkpt lat="40.81911291654976" lon="8.890220688278038"><ele>49.0</ele><time>2026-04-30T09:01:13Z</time></trkpt><trkpt lat="40.81920231827669" lon="8.890296209967179"><ele>49.0</ele><time>2026-04-30T09:01:14Z</time></trkpt><trkpt lat="40.81928021178132" lon="8.890397694920054"><ele>48.400000000000006</ele><time>2026-04-30T09:01:15Z</time></trkpt><trkpt lat="40.819371825989" lon="8.890474587743807"><ele>47.8</ele><time>2026-04-30T09:01:16Z</time></trkpt><trkpt lat="40.81945590895451" lon="8.890575058413159"><ele>47.2</ele><time>2026-04-30T09:01:17Z</time></trkpt><trkpt lat="40.81953594660578" lon="8.890671609855834"><ele>46.599999999999994</ele><time>2026-04-30T09:01:18Z</time></trkpt><trkpt lat="40.81960753199234" lon="8.890763309616197"><ele>46.0</ele><time>2026-04-30T09:01:19Z</time></trkpt><trkpt lat="40.81966026791607" lon="8.890864860702994"><ele>46.333333333333336</ele><time>2026-04-30T09:01:20Z</time></trkpt><trkpt lat="40.81972603183258" lon="8.890932307630685"><ele>46.66666666666667</ele><time>2026-04-30T09:01:21Z</time></trkpt><trkpt lat="40.819774584931075" lon="8.891000046067132"><ele>47.0</ele><time>2026-04-30T09:01:22Z</time></trkpt><trkpt lat="40.81982328382888" lon="8.891069704640904"><ele>47.333333333333336</ele><time>2026-04-30T09:01:23Z</time></trkpt><trkpt lat="40.819874164131015" lon="8.891145785928758"><ele>47.666666666666664</ele><time>2026-04-30T09:01:24Z</time></trkpt><trkpt lat="40.819923546274346" lon="8.891219566664866"><ele>48.0</ele><time>2026-04-30T09:01:25Z</time></trkpt><trkpt lat="40.81997353748877" lon="8.891291214447126"><ele>48.0</ele><time>2026-04-30T09:01:26Z</time></trkpt><trkpt lat="40.820017774962814" lon="8.891359663340648"><ele>48.0</ele><time>2026-04-30T09:01:27Z</time></trkpt><trkpt lat="40.82005908139625" lon="8.891425302717918"><ele>48.0</ele><time>2026-04-30T09:01:28Z</time></trkpt><trkpt lat="40.82013311839959" lon="8.891534681660676"><ele>48.0</ele><time>2026-04-30T09:01:30Z</time></trkpt><trkpt lat="40.82019747041272" lon="8.89163310918206"><ele>48.0</ele><time>2026-04-30T09:01:32Z</time></trkpt><trkpt lat="40.820280555517584" lon="8.891753860384679"><ele>47.833333333333336</ele><time>2026-04-30T09:01:34.001Z</time></trkpt><trkpt lat="40.82032897347038" lon="8.891823924359281"><ele>47.666666666666664</ele><time>2026-04-30T09:01:35.001Z</time></trkpt><trkpt lat="40.82037755318806" lon="8.891894054310072"><ele>47.5</ele><time>2026-04-30T09:01:36.001Z</time></trkpt><trkpt lat="40.8204140041704" lon="8.891976189015464"><ele>47.33333333333333</ele><time>2026-04-30T09:01:37.001Z</time></trkpt><trkpt lat="40.82049375977752" lon="8.892068695523614"><ele>47.166666666666664</ele><time>2026-04-30T09:01:39.001Z</time></trkpt><trkpt lat="40.820558245836075" lon="8.892162345255601"><ele>47.0</ele><time>2026-04-30T09:01:41.001Z</time></trkpt><trkpt lat="40.82063002056085" lon="8.892253174747157"><ele>47.0</ele><time>2026-04-30T09:01:43.001Z</time></trkpt><trkpt lat="40.82069727899736" lon="8.892351229851172"><ele>47.0</ele><time>2026-04-30T09:01:45.001Z</time></trkpt><trkpt lat="40.82077302221184" lon="8.892461496882541"><ele>47.0</ele><time>2026-04-30T09:01:47.001Z</time></trkpt><trkpt lat="40.82082012877978" lon="8.892526666084466"><ele>47.0</ele><time>2026-04-30T09:01:48.001Z</time></trkpt><trkpt lat="40.82086502512801" lon="8.892590212052053"><ele>47.0</ele><time>2026-04-30T09:01:49.001Z</time></trkpt><trkpt lat="40.82091426372191" lon="8.892658628864936"><ele>47.0</ele><time>2026-04-30T09:01:50.001Z</time></trkpt><trkpt lat="40.82095829392509" lon="8.892720525969404"><ele>47.0</ele><time>2026-04-30T09:01:51.001Z</time></trkpt><trkpt lat="40.821000908191536" lon="8.89278642664698"><ele>47.0</ele><time>2026-04-30T09:01:52.001Z</time></trkpt><trkpt lat="40.821045550522435" lon="8.892850416598229"><ele>47.0</ele><time>2026-04-30T09:01:53.001Z</time></trkpt><trkpt lat="40.82113262791886" lon="8.892970906251188"><ele>47.0</ele><time>2026-04-30T09:01:55.001Z</time></trkpt><trkpt lat="40.821178484159894" lon="8.893028998836106"><ele>47.0</ele><time>2026-04-30T09:01:56.001Z</time></trkpt><trkpt lat="40.82127350975081" lon="8.893146814763229"><ele>47.0</ele><time>2026-04-30T09:01:58.001Z</time></trkpt><trkpt lat="40.82132708890399" lon="8.893225185142706"><ele>47.0</ele><time>2026-04-30T09:01:59.001Z</time></trkpt><trkpt lat="40.82137121813176" lon="8.893325009196317"><ele>47.0</ele><time>2026-04-30T09:02:00.001Z</time></trkpt><trkpt lat="40.82140799796496" lon="8.893411567238218"><ele>47.0</ele><time>2026-04-30T09:02:01.001Z</time></trkpt><trkpt lat="40.821446666277645" lon="8.893488337177455"><ele>47.0</ele><time>2026-04-30T09:02:02.001Z</time></trkpt><trkpt lat="40.821505028491494" lon="8.893617575222919"><ele>47.0</ele><time>2026-04-30T09:02:04.001Z</time></trkpt><trkpt lat="40.82155271084572" lon="8.893716970086242"><ele>47.8</ele><time>2026-04-30T09:02:06.001Z</time></trkpt><trkpt lat="40.82159400285511" lon="8.893808939505375"><ele>48.6</ele><time>2026-04-30T09:02:08.001Z</time></trkpt><trkpt lat="40.821637122320105" lon="8.893900048064255"><ele>49.4</ele><time>2026-04-30T09:02:10.001Z</time></trkpt><trkpt lat="40.821680118047155" lon="8.893992879589412"><ele>50.199999999999996</ele><time>2026-04-30T09:02:13.001Z</time></trkpt><trkpt lat="40.821731775985775" lon="8.894096999851202"><ele>51.0</ele><time>2026-04-30T09:02:16.001Z</time></trkpt><trkpt lat="40.82180856645155" lon="8.89422007115614"><ele>50.57142857142857</ele><time>2026-04-30T09:02:18.001Z</time></trkpt><trkpt lat="40.8218483711223" lon="8.89428862825968"><ele>50.142857142857146</ele><time>2026-04-30T09:02:19.001Z</time></trkpt><trkpt lat="40.82189171003495" lon="8.894356015654255"><ele>49.71428571428571</ele><time>2026-04-30T09:02:20.001Z</time></trkpt><trkpt lat="40.82193327117866" lon="8.894423008053455"><ele>49.285714285714285</ele><time>2026-04-30T09:02:21.001Z</time></trkpt><trkpt lat="40.82197281919921" lon="8.894495183052877"><ele>48.857142857142854</ele><time>2026-04-30T09:02:22.001Z</time></trkpt><trkpt lat="40.82202077974581" lon="8.89456045493451"><ele>48.42857142857142</ele><time>2026-04-30T09:02:23.001Z</time></trkpt><trkpt lat="40.822068199115144" lon="8.894626736222538"><ele>48.0</ele><time>2026-04-30T09:02:24.001Z</time></trkpt><trkpt lat="40.822121469473785" lon="8.894692836367057"><ele>48.0</ele><time>2026-04-30T09:02:25.001Z</time></trkpt><trkpt lat="40.822177866712366" lon="8.894758635653847"><ele>48.0</ele><time>2026-04-30T09:02:26.001Z</time></trkpt><trkpt lat="40.822230988300255" lon="8.89482936844215"><ele>48.0</ele><time>2026-04-30T09:02:27.001Z</time></trkpt><trkpt lat="40.822284455795064" lon="8.894927607251795"><ele>48.0</ele><time>2026-04-30T09:02:28.001Z</time></trkpt><trkpt lat="40.82234334550031" lon="8.895040602987722"><ele>48.0</ele><time>2026-04-30T09:02:29.001Z</time></trkpt><trkpt lat="40.822380892056756" lon="8.895165426113287"><ele>48.0</ele><time>2026-04-30T09:02:30.001Z</time></trkpt><trkpt lat="40.82245016333915" lon="8.895280132852506"><ele>48.5</ele><time>2026-04-30T09:02:31.001Z</time></trkpt><trkpt lat="40.82250488444744" lon="8.89540105908748"><ele>49.0</ele><time>2026-04-30T09:02:32.001Z</time></trkpt><trkpt lat="40.82256534050218" lon="8.895531128677167"><ele>49.5</ele><time>2026-04-30T09:02:33.001Z</time></trkpt><trkpt lat="40.82262461025787" lon="8.895658604105206"><ele>50.0</ele><time>2026-04-30T09:02:34.001Z</time></trkpt><trkpt lat="40.82269341370759" lon="8.895796213556398"><ele>49.25</ele><time>2026-04-30T09:02:35.001Z</time></trkpt><trkpt lat="40.822768610431645" lon="8.895920663644617"><ele>48.5</ele><time>2026-04-30T09:02:36Z</time></trkpt><trkpt lat="40.822868475758334" lon="8.896037489414452"><ele>47.75</ele><time>2026-04-30T09:02:37Z</time></trkpt><trkpt lat="40.822992519931425" lon="8.896155796697235"><ele>47.0</ele><time>2026-04-30T09:02:38Z</time></trkpt><trkpt lat="40.82311913511764" lon="8.896267616449185"><ele>47.0</ele><time>2026-04-30T09:02:39Z</time></trkpt><trkpt lat="40.82323904520319" lon="8.896367957247337"><ele>47.0</ele><time>2026-04-30T09:02:40Z</time></trkpt><trkpt lat="40.8233489043298" lon="8.896463849583263"><ele>47.0</ele><time>2026-04-30T09:02:41Z</time></trkpt><trkpt lat="40.823453498790435" lon="8.896556750294558"><ele>47.0</ele><time>2026-04-30T09:02:42Z</time></trkpt><trkpt lat="40.82355237720128" lon="8.896641848437792"><ele>46.8</ele><time>2026-04-30T09:02:43Z</time></trkpt><trkpt lat="40.82365014308078" lon="8.89672513969717"><ele>46.6</ele><time>2026-04-30T09:02:44Z</time></trkpt><trkpt lat="40.82374271334492" lon="8.89680301119109"><ele>46.4</ele><time>2026-04-30T09:02:45Z</time></trkpt><trkpt lat="40.82383643433643" lon="8.896871786351287"><ele>46.199999999999996</ele><time>2026-04-30T09:02:46Z</time></trkpt><trkpt lat="40.823926633891794" lon="8.896936341578769"><ele>46.0</ele><time>2026-04-30T09:02:47Z</time></trkpt><trkpt lat="40.824008921993425" lon="8.897000133467374"><ele>45.833333333333336</ele><time>2026-04-30T09:02:48Z</time></trkpt><trkpt lat="40.824082725627875" lon="8.89705571222712"><ele>45.66666666666667</ele><time>2026-04-30T09:02:49Z</time></trkpt><trkpt lat="40.8241403075252" lon="8.89709997547878"><ele>45.5</ele><time>2026-04-30T09:02:50Z</time></trkpt><trkpt lat="40.824205484454986" lon="8.89716234256102"><ele>45.333333333333336</ele><time>2026-04-30T09:02:52Z</time></trkpt><trkpt lat="40.82426458454846" lon="8.897201208351348"><ele>45.166666666666664</ele><time>2026-04-30T09:02:56Z</time></trkpt><trkpt lat="40.82436976399811" lon="8.897286642201264"><ele>45.0</ele><time>2026-04-30T09:03:45.001Z</time></trkpt><trkpt lat="40.824438349157425" lon="8.897332104730259"><ele>44.8</ele><time>2026-04-30T09:03:46.001Z</time></trkpt><trkpt lat="40.82450232956388" lon="8.897404182671405"><ele>44.6</ele><time>2026-04-30T09:03:47.001Z</time></trkpt><trkpt lat="40.82457686358049" lon="8.897469507623839"><ele>44.400000000000006</ele><time>2026-04-30T09:03:48.001Z</time></trkpt><trkpt lat="40.824659295514515" lon="8.897538254840443"><ele>44.2</ele><time>2026-04-30T09:03:49.001Z</time></trkpt><trkpt lat="40.82473850422612" lon="8.897609143676357"><ele>44.0</ele><time>2026-04-30T09:03:50.001Z</time></trkpt><trkpt lat="40.82481784301562" lon="8.89767850816826"><ele>44.0</ele><time>2026-04-30T09:03:51.001Z</time></trkpt><trkpt lat="40.82489050859424" lon="8.897744793008984"><ele>44.0</ele><time>2026-04-30T09:03:52.001Z</time></trkpt><trkpt lat="40.82495750277152" lon="8.897805134086635"><ele>44.0</ele><time>2026-04-30T09:03:53.001Z</time></trkpt><trkpt lat="40.82502999827531" lon="8.897869831994534"><ele>44.0</ele><time>2026-04-30T09:03:54.001Z</time></trkpt><trkpt lat="40.82510568430654" lon="8.897939818088194"><ele>44.0</ele><time>2026-04-30T09:03:55.001Z</time></trkpt><trkpt lat="40.825182657686504" lon="8.898014230794189"><ele>44.0</ele><time>2026-04-30T09:03:56.001Z</time></trkpt><trkpt lat="40.82525057432617" lon="8.898111040853253"><ele>43.2</ele><time>2026-04-30T09:03:57.001Z</time></trkpt><trkpt lat="40.825342083936285" lon="8.89816708291603"><ele>42.400000000000006</ele><time>2026-04-30T09:03:58.001Z</time></trkpt><trkpt lat="40.82542243005415" lon="8.898240827969056"><ele>41.6</ele><time>2026-04-30T09:03:59.001Z</time></trkpt><trkpt lat="40.825499635397684" lon="8.898308101488118"><ele>40.8</ele><time>2026-04-30T09:04:00.001Z</time></trkpt><trkpt lat="40.825574720247616" lon="8.898375757464393"><ele>40.0</ele><time>2026-04-30T09:04:01.001Z</time></trkpt><trkpt lat="40.825654095018905" lon="8.898451873189014"><ele>40.0</ele><time>2026-04-30T09:04:02.001Z</time></trkpt><trkpt lat="40.82574287170008" lon="8.89853652832133"><ele>40.0</ele><time>2026-04-30T09:04:03.001Z</time></trkpt><trkpt lat="40.82583372315042" lon="8.898619987920624"><ele>40.0</ele><time>2026-04-30T09:04:04.001Z</time></trkpt><trkpt lat="40.825919123769516" lon="8.898725145409422"><ele>40.0</ele><time>2026-04-30T09:04:05.001Z</time></trkpt><trkpt lat="40.8260160107939" lon="8.89881705492853"><ele>40.0</ele><time>2026-04-30T09:04:06.001Z</time></trkpt><trkpt lat="40.82612452387364" lon="8.898889424340178"><ele>40.0</ele><time>2026-04-30T09:04:07.001Z</time></trkpt><trkpt lat="40.826223377132685" lon="8.8989832965719"><ele>40.0</ele><time>2026-04-30T09:04:08.001Z</time></trkpt><trkpt lat="40.82632407984419" lon="8.899075870538821"><ele>40.0</ele><time>2026-04-30T09:04:09.001Z</time></trkpt><trkpt lat="40.82642195983142" lon="8.899169057985906"><ele>39.5</ele><time>2026-04-30T09:04:10.001Z</time></trkpt><trkpt lat="40.82651478601095" lon="8.899257268385098"><ele>39.0</ele><time>2026-04-30T09:04:11.001Z</time></trkpt><trkpt lat="40.82660498604082" lon="8.899349481401114"><ele>38.5</ele><time>2026-04-30T09:04:12.001Z</time></trkpt><trkpt lat="40.82669656264335" lon="8.899439642906263"><ele>38.0</ele><time>2026-04-30T09:04:13.001Z</time></trkpt><trkpt lat="40.82678457591388" lon="8.899522025824425"><ele>38.0</ele><time>2026-04-30T09:04:14.001Z</time></trkpt><trkpt lat="40.82687522336055" lon="8.899603116985347"><ele>38.0</ele><time>2026-04-30T09:04:15.001Z</time></trkpt><trkpt lat="40.82695302548253" lon="8.899697127900254"><ele>38.0</ele><time>2026-04-30T09:04:16.001Z</time></trkpt><trkpt lat="40.827040328310424" lon="8.8997823546139"><ele>38.0</ele><time>2026-04-30T09:04:17.001Z</time></trkpt><trkpt lat="40.82712994131081" lon="8.899862008006718"><ele>38.0</ele><time>2026-04-30T09:04:18.001Z</time></trkpt><trkpt lat="40.827228597297506" lon="8.899926752448732"><ele>38.0</ele><time>2026-04-30T09:04:19.001Z</time></trkpt><trkpt lat="40.827308323698496" lon="8.900031295718641"><ele>38.0</ele><time>2026-04-30T09:04:20.001Z</time></trkpt><trkpt lat="40.82740013020757" lon="8.900116623855688"><ele>38.0</ele><time>2026-04-30T09:04:21.001Z</time></trkpt><trkpt lat="40.82748664365153" lon="8.900191832670174"><ele>38.0</ele><time>2026-04-30T09:04:22.001Z</time></trkpt><trkpt lat="40.8275753899515" lon="8.90024575650721"><ele>38.0</ele><time>2026-04-30T09:04:23.001Z</time></trkpt><trkpt lat="40.82764094619422" lon="8.9003349100973"><ele>38.199999999999996</ele><time>2026-04-30T09:04:24.001Z</time></trkpt><trkpt lat="40.82771489912786" lon="8.90041038205733"><ele>38.4</ele><time>2026-04-30T09:04:25.001Z</time></trkpt><trkpt lat="40.8277874927972" lon="8.900482961936726"><ele>38.599999999999994</ele><time>2026-04-30T09:04:26.001Z</time></trkpt><trkpt lat="40.8278621115385" lon="8.900551711454865"><ele>38.8</ele><time>2026-04-30T09:04:27.001Z</time></trkpt><trkpt lat="40.82793635658243" lon="8.900617698496479"><ele>39.0</ele><time>2026-04-30T09:04:28.001Z</time></trkpt><trkpt lat="40.828018775806854" lon="8.900666765904157"><ele>39.0</ele><time>2026-04-30T09:04:29.001Z</time></trkpt><trkpt lat="40.82808078110502" lon="8.900751543661372"><ele>39.0</ele><time>2026-04-30T09:04:30.001Z</time></trkpt><trkpt lat="40.82815362573217" lon="8.900820896796422"><ele>39.0</ele><time>2026-04-30T09:04:31.001Z</time></trkpt><trkpt lat="40.82822364815717" lon="8.900885130459828"><ele>39.0</ele><time>2026-04-30T09:04:32.001Z</time></trkpt><trkpt lat="40.82830319290213" lon="8.90093531162583"><ele>39.0</ele><time>2026-04-30T09:04:33.001Z</time></trkpt><trkpt lat="40.82837534319852" lon="8.900999163153108"><ele>39.0</ele><time>2026-04-30T09:04:34.001Z</time></trkpt><trkpt lat="40.82844947075344" lon="8.901060364989462"><ele>38.833333333333336</ele><time>2026-04-30T09:04:35.001Z</time></trkpt><trkpt lat="40.828518651134345" lon="8.901145068614072"><ele>38.666666666666664</ele><time>2026-04-30T09:04:36.001Z</time></trkpt><trkpt lat="40.82859143795781" lon="8.901210507763007"><ele>38.5</ele><time>2026-04-30T09:04:37.001Z</time></trkpt><trkpt lat="40.82866594621865" lon="8.901283202981249"><ele>38.33333333333333</ele><time>2026-04-30T09:04:38.001Z</time></trkpt><trkpt lat="40.82873887004023" lon="8.901353074351418"><ele>38.166666666666664</ele><time>2026-04-30T09:04:39.001Z</time></trkpt><trkpt lat="40.828805902071245" lon="8.90141413551827"><ele>38.0</ele><time>2026-04-30T09:04:40.001Z</time></trkpt><trkpt lat="40.8288818013953" lon="8.901458399218805"><ele>38.0</ele><time>2026-04-30T09:04:41.001Z</time></trkpt><trkpt lat="40.828955943229815" lon="8.901526060446898"><ele>38.0</ele><time>2026-04-30T09:04:42Z</time></trkpt><trkpt lat="40.829033599231494" lon="8.901595423253635"><ele>38.0</ele><time>2026-04-30T09:04:43Z</time></trkpt><trkpt lat="40.829110238312246" lon="8.9016648665436"><ele>38.0</ele><time>2026-04-30T09:04:44Z</time></trkpt><trkpt lat="40.82918701621884" lon="8.901735665753295"><ele>38.0</ele><time>2026-04-30T09:04:45Z</time></trkpt><trkpt lat="40.8292665134504" lon="8.90180699873044"><ele>37.8</ele><time>2026-04-30T09:04:46Z</time></trkpt><trkpt lat="40.82934687086999" lon="8.901876456639092"><ele>37.599999999999994</ele><time>2026-04-30T09:04:47Z</time></trkpt><trkpt lat="40.82941815628052" lon="8.901963144499884"><ele>37.400000000000006</ele><time>2026-04-30T09:04:48Z</time></trkpt><trkpt lat="40.829496903306946" lon="8.90203686212677"><ele>37.2</ele><time>2026-04-30T09:04:49Z</time></trkpt><trkpt lat="40.829578146888274" lon="8.902111422193778"><ele>37.0</ele><time>2026-04-30T09:04:50Z</time></trkpt><trkpt lat="40.829663442649995" lon="8.902191994579367"><ele>37.0</ele><time>2026-04-30T09:04:51Z</time></trkpt><trkpt lat="40.82974522397435" lon="8.902270977737736"><ele>37.0</ele><time>2026-04-30T09:04:52Z</time></trkpt><trkpt lat="40.829830853535995" lon="8.902348804637056"><ele>37.0</ele><time>2026-04-30T09:04:53Z</time></trkpt><trkpt lat="40.82991282573894" lon="8.902421333918504"><ele>37.0</ele><time>2026-04-30T09:04:54Z</time></trkpt><trkpt lat="40.83000340102215" lon="8.902476690405033"><ele>37.0</ele><time>2026-04-30T09:04:55Z</time></trkpt><trkpt lat="40.830087004976676" lon="8.902552715736498"><ele>36.4</ele><time>2026-04-30T09:04:56Z</time></trkpt><trkpt lat="40.83016642920861" lon="8.902630205231256"><ele>35.800000000000004</ele><time>2026-04-30T09:04:57Z</time></trkpt><trkpt lat="40.830248140781144" lon="8.902707785233986"><ele>35.2</ele><time>2026-04-30T09:04:58Z</time></trkpt><trkpt lat="40.8303329665476" lon="8.902783658640598"><ele>34.6</ele><time>2026-04-30T09:04:59Z</time></trkpt><trkpt lat="40.830418313898605" lon="8.902859116663112"><ele>34.0</ele><time>2026-04-30T09:05:00Z</time></trkpt><trkpt lat="40.83048686248487" lon="8.902946062619046"><ele>34.0</ele><time>2026-04-30T09:05:01Z</time></trkpt><trkpt lat="40.83056867860611" lon="8.903021222713146"><ele>34.0</ele><time>2026-04-30T09:05:02Z</time></trkpt><trkpt lat="40.83064370043614" lon="8.90308510489353"><ele>34.0</ele><time>2026-04-30T09:05:03Z</time></trkpt><trkpt lat="40.830730479456534" lon="8.903135947304342"><ele>34.0</ele><time>2026-04-30T09:05:04Z</time></trkpt><trkpt lat="40.83080150328572" lon="8.903228740661419"><ele>34.0</ele><time>2026-04-30T09:05:05Z</time></trkpt><trkpt lat="40.830883559824635" lon="8.903305848013948"><ele>34.6</ele><time>2026-04-30T09:05:06Z</time></trkpt><trkpt lat="40.83097436557991" lon="8.903388323853282"><ele>35.2</ele><time>2026-04-30T09:05:07Z</time></trkpt><trkpt lat="40.831077787672555" lon="8.903454225395325"><ele>35.800000000000004</ele><time>2026-04-30T09:05:08Z</time></trkpt><trkpt lat="40.83117010484866" lon="8.903542922305373"><ele>36.4</ele><time>2026-04-30T09:05:09Z</time></trkpt><trkpt lat="40.831253844688106" lon="8.903621900732444"><ele>37.0</ele><time>2026-04-30T09:05:10Z</time></trkpt><trkpt lat="40.83132960507954" lon="8.903698252512603"><ele>37.0</ele><time>2026-04-30T09:05:11Z</time></trkpt><trkpt lat="40.83141158700629" lon="8.903775620716202"><ele>37.0</ele><time>2026-04-30T09:05:12Z</time></trkpt><trkpt lat="40.83149107558154" lon="8.903845030018836"><ele>37.0</ele><time>2026-04-30T09:05:13Z</time></trkpt><trkpt lat="40.83156879059456" lon="8.903911866031047"><ele>37.0</ele><time>2026-04-30T09:05:14Z</time></trkpt><trkpt lat="40.83163918298061" lon="8.903974002671246"><ele>37.0</ele><time>2026-04-30T09:05:15Z</time></trkpt><trkpt lat="40.83171222504925" lon="8.904040614217251"><ele>37.0</ele><time>2026-04-30T09:05:16Z</time></trkpt><trkpt lat="40.8317916663234" lon="8.904119119506284"><ele>37.0</ele><time>2026-04-30T09:05:17Z</time></trkpt><trkpt lat="40.831868373580825" lon="8.904192487675868"><ele>37.0</ele><time>2026-04-30T09:05:18Z</time></trkpt><trkpt lat="40.83195316517133" lon="8.904267918978466"><ele>37.0</ele><time>2026-04-30T09:05:19Z</time></trkpt><trkpt lat="40.83202368245004" lon="8.90435751669953"><ele>37.0</ele><time>2026-04-30T09:05:20Z</time></trkpt><trkpt lat="40.83210133599357" lon="8.904432025289207"><ele>36.4</ele><time>2026-04-30T09:05:21Z</time></trkpt><trkpt lat="40.83217431174147" lon="8.904499539274438"><ele>35.800000000000004</ele><time>2026-04-30T09:05:22Z</time></trkpt><trkpt lat="40.83224808779227" lon="8.904567793757018"><ele>35.2</ele><time>2026-04-30T09:05:23Z</time></trkpt><trkpt lat="40.83232727278226" lon="8.904622745442168"><ele>34.6</ele><time>2026-04-30T09:05:24Z</time></trkpt><trkpt lat="40.83239942898549" lon="8.904698795452129"><ele>34.0</ele><time>2026-04-30T09:05:25Z</time></trkpt><trkpt lat="40.83247687777364" lon="8.904780690807284"><ele>34.0</ele><time>2026-04-30T09:05:26Z</time></trkpt><trkpt lat="40.832532452798425" lon="8.904867412328358"><ele>34.0</ele><time>2026-04-30T09:05:27Z</time></trkpt><trkpt lat="40.83259915745725" lon="8.904940420364174"><ele>34.0</ele><time>2026-04-30T09:05:28Z</time></trkpt><trkpt lat="40.83267037637766" lon="8.905015123177881"><ele>34.0</ele><time>2026-04-30T09:05:29Z</time></trkpt><trkpt lat="40.8327416683216" lon="8.90506552390869"><ele>34.0</ele><time>2026-04-30T09:05:30Z</time></trkpt><trkpt lat="40.8327970165622" lon="8.905142613704546"><ele>34.0</ele><time>2026-04-30T09:05:31Z</time></trkpt><trkpt lat="40.83285635508544" lon="8.905202560878644"><ele>34.16666666666667</ele><time>2026-04-30T09:05:32Z</time></trkpt><trkpt lat="40.83291125056183" lon="8.905287974282226"><ele>34.333333333333336</ele><time>2026-04-30T09:05:33Z</time></trkpt><trkpt lat="40.832977356038356" lon="8.905370152592107"><ele>34.5</ele><time>2026-04-30T09:05:34Z</time></trkpt><trkpt lat="40.83303755288366" lon="8.905448095046166"><ele>34.666666666666664</ele><time>2026-04-30T09:05:35Z</time></trkpt><trkpt lat="40.8330954080822" lon="8.905528951077274"><ele>34.83333333333333</ele><time>2026-04-30T09:05:36Z</time></trkpt><trkpt lat="40.8331647536848" lon="8.905601121858249"><ele>35.0</ele><time>2026-04-30T09:05:37Z</time></trkpt><trkpt lat="40.83320943475144" lon="8.90570430931138"><ele>35.0</ele><time>2026-04-30T09:05:38Z</time></trkpt><trkpt lat="40.833265890646615" lon="8.905798235358862"><ele>35.0</ele><time>2026-04-30T09:05:39Z</time></trkpt><trkpt lat="40.83332202829573" lon="8.90589511936649"><ele>35.0</ele><time>2026-04-30T09:05:40Z</time></trkpt><trkpt lat="40.83337415055326" lon="8.905989209649746"><ele>35.0</ele><time>2026-04-30T09:05:41Z</time></trkpt><trkpt lat="40.833425028042754" lon="8.9060825107662"><ele>35.0</ele><time>2026-04-30T09:05:42Z</time></trkpt><trkpt lat="40.83347191150109" lon="8.906172172395586"><ele>35.0</ele><time>2026-04-30T09:05:43Z</time></trkpt><trkpt lat="40.833512918557304" lon="8.906250596005547"><ele>35.0</ele><time>2026-04-30T09:05:44Z</time></trkpt><trkpt lat="40.83355298227185" lon="8.906327103111359"><ele>35.0</ele><time>2026-04-30T09:05:45Z</time></trkpt><trkpt lat="40.83359062625966" lon="8.906396994212084"><ele>35.0</ele><time>2026-04-30T09:05:46Z</time></trkpt><trkpt lat="40.833640721683814" lon="8.906453389471851"><ele>35.0</ele><time>2026-04-30T09:05:47Z</time></trkpt><trkpt lat="40.83368227662239" lon="8.906566868508103"><ele>35.0</ele><time>2026-04-30T09:05:49.001Z</time></trkpt><trkpt lat="40.83370884363079" lon="8.906643305417848"><ele>35.0</ele><time>2026-04-30T09:05:52.001Z</time></trkpt><trkpt lat="40.83367567002782" lon="8.906536485217005"><ele>35.0</ele><time>2026-04-30T09:06:51Z</time></trkpt><trkpt lat="40.83363337007122" lon="8.906460292691682"><ele>35.0</ele><time>2026-04-30T09:06:53Z</time></trkpt><trkpt lat="40.8335973185092" lon="8.906387470285923"><ele>35.0</ele><time>2026-04-30T09:06:55Z</time></trkpt><trkpt lat="40.83354877976434" lon="8.90628980414661"><ele>35.0</ele><time>2026-04-30T09:06:58Z</time></trkpt><trkpt lat="40.833490239262545" lon="8.906207223725044"><ele>35.0</ele><time>2026-04-30T09:07:00Z</time></trkpt><trkpt lat="40.83344898983909" lon="8.90612833638186"><ele>35.0</ele><time>2026-04-30T09:07:02Z</time></trkpt><trkpt lat="40.83340602721727" lon="8.906047200964833"><ele>35.0</ele><time>2026-04-30T09:07:05Z</time></trkpt><trkpt lat="40.833322948065195" lon="8.90586141615367"><ele>35.0</ele><time>2026-04-30T09:07:07Z</time></trkpt><trkpt lat="40.833260810377595" lon="8.905756309995514"><ele>35.0</ele><time>2026-04-30T09:07:08Z</time></trkpt><trkpt lat="40.833191818374296" lon="8.90564730374643"><ele>35.0</ele><time>2026-04-30T09:07:09Z</time></trkpt><trkpt lat="40.83312571762887" lon="8.905550229899339"><ele>35.0</ele><time>2026-04-30T09:07:10Z</time></trkpt><trkpt lat="40.83306497735953" lon="8.905460771939596"><ele>35.0</ele><time>2026-04-30T09:07:11Z</time></trkpt><trkpt lat="40.83300685053525" lon="8.9053805502873"><ele>35.0</ele><time>2026-04-30T09:07:12Z</time></trkpt><trkpt lat="40.83294335492905" lon="8.90530115467846"><ele>35.0</ele><time>2026-04-30T09:07:13Z</time></trkpt><trkpt lat="40.83288029349045" lon="8.90523125419886"><ele>35.0</ele><time>2026-04-30T09:07:14Z</time></trkpt><trkpt lat="40.83282033787376" lon="8.905167799851789"><ele>35.0</ele><time>2026-04-30T09:07:15Z</time></trkpt><trkpt lat="40.83276076121226" lon="8.905091639789116"><ele>35.0</ele><time>2026-04-30T09:07:16Z</time></trkpt><trkpt lat="40.83269260035709" lon="8.905011694135935"><ele>35.0</ele><time>2026-04-30T09:07:17Z</time></trkpt><trkpt lat="40.83261624494211" lon="8.904933240053026"><ele>34.8</ele><time>2026-04-30T09:07:18Z</time></trkpt><trkpt lat="40.83253404462027" lon="8.904847286190925"><ele>34.6</ele><time>2026-04-30T09:07:19Z</time></trkpt><trkpt lat="40.832457835891866" lon="8.904765019566344"><ele>34.4</ele><time>2026-04-30T09:07:20Z</time></trkpt><trkpt lat="40.83237956187122" lon="8.904677880554027"><ele>34.2</ele><time>2026-04-30T09:07:21Z</time></trkpt><trkpt lat="40.832302174997345" lon="8.904594307426501"><ele>34.0</ele><time>2026-04-30T09:07:22Z</time></trkpt><trkpt lat="40.832225381942564" lon="8.904518513905035"><ele>34.0</ele><time>2026-04-30T09:07:23Z</time></trkpt><trkpt lat="40.83214363421673" lon="8.904440876752535"><ele>34.0</ele><time>2026-04-30T09:07:24Z</time></trkpt><trkpt lat="40.83207005193304" lon="8.904372580665493"><ele>34.0</ele><time>2026-04-30T09:07:25Z</time></trkpt><trkpt lat="40.83199926566811" lon="8.904304206096333"><ele>34.0</ele><time>2026-04-30T09:07:26Z</time></trkpt><trkpt lat="40.8319211147986" lon="8.904228628712682"><ele>34.0</ele><time>2026-04-30T09:07:27Z</time></trkpt><trkpt lat="40.831835863870815" lon="8.904147813485118"><ele>34.6</ele><time>2026-04-30T09:07:28Z</time></trkpt><trkpt lat="40.83174910364725" lon="8.904067687246625"><ele>35.2</ele><time>2026-04-30T09:07:29Z</time></trkpt><trkpt lat="40.831661672795" lon="8.903986163656544"><ele>35.800000000000004</ele><time>2026-04-30T09:07:30Z</time></trkpt><trkpt lat="40.83157821647914" lon="8.903908557594239"><ele>36.4</ele><time>2026-04-30T09:07:31Z</time></trkpt><trkpt lat="40.83149337569438" lon="8.903836870641376"><ele>37.0</ele><time>2026-04-30T09:07:32Z</time></trkpt><trkpt lat="40.83140897388343" lon="8.903762434669934"><ele>37.0</ele><time>2026-04-30T09:07:33Z</time></trkpt><trkpt lat="40.83132474964291" lon="8.903683273147852"><ele>37.0</ele><time>2026-04-30T09:07:34Z</time></trkpt><trkpt lat="40.831241043187546" lon="8.903604727100383"><ele>37.0</ele><time>2026-04-30T09:07:35Z</time></trkpt><trkpt lat="40.83115028080362" lon="8.903519446418471"><ele>37.0</ele><time>2026-04-30T09:07:36Z</time></trkpt><trkpt lat="40.83106240519846" lon="8.90343855716648"><ele>37.0</ele><time>2026-04-30T09:07:37Z</time></trkpt><trkpt lat="40.83097247677051" lon="8.903360777008208"><ele>36.25</ele><time>2026-04-30T09:07:38Z</time></trkpt><trkpt lat="40.83087734742438" lon="8.90327755861452"><ele>35.5</ele><time>2026-04-30T09:07:39Z</time></trkpt><trkpt lat="40.830785238449906" lon="8.903191268213883"><ele>34.75</ele><time>2026-04-30T09:07:40Z</time></trkpt><trkpt lat="40.830684799276725" lon="8.903095378547755"><ele>34.0</ele><time>2026-04-30T09:07:41Z</time></trkpt><trkpt lat="40.830587060134455" lon="8.903008708947425"><ele>34.0</ele><time>2026-04-30T09:07:42Z</time></trkpt><trkpt lat="40.83048118181994" lon="8.902918639597125"><ele>34.0</ele><time>2026-04-30T09:07:43Z</time></trkpt><trkpt lat="40.830385508242365" lon="8.902830724491865"><ele>34.0</ele><time>2026-04-30T09:07:44Z</time></trkpt><trkpt lat="40.83029462664213" lon="8.90275159505881"><ele>34.0</ele><time>2026-04-30T09:07:45Z</time></trkpt><trkpt lat="40.83020036684702" lon="8.902666406862746"><ele>34.75</ele><time>2026-04-30T09:07:46Z</time></trkpt><trkpt lat="40.830107229416065" lon="8.902578952220487"><ele>35.5</ele><time>2026-04-30T09:07:47Z</time></trkpt><trkpt lat="40.83000891434293" lon="8.90248706118822"><ele>36.25</ele><time>2026-04-30T09:07:48.001Z</time></trkpt><trkpt lat="40.82991790858121" lon="8.902394569216579"><ele>37.0</ele><time>2026-04-30T09:07:49.001Z</time></trkpt><trkpt lat="40.82982497138448" lon="8.902309153372222"><ele>37.0</ele><time>2026-04-30T09:07:50.001Z</time></trkpt><trkpt lat="40.829732135057256" lon="8.90222523260455"><ele>37.0</ele><time>2026-04-30T09:07:51.001Z</time></trkpt><trkpt lat="40.82963920084848" lon="8.90213782675678"><ele>37.0</ele><time>2026-04-30T09:07:52.001Z</time></trkpt><trkpt lat="40.829549434550096" lon="8.90205310801802"><ele>37.0</ele><time>2026-04-30T09:07:53.001Z</time></trkpt><trkpt lat="40.829456105149774" lon="8.901968411600695"><ele>37.0</ele><time>2026-04-30T09:07:54.001Z</time></trkpt><trkpt lat="40.829361165324876" lon="8.901882236615197"><ele>37.0</ele><time>2026-04-30T09:07:55.001Z</time></trkpt><trkpt lat="40.829264301900594" lon="8.901798507357505"><ele>37.0</ele><time>2026-04-30T09:07:56.001Z</time></trkpt><trkpt lat="40.829173811062724" lon="8.901715483356533"><ele>37.0</ele><time>2026-04-30T09:07:57.001Z</time></trkpt><trkpt lat="40.82908926073067" lon="8.901635159167823"><ele>37.0</ele><time>2026-04-30T09:07:58.001Z</time></trkpt><trkpt lat="40.8289992362816" lon="8.901559177694931"><ele>37.2</ele><time>2026-04-30T09:07:59.001Z</time></trkpt><trkpt lat="40.82887935861766" lon="8.901450717102428"><ele>37.400000000000006</ele><time>2026-04-30T09:08:00.001Z</time></trkpt><trkpt lat="40.82879056484292" lon="8.901369863871507"><ele>37.599999999999994</ele><time>2026-04-30T09:08:01.001Z</time></trkpt><trkpt lat="40.82871306988933" lon="8.90129575201552"><ele>37.8</ele><time>2026-04-30T09:08:02.001Z</time></trkpt><trkpt lat="40.82863067047726" lon="8.901227062658828"><ele>38.0</ele><time>2026-04-30T09:08:03.001Z</time></trkpt><trkpt lat="40.82855163260985" lon="8.901164014047463"><ele>38.0</ele><time>2026-04-30T09:08:04.001Z</time></trkpt><trkpt lat="40.82847947936996" lon="8.901103360379683"><ele>38.0</ele><time>2026-04-30T09:08:05.001Z</time></trkpt><trkpt lat="40.828410462599074" lon="8.901041728407467"><ele>38.0</ele><time>2026-04-30T09:08:06.001Z</time></trkpt><trkpt lat="40.828339963441955" lon="8.900978896773223"><ele>38.0</ele><time>2026-04-30T09:08:07.001Z</time></trkpt><trkpt lat="40.82826012700136" lon="8.900899702578922"><ele>38.0</ele><time>2026-04-30T09:08:08.001Z</time></trkpt><trkpt lat="40.82816587265351" lon="8.900806998408639"><ele>38.25</ele><time>2026-04-30T09:08:09.001Z</time></trkpt><trkpt lat="40.82806516722027" lon="8.900710942523252"><ele>38.5</ele><time>2026-04-30T09:08:10.001Z</time></trkpt><trkpt lat="40.82796795139313" lon="8.900618516377786"><ele>38.75</ele><time>2026-04-30T09:08:11.001Z</time></trkpt><trkpt lat="40.82786922572243" lon="8.90052475617713"><ele>39.0</ele><time>2026-04-30T09:08:12.001Z</time></trkpt><trkpt lat="40.8277736748312" lon="8.900432552137312"><ele>39.0</ele><time>2026-04-30T09:08:13.001Z</time></trkpt><trkpt lat="40.827674821458196" lon="8.900338971552246"><ele>39.0</ele><time>2026-04-30T09:08:14.001Z</time></trkpt><trkpt lat="40.82757129806222" lon="8.900244631031638"><ele>39.0</ele><time>2026-04-30T09:08:15.001Z</time></trkpt><trkpt lat="40.827459678106976" lon="8.900145661332713"><ele>39.0</ele><time>2026-04-30T09:08:16.001Z</time></trkpt><trkpt lat="40.82734163892202" lon="8.900037366719785"><ele>38.75</ele><time>2026-04-30T09:08:17.001Z</time></trkpt><trkpt lat="40.827225949148286" lon="8.899923149327115"><ele>38.5</ele><time>2026-04-30T09:08:18.001Z</time></trkpt><trkpt lat="40.82711056769704" lon="8.899816320321538"><ele>38.25</ele><time>2026-04-30T09:08:19.001Z</time></trkpt><trkpt lat="40.8270192379119" lon="8.899734634343895"><ele>38.0</ele><time>2026-04-30T09:08:20.001Z</time></trkpt><trkpt lat="40.82690877680298" lon="8.899633114069063"><ele>38.0</ele><time>2026-04-30T09:08:21.001Z</time></trkpt><trkpt lat="40.826803282492634" lon="8.899537044911606"><ele>38.0</ele><time>2026-04-30T09:08:22.001Z</time></trkpt><trkpt lat="40.82669947516803" lon="8.899447974050714"><ele>38.0</ele><time>2026-04-30T09:08:23.001Z</time></trkpt><trkpt lat="40.82659988963983" lon="8.899352520800573"><ele>38.0</ele><time>2026-04-30T09:08:24.001Z</time></trkpt><trkpt lat="40.82649071039474" lon="8.899241627375027"><ele>38.5</ele><time>2026-04-30T09:08:25.001Z</time></trkpt><trkpt lat="40.826372978321636" lon="8.899126016602798"><ele>39.0</ele><time>2026-04-30T09:08:26.001Z</time></trkpt><trkpt lat="40.82626076763906" lon="8.89901996751834"><ele>39.5</ele><time>2026-04-30T09:08:27.001Z</time></trkpt><trkpt lat="40.82614722463773" lon="8.898912205130943"><ele>40.0</ele><time>2026-04-30T09:08:28.001Z</time></trkpt><trkpt lat="40.82603885214401" lon="8.898815358736522"><ele>40.0</ele><time>2026-04-30T09:08:29.001Z</time></trkpt><trkpt lat="40.82593392160686" lon="8.898712084147242"><ele>40.0</ele><time>2026-04-30T09:08:30.001Z</time></trkpt><trkpt lat="40.82582797022627" lon="8.898609760557402"><ele>40.0</ele><time>2026-04-30T09:08:31.001Z</time></trkpt><trkpt lat="40.82571944052387" lon="8.89850979815778"><ele>40.0</ele><time>2026-04-30T09:08:32.001Z</time></trkpt><trkpt lat="40.82560819720644" lon="8.898408037778621"><ele>40.0</ele><time>2026-04-30T09:08:33.001Z</time></trkpt><trkpt lat="40.82550411723237" lon="8.89831132057412"><ele>40.0</ele><time>2026-04-30T09:08:34.001Z</time></trkpt><trkpt lat="40.82540114846639" lon="8.898222637520927"><ele>40.0</ele><time>2026-04-30T09:08:35.001Z</time></trkpt><trkpt lat="40.82529590560359" lon="8.898129570089187"><ele>40.0</ele><time>2026-04-30T09:08:36.001Z</time></trkpt><trkpt lat="40.8251951860341" lon="8.898035817266322"><ele>41.0</ele><time>2026-04-30T09:08:37.001Z</time></trkpt><trkpt lat="40.82509882640096" lon="8.897943326919249"><ele>42.0</ele><time>2026-04-30T09:08:38.001Z</time></trkpt><trkpt lat="40.82500674942137" lon="8.89784954235487"><ele>43.0</ele><time>2026-04-30T09:08:39.001Z</time></trkpt><trkpt lat="40.82491726650628" lon="8.897769089818384"><ele>44.0</ele><time>2026-04-30T09:08:40.001Z</time></trkpt><trkpt lat="40.82481601713159" lon="8.897684914153352"><ele>44.0</ele><time>2026-04-30T09:08:41.001Z</time></trkpt><trkpt lat="40.82472204615768" lon="8.89759861807308"><ele>44.0</ele><time>2026-04-30T09:08:42.001Z</time></trkpt><trkpt lat="40.82464984356391" lon="8.897525976987032"><ele>44.0</ele><time>2026-04-30T09:08:43.001Z</time></trkpt><trkpt lat="40.82457541696766" lon="8.897464158872456"><ele>44.0</ele><time>2026-04-30T09:08:44.001Z</time></trkpt><trkpt lat="40.82450934710494" lon="8.897404683902296"><ele>44.0</ele><time>2026-04-30T09:08:45.001Z</time></trkpt><trkpt lat="40.824453668464045" lon="8.897347091019837"><ele>44.0</ele><time>2026-04-30T09:08:46.001Z</time></trkpt><trkpt lat="40.82436220156433" lon="8.897253206575112"><ele>43.6</ele><time>2026-04-30T09:08:48.001Z</time></trkpt><trkpt lat="40.82433847754342" lon="8.897164031671261"><ele>43.2</ele><time>2026-04-30T09:08:50.001Z</time></trkpt><trkpt lat="40.82437245655885" lon="8.897031718252649"><ele>42.800000000000004</ele><time>2026-04-30T09:08:52.001Z</time></trkpt><trkpt lat="40.82443525991786" lon="8.89694432100672"><ele>42.400000000000006</ele><time>2026-04-30T09:08:53.001Z</time></trkpt><trkpt lat="40.82448400172302" lon="8.8968137016401"><ele>42.0</ele><time>2026-04-30T09:08:54Z</time></trkpt><trkpt lat="40.82455364889019" lon="8.89667522263134"><ele>42.0</ele><time>2026-04-30T09:08:55Z</time></trkpt><trkpt lat="40.824623317998046" lon="8.896518637944677"><ele>42.0</ele><time>2026-04-30T09:08:56Z</time></trkpt><trkpt lat="40.82469817435543" lon="8.896352714280079"><ele>42.0</ele><time>2026-04-30T09:08:57Z</time></trkpt><trkpt lat="40.824782376380185" lon="8.896176528249248"><ele>42.0</ele><time>2026-04-30T09:08:58Z</time></trkpt><trkpt lat="40.82486722092994" lon="8.895992185169366"><ele>41.666666666666664</ele><time>2026-04-30T09:08:59Z</time></trkpt><trkpt lat="40.82496006534967" lon="8.895810791977325"><ele>41.33333333333333</ele><time>2026-04-30T09:09:00Z</time></trkpt><trkpt lat="40.82504656947331" lon="8.89563919705991"><ele>41.0</ele><time>2026-04-30T09:09:01Z</time></trkpt><trkpt lat="40.825129849176356" lon="8.895479709995863"><ele>40.75</ele><time>2026-04-30T09:09:02Z</time></trkpt><trkpt lat="40.82520501191842" lon="8.895328411339756"><ele>40.5</ele><time>2026-04-30T09:09:03Z</time></trkpt><trkpt lat="40.82528810856338" lon="8.895207620694682"><ele>40.25</ele><time>2026-04-30T09:09:04Z</time></trkpt><trkpt lat="40.82533762014463" lon="8.89507744551386"><ele>40.0</ele><time>2026-04-30T09:09:05Z</time></trkpt><trkpt lat="40.825397132777674" lon="8.894970620554236"><ele>40.0</ele><time>2026-04-30T09:09:06Z</time></trkpt><trkpt lat="40.82545561345485" lon="8.894873829007869"><ele>40.0</ele><time>2026-04-30T09:09:07Z</time></trkpt><trkpt lat="40.825513160062975" lon="8.894789434390072"><ele>40.0</ele><time>2026-04-30T09:09:08Z</time></trkpt><trkpt lat="40.82557389577867" lon="8.894715413524754"><ele>40.0</ele><time>2026-04-30T09:09:09Z</time></trkpt><trkpt lat="40.825629662685806" lon="8.89464493479353"><ele>40.0</ele><time>2026-04-30T09:09:10Z</time></trkpt><trkpt lat="40.82568796615375" lon="8.894574650968519"><ele>40.0</ele><time>2026-04-30T09:09:11Z</time></trkpt><trkpt lat="40.82575108718361" lon="8.89450932620562"><ele>40.0</ele><time>2026-04-30T09:09:12Z</time></trkpt><trkpt lat="40.82582141581398" lon="8.89444172942475"><ele>40.0</ele><time>2026-04-30T09:09:13Z</time></trkpt><trkpt lat="40.8258947743914" lon="8.894380244805848"><ele>40.0</ele><time>2026-04-30T09:09:14Z</time></trkpt><trkpt lat="40.825980716842494" lon="8.894307525334828"><ele>40.0</ele><time>2026-04-30T09:09:15Z</time></trkpt><trkpt lat="40.82606613408964" lon="8.89423060004028"><ele>40.0</ele><time>2026-04-30T09:09:16Z</time></trkpt><trkpt lat="40.82613850824958" lon="8.894149683069685"><ele>41.16666666666667</ele><time>2026-04-30T09:09:17Z</time></trkpt><trkpt lat="40.82620700587966" lon="8.894082381592316"><ele>42.333333333333336</ele><time>2026-04-30T09:09:18Z</time></trkpt><trkpt lat="40.8262198118708" lon="8.893970229158695"><ele>43.5</ele><time>2026-04-30T09:09:19Z</time></trkpt><trkpt lat="40.8262151117803" lon="8.89386935169704"><ele>44.666666666666664</ele><time>2026-04-30T09:09:20Z</time></trkpt><trkpt lat="40.82616698379228" lon="8.893771571112556"><ele>45.83333333333333</ele><time>2026-04-30T09:09:21Z</time></trkpt><trkpt lat="40.82609166493218" lon="8.893660381966217"><ele>47.0</ele><time>2026-04-30T09:09:22Z</time></trkpt><trkpt lat="40.8259888638982" lon="8.893535141601706"><ele>47.666666666666664</ele><time>2026-04-30T09:09:23Z</time></trkpt><trkpt lat="40.825890871049594" lon="8.893380824104765"><ele>48.33333333333333</ele><time>2026-04-30T09:09:24Z</time></trkpt><trkpt lat="40.825764542199465" lon="8.893242025226073"><ele>49.0</ele><time>2026-04-30T09:09:25Z</time></trkpt><trkpt lat="40.82564167241236" lon="8.893082407591688"><ele>49.0</ele><time>2026-04-30T09:09:26Z</time></trkpt><trkpt lat="40.825519210411635" lon="8.892919078208404"><ele>49.0</ele><time>2026-04-30T09:09:27Z</time></trkpt><trkpt lat="40.825401942227685" lon="8.89277089589805"><ele>49.0</ele><time>2026-04-30T09:09:28Z</time></trkpt><trkpt lat="40.82528728498263" lon="8.89263521742234"><ele>48.25</ele><time>2026-04-30T09:09:29Z</time></trkpt><trkpt lat="40.825179942600606" lon="8.892511249915534"><ele>47.5</ele><time>2026-04-30T09:09:30Z</time></trkpt><trkpt lat="40.82509149279359" lon="8.89237668033372"><ele>46.75</ele><time>2026-04-30T09:09:31Z</time></trkpt><trkpt lat="40.824981813368666" lon="8.892280438916057"><ele>46.0</ele><time>2026-04-30T09:09:32Z</time></trkpt><trkpt lat="40.82491472618692" lon="8.892159311861189"><ele>46.0</ele><time>2026-04-30T09:09:33Z</time></trkpt><trkpt lat="40.82485391492292" lon="8.892049742146668"><ele>46.0</ele><time>2026-04-30T09:09:34Z</time></trkpt><trkpt lat="40.82478573230199" lon="8.89194138521507"><ele>46.0</ele><time>2026-04-30T09:09:35Z</time></trkpt><trkpt lat="40.824734037367286" lon="8.89181555295804"><ele>46.0</ele><time>2026-04-30T09:09:36Z</time></trkpt><trkpt lat="40.82468737291612" lon="8.891685191890867"><ele>46.0</ele><time>2026-04-30T09:09:37Z</time></trkpt><trkpt lat="40.82465402588252" lon="8.891555614469242"><ele>47.4</ele><time>2026-04-30T09:09:38Z</time></trkpt><trkpt lat="40.824629666402885" lon="8.891425119914427"><ele>48.8</ele><time>2026-04-30T09:09:39Z</time></trkpt><trkpt lat="40.82462807267082" lon="8.891291438235596"><ele>50.199999999999996</ele><time>2026-04-30T09:09:40Z</time></trkpt><trkpt lat="40.8246210172586" lon="8.89116156932966"><ele>51.599999999999994</ele><time>2026-04-30T09:09:41Z</time></trkpt><trkpt lat="40.82461853041794" lon="8.89103361924883"><ele>53.0</ele><time>2026-04-30T09:09:42Z</time></trkpt><trkpt lat="40.824609000271856" lon="8.89090041487135"><ele>54.2</ele><time>2026-04-30T09:09:43Z</time></trkpt><trkpt lat="40.82461405574414" lon="8.890765880097387"><ele>55.4</ele><time>2026-04-30T09:09:44Z</time></trkpt><trkpt lat="40.82461887044723" lon="8.890631862936274"><ele>56.60000000000001</ele><time>2026-04-30T09:09:45Z</time></trkpt><trkpt lat="40.82462587411347" lon="8.890494588760925"><ele>57.800000000000004</ele><time>2026-04-30T09:09:46Z</time></trkpt><trkpt lat="40.82463202876669" lon="8.890359531888457"><ele>59.0</ele><time>2026-04-30T09:09:47Z</time></trkpt><trkpt lat="40.824642723639016" lon="8.890226896692496"><ele>59.0</ele><time>2026-04-30T09:09:48Z</time></trkpt><trkpt lat="40.824660031397904" lon="8.89010266482674"><ele>59.00000000000001</ele><time>2026-04-30T09:09:49Z</time></trkpt><trkpt lat="40.8246871217899" lon="8.889974954579445"><ele>59.00000000000001</ele><time>2026-04-30T09:09:50Z</time></trkpt><trkpt lat="40.82472947610833" lon="8.889847991340183"><ele>59.0</ele><time>2026-04-30T09:09:51Z</time></trkpt><trkpt lat="40.8247763532323" lon="8.889719217058529"><ele>59.0</ele><time>2026-04-30T09:09:52Z</time></trkpt><trkpt lat="40.82482575097706" lon="8.889587837892897"><ele>58.25</ele><time>2026-04-30T09:09:53Z</time></trkpt><trkpt lat="40.824873257037815" lon="8.889444889228448"><ele>57.5</ele><time>2026-04-30T09:09:54Z</time></trkpt><trkpt lat="40.82492171206904" lon="8.889298174321034"><ele>56.75</ele><time>2026-04-30T09:09:55Z</time></trkpt><trkpt lat="40.824969935841715" lon="8.889160020472898"><ele>56.0</ele><time>2026-04-30T09:09:56Z</time></trkpt><trkpt lat="40.82501672355197" lon="8.889023541202997"><ele>56.0</ele><time>2026-04-30T09:09:57Z</time></trkpt><trkpt lat="40.8250628366136" lon="8.888882611728917"><ele>55.99999999999999</ele><time>2026-04-30T09:09:58Z</time></trkpt><trkpt lat="40.825107361350376" lon="8.88873398339388"><ele>55.99999999999999</ele><time>2026-04-30T09:09:59Z</time></trkpt><trkpt lat="40.825153458289336" lon="8.888595279330339"><ele>56.0</ele><time>2026-04-30T09:10:00.001Z</time></trkpt><trkpt lat="40.82518551250913" lon="8.888474084966216"><ele>56.0</ele><time>2026-04-30T09:10:01.001Z</time></trkpt><trkpt lat="40.8252152931937" lon="8.888360097131445"><ele>55.833333333333336</ele><time>2026-04-30T09:10:02.001Z</time></trkpt><trkpt lat="40.82524362350073" lon="8.8882614590109"><ele>55.66666666666667</ele><time>2026-04-30T09:10:03.001Z</time></trkpt><trkpt lat="40.82532686807483" lon="8.888162366837317"><ele>55.5</ele><time>2026-04-30T09:10:05.001Z</time></trkpt><trkpt lat="40.825432046473885" lon="8.888176892309636"><ele>55.33333333333333</ele><time>2026-04-30T09:10:07.001Z</time></trkpt><trkpt lat="40.82549238423703" lon="8.888210600694821"><ele>55.166666666666664</ele><time>2026-04-30T09:10:08.001Z</time></trkpt><trkpt lat="40.82554432999065" lon="8.88827698551202"><ele>55.0</ele><time>2026-04-30T09:10:09.001Z</time></trkpt><trkpt lat="40.82557681258849" lon="8.888353242544998"><ele>55.0</ele><time>2026-04-30T09:10:10.001Z</time></trkpt><trkpt lat="40.825613020797775" lon="8.888425357662031"><ele>55.0</ele><time>2026-04-30T09:10:11.001Z</time></trkpt><trkpt lat="40.82570438074138" lon="8.88845554422842"><ele>55.0</ele><time>2026-04-30T09:10:13.001Z</time></trkpt><trkpt lat="40.82580727582689" lon="8.888381912764181"><ele>55.0</ele><time>2026-04-30T09:10:15.001Z</time></trkpt><trkpt lat="40.82590285471912" lon="8.888317819593903"><ele>55.0</ele><time>2026-04-30T09:10:17.001Z</time></trkpt><trkpt lat="40.82596848193626" lon="8.888484469087645"><ele>56.2</ele><time>2026-04-30T09:11:07Z</time></trkpt><trkpt lat="40.82598561650082" lon="8.88858064116353"><ele>57.4</ele><time>2026-04-30T09:11:08Z</time></trkpt><trkpt lat="40.82601625882612" lon="8.888690838374025"><ele>58.599999999999994</ele><time>2026-04-30T09:11:09Z</time></trkpt><trkpt lat="40.82603556185018" lon="8.888815356418982"><ele>59.8</ele><time>2026-04-30T09:11:10Z</time></trkpt><trkpt lat="40.826063454344386" lon="8.888948759316039"><ele>61.0</ele><time>2026-04-30T09:11:11Z</time></trkpt><trkpt lat="40.82609472223028" lon="8.889096210970097"><ele>61.0</ele><time>2026-04-30T09:11:12Z</time></trkpt><trkpt lat="40.82612184286004" lon="8.889248438405506"><ele>61.0</ele><time>2026-04-30T09:11:13Z</time></trkpt><trkpt lat="40.826153859295665" lon="8.889401402165557"><ele>61.0</ele><time>2026-04-30T09:11:14Z</time></trkpt><trkpt lat="40.82618588486834" lon="8.889555494463968"><ele>61.0</ele><time>2026-04-30T09:11:15Z</time></trkpt><trkpt lat="40.82621716405476" lon="8.889711612141259"><ele>62.25</ele><time>2026-04-30T09:11:16Z</time></trkpt><trkpt lat="40.82625134271189" lon="8.889868842882185"><ele>63.5</ele><time>2026-04-30T09:11:17Z</time></trkpt><trkpt lat="40.82626865964886" lon="8.890023997368754"><ele>64.75</ele><time>2026-04-30T09:11:18Z</time></trkpt><trkpt lat="40.826297257683144" lon="8.890168045279648"><ele>66.0</ele><time>2026-04-30T09:11:19Z</time></trkpt><trkpt lat="40.82633711686538" lon="8.890303118865873"><ele>67.39999999999999</ele><time>2026-04-30T09:11:20Z</time></trkpt><trkpt lat="40.826364129170265" lon="8.890442330163511"><ele>68.8</ele><time>2026-04-30T09:11:21Z</time></trkpt><trkpt lat="40.82639109241957" lon="8.890577175590437"><ele>70.19999999999999</ele><time>2026-04-30T09:11:22Z</time></trkpt><trkpt lat="40.82641693926106" lon="8.890705392114613"><ele>71.6</ele><time>2026-04-30T09:11:23Z</time></trkpt><trkpt lat="40.826441891981965" lon="8.890832530284943"><ele>73.0</ele><time>2026-04-30T09:11:24Z</time></trkpt><trkpt lat="40.826465774562244" lon="8.890958803903239"><ele>74.6</ele><time>2026-04-30T09:11:25Z</time></trkpt><trkpt lat="40.82648914992154" lon="8.891068861213121"><ele>76.19999999999999</ele><time>2026-04-30T09:11:26Z</time></trkpt><trkpt lat="40.82651090085377" lon="8.891191708247836"><ele>77.8</ele><time>2026-04-30T09:11:27Z</time></trkpt><trkpt lat="40.82653338888521" lon="8.89131875671182"><ele>79.39999999999999</ele><time>2026-04-30T09:11:28Z</time></trkpt><trkpt lat="40.8265613519982" lon="8.891444175346523"><ele>81.0</ele><time>2026-04-30T09:11:29Z</time></trkpt><trkpt lat="40.82659857517616" lon="8.891552770824795"><ele>81.0</ele><time>2026-04-30T09:11:30Z</time></trkpt><trkpt lat="40.826631676185684" lon="8.891655972318505"><ele>81.0</ele><time>2026-04-30T09:11:31Z</time></trkpt><trkpt lat="40.826711322637834" lon="8.891728215215213"><ele>81.0</ele><time>2026-04-30T09:11:32Z</time></trkpt><trkpt lat="40.826807285019214" lon="8.891756535584125"><ele>81.0</ele><time>2026-04-30T09:11:33Z</time></trkpt><trkpt lat="40.82690483787352" lon="8.89179658964224"><ele>81.0</ele><time>2026-04-30T09:11:34Z</time></trkpt><trkpt lat="40.82700793084132" lon="8.891822069182044"><ele>79.25</ele><time>2026-04-30T09:11:35Z</time></trkpt><trkpt lat="40.827113603148746" lon="8.891853683371103"><ele>77.5</ele><time>2026-04-30T09:11:36Z</time></trkpt><trkpt lat="40.82722477687975" lon="8.891893316960491"><ele>75.75</ele><time>2026-04-30T09:11:37Z</time></trkpt><trkpt lat="40.827346317768395" lon="8.891936441688747"><ele>74.0</ele><time>2026-04-30T09:11:38Z</time></trkpt><trkpt lat="40.82746206718334" lon="8.891973271113274"><ele>74.0</ele><time>2026-04-30T09:11:39Z</time></trkpt><trkpt lat="40.82757764677338" lon="8.89200970080812"><ele>74.0</ele><time>2026-04-30T09:11:40Z</time></trkpt><trkpt lat="40.82769156491161" lon="8.89204913841015"><ele>74.0</ele><time>2026-04-30T09:11:41Z</time></trkpt><trkpt lat="40.827804371000255" lon="8.892088841478119"><ele>74.0</ele><time>2026-04-30T09:11:42Z</time></trkpt><trkpt lat="40.827917075145365" lon="8.892124897945695"><ele>73.75</ele><time>2026-04-30T09:11:43Z</time></trkpt><trkpt lat="40.82803463399439" lon="8.892159444214874"><ele>73.5</ele><time>2026-04-30T09:11:44Z</time></trkpt><trkpt lat="40.82815271582198" lon="8.892197393298357"><ele>73.25</ele><time>2026-04-30T09:11:45Z</time></trkpt><trkpt lat="40.8282710646035" lon="8.89223666748452"><ele>73.0</ele><time>2026-04-30T09:11:46Z</time></trkpt><trkpt lat="40.828387297375606" lon="8.892274038578915"><ele>72.0</ele><time>2026-04-30T09:11:47Z</time></trkpt><trkpt lat="40.828501008163954" lon="8.892305144470873"><ele>71.0</ele><time>2026-04-30T09:11:48Z</time></trkpt><trkpt lat="40.82861522150489" lon="8.89233004573659"><ele>70.0</ele><time>2026-04-30T09:11:49Z</time></trkpt><trkpt lat="40.82873289978257" lon="8.892339923863279"><ele>69.0</ele><time>2026-04-30T09:11:50Z</time></trkpt><trkpt lat="40.828851456651144" lon="8.892328608821346"><ele>69.0</ele><time>2026-04-30T09:11:51Z</time></trkpt><trkpt lat="40.828972255399776" lon="8.892311043681074"><ele>69.0</ele><time>2026-04-30T09:11:52Z</time></trkpt><trkpt lat="40.8290944825754" lon="8.89228841641878"><ele>69.0</ele><time>2026-04-30T09:11:53Z</time></trkpt><trkpt lat="40.82921832703051" lon="8.89226618784284"><ele>69.0</ele><time>2026-04-30T09:11:54Z</time></trkpt><trkpt lat="40.82933957875726" lon="8.892241058978025"><ele>68.0</ele><time>2026-04-30T09:11:55Z</time></trkpt><trkpt lat="40.829461474792495" lon="8.892216893944113"><ele>67.0</ele><time>2026-04-30T09:11:56Z</time></trkpt><trkpt lat="40.8295834995657" lon="8.892195011308582"><ele>66.0</ele><time>2026-04-30T09:11:57Z</time></trkpt><trkpt lat="40.82970038703646" lon="8.892174504465645"><ele>65.0</ele><time>2026-04-30T09:11:58Z</time></trkpt><trkpt lat="40.82981413631865" lon="8.892155280730844"><ele>65.0</ele><time>2026-04-30T09:11:59.001Z</time></trkpt><trkpt lat="40.82992561236412" lon="8.892134721567048"><ele>65.0</ele><time>2026-04-30T09:12:00.001Z</time></trkpt><trkpt lat="40.830034330546" lon="8.892095072485674"><ele>65.0</ele><time>2026-04-30T09:12:01.001Z</time></trkpt><trkpt lat="40.830143491015384" lon="8.89205491951104"><ele>65.0</ele><time>2026-04-30T09:12:02.001Z</time></trkpt><trkpt lat="40.83023396663258" lon="8.891951245991894"><ele>64.75</ele><time>2026-04-30T09:12:03.001Z</time></trkpt><trkpt lat="40.83033753784187" lon="8.891844241028101"><ele>64.5</ele><time>2026-04-30T09:12:04.001Z</time></trkpt><trkpt lat="40.8304414145152" lon="8.891724671605624"><ele>64.25</ele><time>2026-04-30T09:12:05.001Z</time></trkpt><trkpt lat="40.830548220844314" lon="8.891593358647398"><ele>64.0</ele><time>2026-04-30T09:12:06.001Z</time></trkpt><trkpt lat="40.83066311164985" lon="8.891452818545934"><ele>64.0</ele><time>2026-04-30T09:12:07.001Z</time></trkpt><trkpt lat="40.830782371977854" lon="8.89130619273359"><ele>64.0</ele><time>2026-04-30T09:12:08.001Z</time></trkpt><trkpt lat="40.830904044979384" lon="8.891160779139453"><ele>64.0</ele><time>2026-04-30T09:12:09.001Z</time></trkpt><trkpt lat="40.83102010466435" lon="8.891024610627845"><ele>65.0</ele><time>2026-04-30T09:12:10.001Z</time></trkpt><trkpt lat="40.83112884491593" lon="8.89089274483902"><ele>66.0</ele><time>2026-04-30T09:12:11.001Z</time></trkpt><trkpt lat="40.831237478929914" lon="8.890764640688172"><ele>67.0</ele><time>2026-04-30T09:12:12.001Z</time></trkpt><trkpt lat="40.83134964613639" lon="8.890633653751275"><ele>68.0</ele><time>2026-04-30T09:12:13.001Z</time></trkpt><trkpt lat="40.83146193957269" lon="8.890509908186981"><ele>68.0</ele><time>2026-04-30T09:12:14.001Z</time></trkpt><trkpt lat="40.8315722220724" lon="8.890388058746492"><ele>68.0</ele><time>2026-04-30T09:12:15.001Z</time></trkpt><trkpt lat="40.831681391758394" lon="8.890264390603951"><ele>68.0</ele><time>2026-04-30T09:12:16.001Z</time></trkpt><trkpt lat="40.831788531838214" lon="8.890140087825161"><ele>68.0</ele><time>2026-04-30T09:12:17.001Z</time></trkpt><trkpt lat="40.83189365779667" lon="8.890015291904149"><ele>70.0</ele><time>2026-04-30T09:12:18.001Z</time></trkpt><trkpt lat="40.83199858950656" lon="8.88988926298146"><ele>72.0</ele><time>2026-04-30T09:12:19.001Z</time></trkpt><trkpt lat="40.83210146491219" lon="8.889766763366763"><ele>74.0</ele><time>2026-04-30T09:12:20.001Z</time></trkpt><trkpt lat="40.83220345793795" lon="8.889645632467486"><ele>76.0</ele><time>2026-04-30T09:12:21.001Z</time></trkpt><trkpt lat="40.83230438888919" lon="8.889528304094162"><ele>76.0</ele><time>2026-04-30T09:12:22.001Z</time></trkpt><trkpt lat="40.83240362133893" lon="8.889412011386817"><ele>76.0</ele><time>2026-04-30T09:12:23.001Z</time></trkpt><trkpt lat="40.832500389835296" lon="8.889298842637949"><ele>76.0</ele><time>2026-04-30T09:12:24.001Z</time></trkpt><trkpt lat="40.832596164074175" lon="8.889186488872763"><ele>76.0</ele><time>2026-04-30T09:12:25.001Z</time></trkpt><trkpt lat="40.83268858745961" lon="8.889076957612414"><ele>76.2</ele><time>2026-04-30T09:12:26.001Z</time></trkpt><trkpt lat="40.83277854038328" lon="8.888969382228735"><ele>76.39999999999999</ele><time>2026-04-30T09:12:27.001Z</time></trkpt><trkpt lat="40.83286647455376" lon="8.888866024887534"><ele>76.6</ele><time>2026-04-30T09:12:28.001Z</time></trkpt><trkpt lat="40.83294680285628" lon="8.888769856960073"><ele>76.8</ele><time>2026-04-30T09:12:29.001Z</time></trkpt><trkpt lat="40.83302024411245" lon="8.888680277589815"><ele>77.0</ele><time>2026-04-30T09:12:30.001Z</time></trkpt><trkpt lat="40.83309366160213" lon="8.88860127704759"><ele>77.0</ele><time>2026-04-30T09:12:31.001Z</time></trkpt><trkpt lat="40.833157283750175" lon="8.888525282065508"><ele>77.0</ele><time>2026-04-30T09:12:32.001Z</time></trkpt><trkpt lat="40.83321310821364" lon="8.888463270065863"><ele>77.0</ele><time>2026-04-30T09:12:33.001Z</time></trkpt><trkpt lat="40.83331174385561" lon="8.88840153404267"><ele>77.0</ele><time>2026-04-30T09:12:35.001Z</time></trkpt><trkpt lat="40.833410105085946" lon="8.888410274561691"><ele>77.0</ele><time>2026-04-30T09:12:37.001Z</time></trkpt><trkpt lat="40.83347400346284" lon="8.88846481374169"><ele>77.0</ele><time>2026-04-30T09:12:38.001Z</time></trkpt><trkpt lat="40.83354688847412" lon="8.888547773890863"><ele>76.25</ele><time>2026-04-30T09:12:39.001Z</time></trkpt><trkpt lat="40.83363093574274" lon="8.888633900318002"><ele>75.5</ele><time>2026-04-30T09:12:40.001Z</time></trkpt><trkpt lat="40.83372549623128" lon="8.888726740668076"><ele>74.75</ele><time>2026-04-30T09:12:41.001Z</time></trkpt><trkpt lat="40.83382636686279" lon="8.88883126829901"><ele>74.0</ele><time>2026-04-30T09:12:42.001Z</time></trkpt><trkpt lat="40.83393054321359" lon="8.888937107832955"><ele>74.0</ele><time>2026-04-30T09:12:43.001Z</time></trkpt><trkpt lat="40.834034826197914" lon="8.889040156573614"><ele>74.0</ele><time>2026-04-30T09:12:44.001Z</time></trkpt><trkpt lat="40.834141532481546" lon="8.889147968341835"><ele>74.0</ele><time>2026-04-30T09:12:45.001Z</time></trkpt><trkpt lat="40.83425034527846" lon="8.889254051424667"><ele>74.0</ele><time>2026-04-30T09:12:46.001Z</time></trkpt><trkpt lat="40.83435371673422" lon="8.889360942926299"><ele>72.25</ele><time>2026-04-30T09:12:47.001Z</time></trkpt><trkpt lat="40.834453016414116" lon="8.889461076444755"><ele>70.5</ele><time>2026-04-30T09:12:48.001Z</time></trkpt><trkpt lat="40.8345410092836" lon="8.889575212950994"><ele>68.75</ele><time>2026-04-30T09:12:49.001Z</time></trkpt><trkpt lat="40.83461802215762" lon="8.889708972676818"><ele>67.0</ele><time>2026-04-30T09:12:50.001Z</time></trkpt><trkpt lat="40.83468309773963" lon="8.889884565941628"><ele>65.0</ele><time>2026-04-30T09:12:51.001Z</time></trkpt><trkpt lat="40.83472494539722" lon="8.890092346396175"><ele>63.0</ele><time>2026-04-30T09:12:52.001Z</time></trkpt><trkpt lat="40.83476361377291" lon="8.890290909822177"><ele>61.0</ele><time>2026-04-30T09:12:53.001Z</time></trkpt><trkpt lat="40.834810713071974" lon="8.890466055357088"><ele>61.0</ele><time>2026-04-30T09:12:54.001Z</time></trkpt><trkpt lat="40.83485289031406" lon="8.890644342408528"><ele>61.0</ele><time>2026-04-30T09:12:55.001Z</time></trkpt><trkpt lat="40.8348786596139" lon="8.89081962320585"><ele>61.0</ele><time>2026-04-30T09:12:56.001Z</time></trkpt><trkpt lat="40.83488472328899" lon="8.89099736425652"><ele>61.0</ele><time>2026-04-30T09:12:57.001Z</time></trkpt><trkpt lat="40.834866458391815" lon="8.891176999998995"><ele>59.0</ele><time>2026-04-30T09:12:58.001Z</time></trkpt><trkpt lat="40.83481742699133" lon="8.891363073667355"><ele>57.0</ele><time>2026-04-30T09:12:59.001Z</time></trkpt><trkpt lat="40.834746752743456" lon="8.89154695508526"><ele>55.0</ele><time>2026-04-30T09:13:00.001Z</time></trkpt><trkpt lat="40.83467094135112" lon="8.891740188453982"><ele>53.0</ele><time>2026-04-30T09:13:01.001Z</time></trkpt><trkpt lat="40.8345915522006" lon="8.891941965393562"><ele>51.0</ele><time>2026-04-30T09:13:02.001Z</time></trkpt><trkpt lat="40.83450636579393" lon="8.89215069098588"><ele>49.0</ele><time>2026-04-30T09:13:03.001Z</time></trkpt><trkpt lat="40.83441998615572" lon="8.892365412350872"><ele>49.0</ele><time>2026-04-30T09:13:04.001Z</time></trkpt><trkpt lat="40.83433936114375" lon="8.89257591919451"><ele>49.0</ele><time>2026-04-30T09:13:05.001Z</time></trkpt><trkpt lat="40.83425535456421" lon="8.892783837952265"><ele>49.0</ele><time>2026-04-30T09:13:06Z</time></trkpt><trkpt lat="40.83416745475094" lon="8.892995539774448"><ele>49.0</ele><time>2026-04-30T09:13:07Z</time></trkpt><trkpt lat="40.83407861510968" lon="8.893208198866027"><ele>49.0</ele><time>2026-04-30T09:13:08Z</time></trkpt><trkpt lat="40.83398496006596" lon="8.893419621618294"><ele>49.0</ele><time>2026-04-30T09:13:09Z</time></trkpt><trkpt lat="40.833889658167195" lon="8.893639199078336"><ele>49.0</ele><time>2026-04-30T09:13:10Z</time></trkpt><trkpt lat="40.83380099679675" lon="8.893861280275104"><ele>49.0</ele><time>2026-04-30T09:13:11Z</time></trkpt><trkpt lat="40.83371264025036" lon="8.894053428946243"><ele>49.0</ele><time>2026-04-30T09:13:12Z</time></trkpt><trkpt lat="40.83363706209614" lon="8.894265875964276"><ele>47.666666666666664</ele><time>2026-04-30T09:13:13Z</time></trkpt><trkpt lat="40.833586894788525" lon="8.894462208494838"><ele>46.33333333333333</ele><time>2026-04-30T09:13:14Z</time></trkpt><trkpt lat="40.833523318642705" lon="8.894696009143791"><ele>45.0</ele><time>2026-04-30T09:13:15Z</time></trkpt><trkpt lat="40.833533579234675" lon="8.894851429067941"><ele>45.0</ele><time>2026-04-30T09:13:16Z</time></trkpt><trkpt lat="40.833508722772585" lon="8.895043079477711"><ele>45.0</ele><time>2026-04-30T09:13:17Z</time></trkpt><trkpt lat="40.8334756901336" lon="8.89523550675101"><ele>45.0</ele><time>2026-04-30T09:13:18Z</time></trkpt><trkpt lat="40.83344168967873" lon="8.895422724275443"><ele>45.0</ele><time>2026-04-30T09:13:19Z</time></trkpt><trkpt lat="40.83341678438573" lon="8.895604333937165"><ele>44.25</ele><time>2026-04-30T09:13:20Z</time></trkpt><trkpt lat="40.833412306003055" lon="8.895791696041462"><ele>43.5</ele><time>2026-04-30T09:13:21Z</time></trkpt><trkpt lat="40.83342934279373" lon="8.895986839337386"><ele>42.75</ele><time>2026-04-30T09:13:22Z</time></trkpt><trkpt lat="40.8334726670397" lon="8.896188336611507"><ele>42.0</ele><time>2026-04-30T09:13:23Z</time></trkpt><trkpt lat="40.833533520241694" lon="8.896386394816433"><ele>41.666666666666664</ele><time>2026-04-30T09:13:24Z</time></trkpt><trkpt lat="40.83360373830214" lon="8.896581150119566"><ele>41.33333333333333</ele><time>2026-04-30T09:13:25Z</time></trkpt><trkpt lat="40.833672385735355" lon="8.896776234228366"><ele>41.0</ele><time>2026-04-30T09:13:26Z</time></trkpt><trkpt lat="40.83374002215638" lon="8.896969551648407"><ele>41.0</ele><time>2026-04-30T09:13:27Z</time></trkpt><trkpt lat="40.83380510950842" lon="8.897156940366832"><ele>41.0</ele><time>2026-04-30T09:13:28Z</time></trkpt><trkpt lat="40.83386875501717" lon="8.897337963749294"><ele>41.0</ele><time>2026-04-30T09:13:29Z</time></trkpt><trkpt lat="40.83392857951684" lon="8.897514216357674"><ele>40.75</ele><time>2026-04-30T09:13:30Z</time></trkpt><trkpt lat="40.8339834846967" lon="8.8976811981508"><ele>40.5</ele><time>2026-04-30T09:13:31Z</time></trkpt><trkpt lat="40.834038211649634" lon="8.897838225473508"><ele>40.25</ele><time>2026-04-30T09:13:32Z</time></trkpt><trkpt lat="40.834090484589126" lon="8.897986684509775"><ele>40.0</ele><time>2026-04-30T09:13:33Z</time></trkpt><trkpt lat="40.83414277296226" lon="8.898122383532233"><ele>40.0</ele><time>2026-04-30T09:13:34Z</time></trkpt><trkpt lat="40.83419731072488" lon="8.898244545901095"><ele>40.0</ele><time>2026-04-30T09:13:35Z</time></trkpt><trkpt lat="40.83425639906443" lon="8.89836161416383"><ele>40.0</ele><time>2026-04-30T09:13:36Z</time></trkpt><trkpt lat="40.83432602673956" lon="8.898481800384312"><ele>40.0</ele><time>2026-04-30T09:13:37Z</time></trkpt><trkpt lat="40.83440135162707" lon="8.898603279814154"><ele>40.0</ele><time>2026-04-30T09:13:38Z</time></trkpt><trkpt lat="40.83448660951329" lon="8.898724613297059"><ele>40.25</ele><time>2026-04-30T09:13:39Z</time></trkpt><trkpt lat="40.834576044168465" lon="8.898845803402914"><ele>40.5</ele><time>2026-04-30T09:13:40Z</time></trkpt><trkpt lat="40.834666697048995" lon="8.898970917249462"><ele>40.75</ele><time>2026-04-30T09:13:41Z</time></trkpt><trkpt lat="40.83475896460315" lon="8.899096302502038"><ele>41.0</ele><time>2026-04-30T09:13:42Z</time></trkpt><trkpt lat="40.83485455072026" lon="8.899223618606422"><ele>41.0</ele><time>2026-04-30T09:13:43Z</time></trkpt><trkpt lat="40.83495687516064" lon="8.899358050004023"><ele>41.0</ele><time>2026-04-30T09:13:44Z</time></trkpt><trkpt lat="40.83506309286001" lon="8.899495238295659"><ele>41.0</ele><time>2026-04-30T09:13:45Z</time></trkpt><trkpt lat="40.835169711109735" lon="8.899635031861393"><ele>41.0</ele><time>2026-04-30T09:13:46Z</time></trkpt><trkpt lat="40.83527721305194" lon="8.899773082476864"><ele>41.0</ele><time>2026-04-30T09:13:47Z</time></trkpt><trkpt lat="40.83538672757375" lon="8.899915361072422"><ele>41.0</ele><time>2026-04-30T09:13:48Z</time></trkpt><trkpt lat="40.83549990562308" lon="8.900064845327028"><ele>41.0</ele><time>2026-04-30T09:13:49Z</time></trkpt><trkpt lat="40.835621024095964" lon="8.900219934902703"><ele>40.0</ele><time>2026-04-30T09:13:50Z</time></trkpt><trkpt lat="40.83574650367704" lon="8.900378579194962"><ele>39.0</ele><time>2026-04-30T09:13:51Z</time></trkpt><trkpt lat="40.83585976349844" lon="8.900559658883825"><ele>38.0</ele><time>2026-04-30T09:13:52Z</time></trkpt><trkpt lat="40.835994137435875" lon="8.90071384717527"><ele>38.0</ele><time>2026-04-30T09:13:53Z</time></trkpt><trkpt lat="40.836123021125644" lon="8.900886504081459"><ele>38.0</ele><time>2026-04-30T09:13:54Z</time></trkpt><trkpt lat="40.83625421195472" lon="8.901063126839324"><ele>38.0</ele><time>2026-04-30T09:13:55Z</time></trkpt><trkpt lat="40.83638600586044" lon="8.901242213332942"><ele>36.33333333333333</ele><time>2026-04-30T09:13:56Z</time></trkpt><trkpt lat="40.83651827434704" lon="8.901424338895346"><ele>34.666666666666664</ele><time>2026-04-30T09:13:57Z</time></trkpt><trkpt lat="40.836650673413835" lon="8.901605036454434"><ele>33.0</ele><time>2026-04-30T09:13:58Z</time></trkpt><trkpt lat="40.83678272164042" lon="8.901781989134"><ele>33.333333333333336</ele><time>2026-04-30T09:13:59Z</time></trkpt><trkpt lat="40.83691380203645" lon="8.901954638650576"><ele>33.66666666666667</ele><time>2026-04-30T09:14:00.001Z</time></trkpt><trkpt lat="40.83704415287768" lon="8.902122179462543"><ele>34.0</ele><time>2026-04-30T09:14:01.001Z</time></trkpt><trkpt lat="40.83717504039751" lon="8.902291283971895"><ele>34.0</ele><time>2026-04-30T09:14:02.001Z</time></trkpt><trkpt lat="40.83730381637279" lon="8.902460538811917"><ele>34.0</ele><time>2026-04-30T09:14:03.001Z</time></trkpt><trkpt lat="40.83742904650894" lon="8.90262902720556"><ele>34.0</ele><time>2026-04-30T09:14:04.001Z</time></trkpt><trkpt lat="40.83755335408919" lon="8.902792298024814"><ele>34.333333333333336</ele><time>2026-04-30T09:14:05.001Z</time></trkpt><trkpt lat="40.83768307175061" lon="8.902961196645935"><ele>34.666666666666664</ele><time>2026-04-30T09:14:06.001Z</time></trkpt><trkpt lat="40.8378078920378" lon="8.903131585206618"><ele>35.0</ele><time>2026-04-30T09:14:07.001Z</time></trkpt><trkpt lat="40.837928723111055" lon="8.90329536336808"><ele>35.33333333333333</ele><time>2026-04-30T09:14:08.001Z</time></trkpt><trkpt lat="40.83804607377289" lon="8.903460807957208"><ele>35.666666666666664</ele><time>2026-04-30T09:14:09.001Z</time></trkpt><trkpt lat="40.83815821674772" lon="8.903634582724402"><ele>36.0</ele><time>2026-04-30T09:14:10.001Z</time></trkpt><trkpt lat="40.83826292084042" lon="8.903817939617344"><ele>36.0</ele><time>2026-04-30T09:14:11.001Z</time></trkpt><trkpt lat="40.838355109820874" lon="8.90401017205524"><ele>36.0</ele><time>2026-04-30T09:14:12.001Z</time></trkpt><trkpt lat="40.838438650923344" lon="8.904219858064348"><ele>36.0</ele><time>2026-04-30T09:14:13.001Z</time></trkpt><trkpt lat="40.83851591072477" lon="8.90444693323356"><ele>36.0</ele><time>2026-04-30T09:14:14.001Z</time></trkpt><trkpt lat="40.83858364463522" lon="8.904682663198349"><ele>36.0</ele><time>2026-04-30T09:14:15.001Z</time></trkpt><trkpt lat="40.83864116062491" lon="8.904924940768856"><ele>36.0</ele><time>2026-04-30T09:14:16.001Z</time></trkpt><trkpt lat="40.838695399408536" lon="8.905159968625586"><ele>36.666666666666664</ele><time>2026-04-30T09:14:17.001Z</time></trkpt><trkpt lat="40.83874965701965" lon="8.905383695466119"><ele>37.33333333333333</ele><time>2026-04-30T09:14:18.001Z</time></trkpt><trkpt lat="40.8388016621813" lon="8.905605172646533"><ele>38.0</ele><time>2026-04-30T09:14:19.001Z</time></trkpt><trkpt lat="40.83885215618774" lon="8.905819973537913"><ele>38.0</ele><time>2026-04-30T09:14:20.001Z</time></trkpt><trkpt lat="40.83890403995989" lon="8.906028074297025"><ele>38.0</ele><time>2026-04-30T09:14:21.001Z</time></trkpt><trkpt lat="40.83895493244674" lon="8.906238187739358"><ele>38.0</ele><time>2026-04-30T09:14:22.001Z</time></trkpt><trkpt lat="40.83900533845305" lon="8.906447913286852"><ele>38.0</ele><time>2026-04-30T09:14:23.001Z</time></trkpt><trkpt lat="40.83905563744817" lon="8.906656857248281"><ele>38.0</ele><time>2026-04-30T09:14:24.001Z</time></trkpt><trkpt lat="40.8391051943357" lon="8.906867445445302"><ele>38.0</ele><time>2026-04-30T09:14:25.001Z</time></trkpt><trkpt lat="40.83915551311633" lon="8.907076350930389"><ele>38.33333333333333</ele><time>2026-04-30T09:14:26.001Z</time></trkpt><trkpt lat="40.839206299221246" lon="8.907285632553606"><ele>38.666666666666664</ele><time>2026-04-30T09:14:27.001Z</time></trkpt><trkpt lat="40.839258041766506" lon="8.90749692035851"><ele>39.0</ele><time>2026-04-30T09:14:28.001Z</time></trkpt><trkpt lat="40.83931168750037" lon="8.907712479299864"><ele>38.0</ele><time>2026-04-30T09:14:29.001Z</time></trkpt><trkpt lat="40.83936262766231" lon="8.907922877438308"><ele>37.0</ele><time>2026-04-30T09:14:30.001Z</time></trkpt><trkpt lat="40.83941294701685" lon="8.908137761474046"><ele>36.0</ele><time>2026-04-30T09:14:31.001Z</time></trkpt><trkpt lat="40.83946665636875" lon="8.908356988712075"><ele>36.666666666666664</ele><time>2026-04-30T09:14:32.001Z</time></trkpt><trkpt lat="40.83952025107466" lon="8.90857669626826"><ele>37.33333333333333</ele><time>2026-04-30T09:14:33.001Z</time></trkpt><trkpt lat="40.839572854741824" lon="8.908799727287326"><ele>38.0</ele><time>2026-04-30T09:14:34.001Z</time></trkpt><trkpt lat="40.83962985205592" lon="8.909017971806254"><ele>38.666666666666664</ele><time>2026-04-30T09:14:35.001Z</time></trkpt><trkpt lat="40.8396696807374" lon="8.90924681479979"><ele>39.333333333333336</ele><time>2026-04-30T09:14:36.001Z</time></trkpt><trkpt lat="40.83972881246916" lon="8.909471973880144"><ele>40.0</ele><time>2026-04-30T09:14:37.001Z</time></trkpt><trkpt lat="40.83980747348961" lon="8.909699966103531"><ele>40.0</ele><time>2026-04-30T09:14:38.001Z</time></trkpt><trkpt lat="40.83987035137487" lon="8.909951677148996"><ele>40.0</ele><time>2026-04-30T09:14:39.001Z</time></trkpt><trkpt lat="40.839957520057894" lon="8.910205424046504"><ele>40.0</ele><time>2026-04-30T09:14:40.001Z</time></trkpt><trkpt lat="40.8400645995607" lon="8.910451568410524"><ele>40.333333333333336</ele><time>2026-04-30T09:14:41.001Z</time></trkpt><trkpt lat="40.84015773314211" lon="8.910702094256532"><ele>40.666666666666664</ele><time>2026-04-30T09:14:42.001Z</time></trkpt><trkpt lat="40.84023360359655" lon="8.910959372387095"><ele>41.0</ele><time>2026-04-30T09:14:43.001Z</time></trkpt><trkpt lat="40.84032279718141" lon="8.911202415084603"><ele>41.0</ele><time>2026-04-30T09:14:44.001Z</time></trkpt><trkpt lat="40.840428156549464" lon="8.911446107223691"><ele>41.0</ele><time>2026-04-30T09:14:45.001Z</time></trkpt><trkpt lat="40.84052475886494" lon="8.911713886480168"><ele>41.0</ele><time>2026-04-30T09:14:46.001Z</time></trkpt><trkpt lat="40.84062707509247" lon="8.911985189714073"><ele>43.5</ele><time>2026-04-30T09:14:47.001Z</time></trkpt><trkpt lat="40.840715165490295" lon="8.912272459163557"><ele>46.0</ele><time>2026-04-30T09:14:48.001Z</time></trkpt><trkpt lat="40.84081416591533" lon="8.912544028361417"><ele>45.66666666666667</ele><time>2026-04-30T09:14:49.001Z</time></trkpt><trkpt lat="40.84092141701902" lon="8.912789058181632"><ele>45.333333333333336</ele><time>2026-04-30T09:14:50.001Z</time></trkpt><trkpt lat="40.84099744432204" lon="8.91303824764157"><ele>45.0</ele><time>2026-04-30T09:14:51.001Z</time></trkpt><trkpt lat="40.841068190267286" lon="8.91326125372545"><ele>49.5</ele><time>2026-04-30T09:14:52.001Z</time></trkpt><trkpt lat="40.84114547995122" lon="8.91347989508487"><ele>54.0</ele><time>2026-04-30T09:14:53.001Z</time></trkpt><trkpt lat="40.84130788699668" lon="8.913867054155922"><ele>54.0</ele><time>2026-04-30T09:14:54.001Z</time></trkpt><trkpt lat="40.84139261734892" lon="8.914108485740389"><ele>54.0</ele><time>2026-04-30T09:14:55.001Z</time></trkpt><trkpt lat="40.841472609423306" lon="8.914333864560698"><ele>54.0</ele><time>2026-04-30T09:14:56.001Z</time></trkpt><trkpt lat="40.84154552074248" lon="8.914551655473264"><ele>55.33333333333333</ele><time>2026-04-30T09:14:57.001Z</time></trkpt><trkpt lat="40.84161845825367" lon="8.914768483369778"><ele>56.666666666666664</ele><time>2026-04-30T09:14:58.001Z</time></trkpt><trkpt lat="40.84168592873162" lon="8.91498841688293"><ele>58.0</ele><time>2026-04-30T09:14:59.001Z</time></trkpt><trkpt lat="40.841751619952966" lon="8.915220534154052"><ele>57.666666666666664</ele><time>2026-04-30T09:15:00.001Z</time></trkpt><trkpt lat="40.841812776564794" lon="8.915433257337188"><ele>57.33333333333333</ele><time>2026-04-30T09:15:01.001Z</time></trkpt><trkpt lat="40.84186838019807" lon="8.915627673464956"><ele>57.0</ele><time>2026-04-30T09:15:02.001Z</time></trkpt><trkpt lat="40.84192121496542" lon="8.915811299445322"><ele>56.75</ele><time>2026-04-30T09:15:03.001Z</time></trkpt><trkpt lat="40.84197241409625" lon="8.915989318623568"><ele>56.5</ele><time>2026-04-30T09:15:04.001Z</time></trkpt><trkpt lat="40.84199545192266" lon="8.916163394415857"><ele>56.25</ele><time>2026-04-30T09:15:05.002Z</time></trkpt><trkpt lat="40.84202005599441" lon="8.916335865684305"><ele>56.0</ele><time>2026-04-30T09:15:06.002Z</time></trkpt><trkpt lat="40.84201984300812" lon="8.916509523556558"><ele>56.0</ele><time>2026-04-30T09:15:07.002Z</time></trkpt><trkpt lat="40.842005115642316" lon="8.9166949131897"><ele>56.0</ele><time>2026-04-30T09:15:08.002Z</time></trkpt><trkpt lat="40.8419736102899" lon="8.91688982606367"><ele>56.0</ele><time>2026-04-30T09:15:09.002Z</time></trkpt><trkpt lat="40.84192909513192" lon="8.917087341648902"><ele>56.0</ele><time>2026-04-30T09:15:10.002Z</time></trkpt><trkpt lat="40.84187939116011" lon="8.917289448190916"><ele>56.0</ele><time>2026-04-30T09:15:11.002Z</time></trkpt><trkpt lat="40.84182830882763" lon="8.91749710941406"><ele>56.0</ele><time>2026-04-30T09:15:12Z</time></trkpt><trkpt lat="40.84177406837167" lon="8.917717717077943"><ele>56.0</ele><time>2026-04-30T09:15:13Z</time></trkpt><trkpt lat="40.841718459296615" lon="8.917942840840647"><ele>55.0</ele><time>2026-04-30T09:15:14Z</time></trkpt><trkpt lat="40.84166184422586" lon="8.91817193718499"><ele>54.0</ele><time>2026-04-30T09:15:15Z</time></trkpt><trkpt lat="40.84160858378496" lon="8.91838745884539"><ele>53.0</ele><time>2026-04-30T09:15:16Z</time></trkpt><trkpt lat="40.84157578104737" lon="8.918577539358001"><ele>52.25</ele><time>2026-04-30T09:15:17Z</time></trkpt><trkpt lat="40.841526203234444" lon="8.918762783875914"><ele>51.5</ele><time>2026-04-30T09:15:18Z</time></trkpt><trkpt lat="40.841483368896455" lon="8.918936807961412"><ele>50.75</ele><time>2026-04-30T09:15:19Z</time></trkpt><trkpt lat="40.841446880109515" lon="8.919110721292794"><ele>50.0</ele><time>2026-04-30T09:15:20Z</time></trkpt><trkpt lat="40.84141869511028" lon="8.919279142648799"><ele>49.5</ele><time>2026-04-30T09:15:21Z</time></trkpt><trkpt lat="40.8414205757639" lon="8.919453889247555"><ele>49.0</ele><time>2026-04-30T09:15:22Z</time></trkpt><trkpt lat="40.84145774386856" lon="8.919619023908067"><ele>48.5</ele><time>2026-04-30T09:15:23Z</time></trkpt><trkpt lat="40.84152536882191" lon="8.919775396638922"><ele>48.0</ele><time>2026-04-30T09:15:24Z</time></trkpt><trkpt lat="40.84161814883682" lon="8.919927626392516"><ele>46.666666666666664</ele><time>2026-04-30T09:15:25Z</time></trkpt><trkpt lat="40.84172202185937" lon="8.920086276104929"><ele>45.33333333333333</ele><time>2026-04-30T09:15:26Z</time></trkpt><trkpt lat="40.84183989055675" lon="8.920275562168772"><ele>44.0</ele><time>2026-04-30T09:15:27Z</time></trkpt><trkpt lat="40.84195390655981" lon="8.92049317288679"><ele>44.0</ele><time>2026-04-30T09:15:28Z</time></trkpt><trkpt lat="40.84208225625403" lon="8.920704405743908"><ele>44.0</ele><time>2026-04-30T09:15:29Z</time></trkpt><trkpt lat="40.84221747899817" lon="8.920926880411265"><ele>44.0</ele><time>2026-04-30T09:15:30Z</time></trkpt><trkpt lat="40.84235330480762" lon="8.92114936454681"><ele>44.0</ele><time>2026-04-30T09:15:31Z</time></trkpt><trkpt lat="40.842485023267976" lon="8.921365120865012"><ele>44.0</ele><time>2026-04-30T09:15:32Z</time></trkpt><trkpt lat="40.84261065838188" lon="8.921570912572856"><ele>44.0</ele><time>2026-04-30T09:15:33Z</time></trkpt><trkpt lat="40.84273998644319" lon="8.921754323047098"><ele>43.33333333333333</ele><time>2026-04-30T09:15:34Z</time></trkpt><trkpt lat="40.84284642308172" lon="8.921939808191405"><ele>42.666666666666664</ele><time>2026-04-30T09:15:35Z</time></trkpt><trkpt lat="40.84294667661991" lon="8.922113478089582"><ele>42.0</ele><time>2026-04-30T09:15:36Z</time></trkpt><trkpt lat="40.84305370971684" lon="8.92228416627684"><ele>42.0</ele><time>2026-04-30T09:15:37Z</time></trkpt><trkpt lat="40.84315996642496" lon="8.922453378120958"><ele>42.0</ele><time>2026-04-30T09:15:38Z</time></trkpt><trkpt lat="40.84326371113638" lon="8.922618345174861"><ele>42.0</ele><time>2026-04-30T09:15:39Z</time></trkpt><trkpt lat="40.84336923747791" lon="8.922784205575816"><ele>42.666666666666664</ele><time>2026-04-30T09:15:40Z</time></trkpt><trkpt lat="40.84345517297197" lon="8.922959022924777"><ele>43.33333333333333</ele><time>2026-04-30T09:15:41Z</time></trkpt><trkpt lat="40.84355120910023" lon="8.923116980649553"><ele>44.0</ele><time>2026-04-30T09:15:42Z</time></trkpt><trkpt lat="40.84365612635351" lon="8.923258529947333"><ele>43.33333333333333</ele><time>2026-04-30T09:15:43Z</time></trkpt><trkpt lat="40.843755549609796" lon="8.923420334362449"><ele>42.666666666666664</ele><time>2026-04-30T09:15:44Z</time></trkpt><trkpt lat="40.843851628547135" lon="8.923583433362994"><ele>42.0</ele><time>2026-04-30T09:15:45Z</time></trkpt><trkpt lat="40.8439493558255" lon="8.923744627791852"><ele>42.0</ele><time>2026-04-30T09:15:46Z</time></trkpt><trkpt lat="40.84404175575414" lon="8.923900830440768"><ele>42.0</ele><time>2026-04-30T09:15:47Z</time></trkpt><trkpt lat="40.844136115300515" lon="8.924057519431193"><ele>42.0</ele><time>2026-04-30T09:15:48Z</time></trkpt><trkpt lat="40.844226792496585" lon="8.9242101059162"><ele>42.0</ele><time>2026-04-30T09:15:49Z</time></trkpt><trkpt lat="40.844319470946274" lon="8.924363254573676"><ele>41.5</ele><time>2026-04-30T09:15:50Z</time></trkpt><trkpt lat="40.8444119934001" lon="8.924515750157122"><ele>41.0</ele><time>2026-04-30T09:15:51Z</time></trkpt><trkpt lat="40.84450416119867" lon="8.92466558554604"><ele>40.5</ele><time>2026-04-30T09:15:52Z</time></trkpt><trkpt lat="40.84459315025047" lon="8.924815856203447"><ele>40.0</ele><time>2026-04-30T09:15:53Z</time></trkpt><trkpt lat="40.844679274977125" lon="8.924961184103537"><ele>40.5</ele><time>2026-04-30T09:15:54Z</time></trkpt><trkpt lat="40.84476699739891" lon="8.92509929179295"><ele>41.0</ele><time>2026-04-30T09:15:55Z</time></trkpt><trkpt lat="40.84485871115494" lon="8.925249845617069"><ele>41.5</ele><time>2026-04-30T09:15:56Z</time></trkpt><trkpt lat="40.844956305614076" lon="8.925403403982783"><ele>42.0</ele><time>2026-04-30T09:15:57.001Z</time></trkpt><trkpt lat="40.84504725152525" lon="8.925577191842692"><ele>42.0</ele><time>2026-04-30T09:15:58.001Z</time></trkpt><trkpt lat="40.84516089725741" lon="8.925731178391516"><ele>42.0</ele><time>2026-04-30T09:15:59.001Z</time></trkpt><trkpt lat="40.84527153067896" lon="8.9259131399988"><ele>42.0</ele><time>2026-04-30T09:16:00.001Z</time></trkpt><trkpt lat="40.84537344552784" lon="8.926113211604441"><ele>42.0</ele><time>2026-04-30T09:16:01.001Z</time></trkpt><trkpt lat="40.845504772540025" lon="8.926295213517905"><ele>42.0</ele><time>2026-04-30T09:16:02.001Z</time></trkpt><trkpt lat="40.845628740051346" lon="8.926501220518073"><ele>42.0</ele><time>2026-04-30T09:16:03.001Z</time></trkpt><trkpt lat="40.845756360450096" lon="8.926712062926077"><ele>41.666666666666664</ele><time>2026-04-30T09:16:04.001Z</time></trkpt><trkpt lat="40.84588656542102" lon="8.926928622676426"><ele>41.33333333333333</ele><time>2026-04-30T09:16:05.001Z</time></trkpt><trkpt lat="40.84602016374566" lon="8.927148553679457"><ele>41.0</ele><time>2026-04-30T09:16:06.001Z</time></trkpt><trkpt lat="40.84615466536293" lon="8.9273672142783"><ele>40.0</ele><time>2026-04-30T09:16:07.001Z</time></trkpt><trkpt lat="40.846291772991194" lon="8.927587314724342"><ele>39.0</ele><time>2026-04-30T09:16:08.001Z</time></trkpt><trkpt lat="40.846422167731085" lon="8.92780283751539"><ele>38.0</ele><time>2026-04-30T09:16:09.001Z</time></trkpt><trkpt lat="40.846548560536675" lon="8.928013245712554"><ele>38.0</ele><time>2026-04-30T09:16:10.001Z</time></trkpt><trkpt lat="40.84667345218973" lon="8.928222089149827"><ele>38.0</ele><time>2026-04-30T09:16:11.001Z</time></trkpt><trkpt lat="40.84680126870792" lon="8.928431944148786"><ele>38.0</ele><time>2026-04-30T09:16:12.001Z</time></trkpt><trkpt lat="40.84692557580562" lon="8.928633761445063"><ele>37.666666666666664</ele><time>2026-04-30T09:16:13.001Z</time></trkpt><trkpt lat="40.84705641216041" lon="8.928841678218443"><ele>37.333333333333336</ele><time>2026-04-30T09:16:14.001Z</time></trkpt><trkpt lat="40.847185416044205" lon="8.929051419647996"><ele>37.0</ele><time>2026-04-30T09:16:15.001Z</time></trkpt><trkpt lat="40.8473122110725" lon="8.929260450042149"><ele>37.66666666666667</ele><time>2026-04-30T09:16:16.001Z</time></trkpt><trkpt lat="40.847438160099564" lon="8.929471574071814"><ele>38.333333333333336</ele><time>2026-04-30T09:16:17.001Z</time></trkpt><trkpt lat="40.84756493260154" lon="8.92968421485639"><ele>39.0</ele><time>2026-04-30T09:16:18.001Z</time></trkpt><trkpt lat="40.847692258487875" lon="8.929893879379891"><ele>39.666666666666664</ele><time>2026-04-30T09:16:19.001Z</time></trkpt><trkpt lat="40.84782145006283" lon="8.930103775287545"><ele>40.33333333333333</ele><time>2026-04-30T09:16:20.001Z</time></trkpt><trkpt lat="40.84795204171878" lon="8.930315193136426"><ele>41.0</ele><time>2026-04-30T09:16:21.001Z</time></trkpt><trkpt lat="40.848079945745525" lon="8.930526509062032"><ele>41.0</ele><time>2026-04-30T09:16:22.001Z</time></trkpt><trkpt lat="40.848209553070525" lon="8.930738489990564"><ele>41.0</ele><time>2026-04-30T09:16:23.001Z</time></trkpt><trkpt lat="40.84832926279465" lon="8.930941868978852"><ele>41.0</ele><time>2026-04-30T09:16:24.001Z</time></trkpt><trkpt lat="40.84845774059238" lon="8.931144318193953"><ele>40.666666666666664</ele><time>2026-04-30T09:16:25.001Z</time></trkpt><trkpt lat="40.84857830411103" lon="8.931342474320344"><ele>40.333333333333336</ele><time>2026-04-30T09:16:26.001Z</time></trkpt><trkpt lat="40.84869665721054" lon="8.931539063721091"><ele>40.0</ele><time>2026-04-30T09:16:27.001Z</time></trkpt><trkpt lat="40.84881144384323" lon="8.931732423051656"><ele>40.0</ele><time>2026-04-30T09:16:28.001Z</time></trkpt><trkpt lat="40.84892573018463" lon="8.931922158095858"><ele>40.0</ele><time>2026-04-30T09:16:29.001Z</time></trkpt><trkpt lat="40.84904079694719" lon="8.932117105063249"><ele>40.0</ele><time>2026-04-30T09:16:30.001Z</time></trkpt><trkpt lat="40.84916036594241" lon="8.932311884192098"><ele>40.0</ele><time>2026-04-30T09:16:31.001Z</time></trkpt><trkpt lat="40.849285428165935" lon="8.932510889714452"><ele>40.0</ele><time>2026-04-30T09:16:32.001Z</time></trkpt><trkpt lat="40.84941423212217" lon="8.932716234804639"><ele>40.0</ele><time>2026-04-30T09:16:33.001Z</time></trkpt><trkpt lat="40.84954014282936" lon="8.9329245600163"><ele>40.333333333333336</ele><time>2026-04-30T09:16:34.001Z</time></trkpt><trkpt lat="40.849667415242735" lon="8.933136508869095"><ele>40.666666666666664</ele><time>2026-04-30T09:16:35.001Z</time></trkpt><trkpt lat="40.84979532069221" lon="8.933347455667217"><ele>41.0</ele><time>2026-04-30T09:16:36.001Z</time></trkpt><trkpt lat="40.84992363427571" lon="8.933559957062206"><ele>41.0</ele><time>2026-04-30T09:16:37.001Z</time></trkpt><trkpt lat="40.850053936292895" lon="8.933772078263466"><ele>41.0</ele><time>2026-04-30T09:16:38.001Z</time></trkpt><trkpt lat="40.85018282909202" lon="8.933981979251893"><ele>41.0</ele><time>2026-04-30T09:16:39.001Z</time></trkpt><trkpt lat="40.850314534524074" lon="8.934192230063305"><ele>40.33333333333333</ele><time>2026-04-30T09:16:40.001Z</time></trkpt><trkpt lat="40.85044279291882" lon="8.934401520513612"><ele>39.666666666666664</ele><time>2026-04-30T09:16:41.001Z</time></trkpt><trkpt lat="40.8505675112425" lon="8.934606100595492"><ele>39.0</ele><time>2026-04-30T09:16:42.001Z</time></trkpt><trkpt lat="40.850692346173766" lon="8.934812410583168"><ele>39.0</ele><time>2026-04-30T09:16:43.001Z</time></trkpt><trkpt lat="40.850813019821786" lon="8.935013492946528"><ele>39.0</ele><time>2026-04-30T09:16:44.001Z</time></trkpt><trkpt lat="40.85093454845165" lon="8.935213906058872"><ele>39.0</ele><time>2026-04-30T09:16:45.001Z</time></trkpt><trkpt lat="40.8510748427044" lon="8.935450896737736"><ele>39.666666666666664</ele><time>2026-04-30T09:16:46.001Z</time></trkpt><trkpt lat="40.85117646045157" lon="8.935613097610752"><ele>40.33333333333333</ele><time>2026-04-30T09:16:47.001Z</time></trkpt><trkpt lat="40.85129573272427" lon="8.93581006494767"><ele>41.0</ele><time>2026-04-30T09:16:48.001Z</time></trkpt><trkpt lat="40.85141252976341" lon="8.936000883000027"><ele>41.0</ele><time>2026-04-30T09:16:49.001Z</time></trkpt><trkpt lat="40.85153079428993" lon="8.936192386467143"><ele>41.0</ele><time>2026-04-30T09:16:50.001Z</time></trkpt><trkpt lat="40.85164990838899" lon="8.936386317145958"><ele>41.0</ele><time>2026-04-30T09:16:51.001Z</time></trkpt><trkpt lat="40.8517664358062" lon="8.936576941576677"><ele>41.666666666666664</ele><time>2026-04-30T09:16:52.001Z</time></trkpt><trkpt lat="40.85188487691833" lon="8.936770206944884"><ele>42.333333333333336</ele><time>2026-04-30T09:16:53.001Z</time></trkpt><trkpt lat="40.85199582131086" lon="8.936959272472327"><ele>43.0</ele><time>2026-04-30T09:16:54.001Z</time></trkpt><trkpt lat="40.85210862988192" lon="8.937147693998444"><ele>43.0</ele><time>2026-04-30T09:16:55.001Z</time></trkpt><trkpt lat="40.85222336218303" lon="8.937334415952554"><ele>43.0</ele><time>2026-04-30T09:16:56.001Z</time></trkpt><trkpt lat="40.85233642974292" lon="8.93751350491155"><ele>43.0</ele><time>2026-04-30T09:16:57.001Z</time></trkpt><trkpt lat="40.852448820165016" lon="8.937695355020379"><ele>43.0</ele><time>2026-04-30T09:16:58.001Z</time></trkpt><trkpt lat="40.852565780771336" lon="8.937884415116992"><ele>43.0</ele><time>2026-04-30T09:16:59.001Z</time></trkpt><trkpt lat="40.85267168186595" lon="8.938065504119566"><ele>43.0</ele><time>2026-04-30T09:17:00.001Z</time></trkpt><trkpt lat="40.852778653259996" lon="8.93824098989163"><ele>43.0</ele><time>2026-04-30T09:17:01.001Z</time></trkpt><trkpt lat="40.8528876139662" lon="8.938409283156465"><ele>43.0</ele><time>2026-04-30T09:17:02.002Z</time></trkpt><trkpt lat="40.8529847642367" lon="8.938571748232771"><ele>43.0</ele><time>2026-04-30T09:17:03.002Z</time></trkpt><trkpt lat="40.853078790614695" lon="8.938727828414256"><ele>43.0</ele><time>2026-04-30T09:17:04.002Z</time></trkpt><trkpt lat="40.8531664168953" lon="8.93889020600299"><ele>43.0</ele><time>2026-04-30T09:17:05.002Z</time></trkpt><trkpt lat="40.8532428032794" lon="8.93906002187174"><ele>43.0</ele><time>2026-04-30T09:17:06.002Z</time></trkpt><trkpt lat="40.853310378005354" lon="8.939248437094392"><ele>42.75</ele><time>2026-04-30T09:17:07.002Z</time></trkpt><trkpt lat="40.85333332127566" lon="8.939435232288837"><ele>42.5</ele><time>2026-04-30T09:17:08.002Z</time></trkpt><trkpt lat="40.853370838079435" lon="8.93962031613492"><ele>42.25</ele><time>2026-04-30T09:17:09.002Z</time></trkpt><trkpt lat="40.853407074942055" lon="8.939791573025966"><ele>42.0</ele><time>2026-04-30T09:17:10.002Z</time></trkpt><trkpt lat="40.853454446630984" lon="8.939949331769464"><ele>41.75</ele><time>2026-04-30T09:17:11.002Z</time></trkpt><trkpt lat="40.85349732541168" lon="8.940106512366322"><ele>41.5</ele><time>2026-04-30T09:17:12.002Z</time></trkpt><trkpt lat="40.853559614705105" lon="8.9402446541726"><ele>41.25</ele><time>2026-04-30T09:17:13.002Z</time></trkpt><trkpt lat="40.85364525766785" lon="8.940348083802036"><ele>41.0</ele><time>2026-04-30T09:17:14.002Z</time></trkpt><trkpt lat="40.853760483589895" lon="8.940412946820341"><ele>41.0</ele><time>2026-04-30T09:17:15.002Z</time></trkpt><trkpt lat="40.85388292763413" lon="8.94044943987212"><ele>41.0</ele><time>2026-04-30T09:17:16.002Z</time></trkpt><trkpt lat="40.85401969427897" lon="8.940460224785042"><ele>41.0</ele><time>2026-04-30T09:17:17.002Z</time></trkpt><trkpt lat="40.854163471856275" lon="8.94048005272611"><ele>41.0</ele><time>2026-04-30T09:17:18.001Z</time></trkpt><trkpt lat="40.85430224476493" lon="8.940511028412054"><ele>42.0</ele><time>2026-04-30T09:17:19.001Z</time></trkpt><trkpt lat="40.85444426862832" lon="8.940540173307967"><ele>43.0</ele><time>2026-04-30T09:17:20.001Z</time></trkpt><trkpt lat="40.854589729554334" lon="8.940575437907137"><ele>44.0</ele><time>2026-04-30T09:17:21.001Z</time></trkpt><trkpt lat="40.854732557736675" lon="8.940602187075402"><ele>45.0</ele><time>2026-04-30T09:17:22.001Z</time></trkpt><trkpt lat="40.854872637176214" lon="8.940629015420082"><ele>45.0</ele><time>2026-04-30T09:17:23.001Z</time></trkpt><trkpt lat="40.854998039306466" lon="8.940674100817144"><ele>45.0</ele><time>2026-04-30T09:17:24.001Z</time></trkpt><trkpt lat="40.85512886457826" lon="8.940745561441814"><ele>45.0</ele><time>2026-04-30T09:17:25.001Z</time></trkpt><trkpt lat="40.85524936715059" lon="8.940836379972314"><ele>45.0</ele><time>2026-04-30T09:17:26.001Z</time></trkpt><trkpt lat="40.85537263615089" lon="8.940958920111667"><ele>46.33333333333333</ele><time>2026-04-30T09:17:27.001Z</time></trkpt><trkpt lat="40.855492599505745" lon="8.94108387024185"><ele>47.666666666666664</ele><time>2026-04-30T09:17:28.001Z</time></trkpt><trkpt lat="40.85561301182897" lon="8.941223426189556"><ele>49.0</ele><time>2026-04-30T09:17:29.001Z</time></trkpt><trkpt lat="40.85573417681785" lon="8.941366932159921"><ele>49.0</ele><time>2026-04-30T09:17:30.001Z</time></trkpt><trkpt lat="40.85587244993778" lon="8.941508739304298"><ele>49.0</ele><time>2026-04-30T09:17:31.001Z</time></trkpt><trkpt lat="40.85600492179031" lon="8.941659408378554"><ele>49.0</ele><time>2026-04-30T09:17:32.001Z</time></trkpt><trkpt lat="40.85614299225179" lon="8.94181355168768"><ele>48.666666666666664</ele><time>2026-04-30T09:17:33.001Z</time></trkpt><trkpt lat="40.85628464324266" lon="8.941972910266362"><ele>48.33333333333333</ele><time>2026-04-30T09:17:34.001Z</time></trkpt><trkpt lat="40.856428469670234" lon="8.942132863179134"><ele>48.0</ele><time>2026-04-30T09:17:35.001Z</time></trkpt><trkpt lat="40.856576505451514" lon="8.942297006184987"><ele>48.0</ele><time>2026-04-30T09:17:36.001Z</time></trkpt><trkpt lat="40.85673187239252" lon="8.942467279111794"><ele>48.0</ele><time>2026-04-30T09:17:37.001Z</time></trkpt><trkpt lat="40.85688349353759" lon="8.942660973912078"><ele>48.0</ele><time>2026-04-30T09:17:38.001Z</time></trkpt><trkpt lat="40.85704659462219" lon="8.942843332253874"><ele>50.0</ele><time>2026-04-30T09:17:39.001Z</time></trkpt><trkpt lat="40.85721235037707" lon="8.943028650674488"><ele>52.0</ele><time>2026-04-30T09:17:40.001Z</time></trkpt><trkpt lat="40.85737543316381" lon="8.943209476728605"><ele>54.0</ele><time>2026-04-30T09:17:41.001Z</time></trkpt><trkpt lat="40.85754039201307" lon="8.943392262207245"><ele>53.0</ele><time>2026-04-30T09:17:42.001Z</time></trkpt><trkpt lat="40.857706886138146" lon="8.943577031211946"><ele>52.0</ele><time>2026-04-30T09:17:43.001Z</time></trkpt><trkpt lat="40.85787077543843" lon="8.943761077778138"><ele>51.0</ele><time>2026-04-30T09:17:44.001Z</time></trkpt><trkpt lat="40.85804630544947" lon="8.943957594363132"><ele>51.0</ele><time>2026-04-30T09:17:45.001Z</time></trkpt><trkpt lat="40.8582143128322" lon="8.944143845610776"><ele>51.0</ele><time>2026-04-30T09:17:46.001Z</time></trkpt><trkpt lat="40.85836835021097" lon="8.944315147522413"><ele>51.0</ele><time>2026-04-30T09:17:47.001Z</time></trkpt><trkpt lat="40.85851475346555" lon="8.944478234982633"><ele>51.66666666666667</ele><time>2026-04-30T09:17:48.001Z</time></trkpt><trkpt lat="40.858652549830516" lon="8.944632201064223"><ele>52.333333333333336</ele><time>2026-04-30T09:17:49.001Z</time></trkpt><trkpt lat="40.85878251427521" lon="8.944774840898711"><ele>53.0</ele><time>2026-04-30T09:17:50.001Z</time></trkpt><trkpt lat="40.858903074314" lon="8.944918037053128"><ele>54.333333333333336</ele><time>2026-04-30T09:17:51.001Z</time></trkpt><trkpt lat="40.85901179995792" lon="8.945067925002919"><ele>55.66666666666667</ele><time>2026-04-30T09:17:52.001Z</time></trkpt><trkpt lat="40.859118836180116" lon="8.94523460355902"><ele>57.0</ele><time>2026-04-30T09:17:53.001Z</time></trkpt><trkpt lat="40.85918984071083" lon="8.945441037355327"><ele>57.0</ele><time>2026-04-30T09:17:54.001Z</time></trkpt><trkpt lat="40.85926729866492" lon="8.945650083759638"><ele>57.0</ele><time>2026-04-30T09:17:55.001Z</time></trkpt><trkpt lat="40.85934475990487" lon="8.94585913867976"><ele>57.0</ele><time>2026-04-30T09:17:56.001Z</time></trkpt><trkpt lat="40.85942989395377" lon="8.94604549395965"><ele>56.33333333333333</ele><time>2026-04-30T09:17:57.001Z</time></trkpt><trkpt lat="40.85950595942729" lon="8.94624897837765"><ele>55.666666666666664</ele><time>2026-04-30T09:17:58.001Z</time></trkpt><trkpt lat="40.859577329856414" lon="8.946431591557475"><ele>55.0</ele><time>2026-04-30T09:17:59.001Z</time></trkpt><trkpt lat="40.85963690785783" lon="8.94661084235745"><ele>56.25</ele><time>2026-04-30T09:18:00.001Z</time></trkpt><trkpt lat="40.85972240616886" lon="8.946747690929525"><ele>57.5</ele><time>2026-04-30T09:18:01.001Z</time></trkpt><trkpt lat="40.85983926621631" lon="8.94684232976364"><ele>58.75</ele><time>2026-04-30T09:18:02.001Z</time></trkpt><trkpt lat="40.85997509174798" lon="8.946861699767096"><ele>60.0</ele><time>2026-04-30T09:18:03.001Z</time></trkpt><trkpt lat="40.86012870615976" lon="8.946867408419097"><ele>60.0</ele><time>2026-04-30T09:18:04.001Z</time></trkpt><trkpt lat="40.86029451468555" lon="8.94689858663364"><ele>60.0</ele><time>2026-04-30T09:18:05.001Z</time></trkpt><trkpt lat="40.860440094209395" lon="8.946919415555177"><ele>60.0</ele><time>2026-04-30T09:18:06.001Z</time></trkpt><trkpt lat="40.8605731773119" lon="8.947001650886266"><ele>60.0</ele><time>2026-04-30T09:18:07.001Z</time></trkpt><trkpt lat="40.86069269769823" lon="8.94712169716401"><ele>60.0</ele><time>2026-04-30T09:18:08.001Z</time></trkpt><trkpt lat="40.86080829402342" lon="8.947271137637797"><ele>60.0</ele><time>2026-04-30T09:18:09.001Z</time></trkpt><trkpt lat="40.86092235053871" lon="8.947433410850069"><ele>59.33333333333333</ele><time>2026-04-30T09:18:10.001Z</time></trkpt><trkpt lat="40.86102686916841" lon="8.947619915058374"><ele>58.666666666666664</ele><time>2026-04-30T09:18:11.001Z</time></trkpt><trkpt lat="40.86114445506559" lon="8.947808299261792"><ele>58.0</ele><time>2026-04-30T09:18:12.001Z</time></trkpt><trkpt lat="40.86124099473294" lon="8.94800129836565"><ele>58.0</ele><time>2026-04-30T09:18:13.001Z</time></trkpt><trkpt lat="40.86131449720164" lon="8.948214147036875"><ele>58.0</ele><time>2026-04-30T09:18:14.001Z</time></trkpt><trkpt lat="40.86137431453918" lon="8.948411265698507"><ele>58.0</ele><time>2026-04-30T09:18:15.001Z</time></trkpt><trkpt lat="40.861427890087704" lon="8.94859177072365"><ele>59.33333333333333</ele><time>2026-04-30T09:18:16.001Z</time></trkpt><trkpt lat="40.86149384692168" lon="8.94876134529284"><ele>60.66666666666667</ele><time>2026-04-30T09:18:17.001Z</time></trkpt><trkpt lat="40.86159085595741" lon="8.9489147824388"><ele>62.0</ele><time>2026-04-30T09:18:18.001Z</time></trkpt><trkpt lat="40.861734544554196" lon="8.9490277675422"><ele>62.66666666666667</ele><time>2026-04-30T09:18:19.001Z</time></trkpt><trkpt lat="40.86188508550528" lon="8.949129942152062"><ele>63.33333333333333</ele><time>2026-04-30T09:18:20.001Z</time></trkpt><trkpt lat="40.862030420547846" lon="8.949233886395554"><ele>64.0</ele><time>2026-04-30T09:18:21.001Z</time></trkpt><trkpt lat="40.862164731524054" lon="8.94935812932397"><ele>64.0</ele><time>2026-04-30T09:18:22.001Z</time></trkpt><trkpt lat="40.86229103278574" lon="8.949501047972149"><ele>64.0</ele><time>2026-04-30T09:18:23.001Z</time></trkpt><trkpt lat="40.86242188207317" lon="8.94963715628508"><ele>64.0</ele><time>2026-04-30T09:18:24.001Z</time></trkpt><trkpt lat="40.86253817012936" lon="8.949794081890932"><ele>62.666666666666664</ele><time>2026-04-30T09:18:25.001Z</time></trkpt><trkpt lat="40.862649773524026" lon="8.949950451824831"><ele>61.33333333333333</ele><time>2026-04-30T09:18:26.001Z</time></trkpt><trkpt lat="40.86274942056404" lon="8.95010887945814"><ele>60.0</ele><time>2026-04-30T09:18:27.001Z</time></trkpt><trkpt lat="40.862830528869544" lon="8.950286783065543"><ele>60.0</ele><time>2026-04-30T09:18:28.001Z</time></trkpt><trkpt lat="40.86289295863948" lon="8.950455016869318"><ele>60.0</ele><time>2026-04-30T09:18:29.001Z</time></trkpt><trkpt lat="40.862964862884176" lon="8.950607670094122"><ele>60.0</ele><time>2026-04-30T09:18:30.001Z</time></trkpt><trkpt lat="40.8630707329627" lon="8.950743248923564"><ele>60.0</ele><time>2026-04-30T09:18:31.001Z</time></trkpt><trkpt lat="40.86320137363449" lon="8.95084937490037"><ele>60.0</ele><time>2026-04-30T09:18:32.001Z</time></trkpt><trkpt lat="40.86336949930459" lon="8.950944638212471"><ele>60.0</ele><time>2026-04-30T09:18:33.001Z</time></trkpt><trkpt lat="40.86352439061178" lon="8.951037783918993"><ele>60.0</ele><time>2026-04-30T09:18:34.001Z</time></trkpt><trkpt lat="40.86367729421918" lon="8.95113814023751"><ele>60.0</ele><time>2026-04-30T09:18:35.001Z</time></trkpt><trkpt lat="40.86382972172385" lon="8.951242626934523"><ele>60.0</ele><time>2026-04-30T09:18:36.001Z</time></trkpt><trkpt lat="40.86397634630638" lon="8.951336666271871"><ele>60.0</ele><time>2026-04-30T09:18:37.001Z</time></trkpt><trkpt lat="40.8641144844018" lon="8.951425387234721"><ele>60.0</ele><time>2026-04-30T09:18:38.001Z</time></trkpt><trkpt lat="40.864247038858764" lon="8.951512911637959"><ele>60.0</ele><time>2026-04-30T09:18:39.001Z</time></trkpt><trkpt lat="40.86437191814118" lon="8.951598811609804"><ele>60.0</ele><time>2026-04-30T09:18:40.001Z</time></trkpt><trkpt lat="40.864484528574636" lon="8.951702159640284"><ele>60.0</ele><time>2026-04-30T09:18:41.001Z</time></trkpt><trkpt lat="40.8645831722928" lon="8.951838019896863"><ele>58.0</ele><time>2026-04-30T09:18:42.001Z</time></trkpt><trkpt lat="40.86463865891059" lon="8.95201459560124"><ele>56.0</ele><time>2026-04-30T09:18:43.001Z</time></trkpt><trkpt lat="40.86470714912466" lon="8.952207911969754"><ele>54.0</ele><time>2026-04-30T09:18:44.001Z</time></trkpt><trkpt lat="40.864749789583634" lon="8.952421827957789"><ele>55.25</ele><time>2026-04-30T09:18:45.001Z</time></trkpt><trkpt lat="40.86479709680861" lon="8.952606290535977"><ele>56.5</ele><time>2026-04-30T09:18:46.001Z</time></trkpt><trkpt lat="40.86483963114167" lon="8.952782266179316"><ele>57.75</ele><time>2026-04-30T09:18:47.001Z</time></trkpt><trkpt lat="40.864908982202394" lon="8.952939009215081"><ele>59.0</ele><time>2026-04-30T09:18:48.001Z</time></trkpt><trkpt lat="40.865021527802384" lon="8.953075332189842"><ele>56.333333333333336</ele><time>2026-04-30T09:18:49.001Z</time></trkpt><trkpt lat="40.865164171772534" lon="8.953170875260227"><ele>53.66666666666667</ele><time>2026-04-30T09:18:50.001Z</time></trkpt><trkpt lat="40.86530861820121" lon="8.953270384151665"><ele>51.0</ele><time>2026-04-30T09:18:51.001Z</time></trkpt><trkpt lat="40.865451052103644" lon="8.95336941950506"><ele>52.25</ele><time>2026-04-30T09:18:52.001Z</time></trkpt><trkpt lat="40.86557917190228" lon="8.953462156590785"><ele>53.5</ele><time>2026-04-30T09:18:53.001Z</time></trkpt><trkpt lat="40.86570208575801" lon="8.95354893369827"><ele>54.75</ele><time>2026-04-30T09:18:54.001Z</time></trkpt><trkpt lat="40.865817856865064" lon="8.953633635851022"><ele>56.0</ele><time>2026-04-30T09:18:55.001Z</time></trkpt><trkpt lat="40.86591604149514" lon="8.953732781662653"><ele>51.5</ele><time>2026-04-30T09:18:56.002Z</time></trkpt><trkpt lat="40.865983926522524" lon="8.953849832519417"><ele>47.0</ele><time>2026-04-30T09:18:57.002Z</time></trkpt><trkpt lat="40.8660183659958" lon="8.953982590137729"><ele>42.5</ele><time>2026-04-30T09:18:58.002Z</time></trkpt><trkpt lat="40.86602369952824" lon="8.954140586466147"><ele>38.0</ele><time>2026-04-30T09:18:59.002Z</time></trkpt><trkpt lat="40.866023032697456" lon="8.954306877777748"><ele>38.0</ele><time>2026-04-30T09:19:00.002Z</time></trkpt><trkpt lat="40.8660094966572" lon="8.954503389372876"><ele>38.0</ele><time>2026-04-30T09:19:01.002Z</time></trkpt><trkpt lat="40.866002873883765" lon="8.954701512181012"><ele>38.0</ele><time>2026-04-30T09:19:02.002Z</time></trkpt><trkpt lat="40.86600459938501" lon="8.954924156941543"><ele>38.33333333333333</ele><time>2026-04-30T09:19:03.002Z</time></trkpt><trkpt lat="40.86599474105646" lon="8.955166047589552"><ele>38.666666666666664</ele><time>2026-04-30T09:19:04.002Z</time></trkpt><trkpt lat="40.86599015636516" lon="8.955421167780472"><ele>39.0</ele><time>2026-04-30T09:19:05.002Z</time></trkpt><trkpt lat="40.86598256457068" lon="8.955668572663303"><ele>38.0</ele><time>2026-04-30T09:19:06.002Z</time></trkpt><trkpt lat="40.86597594613483" lon="8.955920667564877"><ele>37.0</ele><time>2026-04-30T09:19:07.002Z</time></trkpt><trkpt lat="40.865973230629166" lon="8.956154288906962"><ele>36.0</ele><time>2026-04-30T09:19:08.002Z</time></trkpt><trkpt lat="40.86596990526558" lon="8.95637319871667"><ele>36.0</ele><time>2026-04-30T09:19:09.002Z</time></trkpt><trkpt lat="40.86596364282797" lon="8.956578530064053"><ele>36.0</ele><time>2026-04-30T09:19:10.002Z</time></trkpt><trkpt lat="40.86594480464769" lon="8.956781635253444"><ele>36.0</ele><time>2026-04-30T09:19:11.002Z</time></trkpt><trkpt lat="40.8658976141882" lon="8.956977069294577"><ele>39.333333333333336</ele><time>2026-04-30T09:19:12.002Z</time></trkpt><trkpt lat="40.865822315338114" lon="8.957164767519078"><ele>42.66666666666667</ele><time>2026-04-30T09:19:13.002Z</time></trkpt><trkpt lat="40.86573472019219" lon="8.957348949769274"><ele>46.0</ele><time>2026-04-30T09:19:14.002Z</time></trkpt><trkpt lat="40.865639163442" lon="8.957528843209086"><ele>43.0</ele><time>2026-04-30T09:19:15.002Z</time></trkpt><trkpt lat="40.86553153701187" lon="8.957701032461978"><ele>40.0</ele><time>2026-04-30T09:19:16.002Z</time></trkpt><trkpt lat="40.86540868681582" lon="8.957867995917518"><ele>37.0</ele><time>2026-04-30T09:19:17.002Z</time></trkpt><trkpt lat="40.865279322952595" lon="8.958041366089141"><ele>37.0</ele><time>2026-04-30T09:19:18.002Z</time></trkpt><trkpt lat="40.86515065812765" lon="8.958215587524016"><ele>37.0</ele><time>2026-04-30T09:19:19.002Z</time></trkpt><trkpt lat="40.865033651928194" lon="8.958374010495488"><ele>37.0</ele><time>2026-04-30T09:19:20.002Z</time></trkpt><trkpt lat="40.86491958551909" lon="8.958526203796616"><ele>37.25</ele><time>2026-04-30T09:19:21.002Z</time></trkpt><trkpt lat="40.864795977527024" lon="8.958657324972105"><ele>37.5</ele><time>2026-04-30T09:19:22.002Z</time></trkpt><trkpt lat="40.864692820113866" lon="8.958795569497209"><ele>37.75</ele><time>2026-04-30T09:19:23.002Z</time></trkpt><trkpt lat="40.8645935510415" lon="8.958919467640374"><ele>38.0</ele><time>2026-04-30T09:19:24Z</time></trkpt><trkpt lat="40.86449855512333" lon="8.959048120930534"><ele>38.0</ele><time>2026-04-30T09:19:25Z</time></trkpt><trkpt lat="40.864366505253365" lon="8.9591295408769"><ele>38.0</ele><time>2026-04-30T09:19:26Z</time></trkpt><trkpt lat="40.864222531599665" lon="8.959186629110308"><ele>38.0</ele><time>2026-04-30T09:19:27Z</time></trkpt><trkpt lat="40.86406838350131" lon="8.959235725185998"><ele>37.666666666666664</ele><time>2026-04-30T09:19:28Z</time></trkpt><trkpt lat="40.86390555764889" lon="8.959283992014582"><ele>37.333333333333336</ele><time>2026-04-30T09:19:29Z</time></trkpt><trkpt lat="40.863742830281204" lon="8.959335637338926"><ele>37.0</ele><time>2026-04-30T09:19:30Z</time></trkpt><trkpt lat="40.863589192151416" lon="8.95938643488063"><ele>37.0</ele><time>2026-04-30T09:19:31Z</time></trkpt><trkpt lat="40.86344727117197" lon="8.95943069962061"><ele>37.0</ele><time>2026-04-30T09:19:32Z</time></trkpt><trkpt lat="40.86332121810521" lon="8.959467624194572"><ele>37.0</ele><time>2026-04-30T09:19:33Z</time></trkpt><trkpt lat="40.8632153890716" lon="8.959509455354237"><ele>37.0</ele><time>2026-04-30T09:19:34Z</time></trkpt><trkpt lat="40.86312336660609" lon="8.959540835210868"><ele>37.333333333333336</ele><time>2026-04-30T09:19:35Z</time></trkpt><trkpt lat="40.86306173779902" lon="8.959630406552115"><ele>37.66666666666667</ele><time>2026-04-30T09:19:36Z</time></trkpt><trkpt lat="40.863041418476435" lon="8.959736569496247"><ele>38.0</ele><time>2026-04-30T09:19:37Z</time></trkpt><trkpt lat="40.86304338253708" lon="8.95983628069665"><ele>38.333333333333336</ele><time>2026-04-30T09:19:38Z</time></trkpt><trkpt lat="40.86305163637967" lon="8.959953719128931"><ele>38.666666666666664</ele><time>2026-04-30T09:19:39Z</time></trkpt><trkpt lat="40.86306375885522" lon="8.960066867176792"><ele>39.0</ele><time>2026-04-30T09:19:40Z</time></trkpt><trkpt lat="40.86307523563176" lon="8.960185775517207"><ele>40.5</ele><time>2026-04-30T09:19:41Z</time></trkpt><trkpt lat="40.863085774138916" lon="8.960303223458052"><ele>42.0</ele><time>2026-04-30T09:19:42Z</time></trkpt><trkpt lat="40.863098198707995" lon="8.96042319024758"><ele>43.5</ele><time>2026-04-30T09:19:43Z</time></trkpt><trkpt lat="40.863110064519034" lon="8.960539980315254"><ele>45.0</ele><time>2026-04-30T09:19:44Z</time></trkpt><trkpt lat="40.86311647745666" lon="8.960648028710285"><ele>46.5</ele><time>2026-04-30T09:19:45Z</time></trkpt><trkpt lat="40.86308127174433" lon="8.960741228917888"><ele>48.0</ele><time>2026-04-30T09:19:46Z</time></trkpt><trkpt lat="40.86302421236392" lon="8.960810974543385"><ele>48.0</ele><time>2026-04-30T09:19:47Z</time></trkpt><trkpt lat="40.8629446920371" lon="8.960860500773501"><ele>48.0</ele><time>2026-04-30T09:19:48Z</time></trkpt><trkpt lat="40.86285146382319" lon="8.960896257258119"><ele>48.0</ele><time>2026-04-30T09:19:49Z</time></trkpt><trkpt lat="40.86274562286616" lon="8.96093825989299"><ele>48.0</ele><time>2026-04-30T09:19:50Z</time></trkpt><trkpt lat="40.862624541639505" lon="8.960990544722446"><ele>48.0</ele><time>2026-04-30T09:19:51Z</time></trkpt><trkpt lat="40.862496503710666" lon="8.961051032333229"><ele>52.5</ele><time>2026-04-30T09:19:52Z</time></trkpt><trkpt lat="40.86236171849745" lon="8.961114704921815"><ele>57.0</ele><time>2026-04-30T09:19:53Z</time></trkpt><trkpt lat="40.86223799084427" lon="8.961181840344196"><ele>61.5</ele><time>2026-04-30T09:19:54Z</time></trkpt><trkpt lat="40.86212482528196" lon="8.961256912515253"><ele>66.0</ele><time>2026-04-30T09:19:55Z</time></trkpt><trkpt lat="40.862020207727866" lon="8.961350566405336"><ele>66.0</ele><time>2026-04-30T09:19:56Z</time></trkpt><trkpt lat="40.861916583138495" lon="8.961414419710021"><ele>66.0</ele><time>2026-04-30T09:19:57Z</time></trkpt><trkpt lat="40.8618281396786" lon="8.961500196142211"><ele>66.0</ele><time>2026-04-30T09:19:58Z</time></trkpt><trkpt lat="40.86174109865723" lon="8.961596646323562"><ele>66.0</ele><time>2026-04-30T09:19:59Z</time></trkpt><trkpt lat="40.86166567567532" lon="8.961713692756499"><ele>66.75</ele><time>2026-04-30T09:20:00Z</time></trkpt><trkpt lat="40.86157152151446" lon="8.961808744236377"><ele>67.5</ele><time>2026-04-30T09:20:01Z</time></trkpt><trkpt lat="40.86148951474351" lon="8.961933947345777"><ele>68.25</ele><time>2026-04-30T09:20:02Z</time></trkpt><trkpt lat="40.86139673715884" lon="8.962050962943716"><ele>69.0</ele><time>2026-04-30T09:20:03Z</time></trkpt><trkpt lat="40.86130503194855" lon="8.962171381736958"><ele>69.0</ele><time>2026-04-30T09:20:04Z</time></trkpt><trkpt lat="40.861206689211954" lon="8.96229974129752"><ele>69.0</ele><time>2026-04-30T09:20:05Z</time></trkpt><trkpt lat="40.8611043058098" lon="8.962438455356708"><ele>69.0</ele><time>2026-04-30T09:20:06Z</time></trkpt><trkpt lat="40.86099751067973" lon="8.962590305297125"><ele>69.0</ele><time>2026-04-30T09:20:07Z</time></trkpt><trkpt lat="40.860896101594456" lon="8.962755922772146"><ele>66.33333333333333</ele><time>2026-04-30T09:20:08Z</time></trkpt><trkpt lat="40.86080807372012" lon="8.962928385075"><ele>63.666666666666664</ele><time>2026-04-30T09:20:09Z</time></trkpt><trkpt lat="40.86074061675975" lon="8.96310729476193"><ele>61.0</ele><time>2026-04-30T09:20:10Z</time></trkpt><trkpt lat="40.86066892621643" lon="8.96327565699597"><ele>61.5</ele><time>2026-04-30T09:20:11Z</time></trkpt><trkpt lat="40.860635665322114" lon="8.963448603651088"><ele>62.0</ele><time>2026-04-30T09:20:12Z</time></trkpt><trkpt lat="40.86061195154312" lon="8.963619664617738"><ele>62.5</ele><time>2026-04-30T09:20:13Z</time></trkpt><trkpt lat="40.86059710474004" lon="8.963778351590898"><ele>63.0</ele><time>2026-04-30T09:20:14Z</time></trkpt><trkpt lat="40.86060140606939" lon="8.963959386650703"><ele>63.0</ele><time>2026-04-30T09:20:15Z</time></trkpt><trkpt lat="40.86063470880063" lon="8.964172171553477"><ele>63.0</ele><time>2026-04-30T09:20:16Z</time></trkpt><trkpt lat="40.86069732330902" lon="8.964358014756069"><ele>63.0</ele><time>2026-04-30T09:20:17.001Z</time></trkpt><trkpt lat="40.86077900504828" lon="8.96453738143321"><ele>59.0</ele><time>2026-04-30T09:20:18.001Z</time></trkpt><trkpt lat="40.86086244669307" lon="8.964707620432668"><ele>55.0</ele><time>2026-04-30T09:20:19.001Z</time></trkpt><trkpt lat="40.860949140510634" lon="8.964875236079454"><ele>51.0</ele><time>2026-04-30T09:20:20.001Z</time></trkpt><trkpt lat="40.86105047389401" lon="8.965045723514669"><ele>50.75</ele><time>2026-04-30T09:20:21.001Z</time></trkpt><trkpt lat="40.861170309735094" lon="8.965186416578117"><ele>50.5</ele><time>2026-04-30T09:20:22.001Z</time></trkpt><trkpt lat="40.861292795299484" lon="8.965295527676771"><ele>50.25</ele><time>2026-04-30T09:20:23.001Z</time></trkpt><trkpt lat="40.86140168138361" lon="8.965377294668617"><ele>50.0</ele><time>2026-04-30T09:20:24.001Z</time></trkpt><trkpt lat="40.861532285168266" lon="8.965468997001823"><ele>50.0</ele><time>2026-04-30T09:20:25.001Z</time></trkpt><trkpt lat="40.86167366231148" lon="8.96556316321611"><ele>50.0</ele><time>2026-04-30T09:20:26.001Z</time></trkpt><trkpt lat="40.86183133229009" lon="8.965627097349863"><ele>50.0</ele><time>2026-04-30T09:20:27.001Z</time></trkpt><trkpt lat="40.861994222006345" lon="8.965701574914576"><ele>48.0</ele><time>2026-04-30T09:20:28.001Z</time></trkpt><trkpt lat="40.86216122180353" lon="8.965777323626078"><ele>46.0</ele><time>2026-04-30T09:20:29.001Z</time></trkpt><trkpt lat="40.862330643011845" lon="8.965845953299903"><ele>44.0</ele><time>2026-04-30T09:20:30.001Z</time></trkpt><trkpt lat="40.86249603669006" lon="8.96590238250938"><ele>46.0</ele><time>2026-04-30T09:20:31.001Z</time></trkpt><trkpt lat="40.86266242971335" lon="8.965933962630844"><ele>48.0</ele><time>2026-04-30T09:20:32.001Z</time></trkpt><trkpt lat="40.862808692691864" lon="8.965974060618272"><ele>50.0</ele><time>2026-04-30T09:20:33.001Z</time></trkpt><trkpt lat="40.86295980625926" lon="8.965991323910444"><ele>50.0</ele><time>2026-04-30T09:20:34.001Z</time></trkpt><trkpt lat="40.86311446508224" lon="8.966053739305114"><ele>50.0</ele><time>2026-04-30T09:20:35.001Z</time></trkpt><trkpt lat="40.86326142057348" lon="8.966141213352566"><ele>50.0</ele><time>2026-04-30T09:20:36.001Z</time></trkpt><trkpt lat="40.863397025652766" lon="8.966257180224678"><ele>53.0</ele><time>2026-04-30T09:20:37.001Z</time></trkpt><trkpt lat="40.863517487607425" lon="8.966414147465603"><ele>56.0</ele><time>2026-04-30T09:20:38.001Z</time></trkpt><trkpt lat="40.86364048714796" lon="8.966581435956162"><ele>59.0</ele><time>2026-04-30T09:20:39.001Z</time></trkpt><trkpt lat="40.86375830978979" lon="8.966743869276222"><ele>59.0</ele><time>2026-04-30T09:20:40.001Z</time></trkpt><trkpt lat="40.86387137408505" lon="8.966902545710095"><ele>59.0</ele><time>2026-04-30T09:20:41.001Z</time></trkpt><trkpt lat="40.86397814862954" lon="8.96706972187844"><ele>59.0</ele><time>2026-04-30T09:20:42.001Z</time></trkpt><trkpt lat="40.86406735388168" lon="8.9672494247216"><ele>59.0</ele><time>2026-04-30T09:20:43.001Z</time></trkpt><trkpt lat="40.86414172215036" lon="8.967454111707546"><ele>59.0</ele><time>2026-04-30T09:20:44.001Z</time></trkpt><trkpt lat="40.864208353476364" lon="8.967659552755148"><ele>59.0</ele><time>2026-04-30T09:20:45.001Z</time></trkpt><trkpt lat="40.864267157184905" lon="8.967851533118637"><ele>61.5</ele><time>2026-04-30T09:20:46.001Z</time></trkpt><trkpt lat="40.864321979697635" lon="8.968031759387657"><ele>64.0</ele><time>2026-04-30T09:20:47.001Z</time></trkpt><trkpt lat="40.86437114734713" lon="8.968198025418909"><ele>66.5</ele><time>2026-04-30T09:20:48.001Z</time></trkpt><trkpt lat="40.864409389150595" lon="8.968358050353288"><ele>69.0</ele><time>2026-04-30T09:20:49.001Z</time></trkpt><trkpt lat="40.864398442301564" lon="8.968541296403389"><ele>71.0</ele><time>2026-04-30T09:20:50.001Z</time></trkpt><trkpt lat="40.86436007345341" lon="8.968742184520195"><ele>73.0</ele><time>2026-04-30T09:20:51.001Z</time></trkpt><trkpt lat="40.864285349818054" lon="8.968951104075236"><ele>75.0</ele><time>2026-04-30T09:20:52.001Z</time></trkpt><trkpt lat="40.86421997851022" lon="8.969189312241124"><ele>68.33333333333333</ele><time>2026-04-30T09:20:53.001Z</time></trkpt><trkpt lat="40.864153393146154" lon="8.969431944425688"><ele>61.666666666666664</ele><time>2026-04-30T09:20:54.001Z</time></trkpt><trkpt lat="40.864082898056765" lon="8.969687184069246"><ele>55.0</ele><time>2026-04-30T09:20:55.001Z</time></trkpt><trkpt lat="40.86400840579105" lon="8.969956222485004"><ele>56.0</ele><time>2026-04-30T09:20:56.001Z</time></trkpt><trkpt lat="40.86393304304802" lon="8.970228404766917"><ele>57.0</ele><time>2026-04-30T09:20:57.001Z</time></trkpt><trkpt lat="40.863862249850534" lon="8.97049021071951"><ele>58.0</ele><time>2026-04-30T09:20:58.001Z</time></trkpt><trkpt lat="40.863791960430135" lon="8.970750450082182"><ele>59.33333333333333</ele><time>2026-04-30T09:20:59.001Z</time></trkpt><trkpt lat="40.86372390211789" lon="8.971009114521502"><ele>60.66666666666667</ele><time>2026-04-30T09:21:00.001Z</time></trkpt><trkpt lat="40.86366054322517" lon="8.97126715625398"><ele>62.0</ele><time>2026-04-30T09:21:01.001Z</time></trkpt><trkpt lat="40.86361019371207" lon="8.97152490837134"><ele>63.333333333333336</ele><time>2026-04-30T09:21:02.001Z</time></trkpt><trkpt lat="40.86356611937035" lon="8.97177541276535"><ele>64.66666666666667</ele><time>2026-04-30T09:21:03.001Z</time></trkpt><trkpt lat="40.86352245830008" lon="8.972018165576483"><ele>66.0</ele><time>2026-04-30T09:21:04.001Z</time></trkpt><trkpt lat="40.86348134554118" lon="8.972256312526032"><ele>63.0</ele><time>2026-04-30T09:21:05.001Z</time></trkpt><trkpt lat="40.86343748577805" lon="8.972495526054221"><ele>60.0</ele><time>2026-04-30T09:21:06.001Z</time></trkpt><trkpt lat="40.863393290339616" lon="8.972744609876663"><ele>57.0</ele><time>2026-04-30T09:21:07.001Z</time></trkpt><trkpt lat="40.86331579466468" lon="8.972980195677756"><ele>57.0</ele><time>2026-04-30T09:21:08.001Z</time></trkpt><trkpt lat="40.86321620538334" lon="8.973190123210312"><ele>57.0</ele><time>2026-04-30T09:21:09.001Z</time></trkpt><trkpt lat="40.86313078691065" lon="8.97339370608044"><ele>57.0</ele><time>2026-04-30T09:21:10.001Z</time></trkpt><trkpt lat="40.863045191125714" lon="8.973586331681746"><ele>58.33333333333333</ele><time>2026-04-30T09:21:11.001Z</time></trkpt><trkpt lat="40.862966919036644" lon="8.973769716471425"><ele>59.666666666666664</ele><time>2026-04-30T09:21:12.001Z</time></trkpt><trkpt lat="40.86284123252501" lon="8.97391740282797"><ele>61.0</ele><time>2026-04-30T09:21:13.001Z</time></trkpt><trkpt lat="40.862683345133426" lon="8.974045208916047"><ele>59.0</ele><time>2026-04-30T09:21:14.001Z</time></trkpt><trkpt lat="40.86253091393752" lon="8.974171353749503"><ele>57.0</ele><time>2026-04-30T09:21:15.001Z</time></trkpt><trkpt lat="40.862392652397006" lon="8.97429524443131"><ele>55.0</ele><time>2026-04-30T09:21:16.001Z</time></trkpt><trkpt lat="40.862253577402605" lon="8.974414537735244"><ele>55.0</ele><time>2026-04-30T09:21:17.001Z</time></trkpt><trkpt lat="40.862137545151626" lon="8.974582602320496"><ele>55.0</ele><time>2026-04-30T09:21:18.001Z</time></trkpt><trkpt lat="40.86204213130215" lon="8.974770382073139"><ele>55.0</ele><time>2026-04-30T09:21:19.001Z</time></trkpt><trkpt lat="40.86194960204547" lon="8.97495375517765"><ele>54.666666666666664</ele><time>2026-04-30T09:21:20.001Z</time></trkpt><trkpt lat="40.861888776010446" lon="8.975158961191827"><ele>54.33333333333333</ele><time>2026-04-30T09:21:21.001Z</time></trkpt><trkpt lat="40.86179359936102" lon="8.975336607154794"><ele>54.0</ele><time>2026-04-30T09:21:22.001Z</time></trkpt><trkpt lat="40.86169085371941" lon="8.975515992642807"><ele>52.33333333333333</ele><time>2026-04-30T09:21:23.001Z</time></trkpt><trkpt lat="40.86160109752864" lon="8.975719162335615"><ele>50.666666666666664</ele><time>2026-04-30T09:21:24.001Z</time></trkpt><trkpt lat="40.861520514587816" lon="8.975953564573139"><ele>49.0</ele><time>2026-04-30T09:21:25.001Z</time></trkpt><trkpt lat="40.86144969649327" lon="8.976202857844093"><ele>48.666666666666664</ele><time>2026-04-30T09:21:26.001Z</time></trkpt><trkpt lat="40.86137925426259" lon="8.976465131256692"><ele>48.33333333333333</ele><time>2026-04-30T09:21:27.001Z</time></trkpt><trkpt lat="40.861305169372706" lon="8.976724868438934"><ele>48.0</ele><time>2026-04-30T09:21:28.001Z</time></trkpt><trkpt lat="40.86124110597864" lon="8.976965161679058"><ele>49.33333333333333</ele><time>2026-04-30T09:21:29.001Z</time></trkpt><trkpt lat="40.86118330800601" lon="8.977187937341267"><ele>50.666666666666664</ele><time>2026-04-30T09:21:29.998Z</time></trkpt><trkpt lat="40.86112533250355" lon="8.977394093465174"><ele>52.0</ele><time>2026-04-30T09:21:30.998Z</time></trkpt><trkpt lat="40.861070806356246" lon="8.97758207357343"><ele>52.25</ele><time>2026-04-30T09:21:31.998Z</time></trkpt><trkpt lat="40.86100809238054" lon="8.977755701823899"><ele>52.5</ele><time>2026-04-30T09:21:32.998Z</time></trkpt><trkpt lat="40.860924422963954" lon="8.977911637110468"><ele>52.75</ele><time>2026-04-30T09:21:33.998Z</time></trkpt><trkpt lat="40.8608100130024" lon="8.978032155225607"><ele>53.0</ele><time>2026-04-30T09:21:34.998Z</time></trkpt><trkpt lat="40.86066774728453" lon="8.978135384852862"><ele>53.0</ele><time>2026-04-30T09:21:35.998Z</time></trkpt><trkpt lat="40.86051488478525" lon="8.978261988082616"><ele>53.0</ele><time>2026-04-30T09:21:36.998Z</time></trkpt><trkpt lat="40.86036568655633" lon="8.978390340853743"><ele>53.0</ele><time>2026-04-30T09:21:37.998Z</time></trkpt><trkpt lat="40.86020911806602" lon="8.978518323113382"><ele>53.333333333333336</ele><time>2026-04-30T09:21:38.998Z</time></trkpt><trkpt lat="40.86005045871331" lon="8.978650900307315"><ele>53.66666666666667</ele><time>2026-04-30T09:21:39.998Z</time></trkpt><trkpt lat="40.85988639170545" lon="8.97880633097581"><ele>54.0</ele><time>2026-04-30T09:21:40.998Z</time></trkpt><trkpt lat="40.859726587388934" lon="8.978992847966186"><ele>56.0</ele><time>2026-04-30T09:21:41.998Z</time></trkpt><trkpt lat="40.85958025704912" lon="8.979191810902188"><ele>58.0</ele><time>2026-04-30T09:21:42.998Z</time></trkpt><trkpt lat="40.859445471887724" lon="8.979379573770565"><ele>60.0</ele><time>2026-04-30T09:21:43.998Z</time></trkpt><trkpt lat="40.85932846583975" lon="8.979549981336817"><ele>59.0</ele><time>2026-04-30T09:21:44.999Z</time></trkpt><trkpt lat="40.85923048548356" lon="8.97971426228198"><ele>58.0</ele><time>2026-04-30T09:21:45.999Z</time></trkpt><trkpt lat="40.85914544819008" lon="8.979897851880303"><ele>57.0</ele><time>2026-04-30T09:21:46.999Z</time></trkpt><trkpt lat="40.8590886786735" lon="8.980102090106842"><ele>57.0</ele><time>2026-04-30T09:21:47.999Z</time></trkpt><trkpt lat="40.85905159723209" lon="8.980314519762114"><ele>57.0</ele><time>2026-04-30T09:21:48.999Z</time></trkpt><trkpt lat="40.859026864850094" lon="8.980522392051494"><ele>57.0</ele><time>2026-04-30T09:21:49.999Z</time></trkpt><trkpt lat="40.85901065286624" lon="8.980727615867973"><ele>56.66666666666667</ele><time>2026-04-30T09:21:50.999Z</time></trkpt><trkpt lat="40.85899924966725" lon="8.980936869870703"><ele>56.333333333333336</ele><time>2026-04-30T09:21:51.999Z</time></trkpt><trkpt lat="40.85899377584049" lon="8.98114872664221"><ele>56.0</ele><time>2026-04-30T09:21:52.999Z</time></trkpt><trkpt lat="40.858985742367345" lon="8.981360443091459"><ele>56.0</ele><time>2026-04-30T09:21:53.999Z</time></trkpt><trkpt lat="40.85897944353045" lon="8.981574232126402"><ele>56.0</ele><time>2026-04-30T09:21:54.999Z</time></trkpt><trkpt lat="40.858975088992345" lon="8.981790347253822"><ele>56.0</ele><time>2026-04-30T09:21:55.999Z</time></trkpt><trkpt lat="40.858960883606805" lon="8.982012156769766"><ele>58.333333333333336</ele><time>2026-04-30T09:21:56.999Z</time></trkpt><trkpt lat="40.85893171905953" lon="8.982233067200236"><ele>60.66666666666667</ele><time>2026-04-30T09:21:57.999Z</time></trkpt><trkpt lat="40.85889173601669" lon="8.982452230676655"><ele>63.0</ele><time>2026-04-30T09:21:58.999Z</time></trkpt><trkpt lat="40.85884406132701" lon="8.982666187335255"><ele>65.66666666666667</ele><time>2026-04-30T09:21:59.999Z</time></trkpt><trkpt lat="40.85878512650868" lon="8.98287626135095"><ele>68.33333333333334</ele><time>2026-04-30T09:22:00.999Z</time></trkpt><trkpt lat="40.85871478269998" lon="8.983081589859655"><ele>71.0</ele><time>2026-04-30T09:22:01.999Z</time></trkpt><trkpt lat="40.858634800726016" lon="8.983279787191675"><ele>72.33333333333334</ele><time>2026-04-30T09:22:02.999Z</time></trkpt><trkpt lat="40.858547785086735" lon="8.983471838267851"><ele>73.66666666666667</ele><time>2026-04-30T09:22:03.999Z</time></trkpt><trkpt lat="40.85845874621762" lon="8.983659358479757"><ele>75.0</ele><time>2026-04-30T09:22:04.999Z</time></trkpt><trkpt lat="40.85837306727905" lon="8.98384162539262"><ele>71.66666666666667</ele><time>2026-04-30T09:22:05.999Z</time></trkpt><trkpt lat="40.85828794466926" lon="8.984018133199408"><ele>68.33333333333334</ele><time>2026-04-30T09:22:06.999Z</time></trkpt><trkpt lat="40.85820397332272" lon="8.984188460614357"><ele>65.0</ele><time>2026-04-30T09:22:08Z</time></trkpt><trkpt lat="40.85812091452944" lon="8.984360048008242"><ele>65.0</ele><time>2026-04-30T09:22:09Z</time></trkpt><trkpt lat="40.85803338176231" lon="8.984524842976795"><ele>65.0</ele><time>2026-04-30T09:22:10Z</time></trkpt><trkpt lat="40.85794227904708" lon="8.98468509769777"><ele>65.0</ele><time>2026-04-30T09:22:11Z</time></trkpt><trkpt lat="40.85784852595179" lon="8.98483360929492"><ele>65.0</ele><time>2026-04-30T09:22:12Z</time></trkpt><trkpt lat="40.85775007087742" lon="8.984977059802908"><ele>65.0</ele><time>2026-04-30T09:22:13Z</time></trkpt><trkpt lat="40.85765733700482" lon="8.985102666319591"><ele>65.0</ele><time>2026-04-30T09:22:14Z</time></trkpt><trkpt lat="40.857565633031605" lon="8.985219081913618"><ele>65.0</ele><time>2026-04-30T09:22:15Z</time></trkpt><trkpt lat="40.857468787294515" lon="8.985324650583188"><ele>65.75</ele><time>2026-04-30T09:22:16Z</time></trkpt><trkpt lat="40.8573653577484" lon="8.985418686175484"><ele>66.5</ele><time>2026-04-30T09:22:17Z</time></trkpt><trkpt lat="40.85725645978138" lon="8.985502452969707"><ele>67.25</ele><time>2026-04-30T09:22:18Z</time></trkpt><trkpt lat="40.85715386689599" lon="8.985596012763297"><ele>68.0</ele><time>2026-04-30T09:22:19Z</time></trkpt><trkpt lat="40.85705838349028" lon="8.98570509833816"><ele>68.0</ele><time>2026-04-30T09:22:20Z</time></trkpt><trkpt lat="40.856980920783954" lon="8.985827026922106"><ele>68.0</ele><time>2026-04-30T09:22:21Z</time></trkpt><trkpt lat="40.85691988712748" lon="8.98597032360256"><ele>68.0</ele><time>2026-04-30T09:22:22Z</time></trkpt><trkpt lat="40.856875620633346" lon="8.986111510904006"><ele>68.0</ele><time>2026-04-30T09:22:23Z</time></trkpt><trkpt lat="40.85685146157309" lon="8.986264611985824"><ele>70.0</ele><time>2026-04-30T09:22:24Z</time></trkpt><trkpt lat="40.85684353668716" lon="8.986426551057233"><ele>72.0</ele><time>2026-04-30T09:22:25Z</time></trkpt><trkpt lat="40.85684989778717" lon="8.986588015457968"><ele>74.0</ele><time>2026-04-30T09:22:26Z</time></trkpt><trkpt lat="40.85687683476345" lon="8.986749943974807"><ele>76.0</ele><time>2026-04-30T09:22:27Z</time></trkpt><trkpt lat="40.856921644028645" lon="8.986914956769509"><ele>76.0</ele><time>2026-04-30T09:22:28Z</time></trkpt><trkpt lat="40.85697907680735" lon="8.987083221758372"><ele>76.0</ele><time>2026-04-30T09:22:29Z</time></trkpt><trkpt lat="40.857046036861625" lon="8.987262336786383"><ele>76.0</ele><time>2026-04-30T09:22:30Z</time></trkpt><trkpt lat="40.85712199638356" lon="8.987449362256232"><ele>76.0</ele><time>2026-04-30T09:22:31Z</time></trkpt><trkpt lat="40.85720370986021" lon="8.987641236560325"><ele>76.0</ele><time>2026-04-30T09:22:32Z</time></trkpt><trkpt lat="40.857285002831" lon="8.987834254595887"><ele>76.0</ele><time>2026-04-30T09:22:33Z</time></trkpt><trkpt lat="40.857364693162076" lon="8.988031976467514"><ele>76.0</ele><time>2026-04-30T09:22:34Z</time></trkpt><trkpt lat="40.857441200493604" lon="8.988224863080045"><ele>76.0</ele><time>2026-04-30T09:22:35Z</time></trkpt><trkpt lat="40.857516412600354" lon="8.988412909120749"><ele>76.0</ele><time>2026-04-30T09:22:36Z</time></trkpt><trkpt lat="40.85759351409123" lon="8.98859684869302"><ele>80.0</ele><time>2026-04-30T09:22:37Z</time></trkpt><trkpt lat="40.85766925345833" lon="8.988781039541925"><ele>84.0</ele><time>2026-04-30T09:22:38Z</time></trkpt><trkpt lat="40.85774156552126" lon="8.988963467402007"><ele>88.0</ele><time>2026-04-30T09:22:39Z</time></trkpt><trkpt lat="40.8578082659595" lon="8.989136283980121"><ele>86.66666666666666</ele><time>2026-04-30T09:22:40Z</time></trkpt><trkpt lat="40.85787353245591" lon="8.989317758345411"><ele>85.33333333333333</ele><time>2026-04-30T09:22:41Z</time></trkpt><trkpt lat="40.857935173017715" lon="8.98951162491628"><ele>84.0</ele><time>2026-04-30T09:22:42Z</time></trkpt><trkpt lat="40.85799169337802" lon="8.989697117702194"><ele>84.0</ele><time>2026-04-30T09:22:43Z</time></trkpt><trkpt lat="40.858054897158176" lon="8.98987729066402"><ele>84.0</ele><time>2026-04-30T09:22:44Z</time></trkpt><trkpt lat="40.858132874845786" lon="8.990070289396522"><ele>84.0</ele><time>2026-04-30T09:22:45Z</time></trkpt><trkpt lat="40.85821105999335" lon="8.990266585155574"><ele>84.33333333333333</ele><time>2026-04-30T09:22:46Z</time></trkpt><trkpt lat="40.85831097331532" lon="8.990457255461068"><ele>84.66666666666666</ele><time>2026-04-30T09:22:47Z</time></trkpt><trkpt lat="40.85842842950155" lon="8.990640024602465"><ele>85.0</ele><time>2026-04-30T09:22:48Z</time></trkpt><trkpt lat="40.858564621755555" lon="8.990803085532479"><ele>89.0</ele><time>2026-04-30T09:22:49Z</time></trkpt><trkpt lat="40.85871109557075" lon="8.990956886702397"><ele>93.0</ele><time>2026-04-30T09:22:50Z</time></trkpt><trkpt lat="40.85885710925911" lon="8.991085806272478"><ele>97.0</ele><time>2026-04-30T09:22:51Z</time></trkpt><trkpt lat="40.85900317099679" lon="8.991185388378433"><ele>97.0</ele><time>2026-04-30T09:22:52Z</time></trkpt><trkpt lat="40.85913711499556" lon="8.991248682032303"><ele>97.0</ele><time>2026-04-30T09:22:53Z</time></trkpt><trkpt lat="40.85929052349235" lon="8.991324196172584"><ele>97.0</ele><time>2026-04-30T09:22:54Z</time></trkpt><trkpt lat="40.85948324725096" lon="8.991403572074406"><ele>97.33333333333334</ele><time>2026-04-30T09:22:55.001Z</time></trkpt><trkpt lat="40.8596809933383" lon="8.991482923719085"><ele>97.66666666666666</ele><time>2026-04-30T09:22:56.001Z</time></trkpt><trkpt lat="40.859875658883226" lon="8.9915600761136"><ele>98.0</ele><time>2026-04-30T09:22:57.001Z</time></trkpt><trkpt lat="40.86006817205631" lon="8.991633097471402"><ele>102.0</ele><time>2026-04-30T09:22:58.001Z</time></trkpt><trkpt lat="40.86025818869636" lon="8.991708760204196"><ele>106.0</ele><time>2026-04-30T09:22:59.001Z</time></trkpt><trkpt lat="40.86044734244047" lon="8.991793829419438"><ele>110.0</ele><time>2026-04-30T09:23:00.001Z</time></trkpt><trkpt lat="40.86063477666581" lon="8.991902306515492"><ele>110.0</ele><time>2026-04-30T09:23:01.001Z</time></trkpt><trkpt lat="40.86081208322263" lon="8.992013840580327"><ele>110.0</ele><time>2026-04-30T09:23:02.001Z</time></trkpt><trkpt lat="40.860979446280474" lon="8.992122498993385"><ele>110.0</ele><time>2026-04-30T09:23:03.001Z</time></trkpt><trkpt lat="40.861145961916584" lon="8.992232572609575"><ele>108.66666666666666</ele><time>2026-04-30T09:23:04.001Z</time></trkpt><trkpt lat="40.86131728011596" lon="8.992316634244785"><ele>107.33333333333334</ele><time>2026-04-30T09:23:05.001Z</time></trkpt><trkpt lat="40.86147795957716" lon="8.992376098522268"><ele>106.0</ele><time>2026-04-30T09:23:06.001Z</time></trkpt><trkpt lat="40.861645814218456" lon="8.992443373382471"><ele>106.25</ele><time>2026-04-30T09:23:07.001Z</time></trkpt><trkpt lat="40.86178494171916" lon="8.992502059009151"><ele>106.5</ele><time>2026-04-30T09:23:08.001Z</time></trkpt><trkpt lat="40.86190147155421" lon="8.992554695713004"><ele>106.75</ele><time>2026-04-30T09:23:09.001Z</time></trkpt><trkpt lat="40.86200293712484" lon="8.99260996720053"><ele>107.0</ele><time>2026-04-30T09:23:10.001Z</time></trkpt><trkpt lat="40.86208525158573" lon="8.992680279483146"><ele>107.49999999999999</ele><time>2026-04-30T09:23:11.001Z</time></trkpt><trkpt lat="40.862145012885456" lon="8.992756821677418"><ele>108.0</ele><time>2026-04-30T09:23:12.001Z</time></trkpt><trkpt lat="40.86219567088734" lon="8.992843681070404"><ele>108.5</ele><time>2026-04-30T09:23:13.001Z</time></trkpt><trkpt lat="40.86223908007691" lon="8.992944413158629"><ele>109.0</ele><time>2026-04-30T09:23:14.001Z</time></trkpt><trkpt lat="40.862270404670134" lon="8.993048036619317"><ele>109.49999999999999</ele><time>2026-04-30T09:23:15.001Z</time></trkpt><trkpt lat="40.86229899871718" lon="8.993163490674469"><ele>110.0</ele><time>2026-04-30T09:23:16.001Z</time></trkpt><trkpt lat="40.86228816395305" lon="8.993292131375348"><ele>110.4</ele><time>2026-04-30T09:23:17.001Z</time></trkpt><trkpt lat="40.862278660485146" lon="8.9934200560697"><ele>110.8</ele><time>2026-04-30T09:23:18.001Z</time></trkpt><trkpt lat="40.862257105116406" lon="8.99353975884923"><ele>111.19999999999999</ele><time>2026-04-30T09:23:19.001Z</time></trkpt><trkpt lat="40.86223467069942" lon="8.99366038972006"><ele>111.6</ele><time>2026-04-30T09:23:20.001Z</time></trkpt><trkpt lat="40.862221314003136" lon="8.993778985574238"><ele>112.0</ele><time>2026-04-30T09:23:21.001Z</time></trkpt><trkpt lat="40.86221683381723" lon="8.993885516878429"><ele>112.00000000000001</ele><time>2026-04-30T09:23:22.001Z</time></trkpt><trkpt lat="40.86224482606667" lon="8.993971888681545"><ele>112.0</ele><time>2026-04-30T09:23:23.001Z</time></trkpt><trkpt lat="40.862260614099156" lon="8.994086421807724"><ele>112.0</ele><time>2026-04-30T09:23:25.001Z</time></trkpt><trkpt lat="40.86227444019618" lon="8.994208159141916"><ele>112.0</ele><time>2026-04-30T09:24:03Z</time></trkpt><trkpt lat="40.862303019915124" lon="8.994347594968522"><ele>112.00000000000001</ele><time>2026-04-30T09:24:05Z</time></trkpt><trkpt lat="40.862321094004585" lon="8.994433863177047"><ele>112.0</ele><time>2026-04-30T09:24:06Z</time></trkpt><trkpt lat="40.86233805084783" lon="8.994523838712185"><ele>112.83333333333334</ele><time>2026-04-30T09:24:07Z</time></trkpt><trkpt lat="40.8623520116185" lon="8.994614438139164"><ele>113.66666666666667</ele><time>2026-04-30T09:24:08Z</time></trkpt><trkpt lat="40.86236376036551" lon="8.99469668204079"><ele>114.5</ele><time>2026-04-30T09:24:09Z</time></trkpt><trkpt lat="40.86236983945035" lon="8.994789957243393"><ele>115.33333333333334</ele><time>2026-04-30T09:24:10Z</time></trkpt><trkpt lat="40.86237227936617" lon="8.994891941135224"><ele>116.16666666666667</ele><time>2026-04-30T09:24:11Z</time></trkpt><trkpt lat="40.862370705132285" lon="8.995009031350229"><ele>117.0</ele><time>2026-04-30T09:24:12Z</time></trkpt><trkpt lat="40.8623669678765" lon="8.99513447829393"><ele>118.39999999999999</ele><time>2026-04-30T09:24:13Z</time></trkpt><trkpt lat="40.86236140205698" lon="8.995270625555186"><ele>119.79999999999998</ele><time>2026-04-30T09:24:14Z</time></trkpt><trkpt lat="40.86235548182242" lon="8.995415442302939"><ele>121.2</ele><time>2026-04-30T09:24:15Z</time></trkpt><trkpt lat="40.86234903816026" lon="8.995561144123638"><ele>122.6</ele><time>2026-04-30T09:24:16Z</time></trkpt><trkpt lat="40.862342342643935" lon="8.995710307482932"><ele>124.0</ele><time>2026-04-30T09:24:17Z</time></trkpt><trkpt lat="40.862335751344226" lon="8.995857149017166"><ele>124.25</ele><time>2026-04-30T09:24:18Z</time></trkpt><trkpt lat="40.8623289703223" lon="8.996008217229978"><ele>124.5</ele><time>2026-04-30T09:24:19Z</time></trkpt><trkpt lat="40.862338021151984" lon="8.996172165670245"><ele>124.75</ele><time>2026-04-30T09:24:20Z</time></trkpt><trkpt lat="40.862328682430686" lon="8.99633824565974"><ele>125.0</ele><time>2026-04-30T09:24:21Z</time></trkpt><trkpt lat="40.862312297793814" lon="8.996514716140569"><ele>125.5</ele><time>2026-04-30T09:24:22Z</time></trkpt><trkpt lat="40.8622997944645" lon="8.996691024945509"><ele>126.0</ele><time>2026-04-30T09:24:23Z</time></trkpt><trkpt lat="40.86228729959215" lon="8.996876393720562"><ele>126.5</ele><time>2026-04-30T09:24:24Z</time></trkpt><trkpt lat="40.86226270888896" lon="8.997068228592006"><ele>127.0</ele><time>2026-04-30T09:24:25Z</time></trkpt><trkpt lat="40.86225829976033" lon="8.997269670050692"><ele>127.0</ele><time>2026-04-30T09:24:26Z</time></trkpt><trkpt lat="40.862241816245245" lon="8.997471956999966"><ele>127.0</ele><time>2026-04-30T09:24:27Z</time></trkpt><trkpt lat="40.8622192199644" lon="8.997677514728107"><ele>127.0</ele><time>2026-04-30T09:24:28Z</time></trkpt><trkpt lat="40.86219192885027" lon="8.997886375387779"><ele>129.0</ele><time>2026-04-30T09:24:29Z</time></trkpt><trkpt lat="40.86215974038909" lon="8.99809935542786"><ele>131.0</ele><time>2026-04-30T09:24:30Z</time></trkpt><trkpt lat="40.86212490729441" lon="8.998312935592965"><ele>133.0</ele><time>2026-04-30T09:24:31Z</time></trkpt><trkpt lat="40.86207089657058" lon="8.998522573225477"><ele>133.66666666666669</ele><time>2026-04-30T09:24:32Z</time></trkpt><trkpt lat="40.86203222696209" lon="8.998734684608968"><ele>134.33333333333334</ele><time>2026-04-30T09:24:33Z</time></trkpt><trkpt lat="40.86199585095985" lon="8.998944491000783"><ele>135.0</ele><time>2026-04-30T09:24:34Z</time></trkpt><trkpt lat="40.86196109234641" lon="8.99915540702917"><ele>136.0</ele><time>2026-04-30T09:24:35Z</time></trkpt><trkpt lat="40.861941278249496" lon="8.99937643387534"><ele>137.0</ele><time>2026-04-30T09:24:36Z</time></trkpt><trkpt lat="40.861947304859946" lon="8.999607799770269"><ele>138.0</ele><time>2026-04-30T09:24:37.001Z</time></trkpt><trkpt lat="40.861961290440156" lon="8.999839668267974"><ele>138.0</ele><time>2026-04-30T09:24:38.001Z</time></trkpt><trkpt lat="40.86197640769832" lon="9.000075887962439"><ele>138.0</ele><time>2026-04-30T09:24:39.001Z</time></trkpt><trkpt lat="40.862007906311526" lon="9.000314510363028"><ele>138.0</ele><time>2026-04-30T09:24:40.001Z</time></trkpt><trkpt lat="40.86205719589385" lon="9.00055186945266"><ele>138.0</ele><time>2026-04-30T09:24:41.001Z</time></trkpt><trkpt lat="40.8621230611422" lon="9.000789163341107"><ele>138.0</ele><time>2026-04-30T09:24:42.001Z</time></trkpt><trkpt lat="40.862195607204555" lon="9.00102627201986"><ele>138.0</ele><time>2026-04-30T09:24:43.001Z</time></trkpt><trkpt lat="40.86226608466807" lon="9.00125668615379"><ele>139.0</ele><time>2026-04-30T09:24:44.001Z</time></trkpt><trkpt lat="40.862335389356986" lon="9.001483790379071"><ele>140.0</ele><time>2026-04-30T09:24:45.001Z</time></trkpt><trkpt lat="40.86240366819985" lon="9.001707533103511"><ele>141.0</ele><time>2026-04-30T09:24:46.001Z</time></trkpt><trkpt lat="40.86248392851366" lon="9.001919331466105"><ele>142.0</ele><time>2026-04-30T09:24:47.001Z</time></trkpt><trkpt lat="40.862547827239034" lon="9.002136083111164"><ele>143.0</ele><time>2026-04-30T09:24:48.001Z</time></trkpt><trkpt lat="40.86261127298245" lon="9.002345065095234"><ele>144.0</ele><time>2026-04-30T09:24:49.001Z</time></trkpt><trkpt lat="40.862682155671" lon="9.002546282176791"><ele>147.0</ele><time>2026-04-30T09:24:50.001Z</time></trkpt><trkpt lat="40.86275636337144" lon="9.002725610482042"><ele>150.0</ele><time>2026-04-30T09:24:51.001Z</time></trkpt><trkpt lat="40.86286796316814" lon="9.002974935066574"><ele>153.0</ele><time>2026-04-30T09:24:52.001Z</time></trkpt><trkpt lat="40.86297331704799" lon="9.003165714542916"><ele>152.33333333333334</ele><time>2026-04-30T09:24:53.001Z</time></trkpt><trkpt lat="40.86307784608046" lon="9.003349722508922"><ele>151.66666666666669</ele><time>2026-04-30T09:24:54.001Z</time></trkpt><trkpt lat="40.86318013678265" lon="9.003530990288874"><ele>151.0</ele><time>2026-04-30T09:24:55.001Z</time></trkpt><trkpt lat="40.86325176374635" lon="9.003730375241785"><ele>151.0</ele><time>2026-04-30T09:24:56.001Z</time></trkpt><trkpt lat="40.86330818501257" lon="9.003923277131687"><ele>151.0</ele><time>2026-04-30T09:24:57.001Z</time></trkpt><trkpt lat="40.86334186073748" lon="9.004134132637079"><ele>151.0</ele><time>2026-04-30T09:24:58.001Z</time></trkpt><trkpt lat="40.86336997596385" lon="9.00436083311307"><ele>152.33333333333334</ele><time>2026-04-30T09:24:59.001Z</time></trkpt><trkpt lat="40.863397650996525" lon="9.004592811670697"><ele>153.66666666666666</ele><time>2026-04-30T09:25:00.001Z</time></trkpt><trkpt lat="40.86342488978856" lon="9.004833601424567"><ele>155.0</ele><time>2026-04-30T09:25:01.001Z</time></trkpt><trkpt lat="40.863452358230525" lon="9.005076421365839"><ele>158.66666666666666</ele><time>2026-04-30T09:25:02.001Z</time></trkpt><trkpt lat="40.863480621791666" lon="9.005323640300315"><ele>162.33333333333334</ele><time>2026-04-30T09:25:03.001Z</time></trkpt><trkpt lat="40.86351134608568" lon="9.005575346606435"><ele>166.0</ele><time>2026-04-30T09:25:04.001Z</time></trkpt><trkpt lat="40.863542456535534" lon="9.005828420417346"><ele>162.66666666666669</ele><time>2026-04-30T09:25:05.001Z</time></trkpt><trkpt lat="40.863572790588556" lon="9.006084620170528"><ele>159.33333333333334</ele><time>2026-04-30T09:25:06.001Z</time></trkpt><trkpt lat="40.8636022367316" lon="9.006341222470496"><ele>156.0</ele><time>2026-04-30T09:25:07.001Z</time></trkpt><trkpt lat="40.863631878140275" lon="9.006599526600123"><ele>152.33333333333334</ele><time>2026-04-30T09:25:08.001Z</time></trkpt><trkpt lat="40.86366162248144" lon="9.00685710756009"><ele>148.66666666666669</ele><time>2026-04-30T09:25:09.001Z</time></trkpt><trkpt lat="40.86370817216862" lon="9.007113915359957"><ele>145.0</ele><time>2026-04-30T09:25:10.001Z</time></trkpt><trkpt lat="40.86373872799778" lon="9.007374215777853"><ele>142.66666666666669</ele><time>2026-04-30T09:25:11.001Z</time></trkpt><trkpt lat="40.86378349047596" lon="9.007634016584596"><ele>140.33333333333334</ele><time>2026-04-30T09:25:12.001Z</time></trkpt><trkpt lat="40.863847836275305" lon="9.007894892399685"><ele>138.0</ele><time>2026-04-30T09:25:13.001Z</time></trkpt><trkpt lat="40.86392162049852" lon="9.008153527436923"><ele>136.5</ele><time>2026-04-30T09:25:14.001Z</time></trkpt><trkpt lat="40.863971318946625" lon="9.008444667414091"><ele>135.0</ele><time>2026-04-30T09:25:15.001Z</time></trkpt><trkpt lat="40.86401518820617" lon="9.008737132407196"><ele>135.0</ele><time>2026-04-30T09:25:16.001Z</time></trkpt><trkpt lat="40.864059735203924" lon="9.009031901548099"><ele>135.0</ele><time>2026-04-30T09:25:17.001Z</time></trkpt><trkpt lat="40.86410237247725" lon="9.009312016496823"><ele>135.0</ele><time>2026-04-30T09:25:18.001Z</time></trkpt><trkpt lat="40.864140932314164" lon="9.009587647980814"><ele>135.66666666666666</ele><time>2026-04-30T09:25:19.001Z</time></trkpt><trkpt lat="40.86417326593351" lon="9.00985002021158"><ele>136.33333333333331</ele><time>2026-04-30T09:25:20.001Z</time></trkpt><trkpt lat="40.86420171513744" lon="9.010100801373719"><ele>137.0</ele><time>2026-04-30T09:25:21.001Z</time></trkpt><trkpt lat="40.864227805269195" lon="9.010348686987147"><ele>136.0</ele><time>2026-04-30T09:25:22.002Z</time></trkpt><trkpt lat="40.86426629798401" lon="9.010571186326564"><ele>135.0</ele><time>2026-04-30T09:25:23.002Z</time></trkpt><trkpt lat="40.864292120019286" lon="9.010828184375972"><ele>134.0</ele><time>2026-04-30T09:25:24.002Z</time></trkpt><trkpt lat="40.86435919940184" lon="9.011055176661653"><ele>134.0</ele><time>2026-04-30T09:25:25.002Z</time></trkpt><trkpt lat="40.86446386185391" lon="9.01125968707359"><ele>134.0</ele><time>2026-04-30T09:25:26.002Z</time></trkpt><trkpt lat="40.86456421986578" lon="9.011473890219518"><ele>134.0</ele><time>2026-04-30T09:25:27.002Z</time></trkpt><trkpt lat="40.864647773444595" lon="9.011702205224129"><ele>133.0</ele><time>2026-04-30T09:25:28.002Z</time></trkpt><trkpt lat="40.864739808685755" lon="9.011906208602563"><ele>132.0</ele><time>2026-04-30T09:25:29.002Z</time></trkpt><trkpt lat="40.86483737947797" lon="9.012096104118806"><ele>131.0</ele><time>2026-04-30T09:25:30.002Z</time></trkpt><trkpt lat="40.864909114022915" lon="9.012356135285323"><ele>129.66666666666666</ele><time>2026-04-30T09:25:31.002Z</time></trkpt><trkpt lat="40.86496108864632" lon="9.012603046042539"><ele>128.33333333333334</ele><time>2026-04-30T09:25:32.002Z</time></trkpt><trkpt lat="40.86500637448942" lon="9.0128686806346"><ele>127.0</ele><time>2026-04-30T09:25:33.002Z</time></trkpt><trkpt lat="40.86504830703736" lon="9.013128588007417"><ele>126.0</ele><time>2026-04-30T09:25:34.002Z</time></trkpt><trkpt lat="40.86508846082803" lon="9.013379361673659"><ele>125.0</ele><time>2026-04-30T09:25:35.002Z</time></trkpt><trkpt lat="40.865120411837744" lon="9.013631530675699"><ele>124.0</ele><time>2026-04-30T09:25:36.002Z</time></trkpt><trkpt lat="40.86514183528543" lon="9.013893148661305"><ele>122.33333333333334</ele><time>2026-04-30T09:25:37.002Z</time></trkpt><trkpt lat="40.86513635626043" lon="9.014150420405377"><ele>120.66666666666666</ele><time>2026-04-30T09:25:38.002Z</time></trkpt><trkpt lat="40.86512306398535" lon="9.014403277463495"><ele>119.0</ele><time>2026-04-30T09:25:39.002Z</time></trkpt><trkpt lat="40.8651102937207" lon="9.014631883457952"><ele>121.0</ele><time>2026-04-30T09:25:40.002Z</time></trkpt><trkpt lat="40.86511827156488" lon="9.014863511501712"><ele>123.0</ele><time>2026-04-30T09:25:41.002Z</time></trkpt><trkpt lat="40.865156055068084" lon="9.01509762928165"><ele>125.0</ele><time>2026-04-30T09:25:42Z</time></trkpt><trkpt lat="40.865222126644596" lon="9.01532117691966"><ele>125.0</ele><time>2026-04-30T09:25:43Z</time></trkpt><trkpt lat="40.86531068206154" lon="9.015532355375251"><ele>125.0</ele><time>2026-04-30T09:25:44Z</time></trkpt><trkpt lat="40.86542400510758" lon="9.015731496406424"><ele>125.0</ele><time>2026-04-30T09:25:45Z</time></trkpt><trkpt lat="40.86552092322413" lon="9.015972387523181"><ele>125.33333333333333</ele><time>2026-04-30T09:25:46Z</time></trkpt><trkpt lat="40.865635520880645" lon="9.016209430300316"><ele>125.66666666666666</ele><time>2026-04-30T09:25:47Z</time></trkpt><trkpt lat="40.86574968613801" lon="9.016445578605776"><ele>126.0</ele><time>2026-04-30T09:25:48Z</time></trkpt><trkpt lat="40.86585905601113" lon="9.016671807814895"><ele>130.0</ele><time>2026-04-30T09:25:49Z</time></trkpt><trkpt lat="40.86596549779582" lon="9.016891980340494"><ele>134.0</ele><time>2026-04-30T09:25:50Z</time></trkpt><trkpt lat="40.86606739937006" lon="9.017102761428115"><ele>138.0</ele><time>2026-04-30T09:25:51Z</time></trkpt><trkpt lat="40.866170597294754" lon="9.017314296877935"><ele>137.0</ele><time>2026-04-30T09:25:52Z</time></trkpt><trkpt lat="40.86627451921574" lon="9.017518326500614"><ele>136.0</ele><time>2026-04-30T09:25:53Z</time></trkpt><trkpt lat="40.86637904616916" lon="9.017714869312124"><ele>135.0</ele><time>2026-04-30T09:25:54Z</time></trkpt><trkpt lat="40.86648797767093" lon="9.017906170294824"><ele>135.0</ele><time>2026-04-30T09:25:55Z</time></trkpt><trkpt lat="40.86660060246703" lon="9.018093836151602"><ele>135.0</ele><time>2026-04-30T09:25:56Z</time></trkpt><trkpt lat="40.86671965639142" lon="9.018259318169473"><ele>135.0</ele><time>2026-04-30T09:25:57Z</time></trkpt><trkpt lat="40.86681355523193" lon="9.018444453625907"><ele>136.0</ele><time>2026-04-30T09:25:58Z</time></trkpt><trkpt lat="40.8669191287506" lon="9.018622008245542"><ele>137.0</ele><time>2026-04-30T09:25:59Z</time></trkpt><trkpt lat="40.867024023799374" lon="9.01879968637686"><ele>138.0</ele><time>2026-04-30T09:26:00Z</time></trkpt><trkpt lat="40.8671407278998" lon="9.01896955481966"><ele>136.66666666666666</ele><time>2026-04-30T09:26:01Z</time></trkpt><trkpt lat="40.86724966225761" lon="9.019177445289428"><ele>135.33333333333331</ele><time>2026-04-30T09:26:02Z</time></trkpt><trkpt lat="40.86734036667546" lon="9.019354871367792"><ele>134.0</ele><time>2026-04-30T09:26:03Z</time></trkpt><trkpt lat="40.86742838790205" lon="9.01957021102805"><ele>134.0</ele><time>2026-04-30T09:26:04Z</time></trkpt><trkpt lat="40.86751864963661" lon="9.019788823825088"><ele>134.0</ele><time>2026-04-30T09:26:05Z</time></trkpt><trkpt lat="40.86760431471156" lon="9.019999980876817"><ele>134.0</ele><time>2026-04-30T09:26:06Z</time></trkpt><trkpt lat="40.86768481875311" lon="9.020198416406084"><ele>134.5</ele><time>2026-04-30T09:26:07Z</time></trkpt><trkpt lat="40.86775937956313" lon="9.02038220246644"><ele>135.0</ele><time>2026-04-30T09:26:08Z</time></trkpt><trkpt lat="40.86782715913759" lon="9.020549273338895"><ele>135.5</ele><time>2026-04-30T09:26:09Z</time></trkpt><trkpt lat="40.86788993662411" lon="9.020705670657291"><ele>136.0</ele><time>2026-04-30T09:26:10Z</time></trkpt><trkpt lat="40.86794807246895" lon="9.020850840734196"><ele>136.0</ele><time>2026-04-30T09:26:11Z</time></trkpt><trkpt lat="40.86799953326768" lon="9.020978886198975"><ele>136.0</ele><time>2026-04-30T09:26:12Z</time></trkpt><trkpt lat="40.86804972797987" lon="9.021103781373919"><ele>136.0</ele><time>2026-04-30T09:26:13.001Z</time></trkpt><trkpt lat="40.86809659411007" lon="9.02122039432739"><ele>136.0</ele><time>2026-04-30T09:26:14.001Z</time></trkpt><trkpt lat="40.86814486673467" lon="9.021340506950658"><ele>136.0</ele><time>2026-04-30T09:26:15.001Z</time></trkpt><trkpt lat="40.86820485095977" lon="9.0214497068987"><ele>136.0</ele><time>2026-04-30T09:26:16.001Z</time></trkpt><trkpt lat="40.86825009421067" lon="9.02156876201593"><ele>136.0</ele><time>2026-04-30T09:26:17.001Z</time></trkpt><trkpt lat="40.86829554940789" lon="9.021682695087334"><ele>136.0</ele><time>2026-04-30T09:26:18.001Z</time></trkpt><trkpt lat="40.868341155779845" lon="9.021795914484803"><ele>136.0</ele><time>2026-04-30T09:26:19.001Z</time></trkpt><trkpt lat="40.86838560773846" lon="9.021909492960388"><ele>136.0</ele><time>2026-04-30T09:26:20.001Z</time></trkpt><trkpt lat="40.86842161253727" lon="9.02201059410644"><ele>137.16666666666669</ele><time>2026-04-30T09:26:21.001Z</time></trkpt><trkpt lat="40.868446385630925" lon="9.022095661392704"><ele>138.33333333333334</ele><time>2026-04-30T09:26:22.001Z</time></trkpt><trkpt lat="40.86847190213451" lon="9.022193325324066"><ele>139.5</ele><time>2026-04-30T09:26:24.001Z</time></trkpt><trkpt lat="40.86849915409778" lon="9.022274368164956"><ele>140.66666666666666</ele><time>2026-04-30T09:26:49.001Z</time></trkpt><trkpt lat="40.868557634892554" lon="9.022354781569724"><ele>141.83333333333331</ele><time>2026-04-30T09:26:51.001Z</time></trkpt><trkpt lat="40.86861782220587" lon="9.022476771895537"><ele>143.0</ele><time>2026-04-30T09:26:53.001Z</time></trkpt><trkpt lat="40.868676184306004" lon="9.022613904813221"><ele>143.6</ele><time>2026-04-30T09:26:55.001Z</time></trkpt><trkpt lat="40.86873678168212" lon="9.02276654375276"><ele>144.20000000000002</ele><time>2026-04-30T09:26:57.001Z</time></trkpt><trkpt lat="40.8687667736247" lon="9.022851384691387"><ele>144.8</ele><time>2026-04-30T09:26:58.001Z</time></trkpt><trkpt lat="40.868804058623624" lon="9.022944886998669"><ele>145.4</ele><time>2026-04-30T09:26:59.002Z</time></trkpt><trkpt lat="40.8688448228675" lon="9.023043639137498"><ele>146.0</ele><time>2026-04-30T09:27:00.002Z</time></trkpt><trkpt lat="40.868889498272345" lon="9.023148055568987"><ele>146.0</ele><time>2026-04-30T09:27:01.002Z</time></trkpt><trkpt lat="40.8689331943542" lon="9.023255484316602"><ele>146.0</ele><time>2026-04-30T09:27:02.002Z</time></trkpt><trkpt lat="40.868974018827025" lon="9.023368884827315"><ele>146.0</ele><time>2026-04-30T09:27:03.002Z</time></trkpt><trkpt lat="40.869009592832214" lon="9.023494087141625"><ele>146.0</ele><time>2026-04-30T09:27:04.002Z</time></trkpt><trkpt lat="40.86904349121755" lon="9.023632711053969"><ele>146.0</ele><time>2026-04-30T09:27:05.002Z</time></trkpt><trkpt lat="40.86907277658527" lon="9.023783842028028"><ele>145.5</ele><time>2026-04-30T09:27:06.002Z</time></trkpt><trkpt lat="40.869098292584106" lon="9.023953958641304"><ele>145.0</ele><time>2026-04-30T09:27:07.002Z</time></trkpt><trkpt lat="40.86911933777178" lon="9.024120066289667"><ele>144.5</ele><time>2026-04-30T09:27:08.002Z</time></trkpt><trkpt lat="40.8691436584394" lon="9.024287540702872"><ele>144.0</ele><time>2026-04-30T09:27:09.002Z</time></trkpt><trkpt lat="40.86916751461228" lon="9.024457583271545"><ele>142.5</ele><time>2026-04-30T09:27:10.002Z</time></trkpt><trkpt lat="40.86916338419662" lon="9.024627463039108"><ele>141.0</ele><time>2026-04-30T09:27:11.002Z</time></trkpt><trkpt lat="40.86917649064512" lon="9.024795095932017"><ele>139.5</ele><time>2026-04-30T09:27:12.002Z</time></trkpt><trkpt lat="40.86916081844288" lon="9.024960493012484"><ele>138.0</ele><time>2026-04-30T09:27:13.002Z</time></trkpt><trkpt lat="40.86913467583732" lon="9.025111785947233"><ele>137.20000000000002</ele><time>2026-04-30T09:27:14.002Z</time></trkpt><trkpt lat="40.86912010253648" lon="9.025247875709043"><ele>136.4</ele><time>2026-04-30T09:27:15.002Z</time></trkpt><trkpt lat="40.86911124084743" lon="9.02540443594613"><ele>135.60000000000002</ele><time>2026-04-30T09:27:16.002Z</time></trkpt><trkpt lat="40.86911854650264" lon="9.02552571699992"><ele>134.8</ele><time>2026-04-30T09:27:17.002Z</time></trkpt><trkpt lat="40.86916339847948" lon="9.025675716639999"><ele>134.0</ele><time>2026-04-30T09:27:18.002Z</time></trkpt><trkpt lat="40.86917542938925" lon="9.025834376740823"><ele>133.0</ele><time>2026-04-30T09:27:19.002Z</time></trkpt><trkpt lat="40.86919685563752" lon="9.026013459345572"><ele>132.0</ele><time>2026-04-30T09:27:20.002Z</time></trkpt><trkpt lat="40.86921619001972" lon="9.0262027065973"><ele>131.0</ele><time>2026-04-30T09:27:21.002Z</time></trkpt><trkpt lat="40.86923337040745" lon="9.026386055173408"><ele>130.0</ele><time>2026-04-30T09:27:22.002Z</time></trkpt><trkpt lat="40.86925195372844" lon="9.02658456417801"><ele>130.0</ele><time>2026-04-30T09:27:23.002Z</time></trkpt><trkpt lat="40.86927002552307" lon="9.026784113487393"><ele>130.0</ele><time>2026-04-30T09:27:24.002Z</time></trkpt><trkpt lat="40.86928704616812" lon="9.026976646971297"><ele>130.0</ele><time>2026-04-30T09:27:25.002Z</time></trkpt><trkpt lat="40.86930479626918" lon="9.027176055997318"><ele>132.33333333333334</ele><time>2026-04-30T09:27:26.002Z</time></trkpt><trkpt lat="40.8693232129997" lon="9.027382954149747"><ele>134.66666666666666</ele><time>2026-04-30T09:27:27.002Z</time></trkpt><trkpt lat="40.86934257641172" lon="9.027600487512661"><ele>137.0</ele><time>2026-04-30T09:27:28.002Z</time></trkpt><trkpt lat="40.8693613908136" lon="9.027811853157148"><ele>139.33333333333331</ele><time>2026-04-30T09:27:29.002Z</time></trkpt><trkpt lat="40.86938139321241" lon="9.028023949870155"><ele>141.66666666666666</ele><time>2026-04-30T09:27:30.002Z</time></trkpt><trkpt lat="40.86940502580129" lon="9.028226468701936"><ele>144.0</ele><time>2026-04-30T09:27:31.002Z</time></trkpt><trkpt lat="40.86943209657163" lon="9.028399874310205"><ele>144.5</ele><time>2026-04-30T09:27:32.002Z</time></trkpt><trkpt lat="40.86948789503387" lon="9.028574363847321"><ele>145.0</ele><time>2026-04-30T09:27:33.002Z</time></trkpt><trkpt lat="40.86956659024729" lon="9.028734803038576"><ele>145.5</ele><time>2026-04-30T09:27:34.002Z</time></trkpt><trkpt lat="40.8696652338116" lon="9.028878965858494"><ele>146.0</ele><time>2026-04-30T09:27:35.002Z</time></trkpt><trkpt lat="40.86978539114254" lon="9.029003545660377"><ele>146.0</ele><time>2026-04-30T09:27:36.002Z</time></trkpt><trkpt lat="40.869917498625824" lon="9.029119036990915"><ele>146.0</ele><time>2026-04-30T09:27:37.002Z</time></trkpt><trkpt lat="40.87004992954039" lon="9.029225533269312"><ele>146.0</ele><time>2026-04-30T09:27:38.002Z</time></trkpt><trkpt lat="40.870190884727826" lon="9.029342668844265"><ele>145.33333333333331</ele><time>2026-04-30T09:27:39.002Z</time></trkpt><trkpt lat="40.870334607432" lon="9.029462533301281"><ele>144.66666666666666</ele><time>2026-04-30T09:27:40.002Z</time></trkpt><trkpt lat="40.870476791509134" lon="9.029581079915452"><ele>144.0</ele><time>2026-04-30T09:27:41.002Z</time></trkpt><trkpt lat="40.870624740963876" lon="9.02968443908729"><ele>144.0</ele><time>2026-04-30T09:27:42.002Z</time></trkpt><trkpt lat="40.8707662580679" lon="9.029802856402968"><ele>144.0</ele><time>2026-04-30T09:27:43.002Z</time></trkpt><trkpt lat="40.870903875101995" lon="9.029916776668733"><ele>144.0</ele><time>2026-04-30T09:27:44.002Z</time></trkpt><trkpt lat="40.87103446139082" lon="9.030024998062192"><ele>144.0</ele><time>2026-04-30T09:27:45.002Z</time></trkpt><trkpt lat="40.87115610803047" lon="9.03012895767344"><ele>144.0</ele><time>2026-04-30T09:27:46.003Z</time></trkpt><trkpt lat="40.87127175874627" lon="9.03023792321206"><ele>144.0</ele><time>2026-04-30T09:27:47.003Z</time></trkpt><trkpt lat="40.87137116230911" lon="9.030359799750322"><ele>144.0</ele><time>2026-04-30T09:27:48.002Z</time></trkpt><trkpt lat="40.87146077985672" lon="9.030501150286767"><ele>144.0</ele><time>2026-04-30T09:27:49.002Z</time></trkpt><trkpt lat="40.871532310396255" lon="9.030665394738834"><ele>144.0</ele><time>2026-04-30T09:27:50.002Z</time></trkpt><trkpt lat="40.87157780519198" lon="9.030862597071991"><ele>144.0</ele><time>2026-04-30T09:27:51.002Z</time></trkpt><trkpt lat="40.87163477135193" lon="9.03106613137589"><ele>143.33333333333334</ele><time>2026-04-30T09:27:52.002Z</time></trkpt><trkpt lat="40.87170781836704" lon="9.03126918757052"><ele>142.66666666666669</ele><time>2026-04-30T09:27:53.002Z</time></trkpt><trkpt lat="40.87177171747029" lon="9.031480148205068"><ele>142.0</ele><time>2026-04-30T09:27:54.002Z</time></trkpt><trkpt lat="40.871817025059414" lon="9.031703528107148"><ele>146.66666666666669</ele><time>2026-04-30T09:27:55.002Z</time></trkpt><trkpt lat="40.871874569263035" lon="9.031904808663338"><ele>151.33333333333334</ele><time>2026-04-30T09:27:56.002Z</time></trkpt><trkpt lat="40.871933216871966" lon="9.03210994841324"><ele>156.0</ele><time>2026-04-30T09:27:57.002Z</time></trkpt><trkpt lat="40.871990817206914" lon="9.032311846837853"><ele>155.66666666666666</ele><time>2026-04-30T09:27:58.001Z</time></trkpt><trkpt lat="40.87204808061208" lon="9.032513440344724"><ele>155.33333333333331</ele><time>2026-04-30T09:27:59.001Z</time></trkpt><trkpt lat="40.87211854934918" lon="9.032707068086465"><ele>155.0</ele><time>2026-04-30T09:28:00.001Z</time></trkpt><trkpt lat="40.87217395881628" lon="9.03290503135619"><ele>155.0</ele><time>2026-04-30T09:28:01.001Z</time></trkpt><trkpt lat="40.87221459399989" lon="9.03309964374436"><ele>155.0</ele><time>2026-04-30T09:28:02.001Z</time></trkpt><trkpt lat="40.872267187521025" lon="9.033284797097323"><ele>155.0</ele><time>2026-04-30T09:28:03.001Z</time></trkpt><trkpt lat="40.87231570322525" lon="9.033455594598895"><ele>155.0</ele><time>2026-04-30T09:28:04.001Z</time></trkpt><trkpt lat="40.87236017695344" lon="9.033612162555622"><ele>154.4</ele><time>2026-04-30T09:28:05.001Z</time></trkpt><trkpt lat="40.87240182413862" lon="9.03375877968088"><ele>153.8</ele><time>2026-04-30T09:28:06.001Z</time></trkpt><trkpt lat="40.87245512146015" lon="9.033890641518807"><ele>153.2</ele><time>2026-04-30T09:28:07.001Z</time></trkpt><trkpt lat="40.87249104529455" lon="9.034019677859186"><ele>152.6</ele><time>2026-04-30T09:28:08.001Z</time></trkpt><trkpt lat="40.872527140796954" lon="9.034148512568484"><ele>152.0</ele><time>2026-04-30T09:28:09.001Z</time></trkpt><trkpt lat="40.87256864321869" lon="9.034271373207314"><ele>155.0</ele><time>2026-04-30T09:28:10.001Z</time></trkpt><trkpt lat="40.87261647108036" lon="9.034389636193609"><ele>158.0</ele><time>2026-04-30T09:28:11.001Z</time></trkpt><trkpt lat="40.87267304321732" lon="9.034497148005519"><ele>161.0</ele><time>2026-04-30T09:28:12.001Z</time></trkpt><trkpt lat="40.87272356467772" lon="9.034613645176803"><ele>164.0</ele><time>2026-04-30T09:28:13.001Z</time></trkpt><trkpt lat="40.872786190143124" lon="9.03470292648718"><ele>167.0</ele><time>2026-04-30T09:28:14.001Z</time></trkpt><trkpt lat="40.87284587902714" lon="9.034780097507339"><ele>167.0</ele><time>2026-04-30T09:28:15.001Z</time></trkpt><trkpt lat="40.87290523734325" lon="9.034857344718468"><ele>167.0</ele><time>2026-04-30T09:28:16.001Z</time></trkpt><trkpt lat="40.87297609062845" lon="9.034921858140127"><ele>167.0</ele><time>2026-04-30T09:28:17.001Z</time></trkpt><trkpt lat="40.87303614846229" lon="9.035012866590433"><ele>167.0</ele><time>2026-04-30T09:28:18.001Z</time></trkpt><trkpt lat="40.87310678538138" lon="9.035111798699543"><ele>167.0</ele><time>2026-04-30T09:28:19.001Z</time></trkpt><trkpt lat="40.87319126446035" lon="9.03521649175752"><ele>167.5</ele><time>2026-04-30T09:28:20.001Z</time></trkpt><trkpt lat="40.873277178190754" lon="9.035319510175217"><ele>168.0</ele><time>2026-04-30T09:28:21.001Z</time></trkpt><trkpt lat="40.87335951331353" lon="9.035423426138536"><ele>168.5</ele><time>2026-04-30T09:28:22.001Z</time></trkpt><trkpt lat="40.87343475179131" lon="9.035550065877983"><ele>169.0</ele><time>2026-04-30T09:28:23.001Z</time></trkpt><trkpt lat="40.8735305651655" lon="9.035652446225534"><ele>169.0</ele><time>2026-04-30T09:28:24.001Z</time></trkpt><trkpt lat="40.87361053269192" lon="9.035783174162052"><ele>169.0</ele><time>2026-04-30T09:28:25.001Z</time></trkpt><trkpt lat="40.87369579806395" lon="9.03592001882105"><ele>169.0</ele><time>2026-04-30T09:28:26.001Z</time></trkpt><trkpt lat="40.87375348968409" lon="9.03608200331247"><ele>169.0</ele><time>2026-04-30T09:28:27.001Z</time></trkpt><trkpt lat="40.873812272203395" lon="9.036256056367874"><ele>166.5</ele><time>2026-04-30T09:28:28.001Z</time></trkpt><trkpt lat="40.87387023060656" lon="9.036435310061728"><ele>164.0</ele><time>2026-04-30T09:28:29.001Z</time></trkpt><trkpt lat="40.87392459441796" lon="9.036612525501068"><ele>161.5</ele><time>2026-04-30T09:28:30.001Z</time></trkpt><trkpt lat="40.87398075507972" lon="9.036795831283614"><ele>159.0</ele><time>2026-04-30T09:28:31.001Z</time></trkpt><trkpt lat="40.87403696673578" lon="9.036981119285036"><ele>157.25</ele><time>2026-04-30T09:28:32.001Z</time></trkpt><trkpt lat="40.874090968722456" lon="9.037159123470936"><ele>155.5</ele><time>2026-04-30T09:28:33.001Z</time></trkpt><trkpt lat="40.874144367875765" lon="9.037335140666238"><ele>153.75</ele><time>2026-04-30T09:28:34.001Z</time></trkpt><trkpt lat="40.874199598526644" lon="9.037513507727649"><ele>152.0</ele><time>2026-04-30T09:28:35.001Z</time></trkpt><trkpt lat="40.87425464253772" lon="9.03768777218636"><ele>154.5</ele><time>2026-04-30T09:28:36.001Z</time></trkpt><trkpt lat="40.8743078249437" lon="9.037862365069845"><ele>157.0</ele><time>2026-04-30T09:28:37.001Z</time></trkpt><trkpt lat="40.874360010677336" lon="9.038033685912563"><ele>159.5</ele><time>2026-04-30T09:28:38.001Z</time></trkpt><trkpt lat="40.874412653581025" lon="9.038206507599568"><ele>162.0</ele><time>2026-04-30T09:28:39.001Z</time></trkpt><trkpt lat="40.874468352947524" lon="9.038383618253496"><ele>162.0</ele><time>2026-04-30T09:28:40.001Z</time></trkpt><trkpt lat="40.87452479136286" lon="9.038562636659583"><ele>162.0</ele><time>2026-04-30T09:28:41.001Z</time></trkpt><trkpt lat="40.87458992762308" lon="9.038744908159101"><ele>162.0</ele><time>2026-04-30T09:28:42.001Z</time></trkpt><trkpt lat="40.874671345843765" lon="9.038922733764744"><ele>162.0</ele><time>2026-04-30T09:28:43.001Z</time></trkpt><trkpt lat="40.87475725526388" lon="9.039095429179243"><ele>162.0</ele><time>2026-04-30T09:28:44.001Z</time></trkpt><trkpt lat="40.87484349056461" lon="9.039268779740434"><ele>162.0</ele><time>2026-04-30T09:28:45.001Z</time></trkpt><trkpt lat="40.874931814885414" lon="9.039446330027062"><ele>161.66666666666666</ele><time>2026-04-30T09:28:46.001Z</time></trkpt><trkpt lat="40.87501767906203" lon="9.039621385662688"><ele>161.33333333333331</ele><time>2026-04-30T09:28:47.001Z</time></trkpt><trkpt lat="40.87510375847588" lon="9.039796212983536"><ele>161.0</ele><time>2026-04-30T09:28:48.001Z</time></trkpt><trkpt lat="40.875188702161225" lon="9.039968733634174"><ele>161.0</ele><time>2026-04-30T09:28:49.002Z</time></trkpt><trkpt lat="40.87527227338324" lon="9.040138466806905"><ele>161.0</ele><time>2026-04-30T09:28:50.002Z</time></trkpt><trkpt lat="40.87535436635336" lon="9.040305198060837"><ele>161.0</ele><time>2026-04-30T09:28:51.002Z</time></trkpt><trkpt lat="40.875435898597324" lon="9.040472546878757"><ele>161.0</ele><time>2026-04-30T09:28:52.002Z</time></trkpt><trkpt lat="40.87551445112604" lon="9.040634462211145"><ele>161.0</ele><time>2026-04-30T09:28:53.002Z</time></trkpt><trkpt lat="40.875590594489175" lon="9.040793763978552"><ele>161.0</ele><time>2026-04-30T09:28:54.002Z</time></trkpt><trkpt lat="40.87566489524495" lon="9.040950277891387"><ele>161.0</ele><time>2026-04-30T09:28:55.002Z</time></trkpt><trkpt lat="40.87573842884808" lon="9.041099274993295"><ele>161.5</ele><time>2026-04-30T09:28:56.002Z</time></trkpt><trkpt lat="40.87581074180101" lon="9.041250133067729"><ele>162.0</ele><time>2026-04-30T09:28:57.002Z</time></trkpt><trkpt lat="40.87589271394374" lon="9.041395657654572"><ele>162.5</ele><time>2026-04-30T09:28:58.002Z</time></trkpt><trkpt lat="40.875993622777905" lon="9.041522724590338"><ele>163.0</ele><time>2026-04-30T09:28:59.002Z</time></trkpt><trkpt lat="40.876101839239794" lon="9.041638558760097"><ele>163.0</ele><time>2026-04-30T09:29:00.002Z</time></trkpt><trkpt lat="40.87621403429017" lon="9.041751483702123"><ele>163.0</ele><time>2026-04-30T09:29:01.002Z</time></trkpt><trkpt lat="40.8763225330582" lon="9.041865568280798"><ele>163.0</ele><time>2026-04-30T09:29:02.002Z</time></trkpt><trkpt lat="40.876428757037665" lon="9.04197979171593"><ele>163.0</ele><time>2026-04-30T09:29:03.002Z</time></trkpt><trkpt lat="40.876534865482064" lon="9.042095004477588"><ele>163.0</ele><time>2026-04-30T09:29:04.002Z</time></trkpt><trkpt lat="40.87664347957044" lon="9.042206348457256"><ele>163.0</ele><time>2026-04-30T09:29:05.002Z</time></trkpt><trkpt lat="40.876754359885716" lon="9.042316669773244"><ele>163.0</ele><time>2026-04-30T09:29:06.002Z</time></trkpt><trkpt lat="40.87684927922886" lon="9.042453316911207"><ele>163.0</ele><time>2026-04-30T09:29:07.002Z</time></trkpt><trkpt lat="40.876940839275626" lon="9.042599044835104"><ele>165.5</ele><time>2026-04-30T09:29:08.002Z</time></trkpt><trkpt lat="40.877005544567545" lon="9.04276776070314"><ele>168.0</ele><time>2026-04-30T09:29:09.002Z</time></trkpt><trkpt lat="40.877077870616766" lon="9.042933406262291"><ele>170.5</ele><time>2026-04-30T09:29:10.002Z</time></trkpt><trkpt lat="40.877138704779746" lon="9.04309000179633"><ele>173.0</ele><time>2026-04-30T09:29:11.002Z</time></trkpt><trkpt lat="40.87719636661501" lon="9.043236874552358"><ele>172.5</ele><time>2026-04-30T09:29:12.002Z</time></trkpt><trkpt lat="40.877251717970374" lon="9.043380713125433"><ele>172.0</ele><time>2026-04-30T09:29:13.002Z</time></trkpt><trkpt lat="40.87730171659085" lon="9.043527588772129"><ele>171.5</ele><time>2026-04-30T09:29:14.002Z</time></trkpt><trkpt lat="40.87734416982698" lon="9.043674882180058"><ele>171.0</ele><time>2026-04-30T09:29:15.002Z</time></trkpt><trkpt lat="40.877382568705166" lon="9.04382899972234"><ele>171.0</ele><time>2026-04-30T09:29:16.002Z</time></trkpt><trkpt lat="40.8774098266882" lon="9.043988601177931"><ele>171.0</ele><time>2026-04-30T09:29:17.002Z</time></trkpt><trkpt lat="40.877428639566276" lon="9.044152692643246"><ele>171.0</ele><time>2026-04-30T09:29:18.002Z</time></trkpt><trkpt lat="40.87744051380799" lon="9.04431974862144"><ele>171.0</ele><time>2026-04-30T09:29:19.002Z</time></trkpt><trkpt lat="40.87745590643554" lon="9.044487193127477"><ele>169.5</ele><time>2026-04-30T09:29:20.002Z</time></trkpt><trkpt lat="40.87747824827695" lon="9.04465468100259"><ele>168.0</ele><time>2026-04-30T09:29:21.002Z</time></trkpt><trkpt lat="40.87750876949257" lon="9.044816102439784"><ele>166.5</ele><time>2026-04-30T09:29:22.002Z</time></trkpt><trkpt lat="40.877544677837854" lon="9.044973797943783"><ele>165.0</ele><time>2026-04-30T09:29:23.002Z</time></trkpt><trkpt lat="40.87758354786885" lon="9.045130877871525"><ele>168.75</ele><time>2026-04-30T09:29:24.002Z</time></trkpt><trkpt lat="40.877615536271875" lon="9.045288647865158"><ele>172.5</ele><time>2026-04-30T09:29:25.002Z</time></trkpt><trkpt lat="40.877640513024296" lon="9.045444061336246"><ele>176.25</ele><time>2026-04-30T09:29:26.002Z</time></trkpt><trkpt lat="40.87766443496237" lon="9.045600746815724"><ele>180.0</ele><time>2026-04-30T09:29:27.002Z</time></trkpt><trkpt lat="40.8776907770361" lon="9.045758385417589"><ele>179.25</ele><time>2026-04-30T09:29:28.002Z</time></trkpt><trkpt lat="40.877724101109884" lon="9.045895977701754"><ele>178.5</ele><time>2026-04-30T09:29:29.002Z</time></trkpt><trkpt lat="40.87775804038988" lon="9.045995464150952"><ele>177.75</ele><time>2026-04-30T09:29:30.002Z</time></trkpt><trkpt lat="40.877820607879364" lon="9.046101256017561"><ele>177.0</ele><time>2026-04-30T09:29:32.002Z</time></trkpt><trkpt lat="40.87788948203726" lon="9.045862755953978"><ele>177.5</ele><time>2026-04-30T09:29:58.002Z</time></trkpt><trkpt lat="40.87787644303815" lon="9.045779676497933"><ele>178.0</ele><time>2026-04-30T09:29:59.002Z</time></trkpt><trkpt lat="40.87786265192977" lon="9.045688478724475"><ele>178.5</ele><time>2026-04-30T09:30:00.002Z</time></trkpt><trkpt lat="40.877855478035094" lon="9.045602974611242"><ele>179.0</ele><time>2026-04-30T09:30:01.001Z</time></trkpt><trkpt lat="40.87784374961651" lon="9.045485040440372"><ele>179.5</ele><time>2026-04-30T09:30:02.001Z</time></trkpt><trkpt lat="40.87783194170697" lon="9.045357502009507"><ele>180.0</ele><time>2026-04-30T09:30:03.001Z</time></trkpt><trkpt lat="40.87782490063046" lon="9.045227751268706"><ele>180.0</ele><time>2026-04-30T09:30:04.001Z</time></trkpt><trkpt lat="40.877817656916385" lon="9.045031896711743"><ele>180.0</ele><time>2026-04-30T09:30:05.001Z</time></trkpt><trkpt lat="40.877785395122025" lon="9.04485051333322"><ele>180.0</ele><time>2026-04-30T09:30:06.001Z</time></trkpt><trkpt lat="40.87774654848428" lon="9.044672407404368"><ele>180.0</ele><time>2026-04-30T09:30:07.001Z</time></trkpt><trkpt lat="40.87770077288853" lon="9.044476780556252"><ele>181.5</ele><time>2026-04-30T09:30:08.001Z</time></trkpt><trkpt lat="40.877656296116875" lon="9.044294809516444"><ele>183.0</ele><time>2026-04-30T09:30:09.001Z</time></trkpt><trkpt lat="40.877611316527684" lon="9.044110781267259"><ele>184.5</ele><time>2026-04-30T09:30:10.001Z</time></trkpt><trkpt lat="40.87756426282952" lon="9.043922125066167"><ele>186.0</ele><time>2026-04-30T09:30:11.001Z</time></trkpt><trkpt lat="40.877512130066464" lon="9.043724406702923"><ele>181.66666666666666</ele><time>2026-04-30T09:30:12.001Z</time></trkpt><trkpt lat="40.87745558526715" lon="9.043521966171046"><ele>177.33333333333331</ele><time>2026-04-30T09:30:13.001Z</time></trkpt><trkpt lat="40.87738845549626" lon="9.043306788048056"><ele>173.0</ele><time>2026-04-30T09:30:14.001Z</time></trkpt><trkpt lat="40.87731829256765" lon="9.043101804966112"><ele>173.0</ele><time>2026-04-30T09:30:15.001Z</time></trkpt><trkpt lat="40.877249411071396" lon="9.042910929932942"><ele>173.0</ele><time>2026-04-30T09:30:16.001Z</time></trkpt><trkpt lat="40.87717975157869" lon="9.042727910455891"><ele>173.0</ele><time>2026-04-30T09:30:17.001Z</time></trkpt><trkpt lat="40.877105805684984" lon="9.04254484527443"><ele>174.33333333333331</ele><time>2026-04-30T09:30:18.001Z</time></trkpt><trkpt lat="40.8770258760538" lon="9.042371670157976"><ele>175.66666666666666</ele><time>2026-04-30T09:30:19.001Z</time></trkpt><trkpt lat="40.876942615142745" lon="9.042200656051895"><ele>177.0</ele><time>2026-04-30T09:30:20.001Z</time></trkpt><trkpt lat="40.87685456435227" lon="9.042031595631494"><ele>174.25</ele><time>2026-04-30T09:30:21.001Z</time></trkpt><trkpt lat="40.876766322108644" lon="9.041869604376936"><ele>171.5</ele><time>2026-04-30T09:30:22.001Z</time></trkpt><trkpt lat="40.87667953684019" lon="9.041713486600806"><ele>168.75</ele><time>2026-04-30T09:30:23.001Z</time></trkpt><trkpt lat="40.87659450513429" lon="9.041564399338007"><ele>166.0</ele><time>2026-04-30T09:30:24.001Z</time></trkpt><trkpt lat="40.876507296493585" lon="9.041411772803846"><ele>166.0</ele><time>2026-04-30T09:30:25.001Z</time></trkpt><trkpt lat="40.87642534702896" lon="9.041271386787738"><ele>166.0</ele><time>2026-04-30T09:30:26.001Z</time></trkpt><trkpt lat="40.8763448778024" lon="9.041133536565459"><ele>166.0</ele><time>2026-04-30T09:30:27.001Z</time></trkpt><trkpt lat="40.87626395145405" lon="9.040994903236511"><ele>166.0</ele><time>2026-04-30T09:30:28.001Z</time></trkpt><trkpt lat="40.87617979925651" lon="9.040850743771848"><ele>164.75</ele><time>2026-04-30T09:30:29.001Z</time></trkpt><trkpt lat="40.876093750122315" lon="9.040703334694918"><ele>163.5</ele><time>2026-04-30T09:30:30.001Z</time></trkpt><trkpt lat="40.87600350801006" lon="9.040549746997009"><ele>162.25</ele><time>2026-04-30T09:30:31.001Z</time></trkpt><trkpt lat="40.87591162979279" lon="9.040393963329795"><ele>161.0</ele><time>2026-04-30T09:30:32.001Z</time></trkpt><trkpt lat="40.87582146581053" lon="9.040241008799542"><ele>161.0</ele><time>2026-04-30T09:30:33.001Z</time></trkpt><trkpt lat="40.87572969380301" lon="9.040081901095544"><ele>161.0</ele><time>2026-04-30T09:30:34.001Z</time></trkpt><trkpt lat="40.875638015214584" lon="9.039922955386272"><ele>161.0</ele><time>2026-04-30T09:30:35.001Z</time></trkpt><trkpt lat="40.87554209426819" lon="9.039759416093098"><ele>163.0</ele><time>2026-04-30T09:30:36.001Z</time></trkpt><trkpt lat="40.87545043783613" lon="9.039606839552073"><ele>165.0</ele><time>2026-04-30T09:30:37.001Z</time></trkpt><trkpt lat="40.87536086155903" lon="9.039457107183203"><ele>167.0</ele><time>2026-04-30T09:30:38.001Z</time></trkpt><trkpt lat="40.87527007625978" lon="9.039302737580762"><ele>169.0</ele><time>2026-04-30T09:30:39.001Z</time></trkpt><trkpt lat="40.8751864336668" lon="9.039156791153967"><ele>167.25</ele><time>2026-04-30T09:30:40.001Z</time></trkpt><trkpt lat="40.875100189599124" lon="9.03900371233227"><ele>165.5</ele><time>2026-04-30T09:30:41.001Z</time></trkpt><trkpt lat="40.875021140161614" lon="9.038858113032099"><ele>163.75</ele><time>2026-04-30T09:30:42.001Z</time></trkpt><trkpt lat="40.87494713526745" lon="9.038717634915177"><ele>162.0</ele><time>2026-04-30T09:30:43.001Z</time></trkpt><trkpt lat="40.87486976984395" lon="9.038565494521562"><ele>162.0</ele><time>2026-04-30T09:30:44.001Z</time></trkpt><trkpt lat="40.87480365105402" lon="9.038428099632394"><ele>162.0</ele><time>2026-04-30T09:30:45.001Z</time></trkpt><trkpt lat="40.87473822129889" lon="9.038273550704059"><ele>162.0</ele><time>2026-04-30T09:30:46.001Z</time></trkpt><trkpt lat="40.87467187830432" lon="9.038108298968693"><ele>162.0</ele><time>2026-04-30T09:30:47.001Z</time></trkpt><trkpt lat="40.874607931459025" lon="9.037935298249671"><ele>164.0</ele><time>2026-04-30T09:30:48.001Z</time></trkpt><trkpt lat="40.87454219516811" lon="9.037740117269303"><ele>166.0</ele><time>2026-04-30T09:30:49.001Z</time></trkpt><trkpt lat="40.87447955597237" lon="9.037544234607237"><ele>168.0</ele><time>2026-04-30T09:30:50.001Z</time></trkpt><trkpt lat="40.87442506371406" lon="9.037365945979191"><ele>171.5</ele><time>2026-04-30T09:30:51.001Z</time></trkpt><trkpt lat="40.874371037770835" lon="9.03718198971113"><ele>175.0</ele><time>2026-04-30T09:30:52.001Z</time></trkpt><trkpt lat="40.87431827190545" lon="9.03700171808926"><ele>178.5</ele><time>2026-04-30T09:30:53.001Z</time></trkpt><trkpt lat="40.87426626765261" lon="9.03682404848203"><ele>182.0</ele><time>2026-04-30T09:30:54.001Z</time></trkpt><trkpt lat="40.87421369025129" lon="9.036648073344434"><ele>176.25</ele><time>2026-04-30T09:30:55.001Z</time></trkpt><trkpt lat="40.874160370644134" lon="9.03647155551676"><ele>170.5</ele><time>2026-04-30T09:30:56.001Z</time></trkpt><trkpt lat="40.874101897965296" lon="9.036295026635896"><ele>164.75</ele><time>2026-04-30T09:30:57.001Z</time></trkpt><trkpt lat="40.874040305269325" lon="9.036126600755226"><ele>159.0</ele><time>2026-04-30T09:30:58.001Z</time></trkpt><trkpt lat="40.87397448017255" lon="9.035959863406411"><ele>162.33333333333334</ele><time>2026-04-30T09:30:59.001Z</time></trkpt><trkpt lat="40.87389775607241" lon="9.035780870728017"><ele>165.66666666666669</ele><time>2026-04-30T09:31:00.001Z</time></trkpt><trkpt lat="40.87381520208346" lon="9.03561071727917"><ele>169.0</ele><time>2026-04-30T09:31:01.001Z</time></trkpt><trkpt lat="40.87373315929348" lon="9.035452727152846"><ele>169.0</ele><time>2026-04-30T09:31:02.001Z</time></trkpt><trkpt lat="40.8736481369862" lon="9.035296646303419"><ele>169.0</ele><time>2026-04-30T09:31:03.001Z</time></trkpt><trkpt lat="40.87356646382264" lon="9.035153736360362"><ele>169.0</ele><time>2026-04-30T09:31:04.001Z</time></trkpt><trkpt lat="40.87348065567561" lon="9.035005735602034"><ele>169.0</ele><time>2026-04-30T09:31:05.001Z</time></trkpt><trkpt lat="40.87339684657314" lon="9.034864864495427"><ele>168.5</ele><time>2026-04-30T09:31:06.001Z</time></trkpt><trkpt lat="40.87331561377306" lon="9.034728323781344"><ele>168.0</ele><time>2026-04-30T09:31:07.001Z</time></trkpt><trkpt lat="40.87323305457122" lon="9.034589553529422"><ele>167.5</ele><time>2026-04-30T09:31:08.001Z</time></trkpt><trkpt lat="40.873161832315596" lon="9.034464751660336"><ele>167.0</ele><time>2026-04-30T09:31:09.001Z</time></trkpt><trkpt lat="40.87309230222546" lon="9.034342255231243"><ele>167.0</ele><time>2026-04-30T09:31:10.001Z</time></trkpt><trkpt lat="40.873021837846274" lon="9.034215562765452"><ele>167.0</ele><time>2026-04-30T09:31:11.001Z</time></trkpt><trkpt lat="40.8729580023239" lon="9.034092147245893"><ele>167.0</ele><time>2026-04-30T09:31:12.001Z</time></trkpt><trkpt lat="40.87290238039644" lon="9.033972427861144"><ele>167.0</ele><time>2026-04-30T09:31:13.001Z</time></trkpt><trkpt lat="40.87283973582373" lon="9.033833873055125"><ele>164.0</ele><time>2026-04-30T09:31:14.001Z</time></trkpt><trkpt lat="40.87277282406196" lon="9.033672745178748"><ele>161.0</ele><time>2026-04-30T09:31:15.001Z</time></trkpt><trkpt lat="40.87271284033379" lon="9.033527084033434"><ele>158.0</ele><time>2026-04-30T09:31:16.001Z</time></trkpt><trkpt lat="40.8726508991222" lon="9.033358935344257"><ele>155.0</ele><time>2026-04-30T09:31:17.001Z</time></trkpt><trkpt lat="40.87259519187535" lon="9.033200267011381"><ele>155.0</ele><time>2026-04-30T09:31:18.002Z</time></trkpt><trkpt lat="40.872540789525516" lon="9.033039654181396"><ele>155.0</ele><time>2026-04-30T09:31:19.002Z</time></trkpt><trkpt lat="40.872485671673275" lon="9.032868845591842"><ele>155.0</ele><time>2026-04-30T09:31:20.002Z</time></trkpt><trkpt lat="40.8724310491873" lon="9.032699572150502"><ele>155.0</ele><time>2026-04-30T09:31:21.002Z</time></trkpt><trkpt lat="40.87237610524146" lon="9.03252930253533"><ele>155.25</ele><time>2026-04-30T09:31:22.002Z</time></trkpt><trkpt lat="40.87232150876228" lon="9.032360109689128"><ele>155.5</ele><time>2026-04-30T09:31:23.002Z</time></trkpt><trkpt lat="40.872266799482794" lon="9.032191714838186"><ele>155.75</ele><time>2026-04-30T09:31:24.002Z</time></trkpt><trkpt lat="40.87221289398807" lon="9.032026513872278"><ele>156.0</ele><time>2026-04-30T09:31:25.002Z</time></trkpt><trkpt lat="40.87215943626393" lon="9.031862684809688"><ele>156.0</ele><time>2026-04-30T09:31:26.002Z</time></trkpt><trkpt lat="40.87210525027563" lon="9.031696622852687"><ele>156.0</ele><time>2026-04-30T09:31:27.002Z</time></trkpt><trkpt lat="40.872053183571616" lon="9.031537055902987"><ele>156.0</ele><time>2026-04-30T09:31:28.002Z</time></trkpt><trkpt lat="40.87200275025982" lon="9.031382481133917"><ele>156.0</ele><time>2026-04-30T09:31:29.002Z</time></trkpt><trkpt lat="40.87195202850461" lon="9.031224850691894"><ele>157.0</ele><time>2026-04-30T09:31:30.002Z</time></trkpt><trkpt lat="40.87190164135118" lon="9.031068260089443"><ele>158.0</ele><time>2026-04-30T09:31:31.002Z</time></trkpt><trkpt lat="40.87185102117039" lon="9.0309109453399"><ele>159.0</ele><time>2026-04-30T09:31:32.002Z</time></trkpt><trkpt lat="40.87180059819102" lon="9.030754254632878"><ele>160.0</ele><time>2026-04-30T09:31:33.002Z</time></trkpt><trkpt lat="40.87175341515198" lon="9.03060606206649"><ele>156.8</ele><time>2026-04-30T09:31:34.002Z</time></trkpt><trkpt lat="40.871709318981736" lon="9.030467564725251"><ele>153.6</ele><time>2026-04-30T09:31:35.002Z</time></trkpt><trkpt lat="40.871670242069506" lon="9.03034483190831"><ele>150.4</ele><time>2026-04-30T09:31:36.002Z</time></trkpt><trkpt lat="40.87163876953721" lon="9.030245982930175"><ele>147.2</ele><time>2026-04-30T09:31:37.002Z</time></trkpt><trkpt lat="40.87159281432248" lon="9.030103241451926"><ele>144.0</ele><time>2026-04-30T09:31:39.002Z</time></trkpt><trkpt lat="40.87155213819578" lon="9.029977727831067"><ele>144.4</ele><time>2026-04-30T09:31:41.002Z</time></trkpt><trkpt lat="40.871512778354905" lon="9.029856275925594"><ele>144.8</ele><time>2026-04-30T09:31:43.002Z</time></trkpt><trkpt lat="40.871464767698164" lon="9.02970760920055"><ele>145.2</ele><time>2026-04-30T09:31:45.002Z</time></trkpt><trkpt lat="40.871420587066865" lon="9.029618773886213"><ele>145.6</ele><time>2026-04-30T09:31:46.002Z</time></trkpt><trkpt lat="40.87137431689094" lon="9.029532894162108"><ele>146.0</ele><time>2026-04-30T09:31:47.002Z</time></trkpt><trkpt lat="40.87132084762034" lon="9.029435196128285"><ele>144.0</ele><time>2026-04-30T09:31:48.002Z</time></trkpt><trkpt lat="40.87064073898293" lon="9.029678032731255"><ele>144.0</ele><time>2026-04-30T09:31:49.002Z</time></trkpt><trkpt lat="40.87054531130114" lon="9.029592636948946"><ele>144.0</ele><time>2026-04-30T09:31:50.002Z</time></trkpt><trkpt lat="40.870447103163364" lon="9.029511462943264"><ele>144.0</ele><time>2026-04-30T09:31:51.002Z</time></trkpt><trkpt lat="40.87034003722852" lon="9.029429518913151"><ele>144.0</ele><time>2026-04-30T09:31:52.002Z</time></trkpt><trkpt lat="40.870229443624595" lon="9.029339704006397"><ele>144.0</ele><time>2026-04-30T09:31:53.002Z</time></trkpt><trkpt lat="40.87012651493605" lon="9.029252814620845"><ele>144.0</ele><time>2026-04-30T09:31:54.002Z</time></trkpt><trkpt lat="40.87001558507683" lon="9.029160123885026"><ele>144.0</ele><time>2026-04-30T09:31:55.002Z</time></trkpt><trkpt lat="40.86990671856326" lon="9.02906309261808"><ele>144.0</ele><time>2026-04-30T09:31:56.002Z</time></trkpt><trkpt lat="40.86980244995802" lon="9.028966565021692"><ele>144.5</ele><time>2026-04-30T09:31:57.002Z</time></trkpt><trkpt lat="40.86970138320766" lon="9.028860080259706"><ele>145.0</ele><time>2026-04-30T09:31:58.002Z</time></trkpt><trkpt lat="40.86961678347672" lon="9.028738413705645"><ele>145.5</ele><time>2026-04-30T09:31:59.002Z</time></trkpt><trkpt lat="40.86954656103127" lon="9.028604219756817"><ele>146.0</ele><time>2026-04-30T09:32:00.001Z</time></trkpt><trkpt lat="40.86949376757264" lon="9.028455726431659"><ele>145.5</ele><time>2026-04-30T09:32:01.001Z</time></trkpt><trkpt lat="40.86945380064785" lon="9.028293523769051"><ele>145.0</ele><time>2026-04-30T09:32:02.001Z</time></trkpt><trkpt lat="40.869425411159334" lon="9.028118012859238"><ele>144.5</ele><time>2026-04-30T09:32:03.001Z</time></trkpt><trkpt lat="40.86940426471026" lon="9.027923754290212"><ele>144.0</ele><time>2026-04-30T09:32:04.001Z</time></trkpt><trkpt lat="40.86938603557952" lon="9.027726822623414"><ele>144.0</ele><time>2026-04-30T09:32:05.001Z</time></trkpt><trkpt lat="40.86936811782918" lon="9.027525844687155"><ele>144.0</ele><time>2026-04-30T09:32:06.001Z</time></trkpt><trkpt lat="40.869348882396324" lon="9.027323480393495"><ele>144.0</ele><time>2026-04-30T09:32:07.001Z</time></trkpt><trkpt lat="40.8693302384656" lon="9.027120252836168"><ele>142.25</ele><time>2026-04-30T09:32:08.001Z</time></trkpt><trkpt lat="40.869310974719006" lon="9.026921806539756"><ele>140.5</ele><time>2026-04-30T09:32:09.001Z</time></trkpt><trkpt lat="40.86929258135595" lon="9.02672990845677"><ele>138.75</ele><time>2026-04-30T09:32:10.001Z</time></trkpt><trkpt lat="40.86927453235731" lon="9.026544333582361"><ele>137.0</ele><time>2026-04-30T09:32:11.001Z</time></trkpt><trkpt lat="40.869259400124236" lon="9.026366730985613"><ele>136.25</ele><time>2026-04-30T09:32:12.001Z</time></trkpt><trkpt lat="40.8692434267174" lon="9.026193654164803"><ele>135.5</ele><time>2026-04-30T09:32:13.001Z</time></trkpt><trkpt lat="40.869226744612774" lon="9.02602760579518"><ele>134.75</ele><time>2026-04-30T09:32:14.001Z</time></trkpt><trkpt lat="40.869204410637494" lon="9.025869332944184"><ele>134.0</ele><time>2026-04-30T09:32:15.001Z</time></trkpt><trkpt lat="40.86917501868524" lon="9.025719036400329"><ele>134.0</ele><time>2026-04-30T09:32:16.001Z</time></trkpt><trkpt lat="40.86913879753034" lon="9.025580545192401"><ele>134.0</ele><time>2026-04-30T09:32:17.001Z</time></trkpt><trkpt lat="40.86911620047787" lon="9.025442501032185"><ele>134.0</ele><time>2026-04-30T09:32:18.001Z</time></trkpt><trkpt lat="40.869118929355174" lon="9.025307569833693"><ele>134.0</ele><time>2026-04-30T09:32:19.001Z</time></trkpt><trkpt lat="40.8691374555885" lon="9.02517787318847"><ele>134.0</ele><time>2026-04-30T09:32:20.001Z</time></trkpt><trkpt lat="40.869167110318195" lon="9.025038880399904"><ele>135.0</ele><time>2026-04-30T09:32:21.001Z</time></trkpt><trkpt lat="40.869191042119226" lon="9.024891842523317"><ele>136.0</ele><time>2026-04-30T09:32:22.001Z</time></trkpt><trkpt lat="40.86920097517228" lon="9.02472830587645"><ele>137.0</ele><time>2026-04-30T09:32:23.001Z</time></trkpt><trkpt lat="40.869197175164096" lon="9.02455273571214"><ele>138.0</ele><time>2026-04-30T09:32:24.001Z</time></trkpt><trkpt lat="40.869181946497434" lon="9.024378606508362"><ele>138.0</ele><time>2026-04-30T09:32:25.001Z</time></trkpt><trkpt lat="40.86916544092825" lon="9.02420748295809"><ele>138.0</ele><time>2026-04-30T09:32:26.001Z</time></trkpt><trkpt lat="40.86914839507009" lon="9.024036242644634"><ele>138.0</ele><time>2026-04-30T09:32:27.001Z</time></trkpt><trkpt lat="40.86912822785319" lon="9.023856509098646"><ele>138.0</ele><time>2026-04-30T09:32:28.001Z</time></trkpt><trkpt lat="40.86909958502143" lon="9.023677167368831"><ele>139.5</ele><time>2026-04-30T09:32:29.001Z</time></trkpt><trkpt lat="40.86906121250046" lon="9.02350883239857"><ele>141.0</ele><time>2026-04-30T09:32:30.001Z</time></trkpt><trkpt lat="40.869012088065844" lon="9.02335784237078"><ele>142.5</ele><time>2026-04-30T09:32:31.001Z</time></trkpt><trkpt lat="40.86895164947803" lon="9.023213673908282"><ele>144.0</ele><time>2026-04-30T09:32:32.001Z</time></trkpt><trkpt lat="40.86888789581811" lon="9.023075109452316"><ele>144.4</ele><time>2026-04-30T09:32:33.001Z</time></trkpt><trkpt lat="40.86883153340306" lon="9.02294106269043"><ele>144.8</ele><time>2026-04-30T09:32:34.001Z</time></trkpt><trkpt lat="40.86877910378797" lon="9.022821457374855"><ele>145.2</ele><time>2026-04-30T09:32:35.001Z</time></trkpt><trkpt lat="40.86874747500127" lon="9.02270767348932"><ele>145.6</ele><time>2026-04-30T09:32:36.001Z</time></trkpt><trkpt lat="40.86871350644701" lon="9.02262434141326"><ele>146.0</ele><time>2026-04-30T09:32:37.001Z</time></trkpt><trkpt lat="40.86859565357925" lon="9.022635437211518"><ele>146.0</ele><time>2026-04-30T09:32:38.001Z</time></trkpt><trkpt lat="40.86852815190018" lon="9.022636536699789"><ele>146.0</ele><time>2026-04-30T09:32:39.001Z</time></trkpt><trkpt lat="40.86841894679911" lon="9.022723520419932"><ele>146.0</ele><time>2026-04-30T09:32:41.001Z</time></trkpt><trkpt lat="40.86836360678064" lon="9.022798009276864"><ele>146.0</ele><time>2026-04-30T09:32:42.001Z</time></trkpt><trkpt lat="40.86830662211207" lon="9.022892951904462"><ele>146.0</ele><time>2026-04-30T09:32:43.001Z</time></trkpt><trkpt lat="40.868244132936894" lon="9.022991436960737"><ele>145.0</ele><time>2026-04-30T09:32:44.001Z</time></trkpt><trkpt lat="40.868169458252694" lon="9.023100307749464"><ele>144.0</ele><time>2026-04-30T09:32:45.001Z</time></trkpt><trkpt lat="40.86809298611142" lon="9.023209745760667"><ele>143.0</ele><time>2026-04-30T09:32:46.001Z</time></trkpt><trkpt lat="40.86801623998449" lon="9.023317660326162"><ele>142.0</ele><time>2026-04-30T09:32:47.001Z</time></trkpt><trkpt lat="40.86793668601789" lon="9.02342840251294"><ele>141.0</ele><time>2026-04-30T09:32:48.001Z</time></trkpt><trkpt lat="40.86785493449095" lon="9.023545907317816"><ele>140.0</ele><time>2026-04-30T09:32:49.001Z</time></trkpt><trkpt lat="40.86776740831415" lon="9.0236720175871"><ele>139.0</ele><time>2026-04-30T09:32:50.001Z</time></trkpt><trkpt lat="40.86767674696019" lon="9.023800464652263"><ele>138.0</ele><time>2026-04-30T09:32:51.001Z</time></trkpt><trkpt lat="40.867585666775064" lon="9.023919388757692"><ele>136.25</ele><time>2026-04-30T09:32:52.001Z</time></trkpt><trkpt lat="40.867503172266495" lon="9.024030159547257"><ele>134.5</ele><time>2026-04-30T09:32:53.001Z</time></trkpt><trkpt lat="40.86741153010794" lon="9.024134051339217"><ele>132.75</ele><time>2026-04-30T09:32:54.001Z</time></trkpt><trkpt lat="40.86733596189148" lon="9.024247154013652"><ele>131.0</ele><time>2026-04-30T09:32:55.001Z</time></trkpt><trkpt lat="40.86724136227927" lon="9.02431387260015"><ele>131.0</ele><time>2026-04-30T09:32:56.001Z</time></trkpt><trkpt lat="40.86713644444807" lon="9.024345026517006"><ele>131.0</ele><time>2026-04-30T09:32:57.001Z</time></trkpt><trkpt lat="40.86703017838937" lon="9.024332206362375"><ele>131.0</ele><time>2026-04-30T09:32:58.001Z</time></trkpt><trkpt lat="40.86692842608793" lon="9.024279515864029"><ele>131.0</ele><time>2026-04-30T09:32:59.001Z</time></trkpt><trkpt lat="40.866848325399665" lon="9.024200548712328"><ele>131.0</ele><time>2026-04-30T09:33:00.001Z</time></trkpt><trkpt lat="40.86679462757529" lon="9.024098683303638"><ele>131.0</ele><time>2026-04-30T09:33:01.001Z</time></trkpt><trkpt lat="40.866761830525576" lon="9.02398244016388"><ele>131.0</ele><time>2026-04-30T09:33:02.001Z</time></trkpt><trkpt lat="40.866753774494526" lon="9.023854672524704"><ele>131.0</ele><time>2026-04-30T09:33:03.001Z</time></trkpt><trkpt lat="40.86677344504572" lon="9.02373709507349"><ele>131.0</ele><time>2026-04-30T09:33:04.001Z</time></trkpt><trkpt lat="40.86681057156305" lon="9.023624742816152"><ele>131.0</ele><time>2026-04-30T09:33:05.001Z</time></trkpt><trkpt lat="40.866867013766374" lon="9.02354002766194"><ele>131.0</ele><time>2026-04-30T09:33:06.001Z</time></trkpt><trkpt lat="40.86693197442671" lon="9.023470664826466"><ele>131.0</ele><time>2026-04-30T09:33:07.001Z</time></trkpt><trkpt lat="40.86701004212773" lon="9.023422306439212"><ele>131.0</ele><time>2026-04-30T09:33:08.001Z</time></trkpt><trkpt lat="40.867096457564955" lon="9.023403212265917"><ele>131.0</ele><time>2026-04-30T09:33:09.001Z</time></trkpt><trkpt lat="40.86718712272087" lon="9.023413289735284"><ele>131.0</ele><time>2026-04-30T09:33:10.001Z</time></trkpt><trkpt lat="40.867273504724125" lon="9.023460612731098"><ele>131.0</ele><time>2026-04-30T09:33:11.001Z</time></trkpt><trkpt lat="40.8673634585534" lon="9.023529989011465"><ele>131.0</ele><time>2026-04-30T09:33:12.001Z</time></trkpt><trkpt lat="40.86746097329423" lon="9.023614316288086"><ele>131.0</ele><time>2026-04-30T09:33:13.001Z</time></trkpt><trkpt lat="40.86758134316547" lon="9.023674096831524"><ele>131.0</ele><time>2026-04-30T09:33:14.001Z</time></trkpt><trkpt lat="40.867675749176804" lon="9.023805935352028"><ele>131.0</ele><time>2026-04-30T09:33:15.001Z</time></trkpt><trkpt lat="40.86778757146362" lon="9.02390606032203"><ele>131.75</ele><time>2026-04-30T09:33:16.001Z</time></trkpt><trkpt lat="40.86790034482469" lon="9.02401085680327"><ele>132.5</ele><time>2026-04-30T09:33:17.001Z</time></trkpt><trkpt lat="40.86802057713719" lon="9.02412230051598"><ele>133.25</ele><time>2026-04-30T09:33:18.001Z</time></trkpt><trkpt lat="40.86814352812633" lon="9.02423902741949"><ele>134.0</ele><time>2026-04-30T09:33:19.001Z</time></trkpt><trkpt lat="40.868278793226835" lon="9.02436739818533"><ele>134.0</ele><time>2026-04-30T09:33:20.001Z</time></trkpt><trkpt lat="40.86841522487358" lon="9.024500857353466"><ele>134.0</ele><time>2026-04-30T09:33:21.001Z</time></trkpt><trkpt lat="40.86856413734314" lon="9.024647459543207"><ele>134.0</ele><time>2026-04-30T09:33:22.001Z</time></trkpt><trkpt lat="40.86867446713636" lon="9.02475587805533"><ele>134.0</ele><time>2026-04-30T09:33:23.001Z</time></trkpt><trkpt lat="40.86881038494168" lon="9.024896202262683"><ele>134.0</ele><time>2026-04-30T09:33:24.001Z</time></trkpt><trkpt lat="40.86895032778618" lon="9.02503995902177"><ele>134.0</ele><time>2026-04-30T09:33:25.001Z</time></trkpt><trkpt lat="40.86909616116547" lon="9.02518551182481"><ele>134.0</ele><time>2026-04-30T09:33:26.001Z</time></trkpt><trkpt lat="40.86924421656269" lon="9.025325701054934"><ele>134.0</ele><time>2026-04-30T09:33:27.001Z</time></trkpt><trkpt lat="40.869395469259615" lon="9.025473664357223"><ele>134.0</ele><time>2026-04-30T09:33:28.001Z</time></trkpt><trkpt lat="40.86954454811048" lon="9.02562818746512"><ele>134.66666666666666</ele><time>2026-04-30T09:33:29.001Z</time></trkpt><trkpt lat="40.869687221269096" lon="9.025778914849463"><ele>135.33333333333334</ele><time>2026-04-30T09:33:30.001Z</time></trkpt><trkpt lat="40.869826496028004" lon="9.025932878479948"><ele>136.0</ele><time>2026-04-30T09:33:31.001Z</time></trkpt><trkpt lat="40.86994736867647" lon="9.02611047025402"><ele>136.0</ele><time>2026-04-30T09:33:32.001Z</time></trkpt><trkpt lat="40.870073218969935" lon="9.026280878920318"><ele>136.0</ele><time>2026-04-30T09:33:33.001Z</time></trkpt><trkpt lat="40.870192842505865" lon="9.026460336286897"><ele>136.0</ele><time>2026-04-30T09:33:34.001Z</time></trkpt><trkpt lat="40.87031863186867" lon="9.026635292228066"><ele>138.0</ele><time>2026-04-30T09:33:35.001Z</time></trkpt><trkpt lat="40.87041023313995" lon="9.026846805622872"><ele>140.0</ele><time>2026-04-30T09:33:36.001Z</time></trkpt><trkpt lat="40.87050940734405" lon="9.027051296945352"><ele>142.0</ele><time>2026-04-30T09:33:37.001Z</time></trkpt><trkpt lat="40.87060038884171" lon="9.027256182868628"><ele>142.0</ele><time>2026-04-30T09:33:38.001Z</time></trkpt><trkpt lat="40.87068325885998" lon="9.027464964435154"><ele>142.0</ele><time>2026-04-30T09:33:39.001Z</time></trkpt><trkpt lat="40.87076072508285" lon="9.027674542164307"><ele>142.0</ele><time>2026-04-30T09:33:40.001Z</time></trkpt><trkpt lat="40.870849431375014" lon="9.027878961948229"><ele>143.0</ele><time>2026-04-30T09:33:41.001Z</time></trkpt><trkpt lat="40.87090699932255" lon="9.028102367904244"><ele>144.0</ele><time>2026-04-30T09:33:42.001Z</time></trkpt><trkpt lat="40.870976840191624" lon="9.028315854506053"><ele>145.0</ele><time>2026-04-30T09:33:43.001Z</time></trkpt><trkpt lat="40.8710441909355" lon="9.028521729490736"><ele>146.0</ele><time>2026-04-30T09:33:44.001Z</time></trkpt><trkpt lat="40.87110962554571" lon="9.028721659308815"><ele>147.0</ele><time>2026-04-30T09:33:45.001Z</time></trkpt><trkpt lat="40.87117894093781" lon="9.028914571392171"><ele>148.0</ele><time>2026-04-30T09:33:46.001Z</time></trkpt><trkpt lat="40.871242883278086" lon="9.02911317961462"><ele>147.33333333333334</ele><time>2026-04-30T09:33:47.001Z</time></trkpt><trkpt lat="40.87130627469859" lon="9.029306871646492"><ele>146.66666666666666</ele><time>2026-04-30T09:33:48.001Z</time></trkpt><trkpt lat="40.871361848967446" lon="9.029490830292925"><ele>146.0</ele><time>2026-04-30T09:33:49.001Z</time></trkpt><trkpt lat="40.871426384749725" lon="9.029673102264242"><ele>146.0</ele><time>2026-04-30T09:33:50.001Z</time></trkpt><trkpt lat="40.87147919382914" lon="9.029864427441941"><ele>146.0</ele><time>2026-04-30T09:33:51.001Z</time></trkpt><trkpt lat="40.87153833550446" lon="9.030046919945013"><ele>146.0</ele><time>2026-04-30T09:33:52.001Z</time></trkpt><trkpt lat="40.871613352800274" lon="9.030227745062817"><ele>145.33333333333331</ele><time>2026-04-30T09:33:53.001Z</time></trkpt><trkpt lat="40.87167281614967" lon="9.030414729634225"><ele>144.66666666666666</ele><time>2026-04-30T09:33:54.001Z</time></trkpt><trkpt lat="40.871728315195" lon="9.030598445486167"><ele>144.0</ele><time>2026-04-30T09:33:55.001Z</time></trkpt><trkpt lat="40.871785959931366" lon="9.030787432514266"><ele>149.33333333333334</ele><time>2026-04-30T09:33:56.001Z</time></trkpt><trkpt lat="40.871850002252714" lon="9.030975793935825"><ele>154.66666666666669</ele><time>2026-04-30T09:33:57.001Z</time></trkpt><trkpt lat="40.87191019497815" lon="9.031166041648572"><ele>160.0</ele><time>2026-04-30T09:33:58.001Z</time></trkpt><trkpt lat="40.871971548667304" lon="9.031357989556923"><ele>160.0</ele><time>2026-04-30T09:33:59.002Z</time></trkpt><trkpt lat="40.872030766965864" lon="9.031545928533795"><ele>160.0</ele><time>2026-04-30T09:34:00.002Z</time></trkpt><trkpt lat="40.8720924849053" lon="9.031740795184875"><ele>160.0</ele><time>2026-04-30T09:34:01.002Z</time></trkpt><trkpt lat="40.87215134328212" lon="9.031941884317373"><ele>158.66666666666669</ele><time>2026-04-30T09:34:02.002Z</time></trkpt><trkpt lat="40.872221263074245" lon="9.032151179011462"><ele>157.33333333333334</ele><time>2026-04-30T09:34:03.002Z</time></trkpt><trkpt lat="40.87228605179499" lon="9.032366398934842"><ele>156.0</ele><time>2026-04-30T09:34:04.002Z</time></trkpt><trkpt lat="40.87236105028443" lon="9.032597125587735"><ele>155.66666666666666</ele><time>2026-04-30T09:34:05.002Z</time></trkpt><trkpt lat="40.87244327590676" lon="9.032833248144643"><ele>155.33333333333331</ele><time>2026-04-30T09:34:06.001Z</time></trkpt><trkpt lat="40.872536464965826" lon="9.03309261568144"><ele>155.0</ele><time>2026-04-30T09:34:07.001Z</time></trkpt><trkpt lat="40.8726187648064" lon="9.033372103190196"><ele>159.0</ele><time>2026-04-30T09:34:08.001Z</time></trkpt><trkpt lat="40.87272875304615" lon="9.033623067061637"><ele>163.0</ele><time>2026-04-30T09:34:09Z</time></trkpt><trkpt lat="40.872838453437744" lon="9.033882214388232"><ele>167.0</ele><time>2026-04-30T09:34:10Z</time></trkpt><trkpt lat="40.87295043343382" lon="9.034155383997353"><ele>167.0</ele><time>2026-04-30T09:34:11Z</time></trkpt><trkpt lat="40.87310044508747" lon="9.03439459898111"><ele>167.0</ele><time>2026-04-30T09:34:12Z</time></trkpt><trkpt lat="40.87323858333667" lon="9.034641266088622"><ele>167.0</ele><time>2026-04-30T09:34:13Z</time></trkpt><trkpt lat="40.87337996233967" lon="9.03488424746288"><ele>167.0</ele><time>2026-04-30T09:34:14Z</time></trkpt><trkpt lat="40.87352108310374" lon="9.035125360866699"><ele>168.0</ele><time>2026-04-30T09:34:15Z</time></trkpt><trkpt lat="40.873657794653205" lon="9.035368154073016"><ele>169.0</ele><time>2026-04-30T09:34:16Z</time></trkpt><trkpt lat="40.87378825564201" lon="9.035614127972904"><ele>164.0</ele><time>2026-04-30T09:34:17Z</time></trkpt><trkpt lat="40.87390880461521" lon="9.035876785753214"><ele>159.0</ele><time>2026-04-30T09:34:18Z</time></trkpt><trkpt lat="40.87402653647626" lon="9.036159583154587"><ele>159.0</ele><time>2026-04-30T09:34:19Z</time></trkpt><trkpt lat="40.87412830331069" lon="9.036458751944446"><ele>159.0</ele><time>2026-04-30T09:34:20Z</time></trkpt><trkpt lat="40.87422283147198" lon="9.036763602697095"><ele>170.5</ele><time>2026-04-30T09:34:21Z</time></trkpt><trkpt lat="40.87431038162754" lon="9.037070161637152"><ele>182.0</ele><time>2026-04-30T09:34:22Z</time></trkpt><trkpt lat="40.87440086892181" lon="9.037378974803527"><ele>175.0</ele><time>2026-04-30T09:34:23Z</time></trkpt><trkpt lat="40.874496606198846" lon="9.037683503754455"><ele>168.0</ele><time>2026-04-30T09:34:24Z</time></trkpt><trkpt lat="40.87460017641043" lon="9.037978336089225"><ele>168.0</ele><time>2026-04-30T09:34:25Z</time></trkpt><trkpt lat="40.87470223322401" lon="9.038277774590249"><ele>168.0</ele><time>2026-04-30T09:34:26Z</time></trkpt><trkpt lat="40.8748276701324" lon="9.038561502785571"><ele>165.0</ele><time>2026-04-30T09:34:27Z</time></trkpt><trkpt lat="40.87496905094765" lon="9.03883713429962"><ele>162.0</ele><time>2026-04-30T09:34:28Z</time></trkpt><trkpt lat="40.87511725472632" lon="9.039107647461405"><ele>165.5</ele><time>2026-04-30T09:34:29Z</time></trkpt><trkpt lat="40.87526901118431" lon="9.03937259235004"><ele>169.0</ele><time>2026-04-30T09:34:30Z</time></trkpt><trkpt lat="40.875435919709304" lon="9.039619838491381"><ele>169.0</ele><time>2026-04-30T09:34:31Z</time></trkpt><trkpt lat="40.87559077666921" lon="9.039881701323692"><ele>169.0</ele><time>2026-04-30T09:34:32Z</time></trkpt><trkpt lat="40.875740512249244" lon="9.040142660199052"><ele>165.0</ele><time>2026-04-30T09:34:33Z</time></trkpt><trkpt lat="40.87588935371193" lon="9.040403163943454"><ele>161.0</ele><time>2026-04-30T09:34:34Z</time></trkpt><trkpt lat="40.87603909251286" lon="9.040662501679142"><ele>163.5</ele><time>2026-04-30T09:34:35Z</time></trkpt><trkpt lat="40.876189074394475" lon="9.04091980306414"><ele>166.0</ele><time>2026-04-30T09:34:36Z</time></trkpt><trkpt lat="40.876340546392285" lon="9.041176885564001"><ele>166.0</ele><time>2026-04-30T09:34:37Z</time></trkpt><trkpt lat="40.876488342547994" lon="9.041429143163482"><ele>166.0</ele><time>2026-04-30T09:34:38Z</time></trkpt><trkpt lat="40.876637451454684" lon="9.041682088201325"><ele>171.5</ele><time>2026-04-30T09:34:39Z</time></trkpt><trkpt lat="40.87677914015109" lon="9.041944278046508"><ele>177.0</ele><time>2026-04-30T09:34:40Z</time></trkpt><trkpt lat="40.87691380325922" lon="9.042209352670033"><ele>175.0</ele><time>2026-04-30T09:34:41Z</time></trkpt><trkpt lat="40.87703604662508" lon="9.042476249643643"><ele>173.0</ele><time>2026-04-30T09:34:42Z</time></trkpt><trkpt lat="40.877150225627595" lon="9.042744387524325"><ele>173.0</ele><time>2026-04-30T09:34:43Z</time></trkpt><trkpt lat="40.87725258385664" lon="9.043013980048286"><ele>173.0</ele><time>2026-04-30T09:34:44Z</time></trkpt><trkpt lat="40.87735165887023" lon="9.043286028248925"><ele>172.33333333333331</ele><time>2026-04-30T09:34:45Z</time></trkpt><trkpt lat="40.87743396561359" lon="9.04354470458798"><ele>171.66666666666666</ele><time>2026-04-30T09:34:46Z</time></trkpt><trkpt lat="40.877507535682774" lon="9.043801180140614"><ele>171.0</ele><time>2026-04-30T09:34:47Z</time></trkpt><trkpt lat="40.87757456232558" lon="9.04405212650138"><ele>176.33333333333334</ele><time>2026-04-30T09:34:48Z</time></trkpt><trkpt lat="40.87763709517583" lon="9.044294021211709"><ele>181.66666666666669</ele><time>2026-04-30T09:34:49Z</time></trkpt><trkpt lat="40.877680867347806" lon="9.044538544740432"><ele>187.0</ele><time>2026-04-30T09:34:50Z</time></trkpt><trkpt lat="40.87772939538723" lon="9.04475035115458"><ele>187.0</ele><time>2026-04-30T09:34:51Z</time></trkpt><trkpt lat="40.877785263432884" lon="9.044950858194277"><ele>187.0</ele><time>2026-04-30T09:34:52Z</time></trkpt><trkpt lat="40.877813266596704" lon="9.045161176214236"><ele>187.0</ele><time>2026-04-30T09:34:53Z</time></trkpt><trkpt lat="40.87780135530303" lon="9.04538966240832"><ele>184.66666666666669</ele><time>2026-04-30T09:34:54Z</time></trkpt><trkpt lat="40.87784896394894" lon="9.045612907738471"><ele>182.33333333333334</ele><time>2026-04-30T09:34:55Z</time></trkpt><trkpt lat="40.877881848075724" lon="9.045866909936095"><ele>180.0</ele><time>2026-04-30T09:34:56.001Z</time></trkpt><trkpt lat="40.87792517704708" lon="9.046122811430248"><ele>179.0</ele><time>2026-04-30T09:34:57.001Z</time></trkpt><trkpt lat="40.877985474698555" lon="9.04639280386995"><ele>178.0</ele><time>2026-04-30T09:34:58.001Z</time></trkpt><trkpt lat="40.87804835895247" lon="9.046662684901346"><ele>177.0</ele><time>2026-04-30T09:34:59.001Z</time></trkpt><trkpt lat="40.878109061011074" lon="9.046918747256452"><ele>175.66666666666666</ele><time>2026-04-30T09:35:00.001Z</time></trkpt><trkpt lat="40.878165097323404" lon="9.047152608340761"><ele>174.33333333333331</ele><time>2026-04-30T09:35:01.001Z</time></trkpt><trkpt lat="40.87820238534176" lon="9.047376638306844"><ele>173.0</ele><time>2026-04-30T09:35:02.001Z</time></trkpt><trkpt lat="40.878252001252655" lon="9.047580216921482"><ele>172.25</ele><time>2026-04-30T09:35:03.001Z</time></trkpt><trkpt lat="40.87830078069157" lon="9.047766985934738"><ele>171.5</ele><time>2026-04-30T09:35:04.001Z</time></trkpt><trkpt lat="40.87834946693855" lon="9.047938018184164"><ele>170.75</ele><time>2026-04-30T09:35:05.001Z</time></trkpt><trkpt lat="40.87842408774613" lon="9.048076897012942"><ele>170.0</ele><time>2026-04-30T09:35:06.001Z</time></trkpt><trkpt lat="40.87852339678609" lon="9.048185225816711"><ele>173.0</ele><time>2026-04-30T09:35:07.001Z</time></trkpt><trkpt lat="40.87865581312212" lon="9.048258709916075"><ele>176.0</ele><time>2026-04-30T09:35:08.001Z</time></trkpt><trkpt lat="40.87882083173608" lon="9.048319214044245"><ele>179.0</ele><time>2026-04-30T09:35:09.001Z</time></trkpt><trkpt lat="40.878975239878" lon="9.048399626810742"><ele>179.0</ele><time>2026-04-30T09:35:10.001Z</time></trkpt><trkpt lat="40.87910679608341" lon="9.04844267028135"><ele>179.0</ele><time>2026-04-30T09:35:11.001Z</time></trkpt><trkpt lat="40.87921660993006" lon="9.048537188937912"><ele>179.0</ele><time>2026-04-30T09:35:12.001Z</time></trkpt><trkpt lat="40.87929764373294" lon="9.048673012035424"><ele>179.0</ele><time>2026-04-30T09:35:13.001Z</time></trkpt><trkpt lat="40.87933171856912" lon="9.048846616043702"><ele>180.66666666666666</ele><time>2026-04-30T09:35:14.001Z</time></trkpt><trkpt lat="40.879339607768735" lon="9.04902985506247"><ele>182.33333333333334</ele><time>2026-04-30T09:35:15.001Z</time></trkpt><trkpt lat="40.879360455128406" lon="9.049233222424144"><ele>184.0</ele><time>2026-04-30T09:35:16.001Z</time></trkpt><trkpt lat="40.87936402037757" lon="9.04945105013406"><ele>184.0</ele><time>2026-04-30T09:35:17.001Z</time></trkpt><trkpt lat="40.879355794125615" lon="9.049680631025497"><ele>184.0</ele><time>2026-04-30T09:35:18.001Z</time></trkpt><trkpt lat="40.87936285013875" lon="9.049903673463936"><ele>184.0</ele><time>2026-04-30T09:35:19.001Z</time></trkpt><trkpt lat="40.87938717885735" lon="9.050110484965337"><ele>183.66666666666669</ele><time>2026-04-30T09:35:20.001Z</time></trkpt><trkpt lat="40.87944142271118" lon="9.050306822441014"><ele>183.33333333333334</ele><time>2026-04-30T09:35:21.001Z</time></trkpt><trkpt lat="40.879550643302665" lon="9.050470690604076"><ele>183.0</ele><time>2026-04-30T09:35:22.001Z</time></trkpt><trkpt lat="40.87965891273988" lon="9.050635097811567"><ele>183.0</ele><time>2026-04-30T09:35:23.001Z</time></trkpt><trkpt lat="40.879764222992385" lon="9.050779315715126"><ele>183.0</ele><time>2026-04-30T09:35:24.001Z</time></trkpt><trkpt lat="40.87987618922596" lon="9.050884958524879"><ele>183.0</ele><time>2026-04-30T09:35:25.001Z</time></trkpt><trkpt lat="40.880009183958094" lon="9.050945380425336"><ele>183.0</ele><time>2026-04-30T09:35:26.001Z</time></trkpt><trkpt lat="40.88016241303227" lon="9.050960087262379"><ele>185.66666666666666</ele><time>2026-04-30T09:35:27.001Z</time></trkpt><trkpt lat="40.880325982849" lon="9.050963973114374"><ele>188.33333333333331</ele><time>2026-04-30T09:35:28.001Z</time></trkpt><trkpt lat="40.88048195539494" lon="9.050983984369056"><ele>191.0</ele><time>2026-04-30T09:35:29.001Z</time></trkpt><trkpt lat="40.8806217869177" lon="9.051054040410659"><ele>191.0</ele><time>2026-04-30T09:35:30.001Z</time></trkpt><trkpt lat="40.8807408353433" lon="9.051166929960456"><ele>191.0</ele><time>2026-04-30T09:35:31.001Z</time></trkpt><trkpt lat="40.880851800729204" lon="9.051315106448293"><ele>191.0</ele><time>2026-04-30T09:35:32.001Z</time></trkpt><trkpt lat="40.88096317595734" lon="9.051476585041843"><ele>192.33333333333331</ele><time>2026-04-30T09:35:33.001Z</time></trkpt><trkpt lat="40.88108309577507" lon="9.051641206670073"><ele>193.66666666666666</ele><time>2026-04-30T09:35:34.001Z</time></trkpt><trkpt lat="40.88121472742498" lon="9.051789284244036"><ele>195.0</ele><time>2026-04-30T09:35:35.001Z</time></trkpt><trkpt lat="40.88134616478007" lon="9.051917603031981"><ele>195.0</ele><time>2026-04-30T09:35:36.001Z</time></trkpt><trkpt lat="40.881483650555005" lon="9.052015607963062"><ele>195.0</ele><time>2026-04-30T09:35:37.001Z</time></trkpt><trkpt lat="40.88160884889475" lon="9.052122634002536"><ele>195.0</ele><time>2026-04-30T09:35:38.001Z</time></trkpt><trkpt lat="40.881719241725996" lon="9.05225608572498"><ele>198.33333333333331</ele><time>2026-04-30T09:35:39.001Z</time></trkpt><trkpt lat="40.881780611335714" lon="9.05243805992276"><ele>201.66666666666666</ele><time>2026-04-30T09:35:40.001Z</time></trkpt><trkpt lat="40.8818346827525" lon="9.052642353297573"><ele>205.0</ele><time>2026-04-30T09:35:41.001Z</time></trkpt><trkpt lat="40.88190497783189" lon="9.05284772337239"><ele>205.0</ele><time>2026-04-30T09:35:42.001Z</time></trkpt><trkpt lat="40.881947627704136" lon="9.053077242192595"><ele>205.0</ele><time>2026-04-30T09:35:43.001Z</time></trkpt><trkpt lat="40.88201487772307" lon="9.053310066711296"><ele>205.0</ele><time>2026-04-30T09:35:44.001Z</time></trkpt><trkpt lat="40.88212490473444" lon="9.053526393783791"><ele>203.0</ele><time>2026-04-30T09:35:45.001Z</time></trkpt><trkpt lat="40.88222742676457" lon="9.053767528641709"><ele>201.0</ele><time>2026-04-30T09:35:46.001Z</time></trkpt><trkpt lat="40.882346209122346" lon="9.054007417283456"><ele>199.0</ele><time>2026-04-30T09:35:47.001Z</time></trkpt><trkpt lat="40.88245162626649" lon="9.054220101041846"><ele>198.66666666666666</ele><time>2026-04-30T09:35:48.001Z</time></trkpt><trkpt lat="40.88255447853053" lon="9.05440635570684"><ele>198.33333333333331</ele><time>2026-04-30T09:35:49.001Z</time></trkpt><trkpt lat="40.88264269174285" lon="9.054582785869494"><ele>198.0</ele><time>2026-04-30T09:35:50.001Z</time></trkpt><trkpt lat="40.882732630104925" lon="9.054743094865998"><ele>200.0</ele><time>2026-04-30T09:35:51.001Z</time></trkpt><trkpt lat="40.882875779497546" lon="9.05483309642192"><ele>202.0</ele><time>2026-04-30T09:35:52.001Z</time></trkpt><trkpt lat="40.88300347649433" lon="9.054918528017275"><ele>204.0</ele><time>2026-04-30T09:35:53.001Z</time></trkpt><trkpt lat="40.88312820983693" lon="9.055013550125334"><ele>206.0</ele><time>2026-04-30T09:35:54.001Z</time></trkpt><trkpt lat="40.88322003917389" lon="9.055148736049583"><ele>206.0</ele><time>2026-04-30T09:35:55.001Z</time></trkpt><trkpt lat="40.88328862073822" lon="9.055310177154624"><ele>206.0</ele><time>2026-04-30T09:35:56.001Z</time></trkpt><trkpt lat="40.88334353344821" lon="9.055493884806754"><ele>206.0</ele><time>2026-04-30T09:35:57.001Z</time></trkpt><trkpt lat="40.88338665173236" lon="9.055689045197967"><ele>206.0</ele><time>2026-04-30T09:35:58.001Z</time></trkpt><trkpt lat="40.88347395676523" lon="9.055850348814214"><ele>209.66666666666669</ele><time>2026-04-30T09:35:59.001Z</time></trkpt><trkpt lat="40.88363437946717" lon="9.055934422984821"><ele>213.33333333333331</ele><time>2026-04-30T09:36:00.001Z</time></trkpt><trkpt lat="40.88378995124105" lon="9.05603005512231"><ele>217.0</ele><time>2026-04-30T09:36:01.001Z</time></trkpt><trkpt lat="40.88394222542691" lon="9.05612674363252"><ele>217.0</ele><time>2026-04-30T09:36:02.001Z</time></trkpt><trkpt lat="40.88408447658091" lon="9.056181787458826"><ele>217.0</ele><time>2026-04-30T09:36:03.001Z</time></trkpt><trkpt lat="40.88419897834145" lon="9.056276360153772"><ele>217.0</ele><time>2026-04-30T09:36:04.001Z</time></trkpt><trkpt lat="40.88427834238869" lon="9.056402523660877"><ele>217.0</ele><time>2026-04-30T09:36:05.001Z</time></trkpt><trkpt lat="40.884326240019924" lon="9.056539003016335"><ele>217.39999999999998</ele><time>2026-04-30T09:36:06.001Z</time></trkpt><trkpt lat="40.88437589541491" lon="9.056666250217425"><ele>217.79999999999998</ele><time>2026-04-30T09:36:07.001Z</time></trkpt><trkpt lat="40.88444924341806" lon="9.056769938800405"><ele>218.2</ele><time>2026-04-30T09:36:08.001Z</time></trkpt><trkpt lat="40.884561847300475" lon="9.056778419532677"><ele>218.6</ele><time>2026-04-30T09:36:09.001Z</time></trkpt><trkpt lat="40.884675005906615" lon="9.056743329321828"><ele>219.0</ele><time>2026-04-30T09:36:10.001Z</time></trkpt><trkpt lat="40.88479504261165" lon="9.056666908208125"><ele>223.25</ele><time>2026-04-30T09:36:11Z</time></trkpt><trkpt lat="40.88492668100391" lon="9.056611792936282"><ele>227.5</ele><time>2026-04-30T09:36:12Z</time></trkpt><trkpt lat="40.88506793320566" lon="9.056612829022132"><ele>231.75</ele><time>2026-04-30T09:36:13Z</time></trkpt><trkpt lat="40.88520579540331" lon="9.056660890959705"><ele>236.0</ele><time>2026-04-30T09:36:14Z</time></trkpt><trkpt lat="40.88534121991452" lon="9.05675716529677"><ele>236.0</ele><time>2026-04-30T09:36:15Z</time></trkpt><trkpt lat="40.88548466686771" lon="9.056810350332794"><ele>236.0</ele><time>2026-04-30T09:36:16Z</time></trkpt><trkpt lat="40.88561628664485" lon="9.056969938801556"><ele>236.0</ele><time>2026-04-30T09:36:17Z</time></trkpt><trkpt lat="40.885740838491486" lon="9.05714373551059"><ele>236.0</ele><time>2026-04-30T09:36:18Z</time></trkpt><trkpt lat="40.88584442882167" lon="9.057280884218954"><ele>236.0</ele><time>2026-04-30T09:36:19Z</time></trkpt><trkpt lat="40.88595121791351" lon="9.057362376086498"><ele>236.0</ele><time>2026-04-30T09:36:20Z</time></trkpt><trkpt lat="40.88606551920053" lon="9.057391562684042"><ele>236.0</ele><time>2026-04-30T09:36:21Z</time></trkpt><trkpt lat="40.88616453964726" lon="9.057361283125738"><ele>235.0</ele><time>2026-04-30T09:36:22Z</time></trkpt><trkpt lat="40.88626395185359" lon="9.057272273539304"><ele>234.0</ele><time>2026-04-30T09:36:23Z</time></trkpt><trkpt lat="40.886359313984" lon="9.057137309392042"><ele>233.0</ele><time>2026-04-30T09:36:24Z</time></trkpt><trkpt lat="40.88645610523439" lon="9.056964063200978"><ele>232.0</ele><time>2026-04-30T09:36:25Z</time></trkpt><trkpt lat="40.88657605003303" lon="9.056795739260481"><ele>232.0</ele><time>2026-04-30T09:36:26Z</time></trkpt><trkpt lat="40.88673035247761" lon="9.056661980904636"><ele>232.0</ele><time>2026-04-30T09:36:27Z</time></trkpt><trkpt lat="40.88689998266338" lon="9.056563944948799"><ele>232.0</ele><time>2026-04-30T09:36:28Z</time></trkpt><trkpt lat="40.8870744215936" lon="9.056463018304475"><ele>240.33333333333331</ele><time>2026-04-30T09:36:29Z</time></trkpt><trkpt lat="40.88725514070146" lon="9.056372876937324"><ele>248.66666666666669</ele><time>2026-04-30T09:36:30Z</time></trkpt><trkpt lat="40.88744798466575" lon="9.056329089450774"><ele>257.0</ele><time>2026-04-30T09:36:31Z</time></trkpt><trkpt lat="40.887640818928475" lon="9.05624461997508"><ele>258.0</ele><time>2026-04-30T09:36:32Z</time></trkpt><trkpt lat="40.88780653051754" lon="9.056196001389596"><ele>259.0</ele><time>2026-04-30T09:36:33Z</time></trkpt><trkpt lat="40.88795460133616" lon="9.056186509839527"><ele>260.0</ele><time>2026-04-30T09:36:34Z</time></trkpt><trkpt lat="40.88808890589361" lon="9.056204469451655"><ele>260.0</ele><time>2026-04-30T09:36:35Z</time></trkpt><trkpt lat="40.88822741322961" lon="9.056257531889027"><ele>260.0</ele><time>2026-04-30T09:36:36Z</time></trkpt><trkpt lat="40.88837790864135" lon="9.056290069007552"><ele>260.0</ele><time>2026-04-30T09:36:37Z</time></trkpt><trkpt lat="40.888526336006656" lon="9.056297478716656"><ele>260.0</ele><time>2026-04-30T09:36:38Z</time></trkpt><trkpt lat="40.88868882144269" lon="9.056269898958872"><ele>261.25</ele><time>2026-04-30T09:36:39Z</time></trkpt><trkpt lat="40.888839675396696" lon="9.056248885540231"><ele>262.5</ele><time>2026-04-30T09:36:40Z</time></trkpt><trkpt lat="40.88898334668427" lon="9.056223507817904"><ele>263.75</ele><time>2026-04-30T09:36:41Z</time></trkpt><trkpt lat="40.88911759477741" lon="9.056206175577666"><ele>265.0</ele><time>2026-04-30T09:36:42Z</time></trkpt><trkpt lat="40.889223246445205" lon="9.056197471417468"><ele>267.4</ele><time>2026-04-30T09:36:43Z</time></trkpt><trkpt lat="40.88930890043479" lon="9.056234425416596"><ele>269.8</ele><time>2026-04-30T09:36:44Z</time></trkpt><trkpt lat="40.8893572505526" lon="9.05631670580628"><ele>272.2</ele><time>2026-04-30T09:36:45Z</time></trkpt><trkpt lat="40.88932741469787" lon="9.056433537090898"><ele>274.6</ele><time>2026-04-30T09:36:46Z</time></trkpt><trkpt lat="40.88929819658361" lon="9.056559376922248"><ele>277.0</ele><time>2026-04-30T09:36:47Z</time></trkpt><trkpt lat="40.889260860771714" lon="9.056753418917419"><ele>267.0</ele><time>2026-04-30T09:36:48Z</time></trkpt><trkpt lat="40.88921932613587" lon="9.056968195460675"><ele>257.0</ele><time>2026-04-30T09:36:49Z</time></trkpt><trkpt lat="40.88917676714006" lon="9.057190225139873"><ele>247.0</ele><time>2026-04-30T09:36:50Z</time></trkpt><trkpt lat="40.88914021857015" lon="9.057380898514435"><ele>248.25</ele><time>2026-04-30T09:36:51Z</time></trkpt><trkpt lat="40.88910309891573" lon="9.057555754563106"><ele>249.5</ele><time>2026-04-30T09:36:52Z</time></trkpt><trkpt lat="40.889062725167136" lon="9.057711668488778"><ele>250.75</ele><time>2026-04-30T09:36:53Z</time></trkpt><trkpt lat="40.88901228375455" lon="9.057844443596622"><ele>252.0</ele><time>2026-04-30T09:36:54Z</time></trkpt><trkpt lat="40.88898101989153" lon="9.057962112610348"><ele>252.0</ele><time>2026-04-30T09:36:55Z</time></trkpt><trkpt lat="40.88892910952764" lon="9.058048759292655"><ele>252.0</ele><time>2026-04-30T09:36:56Z</time></trkpt><trkpt lat="40.88890241741632" lon="9.058131554431723"><ele>252.0</ele><time>2026-04-30T09:36:57Z</time></trkpt><trkpt lat="40.88889037425301" lon="9.05821957869302"><ele>252.0</ele><time>2026-04-30T09:36:58Z</time></trkpt><trkpt lat="40.888922501325524" lon="9.058327758087072"><ele>252.0</ele><time>2026-04-30T09:36:59Z</time></trkpt><trkpt lat="40.889009205721166" lon="9.05845214039281"><ele>252.0</ele><time>2026-04-30T09:37:00Z</time></trkpt><trkpt lat="40.88910993087991" lon="9.058588906421752"><ele>252.33333333333331</ele><time>2026-04-30T09:37:01Z</time></trkpt><trkpt lat="40.889232488104845" lon="9.058756090943081"><ele>252.66666666666666</ele><time>2026-04-30T09:37:02Z</time></trkpt><trkpt lat="40.88934144126816" lon="9.058903146906273"><ele>253.0</ele><time>2026-04-30T09:37:03Z</time></trkpt><trkpt lat="40.8894298324152" lon="9.059017107917883"><ele>258.0</ele><time>2026-04-30T09:37:04Z</time></trkpt><trkpt lat="40.889468387846165" lon="9.059153255011914"><ele>263.0</ele><time>2026-04-30T09:37:05Z</time></trkpt><trkpt lat="40.88941341084578" lon="9.059284913865735"><ele>268.0</ele><time>2026-04-30T09:37:06.001Z</time></trkpt><trkpt lat="40.88940731026416" lon="9.059454263321248"><ele>273.0</ele><time>2026-04-30T09:37:07.001Z</time></trkpt><trkpt lat="40.8894483845318" lon="9.05963457263414"><ele>273.0</ele><time>2026-04-30T09:37:08.001Z</time></trkpt><trkpt lat="40.88952050226495" lon="9.059843861000871"><ele>273.0</ele><time>2026-04-30T09:37:09.001Z</time></trkpt><trkpt lat="40.88957555586756" lon="9.060048569952599"><ele>273.0</ele><time>2026-04-30T09:37:10.001Z</time></trkpt><trkpt lat="40.88965116181571" lon="9.060211604261937"><ele>271.25</ele><time>2026-04-30T09:37:11.001Z</time></trkpt><trkpt lat="40.88976313450102" lon="9.060328000851422"><ele>269.5</ele><time>2026-04-30T09:37:12.001Z</time></trkpt><trkpt lat="40.88988120668765" lon="9.06043809482217"><ele>267.75</ele><time>2026-04-30T09:37:13.001Z</time></trkpt><trkpt lat="40.89000462954661" lon="9.06051923894915"><ele>266.0</ele><time>2026-04-30T09:37:14.001Z</time></trkpt><trkpt lat="40.89013030636642" lon="9.060610723750525"><ele>267.5</ele><time>2026-04-30T09:37:15.001Z</time></trkpt><trkpt lat="40.89025361599964" lon="9.060668074300766"><ele>269.0</ele><time>2026-04-30T09:37:16.001Z</time></trkpt><trkpt lat="40.890347889913755" lon="9.060771832844221"><ele>270.5</ele><time>2026-04-30T09:37:17.001Z</time></trkpt><trkpt lat="40.89040820567235" lon="9.060920550855647"><ele>272.0</ele><time>2026-04-30T09:37:18.001Z</time></trkpt><trkpt lat="40.89045039713492" lon="9.061076065014493"><ele>272.0</ele><time>2026-04-30T09:37:19.001Z</time></trkpt><trkpt lat="40.8905364665907" lon="9.061186987976852"><ele>272.0</ele><time>2026-04-30T09:37:20.001Z</time></trkpt><trkpt lat="40.89064765067822" lon="9.061252722534674"><ele>272.0</ele><time>2026-04-30T09:37:21.001Z</time></trkpt><trkpt lat="40.890753562616496" lon="9.061319980765578"><ele>272.0</ele><time>2026-04-30T09:37:22.001Z</time></trkpt><trkpt lat="40.89085958128739" lon="9.061394526972068"><ele>274.75</ele><time>2026-04-30T09:37:23.001Z</time></trkpt><trkpt lat="40.89096141610613" lon="9.06146938939646"><ele>277.5</ele><time>2026-04-30T09:37:24.001Z</time></trkpt><trkpt lat="40.891054830686265" lon="9.061546632710249"><ele>280.25</ele><time>2026-04-30T09:37:25.001Z</time></trkpt><trkpt lat="40.891159795971305" lon="9.061599757881027"><ele>283.0</ele><time>2026-04-30T09:37:26.001Z</time></trkpt><trkpt lat="40.89127944932379" lon="9.061609403645027"><ele>283.0</ele><time>2026-04-30T09:37:27.001Z</time></trkpt><trkpt lat="40.89140332571644" lon="9.061574603913334"><ele>283.0</ele><time>2026-04-30T09:37:28.001Z</time></trkpt><trkpt lat="40.89152708960397" lon="9.061514472268026"><ele>283.0</ele><time>2026-04-30T09:37:29.001Z</time></trkpt><trkpt lat="40.89166003368982" lon="9.061445104354718"><ele>283.0</ele><time>2026-04-30T09:37:30.001Z</time></trkpt><trkpt lat="40.89177815893327" lon="9.061381421240235"><ele>283.75</ele><time>2026-04-30T09:37:31.001Z</time></trkpt><trkpt lat="40.89190299122925" lon="9.061331410414098"><ele>284.5</ele><time>2026-04-30T09:37:32.001Z</time></trkpt><trkpt lat="40.89203545755249" lon="9.061294972608602"><ele>285.25</ele><time>2026-04-30T09:37:33.001Z</time></trkpt><trkpt lat="40.89216874308396" lon="9.061293198921327"><ele>286.0</ele><time>2026-04-30T09:37:34.001Z</time></trkpt><trkpt lat="40.89229123209208" lon="9.061316520951403"><ele>286.0</ele><time>2026-04-30T09:37:35.001Z</time></trkpt><trkpt lat="40.892415720874766" lon="9.061384294264661"><ele>286.0</ele><time>2026-04-30T09:37:36.001Z</time></trkpt><trkpt lat="40.89253626667052" lon="9.061465041098131"><ele>286.0</ele><time>2026-04-30T09:37:37.001Z</time></trkpt><trkpt lat="40.89265546866123" lon="9.061537253036782"><ele>286.0</ele><time>2026-04-30T09:37:38.001Z</time></trkpt><trkpt lat="40.89277010720299" lon="9.061595315436524"><ele>285.6</ele><time>2026-04-30T09:37:39.001Z</time></trkpt><trkpt lat="40.8928782926441" lon="9.061653107038948"><ele>285.20000000000005</ele><time>2026-04-30T09:37:40.001Z</time></trkpt><trkpt lat="40.892978744366175" lon="9.061698888998936"><ele>284.79999999999995</ele><time>2026-04-30T09:37:41.001Z</time></trkpt><trkpt lat="40.89307592222621" lon="9.061707634423732"><ele>284.4</ele><time>2026-04-30T09:37:42.001Z</time></trkpt><trkpt lat="40.89315520838515" lon="9.061684575473773"><ele>284.0</ele><time>2026-04-30T09:37:43.001Z</time></trkpt><trkpt lat="40.89322360887824" lon="9.061587085770553"><ele>284.0</ele><time>2026-04-30T09:37:44.001Z</time></trkpt><trkpt lat="40.89326776419199" lon="9.06147762215278"><ele>284.0</ele><time>2026-04-30T09:37:45.001Z</time></trkpt><trkpt lat="40.89329169361834" lon="9.061348444326711"><ele>284.0</ele><time>2026-04-30T09:37:46.001Z</time></trkpt><trkpt lat="40.89332097091383" lon="9.06121521456111"><ele>284.0</ele><time>2026-04-30T09:37:47.001Z</time></trkpt><trkpt lat="40.89336066456069" lon="9.061060189018763"><ele>284.0</ele><time>2026-04-30T09:37:48.001Z</time></trkpt><trkpt lat="40.8934321584619" lon="9.060918181320538"><ele>283.0</ele><time>2026-04-30T09:37:49.001Z</time></trkpt><trkpt lat="40.89351173970485" lon="9.060772383876738"><ele>282.0</ele><time>2026-04-30T09:37:50.001Z</time></trkpt><trkpt lat="40.89359455874383" lon="9.060632055345858"><ele>281.0</ele><time>2026-04-30T09:37:51.001Z</time></trkpt><trkpt lat="40.89368025768705" lon="9.060482438876274"><ele>280.0</ele><time>2026-04-30T09:37:52.001Z</time></trkpt><trkpt lat="40.89376655450127" lon="9.060334531442182"><ele>280.0</ele><time>2026-04-30T09:37:53.001Z</time></trkpt><trkpt lat="40.89385412198346" lon="9.060185908482019"><ele>280.0</ele><time>2026-04-30T09:37:54.001Z</time></trkpt><trkpt lat="40.89395745071737" lon="9.060037984204211"><ele>280.0</ele><time>2026-04-30T09:37:55.001Z</time></trkpt><trkpt lat="40.894055356058175" lon="9.0598848627127"><ele>280.0</ele><time>2026-04-30T09:37:56.001Z</time></trkpt><trkpt lat="40.894132640346726" lon="9.05971278215847"><ele>281.25</ele><time>2026-04-30T09:37:57.001Z</time></trkpt><trkpt lat="40.89418523605892" lon="9.05954147358026"><ele>282.5</ele><time>2026-04-30T09:37:58.001Z</time></trkpt><trkpt lat="40.89423761417498" lon="9.05936682576245"><ele>283.75</ele><time>2026-04-30T09:37:59.001Z</time></trkpt><trkpt lat="40.89428702368801" lon="9.059192355106473"><ele>285.0</ele><time>2026-04-30T09:38:00.001Z</time></trkpt><trkpt lat="40.8943497031644" lon="9.059039809661137"><ele>285.5</ele><time>2026-04-30T09:38:01.001Z</time></trkpt><trkpt lat="40.89442150227564" lon="9.058898849118211"><ele>286.0</ele><time>2026-04-30T09:38:02.001Z</time></trkpt><trkpt lat="40.89449857134973" lon="9.058772880385973"><ele>286.5</ele><time>2026-04-30T09:38:03.001Z</time></trkpt><trkpt lat="40.89457511308552" lon="9.05866210973904"><ele>287.0</ele><time>2026-04-30T09:38:04.001Z</time></trkpt><trkpt lat="40.89464811243729" lon="9.058554469108358"><ele>287.0</ele><time>2026-04-30T09:38:05.001Z</time></trkpt><trkpt lat="40.894718529350094" lon="9.058453229848222"><ele>287.0</ele><time>2026-04-30T09:38:06.001Z</time></trkpt><trkpt lat="40.89479225814325" lon="9.058382161089261"><ele>287.0</ele><time>2026-04-30T09:38:07.001Z</time></trkpt><trkpt lat="40.89486950952796" lon="9.058340967060976"><ele>287.0</ele><time>2026-04-30T09:38:08.001Z</time></trkpt><trkpt lat="40.89496095924827" lon="9.058317826953246"><ele>287.0</ele><time>2026-04-30T09:38:09.001Z</time></trkpt><trkpt lat="40.89506207638984" lon="9.058326016435904"><ele>288.0</ele><time>2026-04-30T09:38:10.001Z</time></trkpt><trkpt lat="40.895148215505984" lon="9.058365576277835"><ele>289.0</ele><time>2026-04-30T09:38:11.001Z</time></trkpt><trkpt lat="40.89522231703801" lon="9.058415802119335"><ele>290.0</ele><time>2026-04-30T09:38:12.001Z</time></trkpt><trkpt lat="40.89529041340732" lon="9.058458478559242"><ele>291.0</ele><time>2026-04-30T09:38:13.001Z</time></trkpt><trkpt lat="40.89534787809923" lon="9.05849917107317"><ele>292.0</ele><time>2026-04-30T09:38:14.001Z</time></trkpt><trkpt lat="40.895410500053266" lon="9.058573638299945"><ele>293.0</ele><time>2026-04-30T09:38:16.001Z</time></trkpt><trkpt lat="40.89550314149627" lon="9.05862120424183"><ele>293.0</ele><time>2026-04-30T09:38:50Z</time></trkpt><trkpt lat="40.895567465727126" lon="9.058644299456741"><ele>293.0</ele><time>2026-04-30T09:38:51Z</time></trkpt><trkpt lat="40.89564638590564" lon="9.058670142082573"><ele>293.0</ele><time>2026-04-30T09:38:52Z</time></trkpt><trkpt lat="40.895736884694124" lon="9.05868302750517"><ele>293.0</ele><time>2026-04-30T09:38:53Z</time></trkpt><trkpt lat="40.89585195494225" lon="9.058672987450972"><ele>293.0</ele><time>2026-04-30T09:38:54Z</time></trkpt><trkpt lat="40.89597653497332" lon="9.058643507513933"><ele>293.5</ele><time>2026-04-30T09:38:55Z</time></trkpt><trkpt lat="40.896115181764195" lon="9.058613177191935"><ele>294.0</ele><time>2026-04-30T09:38:56Z</time></trkpt><trkpt lat="40.89624481663254" lon="9.058609404637874"><ele>294.5</ele><time>2026-04-30T09:38:57Z</time></trkpt><trkpt lat="40.896358606559936" lon="9.058653191951764"><ele>295.0</ele><time>2026-04-30T09:38:58Z</time></trkpt><trkpt lat="40.89645731076431" lon="9.058727001858808"><ele>295.0</ele><time>2026-04-30T09:38:59Z</time></trkpt><trkpt lat="40.89654855809522" lon="9.058837959608708"><ele>295.0</ele><time>2026-04-30T09:39:00Z</time></trkpt><trkpt lat="40.89661127625497" lon="9.058993713263488"><ele>295.0</ele><time>2026-04-30T09:39:01Z</time></trkpt><trkpt lat="40.89669849796424" lon="9.05915211801664"><ele>295.0</ele><time>2026-04-30T09:39:02Z</time></trkpt><trkpt lat="40.89677874032953" lon="9.0593325695696"><ele>303.0</ele><time>2026-04-30T09:39:03Z</time></trkpt><trkpt lat="40.896852833320246" lon="9.05952977698997"><ele>311.0</ele><time>2026-04-30T09:39:04Z</time></trkpt><trkpt lat="40.89695898469092" lon="9.059714096177382"><ele>319.0</ele><time>2026-04-30T09:39:05Z</time></trkpt><trkpt lat="40.897080619198434" lon="9.059881992209363"><ele>314.75</ele><time>2026-04-30T09:39:06Z</time></trkpt><trkpt lat="40.8972020555516" lon="9.06002011798052"><ele>310.5</ele><time>2026-04-30T09:39:07Z</time></trkpt><trkpt lat="40.897320401030285" lon="9.060137565046015"><ele>306.25</ele><time>2026-04-30T09:39:08Z</time></trkpt><trkpt lat="40.89741937811652" lon="9.060231651339299"><ele>302.0</ele><time>2026-04-30T09:39:09Z</time></trkpt><trkpt lat="40.89751197544055" lon="9.060306111296512"><ele>302.0</ele><time>2026-04-30T09:39:10Z</time></trkpt><trkpt lat="40.89754956632163" lon="9.060412863332697"><ele>302.0</ele><time>2026-04-30T09:39:11Z</time></trkpt><trkpt lat="40.897548772420755" lon="9.060528618981822"><ele>302.0</ele><time>2026-04-30T09:39:12Z</time></trkpt><trkpt lat="40.89750964621796" lon="9.060627340928997"><ele>302.0</ele><time>2026-04-30T09:39:13Z</time></trkpt><trkpt lat="40.89743920409646" lon="9.060690082011602"><ele>302.0</ele><time>2026-04-30T09:39:14Z</time></trkpt><trkpt lat="40.89734777359174" lon="9.060709424961779"><ele>302.0</ele><time>2026-04-30T09:39:15Z</time></trkpt><trkpt lat="40.89723490020474" lon="9.060681964124067"><ele>302.0</ele><time>2026-04-30T09:39:16Z</time></trkpt><trkpt lat="40.897100725263954" lon="9.060633512306742"><ele>302.0</ele><time>2026-04-30T09:39:17Z</time></trkpt><trkpt lat="40.89694992686749" lon="9.060587206456152"><ele>302.0</ele><time>2026-04-30T09:39:18Z</time></trkpt><trkpt lat="40.896789858499716" lon="9.060538722007903"><ele>300.33333333333337</ele><time>2026-04-30T09:39:19Z</time></trkpt><trkpt lat="40.89664369435147" lon="9.06045640658489"><ele>298.6666666666667</ele><time>2026-04-30T09:39:20Z</time></trkpt><trkpt lat="40.89651946069353" lon="9.060337572084947"><ele>297.0</ele><time>2026-04-30T09:39:21Z</time></trkpt><trkpt lat="40.89639694517887" lon="9.060185193359915"><ele>297.0</ele><time>2026-04-30T09:39:22Z</time></trkpt><trkpt lat="40.8962809574417" lon="9.060055763638356"><ele>297.0</ele><time>2026-04-30T09:39:23Z</time></trkpt><trkpt lat="40.8961512902136" lon="9.059967253715275"><ele>297.0</ele><time>2026-04-30T09:39:24Z</time></trkpt><trkpt lat="40.896019597329044" lon="9.05994384822298"><ele>297.0</ele><time>2026-04-30T09:39:25Z</time></trkpt><trkpt lat="40.895885574664405" lon="9.059965439977478"><ele>298.0</ele><time>2026-04-30T09:39:26Z</time></trkpt><trkpt lat="40.89576855581919" lon="9.059996212963563"><ele>299.0</ele><time>2026-04-30T09:39:27Z</time></trkpt><trkpt lat="40.89570222898506" lon="9.060095275028711"><ele>300.0</ele><time>2026-04-30T09:39:28.001Z</time></trkpt><trkpt lat="40.89566255222842" lon="9.060212536221261"><ele>301.0</ele><time>2026-04-30T09:39:29.001Z</time></trkpt><trkpt lat="40.895634183092284" lon="9.060359344855716"><ele>302.0</ele><time>2026-04-30T09:39:30.001Z</time></trkpt><trkpt lat="40.89557953077342" lon="9.060510042708689"><ele>302.0</ele><time>2026-04-30T09:39:31.001Z</time></trkpt><trkpt lat="40.8954897947691" lon="9.060645505385597"><ele>302.0</ele><time>2026-04-30T09:39:32.001Z</time></trkpt><trkpt lat="40.89538965986709" lon="9.0607670459271"><ele>302.0</ele><time>2026-04-30T09:39:33.001Z</time></trkpt><trkpt lat="40.895311308365656" lon="9.060868075444498"><ele>302.0</ele><time>2026-04-30T09:39:34.001Z</time></trkpt><trkpt lat="40.89528536487733" lon="9.0609983237596"><ele>306.0</ele><time>2026-04-30T09:39:35.001Z</time></trkpt><trkpt lat="40.89530421372215" lon="9.06115983011078"><ele>310.0</ele><time>2026-04-30T09:39:36.001Z</time></trkpt><trkpt lat="40.89533773136626" lon="9.061346736585124"><ele>314.0</ele><time>2026-04-30T09:39:37.001Z</time></trkpt><trkpt lat="40.89540964180028" lon="9.06153122576195"><ele>318.0</ele><time>2026-04-30T09:39:38.001Z</time></trkpt><trkpt lat="40.89551140964831" lon="9.061716347837022"><ele>320.0</ele><time>2026-04-30T09:39:39.001Z</time></trkpt><trkpt lat="40.89556130685624" lon="9.061821487288473"><ele>322.0</ele><time>2026-04-30T09:39:40.001Z</time></trkpt><trkpt lat="40.89560077084954" lon="9.061986322904447"><ele>324.0</ele><time>2026-04-30T09:39:41.001Z</time></trkpt><trkpt lat="40.895516428767436" lon="9.062135135872397"><ele>326.0</ele><time>2026-04-30T09:39:42.001Z</time></trkpt><trkpt lat="40.89551026791646" lon="9.062275480043152"><ele>326.0</ele><time>2026-04-30T09:39:43.001Z</time></trkpt><trkpt lat="40.89553383724353" lon="9.062389238872015"><ele>326.0</ele><time>2026-04-30T09:39:44.001Z</time></trkpt><trkpt lat="40.89557444135307" lon="9.062483474472097"><ele>326.0</ele><time>2026-04-30T09:39:45.001Z</time></trkpt><trkpt lat="40.895635474075064" lon="9.062570247572745"><ele>326.0</ele><time>2026-04-30T09:39:46.001Z</time></trkpt><trkpt lat="40.89569861787517" lon="9.06266308076329"><ele>326.0</ele><time>2026-04-30T09:39:47.001Z</time></trkpt><trkpt lat="40.89574559073693" lon="9.062770578544301"><ele>326.0</ele><time>2026-04-30T09:39:48.001Z</time></trkpt><trkpt lat="40.895811091523086" lon="9.062860694261762"><ele>326.0</ele><time>2026-04-30T09:39:49.001Z</time></trkpt><trkpt lat="40.89585015138337" lon="9.062963570714462"><ele>326.0</ele><time>2026-04-30T09:39:50.001Z</time></trkpt><trkpt lat="40.895876728084005" lon="9.063046056735947"><ele>326.0</ele><time>2026-04-30T09:39:51.001Z</time></trkpt><trkpt lat="40.89584869152146" lon="9.063182693355339"><ele>326.0</ele><time>2026-04-30T09:39:53.001Z</time></trkpt><trkpt lat="40.89574977529735" lon="9.063273081448353"><ele>326.0</ele><time>2026-04-30T09:39:55.001Z</time></trkpt><trkpt lat="40.89567526047538" lon="9.063299798810434"><ele>326.33333333333337</ele><time>2026-04-30T09:39:56.001Z</time></trkpt><trkpt lat="40.8955868026341" lon="9.063287754467332"><ele>326.6666666666667</ele><time>2026-04-30T09:39:57.001Z</time></trkpt><trkpt lat="40.895508914995304" lon="9.063286324189807"><ele>327.0</ele><time>2026-04-30T09:39:58.001Z</time></trkpt><trkpt lat="40.89545088860288" lon="9.063319108845043"><ele>327.3333333333333</ele><time>2026-04-30T09:39:59.001Z</time></trkpt><trkpt lat="40.895399582421355" lon="9.06337998490358"><ele>327.66666666666663</ele><time>2026-04-30T09:40:00.001Z</time></trkpt><trkpt lat="40.895364456217145" lon="9.06346976194316"><ele>328.0</ele><time>2026-04-30T09:40:01.001Z</time></trkpt><trkpt lat="40.89534271220392" lon="9.0635721350674"><ele>328.0</ele><time>2026-04-30T09:40:02.001Z</time></trkpt><trkpt lat="40.89533155715523" lon="9.063666580137607"><ele>328.0</ele><time>2026-04-30T09:40:03.001Z</time></trkpt><trkpt lat="40.895327290733704" lon="9.06375729173189"><ele>328.0</ele><time>2026-04-30T09:40:04.001Z</time></trkpt><trkpt lat="40.89532188510008" lon="9.063866657188639"><ele>328.0</ele><time>2026-04-30T09:40:05.001Z</time></trkpt><trkpt lat="40.89532214863834" lon="9.064002870860156"><ele>328.0</ele><time>2026-04-30T09:40:06.001Z</time></trkpt><trkpt lat="40.89533372628506" lon="9.06414548132099"><ele>328.0</ele><time>2026-04-30T09:40:07.001Z</time></trkpt><trkpt lat="40.89536090146357" lon="9.06428735963006"><ele>330.5</ele><time>2026-04-30T09:40:08.001Z</time></trkpt><trkpt lat="40.8953585336811" lon="9.064431699813753"><ele>333.0</ele><time>2026-04-30T09:40:09.001Z</time></trkpt><trkpt lat="40.89534671326516" lon="9.06455651569163"><ele>335.5</ele><time>2026-04-30T09:40:10.001Z</time></trkpt><trkpt lat="40.89531354567727" lon="9.064655065586848"><ele>338.0</ele><time>2026-04-30T09:40:11.001Z</time></trkpt><trkpt lat="40.89527035859337" lon="9.064738875260783"><ele>340.5</ele><time>2026-04-30T09:40:12.001Z</time></trkpt><trkpt lat="40.895208254781714" lon="9.064807797347436"><ele>343.0</ele><time>2026-04-30T09:40:13.001Z</time></trkpt><trkpt lat="40.89512523358086" lon="9.064797878045406"><ele>342.0</ele><time>2026-04-30T09:40:14.001Z</time></trkpt><trkpt lat="40.89501320036046" lon="9.064794024670428"><ele>341.0</ele><time>2026-04-30T09:40:15.001Z</time></trkpt><trkpt lat="40.89487613790256" lon="9.064845389246546"><ele>340.0</ele><time>2026-04-30T09:40:16.001Z</time></trkpt><trkpt lat="40.894748661893466" lon="9.064954722189254"><ele>339.0</ele><time>2026-04-30T09:40:17.001Z</time></trkpt><trkpt lat="40.894615031779594" lon="9.06503239123388"><ele>339.0</ele><time>2026-04-30T09:40:18.001Z</time></trkpt><trkpt lat="40.89448968043456" lon="9.065032681707226"><ele>339.0</ele><time>2026-04-30T09:40:19.001Z</time></trkpt><trkpt lat="40.89434919578962" lon="9.065029073060822"><ele>339.0</ele><time>2026-04-30T09:40:20.001Z</time></trkpt><trkpt lat="40.894215642520095" lon="9.06506520640235"><ele>339.0</ele><time>2026-04-30T09:40:21.001Z</time></trkpt><trkpt lat="40.89410226754734" lon="9.065174746186972"><ele>337.0</ele><time>2026-04-30T09:40:22.001Z</time></trkpt><trkpt lat="40.89400721069355" lon="9.065284758199784"><ele>335.0</ele><time>2026-04-30T09:40:23Z</time></trkpt><trkpt lat="40.89393412689754" lon="9.065398551695669"><ele>333.0</ele><time>2026-04-30T09:40:24Z</time></trkpt><trkpt lat="40.89394457630418" lon="9.065565225487994"><ele>331.0</ele><time>2026-04-30T09:40:25Z</time></trkpt><trkpt lat="40.89397394521579" lon="9.065740696801084"><ele>335.3333333333333</ele><time>2026-04-30T09:40:26Z</time></trkpt><trkpt lat="40.893997291343595" lon="9.065934389430462"><ele>339.6666666666667</ele><time>2026-04-30T09:40:27Z</time></trkpt><trkpt lat="40.894035594302544" lon="9.066134519765438"><ele>344.0</ele><time>2026-04-30T09:40:28Z</time></trkpt><trkpt lat="40.89407740402797" lon="9.066352972635102"><ele>344.0</ele><time>2026-04-30T09:40:29Z</time></trkpt><trkpt lat="40.89412132361787" lon="9.066582448379048"><ele>344.0</ele><time>2026-04-30T09:40:30Z</time></trkpt><trkpt lat="40.89416701296388" lon="9.066826446066667"><ele>344.0</ele><time>2026-04-30T09:40:31Z</time></trkpt><trkpt lat="40.89420759017155" lon="9.06705653897149"><ele>345.5</ele><time>2026-04-30T09:40:32Z</time></trkpt><trkpt lat="40.894240626316744" lon="9.067256066970156"><ele>347.0</ele><time>2026-04-30T09:40:33Z</time></trkpt><trkpt lat="40.894203669616225" lon="9.067443575707237"><ele>348.5</ele><time>2026-04-30T09:40:34Z</time></trkpt><trkpt lat="40.894142153346756" lon="9.067604903230801"><ele>350.0</ele><time>2026-04-30T09:40:35Z</time></trkpt><trkpt lat="40.89408319733558" lon="9.067763746329453"><ele>351.75</ele><time>2026-04-30T09:40:36Z</time></trkpt><trkpt lat="40.8939766901544" lon="9.067905637592858"><ele>353.5</ele><time>2026-04-30T09:40:37Z</time></trkpt><trkpt lat="40.89385680356177" lon="9.06803174361325"><ele>355.25</ele><time>2026-04-30T09:40:38Z</time></trkpt><trkpt lat="40.8937557259928" lon="9.068124994214132"><ele>357.0</ele><time>2026-04-30T09:40:39Z</time></trkpt><trkpt lat="40.89369595035656" lon="9.068249503608605"><ele>360.0</ele><time>2026-04-30T09:40:40Z</time></trkpt><trkpt lat="40.893681794542765" lon="9.068390343139988"><ele>363.0</ele><time>2026-04-30T09:40:41Z</time></trkpt><trkpt lat="40.89372608163971" lon="9.068537934774257"><ele>366.0</ele><time>2026-04-30T09:40:42Z</time></trkpt><trkpt lat="40.89382071750335" lon="9.06867362347876"><ele>369.0</ele><time>2026-04-30T09:40:43Z</time></trkpt><trkpt lat="40.893908720694384" lon="9.068818053773976"><ele>369.0</ele><time>2026-04-30T09:40:44Z</time></trkpt><trkpt lat="40.89396244091192" lon="9.068967924166213"><ele>369.0</ele><time>2026-04-30T09:40:45Z</time></trkpt><trkpt lat="40.89397446020001" lon="9.069136531069352"><ele>369.0</ele><time>2026-04-30T09:40:46Z</time></trkpt><trkpt lat="40.8939566003524" lon="9.069330069469368"><ele>369.0</ele><time>2026-04-30T09:40:47Z</time></trkpt><trkpt lat="40.8939647973221" lon="9.06953682782876"><ele>369.6666666666667</ele><time>2026-04-30T09:40:48Z</time></trkpt><trkpt lat="40.89398856959393" lon="9.069726210274988"><ele>370.33333333333337</ele><time>2026-04-30T09:40:49Z</time></trkpt><trkpt lat="40.89405056288997" lon="9.069910496485226"><ele>371.0</ele><time>2026-04-30T09:40:50Z</time></trkpt><trkpt lat="40.89413782403605" lon="9.07008588040361"><ele>369.0</ele><time>2026-04-30T09:40:51Z</time></trkpt><trkpt lat="40.89425352456348" lon="9.070244678938177"><ele>367.0</ele><time>2026-04-30T09:40:52Z</time></trkpt><trkpt lat="40.894381047484686" lon="9.07040263337938"><ele>365.0</ele><time>2026-04-30T09:40:53Z</time></trkpt><trkpt lat="40.89451588968608" lon="9.070554983477324"><ele>369.33333333333337</ele><time>2026-04-30T09:40:54Z</time></trkpt><trkpt lat="40.894663423110565" lon="9.070702937222173"><ele>373.6666666666667</ele><time>2026-04-30T09:40:55Z</time></trkpt><trkpt lat="40.89482550086895" lon="9.070841380906323"><ele>378.0</ele><time>2026-04-30T09:40:56Z</time></trkpt><trkpt lat="40.89499398321933" lon="9.070975031249912"><ele>388.33333333333337</ele><time>2026-04-30T09:40:57Z</time></trkpt><trkpt lat="40.895160582147625" lon="9.071116795952836"><ele>398.6666666666667</ele><time>2026-04-30T09:40:58Z</time></trkpt><trkpt lat="40.895324842582326" lon="9.071256238392127"><ele>409.0</ele><time>2026-04-30T09:40:59Z</time></trkpt><trkpt lat="40.895493528817234" lon="9.071384963712635"><ele>409.0</ele><time>2026-04-30T09:41:00Z</time></trkpt><trkpt lat="40.895648265145056" lon="9.071532229062697"><ele>409.0</ele><time>2026-04-30T09:41:01Z</time></trkpt><trkpt lat="40.895813523268544" lon="9.071661077366045"><ele>409.0</ele><time>2026-04-30T09:41:02Z</time></trkpt><trkpt lat="40.89595524241027" lon="9.071822773784914"><ele>410.33333333333337</ele><time>2026-04-30T09:41:03Z</time></trkpt><trkpt lat="40.89608015145938" lon="9.071998414619289"><ele>411.66666666666663</ele><time>2026-04-30T09:41:04Z</time></trkpt><trkpt lat="40.89617345584441" lon="9.072220675879784"><ele>413.0</ele><time>2026-04-30T09:41:05Z</time></trkpt><trkpt lat="40.896272546822885" lon="9.072458211135208"><ele>408.66666666666663</ele><time>2026-04-30T09:41:06Z</time></trkpt><trkpt lat="40.89636936151512" lon="9.072711036970816"><ele>404.33333333333337</ele><time>2026-04-30T09:41:07Z</time></trkpt><trkpt lat="40.89647781417203" lon="9.072958098461283"><ele>400.0</ele><time>2026-04-30T09:41:08Z</time></trkpt><trkpt lat="40.89657417340724" lon="9.073226691494986"><ele>397.33333333333337</ele><time>2026-04-30T09:41:09Z</time></trkpt><trkpt lat="40.89665282208499" lon="9.073485183632757"><ele>394.66666666666663</ele><time>2026-04-30T09:41:10Z</time></trkpt><trkpt lat="40.89671080347725" lon="9.073742707857969"><ele>392.0</ele><time>2026-04-30T09:41:11Z</time></trkpt><trkpt lat="40.89676401480284" lon="9.073984468419841"><ele>403.3333333333333</ele><time>2026-04-30T09:41:12Z</time></trkpt><trkpt lat="40.89680434979601" lon="9.074217032386267"><ele>414.66666666666663</ele><time>2026-04-30T09:41:13Z</time></trkpt><trkpt lat="40.89690041686089" lon="9.074422089458283"><ele>426.0</ele><time>2026-04-30T09:41:14Z</time></trkpt><trkpt lat="40.89703058195173" lon="9.074594840138275"><ele>426.0</ele><time>2026-04-30T09:41:15Z</time></trkpt><trkpt lat="40.89712103879719" lon="9.074791034307255"><ele>426.0</ele><time>2026-04-30T09:41:16Z</time></trkpt><trkpt lat="40.89720389043163" lon="9.074973359451645"><ele>426.0</ele><time>2026-04-30T09:41:17Z</time></trkpt><trkpt lat="40.89722999726639" lon="9.075201440037237"><ele>422.66666666666663</ele><time>2026-04-30T09:41:18Z</time></trkpt><trkpt lat="40.89726887310728" lon="9.0754461527595"><ele>419.3333333333333</ele><time>2026-04-30T09:41:19Z</time></trkpt><trkpt lat="40.8973113814389" lon="9.07569600467925"><ele>416.0</ele><time>2026-04-30T09:41:20Z</time></trkpt><trkpt lat="40.89735680690041" lon="9.075945099100542"><ele>414.3333333333333</ele><time>2026-04-30T09:41:21Z</time></trkpt><trkpt lat="40.897413648573156" lon="9.076188794727235"><ele>412.66666666666663</ele><time>2026-04-30T09:41:22Z</time></trkpt><trkpt lat="40.8974800156935" lon="9.076412317889492"><ele>411.0</ele><time>2026-04-30T09:41:23Z</time></trkpt><trkpt lat="40.89756134190313" lon="9.076620177836652"><ele>419.0</ele><time>2026-04-30T09:41:24Z</time></trkpt><trkpt lat="40.897658794990804" lon="9.07679998930373"><ele>427.0</ele><time>2026-04-30T09:41:25Z</time></trkpt><trkpt lat="40.89776910020332" lon="9.076943096200594"><ele>435.0</ele><time>2026-04-30T09:41:26Z</time></trkpt><trkpt lat="40.89790944174718" lon="9.077023736465176"><ele>435.0</ele><time>2026-04-30T09:41:27Z</time></trkpt><trkpt lat="40.89805638518445" lon="9.077089572921635"><ele>435.0</ele><time>2026-04-30T09:41:28Z</time></trkpt><trkpt lat="40.89820247724616" lon="9.077160050418863"><ele>435.0</ele><time>2026-04-30T09:41:29Z</time></trkpt><trkpt lat="40.89835425021128" lon="9.077242583407621"><ele>438.0</ele><time>2026-04-30T09:41:30Z</time></trkpt><trkpt lat="40.89848830843793" lon="9.077361207691082"><ele>441.0</ele><time>2026-04-30T09:41:31Z</time></trkpt><trkpt lat="40.89860330235119" lon="9.077539881263865"><ele>444.0</ele><time>2026-04-30T09:41:32Z</time></trkpt><trkpt lat="40.89873742100749" lon="9.077716942892224"><ele>444.0</ele><time>2026-04-30T09:41:33Z</time></trkpt><trkpt lat="40.89888418315163" lon="9.077884343148027"><ele>444.0</ele><time>2026-04-30T09:41:34Z</time></trkpt><trkpt lat="40.899050756938735" lon="9.07802228019128"><ele>444.0</ele><time>2026-04-30T09:41:35Z</time></trkpt><trkpt lat="40.89923479661527" lon="9.078142043653793"><ele>446.0</ele><time>2026-04-30T09:41:36Z</time></trkpt><trkpt lat="40.89940436972769" lon="9.078295937787027"><ele>448.0</ele><time>2026-04-30T09:41:37Z</time></trkpt><trkpt lat="40.899563534696675" lon="9.078476999488455"><ele>450.0</ele><time>2026-04-30T09:41:38Z</time></trkpt><trkpt lat="40.89971512470754" lon="9.07863855043967"><ele>450.0</ele><time>2026-04-30T09:41:39Z</time></trkpt><trkpt lat="40.89986920539731" lon="9.078791939493739"><ele>450.0</ele><time>2026-04-30T09:41:40Z</time></trkpt><trkpt lat="40.900050799525516" lon="9.078886523040092"><ele>450.0</ele><time>2026-04-30T09:41:41Z</time></trkpt><trkpt lat="40.90022856338835" lon="9.07899957020238"><ele>443.33333333333337</ele><time>2026-04-30T09:41:42Z</time></trkpt><trkpt lat="40.90042491039003" lon="9.079067828225956"><ele>436.6666666666667</ele><time>2026-04-30T09:41:43Z</time></trkpt><trkpt lat="40.90061806107185" lon="9.079155510680483"><ele>430.0</ele><time>2026-04-30T09:41:44Z</time></trkpt><trkpt lat="40.900808031346806" lon="9.079235443748747"><ele>437.6666666666667</ele><time>2026-04-30T09:41:45Z</time></trkpt><trkpt lat="40.90099445877112" lon="9.079316532995787"><ele>445.33333333333337</ele><time>2026-04-30T09:41:46Z</time></trkpt><trkpt lat="40.901166995797816" lon="9.079406171812495"><ele>453.0</ele><time>2026-04-30T09:41:47Z</time></trkpt><trkpt lat="40.90133779532023" lon="9.079450019111416"><ele>453.0</ele><time>2026-04-30T09:41:48.001Z</time></trkpt><trkpt lat="40.90150648886952" lon="9.079464770158676"><ele>453.0</ele><time>2026-04-30T09:41:49.001Z</time></trkpt><trkpt lat="40.90165034180116" lon="9.079461062851378"><ele>453.0</ele><time>2026-04-30T09:41:50.001Z</time></trkpt><trkpt lat="40.90178101487258" lon="9.079543083283774"><ele>456.75</ele><time>2026-04-30T09:41:51.001Z</time></trkpt><trkpt lat="40.90187381754868" lon="9.079687788411064"><ele>460.5</ele><time>2026-04-30T09:41:52.001Z</time></trkpt><trkpt lat="40.9019971221193" lon="9.079754148709354"><ele>464.25</ele><time>2026-04-30T09:41:53.001Z</time></trkpt><trkpt lat="40.902132566105315" lon="9.079808728848125"><ele>468.0</ele><time>2026-04-30T09:41:54.001Z</time></trkpt><trkpt lat="40.90227133182589" lon="9.079815520146674"><ele>468.0</ele><time>2026-04-30T09:41:55.001Z</time></trkpt><trkpt lat="40.902405760523116" lon="9.079778870273168"><ele>468.0</ele><time>2026-04-30T09:41:56.001Z</time></trkpt><trkpt lat="40.90252003135864" lon="9.079696420538314"><ele>468.0</ele><time>2026-04-30T09:41:57.001Z</time></trkpt><trkpt lat="40.90265650637566" lon="9.079588118824335"><ele>468.0</ele><time>2026-04-30T09:41:58.001Z</time></trkpt><trkpt lat="40.90278522422598" lon="9.079537129306711"><ele>466.66666666666663</ele><time>2026-04-30T09:41:59.001Z</time></trkpt><trkpt lat="40.90292012401136" lon="9.079544519316224"><ele>465.3333333333333</ele><time>2026-04-30T09:42:00.001Z</time></trkpt><trkpt lat="40.90307712510093" lon="9.079580748333733"><ele>464.0</ele><time>2026-04-30T09:42:01.001Z</time></trkpt><trkpt lat="40.90325309507561" lon="9.079627371238809"><ele>464.0</ele><time>2026-04-30T09:42:02.001Z</time></trkpt><trkpt lat="40.903400780662494" lon="9.07964189686774"><ele>464.0</ele><time>2026-04-30T09:42:03.001Z</time></trkpt><trkpt lat="40.90355472573323" lon="9.079606819924578"><ele>464.0</ele><time>2026-04-30T09:42:04.001Z</time></trkpt><trkpt lat="40.90369123540698" lon="9.079545278357964"><ele>464.0</ele><time>2026-04-30T09:42:05.001Z</time></trkpt><trkpt lat="40.90381978690437" lon="9.079467790995741"><ele>463.75</ele><time>2026-04-30T09:42:06.001Z</time></trkpt><trkpt lat="40.90393166526896" lon="9.079405684515784"><ele>463.5</ele><time>2026-04-30T09:42:07.001Z</time></trkpt><trkpt lat="40.904053452910475" lon="9.079359735501994"><ele>463.25</ele><time>2026-04-30T09:42:08.001Z</time></trkpt><trkpt lat="40.90418364750251" lon="9.079333704033635"><ele>463.0</ele><time>2026-04-30T09:42:09.001Z</time></trkpt><trkpt lat="40.90429903758922" lon="9.079351000287822"><ele>466.2</ele><time>2026-04-30T09:42:10.001Z</time></trkpt><trkpt lat="40.90439832864666" lon="9.07938370111015"><ele>469.4</ele><time>2026-04-30T09:42:11.001Z</time></trkpt><trkpt lat="40.904466498902906" lon="9.07946356640342"><ele>472.59999999999997</ele><time>2026-04-30T09:42:12.001Z</time></trkpt><trkpt lat="40.90449613082522" lon="9.079565372676882"><ele>475.79999999999995</ele><time>2026-04-30T09:42:13.001Z</time></trkpt><trkpt lat="40.904528617728616" lon="9.079683110898387"><ele>479.0</ele><time>2026-04-30T09:42:14.001Z</time></trkpt><trkpt lat="40.90458769921864" lon="9.07980361397409"><ele>479.0</ele><time>2026-04-30T09:42:15.001Z</time></trkpt><trkpt lat="40.90467840883965" lon="9.079887667516546"><ele>479.0</ele><time>2026-04-30T09:42:16.001Z</time></trkpt><trkpt lat="40.904768437696305" lon="9.079956703778501"><ele>479.0</ele><time>2026-04-30T09:42:17.001Z</time></trkpt><trkpt lat="40.90486743231861" lon="9.079993199289554"><ele>479.0</ele><time>2026-04-30T09:42:18.001Z</time></trkpt><trkpt lat="40.90497184365825" lon="9.080024842571412"><ele>479.0</ele><time>2026-04-30T09:42:19.001Z</time></trkpt><trkpt lat="40.905070441441296" lon="9.080062146815084"><ele>480.79999999999995</ele><time>2026-04-30T09:42:20.001Z</time></trkpt><trkpt lat="40.905158618307205" lon="9.080109349784678"><ele>482.59999999999997</ele><time>2026-04-30T09:42:21.001Z</time></trkpt><trkpt lat="40.905235593163084" lon="9.080181913261796"><ele>484.4</ele><time>2026-04-30T09:42:22.001Z</time></trkpt><trkpt lat="40.90529566553736" lon="9.080289674353251"><ele>486.2</ele><time>2026-04-30T09:42:23.001Z</time></trkpt><trkpt lat="40.90534641732638" lon="9.08042387990585"><ele>488.0</ele><time>2026-04-30T09:42:24.001Z</time></trkpt><trkpt lat="40.905408674834355" lon="9.080565497883992"><ele>488.0</ele><time>2026-04-30T09:42:25.001Z</time></trkpt><trkpt lat="40.90550127831592" lon="9.080683423158407"><ele>488.0</ele><time>2026-04-30T09:42:26.001Z</time></trkpt><trkpt lat="40.90560697898924" lon="9.080828277031458"><ele>488.0</ele><time>2026-04-30T09:42:27.001Z</time></trkpt><trkpt lat="40.905754711673694" lon="9.080980649403381"><ele>491.66666666666663</ele><time>2026-04-30T09:42:28Z</time></trkpt><trkpt lat="40.90593183518622" lon="9.08112807638241"><ele>495.33333333333337</ele><time>2026-04-30T09:42:29Z</time></trkpt><trkpt lat="40.90612278457326" lon="9.081276821161165"><ele>499.0</ele><time>2026-04-30T09:42:30Z</time></trkpt><trkpt lat="40.90631492933963" lon="9.081409702465702"><ele>499.0</ele><time>2026-04-30T09:42:31Z</time></trkpt><trkpt lat="40.906479645361834" lon="9.081596491907687"><ele>499.0</ele><time>2026-04-30T09:42:32Z</time></trkpt><trkpt lat="40.906622354021756" lon="9.081809000393905"><ele>499.0</ele><time>2026-04-30T09:42:33Z</time></trkpt><trkpt lat="40.9067473215003" lon="9.082026264549402"><ele>498.6666666666667</ele><time>2026-04-30T09:42:34Z</time></trkpt><trkpt lat="40.90685144246052" lon="9.082246352695355"><ele>498.33333333333337</ele><time>2026-04-30T09:42:35Z</time></trkpt><trkpt lat="40.90695076377311" lon="9.082501069156939"><ele>498.0</ele><time>2026-04-30T09:42:36Z</time></trkpt><trkpt lat="40.90709538622185" lon="9.082712411833644"><ele>493.0</ele><time>2026-04-30T09:42:37Z</time></trkpt><trkpt lat="40.90722766687254" lon="9.082930060588291"><ele>488.0</ele><time>2026-04-30T09:42:38Z</time></trkpt><trkpt lat="40.90735211610468" lon="9.0831337827104"><ele>483.0</ele><time>2026-04-30T09:42:39Z</time></trkpt><trkpt lat="40.90746661964691" lon="9.083321290322719"><ele>484.0</ele><time>2026-04-30T09:42:40Z</time></trkpt><trkpt lat="40.907574990050975" lon="9.083498514145402"><ele>485.0</ele><time>2026-04-30T09:42:41Z</time></trkpt><trkpt lat="40.90766780658967" lon="9.083675023757309"><ele>486.0</ele><time>2026-04-30T09:42:42Z</time></trkpt><trkpt lat="40.90774670775871" lon="9.083853472268068"><ele>486.0</ele><time>2026-04-30T09:42:43Z</time></trkpt><trkpt lat="40.90780006052845" lon="9.084030235117249"><ele>486.0</ele><time>2026-04-30T09:42:44Z</time></trkpt><trkpt lat="40.90783113151829" lon="9.084211950247768"><ele>486.0</ele><time>2026-04-30T09:42:45Z</time></trkpt><trkpt lat="40.9078261150992" lon="9.084396839749298"><ele>486.0</ele><time>2026-04-30T09:42:46Z</time></trkpt><trkpt lat="40.90784052896926" lon="9.08458301575213"><ele>483.66666666666663</ele><time>2026-04-30T09:42:47Z</time></trkpt><trkpt lat="40.90784274548307" lon="9.084775712720747"><ele>481.3333333333333</ele><time>2026-04-30T09:42:48Z</time></trkpt><trkpt lat="40.9078279341272" lon="9.084977973204287"><ele>479.0</ele><time>2026-04-30T09:42:49Z</time></trkpt><trkpt lat="40.90782873883283" lon="9.08518669111244"><ele>478.0</ele><time>2026-04-30T09:42:50Z</time></trkpt><trkpt lat="40.90782956861495" lon="9.085401913175449"><ele>477.0</ele><time>2026-04-30T09:42:51Z</time></trkpt><trkpt lat="40.907830404292376" lon="9.08561866427934"><ele>476.0</ele><time>2026-04-30T09:42:52Z</time></trkpt><trkpt lat="40.9078327747482" lon="9.085837937650806"><ele>476.0</ele><time>2026-04-30T09:42:53Z</time></trkpt><trkpt lat="40.907835986256686" lon="9.086060602094648"><ele>476.0</ele><time>2026-04-30T09:42:54Z</time></trkpt><trkpt lat="40.907839365218045" lon="9.086294876466624"><ele>476.0</ele><time>2026-04-30T09:42:55Z</time></trkpt><trkpt lat="40.90784290483218" lon="9.086540289530582"><ele>477.0</ele><time>2026-04-30T09:42:56Z</time></trkpt><trkpt lat="40.90784655945268" lon="9.08678969718643"><ele>478.0</ele><time>2026-04-30T09:42:57Z</time></trkpt><trkpt lat="40.90785052494759" lon="9.087040668662189"><ele>479.0</ele><time>2026-04-30T09:42:58Z</time></trkpt><trkpt lat="40.90785508637301" lon="9.087287370809664"><ele>478.3333333333333</ele><time>2026-04-30T09:42:59Z</time></trkpt><trkpt lat="40.907861025733304" lon="9.087528246156548"><ele>477.66666666666663</ele><time>2026-04-30T09:43:00Z</time></trkpt><trkpt lat="40.90786448293194" lon="9.087762434679385"><ele>477.0</ele><time>2026-04-30T09:43:01Z</time></trkpt><trkpt lat="40.90787775233356" lon="9.087990798386654"><ele>477.0</ele><time>2026-04-30T09:43:02Z</time></trkpt><trkpt lat="40.90785087659831" lon="9.088222325331413"><ele>477.0</ele><time>2026-04-30T09:43:03Z</time></trkpt><trkpt lat="40.90780616989732" lon="9.0884545460569"><ele>477.0</ele><time>2026-04-30T09:43:04Z</time></trkpt><trkpt lat="40.90772869300554" lon="9.088687525446185"><ele>477.33333333333337</ele><time>2026-04-30T09:43:05Z</time></trkpt><trkpt lat="40.907660642028645" lon="9.088932997125022"><ele>477.6666666666667</ele><time>2026-04-30T09:43:06Z</time></trkpt><trkpt lat="40.907591307964594" lon="9.089181496787749"><ele>478.0</ele><time>2026-04-30T09:43:07Z</time></trkpt><trkpt lat="40.907522934425906" lon="9.089426553602044"><ele>481.0</ele><time>2026-04-30T09:43:08Z</time></trkpt><trkpt lat="40.90745160502965" lon="9.089679346020661"><ele>484.0</ele><time>2026-04-30T09:43:09Z</time></trkpt><trkpt lat="40.907385604827404" lon="9.089911124147031"><ele>487.0</ele><time>2026-04-30T09:43:10Z</time></trkpt><trkpt lat="40.90732448911195" lon="9.090126724727089"><ele>487.0</ele><time>2026-04-30T09:43:11Z</time></trkpt><trkpt lat="40.907272008504556" lon="9.090327011935166"><ele>487.0</ele><time>2026-04-30T09:43:12Z</time></trkpt><trkpt lat="40.90724616190812" lon="9.090539104731429"><ele>487.0</ele><time>2026-04-30T09:43:13Z</time></trkpt><trkpt lat="40.907264751181785" lon="9.09075097572246"><ele>487.33333333333337</ele><time>2026-04-30T09:43:14Z</time></trkpt><trkpt lat="40.90730422202891" lon="9.090959399218333"><ele>487.66666666666663</ele><time>2026-04-30T09:43:15Z</time></trkpt><trkpt lat="40.907348008897266" lon="9.091164644283621"><ele>488.0</ele><time>2026-04-30T09:43:16Z</time></trkpt><trkpt lat="40.907387911143225" lon="9.091364051841742"><ele>488.0</ele><time>2026-04-30T09:43:17Z</time></trkpt><trkpt lat="40.90742099373373" lon="9.09156835091508"><ele>488.0</ele><time>2026-04-30T09:43:18Z</time></trkpt><trkpt lat="40.90743722191835" lon="9.091772031705398"><ele>488.0</ele><time>2026-04-30T09:43:19Z</time></trkpt><trkpt lat="40.90739434599292" lon="9.091977236723409"><ele>488.66666666666663</ele><time>2026-04-30T09:43:20Z</time></trkpt><trkpt lat="40.90730917630993" lon="9.092161252953975"><ele>489.33333333333337</ele><time>2026-04-30T09:43:21Z</time></trkpt><trkpt lat="40.90724607669437" lon="9.092367663475002"><ele>490.0</ele><time>2026-04-30T09:43:22Z</time></trkpt><trkpt lat="40.90715763432254" lon="9.092555570825136"><ele>490.0</ele><time>2026-04-30T09:43:23Z</time></trkpt><trkpt lat="40.9070929522918" lon="9.092751589687811"><ele>490.0</ele><time>2026-04-30T09:43:24Z</time></trkpt><trkpt lat="40.90705144440962" lon="9.092959018105716"><ele>490.0</ele><time>2026-04-30T09:43:25Z</time></trkpt><trkpt lat="40.907039002297104" lon="9.093179577253466"><ele>490.0</ele><time>2026-04-30T09:43:26Z</time></trkpt><trkpt lat="40.907045642966146" lon="9.093405309894731"><ele>490.0</ele><time>2026-04-30T09:43:27Z</time></trkpt><trkpt lat="40.90705624305743" lon="9.093633584342816"><ele>490.0</ele><time>2026-04-30T09:43:28Z</time></trkpt><trkpt lat="40.90706670888261" lon="9.093858967144147"><ele>490.0</ele><time>2026-04-30T09:43:29Z</time></trkpt><trkpt lat="40.90707798509646" lon="9.094083871654952"><ele>490.0</ele><time>2026-04-30T09:43:30Z</time></trkpt><trkpt lat="40.907110056566495" lon="9.094292850869513"><ele>490.0</ele><time>2026-04-30T09:43:31Z</time></trkpt><trkpt lat="40.9071167025485" lon="9.094479825063996"><ele>492.25</ele><time>2026-04-30T09:43:32Z</time></trkpt><trkpt lat="40.90711364206921" lon="9.09465954009917"><ele>494.5</ele><time>2026-04-30T09:43:33.001Z</time></trkpt><trkpt lat="40.90709000284939" lon="9.094834342684043"><ele>496.75</ele><time>2026-04-30T09:43:34.001Z</time></trkpt><trkpt lat="40.907012109290086" lon="9.095001392944376"><ele>499.0</ele><time>2026-04-30T09:43:35.001Z</time></trkpt><trkpt lat="40.906923788711694" lon="9.095163608346208"><ele>499.5</ele><time>2026-04-30T09:43:36.001Z</time></trkpt><trkpt lat="40.90683490545121" lon="9.095308775037585"><ele>500.0</ele><time>2026-04-30T09:43:37.001Z</time></trkpt><trkpt lat="40.906752233503525" lon="9.095438120221543"><ele>500.5</ele><time>2026-04-30T09:43:38.001Z</time></trkpt><trkpt lat="40.90668213784452" lon="9.095546213173126"><ele>501.0</ele><time>2026-04-30T09:43:39.001Z</time></trkpt><trkpt lat="40.90660778160041" lon="9.095631204936371"><ele>501.0</ele><time>2026-04-30T09:43:40.001Z</time></trkpt><trkpt lat="40.906517379286534" lon="9.095685602253651"><ele>501.0</ele><time>2026-04-30T09:43:41.001Z</time></trkpt><trkpt lat="40.906409402699985" lon="9.095685869817773"><ele>501.0</ele><time>2026-04-30T09:43:42.001Z</time></trkpt><trkpt lat="40.90629759511544" lon="9.095687677960786"><ele>501.0</ele><time>2026-04-30T09:43:43.001Z</time></trkpt><trkpt lat="40.90618684796103" lon="9.095706307917736"><ele>501.0</ele><time>2026-04-30T09:43:44.001Z</time></trkpt><trkpt lat="40.906077108499524" lon="9.095738217227604"><ele>503.25</ele><time>2026-04-30T09:43:45.001Z</time></trkpt><trkpt lat="40.905964430678594" lon="9.095767755902349"><ele>505.5</ele><time>2026-04-30T09:43:46.001Z</time></trkpt><trkpt lat="40.905857730132766" lon="9.095833219294569"><ele>507.75</ele><time>2026-04-30T09:43:47.001Z</time></trkpt><trkpt lat="40.9057605447009" lon="9.095924934471427"><ele>510.0</ele><time>2026-04-30T09:43:48.001Z</time></trkpt><trkpt lat="40.90568220675827" lon="9.096043289342687"><ele>510.0</ele><time>2026-04-30T09:43:49.001Z</time></trkpt><trkpt lat="40.90559210108976" lon="9.096145483564422"><ele>510.0</ele><time>2026-04-30T09:43:50.001Z</time></trkpt><trkpt lat="40.905505937992835" lon="9.09625524071085"><ele>510.0</ele><time>2026-04-30T09:43:51.001Z</time></trkpt><trkpt lat="40.905423639250685" lon="9.096373953689877"><ele>510.0</ele><time>2026-04-30T09:43:52.001Z</time></trkpt><trkpt lat="40.90534088366282" lon="9.096493604814135"><ele>510.75</ele><time>2026-04-30T09:43:53.001Z</time></trkpt><trkpt lat="40.90525704577701" lon="9.096621973512423"><ele>511.5</ele><time>2026-04-30T09:43:54.001Z</time></trkpt><trkpt lat="40.90516936059891" lon="9.096754119994685"><ele>512.25</ele><time>2026-04-30T09:43:55.001Z</time></trkpt><trkpt lat="40.90508437607846" lon="9.096879379115437"><ele>513.0</ele><time>2026-04-30T09:43:56.001Z</time></trkpt><trkpt lat="40.90499855619264" lon="9.097002513370457"><ele>513.0</ele><time>2026-04-30T09:43:57.001Z</time></trkpt><trkpt lat="40.904914070613664" lon="9.09712483360799"><ele>513.0</ele><time>2026-04-30T09:43:58.001Z</time></trkpt><trkpt lat="40.9048352934168" lon="9.097253104766905"><ele>513.0</ele><time>2026-04-30T09:43:59.001Z</time></trkpt><trkpt lat="40.90476595452919" lon="9.097386414453354"><ele>513.0</ele><time>2026-04-30T09:44:00.001Z</time></trkpt><trkpt lat="40.90471279108877" lon="9.097523109272755"><ele>514.6</ele><time>2026-04-30T09:44:01.001Z</time></trkpt><trkpt lat="40.904670801598655" lon="9.097661411511213"><ele>516.1999999999999</ele><time>2026-04-30T09:44:02.001Z</time></trkpt><trkpt lat="40.90463456096592" lon="9.097796785295289"><ele>517.8</ele><time>2026-04-30T09:44:03.001Z</time></trkpt><trkpt lat="40.9045974882353" lon="9.09793518859572"><ele>519.4</ele><time>2026-04-30T09:44:04.001Z</time></trkpt><trkpt lat="40.90456044993406" lon="9.098074026713666"><ele>521.0</ele><time>2026-04-30T09:44:05.001Z</time></trkpt><trkpt lat="40.90450875250945" lon="9.098188106942743"><ele>522.8333333333333</ele><time>2026-04-30T09:44:06.001Z</time></trkpt><trkpt lat="40.9044839711629" lon="9.098314739059838"><ele>524.6666666666666</ele><time>2026-04-30T09:44:07.001Z</time></trkpt><trkpt lat="40.90446748101939" lon="9.098435916209722"><ele>526.5</ele><time>2026-04-30T09:44:08.001Z</time></trkpt><trkpt lat="40.90447222430335" lon="9.098546368312602"><ele>528.3333333333334</ele><time>2026-04-30T09:44:09.001Z</time></trkpt><trkpt lat="40.9044923391663" lon="9.098640636849648"><ele>530.1666666666667</ele><time>2026-04-30T09:44:10.001Z</time></trkpt><trkpt lat="40.90452167968002" lon="9.098732713090044"><ele>532.0</ele><time>2026-04-30T09:44:11.001Z</time></trkpt><trkpt lat="40.90458120302829" lon="9.098813422554187"><ele>532.0</ele><time>2026-04-30T09:44:12.001Z</time></trkpt><trkpt lat="40.90461887659286" lon="9.09890799759126"><ele>532.0</ele><time>2026-04-30T09:44:13.001Z</time></trkpt><trkpt lat="40.90468373894292" lon="9.09898158180648"><ele>532.0</ele><time>2026-04-30T09:44:14.001Z</time></trkpt><trkpt lat="40.904739233556555" lon="9.099069772678106"><ele>532.0</ele><time>2026-04-30T09:44:15.001Z</time></trkpt><trkpt lat="40.90479179460815" lon="9.099165633578627"><ele>532.0</ele><time>2026-04-30T09:44:16.001Z</time></trkpt><trkpt lat="40.90484178205752" lon="9.099258412625597"><ele>532.0</ele><time>2026-04-30T09:44:17.001Z</time></trkpt><trkpt lat="40.90488667004802" lon="9.099335004033998"><ele>532.8571428571429</ele><time>2026-04-30T09:44:18.001Z</time></trkpt><trkpt lat="40.90493055178173" lon="9.099407000451754"><ele>533.7142857142858</ele><time>2026-04-30T09:44:19.001Z</time></trkpt><trkpt lat="40.90497308138345" lon="9.099474198713132"><ele>534.5714285714286</ele><time>2026-04-30T09:44:20.001Z</time></trkpt><trkpt lat="40.90502123922771" lon="9.099542059195587"><ele>535.4285714285714</ele><time>2026-04-30T09:44:21.001Z</time></trkpt><trkpt lat="40.90506506777087" lon="9.099605297137705"><ele>536.2857142857143</ele><time>2026-04-30T09:44:22.001Z</time></trkpt><trkpt lat="40.90510835945784" lon="9.099671480762472"><ele>537.1428571428571</ele><time>2026-04-30T09:44:23.001Z</time></trkpt><trkpt lat="40.90514848674911" lon="9.099739005499194"><ele>538.0</ele><time>2026-04-30T09:44:24.001Z</time></trkpt><trkpt lat="40.90518837062622" lon="9.09980945304393"><ele>538.6666666666667</ele><time>2026-04-30T09:44:25.001Z</time></trkpt><trkpt lat="40.905230557856605" lon="9.099879192539188"><ele>539.3333333333334</ele><time>2026-04-30T09:44:26.001Z</time></trkpt><trkpt lat="40.905264295012664" lon="9.099962997541454"><ele>540.0</ele><time>2026-04-30T09:44:28.001Z</time></trkpt><trkpt lat="40.90529486282237" lon="9.100057016576102"><ele>540.6666666666666</ele><time>2026-04-30T09:44:40Z</time></trkpt><trkpt lat="40.905357938551646" lon="9.100124562724119"><ele>541.3333333333333</ele><time>2026-04-30T09:44:42Z</time></trkpt><trkpt lat="40.90548550287225" lon="9.100029058161835"><ele>542.0</ele><time>2026-04-30T09:44:45Z</time></trkpt><trkpt lat="40.90552521474483" lon="9.099953812182779"><ele>542.0</ele><time>2026-04-30T09:44:46Z</time></trkpt><trkpt lat="40.905582983834876" lon="9.09988426020529"><ele>542.0</ele><time>2026-04-30T09:44:47Z</time></trkpt><trkpt lat="40.90564987092265" lon="9.099821772049403"><ele>542.0</ele><time>2026-04-30T09:44:48Z</time></trkpt><trkpt lat="40.905717001442426" lon="9.099768253000558"><ele>542.0</ele><time>2026-04-30T09:44:49Z</time></trkpt><trkpt lat="40.905785110474554" lon="9.099714807990978"><ele>542.0</ele><time>2026-04-30T09:44:50Z</time></trkpt><trkpt lat="40.90585337035296" lon="9.099656116926294"><ele>542.0</ele><time>2026-04-30T09:44:51Z</time></trkpt><trkpt lat="40.90591855331003" lon="9.099601933098262"><ele>542.8571428571429</ele><time>2026-04-30T09:44:52Z</time></trkpt><trkpt lat="40.905982444502605" lon="9.09954863487595"><ele>543.7142857142858</ele><time>2026-04-30T09:44:53Z</time></trkpt><trkpt lat="40.906044163583644" lon="9.099496798823917"><ele>544.5714285714287</ele><time>2026-04-30T09:44:54Z</time></trkpt><trkpt lat="40.90610021644107" lon="9.099444029446584"><ele>545.4285714285714</ele><time>2026-04-30T09:44:55Z</time></trkpt><trkpt lat="40.90616144115011" lon="9.099403180417891"><ele>546.2857142857143</ele><time>2026-04-30T09:44:56Z</time></trkpt><trkpt lat="40.906219822004914" lon="9.099351448895915"><ele>547.1428571428572</ele><time>2026-04-30T09:44:57Z</time></trkpt><trkpt lat="40.90627745808106" lon="9.099302177061222"><ele>548.0</ele><time>2026-04-30T09:44:58Z</time></trkpt><trkpt lat="40.906331384282204" lon="9.09925324353903"><ele>548.0000000000001</ele><time>2026-04-30T09:44:59Z</time></trkpt><trkpt lat="40.90638556878465" lon="9.099206835553241"><ele>548.0</ele><time>2026-04-30T09:45:00Z</time></trkpt><trkpt lat="40.906438007660064" lon="9.099160390324247"><ele>548.0</ele><time>2026-04-30T09:45:01Z</time></trkpt><trkpt lat="40.906495126164366" lon="9.099117602447114"><ele>548.0</ele><time>2026-04-30T09:45:02Z</time></trkpt><trkpt lat="40.906551573733665" lon="9.09907150717449"><ele>548.0</ele><time>2026-04-30T09:45:03Z</time></trkpt><trkpt lat="40.90660398044399" lon="9.099023885155377"><ele>548.0000000000001</ele><time>2026-04-30T09:45:04Z</time></trkpt><trkpt lat="40.906681483972115" lon="9.098953669076964"><ele>548.0</ele><time>2026-04-30T09:45:06Z</time></trkpt><trkpt lat="40.90673678809391" lon="9.098895933997857"><ele>547.2857142857143</ele><time>2026-04-30T09:45:08Z</time></trkpt><trkpt lat="40.90674175235165" lon="9.098800586037504"><ele>546.5714285714286</ele><time>2026-04-30T09:45:10Z</time></trkpt><trkpt lat="40.906796856935394" lon="9.098732824235897"><ele>545.8571428571429</ele><time>2026-04-30T09:45:13Z</time></trkpt><trkpt lat="40.906858236126276" lon="9.098671148847975"><ele>545.1428571428571</ele><time>2026-04-30T09:45:16Z</time></trkpt><trkpt lat="40.90691252955406" lon="9.098626839057868"><ele>544.4285714285714</ele><time>2026-04-30T09:45:18Z</time></trkpt><trkpt lat="40.90698433236184" lon="9.098566079646275"><ele>543.7142857142858</ele><time>2026-04-30T09:45:20Z</time></trkpt><trkpt lat="40.9069674605517" lon="9.098473969289802"><ele>543.0</ele><time>2026-04-30T09:45:24Z</time></trkpt><trkpt lat="40.90690344232419" lon="9.09847744492124"><ele>543.0</ele><time>2026-04-30T09:45:26Z</time></trkpt><trkpt lat="40.90682578242333" lon="9.098567635785269"><ele>543.0</ele><time>2026-04-30T09:45:28.001Z</time></trkpt><trkpt lat="40.90675755341013" lon="9.098628731686084"><ele>543.0</ele><time>2026-04-30T09:45:30.001Z</time></trkpt><trkpt lat="40.90669498646274" lon="9.09868131257728"><ele>543.0</ele><time>2026-04-30T09:45:33.001Z</time></trkpt><trkpt lat="40.906719442263245" lon="9.098763341108281"><ele>543.0</ele><time>2026-04-30T09:51:04Z</time></trkpt><trkpt lat="40.90675693096989" lon="9.09883814870173"><ele>543.0</ele><time>2026-04-30T09:51:15Z</time></trkpt><trkpt lat="40.90680785612868" lon="9.098894367194864"><ele>543.0</ele><time>2026-04-30T09:51:22Z</time></trkpt><trkpt lat="40.90685777859158" lon="9.0989465865092"><ele>543.0</ele><time>2026-04-30T09:51:32Z</time></trkpt><trkpt lat="40.906922373351314" lon="9.098978129416555"><ele>543.0</ele><time>2026-04-30T09:51:41Z</time></trkpt><trkpt lat="40.90689927308759" lon="9.098897066622024"><ele>543.0</ele><time>2026-04-30T09:51:53Z</time></trkpt><trkpt lat="40.90682767259215" lon="9.098838963994712"><ele>543.0</ele><time>2026-04-30T09:52:00Z</time></trkpt><trkpt lat="40.906790707654686" lon="9.098771018483168"><ele>543.0</ele><time>2026-04-30T09:52:16.001Z</time></trkpt><trkpt lat="40.90672569864316" lon="9.098796329358496"><ele>543.0</ele><time>2026-04-30T09:53:27Z</time></trkpt><trkpt lat="40.90671466925747" lon="9.098709317370115"><ele>543.0</ele><time>2026-04-30T09:53:56Z</time></trkpt><trkpt lat="40.906640378308474" lon="9.098708323859228"><ele>543.0</ele><time>2026-04-30T09:57:56Z</time></trkpt><trkpt lat="40.906703219724825" lon="9.09872814181634"><ele>543.0</ele><time>2026-04-30T10:00:21.001Z</time></trkpt><trkpt lat="40.90662878495753" lon="9.098710215493469"><ele>543.0</ele><time>2026-04-30T10:01:01.001Z</time></trkpt><trkpt lat="40.906571088276756" lon="9.098638231856496"><ele>543.0</ele><time>2026-04-30T10:01:10.001Z</time></trkpt><trkpt lat="40.90650331076983" lon="9.098658902151048"><ele>543.0</ele><time>2026-04-30T10:01:24.001Z</time></trkpt><trkpt lat="40.906433257438614" lon="9.09867369613134"><ele>543.0</ele><time>2026-04-30T10:01:29.001Z</time></trkpt><trkpt lat="40.90637145301493" lon="9.098690123107033"><ele>543.0</ele><time>2026-04-30T10:01:38.001Z</time></trkpt><trkpt lat="40.906307528269885" lon="9.098668334750734"><ele>543.0</ele><time>2026-04-30T10:01:52Z</time></trkpt><trkpt lat="40.906371006878885" lon="9.0986868349557"><ele>543.0</ele><time>2026-04-30T10:02:10.001Z</time></trkpt><trkpt lat="40.9063921706923" lon="9.098604199450683"><ele>543.0</ele><time>2026-04-30T10:02:16.001Z</time></trkpt><trkpt lat="40.906461716609826" lon="9.098652776887576"><ele>543.0</ele><time>2026-04-30T10:02:24.001Z</time></trkpt><trkpt lat="40.90653083384606" lon="9.098657949766123"><ele>543.0</ele><time>2026-04-30T10:02:32.001Z</time></trkpt><trkpt lat="40.90659715184471" lon="9.098676321583941"><ele>543.0</ele><time>2026-04-30T10:02:39.001Z</time></trkpt><trkpt lat="40.90664411852023" lon="9.098742369316666"><ele>543.0</ele><time>2026-04-30T10:03:00.001Z</time></trkpt></trkseg></trk></gpx>